<?xml version='1.0' encoding='UTF-8'?><gpx version="1.1" creator="JPX - https://github.com/jenetics/jpx" xmlns="http://www.topografix.com/GPX/1/1"><trk><trkseg><trkpt lat="45.50665652066164" lon="9.239329476643643"><ele>129.0</ele><time>2026-04-24T07:26:34.622Z</time></trkpt><trkpt lat="45.50668463748479" lon="9.239133408642664"><ele>129.0</ele><time>2026-04-24T07:26:40.608Z</time></trkpt><trkpt lat="45.5065253636815" lon="9.239029550183842"><ele>129.0</ele><time>2026-04-24T07:26:45.594Z</time></trkpt><trkpt lat="45.50675093046079" lon="9.239049469043616"><ele>129.6</ele><time>2026-04-24T07:26:48Z</time></trkpt><trkpt lat="45.5067566722761" lon="9.238862934338329"><ele>130.2</ele><time>2026-04-24T07:26:57Z</time></trkpt><trkpt lat="45.50674353702747" lon="9.238772808581691"><ele>130.79999999999998</ele><time>2026-04-24T07:26:58Z</time></trkpt><trkpt lat="45.50668036556636" lon="9.238647573821153"><ele>131.4</ele><time>2026-04-24T07:27:00Z</time></trkpt><trkpt lat="45.50665594902538" lon="9.238535406777963"><ele>132.0</ele><time>2026-04-24T07:27:03Z</time></trkpt><trkpt lat="45.50662852935973" lon="9.238409436473239"><ele>132.0</ele><time>2026-04-24T07:27:05Z</time></trkpt><trkpt lat="45.50657414105385" lon="9.238271493420996"><ele>132.0</ele><time>2026-04-24T07:27:07Z</time></trkpt><trkpt lat="45.506535578120875" lon="9.238101419388267"><ele>132.0</ele><time>2026-04-24T07:27:09Z</time></trkpt><trkpt lat="45.50649841177642" lon="9.237951307496195"><ele>132.0</ele><time>2026-04-24T07:27:10Z</time></trkpt><trkpt lat="45.506468712576655" lon="9.237858233793018"><ele>132.0</ele><time>2026-04-24T07:27:11Z</time></trkpt><trkpt lat="45.50644830352463" lon="9.237747861207415"><ele>132.0</ele><time>2026-04-24T07:27:12Z</time></trkpt><trkpt lat="45.50642495554879" lon="9.23764390608792"><ele>132.0</ele><time>2026-04-24T07:27:13Z</time></trkpt><trkpt lat="45.506394549251645" lon="9.237553041371346"><ele>132.0</ele><time>2026-04-24T07:27:14Z</time></trkpt><trkpt lat="45.50637135914125" lon="9.237411908087083"><ele>132.0</ele><time>2026-04-24T07:27:16Z</time></trkpt><trkpt lat="45.506355182059906" lon="9.237312496859529"><ele>132.0</ele><time>2026-04-24T07:27:19Z</time></trkpt><trkpt lat="45.50624047585584" lon="9.237286451563499"><ele>132.0</ele><time>2026-04-24T07:27:36Z</time></trkpt><trkpt lat="45.506161225717" lon="9.237318035654704"><ele>132.0</ele><time>2026-04-24T07:27:37Z</time></trkpt><trkpt lat="45.506079882314964" lon="9.237348650231924"><ele>132.0</ele><time>2026-04-24T07:27:38Z</time></trkpt><trkpt lat="45.505997634575856" lon="9.23737694380955"><ele>132.0</ele><time>2026-04-24T07:27:39Z</time></trkpt><trkpt lat="45.50592253529049" lon="9.237403773404596"><ele>132.0</ele><time>2026-04-24T07:27:40Z</time></trkpt><trkpt lat="45.5058462909285" lon="9.237437113984985"><ele>132.0</ele><time>2026-04-24T07:27:41Z</time></trkpt><trkpt lat="45.5057609363763" lon="9.23747704082913"><ele>132.0</ele><time>2026-04-24T07:27:42Z</time></trkpt><trkpt lat="45.505673543168896" lon="9.237517934618921"><ele>132.0</ele><time>2026-04-24T07:27:43Z</time></trkpt><trkpt lat="45.50559285189508" lon="9.237551594407217"><ele>132.0</ele><time>2026-04-24T07:27:44Z</time></trkpt><trkpt lat="45.50551592625205" lon="9.2375794928972"><ele>132.0</ele><time>2026-04-24T07:27:45Z</time></trkpt><trkpt lat="45.50543202015145" lon="9.23762555550919"><ele>132.0</ele><time>2026-04-24T07:27:46Z</time></trkpt><trkpt lat="45.50531320762464" lon="9.23769454148891"><ele>132.0</ele><time>2026-04-24T07:27:48Z</time></trkpt><trkpt lat="45.505248769131384" lon="9.237726728355153"><ele>131.83333333333334</ele><time>2026-04-24T07:27:49.001Z</time></trkpt><trkpt lat="45.50518810938822" lon="9.237764036833479"><ele>131.66666666666666</ele><time>2026-04-24T07:27:50.001Z</time></trkpt><trkpt lat="45.50513042194545" lon="9.237805510826027"><ele>131.5</ele><time>2026-04-24T07:27:51.001Z</time></trkpt><trkpt lat="45.50502750091243" lon="9.237925954603451"><ele>131.33333333333331</ele><time>2026-04-24T07:27:53.001Z</time></trkpt><trkpt lat="45.504980603168505" lon="9.237993623915173"><ele>131.16666666666666</ele><time>2026-04-24T07:27:54.001Z</time></trkpt><trkpt lat="45.50491409964093" lon="9.238102202267136"><ele>131.0</ele><time>2026-04-24T07:27:56.001Z</time></trkpt><trkpt lat="45.50484702362041" lon="9.238149016747043"><ele>131.0</ele><time>2026-04-24T07:27:59.001Z</time></trkpt><trkpt lat="45.50477985598452" lon="9.238246756980459"><ele>131.0</ele><time>2026-04-24T07:28:02.001Z</time></trkpt><trkpt lat="45.50469792960553" lon="9.238385811676029"><ele>131.0</ele><time>2026-04-24T07:28:04.001Z</time></trkpt><trkpt lat="45.504645198593316" lon="9.23846272136122"><ele>131.0</ele><time>2026-04-24T07:28:05.001Z</time></trkpt><trkpt lat="45.50459191065999" lon="9.238549337588259"><ele>131.0</ele><time>2026-04-24T07:28:06.001Z</time></trkpt><trkpt lat="45.504542598570175" lon="9.238640950460319"><ele>130.8</ele><time>2026-04-24T07:28:07.001Z</time></trkpt><trkpt lat="45.50447339665182" lon="9.238779212393457"><ele>130.6</ele><time>2026-04-24T07:28:09.001Z</time></trkpt><trkpt lat="45.50443164768346" lon="9.238856418214477"><ele>130.4</ele><time>2026-04-24T07:28:10.001Z</time></trkpt><trkpt lat="45.50438321578321" lon="9.238943094708343"><ele>130.2</ele><time>2026-04-24T07:28:11.001Z</time></trkpt><trkpt lat="45.50433516615938" lon="9.23902781532322"><ele>130.0</ele><time>2026-04-24T07:28:12.001Z</time></trkpt><trkpt lat="45.504262232127466" lon="9.239147462659995"><ele>130.0</ele><time>2026-04-24T07:28:14.001Z</time></trkpt><trkpt lat="45.504180536133696" lon="9.239277666693788"><ele>130.0</ele><time>2026-04-24T07:28:16.001Z</time></trkpt><trkpt lat="45.50409108578893" lon="9.239406750365488"><ele>130.0</ele><time>2026-04-24T07:28:18.001Z</time></trkpt><trkpt lat="45.50402354226959" lon="9.239490607553607"><ele>130.0</ele><time>2026-04-24T07:28:20.001Z</time></trkpt><trkpt lat="45.503952788771926" lon="9.239587279291394"><ele>130.0</ele><time>2026-04-24T07:28:26.001Z</time></trkpt><trkpt lat="45.50390355186287" lon="9.23964945863888"><ele>130.0</ele><time>2026-04-24T07:28:29.001Z</time></trkpt><trkpt lat="45.50385334432413" lon="9.23971529873562"><ele>130.0</ele><time>2026-04-24T07:28:36.001Z</time></trkpt><trkpt lat="45.50380725535858" lon="9.239790303976765"><ele>130.0</ele><time>2026-04-24T07:28:42.001Z</time></trkpt><trkpt lat="45.50373878697162" lon="9.23978963308183"><ele>130.0</ele><time>2026-04-24T07:28:46.001Z</time></trkpt><trkpt lat="45.5036837534941" lon="9.239710612074518"><ele>130.0</ele><time>2026-04-24T07:28:48.001Z</time></trkpt><trkpt lat="45.503590599173435" lon="9.239630774170813"><ele>130.0</ele><time>2026-04-24T07:28:50.001Z</time></trkpt><trkpt lat="45.5034943171129" lon="9.239514407655003"><ele>129.83333333333334</ele><time>2026-04-24T07:28:52.001Z</time></trkpt><trkpt lat="45.50343837351546" lon="9.239437311116047"><ele>129.66666666666669</ele><time>2026-04-24T07:28:53.001Z</time></trkpt><trkpt lat="45.50337194598602" lon="9.239337161358934"><ele>129.5</ele><time>2026-04-24T07:28:55.001Z</time></trkpt><trkpt lat="45.503313002188776" lon="9.239242268709523"><ele>129.33333333333334</ele><time>2026-04-24T07:28:57.001Z</time></trkpt><trkpt lat="45.50325555732874" lon="9.239161203949976"><ele>129.16666666666666</ele><time>2026-04-24T07:28:59.001Z</time></trkpt><trkpt lat="45.503176191037035" lon="9.239097244543732"><ele>129.0</ele><time>2026-04-24T07:29:01.001Z</time></trkpt><trkpt lat="45.50310770990802" lon="9.23901214686777"><ele>129.0</ele><time>2026-04-24T07:29:03.001Z</time></trkpt><trkpt lat="45.50300335819144" lon="9.238923031127834"><ele>129.0</ele><time>2026-04-24T07:29:05.001Z</time></trkpt><trkpt lat="45.50291307105949" lon="9.238805732715527"><ele>129.0</ele><time>2026-04-24T07:29:07.001Z</time></trkpt><trkpt lat="45.5028402986726" lon="9.238754913885792"><ele>129.0</ele><time>2026-04-24T07:29:09.001Z</time></trkpt><trkpt lat="45.50277662841434" lon="9.238719652750266"><ele>129.0</ele><time>2026-04-24T07:29:13.001Z</time></trkpt><trkpt lat="45.50272003942918" lon="9.23864101568183"><ele>129.0</ele><time>2026-04-24T07:29:18.001Z</time></trkpt><trkpt lat="45.50268148563755" lon="9.238513982598047"><ele>129.0</ele><time>2026-04-24T07:29:21.001Z</time></trkpt><trkpt lat="45.502598040998016" lon="9.238407969736162"><ele>129.0</ele><time>2026-04-24T07:29:23.001Z</time></trkpt><trkpt lat="45.50250569088319" lon="9.238292696023583"><ele>129.0</ele><time>2026-04-24T07:29:25.001Z</time></trkpt><trkpt lat="45.50241184540583" lon="9.238190077655148"><ele>128.8</ele><time>2026-04-24T07:29:27.001Z</time></trkpt><trkpt lat="45.502329509572036" lon="9.23809699386287"><ele>128.60000000000002</ele><time>2026-04-24T07:29:29.002Z</time></trkpt><trkpt lat="45.5022561645474" lon="9.23801587308672"><ele>128.4</ele><time>2026-04-24T07:29:31.002Z</time></trkpt><trkpt lat="45.50216436388527" lon="9.23789405030059"><ele>128.20000000000002</ele><time>2026-04-24T07:29:33.003Z</time></trkpt><trkpt lat="45.50211988568185" lon="9.237828556162645"><ele>128.0</ele><time>2026-04-24T07:29:34.003Z</time></trkpt><trkpt lat="45.502020534914095" lon="9.237720080216594"><ele>128.28571428571428</ele><time>2026-04-24T07:29:36.003Z</time></trkpt><trkpt lat="45.50197373979125" lon="9.237643020907052"><ele>128.57142857142856</ele><time>2026-04-24T07:29:37.003Z</time></trkpt><trkpt lat="45.501925151695154" lon="9.237574796953103"><ele>128.85714285714286</ele><time>2026-04-24T07:29:38.003Z</time></trkpt><trkpt lat="45.501872561303934" lon="9.237496925000984"><ele>129.14285714285714</ele><time>2026-04-24T07:29:39.003Z</time></trkpt><trkpt lat="45.50182153390683" lon="9.237423426931162"><ele>129.42857142857144</ele><time>2026-04-24T07:29:40.003Z</time></trkpt><trkpt lat="45.501763433049796" lon="9.237369180077962"><ele>129.71428571428572</ele><time>2026-04-24T07:29:41.003Z</time></trkpt><trkpt lat="45.501715476472256" lon="9.237296201319863"><ele>130.0</ele><time>2026-04-24T07:29:42.003Z</time></trkpt><trkpt lat="45.501669966447444" lon="9.237215544136161"><ele>130.33333333333334</ele><time>2026-04-24T07:29:43.003Z</time></trkpt><trkpt lat="45.50159063199839" lon="9.237074764526785"><ele>130.66666666666669</ele><time>2026-04-24T07:29:45.003Z</time></trkpt><trkpt lat="45.50154607913769" lon="9.237006115998062"><ele>131.0</ele><time>2026-04-24T07:29:46.003Z</time></trkpt><trkpt lat="45.50149392466638" lon="9.236919199508398"><ele>131.33333333333334</ele><time>2026-04-24T07:29:47.003Z</time></trkpt><trkpt lat="45.501433990906996" lon="9.236850701343949"><ele>131.66666666666666</ele><time>2026-04-24T07:29:48.003Z</time></trkpt><trkpt lat="45.50137256849785" lon="9.236766534338889"><ele>132.0</ele><time>2026-04-24T07:29:49.003Z</time></trkpt><trkpt lat="45.50130682187755" lon="9.236688439879616"><ele>132.0</ele><time>2026-04-24T07:29:50.003Z</time></trkpt><trkpt lat="45.50125643131348" lon="9.236595273112464"><ele>132.0</ele><time>2026-04-24T07:29:51.003Z</time></trkpt><trkpt lat="45.50119501195036" lon="9.236519534808094"><ele>132.0</ele><time>2026-04-24T07:29:52.003Z</time></trkpt><trkpt lat="45.50111823966837" lon="9.236441783390973"><ele>132.0</ele><time>2026-04-24T07:29:53.003Z</time></trkpt><trkpt lat="45.50105103582092" lon="9.23636259965797"><ele>132.0</ele><time>2026-04-24T07:29:54.003Z</time></trkpt><trkpt lat="45.50098852092485" lon="9.236282317752098"><ele>132.0</ele><time>2026-04-24T07:29:55.003Z</time></trkpt><trkpt lat="45.50092523469788" lon="9.236203604530727"><ele>131.66666666666666</ele><time>2026-04-24T07:29:56.003Z</time></trkpt><trkpt lat="45.5008576596734" lon="9.236133202479069"><ele>131.33333333333334</ele><time>2026-04-24T07:29:57.003Z</time></trkpt><trkpt lat="45.500791436375124" lon="9.236056600680577"><ele>131.0</ele><time>2026-04-24T07:29:58.003Z</time></trkpt><trkpt lat="45.50072433589352" lon="9.235981599275185"><ele>130.66666666666669</ele><time>2026-04-24T07:29:59.003Z</time></trkpt><trkpt lat="45.50065714709695" lon="9.235902464686914"><ele>130.33333333333334</ele><time>2026-04-24T07:30:00.003Z</time></trkpt><trkpt lat="45.50060622035241" lon="9.235794664798021"><ele>130.0</ele><time>2026-04-24T07:30:01.003Z</time></trkpt><trkpt lat="45.50056758743114" lon="9.235715010641036"><ele>130.00000000000003</ele><time>2026-04-24T07:30:02.003Z</time></trkpt><trkpt lat="45.500520589843106" lon="9.235648335440734"><ele>130.0</ele><time>2026-04-24T07:30:03.003Z</time></trkpt><trkpt lat="45.50047491532845" lon="9.23558508383603"><ele>130.0</ele><time>2026-04-24T07:30:04.003Z</time></trkpt><trkpt lat="45.500417697407826" lon="9.235531859304874"><ele>130.0</ele><time>2026-04-24T07:30:05.003Z</time></trkpt><trkpt lat="45.50035328509916" lon="9.23546767906301"><ele>130.0</ele><time>2026-04-24T07:30:06.003Z</time></trkpt><trkpt lat="45.50028276247945" lon="9.235393677623199"><ele>130.00000000000003</ele><time>2026-04-24T07:30:07.003Z</time></trkpt><trkpt lat="45.50021597260477" lon="9.235322287308634"><ele>130.0</ele><time>2026-04-24T07:30:08.003Z</time></trkpt><trkpt lat="45.50015823908792" lon="9.235261088235195"><ele>129.6</ele><time>2026-04-24T07:30:09.003Z</time></trkpt><trkpt lat="45.50010492081632" lon="9.235197613607278"><ele>129.2</ele><time>2026-04-24T07:30:10.003Z</time></trkpt><trkpt lat="45.5000128274646" lon="9.235086525535692"><ele>128.8</ele><time>2026-04-24T07:30:12.003Z</time></trkpt><trkpt lat="45.499971527985345" lon="9.234963113440326"><ele>128.4</ele><time>2026-04-24T07:30:14.003Z</time></trkpt><trkpt lat="45.499900568266746" lon="9.234875867040156"><ele>128.0</ele><time>2026-04-24T07:30:16.003Z</time></trkpt><trkpt lat="45.49980489794521" lon="9.234763640186236"><ele>127.83333333333333</ele><time>2026-04-24T07:30:18.003Z</time></trkpt><trkpt lat="45.499755568179815" lon="9.234692364254814"><ele>127.66666666666666</ele><time>2026-04-24T07:30:19.003Z</time></trkpt><trkpt lat="45.49969930074408" lon="9.234618825660158"><ele>127.5</ele><time>2026-04-24T07:30:20.003Z</time></trkpt><trkpt lat="45.499649168452805" lon="9.234544548813703"><ele>127.33333333333334</ele><time>2026-04-24T07:30:21.003Z</time></trkpt><trkpt lat="45.49958594354275" lon="9.23447100531712"><ele>127.16666666666667</ele><time>2026-04-24T07:30:22.003Z</time></trkpt><trkpt lat="45.4995152437942" lon="9.234389488008839"><ele>127.0</ele><time>2026-04-24T07:30:23.003Z</time></trkpt><trkpt lat="45.49945945875642" lon="9.234308533963555"><ele>127.16666666666667</ele><time>2026-04-24T07:30:24.003Z</time></trkpt><trkpt lat="45.49941099411388" lon="9.234247443622493"><ele>127.33333333333334</ele><time>2026-04-24T07:30:25.003Z</time></trkpt><trkpt lat="45.499311697908716" lon="9.234129981014936"><ele>127.5</ele><time>2026-04-24T07:30:27.003Z</time></trkpt><trkpt lat="45.499255172492106" lon="9.234077119185134"><ele>127.66666666666666</ele><time>2026-04-24T07:30:28.003Z</time></trkpt><trkpt lat="45.49919765029044" lon="9.234023647861054"><ele>127.83333333333333</ele><time>2026-04-24T07:30:29.003Z</time></trkpt><trkpt lat="45.49914801013226" lon="9.233954935245487"><ele>128.0</ele><time>2026-04-24T07:30:30.003Z</time></trkpt><trkpt lat="45.49907635215877" lon="9.233809981948202"><ele>128.0</ele><time>2026-04-24T07:30:32.003Z</time></trkpt><trkpt lat="45.49899201395863" lon="9.233684530874564"><ele>128.0</ele><time>2026-04-24T07:30:34.003Z</time></trkpt><trkpt lat="45.49893588928243" lon="9.23360114685832"><ele>128.0</ele><time>2026-04-24T07:30:35.003Z</time></trkpt><trkpt lat="45.49887830947516" lon="9.233504475290886"><ele>128.0</ele><time>2026-04-24T07:30:36.003Z</time></trkpt><trkpt lat="45.49881659978249" lon="9.23341099443794"><ele>128.0</ele><time>2026-04-24T07:30:37.003Z</time></trkpt><trkpt lat="45.49874001729863" lon="9.233320615052355"><ele>128.20000000000002</ele><time>2026-04-24T07:30:38.003Z</time></trkpt><trkpt lat="45.49866377480709" lon="9.233240332106641"><ele>128.4</ele><time>2026-04-24T07:30:39.003Z</time></trkpt><trkpt lat="45.498586935903255" lon="9.23316098277495"><ele>128.60000000000002</ele><time>2026-04-24T07:30:40.003Z</time></trkpt><trkpt lat="45.49849918202011" lon="9.233077680287513"><ele>128.8</ele><time>2026-04-24T07:30:41.003Z</time></trkpt><trkpt lat="45.49842771055499" lon="9.232990183084862"><ele>129.0</ele><time>2026-04-24T07:30:42.003Z</time></trkpt><trkpt lat="45.498352107460285" lon="9.232902910816243"><ele>129.0</ele><time>2026-04-24T07:30:43.003Z</time></trkpt><trkpt lat="45.49827446032104" lon="9.23281135296107"><ele>129.0</ele><time>2026-04-24T07:30:44.003Z</time></trkpt><trkpt lat="45.4981960733954" lon="9.232713502112883"><ele>129.0</ele><time>2026-04-24T07:30:45.003Z</time></trkpt><trkpt lat="45.49812105752086" lon="9.232604844185719"><ele>129.0</ele><time>2026-04-24T07:30:46.003Z</time></trkpt><trkpt lat="45.49804938022377" lon="9.232498041581971"><ele>129.0</ele><time>2026-04-24T07:30:47.003Z</time></trkpt><trkpt lat="45.49797300958853" lon="9.232386218941041"><ele>128.75</ele><time>2026-04-24T07:30:48.003Z</time></trkpt><trkpt lat="45.49790313016005" lon="9.23226846109721"><ele>128.5</ele><time>2026-04-24T07:30:49.003Z</time></trkpt><trkpt lat="45.497816923596055" lon="9.232166288209767"><ele>128.25</ele><time>2026-04-24T07:30:50.003Z</time></trkpt><trkpt lat="45.497718691697116" lon="9.232058944792511"><ele>128.0</ele><time>2026-04-24T07:30:51.003Z</time></trkpt><trkpt lat="45.4976279266229" lon="9.231954086765503"><ele>128.0</ele><time>2026-04-24T07:30:52.003Z</time></trkpt><trkpt lat="45.497544998189866" lon="9.23185892223242"><ele>128.0</ele><time>2026-04-24T07:30:53.003Z</time></trkpt><trkpt lat="45.4974751830125" lon="9.23174641936509"><ele>128.0</ele><time>2026-04-24T07:30:54.003Z</time></trkpt><trkpt lat="45.497418538995596" lon="9.231623356763524"><ele>128.0</ele><time>2026-04-24T07:30:55.003Z</time></trkpt><trkpt lat="45.49734557133786" lon="9.231528451898566"><ele>128.0</ele><time>2026-04-24T07:30:56.003Z</time></trkpt><trkpt lat="45.497265033801135" lon="9.23144715509002"><ele>128.0</ele><time>2026-04-24T07:30:57.003Z</time></trkpt><trkpt lat="45.49720097546503" lon="9.231360828078707"><ele>128.0</ele><time>2026-04-24T07:30:58.003Z</time></trkpt><trkpt lat="45.49714248258731" lon="9.231263890799843"><ele>128.0</ele><time>2026-04-24T07:30:59.003Z</time></trkpt><trkpt lat="45.49707505517446" lon="9.231170644403015"><ele>128.0</ele><time>2026-04-24T07:31:00.003Z</time></trkpt><trkpt lat="45.496994743505304" lon="9.231066265847735"><ele>128.0</ele><time>2026-04-24T07:31:01.003Z</time></trkpt><trkpt lat="45.49692580823146" lon="9.230958127498022"><ele>128.20000000000002</ele><time>2026-04-24T07:31:02.003Z</time></trkpt><trkpt lat="45.49685145148594" lon="9.23085600814653"><ele>128.4</ele><time>2026-04-24T07:31:03.003Z</time></trkpt><trkpt lat="45.496764010391985" lon="9.23076363936732"><ele>128.60000000000002</ele><time>2026-04-24T07:31:04.003Z</time></trkpt><trkpt lat="45.49669014735192" lon="9.230651105160563"><ele>128.8</ele><time>2026-04-24T07:31:05.003Z</time></trkpt><trkpt lat="45.496615528169265" lon="9.230553802613485"><ele>129.0</ele><time>2026-04-24T07:31:06.004Z</time></trkpt><trkpt lat="45.49654835174542" lon="9.23045614229538"><ele>128.66666666666666</ele><time>2026-04-24T07:31:07.004Z</time></trkpt><trkpt lat="45.49648613978378" lon="9.23036335459679"><ele>128.33333333333334</ele><time>2026-04-24T07:31:08.004Z</time></trkpt><trkpt lat="45.49642336408974" lon="9.230288817775799"><ele>128.0</ele><time>2026-04-24T07:31:09.004Z</time></trkpt><trkpt lat="45.496372946631844" lon="9.230211845241776"><ele>127.66666666666667</ele><time>2026-04-24T07:31:10.004Z</time></trkpt><trkpt lat="45.49632872622162" lon="9.230139817773184"><ele>127.33333333333334</ele><time>2026-04-24T07:31:11.004Z</time></trkpt><trkpt lat="45.49628851993271" lon="9.230070190475171"><ele>127.0</ele><time>2026-04-24T07:31:12.004Z</time></trkpt><trkpt lat="45.496208957062954" lon="9.229962777673862"><ele>127.00000000000001</ele><time>2026-04-24T07:31:14.004Z</time></trkpt><trkpt lat="45.49613210395736" lon="9.229860797545394"><ele>127.0</ele><time>2026-04-24T07:31:16.004Z</time></trkpt><trkpt lat="45.49603930806231" lon="9.229745032378457"><ele>127.0</ele><time>2026-04-24T07:31:18.004Z</time></trkpt><trkpt lat="45.495993994633885" lon="9.22967902394692"><ele>127.0</ele><time>2026-04-24T07:31:19.004Z</time></trkpt><trkpt lat="45.4959453795324" lon="9.229607048003968"><ele>127.00000000000001</ele><time>2026-04-24T07:31:20.004Z</time></trkpt><trkpt lat="45.49589725504724" lon="9.229527437421678"><ele>127.0</ele><time>2026-04-24T07:31:21.004Z</time></trkpt><trkpt lat="45.4958461088379" lon="9.229449621138288"><ele>127.00000000000001</ele><time>2026-04-24T07:31:22.004Z</time></trkpt><trkpt lat="45.49579421890358" lon="9.229375234415688"><ele>127.0</ele><time>2026-04-24T07:31:23.004Z</time></trkpt><trkpt lat="45.49574433704897" lon="9.2293033339292"><ele>127.0</ele><time>2026-04-24T07:31:24.004Z</time></trkpt><trkpt lat="45.49568786824214" lon="9.229240939006589"><ele>127.0</ele><time>2026-04-24T07:31:25.004Z</time></trkpt><trkpt lat="45.49563365676968" lon="9.22917888141355"><ele>127.00000000000001</ele><time>2026-04-24T07:31:26.004Z</time></trkpt><trkpt lat="45.495582937862416" lon="9.229118275987547"><ele>127.0</ele><time>2026-04-24T07:31:27.004Z</time></trkpt><trkpt lat="45.49548992900509" lon="9.229022867556338"><ele>127.19999999999999</ele><time>2026-04-24T07:31:29.004Z</time></trkpt><trkpt lat="45.49539852660588" lon="9.228923704017086"><ele>127.39999999999999</ele><time>2026-04-24T07:31:31.004Z</time></trkpt><trkpt lat="45.49532544137395" lon="9.22878736971108"><ele>127.60000000000001</ele><time>2026-04-24T07:31:33.004Z</time></trkpt><trkpt lat="45.49527573612578" lon="9.228715121124747"><ele>127.80000000000001</ele><time>2026-04-24T07:31:34.004Z</time></trkpt><trkpt lat="45.49522775543451" lon="9.22863555910296"><ele>128.0</ele><time>2026-04-24T07:31:35.004Z</time></trkpt><trkpt lat="45.49517748110311" lon="9.22856051981151"><ele>127.99999999999999</ele><time>2026-04-24T07:31:36.004Z</time></trkpt><trkpt lat="45.49512783423631" lon="9.2284875882236"><ele>128.0</ele><time>2026-04-24T07:31:37.004Z</time></trkpt><trkpt lat="45.49508132770226" lon="9.228416451252459"><ele>128.0</ele><time>2026-04-24T07:31:38.004Z</time></trkpt><trkpt lat="45.495034120800455" lon="9.228347019083099"><ele>128.0</ele><time>2026-04-24T07:31:39.004Z</time></trkpt><trkpt lat="45.494965201883" lon="9.22831268741885"><ele>127.99999999999999</ele><time>2026-04-24T07:31:40.004Z</time></trkpt><trkpt lat="45.494867594091154" lon="9.2282173898112"><ele>128.0</ele><time>2026-04-24T07:31:42.004Z</time></trkpt><trkpt lat="45.49481039786551" lon="9.228165788187416"><ele>127.83333333333333</ele><time>2026-04-24T07:31:43.004Z</time></trkpt><trkpt lat="45.49475400817173" lon="9.228093311015375"><ele>127.66666666666666</ele><time>2026-04-24T07:31:44.004Z</time></trkpt><trkpt lat="45.49469385450745" lon="9.228027175907036"><ele>127.5</ele><time>2026-04-24T07:31:45.004Z</time></trkpt><trkpt lat="45.49463284955861" lon="9.227927180527695"><ele>127.33333333333334</ele><time>2026-04-24T07:31:46.004Z</time></trkpt><trkpt lat="45.4945838470116" lon="9.22783815168482"><ele>127.16666666666667</ele><time>2026-04-24T07:31:47.004Z</time></trkpt><trkpt lat="45.49452110469569" lon="9.22776766585475"><ele>127.0</ele><time>2026-04-24T07:31:48.004Z</time></trkpt><trkpt lat="45.4944580980831" lon="9.227694347774296"><ele>127.00000000000001</ele><time>2026-04-24T07:31:49.004Z</time></trkpt><trkpt lat="45.49439769593983" lon="9.227614178723318"><ele>127.0</ele><time>2026-04-24T07:31:50.004Z</time></trkpt><trkpt lat="45.494342005181494" lon="9.227540148754168"><ele>127.0</ele><time>2026-04-24T07:31:51.004Z</time></trkpt><trkpt lat="45.49429442966467" lon="9.227446934022694"><ele>127.0</ele><time>2026-04-24T07:31:52.004Z</time></trkpt><trkpt lat="45.494247488786336" lon="9.227379294578842"><ele>127.00000000000001</ele><time>2026-04-24T07:31:53.004Z</time></trkpt><trkpt lat="45.49416035842365" lon="9.22731204772335"><ele>127.0</ele><time>2026-04-24T07:31:55.004Z</time></trkpt><trkpt lat="45.49408263655352" lon="9.227208354955392"><ele>127.00000000000001</ele><time>2026-04-24T07:31:57.004Z</time></trkpt><trkpt lat="45.49399380046154" lon="9.227086459948103"><ele>127.0</ele><time>2026-04-24T07:31:59.004Z</time></trkpt><trkpt lat="45.49394153670442" lon="9.227020657163441"><ele>127.0</ele><time>2026-04-24T07:32:00.004Z</time></trkpt><trkpt lat="45.493892093131564" lon="9.226952432640957"><ele>127.0</ele><time>2026-04-24T07:32:01.004Z</time></trkpt><trkpt lat="45.49385594896769" lon="9.226867415667703"><ele>127.00000000000001</ele><time>2026-04-24T07:32:02.004Z</time></trkpt><trkpt lat="45.493809790504926" lon="9.226788251665493"><ele>127.0</ele><time>2026-04-24T07:32:03.004Z</time></trkpt><trkpt lat="45.49375969971755" lon="9.226715010189968"><ele>127.16666666666667</ele><time>2026-04-24T07:32:04.004Z</time></trkpt><trkpt lat="45.49371262707251" lon="9.226643374133271"><ele>127.33333333333334</ele><time>2026-04-24T07:32:05.004Z</time></trkpt><trkpt lat="45.49366309374052" lon="9.226569417845536"><ele>127.5</ele><time>2026-04-24T07:32:06.004Z</time></trkpt><trkpt lat="45.49359735411526" lon="9.226496328065291"><ele>127.66666666666666</ele><time>2026-04-24T07:32:07.004Z</time></trkpt><trkpt lat="45.493525744323605" lon="9.226415160076398"><ele>127.83333333333333</ele><time>2026-04-24T07:32:08.004Z</time></trkpt><trkpt lat="45.49344933689744" lon="9.226330612909278"><ele>128.0</ele><time>2026-04-24T07:32:09.004Z</time></trkpt><trkpt lat="45.493375579515686" lon="9.22624411678749"><ele>127.5</ele><time>2026-04-24T07:32:10.004Z</time></trkpt><trkpt lat="45.49330290603132" lon="9.226157647485062"><ele>127.0</ele><time>2026-04-24T07:32:11.004Z</time></trkpt><trkpt lat="45.493150454235156" lon="9.225974485969772"><ele>126.5</ele><time>2026-04-24T07:32:13.004Z</time></trkpt><trkpt lat="45.49307743550704" lon="9.22587069403155"><ele>126.0</ele><time>2026-04-24T07:32:14.004Z</time></trkpt><trkpt lat="45.49300157539835" lon="9.22577699770286"><ele>126.0</ele><time>2026-04-24T07:32:15.004Z</time></trkpt><trkpt lat="45.49292584404594" lon="9.225678111835979"><ele>126.0</ele><time>2026-04-24T07:32:16.004Z</time></trkpt><trkpt lat="45.49285235702718" lon="9.225578379430596"><ele>126.0</ele><time>2026-04-24T07:32:17.004Z</time></trkpt><trkpt lat="45.492778164415775" lon="9.225475988811434"><ele>126.0</ele><time>2026-04-24T07:32:18.004Z</time></trkpt><trkpt lat="45.49270444184938" lon="9.22537349478277"><ele>126.0</ele><time>2026-04-24T07:32:19.004Z</time></trkpt><trkpt lat="45.49262839694333" lon="9.225276921941777"><ele>125.8</ele><time>2026-04-24T07:32:20.004Z</time></trkpt><trkpt lat="45.49255883081854" lon="9.225163916910187"><ele>125.6</ele><time>2026-04-24T07:32:21.004Z</time></trkpt><trkpt lat="45.49247970157667" lon="9.225054346527658"><ele>125.4</ele><time>2026-04-24T07:32:22.004Z</time></trkpt><trkpt lat="45.49239482710607" lon="9.224951232116199"><ele>125.2</ele><time>2026-04-24T07:32:23.004Z</time></trkpt><trkpt lat="45.49230887606785" lon="9.224842898459677"><ele>125.0</ele><time>2026-04-24T07:32:24.004Z</time></trkpt><trkpt lat="45.49221905656359" lon="9.224734687510912"><ele>125.0</ele><time>2026-04-24T07:32:25.004Z</time></trkpt><trkpt lat="45.49212800511649" lon="9.224621398161547"><ele>125.0</ele><time>2026-04-24T07:32:26.004Z</time></trkpt><trkpt lat="45.49204277023293" lon="9.224503346025227"><ele>125.0</ele><time>2026-04-24T07:32:27.004Z</time></trkpt><trkpt lat="45.491954137521496" lon="9.224393556488826"><ele>125.0</ele><time>2026-04-24T07:32:28.004Z</time></trkpt><trkpt lat="45.4918820904703" lon="9.224271396506397"><ele>125.0</ele><time>2026-04-24T07:32:29.004Z</time></trkpt><trkpt lat="45.49179653578731" lon="9.224158186209833"><ele>125.0</ele><time>2026-04-24T07:32:30.004Z</time></trkpt><trkpt lat="45.49170829620309" lon="9.224041423326844"><ele>125.0</ele><time>2026-04-24T07:32:31.004Z</time></trkpt><trkpt lat="45.491621207554495" lon="9.223926183498032"><ele>125.0</ele><time>2026-04-24T07:32:32.004Z</time></trkpt><trkpt lat="45.491538280926264" lon="9.22381643506397"><ele>125.2</ele><time>2026-04-24T07:32:33.004Z</time></trkpt><trkpt lat="45.49144798635211" lon="9.223728449170444"><ele>125.4</ele><time>2026-04-24T07:32:34.004Z</time></trkpt><trkpt lat="45.491378484774415" lon="9.223625971009023"><ele>125.6</ele><time>2026-04-24T07:32:35.004Z</time></trkpt><trkpt lat="45.49130859363671" lon="9.223535265061946"><ele>125.8</ele><time>2026-04-24T07:32:36.004Z</time></trkpt><trkpt lat="45.491243271808884" lon="9.223444397395044"><ele>126.0</ele><time>2026-04-24T07:32:37.004Z</time></trkpt><trkpt lat="45.49118755051867" lon="9.223365903995099"><ele>126.83333333333333</ele><time>2026-04-24T07:32:38.004Z</time></trkpt><trkpt lat="45.491144553793454" lon="9.223234662321543"><ele>127.66666666666666</ele><time>2026-04-24T07:32:40.004Z</time></trkpt><trkpt lat="45.49109365071272" lon="9.2231335094112"><ele>128.5</ele><time>2026-04-24T07:32:42.004Z</time></trkpt><trkpt lat="45.49107750106731" lon="9.223027881995723"><ele>129.33333333333331</ele><time>2026-04-24T07:32:43.004Z</time></trkpt><trkpt lat="45.491032605135906" lon="9.22313117258039"><ele>130.16666666666666</ele><time>2026-04-24T07:32:44.005Z</time></trkpt><trkpt lat="45.49096304080588" lon="9.22309419980113"><ele>131.0</ele><time>2026-04-24T07:32:48.005Z</time></trkpt><trkpt lat="45.49089000183537" lon="9.223174656136687"><ele>131.0</ele><time>2026-04-24T07:32:50.005Z</time></trkpt><trkpt lat="45.49078364280401" lon="9.223185386429614"><ele>131.0</ele><time>2026-04-24T07:32:52.005Z</time></trkpt><trkpt lat="45.490719837832565" lon="9.223202881607369"><ele>131.0</ele><time>2026-04-24T07:32:53.005Z</time></trkpt><trkpt lat="45.49062627456097" lon="9.223216777283973"><ele>131.0</ele><time>2026-04-24T07:32:55.005Z</time></trkpt><trkpt lat="45.490562809833115" lon="9.223263143343384"><ele>131.0</ele><time>2026-04-24T07:32:56.005Z</time></trkpt><trkpt lat="45.490459339103765" lon="9.223301762427957"><ele>131.0</ele><time>2026-04-24T07:32:58.005Z</time></trkpt><trkpt lat="45.49037135183569" lon="9.223327798624759"><ele>130.33333333333331</ele><time>2026-04-24T07:33:00.005Z</time></trkpt><trkpt lat="45.49030368831094" lon="9.22332269123473"><ele>129.66666666666666</ele><time>2026-04-24T07:33:03.005Z</time></trkpt><trkpt lat="45.49023913800725" lon="9.2233372797542"><ele>129.0</ele><time>2026-04-24T07:33:14.005Z</time></trkpt><trkpt lat="45.49016384039483" lon="9.22333569855147"><ele>128.33333333333334</ele><time>2026-04-24T07:33:26.009Z</time></trkpt><trkpt lat="45.490095934245545" lon="9.223363314892614"><ele>127.66666666666667</ele><time>2026-04-24T07:33:30.007Z</time></trkpt><trkpt lat="45.49002642073743" lon="9.223361100933552"><ele>127.0</ele><time>2026-04-24T07:33:42.004Z</time></trkpt><trkpt lat="45.48991275797741" lon="9.22340992870027"><ele>127.0</ele><time>2026-04-24T07:33:46.003Z</time></trkpt><trkpt lat="45.489821295792986" lon="9.223430502517441"><ele>126.99999999999999</ele><time>2026-04-24T07:33:47.003Z</time></trkpt><trkpt lat="45.48973539409297" lon="9.22344848477629"><ele>126.99999999999999</ele><time>2026-04-24T07:33:48.002Z</time></trkpt><trkpt lat="45.48964227571002" lon="9.223468211249525"><ele>127.0</ele><time>2026-04-24T07:33:49.002Z</time></trkpt><trkpt lat="45.489530144816385" lon="9.223491965229059"><ele>127.0</ele><time>2026-04-24T07:33:50.002Z</time></trkpt><trkpt lat="45.48941732652901" lon="9.223486926292368"><ele>126.8</ele><time>2026-04-24T07:33:51.002Z</time></trkpt><trkpt lat="45.48931039129764" lon="9.22343014499377"><ele>126.6</ele><time>2026-04-24T07:33:52.002Z</time></trkpt><trkpt lat="45.48922550178683" lon="9.22345067494491"><ele>126.39999999999999</ele><time>2026-04-24T07:33:53.002Z</time></trkpt><trkpt lat="45.48913912745861" lon="9.223455964157418"><ele>126.19999999999999</ele><time>2026-04-24T07:33:54.002Z</time></trkpt><trkpt lat="45.48904539193565" lon="9.2234599516056"><ele>126.0</ele><time>2026-04-24T07:33:55.002Z</time></trkpt><trkpt lat="45.48895591948653" lon="9.223454508593225"><ele>126.0</ele><time>2026-04-24T07:33:56.002Z</time></trkpt><trkpt lat="45.488866284612904" lon="9.223443857867709"><ele>126.0</ele><time>2026-04-24T07:33:57.001Z</time></trkpt><trkpt lat="45.48878295491991" lon="9.223436879897807"><ele>126.0</ele><time>2026-04-24T07:33:58.001Z</time></trkpt><trkpt lat="45.48869333559875" lon="9.223444669740497"><ele>126.0</ele><time>2026-04-24T07:33:59.001Z</time></trkpt><trkpt lat="45.48859623373221" lon="9.223445787286357"><ele>126.0</ele><time>2026-04-24T07:34:00.001Z</time></trkpt><trkpt lat="45.48849793570721" lon="9.223448868209632"><ele>127.0</ele><time>2026-04-24T07:34:01.001Z</time></trkpt><trkpt lat="45.488406881151214" lon="9.223441893411751"><ele>128.0</ele><time>2026-04-24T07:34:02.001Z</time></trkpt><trkpt lat="45.48831549207372" lon="9.223466188373244"><ele>129.0</ele><time>2026-04-24T07:34:03.001Z</time></trkpt><trkpt lat="45.48823260066985" lon="9.223543879366263"><ele>130.0</ele><time>2026-04-24T07:34:04.001Z</time></trkpt><trkpt lat="45.488125505160895" lon="9.223527935499558"><ele>131.0</ele><time>2026-04-24T07:34:05.001Z</time></trkpt><trkpt lat="45.48802165759864" lon="9.223529486657274"><ele>130.4</ele><time>2026-04-24T07:34:06.001Z</time></trkpt><trkpt lat="45.48792648882817" lon="9.22353090818101"><ele>129.8</ele><time>2026-04-24T07:34:07.001Z</time></trkpt><trkpt lat="45.4878275003695" lon="9.223532386758713"><ele>129.20000000000002</ele><time>2026-04-24T07:34:08.001Z</time></trkpt><trkpt lat="45.48772382402152" lon="9.22355022953593"><ele>128.6</ele><time>2026-04-24T07:34:09.001Z</time></trkpt><trkpt lat="45.48760893886823" lon="9.223540449715827"><ele>128.0</ele><time>2026-04-24T07:34:10.001Z</time></trkpt><trkpt lat="45.48750642594615" lon="9.223535656104978"><ele>127.99999999999999</ele><time>2026-04-24T07:34:11.001Z</time></trkpt><trkpt lat="45.487410329101536" lon="9.223527790887232"><ele>128.0</ele><time>2026-04-24T07:34:12.001Z</time></trkpt><trkpt lat="45.48732256451517" lon="9.223515084882068"><ele>128.0</ele><time>2026-04-24T07:34:13.001Z</time></trkpt><trkpt lat="45.48724251709576" lon="9.22355853083868"><ele>128.0</ele><time>2026-04-24T07:34:14.001Z</time></trkpt><trkpt lat="45.48715616016372" lon="9.223540847788357"><ele>127.99999999999999</ele><time>2026-04-24T07:34:15Z</time></trkpt><trkpt lat="45.48707484981081" lon="9.223541817774132"><ele>128.0</ele><time>2026-04-24T07:34:16Z</time></trkpt><trkpt lat="45.48697543720262" lon="9.223543003714115"><ele>127.5</ele><time>2026-04-24T07:34:17Z</time></trkpt><trkpt lat="45.48678213523773" lon="9.223564622948787"><ele>127.0</ele><time>2026-04-24T07:34:19Z</time></trkpt><trkpt lat="45.48670080625996" lon="9.223566041210775"><ele>126.5</ele><time>2026-04-24T07:34:20Z</time></trkpt><trkpt lat="45.4866275478547" lon="9.223547403177651"><ele>126.0</ele><time>2026-04-24T07:34:21Z</time></trkpt><trkpt lat="45.486512658894014" lon="9.223548882860108"><ele>126.0</ele><time>2026-04-24T07:34:23Z</time></trkpt><trkpt lat="45.486427477878095" lon="9.223572407627715"><ele>126.0</ele><time>2026-04-24T07:34:25Z</time></trkpt><trkpt lat="45.48633536863928" lon="9.223551166222736"><ele>126.0</ele><time>2026-04-24T07:34:27Z</time></trkpt><trkpt lat="45.48621083511838" lon="9.223552770119731"><ele>126.0</ele><time>2026-04-24T07:34:29Z</time></trkpt><trkpt lat="45.48614104415931" lon="9.223574070098577"><ele>126.0</ele><time>2026-04-24T07:34:30Z</time></trkpt><trkpt lat="45.48607530763446" lon="9.22356112506969"><ele>126.0</ele><time>2026-04-24T07:34:31Z</time></trkpt><trkpt lat="45.486006180992725" lon="9.223566792134374"><ele>125.71428571428572</ele><time>2026-04-24T07:34:32Z</time></trkpt><trkpt lat="45.48593732657604" lon="9.22357215371799"><ele>125.42857142857143</ele><time>2026-04-24T07:34:33Z</time></trkpt><trkpt lat="45.485868584048504" lon="9.223577612963343"><ele>125.14285714285714</ele><time>2026-04-24T07:34:34Z</time></trkpt><trkpt lat="45.48580221997621" lon="9.22357363489455"><ele>124.85714285714286</ele><time>2026-04-24T07:34:35Z</time></trkpt><trkpt lat="45.48573934433027" lon="9.223564020858865"><ele>124.57142857142858</ele><time>2026-04-24T07:34:36Z</time></trkpt><trkpt lat="45.485676116881784" lon="9.223572029094338"><ele>124.28571428571429</ele><time>2026-04-24T07:34:37Z</time></trkpt><trkpt lat="45.4855622321112" lon="9.22358095158991"><ele>124.0</ele><time>2026-04-24T07:34:39Z</time></trkpt><trkpt lat="45.48544762613184" lon="9.223563312678593"><ele>124.0</ele><time>2026-04-24T07:34:41Z</time></trkpt><trkpt lat="45.48533427682657" lon="9.22356497940244"><ele>124.0</ele><time>2026-04-24T07:34:43Z</time></trkpt><trkpt lat="45.4852063301376" lon="9.223584276950115"><ele>124.0</ele><time>2026-04-24T07:34:45Z</time></trkpt><trkpt lat="45.485125008887465" lon="9.223587587404625"><ele>124.0</ele><time>2026-04-24T07:34:46Z</time></trkpt><trkpt lat="45.48502362809369" lon="9.223569602059333"><ele>124.0</ele><time>2026-04-24T07:34:47Z</time></trkpt><trkpt lat="45.484818039686424" lon="9.2235727450824"><ele>124.00000000000001</ele><time>2026-04-24T07:34:49Z</time></trkpt><trkpt lat="45.48472524485286" lon="9.223574163723114"><ele>124.0</ele><time>2026-04-24T07:34:50Z</time></trkpt><trkpt lat="45.484644602052484" lon="9.223575396586078"><ele>124.0</ele><time>2026-04-24T07:34:51Z</time></trkpt><trkpt lat="45.484575637195455" lon="9.223576450915456"><ele>124.0</ele><time>2026-04-24T07:34:52Z</time></trkpt><trkpt lat="45.48450742834643" lon="9.223577493689449"><ele>124.00000000000001</ele><time>2026-04-24T07:34:53Z</time></trkpt><trkpt lat="45.48444336809434" lon="9.223578473037634"><ele>124.0</ele><time>2026-04-24T07:34:54Z</time></trkpt><trkpt lat="45.484364272135416" lon="9.2235796822525"><ele>124.33333333333334</ele><time>2026-04-24T07:34:55Z</time></trkpt><trkpt lat="45.48427360048107" lon="9.223588972683784"><ele>124.66666666666667</ele><time>2026-04-24T07:34:56Z</time></trkpt><trkpt lat="45.484273794890655" lon="9.223496426576476"><ele>125.0</ele><time>2026-04-24T07:34:57Z</time></trkpt><trkpt lat="45.4842777210109" lon="9.22337388515808"><ele>125.33333333333334</ele><time>2026-04-24T07:34:58Z</time></trkpt><trkpt lat="45.48428318475638" lon="9.223245856575428"><ele>125.66666666666667</ele><time>2026-04-24T07:34:59Z</time></trkpt><trkpt lat="45.484288463230314" lon="9.223122169315511"><ele>126.0</ele><time>2026-04-24T07:35:00Z</time></trkpt><trkpt lat="45.48427476499055" lon="9.22298962361857"><ele>126.0</ele><time>2026-04-24T07:35:01Z</time></trkpt><trkpt lat="45.48428145026669" lon="9.22286148711549"><ele>126.0</ele><time>2026-04-24T07:35:02Z</time></trkpt><trkpt lat="45.484290315243435" lon="9.22274282271245"><ele>126.0</ele><time>2026-04-24T07:35:03Z</time></trkpt><trkpt lat="45.48429951520954" lon="9.222641483757164"><ele>126.0</ele><time>2026-04-24T07:35:04Z</time></trkpt><trkpt lat="45.484306210981686" lon="9.222547668858457"><ele>126.0</ele><time>2026-04-24T07:35:05Z</time></trkpt><trkpt lat="45.48432566612211" lon="9.222378547985116"><ele>126.0</ele><time>2026-04-24T07:35:07Z</time></trkpt><trkpt lat="45.48433798852074" lon="9.222217938489159"><ele>125.8</ele><time>2026-04-24T07:35:09Z</time></trkpt><trkpt lat="45.484333170772615" lon="9.22207163195021"><ele>125.6</ele><time>2026-04-24T07:35:11Z</time></trkpt><trkpt lat="45.484338971685716" lon="9.221935420543137"><ele>125.4</ele><time>2026-04-24T07:35:13Z</time></trkpt><trkpt lat="45.48434495604841" lon="9.221794582796017"><ele>125.2</ele><time>2026-04-24T07:35:14.999Z</time></trkpt><trkpt lat="45.48435095406443" lon="9.221653423742458"><ele>125.0</ele><time>2026-04-24T07:35:16.999Z</time></trkpt><trkpt lat="45.48435744747639" lon="9.22149943565248"><ele>124.57142857142857</ele><time>2026-04-24T07:35:18.999Z</time></trkpt><trkpt lat="45.48436124127286" lon="9.221409323000278"><ele>124.14285714285714</ele><time>2026-04-24T07:35:19.999Z</time></trkpt><trkpt lat="45.484365329584236" lon="9.221313373508547"><ele>123.71428571428571</ele><time>2026-04-24T07:35:20.999Z</time></trkpt><trkpt lat="45.48436948709124" lon="9.221215800034765"><ele>123.28571428571428</ele><time>2026-04-24T07:35:21.999Z</time></trkpt><trkpt lat="45.48437371702945" lon="9.221116527567398"><ele>122.85714285714286</ele><time>2026-04-24T07:35:22.999Z</time></trkpt><trkpt lat="45.484378460272936" lon="9.221015635947273"><ele>122.42857142857142</ele><time>2026-04-24T07:35:23.999Z</time></trkpt><trkpt lat="45.484383001984895" lon="9.220915693824182"><ele>121.99999999999999</ele><time>2026-04-24T07:35:24.999Z</time></trkpt><trkpt lat="45.484386185390726" lon="9.220813063167006"><ele>121.99999999999999</ele><time>2026-04-24T07:35:25.999Z</time></trkpt><trkpt lat="45.484390161602924" lon="9.220709886945922"><ele>122.0</ele><time>2026-04-24T07:35:26.999Z</time></trkpt><trkpt lat="45.48439431384517" lon="9.22060214331066"><ele>122.0</ele><time>2026-04-24T07:35:27.999Z</time></trkpt><trkpt lat="45.48439861217445" lon="9.220490608839956"><ele>122.0</ele><time>2026-04-24T07:35:28.999Z</time></trkpt><trkpt lat="45.48440306219591" lon="9.220376302881032"><ele>121.99999999999999</ele><time>2026-04-24T07:35:29.999Z</time></trkpt><trkpt lat="45.48440779812723" lon="9.22026147035908"><ele>122.0</ele><time>2026-04-24T07:35:30.999Z</time></trkpt><trkpt lat="45.484410307282836" lon="9.220143357684798"><ele>122.19999999999999</ele><time>2026-04-24T07:35:31.999Z</time></trkpt><trkpt lat="45.48441558012591" lon="9.220022325955389"><ele>122.39999999999999</ele><time>2026-04-24T07:35:32.999Z</time></trkpt><trkpt lat="45.48442106255258" lon="9.219896483444236"><ele>122.60000000000001</ele><time>2026-04-24T07:35:33.999Z</time></trkpt><trkpt lat="45.4844267011999" lon="9.219767055165015"><ele>122.80000000000001</ele><time>2026-04-24T07:35:34.999Z</time></trkpt><trkpt lat="45.484432509201376" lon="9.219633739522834"><ele>123.0</ele><time>2026-04-24T07:35:35.999Z</time></trkpt><trkpt lat="45.484438428335665" lon="9.219497872961366"><ele>123.4</ele><time>2026-04-24T07:35:36.999Z</time></trkpt><trkpt lat="45.48444433514956" lon="9.219362289154157"><ele>123.80000000000001</ele><time>2026-04-24T07:35:37.999Z</time></trkpt><trkpt lat="45.48445018028089" lon="9.219228122843615"><ele>124.2</ele><time>2026-04-24T07:35:38.999Z</time></trkpt><trkpt lat="45.48455343179968" lon="9.219102268010333"><ele>124.6</ele><time>2026-04-24T07:35:39.999Z</time></trkpt><trkpt lat="45.48456297340457" lon="9.218969287701562"><ele>125.0</ele><time>2026-04-24T07:35:40.999Z</time></trkpt><trkpt lat="45.4845724687401" lon="9.21883778636756"><ele>125.8</ele><time>2026-04-24T07:35:41.999Z</time></trkpt><trkpt lat="45.484576062297016" lon="9.218707215090982"><ele>126.6</ele><time>2026-04-24T07:35:42.999Z</time></trkpt><trkpt lat="45.48458374970575" lon="9.218579144463266"><ele>127.4</ele><time>2026-04-24T07:35:43.999Z</time></trkpt><trkpt lat="45.48459167968979" lon="9.218452273888703"><ele>128.2</ele><time>2026-04-24T07:35:44.999Z</time></trkpt><trkpt lat="45.48460154054051" lon="9.21832278566939"><ele>129.0</ele><time>2026-04-24T07:35:45.999Z</time></trkpt><trkpt lat="45.48461641658368" lon="9.218195460837382"><ele>129.5</ele><time>2026-04-24T07:35:46.999Z</time></trkpt><trkpt lat="45.484617419917136" lon="9.218075610129219"><ele>130.0</ele><time>2026-04-24T07:35:47.999Z</time></trkpt><trkpt lat="45.48462337448669" lon="9.217967715542567"><ele>130.5</ele><time>2026-04-24T07:35:48.999Z</time></trkpt><trkpt lat="45.4846293781903" lon="9.217867837263052"><ele>131.0</ele><time>2026-04-24T07:35:49.999Z</time></trkpt><trkpt lat="45.48462902223284" lon="9.217710811376632"><ele>131.5</ele><time>2026-04-24T07:35:51.999Z</time></trkpt><trkpt lat="45.48464219642577" lon="9.217613192370075"><ele>132.0</ele><time>2026-04-24T07:35:53.999Z</time></trkpt><trkpt lat="45.48467057856766" lon="9.217478892535931"><ele>132.0</ele><time>2026-04-24T07:36:36.999Z</time></trkpt><trkpt lat="45.48464348979398" lon="9.217374009546335"><ele>132.0</ele><time>2026-04-24T07:36:42.999Z</time></trkpt><trkpt lat="45.48464144015761" lon="9.217208625755381"><ele>132.0</ele><time>2026-04-24T07:36:44.999Z</time></trkpt><trkpt lat="45.484499363732674" lon="9.217095201303502"><ele>132.0</ele><time>2026-04-24T07:36:46.999Z</time></trkpt><trkpt lat="45.48443473605562" lon="9.216983943540722"><ele>131.16666666666666</ele><time>2026-04-24T07:36:48.998Z</time></trkpt><trkpt lat="45.484364458919174" lon="9.216951496888374"><ele>130.33333333333334</ele><time>2026-04-24T07:36:49.998Z</time></trkpt><trkpt lat="45.48428252434927" lon="9.216941195916169"><ele>129.5</ele><time>2026-04-24T07:36:50.998Z</time></trkpt><trkpt lat="45.48419786185623" lon="9.216960261277245"><ele>128.66666666666669</ele><time>2026-04-24T07:36:51.998Z</time></trkpt><trkpt lat="45.48412196476971" lon="9.216977661879293"><ele>127.83333333333334</ele><time>2026-04-24T07:36:52.998Z</time></trkpt><trkpt lat="45.48405070110269" lon="9.216992605010327"><ele>127.0</ele><time>2026-04-24T07:36:53.998Z</time></trkpt><trkpt lat="45.48394972358351" lon="9.217001606546948"><ele>127.0</ele><time>2026-04-24T07:36:55.998Z</time></trkpt><trkpt lat="45.48391478945302" lon="9.21680882719722"><ele>127.0</ele><time>2026-04-24T07:37:03.998Z</time></trkpt><trkpt lat="45.48385498439848" lon="9.216771890552277"><ele>127.0</ele><time>2026-04-24T07:37:23.998Z</time></trkpt><trkpt lat="45.48368694487505" lon="9.216993995337386"><ele>127.0</ele><time>2026-04-24T07:37:35.998Z</time></trkpt><trkpt lat="45.48362837084508" lon="9.216778824852426"><ele>127.8</ele><time>2026-04-24T07:37:36.998Z</time></trkpt><trkpt lat="45.48354025199798" lon="9.216788100011081"><ele>128.6</ele><time>2026-04-24T07:37:37.998Z</time></trkpt><trkpt lat="45.48343617259363" lon="9.216808855861556"><ele>129.39999999999998</ele><time>2026-04-24T07:37:38.998Z</time></trkpt><trkpt lat="45.48332680101836" lon="9.216815047911298"><ele>130.2</ele><time>2026-04-24T07:37:39.998Z</time></trkpt><trkpt lat="45.4832283771485" lon="9.216830515000558"><ele>131.0</ele><time>2026-04-24T07:37:40.998Z</time></trkpt><trkpt lat="45.48316182396519" lon="9.21685754648462"><ele>131.0</ele><time>2026-04-24T07:37:41.998Z</time></trkpt><trkpt lat="45.483065786823886" lon="9.216869535142877"><ele>131.0</ele><time>2026-04-24T07:37:42.998Z</time></trkpt><trkpt lat="45.48295651896183" lon="9.216877140008489"><ele>131.0</ele><time>2026-04-24T07:37:43.998Z</time></trkpt><trkpt lat="45.482847070147606" lon="9.216880268756459"><ele>131.0</ele><time>2026-04-24T07:37:44.998Z</time></trkpt><trkpt lat="45.48273967809229" lon="9.216886547993346"><ele>131.0</ele><time>2026-04-24T07:37:45.998Z</time></trkpt><trkpt lat="45.48263269779245" lon="9.21689651914854"><ele>131.0</ele><time>2026-04-24T07:37:46.998Z</time></trkpt><trkpt lat="45.482521133492085" lon="9.216906777257918"><ele>131.0</ele><time>2026-04-24T07:37:47.998Z</time></trkpt><trkpt lat="45.482390441989054" lon="9.216904856770123"><ele>131.0</ele><time>2026-04-24T07:37:48.998Z</time></trkpt><trkpt lat="45.4822724952553" lon="9.216907634501204"><ele>131.0</ele><time>2026-04-24T07:37:49.998Z</time></trkpt><trkpt lat="45.48217906676387" lon="9.216907730025008"><ele>131.0</ele><time>2026-04-24T07:37:50.998Z</time></trkpt><trkpt lat="45.48210407145245" lon="9.21690822061832"><ele>131.0</ele><time>2026-04-24T07:37:51.998Z</time></trkpt><trkpt lat="45.48200829962717" lon="9.216913778539741"><ele>131.0</ele><time>2026-04-24T07:37:53.998Z</time></trkpt><trkpt lat="45.48194470779514" lon="9.216916938787016"><ele>131.0</ele><time>2026-04-24T07:37:57.998Z</time></trkpt><trkpt lat="45.48192786301717" lon="9.21681942962362"><ele>131.0</ele><time>2026-04-24T07:38:03.998Z</time></trkpt><trkpt lat="45.48185958394398" lon="9.216828037920319"><ele>131.0</ele><time>2026-04-24T07:38:29.997Z</time></trkpt><trkpt lat="45.48172588277661" lon="9.216820598504258"><ele>130.33333333333331</ele><time>2026-04-24T07:38:31.997Z</time></trkpt><trkpt lat="45.481651202668864" lon="9.216822392808096"><ele>129.66666666666666</ele><time>2026-04-24T07:38:32.997Z</time></trkpt><trkpt lat="45.481572963131015" lon="9.21682984550392"><ele>129.0</ele><time>2026-04-24T07:38:33.997Z</time></trkpt><trkpt lat="45.48149028313467" lon="9.216839397224316"><ele>128.33333333333334</ele><time>2026-04-24T07:38:34.997Z</time></trkpt><trkpt lat="45.48139968897939" lon="9.21685776651447"><ele>127.66666666666667</ele><time>2026-04-24T07:38:35.997Z</time></trkpt><trkpt lat="45.48130336343314" lon="9.216858917855383"><ele>127.0</ele><time>2026-04-24T07:38:36.997Z</time></trkpt><trkpt lat="45.48120107134574" lon="9.216858256033857"><ele>127.0</ele><time>2026-04-24T07:38:37.997Z</time></trkpt><trkpt lat="45.48110061400431" lon="9.216860753180116"><ele>126.99999999999999</ele><time>2026-04-24T07:38:38.997Z</time></trkpt><trkpt lat="45.48099659895752" lon="9.21686482777604"><ele>126.99999999999999</ele><time>2026-04-24T07:38:39.997Z</time></trkpt><trkpt lat="45.480888577660075" lon="9.216868494692413"><ele>127.0</ele><time>2026-04-24T07:38:40.997Z</time></trkpt><trkpt lat="45.48077984526452" lon="9.216868137517732"><ele>127.0</ele><time>2026-04-24T07:38:41.997Z</time></trkpt><trkpt lat="45.4806700063615" lon="9.216865371793123"><ele>127.0</ele><time>2026-04-24T07:38:42.997Z</time></trkpt><trkpt lat="45.48056207934707" lon="9.216863954632357"><ele>127.0</ele><time>2026-04-24T07:38:43.997Z</time></trkpt><trkpt lat="45.48045151262248" lon="9.216860776957688"><ele>127.0</ele><time>2026-04-24T07:38:44.997Z</time></trkpt><trkpt lat="45.48033551964945" lon="9.216847221945354"><ele>127.0</ele><time>2026-04-24T07:38:45.997Z</time></trkpt><trkpt lat="45.4802184335259" lon="9.21687873417967"><ele>127.25</ele><time>2026-04-24T07:38:46.997Z</time></trkpt><trkpt lat="45.480098465588625" lon="9.216882118496468"><ele>127.5</ele><time>2026-04-24T07:38:47.997Z</time></trkpt><trkpt lat="45.47997693751256" lon="9.216888529296519"><ele>127.75</ele><time>2026-04-24T07:38:48.997Z</time></trkpt><trkpt lat="45.47986395653182" lon="9.216892852678342"><ele>128.0</ele><time>2026-04-24T07:38:49.997Z</time></trkpt><trkpt lat="45.479757742002185" lon="9.216893447330898"><ele>127.99999999999999</ele><time>2026-04-24T07:38:50.997Z</time></trkpt><trkpt lat="45.47965432759241" lon="9.216885262564041"><ele>128.0</ele><time>2026-04-24T07:38:51.997Z</time></trkpt><trkpt lat="45.47955611058994" lon="9.216884329872606"><ele>128.0</ele><time>2026-04-24T07:38:52.997Z</time></trkpt><trkpt lat="45.47946887766898" lon="9.21686726684335"><ele>128.0</ele><time>2026-04-24T07:38:53.997Z</time></trkpt><trkpt lat="45.47939004826331" lon="9.216855961366056"><ele>127.99999999999999</ele><time>2026-04-24T07:38:54.997Z</time></trkpt><trkpt lat="45.479316643997365" lon="9.216852742613654"><ele>128.0</ele><time>2026-04-24T07:38:55.997Z</time></trkpt><trkpt lat="45.47925037749542" lon="9.216876233435288"><ele>128.16666666666666</ele><time>2026-04-24T07:38:58.997Z</time></trkpt><trkpt lat="45.47919048260175" lon="9.216914011034284"><ele>128.33333333333331</ele><time>2026-04-24T07:39:01.997Z</time></trkpt><trkpt lat="45.47911661642813" lon="9.21696368298775"><ele>128.5</ele><time>2026-04-24T07:39:03.997Z</time></trkpt><trkpt lat="45.47901412128746" lon="9.217001493003773"><ele>128.66666666666666</ele><time>2026-04-24T07:39:05.997Z</time></trkpt><trkpt lat="45.47892626286844" lon="9.216999004324578"><ele>128.83333333333334</ele><time>2026-04-24T07:39:06.997Z</time></trkpt><trkpt lat="45.47882238464619" lon="9.216992369616863"><ele>129.0</ele><time>2026-04-24T07:39:07.997Z</time></trkpt><trkpt lat="45.4787100411469" lon="9.217003032151712"><ele>129.25</ele><time>2026-04-24T07:39:08.997Z</time></trkpt><trkpt lat="45.47859649158112" lon="9.216993250580389"><ele>129.5</ele><time>2026-04-24T07:39:09.997Z</time></trkpt><trkpt lat="45.478477899311095" lon="9.216991720707595"><ele>129.75</ele><time>2026-04-24T07:39:10.997Z</time></trkpt><trkpt lat="45.478348796432336" lon="9.216991909094972"><ele>130.0</ele><time>2026-04-24T07:39:11.997Z</time></trkpt><trkpt lat="45.47821797103968" lon="9.216986979521005"><ele>130.0</ele><time>2026-04-24T07:39:12.997Z</time></trkpt><trkpt lat="45.47808094122379" lon="9.216989278169475"><ele>130.0</ele><time>2026-04-24T07:39:13.997Z</time></trkpt><trkpt lat="45.47793589172496" lon="9.216978875158974"><ele>130.0</ele><time>2026-04-24T07:39:14.997Z</time></trkpt><trkpt lat="45.47779012286832" lon="9.216975881701346"><ele>130.0</ele><time>2026-04-24T07:39:15.997Z</time></trkpt><trkpt lat="45.47765080386097" lon="9.216975781455156"><ele>130.25</ele><time>2026-04-24T07:39:16.997Z</time></trkpt><trkpt lat="45.47751849183461" lon="9.216986029972851"><ele>130.5</ele><time>2026-04-24T07:39:17.997Z</time></trkpt><trkpt lat="45.477387365226065" lon="9.216994443174416"><ele>130.75</ele><time>2026-04-24T07:39:18.997Z</time></trkpt><trkpt lat="45.47725426328197" lon="9.216994512076132"><ele>131.0</ele><time>2026-04-24T07:39:19.997Z</time></trkpt><trkpt lat="45.477122324537625" lon="9.21699991221069"><ele>130.25</ele><time>2026-04-24T07:39:20.997Z</time></trkpt><trkpt lat="45.47699175499933" lon="9.2169926304217"><ele>129.5</ele><time>2026-04-24T07:39:21.997Z</time></trkpt><trkpt lat="45.476857701840785" lon="9.217016863641962"><ele>128.75</ele><time>2026-04-24T07:39:22.997Z</time></trkpt><trkpt lat="45.476728027921375" lon="9.217032326090125"><ele>128.0</ele><time>2026-04-24T07:39:23.997Z</time></trkpt><trkpt lat="45.47658892514581" lon="9.217049404329034"><ele>128.0</ele><time>2026-04-24T07:39:24.997Z</time></trkpt><trkpt lat="45.47645493123716" lon="9.217059823225968"><ele>128.0</ele><time>2026-04-24T07:39:25.997Z</time></trkpt><trkpt lat="45.47632764837125" lon="9.217068405436244"><ele>128.0</ele><time>2026-04-24T07:39:26.997Z</time></trkpt><trkpt lat="45.47619811341686" lon="9.21706704936216"><ele>128.0</ele><time>2026-04-24T07:39:27.997Z</time></trkpt><trkpt lat="45.476065599814625" lon="9.217074257483093"><ele>128.0</ele><time>2026-04-24T07:39:28.997Z</time></trkpt><trkpt lat="45.47592991124807" lon="9.217079557665741"><ele>128.0</ele><time>2026-04-24T07:39:29.997Z</time></trkpt><trkpt lat="45.47579110321062" lon="9.217090275648367"><ele>128.0</ele><time>2026-04-24T07:39:30.997Z</time></trkpt><trkpt lat="45.47565643576937" lon="9.217101014886959"><ele>128.0</ele><time>2026-04-24T07:39:31.997Z</time></trkpt><trkpt lat="45.47552157750402" lon="9.217109447032184"><ele>128.0</ele><time>2026-04-24T07:39:32.997Z</time></trkpt><trkpt lat="45.47538721130518" lon="9.217114364951321"><ele>128.0</ele><time>2026-04-24T07:39:33.997Z</time></trkpt><trkpt lat="45.47525203824776" lon="9.217119775920365"><ele>128.0</ele><time>2026-04-24T07:39:34.997Z</time></trkpt><trkpt lat="45.47511509159405" lon="9.217118551057924"><ele>128.0</ele><time>2026-04-24T07:39:35.997Z</time></trkpt><trkpt lat="45.474976826056825" lon="9.21711373524412"><ele>128.0</ele><time>2026-04-24T07:39:36.997Z</time></trkpt><trkpt lat="45.47484075399124" lon="9.217129256396777"><ele>128.0</ele><time>2026-04-24T07:39:37.997Z</time></trkpt><trkpt lat="45.4747046393297" lon="9.217128259810934"><ele>128.0</ele><time>2026-04-24T07:39:38.997Z</time></trkpt><trkpt lat="45.47456562999753" lon="9.217135414819143"><ele>128.0</ele><time>2026-04-24T07:39:39.997Z</time></trkpt><trkpt lat="45.474428530949204" lon="9.217137913404999"><ele>127.5</ele><time>2026-04-24T07:39:40.997Z</time></trkpt><trkpt lat="45.474297900077566" lon="9.217134348164347"><ele>127.0</ele><time>2026-04-24T07:39:41.997Z</time></trkpt><trkpt lat="45.47417058761138" lon="9.217117803850314"><ele>126.5</ele><time>2026-04-24T07:39:42.997Z</time></trkpt><trkpt lat="45.47404839264629" lon="9.217113922855479"><ele>126.0</ele><time>2026-04-24T07:39:43.997Z</time></trkpt><trkpt lat="45.47393799994578" lon="9.217114753397858"><ele>126.0</ele><time>2026-04-24T07:39:44.997Z</time></trkpt><trkpt lat="45.47383284324304" lon="9.217109298574108"><ele>126.0</ele><time>2026-04-24T07:39:45.997Z</time></trkpt><trkpt lat="45.473733188508476" lon="9.217112718334102"><ele>126.0</ele><time>2026-04-24T07:39:46.997Z</time></trkpt><trkpt lat="45.47363642047938" lon="9.217118271347877"><ele>126.0</ele><time>2026-04-24T07:39:47.997Z</time></trkpt><trkpt lat="45.47354440011853" lon="9.217125892844528"><ele>126.0</ele><time>2026-04-24T07:39:48.997Z</time></trkpt><trkpt lat="45.47345271728803" lon="9.217134116591762"><ele>126.16666666666667</ele><time>2026-04-24T07:39:49.997Z</time></trkpt><trkpt lat="45.473366247032686" lon="9.217147154668076"><ele>126.33333333333334</ele><time>2026-04-24T07:39:50.997Z</time></trkpt><trkpt lat="45.473282644052226" lon="9.217151201006905"><ele>126.5</ele><time>2026-04-24T07:39:51.997Z</time></trkpt><trkpt lat="45.47319820990749" lon="9.217147033202448"><ele>126.66666666666667</ele><time>2026-04-24T07:39:52.997Z</time></trkpt><trkpt lat="45.473111590858196" lon="9.21713793201303"><ele>126.83333333333334</ele><time>2026-04-24T07:39:53.997Z</time></trkpt><trkpt lat="45.47302077638965" lon="9.217139919126634"><ele>127.0</ele><time>2026-04-24T07:39:54.997Z</time></trkpt><trkpt lat="45.47292929141264" lon="9.217134631906589"><ele>127.16666666666667</ele><time>2026-04-24T07:39:55.997Z</time></trkpt><trkpt lat="45.47283854300552" lon="9.217128377427372"><ele>127.33333333333334</ele><time>2026-04-24T07:39:56.996Z</time></trkpt><trkpt lat="45.472743601992626" lon="9.21711837478814"><ele>127.5</ele><time>2026-04-24T07:39:57.996Z</time></trkpt><trkpt lat="45.47265419340877" lon="9.21712076982871"><ele>127.66666666666666</ele><time>2026-04-24T07:39:58.996Z</time></trkpt><trkpt lat="45.47257477939556" lon="9.217113788013659"><ele>127.83333333333333</ele><time>2026-04-24T07:39:59.996Z</time></trkpt><trkpt lat="45.472496287300174" lon="9.217113850409907"><ele>128.0</ele><time>2026-04-24T07:40:00.996Z</time></trkpt><trkpt lat="45.47242262352356" lon="9.21710813190434"><ele>127.99999999999999</ele><time>2026-04-24T07:40:01.996Z</time></trkpt><trkpt lat="45.47231151985062" lon="9.217110769870873"><ele>128.0</ele><time>2026-04-24T07:40:03.996Z</time></trkpt><trkpt lat="45.47223864402583" lon="9.217121108783882"><ele>128.0</ele><time>2026-04-24T07:40:05.996Z</time></trkpt><trkpt lat="45.47218644532179" lon="9.217184928978254"><ele>128.0</ele><time>2026-04-24T07:40:43Z</time></trkpt><trkpt lat="45.47211944376785" lon="9.217188919907205"><ele>127.99999999999999</ele><time>2026-04-24T07:40:45Z</time></trkpt><trkpt lat="45.4720490385144" lon="9.217148009308296"><ele>128.0</ele><time>2026-04-24T07:40:46Z</time></trkpt><trkpt lat="45.471969668206505" lon="9.217149219726211"><ele>128.20000000000002</ele><time>2026-04-24T07:40:47Z</time></trkpt><trkpt lat="45.47188189583199" lon="9.217151007873893"><ele>128.4</ele><time>2026-04-24T07:40:48Z</time></trkpt><trkpt lat="45.47178740412281" lon="9.21717431960927"><ele>128.60000000000002</ele><time>2026-04-24T07:40:49Z</time></trkpt><trkpt lat="45.47168935727548" lon="9.21717833299526"><ele>128.8</ele><time>2026-04-24T07:40:50Z</time></trkpt><trkpt lat="45.47158514142662" lon="9.217175328276806"><ele>129.0</ele><time>2026-04-24T07:40:51Z</time></trkpt><trkpt lat="45.471478057348" lon="9.217171077146048"><ele>129.0</ele><time>2026-04-24T07:40:52Z</time></trkpt><trkpt lat="45.47137045606619" lon="9.21717913908117"><ele>129.0</ele><time>2026-04-24T07:40:53Z</time></trkpt><trkpt lat="45.47125396458842" lon="9.217183148514989"><ele>129.0</ele><time>2026-04-24T07:40:54Z</time></trkpt><trkpt lat="45.4711277367484" lon="9.217180870315369"><ele>129.0</ele><time>2026-04-24T07:40:55Z</time></trkpt><trkpt lat="45.47100169408425" lon="9.217172965609231"><ele>127.75</ele><time>2026-04-24T07:40:56Z</time></trkpt><trkpt lat="45.470867525737866" lon="9.217188203348751"><ele>126.5</ele><time>2026-04-24T07:40:57Z</time></trkpt><trkpt lat="45.47073100359065" lon="9.217189444754272"><ele>125.25</ele><time>2026-04-24T07:40:58Z</time></trkpt><trkpt lat="45.4706033000603" lon="9.217184090930115"><ele>124.0</ele><time>2026-04-24T07:40:59Z</time></trkpt><trkpt lat="45.47048625392811" lon="9.217178603105928"><ele>124.0</ele><time>2026-04-24T07:41:00Z</time></trkpt><trkpt lat="45.470372813260624" lon="9.217168609088572"><ele>124.0</ele><time>2026-04-24T07:41:01Z</time></trkpt><trkpt lat="45.47026618526426" lon="9.21717235375222"><ele>124.0</ele><time>2026-04-24T07:41:02Z</time></trkpt><trkpt lat="45.47016396507332" lon="9.217165782787772"><ele>124.0</ele><time>2026-04-24T07:41:03Z</time></trkpt><trkpt lat="45.47007573017702" lon="9.217180719187967"><ele>124.0</ele><time>2026-04-24T07:41:04Z</time></trkpt><trkpt lat="45.47000021796836" lon="9.217199317408816"><ele>124.00000000000001</ele><time>2026-04-24T07:41:05Z</time></trkpt><trkpt lat="45.46992403760886" lon="9.217209500854533"><ele>124.0</ele><time>2026-04-24T07:41:06Z</time></trkpt><trkpt lat="45.469847565965075" lon="9.217209890285007"><ele>124.0</ele><time>2026-04-24T07:41:07Z</time></trkpt><trkpt lat="45.46977667657296" lon="9.21721100374464"><ele>124.0</ele><time>2026-04-24T07:41:08Z</time></trkpt><trkpt lat="45.46966113356617" lon="9.21720057479498"><ele>124.00000000000001</ele><time>2026-04-24T07:41:10Z</time></trkpt><trkpt lat="45.4695754741712" lon="9.217205739936697"><ele>124.0</ele><time>2026-04-24T07:41:12Z</time></trkpt><trkpt lat="45.46949456202197" lon="9.217202225126556"><ele>124.2</ele><time>2026-04-24T07:41:14Z</time></trkpt><trkpt lat="45.469354825127" lon="9.217213493118805"><ele>124.4</ele><time>2026-04-24T07:41:16Z</time></trkpt><trkpt lat="45.46927551694308" lon="9.217197956511587"><ele>124.6</ele><time>2026-04-24T07:41:17Z</time></trkpt><trkpt lat="45.46919734076334" lon="9.217195393111883"><ele>124.8</ele><time>2026-04-24T07:41:18Z</time></trkpt><trkpt lat="45.46912026388748" lon="9.217191941659689"><ele>125.0</ele><time>2026-04-24T07:41:19Z</time></trkpt><trkpt lat="45.46904301528089" lon="9.217201822307427"><ele>124.99999999999999</ele><time>2026-04-24T07:41:20Z</time></trkpt><trkpt lat="45.46897141768114" lon="9.21720932047611"><ele>125.0</ele><time>2026-04-24T07:41:21Z</time></trkpt><trkpt lat="45.46890104168853" lon="9.217214271952143"><ele>125.0</ele><time>2026-04-24T07:41:21.999Z</time></trkpt><trkpt lat="45.46883399997805" lon="9.217220622822142"><ele>125.0</ele><time>2026-04-24T07:41:22.999Z</time></trkpt><trkpt lat="45.46873103513456" lon="9.217239449464529"><ele>124.99999999999999</ele><time>2026-04-24T07:41:24.999Z</time></trkpt><trkpt lat="45.468664263343896" lon="9.217236987133111"><ele>125.0</ele><time>2026-04-24T07:41:26.999Z</time></trkpt><trkpt lat="45.468560349472185" lon="9.217210175538952"><ele>124.8</ele><time>2026-04-24T07:41:29.999Z</time></trkpt><trkpt lat="45.46849191160924" lon="9.217216213265084"><ele>124.6</ele><time>2026-04-24T07:41:30.999Z</time></trkpt><trkpt lat="45.4684048958503" lon="9.217206837039821"><ele>124.4</ele><time>2026-04-24T07:41:31.999Z</time></trkpt><trkpt lat="45.46829992638671" lon="9.217216567129823"><ele>124.2</ele><time>2026-04-24T07:41:32.999Z</time></trkpt><trkpt lat="45.46818973429527" lon="9.217219249627886"><ele>124.0</ele><time>2026-04-24T07:41:33.999Z</time></trkpt><trkpt lat="45.468074725563596" lon="9.217240355025506"><ele>124.0</ele><time>2026-04-24T07:41:34.999Z</time></trkpt><trkpt lat="45.46795376325126" lon="9.217241884937167"><ele>124.0</ele><time>2026-04-24T07:41:35.999Z</time></trkpt><trkpt lat="45.46783242704323" lon="9.217238196259213"><ele>124.0</ele><time>2026-04-24T07:41:36.999Z</time></trkpt><trkpt lat="45.46770885176417" lon="9.217234783118755"><ele>124.0</ele><time>2026-04-24T07:41:37.999Z</time></trkpt><trkpt lat="45.467580959873025" lon="9.21722187461581"><ele>123.75</ele><time>2026-04-24T07:41:38.999Z</time></trkpt><trkpt lat="45.467451348308735" lon="9.217218465918878"><ele>123.5</ele><time>2026-04-24T07:41:39.999Z</time></trkpt><trkpt lat="45.46731670173346" lon="9.217225570101023"><ele>123.25</ele><time>2026-04-24T07:41:40.999Z</time></trkpt><trkpt lat="45.46717792498242" lon="9.21721993170725"><ele>123.0</ele><time>2026-04-24T07:41:41.999Z</time></trkpt><trkpt lat="45.467041652340434" lon="9.217219220838409"><ele>123.0</ele><time>2026-04-24T07:41:42.999Z</time></trkpt><trkpt lat="45.466900592305734" lon="9.217230514780068"><ele>123.0</ele><time>2026-04-24T07:41:43.999Z</time></trkpt><trkpt lat="45.466755061132474" lon="9.217222517631471"><ele>123.0</ele><time>2026-04-24T07:41:44.999Z</time></trkpt><trkpt lat="45.466609557401206" lon="9.217226070636073"><ele>123.0</ele><time>2026-04-24T07:41:45.999Z</time></trkpt><trkpt lat="45.466463541140634" lon="9.217218971748379"><ele>123.0</ele><time>2026-04-24T07:41:46.999Z</time></trkpt><trkpt lat="45.46631369591153" lon="9.217210015059036"><ele>123.0</ele><time>2026-04-24T07:41:47.999Z</time></trkpt><trkpt lat="45.466159249479084" lon="9.217208897431455"><ele>123.0</ele><time>2026-04-24T07:41:48.999Z</time></trkpt><trkpt lat="45.4660030085262" lon="9.21720871777686"><ele>123.33333333333334</ele><time>2026-04-24T07:41:49.999Z</time></trkpt><trkpt lat="45.46584971582554" lon="9.217209341014215"><ele>123.66666666666667</ele><time>2026-04-24T07:41:50.999Z</time></trkpt><trkpt lat="45.46569650957813" lon="9.217214502456878"><ele>124.0</ele><time>2026-04-24T07:41:51.999Z</time></trkpt><trkpt lat="45.46554629930282" lon="9.217231120079099"><ele>123.5</ele><time>2026-04-24T07:41:52.999Z</time></trkpt><trkpt lat="45.465402314624455" lon="9.217236170416367"><ele>123.0</ele><time>2026-04-24T07:41:53.999Z</time></trkpt><trkpt lat="45.46525888686344" lon="9.217239018697057"><ele>122.5</ele><time>2026-04-24T07:41:54.999Z</time></trkpt><trkpt lat="45.46510890142813" lon="9.217245926658059"><ele>122.0</ele><time>2026-04-24T07:41:55.999Z</time></trkpt><trkpt lat="45.46496053443001" lon="9.217235377713289"><ele>122.0</ele><time>2026-04-24T07:41:56.999Z</time></trkpt><trkpt lat="45.46481524810409" lon="9.217231815782409"><ele>122.0</ele><time>2026-04-24T07:41:57.999Z</time></trkpt><trkpt lat="45.46467311919334" lon="9.217231022986109"><ele>122.0</ele><time>2026-04-24T07:41:58.999Z</time></trkpt><trkpt lat="45.46453874075388" lon="9.217223264254995"><ele>122.0</ele><time>2026-04-24T07:41:59.999Z</time></trkpt><trkpt lat="45.464401903306836" lon="9.217229858995243"><ele>123.0</ele><time>2026-04-24T07:42:00.999Z</time></trkpt><trkpt lat="45.46426147157481" lon="9.217215016201704"><ele>124.0</ele><time>2026-04-24T07:42:01.999Z</time></trkpt><trkpt lat="45.46412163687202" lon="9.217200536493015"><ele>125.0</ele><time>2026-04-24T07:42:02.999Z</time></trkpt><trkpt lat="45.46398723464489" lon="9.21718595594176"><ele>126.0</ele><time>2026-04-24T07:42:03.999Z</time></trkpt><trkpt lat="45.46385395761432" lon="9.217184354390383"><ele>125.25</ele><time>2026-04-24T07:42:04.999Z</time></trkpt><trkpt lat="45.463728411993756" lon="9.217172412596362"><ele>124.5</ele><time>2026-04-24T07:42:05.999Z</time></trkpt><trkpt lat="45.463605505557815" lon="9.217170195610578"><ele>123.75</ele><time>2026-04-24T07:42:06.999Z</time></trkpt><trkpt lat="45.46348887298461" lon="9.217157394952071"><ele>123.0</ele><time>2026-04-24T07:42:07.999Z</time></trkpt><trkpt lat="45.46338382045834" lon="9.21716501371691"><ele>123.0</ele><time>2026-04-24T07:42:08.999Z</time></trkpt><trkpt lat="45.46329101781375" lon="9.21715656370961"><ele>123.0</ele><time>2026-04-24T07:42:09.999Z</time></trkpt><trkpt lat="45.46320119451749" lon="9.217156229518963"><ele>123.0</ele><time>2026-04-24T07:42:10.999Z</time></trkpt><trkpt lat="45.46311976120953" lon="9.217154937406637"><ele>123.0</ele><time>2026-04-24T07:42:11.999Z</time></trkpt><trkpt lat="45.463047675109166" lon="9.217159045704722"><ele>123.0</ele><time>2026-04-24T07:42:12.999Z</time></trkpt><trkpt lat="45.46298220936742" lon="9.217162769211365"><ele>123.0</ele><time>2026-04-24T07:42:13.999Z</time></trkpt><trkpt lat="45.462916473070415" lon="9.21715338977651"><ele>122.33333333333333</ele><time>2026-04-24T07:42:14.999Z</time></trkpt><trkpt lat="45.4628035029338" lon="9.217169421260639"><ele>121.66666666666666</ele><time>2026-04-24T07:42:16.999Z</time></trkpt><trkpt lat="45.46271997415045" lon="9.217205675303763"><ele>121.0</ele><time>2026-04-24T07:42:18.999Z</time></trkpt><trkpt lat="45.46264584053599" lon="9.217215521466205"><ele>120.33333333333333</ele><time>2026-04-24T07:42:21.999Z</time></trkpt><trkpt lat="45.46258226249979" lon="9.217270199124087"><ele>119.66666666666666</ele><time>2026-04-24T07:42:24.999Z</time></trkpt><trkpt lat="45.46252083233441" lon="9.217298077796105"><ele>119.0</ele><time>2026-04-24T07:42:31.999Z</time></trkpt><trkpt lat="45.462364316932636" lon="9.217367074516572"><ele>118.99999999999999</ele><time>2026-04-24T07:42:54.998Z</time></trkpt><trkpt lat="45.46229020355856" lon="9.217363893655717"><ele>119.0</ele><time>2026-04-24T07:42:55.998Z</time></trkpt><trkpt lat="45.4622141664326" lon="9.217338273302504"><ele>119.0</ele><time>2026-04-24T07:42:56.998Z</time></trkpt><trkpt lat="45.462128223232895" lon="9.217332209137266"><ele>119.0</ele><time>2026-04-24T07:42:57.998Z</time></trkpt><trkpt lat="45.46204722582576" lon="9.21731179238821"><ele>118.99999999999999</ele><time>2026-04-24T07:42:58.998Z</time></trkpt><trkpt lat="45.46197686786113" lon="9.217287534198007"><ele>119.0</ele><time>2026-04-24T07:42:59.998Z</time></trkpt><trkpt lat="45.46190997476956" lon="9.217279629491332"><ele>118.49999999999999</ele><time>2026-04-24T07:43:00.998Z</time></trkpt><trkpt lat="45.461846258892535" lon="9.217281378253478"><ele>118.0</ele><time>2026-04-24T07:43:01.998Z</time></trkpt><trkpt lat="45.46173498852704" lon="9.217259236427791"><ele>117.5</ele><time>2026-04-24T07:43:03.998Z</time></trkpt><trkpt lat="45.46165232511912" lon="9.217251422901246"><ele>117.0</ele><time>2026-04-24T07:43:05.998Z</time></trkpt><trkpt lat="45.46157286440351" lon="9.21726413295709"><ele>116.49999999999999</ele><time>2026-04-24T07:43:09.998Z</time></trkpt><trkpt lat="45.461487947804734" lon="9.217271378257708"><ele>116.0</ele><time>2026-04-24T07:43:14.998Z</time></trkpt><trkpt lat="45.46142154721821" lon="9.217269382356877"><ele>115.99999999999999</ele><time>2026-04-24T07:43:16.998Z</time></trkpt><trkpt lat="45.46131545444285" lon="9.217262260093303"><ele>116.0</ele><time>2026-04-24T07:43:18.998Z</time></trkpt><trkpt lat="45.46125143149378" lon="9.217261442430406"><ele>116.0</ele><time>2026-04-24T07:43:19.998Z</time></trkpt><trkpt lat="45.461145293685846" lon="9.21729210721251"><ele>116.0</ele><time>2026-04-24T07:43:21.998Z</time></trkpt><trkpt lat="45.46105679443257" lon="9.217296866154733"><ele>115.99999999999999</ele><time>2026-04-24T07:43:23.998Z</time></trkpt><trkpt lat="45.46098168557521" lon="9.217266772116908"><ele>116.0</ele><time>2026-04-24T07:43:26.998Z</time></trkpt><trkpt lat="45.46091513313768" lon="9.217273399630445"><ele>116.00000000000001</ele><time>2026-04-24T07:43:29.998Z</time></trkpt><trkpt lat="45.460853551906766" lon="9.21723860975781"><ele>116.0</ele><time>2026-04-24T07:43:31.998Z</time></trkpt><trkpt lat="45.46078978264007" lon="9.217249611152845"><ele>116.00000000000001</ele><time>2026-04-24T07:43:35.998Z</time></trkpt><trkpt lat="45.46072677558358" lon="9.21724014657429"><ele>116.00000000000001</ele><time>2026-04-24T07:43:51.998Z</time></trkpt><trkpt lat="45.46063747741053" lon="9.217279864972538"><ele>116.0</ele><time>2026-04-24T07:43:54.998Z</time></trkpt><trkpt lat="45.4605493269906" lon="9.217295647520789"><ele>116.00000000000001</ele><time>2026-04-24T07:43:57.998Z</time></trkpt><trkpt lat="45.4604854976912" lon="9.217278980357843"><ele>116.00000000000001</ele><time>2026-04-24T07:43:59.998Z</time></trkpt><trkpt lat="45.46041725528717" lon="9.217266613032994"><ele>116.33333333333333</ele><time>2026-04-24T07:44:01.998Z</time></trkpt><trkpt lat="45.46034042468684" lon="9.21727964979419"><ele>116.66666666666666</ele><time>2026-04-24T07:44:03.998Z</time></trkpt><trkpt lat="45.46024710040778" lon="9.217278788749722"><ele>117.0</ele><time>2026-04-24T07:44:05.998Z</time></trkpt><trkpt lat="45.46015659002718" lon="9.217274595448647"><ele>117.33333333333334</ele><time>2026-04-24T07:44:07.998Z</time></trkpt><trkpt lat="45.46006984643621" lon="9.217270501723222"><ele>117.66666666666667</ele><time>2026-04-24T07:44:09.997Z</time></trkpt><trkpt lat="45.45998312246833" lon="9.217268201881895"><ele>118.0</ele><time>2026-04-24T07:44:11.997Z</time></trkpt><trkpt lat="45.45989312571596" lon="9.217274450844808"><ele>118.00000000000001</ele><time>2026-04-24T07:44:13.997Z</time></trkpt><trkpt lat="45.459798452626515" lon="9.217274759109511"><ele>118.0</ele><time>2026-04-24T07:44:15.997Z</time></trkpt><trkpt lat="45.45969283595439" lon="9.217280615511617"><ele>118.0</ele><time>2026-04-24T07:44:17.997Z</time></trkpt><trkpt lat="45.45961401286484" lon="9.217286531772697"><ele>118.0</ele><time>2026-04-24T07:44:19.997Z</time></trkpt><trkpt lat="45.459530746069156" lon="9.217288734774975"><ele>118.00000000000001</ele><time>2026-04-24T07:44:22.997Z</time></trkpt><trkpt lat="45.459444875053194" lon="9.217289863512626"><ele>118.0</ele><time>2026-04-24T07:44:25.997Z</time></trkpt><trkpt lat="45.459374821004175" lon="9.217286332644008"><ele>117.80000000000001</ele><time>2026-04-24T07:44:41.997Z</time></trkpt><trkpt lat="45.45925335352063" lon="9.217263893155513"><ele>117.60000000000001</ele><time>2026-04-24T07:44:44.997Z</time></trkpt><trkpt lat="45.45917930904088" lon="9.217255402818656"><ele>117.39999999999999</ele><time>2026-04-24T07:44:45.997Z</time></trkpt><trkpt lat="45.45910267778734" lon="9.217228731124278"><ele>117.19999999999999</ele><time>2026-04-24T07:44:46.997Z</time></trkpt><trkpt lat="45.45902247011297" lon="9.21718477279376"><ele>117.0</ele><time>2026-04-24T07:44:47.997Z</time></trkpt><trkpt lat="45.45893926100486" lon="9.217127751798008"><ele>117.0</ele><time>2026-04-24T07:44:48.997Z</time></trkpt><trkpt lat="45.458860203911854" lon="9.21706602061598"><ele>117.0</ele><time>2026-04-24T07:44:49.997Z</time></trkpt><trkpt lat="45.458777299303584" lon="9.217040133649189"><ele>117.0</ele><time>2026-04-24T07:44:50.997Z</time></trkpt><trkpt lat="45.45869435389167" lon="9.217031315306567"><ele>117.0</ele><time>2026-04-24T07:44:51.997Z</time></trkpt><trkpt lat="45.45861613802222" lon="9.217060109474723"><ele>117.0</ele><time>2026-04-24T07:44:52.997Z</time></trkpt><trkpt lat="45.458539086935346" lon="9.217104586486547"><ele>117.0</ele><time>2026-04-24T07:44:53.997Z</time></trkpt><trkpt lat="45.45846078284924" lon="9.217156067226211"><ele>117.39999999999999</ele><time>2026-04-24T07:44:54.997Z</time></trkpt><trkpt lat="45.45837460330232" lon="9.217191026017714"><ele>117.79999999999998</ele><time>2026-04-24T07:44:55.997Z</time></trkpt><trkpt lat="45.45828105975247" lon="9.217206684629337"><ele>118.2</ele><time>2026-04-24T07:44:56.997Z</time></trkpt><trkpt lat="45.45818772326506" lon="9.21721504512675"><ele>118.6</ele><time>2026-04-24T07:44:57.997Z</time></trkpt><trkpt lat="45.45808321046137" lon="9.217216886834189"><ele>119.0</ele><time>2026-04-24T07:44:58.997Z</time></trkpt><trkpt lat="45.45796434321011" lon="9.217207671156627"><ele>119.75</ele><time>2026-04-24T07:44:59.997Z</time></trkpt><trkpt lat="45.45784025448117" lon="9.217178043449671"><ele>120.5</ele><time>2026-04-24T07:45:00.997Z</time></trkpt><trkpt lat="45.457714702297366" lon="9.21718142215442"><ele>121.25</ele><time>2026-04-24T07:45:01.997Z</time></trkpt><trkpt lat="45.457597609874114" lon="9.217141948802457"><ele>122.0</ele><time>2026-04-24T07:45:02.997Z</time></trkpt><trkpt lat="45.45747328333799" lon="9.217099881736045"><ele>122.0</ele><time>2026-04-24T07:45:03.997Z</time></trkpt><trkpt lat="45.457345473229736" lon="9.217061007415738"><ele>122.0</ele><time>2026-04-24T07:45:04.997Z</time></trkpt><trkpt lat="45.457226529915374" lon="9.21704852953089"><ele>122.0</ele><time>2026-04-24T07:45:05.997Z</time></trkpt><trkpt lat="45.457116578056215" lon="9.21701093129917"><ele>122.0</ele><time>2026-04-24T07:45:06.997Z</time></trkpt><trkpt lat="45.456998026301676" lon="9.216968577545723"><ele>122.0</ele><time>2026-04-24T07:45:07.997Z</time></trkpt><trkpt lat="45.45687302562571" lon="9.216929624242567"><ele>122.0</ele><time>2026-04-24T07:45:08.997Z</time></trkpt><trkpt lat="45.45675312606218" lon="9.216901270492341"><ele>122.0</ele><time>2026-04-24T07:45:09.997Z</time></trkpt><trkpt lat="45.456634964092515" lon="9.21687491843468"><ele>122.0</ele><time>2026-04-24T07:45:10.997Z</time></trkpt><trkpt lat="45.45652681322792" lon="9.216824236337429"><ele>122.0</ele><time>2026-04-24T07:45:11.997Z</time></trkpt><trkpt lat="45.456420095327125" lon="9.216770606824532"><ele>121.99999999999999</ele><time>2026-04-24T07:45:12.997Z</time></trkpt><trkpt lat="45.456321576853476" lon="9.21672722115652"><ele>121.99999999999999</ele><time>2026-04-24T07:45:13.997Z</time></trkpt><trkpt lat="45.4562274285035" lon="9.21668959314398"><ele>122.0</ele><time>2026-04-24T07:45:14.997Z</time></trkpt><trkpt lat="45.45613482424806" lon="9.216651241635544"><ele>122.0</ele><time>2026-04-24T07:45:15.997Z</time></trkpt><trkpt lat="45.45604710089783" lon="9.216596894658835"><ele>121.8</ele><time>2026-04-24T07:45:16.997Z</time></trkpt><trkpt lat="45.45595947890243" lon="9.21654830650121"><ele>121.6</ele><time>2026-04-24T07:45:17.997Z</time></trkpt><trkpt lat="45.455866175369" lon="9.216506857160468"><ele>121.39999999999999</ele><time>2026-04-24T07:45:18.997Z</time></trkpt><trkpt lat="45.455771109182486" lon="9.216469466673454"><ele>121.19999999999999</ele><time>2026-04-24T07:45:19.997Z</time></trkpt><trkpt lat="45.455677723792846" lon="9.216425801272516"><ele>121.0</ele><time>2026-04-24T07:45:20.997Z</time></trkpt><trkpt lat="45.45558820432279" lon="9.216378027691803"><ele>121.00000000000001</ele><time>2026-04-24T07:45:21.997Z</time></trkpt><trkpt lat="45.455505226425586" lon="9.216328874188081"><ele>121.0</ele><time>2026-04-24T07:45:22.997Z</time></trkpt><trkpt lat="45.455429791053355" lon="9.216289087271733"><ele>121.0</ele><time>2026-04-24T07:45:23.997Z</time></trkpt><trkpt lat="45.455352502610005" lon="9.216265931126653"><ele>121.0</ele><time>2026-04-24T07:45:24.997Z</time></trkpt><trkpt lat="45.455280156935636" lon="9.216226175556908"><ele>121.00000000000001</ele><time>2026-04-24T07:45:25.997Z</time></trkpt><trkpt lat="45.45521623657717" lon="9.216189958027991"><ele>121.0</ele><time>2026-04-24T07:45:26.997Z</time></trkpt><trkpt lat="45.45514949995367" lon="9.216154201761535"><ele>120.50000000000001</ele><time>2026-04-24T07:45:27.997Z</time></trkpt><trkpt lat="45.45507715274542" lon="9.216107939029591"><ele>120.0</ele><time>2026-04-24T07:45:28.997Z</time></trkpt><trkpt lat="45.45501400078251" lon="9.216070787903181"><ele>119.5</ele><time>2026-04-24T07:45:29.997Z</time></trkpt><trkpt lat="45.45495325321145" lon="9.21602648877242"><ele>119.0</ele><time>2026-04-24T07:45:30.997Z</time></trkpt><trkpt lat="45.45486569118017" lon="9.215954229727807"><ele>118.50000000000001</ele><time>2026-04-24T07:45:32.997Z</time></trkpt><trkpt lat="45.454784459492515" lon="9.21589656942269"><ele>118.0</ele><time>2026-04-24T07:45:34.996Z</time></trkpt><trkpt lat="45.45470086325152" lon="9.21583830036766"><ele>118.00000000000001</ele><time>2026-04-24T07:45:36.996Z</time></trkpt><trkpt lat="45.45462143887797" lon="9.215802140660688"><ele>118.0</ele><time>2026-04-24T07:45:38.996Z</time></trkpt><trkpt lat="45.454547104424066" lon="9.215762127782058"><ele>118.0</ele><time>2026-04-24T07:45:40.996Z</time></trkpt><trkpt lat="45.454474183707006" lon="9.215715468133109"><ele>118.0</ele><time>2026-04-24T07:45:42.996Z</time></trkpt><trkpt lat="45.45440265793663" lon="9.215667315382124"><ele>118.00000000000001</ele><time>2026-04-24T07:45:44.996Z</time></trkpt><trkpt lat="45.45434237572004" lon="9.215619259841642"><ele>118.0</ele><time>2026-04-24T07:45:46.996Z</time></trkpt><trkpt lat="45.45427242361144" lon="9.215566820861374"><ele>118.16666666666667</ele><time>2026-04-24T07:45:49.996Z</time></trkpt><trkpt lat="45.45421485390426" lon="9.215527283464175"><ele>118.33333333333334</ele><time>2026-04-24T07:45:52.996Z</time></trkpt><trkpt lat="45.45412775321519" lon="9.215461792929867"><ele>118.5</ele><time>2026-04-24T07:45:55.996Z</time></trkpt><trkpt lat="45.45405496200837" lon="9.215409347102863"><ele>118.66666666666666</ele><time>2026-04-24T07:45:57.996Z</time></trkpt><trkpt lat="45.45397017446491" lon="9.215362629825988"><ele>118.83333333333333</ele><time>2026-04-24T07:45:59.996Z</time></trkpt><trkpt lat="45.45391364942673" lon="9.215322858661885"><ele>119.0</ele><time>2026-04-24T07:46:00.996Z</time></trkpt><trkpt lat="45.45384294132137" lon="9.21526795451704"><ele>118.99999999999999</ele><time>2026-04-24T07:46:01.996Z</time></trkpt><trkpt lat="45.45376172555174" lon="9.215210590059389"><ele>119.0</ele><time>2026-04-24T07:46:02.996Z</time></trkpt><trkpt lat="45.453682987398125" lon="9.21513914161876"><ele>119.0</ele><time>2026-04-24T07:46:03.996Z</time></trkpt><trkpt lat="45.45360936068161" lon="9.215078191026612"><ele>119.0</ele><time>2026-04-24T07:46:04.996Z</time></trkpt><trkpt lat="45.45353680304217" lon="9.2150226706802"><ele>118.99999999999999</ele><time>2026-04-24T07:46:05.996Z</time></trkpt><trkpt lat="45.453462624809255" lon="9.214968065716567"><ele>119.0</ele><time>2026-04-24T07:46:06.996Z</time></trkpt><trkpt lat="45.453381597203695" lon="9.214925719617346"><ele>118.99999999999999</ele><time>2026-04-24T07:46:07.996Z</time></trkpt><trkpt lat="45.453309457385416" lon="9.214850155482036"><ele>119.0</ele><time>2026-04-24T07:46:08.996Z</time></trkpt><trkpt lat="45.45324111423028" lon="9.214786220219986"><ele>119.0</ele><time>2026-04-24T07:46:09.996Z</time></trkpt><trkpt lat="45.453175497074135" lon="9.214688301954613"><ele>119.0</ele><time>2026-04-24T07:46:11.996Z</time></trkpt><trkpt lat="45.45311179190745" lon="9.214653352760628"><ele>118.99999999999999</ele><time>2026-04-24T07:46:14.996Z</time></trkpt><trkpt lat="45.45304921484302" lon="9.214675116431279"><ele>119.0</ele><time>2026-04-24T07:46:20.996Z</time></trkpt><trkpt lat="45.45300462591518" lon="9.214595104312144"><ele>118.80000000000001</ele><time>2026-04-24T07:46:24.996Z</time></trkpt><trkpt lat="45.45298894677671" lon="9.214499644485807"><ele>118.60000000000001</ele><time>2026-04-24T07:46:31.996Z</time></trkpt><trkpt lat="45.45291986787742" lon="9.214433633288342"><ele>118.4</ele><time>2026-04-24T07:46:40.996Z</time></trkpt><trkpt lat="45.45280334620996" lon="9.214332940492703"><ele>118.2</ele><time>2026-04-24T07:46:42.996Z</time></trkpt><trkpt lat="45.452719533196394" lon="9.214266768820238"><ele>118.0</ele><time>2026-04-24T07:46:43.996Z</time></trkpt><trkpt lat="45.452621986371035" lon="9.214194805583658"><ele>118.0</ele><time>2026-04-24T07:46:44.996Z</time></trkpt><trkpt lat="45.452501266387806" lon="9.21411259989203"><ele>118.0</ele><time>2026-04-24T07:46:45.996Z</time></trkpt><trkpt lat="45.45238946778357" lon="9.214019274012356"><ele>118.0</ele><time>2026-04-24T07:46:46.996Z</time></trkpt><trkpt lat="45.45226871373987" lon="9.21392268320962"><ele>118.0</ele><time>2026-04-24T07:46:47.996Z</time></trkpt><trkpt lat="45.45214544375012" lon="9.213827837675831"><ele>118.2</ele><time>2026-04-24T07:46:48.996Z</time></trkpt><trkpt lat="45.45203093347705" lon="9.213734780969867"><ele>118.4</ele><time>2026-04-24T07:46:49.996Z</time></trkpt><trkpt lat="45.45193211531292" lon="9.2136549444388"><ele>118.60000000000001</ele><time>2026-04-24T07:46:50.996Z</time></trkpt><trkpt lat="45.45185967535938" lon="9.21358130352295"><ele>118.80000000000001</ele><time>2026-04-24T07:46:51.996Z</time></trkpt><trkpt lat="45.45178018609969" lon="9.213526897338319"><ele>119.0</ele><time>2026-04-24T07:46:52.996Z</time></trkpt><trkpt lat="45.45169679772138" lon="9.21346857634234"><ele>119.0</ele><time>2026-04-24T07:46:53.996Z</time></trkpt><trkpt lat="45.45161318375324" lon="9.213402539744628"><ele>119.0</ele><time>2026-04-24T07:46:54.996Z</time></trkpt><trkpt lat="45.45151727650568" lon="9.213329461418082"><ele>119.0</ele><time>2026-04-24T07:46:55.996Z</time></trkpt><trkpt lat="45.45142690925196" lon="9.213247069981582"><ele>119.0</ele><time>2026-04-24T07:46:56.996Z</time></trkpt><trkpt lat="45.451336495691976" lon="9.213171599959818"><ele>119.0</ele><time>2026-04-24T07:46:57.996Z</time></trkpt><trkpt lat="45.451242945187516" lon="9.213095184606912"><ele>118.99999999999999</ele><time>2026-04-24T07:46:58.995Z</time></trkpt><trkpt lat="45.451163747952705" lon="9.213036083794464"><ele>119.0</ele><time>2026-04-24T07:46:59.995Z</time></trkpt><trkpt lat="45.45108370342024" lon="9.212982642751365"><ele>119.0</ele><time>2026-04-24T07:47:00.995Z</time></trkpt><trkpt lat="45.45101159550957" lon="9.212920913289652"><ele>119.0</ele><time>2026-04-24T07:47:01.995Z</time></trkpt><trkpt lat="45.450950159516424" lon="9.212869208252672"><ele>118.99999999999999</ele><time>2026-04-24T07:47:02.995Z</time></trkpt><trkpt lat="45.45085908210007" lon="9.212792810605492"><ele>119.0</ele><time>2026-04-24T07:47:04.995Z</time></trkpt><trkpt lat="45.45080291857311" lon="9.212750334521703"><ele>119.0</ele><time>2026-04-24T07:47:07.995Z</time></trkpt><trkpt lat="45.45073369535047" lon="9.212670859631771"><ele>119.0</ele><time>2026-04-24T07:47:32.999Z</time></trkpt><trkpt lat="45.45067035217703" lon="9.212614744877296"><ele>119.0</ele><time>2026-04-24T07:47:33.999Z</time></trkpt><trkpt lat="45.45058192591149" lon="9.212547907237816"><ele>119.0</ele><time>2026-04-24T07:47:34.999Z</time></trkpt><trkpt lat="45.45047468838591" lon="9.212467370704484"><ele>119.0</ele><time>2026-04-24T07:47:35.999Z</time></trkpt><trkpt lat="45.4503596674875" lon="9.212378865660316"><ele>119.0</ele><time>2026-04-24T07:47:36.999Z</time></trkpt><trkpt lat="45.45024290025128" lon="9.212287993024864"><ele>119.0</ele><time>2026-04-24T07:47:37.999Z</time></trkpt><trkpt lat="45.45012482757798" lon="9.212187969938977"><ele>119.0</ele><time>2026-04-24T07:47:38.999Z</time></trkpt><trkpt lat="45.450004645082736" lon="9.212090036105204"><ele>119.0</ele><time>2026-04-24T07:47:39.999Z</time></trkpt><trkpt lat="45.44988212711994" lon="9.211985909994086"><ele>119.0</ele><time>2026-04-24T07:47:40.999Z</time></trkpt><trkpt lat="45.44975503483101" lon="9.211885760264172"><ele>119.0</ele><time>2026-04-24T07:47:41.999Z</time></trkpt><trkpt lat="45.44962752835883" lon="9.211775475211587"><ele>119.0</ele><time>2026-04-24T07:47:42.999Z</time></trkpt><trkpt lat="45.449496733387406" lon="9.211655785993337"><ele>118.0</ele><time>2026-04-24T07:47:43.999Z</time></trkpt><trkpt lat="45.449358046458755" lon="9.211540840465121"><ele>117.0</ele><time>2026-04-24T07:47:44.999Z</time></trkpt><trkpt lat="45.44922824231383" lon="9.21142870380853"><ele>116.0</ele><time>2026-04-24T07:47:46Z</time></trkpt><trkpt lat="45.44910453708759" lon="9.211326698049879"><ele>115.75</ele><time>2026-04-24T07:47:47Z</time></trkpt><trkpt lat="45.44898897018516" lon="9.21122251130817"><ele>115.5</ele><time>2026-04-24T07:47:48Z</time></trkpt><trkpt lat="45.4488718833085" lon="9.211133714476622"><ele>115.25</ele><time>2026-04-24T07:47:49Z</time></trkpt><trkpt lat="45.4487684528198" lon="9.21105872504192"><ele>115.0</ele><time>2026-04-24T07:47:50Z</time></trkpt><trkpt lat="45.44868070617294" lon="9.210997435921902"><ele>115.33333333333334</ele><time>2026-04-24T07:47:51Z</time></trkpt><trkpt lat="45.448605940830106" lon="9.210934057137845"><ele>115.66666666666667</ele><time>2026-04-24T07:47:52Z</time></trkpt><trkpt lat="45.44853910816845" lon="9.210881096433289"><ele>116.0</ele><time>2026-04-24T07:47:53Z</time></trkpt><trkpt lat="45.44847162364464" lon="9.21083142905761"><ele>116.33333333333334</ele><time>2026-04-24T07:47:53.999Z</time></trkpt><trkpt lat="45.448408308231755" lon="9.210779613903313"><ele>116.66666666666667</ele><time>2026-04-24T07:47:54.999Z</time></trkpt><trkpt lat="45.44834903403082" lon="9.210721186249904"><ele>117.0</ele><time>2026-04-24T07:47:55.999Z</time></trkpt><trkpt lat="45.44829272011188" lon="9.210670497570002"><ele>117.0</ele><time>2026-04-24T07:47:56.999Z</time></trkpt><trkpt lat="45.44819824472813" lon="9.210584028446402"><ele>116.99999999999999</ele><time>2026-04-24T07:47:58.999Z</time></trkpt><trkpt lat="45.44814239404213" lon="9.210499884761846"><ele>116.99999999999999</ele><time>2026-04-24T07:48:00.999Z</time></trkpt><trkpt lat="45.448052511967454" lon="9.210396083133588"><ele>117.0</ele><time>2026-04-24T07:48:02.999Z</time></trkpt><trkpt lat="45.44797360089163" lon="9.210341329969182"><ele>117.0</ele><time>2026-04-24T07:48:03.999Z</time></trkpt><trkpt lat="45.447898079205196" lon="9.210269608184444"><ele>116.83333333333333</ele><time>2026-04-24T07:48:04.999Z</time></trkpt><trkpt lat="45.44783373129688" lon="9.210195781317285"><ele>116.66666666666666</ele><time>2026-04-24T07:48:05.999Z</time></trkpt><trkpt lat="45.447775852654964" lon="9.210124475413311"><ele>116.5</ele><time>2026-04-24T07:48:06.999Z</time></trkpt><trkpt lat="45.447730194135396" lon="9.210041888556699"><ele>116.33333333333333</ele><time>2026-04-24T07:48:07.999Z</time></trkpt><trkpt lat="45.44769846031518" lon="9.20995125217744"><ele>116.16666666666666</ele><time>2026-04-24T07:48:08.999Z</time></trkpt><trkpt lat="45.447624493963616" lon="9.20981210157231"><ele>116.0</ele><time>2026-04-24T07:48:10.999Z</time></trkpt><trkpt lat="45.44753368852902" lon="9.20972024606765"><ele>116.33333333333333</ele><time>2026-04-24T07:48:12.999Z</time></trkpt><trkpt lat="45.44742626868026" lon="9.209647125929113"><ele>116.66666666666666</ele><time>2026-04-24T07:48:14.999Z</time></trkpt><trkpt lat="45.44735745754915" lon="9.209640269894612"><ele>117.0</ele><time>2026-04-24T07:48:15.999Z</time></trkpt><trkpt lat="45.4472849018556" lon="9.209626585994618"><ele>117.33333333333334</ele><time>2026-04-24T07:48:16.999Z</time></trkpt><trkpt lat="45.447217314370626" lon="9.2096368076787"><ele>117.66666666666667</ele><time>2026-04-24T07:48:17.999Z</time></trkpt><trkpt lat="45.44714696565336" lon="9.209656091059253"><ele>118.0</ele><time>2026-04-24T07:48:18.999Z</time></trkpt><trkpt lat="45.44704104040642" lon="9.209514582303939"><ele>116.80000000000001</ele><time>2026-04-24T07:48:20.999Z</time></trkpt><trkpt lat="45.44700087042034" lon="9.209338064227236"><ele>115.60000000000001</ele><time>2026-04-24T07:48:22.999Z</time></trkpt><trkpt lat="45.44699446406553" lon="9.20920402113547"><ele>114.39999999999999</ele><time>2026-04-24T07:48:23.999Z</time></trkpt><trkpt lat="45.44698563542961" lon="9.209066269114482"><ele>113.19999999999999</ele><time>2026-04-24T07:48:24.999Z</time></trkpt><trkpt lat="45.446979752872394" lon="9.208927796477955"><ele>112.0</ele><time>2026-04-24T07:48:25.999Z</time></trkpt><trkpt lat="45.44697638710344" lon="9.208791632283038"><ele>112.0</ele><time>2026-04-24T07:48:26.999Z</time></trkpt><trkpt lat="45.446971051631564" lon="9.208649570201565"><ele>111.99999999999999</ele><time>2026-04-24T07:48:27.999Z</time></trkpt><trkpt lat="45.44697785158668" lon="9.208500773445898"><ele>111.99999999999999</ele><time>2026-04-24T07:48:28.999Z</time></trkpt><trkpt lat="45.446974364783436" lon="9.208351521482708"><ele>112.0</ele><time>2026-04-24T07:48:29.999Z</time></trkpt><trkpt lat="45.4469795049684" lon="9.20821585873404"><ele>112.0</ele><time>2026-04-24T07:48:30.999Z</time></trkpt><trkpt lat="45.446970807302705" lon="9.208096844027034"><ele>111.8</ele><time>2026-04-24T07:48:31.999Z</time></trkpt><trkpt lat="45.44695712845969" lon="9.207986065979009"><ele>111.6</ele><time>2026-04-24T07:48:32.999Z</time></trkpt><trkpt lat="45.4469662544721" lon="9.20788796015775"><ele>111.39999999999999</ele><time>2026-04-24T07:48:33.999Z</time></trkpt><trkpt lat="45.446959960347144" lon="9.207729250969393"><ele>111.19999999999999</ele><time>2026-04-24T07:48:35.999Z</time></trkpt><trkpt lat="45.44695701032951" lon="9.207617791476233"><ele>111.0</ele><time>2026-04-24T07:48:37.999Z</time></trkpt><trkpt lat="45.44695461742802" lon="9.207448087317088"><ele>111.4</ele><time>2026-04-24T07:49:27.999Z</time></trkpt><trkpt lat="45.44694654943887" lon="9.207245252699066"><ele>111.8</ele><time>2026-04-24T07:49:29.999Z</time></trkpt><trkpt lat="45.44694178187038" lon="9.207139616170618"><ele>112.20000000000002</ele><time>2026-04-24T07:49:30.999Z</time></trkpt><trkpt lat="45.44692834286292" lon="9.207001785655905"><ele>112.60000000000001</ele><time>2026-04-24T07:49:31.999Z</time></trkpt><trkpt lat="45.4469233023398" lon="9.206869329325786"><ele>113.0</ele><time>2026-04-24T07:49:32.998Z</time></trkpt><trkpt lat="45.446909169053875" lon="9.206701595623723"><ele>113.0</ele><time>2026-04-24T07:49:33.998Z</time></trkpt><trkpt lat="45.44689743579408" lon="9.206519309793189"><ele>113.0</ele><time>2026-04-24T07:49:34.998Z</time></trkpt><trkpt lat="45.44689101732166" lon="9.206351539042618"><ele>113.0</ele><time>2026-04-24T07:49:35.998Z</time></trkpt><trkpt lat="45.44687789335519" lon="9.206176677087655"><ele>113.0</ele><time>2026-04-24T07:49:36.998Z</time></trkpt><trkpt lat="45.44686670663979" lon="9.20600762370681"><ele>113.2</ele><time>2026-04-24T07:49:37.998Z</time></trkpt><trkpt lat="45.44685391773188" lon="9.205837859645735"><ele>113.4</ele><time>2026-04-24T07:49:38.998Z</time></trkpt><trkpt lat="45.4468442278931" lon="9.20568127058887"><ele>113.60000000000001</ele><time>2026-04-24T07:49:39.998Z</time></trkpt><trkpt lat="45.44683288848977" lon="9.2055324678241"><ele>113.80000000000001</ele><time>2026-04-24T07:49:40.998Z</time></trkpt><trkpt lat="45.44682344990468" lon="9.20540040092591"><ele>114.0</ele><time>2026-04-24T07:49:41.998Z</time></trkpt><trkpt lat="45.44681576411887" lon="9.205254952769765"><ele>114.5</ele><time>2026-04-24T07:49:42.998Z</time></trkpt><trkpt lat="45.44681041303797" lon="9.205124443754956"><ele>115.0</ele><time>2026-04-24T07:49:43.998Z</time></trkpt><trkpt lat="45.44680571844808" lon="9.204993881112685"><ele>115.5</ele><time>2026-04-24T07:49:44.998Z</time></trkpt><trkpt lat="45.44680224438151" lon="9.204900913456566"><ele>116.0</ele><time>2026-04-24T07:49:45.998Z</time></trkpt><trkpt lat="45.44679777117732" lon="9.204741790939822"><ele>116.5</ele><time>2026-04-24T07:49:47.998Z</time></trkpt><trkpt lat="45.44678934926985" lon="9.204634701441838"><ele>117.0</ele><time>2026-04-24T07:49:53.998Z</time></trkpt><trkpt lat="45.4467863159737" lon="9.20437938911786"><ele>117.75</ele><time>2026-04-24T07:50:01.998Z</time></trkpt><trkpt lat="45.44677861237075" lon="9.204222299315141"><ele>118.5</ele><time>2026-04-24T07:50:02.998Z</time></trkpt><trkpt lat="45.446772627339094" lon="9.204042967349174"><ele>119.25</ele><time>2026-04-24T07:50:03.998Z</time></trkpt><trkpt lat="45.446767991478595" lon="9.203850234734238"><ele>120.0</ele><time>2026-04-24T07:50:04.998Z</time></trkpt><trkpt lat="45.44676068504771" lon="9.203646267737772"><ele>120.0</ele><time>2026-04-24T07:50:05.998Z</time></trkpt><trkpt lat="45.446750627200764" lon="9.203431304538165"><ele>120.0</ele><time>2026-04-24T07:50:06.998Z</time></trkpt><trkpt lat="45.44674029244828" lon="9.20320516385377"><ele>120.0</ele><time>2026-04-24T07:50:07.998Z</time></trkpt><trkpt lat="45.44673102348595" lon="9.202998796973159"><ele>119.0</ele><time>2026-04-24T07:50:08.998Z</time></trkpt><trkpt lat="45.446720752536834" lon="9.202795702770763"><ele>118.0</ele><time>2026-04-24T07:50:09.998Z</time></trkpt><trkpt lat="45.44671381809413" lon="9.202582133900295"><ele>117.0</ele><time>2026-04-24T07:50:10.998Z</time></trkpt><trkpt lat="45.44670698907878" lon="9.202359844352117"><ele>116.0</ele><time>2026-04-24T07:50:11.998Z</time></trkpt><trkpt lat="45.44669706360135" lon="9.202147214629015"><ele>116.33333333333333</ele><time>2026-04-24T07:50:12.998Z</time></trkpt><trkpt lat="45.44668148156983" lon="9.201927912876569"><ele>116.66666666666666</ele><time>2026-04-24T07:50:13.998Z</time></trkpt><trkpt lat="45.44666715313769" lon="9.201701731268214"><ele>117.0</ele><time>2026-04-24T07:50:14.998Z</time></trkpt><trkpt lat="45.446658193282566" lon="9.20149594153001"><ele>117.0</ele><time>2026-04-24T07:50:15.998Z</time></trkpt><trkpt lat="45.44664643125882" lon="9.201295937177676"><ele>117.0</ele><time>2026-04-24T07:50:16.998Z</time></trkpt><trkpt lat="45.44663481254764" lon="9.201089830796304"><ele>117.0</ele><time>2026-04-24T07:50:17.998Z</time></trkpt><trkpt lat="45.446618568415154" lon="9.20087622868365"><ele>117.0</ele><time>2026-04-24T07:50:18.998Z</time></trkpt><trkpt lat="45.44660364636882" lon="9.200667501382286"><ele>117.5</ele><time>2026-04-24T07:50:19.998Z</time></trkpt><trkpt lat="45.44659530205189" lon="9.20047581719571"><ele>118.0</ele><time>2026-04-24T07:50:20.998Z</time></trkpt><trkpt lat="45.44658467525747" lon="9.20026918295165"><ele>118.5</ele><time>2026-04-24T07:50:21.998Z</time></trkpt><trkpt lat="45.446572388258474" lon="9.200079713592752"><ele>119.0</ele><time>2026-04-24T07:50:22.998Z</time></trkpt><trkpt lat="45.44656402877934" lon="9.199874711982954"><ele>119.5</ele><time>2026-04-24T07:50:23.998Z</time></trkpt><trkpt lat="45.44655676407408" lon="9.199674086908612"><ele>120.0</ele><time>2026-04-24T07:50:24.998Z</time></trkpt><trkpt lat="45.44654867602991" lon="9.199488536396078"><ele>120.5</ele><time>2026-04-24T07:50:25.998Z</time></trkpt><trkpt lat="45.44654451163281" lon="9.199304397849293"><ele>121.0</ele><time>2026-04-24T07:50:26.998Z</time></trkpt><trkpt lat="45.44653649267639" lon="9.199133609570055"><ele>120.66666666666667</ele><time>2026-04-24T07:50:27.998Z</time></trkpt><trkpt lat="45.44652870235137" lon="9.198957740428044"><ele>120.33333333333334</ele><time>2026-04-24T07:50:28.998Z</time></trkpt><trkpt lat="45.44652249964114" lon="9.198806755581218"><ele>120.0</ele><time>2026-04-24T07:50:29.998Z</time></trkpt><trkpt lat="45.44651924121063" lon="9.19868376651618"><ele>119.66666666666666</ele><time>2026-04-24T07:50:30.998Z</time></trkpt><trkpt lat="45.44651631498984" lon="9.198589871624081"><ele>119.33333333333333</ele><time>2026-04-24T07:50:31.998Z</time></trkpt><trkpt lat="45.446513319035965" lon="9.198498396941911"><ele>119.0</ele><time>2026-04-24T07:50:32.998Z</time></trkpt><trkpt lat="45.44650602267369" lon="9.198388105622467"><ele>118.25</ele><time>2026-04-24T07:50:35.998Z</time></trkpt><trkpt lat="45.44650869941056" lon="9.19814894407768"><ele>117.5</ele><time>2026-04-24T07:51:03.997Z</time></trkpt><trkpt lat="45.44650025807032" lon="9.198017021857572"><ele>116.75</ele><time>2026-04-24T07:51:04.997Z</time></trkpt><trkpt lat="45.44648683185156" lon="9.197884965813923"><ele>116.0</ele><time>2026-04-24T07:51:05.997Z</time></trkpt><trkpt lat="45.446478113267695" lon="9.197743721946354"><ele>116.0</ele><time>2026-04-24T07:51:06.997Z</time></trkpt><trkpt lat="45.4464664734895" lon="9.197587805538934"><ele>116.0</ele><time>2026-04-24T07:51:07.997Z</time></trkpt><trkpt lat="45.446456053392886" lon="9.197434809976487"><ele>116.0</ele><time>2026-04-24T07:51:08.997Z</time></trkpt><trkpt lat="45.44644813791309" lon="9.197252444815652"><ele>116.0</ele><time>2026-04-24T07:51:09.997Z</time></trkpt><trkpt lat="45.446439613819365" lon="9.197059172671372"><ele>116.25</ele><time>2026-04-24T07:51:10.997Z</time></trkpt><trkpt lat="45.44642691585707" lon="9.196844933225266"><ele>116.5</ele><time>2026-04-24T07:51:11.997Z</time></trkpt><trkpt lat="45.446415735219766" lon="9.19663604259072"><ele>116.75</ele><time>2026-04-24T07:51:12.997Z</time></trkpt><trkpt lat="45.44640571004749" lon="9.196436123993823"><ele>117.0</ele><time>2026-04-24T07:51:13.997Z</time></trkpt><trkpt lat="45.44639651890306" lon="9.196250026401625"><ele>117.0</ele><time>2026-04-24T07:51:14.997Z</time></trkpt><trkpt lat="45.44639675118562" lon="9.196091064566582"><ele>116.99999999999999</ele><time>2026-04-24T07:51:15.997Z</time></trkpt><trkpt lat="45.44638891727253" lon="9.19594331201656"><ele>116.99999999999999</ele><time>2026-04-24T07:51:16.997Z</time></trkpt><trkpt lat="45.44638257021772" lon="9.195816522161996"><ele>117.0</ele><time>2026-04-24T07:51:17.997Z</time></trkpt><trkpt lat="45.44637729124276" lon="9.195699257743263"><ele>117.0</ele><time>2026-04-24T07:51:18.997Z</time></trkpt><trkpt lat="45.44637304326195" lon="9.195584111185275"><ele>116.71428571428572</ele><time>2026-04-24T07:51:19.997Z</time></trkpt><trkpt lat="45.44636987306106" lon="9.195472359416996"><ele>116.42857142857144</ele><time>2026-04-24T07:51:20.997Z</time></trkpt><trkpt lat="45.44636342368868" lon="9.195376199467477"><ele>116.14285714285714</ele><time>2026-04-24T07:51:21.997Z</time></trkpt><trkpt lat="45.44635965343253" lon="9.195273404908889"><ele>115.85714285714286</ele><time>2026-04-24T07:51:22.997Z</time></trkpt><trkpt lat="45.44635544492869" lon="9.195172268393279"><ele>115.57142857142857</ele><time>2026-04-24T07:51:23.997Z</time></trkpt><trkpt lat="45.446349160664504" lon="9.195073259256876"><ele>115.28571428571428</ele><time>2026-04-24T07:51:24.997Z</time></trkpt><trkpt lat="45.44634411116252" lon="9.19496419823999"><ele>114.99999999999999</ele><time>2026-04-24T07:51:25.997Z</time></trkpt><trkpt lat="45.44634255087629" lon="9.194846200463806"><ele>115.2</ele><time>2026-04-24T07:51:26.997Z</time></trkpt><trkpt lat="45.446333481093326" lon="9.194710725945836"><ele>115.4</ele><time>2026-04-24T07:51:27.997Z</time></trkpt><trkpt lat="45.44632709267678" lon="9.194559590472828"><ele>115.6</ele><time>2026-04-24T07:51:28.997Z</time></trkpt><trkpt lat="45.44631765340186" lon="9.194392911758806"><ele>115.8</ele><time>2026-04-24T07:51:29.997Z</time></trkpt><trkpt lat="45.446308340404904" lon="9.194219549293097"><ele>116.0</ele><time>2026-04-24T07:51:30.997Z</time></trkpt><trkpt lat="45.44629283768398" lon="9.194028378811051"><ele>115.66666666666666</ele><time>2026-04-24T07:51:31.997Z</time></trkpt><trkpt lat="45.446279624808405" lon="9.193813528132047"><ele>115.33333333333334</ele><time>2026-04-24T07:51:32.997Z</time></trkpt><trkpt lat="45.44626493011564" lon="9.193594129995326"><ele>115.0</ele><time>2026-04-24T07:51:33.997Z</time></trkpt><trkpt lat="45.44625485891631" lon="9.193373740487909"><ele>115.33333333333334</ele><time>2026-04-24T07:51:34.997Z</time></trkpt><trkpt lat="45.44624618674123" lon="9.193156447657637"><ele>115.66666666666666</ele><time>2026-04-24T07:51:35.997Z</time></trkpt><trkpt lat="45.44624055045122" lon="9.192937278808344"><ele>116.0</ele><time>2026-04-24T07:51:36.997Z</time></trkpt><trkpt lat="45.44623491424756" lon="9.192717239902457"><ele>116.0</ele><time>2026-04-24T07:51:37.997Z</time></trkpt><trkpt lat="45.44623529965166" lon="9.192502919274673"><ele>116.0</ele><time>2026-04-24T07:51:38.997Z</time></trkpt><trkpt lat="45.44623448080582" lon="9.192280710210742"><ele>116.0</ele><time>2026-04-24T07:51:39.997Z</time></trkpt><trkpt lat="45.44622474385532" lon="9.192056403168818"><ele>116.0</ele><time>2026-04-24T07:51:40.997Z</time></trkpt><trkpt lat="45.44621272613172" lon="9.191843012470311"><ele>116.0</ele><time>2026-04-24T07:51:41.997Z</time></trkpt><trkpt lat="45.44620803768581" lon="9.191627019563906"><ele>116.0</ele><time>2026-04-24T07:51:42.997Z</time></trkpt><trkpt lat="45.44619778766997" lon="9.191413605888547"><ele>115.66666666666666</ele><time>2026-04-24T07:51:43.997Z</time></trkpt><trkpt lat="45.44618883860185" lon="9.191199191584086"><ele>115.33333333333334</ele><time>2026-04-24T07:51:44.997Z</time></trkpt><trkpt lat="45.44618524861761" lon="9.190980072312934"><ele>115.0</ele><time>2026-04-24T07:51:45.997Z</time></trkpt><trkpt lat="45.446178922570795" lon="9.190763737636898"><ele>115.33333333333334</ele><time>2026-04-24T07:51:46.997Z</time></trkpt><trkpt lat="45.44616954908192" lon="9.190537762014934"><ele>115.66666666666666</ele><time>2026-04-24T07:51:47.997Z</time></trkpt><trkpt lat="45.44616724583303" lon="9.190310481220214"><ele>116.0</ele><time>2026-04-24T07:51:48.997Z</time></trkpt><trkpt lat="45.44615017261597" lon="9.190090536401536"><ele>116.0</ele><time>2026-04-24T07:51:49.997Z</time></trkpt><trkpt lat="45.44613762615889" lon="9.189879774234827"><ele>116.0</ele><time>2026-04-24T07:51:50.997Z</time></trkpt><trkpt lat="45.44614830849023" lon="9.18966137822557"><ele>116.0</ele><time>2026-04-24T07:51:51.997Z</time></trkpt><trkpt lat="45.44612951497177" lon="9.189458519717746"><ele>116.0</ele><time>2026-04-24T07:51:52.997Z</time></trkpt><trkpt lat="45.4461116733217" lon="9.189252679291334"><ele>116.0</ele><time>2026-04-24T07:51:53.997Z</time></trkpt><trkpt lat="45.4460940991004" lon="9.189060564734193"><ele>116.0</ele><time>2026-04-24T07:51:54.997Z</time></trkpt><trkpt lat="45.446082013445825" lon="9.18886779105921"><ele>116.0</ele><time>2026-04-24T07:51:55.997Z</time></trkpt><trkpt lat="45.44605566757942" lon="9.18869795637005"><ele>116.0</ele><time>2026-04-24T07:51:56.997Z</time></trkpt><trkpt lat="45.446045071568726" lon="9.188537618831417"><ele>115.99999999999999</ele><time>2026-04-24T07:51:57.997Z</time></trkpt><trkpt lat="45.446008707449295" lon="9.188412189894198"><ele>116.0</ele><time>2026-04-24T07:51:58.997Z</time></trkpt><trkpt lat="45.44597143578023" lon="9.188301541688892"><ele>116.0</ele><time>2026-04-24T07:51:59.997Z</time></trkpt><trkpt lat="45.44593278360078" lon="9.18818662883036"><ele>116.0</ele><time>2026-04-24T07:52:00.997Z</time></trkpt><trkpt lat="45.445920899449675" lon="9.188081245474416"><ele>115.99999999999999</ele><time>2026-04-24T07:52:01.997Z</time></trkpt><trkpt lat="45.44586594022496" lon="9.188021583913596"><ele>116.0</ele><time>2026-04-24T07:52:03.997Z</time></trkpt><trkpt lat="45.445856972448624" lon="9.187919447110211"><ele>116.25</ele><time>2026-04-24T07:52:06.997Z</time></trkpt><trkpt lat="45.445824316127414" lon="9.18778370341463"><ele>116.5</ele><time>2026-04-24T07:52:37.996Z</time></trkpt><trkpt lat="45.445768957847946" lon="9.187627011708372"><ele>116.75</ele><time>2026-04-24T07:52:38.996Z</time></trkpt><trkpt lat="45.44571890921655" lon="9.187458640835358"><ele>117.0</ele><time>2026-04-24T07:52:39.996Z</time></trkpt><trkpt lat="45.445686141403556" lon="9.18731369866833"><ele>117.6</ele><time>2026-04-24T07:52:40.996Z</time></trkpt><trkpt lat="45.44564991727198" lon="9.187169393923758"><ele>118.19999999999999</ele><time>2026-04-24T07:52:41.996Z</time></trkpt><trkpt lat="45.445623697089744" lon="9.187030845201553"><ele>118.8</ele><time>2026-04-24T07:52:42.996Z</time></trkpt><trkpt lat="45.445570454109244" lon="9.186888297788274"><ele>119.4</ele><time>2026-04-24T07:52:43.996Z</time></trkpt><trkpt lat="45.44549459141318" lon="9.186742365324639"><ele>120.0</ele><time>2026-04-24T07:52:44.996Z</time></trkpt><trkpt lat="45.44543775602187" lon="9.18655416566287"><ele>120.0</ele><time>2026-04-24T07:52:45.996Z</time></trkpt><trkpt lat="45.445384124733096" lon="9.186373855264137"><ele>120.0</ele><time>2026-04-24T07:52:46.996Z</time></trkpt><trkpt lat="45.44533180044727" lon="9.186176814931294"><ele>120.0</ele><time>2026-04-24T07:52:47.996Z</time></trkpt><trkpt lat="45.4452841186323" lon="9.186003185874632"><ele>120.0</ele><time>2026-04-24T07:52:48.996Z</time></trkpt><trkpt lat="45.445218104976526" lon="9.18585455918622"><ele>120.0</ele><time>2026-04-24T07:52:49.996Z</time></trkpt><trkpt lat="45.445183130336865" lon="9.185735542956866"><ele>120.0</ele><time>2026-04-24T07:52:50.996Z</time></trkpt><trkpt lat="45.44514585655858" lon="9.185637180387308"><ele>120.0</ele><time>2026-04-24T07:52:51.996Z</time></trkpt><trkpt lat="45.44513583673087" lon="9.185538116364711"><ele>120.0</ele><time>2026-04-24T07:52:52.996Z</time></trkpt><trkpt lat="45.4451169973102" lon="9.185404798528198"><ele>120.0</ele><time>2026-04-24T07:52:54.996Z</time></trkpt><trkpt lat="45.44504394410013" lon="9.1854357324197"><ele>120.0</ele><time>2026-04-24T07:53:05.997Z</time></trkpt><trkpt lat="45.445030629326" lon="9.185270205186814"><ele>119.6</ele><time>2026-04-24T07:53:27.997Z</time></trkpt><trkpt lat="45.44498788703752" lon="9.185156411097"><ele>119.2</ele><time>2026-04-24T07:53:28.997Z</time></trkpt><trkpt lat="45.44494203174304" lon="9.184999453583723"><ele>118.80000000000001</ele><time>2026-04-24T07:53:29.997Z</time></trkpt><trkpt lat="45.44488563515111" lon="9.184841659303176"><ele>118.4</ele><time>2026-04-24T07:53:30.997Z</time></trkpt><trkpt lat="45.4448443787437" lon="9.184691928500914"><ele>118.0</ele><time>2026-04-24T07:53:31.997Z</time></trkpt><trkpt lat="45.44480205710381" lon="9.184537285591528"><ele>118.0</ele><time>2026-04-24T07:53:32.997Z</time></trkpt><trkpt lat="45.44476990011748" lon="9.18436968159131"><ele>118.00000000000001</ele><time>2026-04-24T07:53:33.997Z</time></trkpt><trkpt lat="45.44474130758828" lon="9.184230132810267"><ele>118.00000000000001</ele><time>2026-04-24T07:53:34.997Z</time></trkpt><trkpt lat="45.44468766252607" lon="9.184093468418773"><ele>118.0</ele><time>2026-04-24T07:53:35.997Z</time></trkpt><trkpt lat="45.44464450387676" lon="9.183977163272052"><ele>118.0</ele><time>2026-04-24T07:53:36.997Z</time></trkpt><trkpt lat="45.444633007437744" lon="9.183826770610253"><ele>117.66666666666667</ele><time>2026-04-24T07:53:37.997Z</time></trkpt><trkpt lat="45.44456589298794" lon="9.183766691792547"><ele>117.33333333333334</ele><time>2026-04-24T07:53:38.997Z</time></trkpt><trkpt lat="45.444514503182894" lon="9.183685247129363"><ele>117.0</ele><time>2026-04-24T07:53:39.997Z</time></trkpt><trkpt lat="45.44446774562899" lon="9.183587194601246"><ele>116.66666666666666</ele><time>2026-04-24T07:53:40.997Z</time></trkpt><trkpt lat="45.444435374720356" lon="9.183478631171175"><ele>116.33333333333333</ele><time>2026-04-24T07:53:41.997Z</time></trkpt><trkpt lat="45.4444081046419" lon="9.183334854771122"><ele>116.0</ele><time>2026-04-24T07:53:42.997Z</time></trkpt><trkpt lat="45.444391504221635" lon="9.183240642498413"><ele>116.33333333333333</ele><time>2026-04-24T07:53:43.997Z</time></trkpt><trkpt lat="45.44437672449156" lon="9.18311783313054"><ele>116.66666666666666</ele><time>2026-04-24T07:53:44.997Z</time></trkpt><trkpt lat="45.444339340818765" lon="9.183016247515331"><ele>117.0</ele><time>2026-04-24T07:53:45.997Z</time></trkpt><trkpt lat="45.444304049340346" lon="9.182901284307965"><ele>117.33333333333334</ele><time>2026-04-24T07:53:46.997Z</time></trkpt><trkpt lat="45.44427556266422" lon="9.18278941329963"><ele>117.66666666666667</ele><time>2026-04-24T07:53:47.997Z</time></trkpt><trkpt lat="45.44427666481467" lon="9.182672479221393"><ele>118.0</ele><time>2026-04-24T07:53:48.997Z</time></trkpt><trkpt lat="45.44424681039058" lon="9.182549234112606"><ele>118.0</ele><time>2026-04-24T07:53:49.997Z</time></trkpt><trkpt lat="45.44422225595257" lon="9.182427669110599"><ele>118.00000000000001</ele><time>2026-04-24T07:53:50.997Z</time></trkpt><trkpt lat="45.44417576467666" lon="9.18228853475729"><ele>118.00000000000001</ele><time>2026-04-24T07:53:51.997Z</time></trkpt><trkpt lat="45.444128839366435" lon="9.182130740976246"><ele>118.0</ele><time>2026-04-24T07:53:52.997Z</time></trkpt><trkpt lat="45.44408302068896" lon="9.181975089952108"><ele>118.0</ele><time>2026-04-24T07:53:53.996Z</time></trkpt><trkpt lat="45.44403247855702" lon="9.181817194067095"><ele>118.0</ele><time>2026-04-24T07:53:54.996Z</time></trkpt><trkpt lat="45.44397420998142" lon="9.181643696849129"><ele>118.0</ele><time>2026-04-24T07:53:55.996Z</time></trkpt><trkpt lat="45.44391020183453" lon="9.18145340315813"><ele>118.0</ele><time>2026-04-24T07:53:56.996Z</time></trkpt><trkpt lat="45.443839659002236" lon="9.181283114390025"><ele>118.0</ele><time>2026-04-24T07:53:57.996Z</time></trkpt><trkpt lat="45.443781880801474" lon="9.18111851531643"><ele>118.25</ele><time>2026-04-24T07:53:58.996Z</time></trkpt><trkpt lat="45.443732513876185" lon="9.180954953425099"><ele>118.5</ele><time>2026-04-24T07:53:59.996Z</time></trkpt><trkpt lat="45.44368606872336" lon="9.180790618157245"><ele>118.75</ele><time>2026-04-24T07:54:00.996Z</time></trkpt><trkpt lat="45.44364802981288" lon="9.180628944791883"><ele>119.0</ele><time>2026-04-24T07:54:01.996Z</time></trkpt><trkpt lat="45.44361165915864" lon="9.18047557527199"><ele>119.0</ele><time>2026-04-24T07:54:02.996Z</time></trkpt><trkpt lat="45.44358613586581" lon="9.180328081986978"><ele>119.0</ele><time>2026-04-24T07:54:03.996Z</time></trkpt><trkpt lat="45.44356800530674" lon="9.180180397786232"><ele>119.0</ele><time>2026-04-24T07:54:04.996Z</time></trkpt><trkpt lat="45.443551891954925" lon="9.18003552834603"><ele>119.0</ele><time>2026-04-24T07:54:05.996Z</time></trkpt><trkpt lat="45.44353854762633" lon="9.179879264997131"><ele>119.0</ele><time>2026-04-24T07:54:06.996Z</time></trkpt><trkpt lat="45.44353583096019" lon="9.179725814672423"><ele>118.80000000000001</ele><time>2026-04-24T07:54:07.996Z</time></trkpt><trkpt lat="45.443538918882226" lon="9.179578039066188"><ele>118.60000000000001</ele><time>2026-04-24T07:54:08.996Z</time></trkpt><trkpt lat="45.4435421749513" lon="9.17942560856126"><ele>118.4</ele><time>2026-04-24T07:54:09.996Z</time></trkpt><trkpt lat="45.44353958281005" lon="9.179267886702448"><ele>118.2</ele><time>2026-04-24T07:54:10.996Z</time></trkpt><trkpt lat="45.44354547440532" lon="9.179104212374678"><ele>118.0</ele><time>2026-04-24T07:54:11.996Z</time></trkpt><trkpt lat="45.44354955519055" lon="9.178943088060851"><ele>118.4</ele><time>2026-04-24T07:54:12.996Z</time></trkpt><trkpt lat="45.44355346853147" lon="9.17879343452656"><ele>118.80000000000001</ele><time>2026-04-24T07:54:13.996Z</time></trkpt><trkpt lat="45.443556137908594" lon="9.178646351364375"><ele>119.2</ele><time>2026-04-24T07:54:14.996Z</time></trkpt><trkpt lat="45.4435588083713" lon="9.178499515209516"><ele>119.6</ele><time>2026-04-24T07:54:15.996Z</time></trkpt><trkpt lat="45.44357169226963" lon="9.178351017543257"><ele>120.0</ele><time>2026-04-24T07:54:16.996Z</time></trkpt><trkpt lat="45.44357951335697" lon="9.178203748369711"><ele>120.4</ele><time>2026-04-24T07:54:17.996Z</time></trkpt><trkpt lat="45.443596565164945" lon="9.178053840453066"><ele>120.8</ele><time>2026-04-24T07:54:18.996Z</time></trkpt><trkpt lat="45.443603133446096" lon="9.177898476509863"><ele>121.19999999999999</ele><time>2026-04-24T07:54:19.996Z</time></trkpt><trkpt lat="45.443617591805484" lon="9.17774142393706"><ele>121.6</ele><time>2026-04-24T07:54:20.996Z</time></trkpt><trkpt lat="45.44363169460425" lon="9.177587739498556"><ele>122.0</ele><time>2026-04-24T07:54:21.996Z</time></trkpt><trkpt lat="45.4436423216742" lon="9.177431667642148"><ele>121.6</ele><time>2026-04-24T07:54:22.996Z</time></trkpt><trkpt lat="45.44364711796053" lon="9.177278690663632"><ele>121.19999999999999</ele><time>2026-04-24T07:54:23.996Z</time></trkpt><trkpt lat="45.44365484133105" lon="9.177128875905657"><ele>120.8</ele><time>2026-04-24T07:54:24.996Z</time></trkpt><trkpt lat="45.44366035496352" lon="9.176977957852019"><ele>120.4</ele><time>2026-04-24T07:54:25.996Z</time></trkpt><trkpt lat="45.443665171186424" lon="9.176831074229586"><ele>120.0</ele><time>2026-04-24T07:54:26.996Z</time></trkpt><trkpt lat="45.44367041403586" lon="9.176682163255915"><ele>120.0</ele><time>2026-04-24T07:54:27.996Z</time></trkpt><trkpt lat="45.443672002736115" lon="9.176533393239636"><ele>120.0</ele><time>2026-04-24T07:54:28.996Z</time></trkpt><trkpt lat="45.44367991611943" lon="9.176382949753021"><ele>120.0</ele><time>2026-04-24T07:54:29.996Z</time></trkpt><trkpt lat="45.44369024855372" lon="9.176233597830311"><ele>120.0</ele><time>2026-04-24T07:54:30.996Z</time></trkpt><trkpt lat="45.443702004749674" lon="9.176080943864436"><ele>120.0</ele><time>2026-04-24T07:54:31.996Z</time></trkpt><trkpt lat="45.443728110725154" lon="9.175932404245108"><ele>119.2</ele><time>2026-04-24T07:54:32.996Z</time></trkpt><trkpt lat="45.44371489135657" lon="9.175775909706925"><ele>118.4</ele><time>2026-04-24T07:54:33.996Z</time></trkpt><trkpt lat="45.44372153070239" lon="9.17562622408586"><ele>117.6</ele><time>2026-04-24T07:54:34.996Z</time></trkpt><trkpt lat="45.44372364724672" lon="9.175478859855753"><ele>116.8</ele><time>2026-04-24T07:54:35.996Z</time></trkpt><trkpt lat="45.44372789331313" lon="9.175331623288628"><ele>116.0</ele><time>2026-04-24T07:54:36.996Z</time></trkpt><trkpt lat="45.44373349802559" lon="9.1751989069785"><ele>115.99999999999999</ele><time>2026-04-24T07:54:37.996Z</time></trkpt><trkpt lat="45.443738005804164" lon="9.175076204912346"><ele>116.0</ele><time>2026-04-24T07:54:39Z</time></trkpt><trkpt lat="45.443740078615654" lon="9.174951488966762"><ele>116.0</ele><time>2026-04-24T07:54:40Z</time></trkpt><trkpt lat="45.4437467681453" lon="9.174827100088692"><ele>116.0</ele><time>2026-04-24T07:54:41Z</time></trkpt><trkpt lat="45.443752707651846" lon="9.174707941249187"><ele>115.99999999999999</ele><time>2026-04-24T07:54:42Z</time></trkpt><trkpt lat="45.44375513688163" lon="9.174594718229626"><ele>116.0</ele><time>2026-04-24T07:54:43Z</time></trkpt><trkpt lat="45.44375737460059" lon="9.174480220285618"><ele>115.99999999999999</ele><time>2026-04-24T07:54:44Z</time></trkpt><trkpt lat="45.44376260497481" lon="9.17435737578189"><ele>116.0</ele><time>2026-04-24T07:54:45Z</time></trkpt><trkpt lat="45.44377111481071" lon="9.17421746499715"><ele>116.0</ele><time>2026-04-24T07:54:46Z</time></trkpt><trkpt lat="45.443780655339346" lon="9.174095694103922"><ele>116.0</ele><time>2026-04-24T07:54:47Z</time></trkpt><trkpt lat="45.44379365915389" lon="9.173970387628287"><ele>115.99999999999999</ele><time>2026-04-24T07:54:48Z</time></trkpt><trkpt lat="45.44380261792528" lon="9.17384850064228"><ele>116.0</ele><time>2026-04-24T07:54:49Z</time></trkpt><trkpt lat="45.44381222038654" lon="9.173729540344976"><ele>115.99999999999999</ele><time>2026-04-24T07:54:50Z</time></trkpt><trkpt lat="45.443818138407146" lon="9.173618887663197"><ele>116.0</ele><time>2026-04-24T07:54:51Z</time></trkpt><trkpt lat="45.44383680125464" lon="9.173523520809173"><ele>116.0</ele><time>2026-04-24T07:54:52Z</time></trkpt><trkpt lat="45.443878581796305" lon="9.17336408713294"><ele>116.0</ele><time>2026-04-24T07:54:54Z</time></trkpt><trkpt lat="45.443906044281185" lon="9.173274850108843"><ele>115.99999999999999</ele><time>2026-04-24T07:54:55Z</time></trkpt><trkpt lat="45.443919731296106" lon="9.173170735383964"><ele>116.0</ele><time>2026-04-24T07:54:56Z</time></trkpt><trkpt lat="45.44392717314176" lon="9.173068917781022"><ele>116.19999999999999</ele><time>2026-04-24T07:54:57Z</time></trkpt><trkpt lat="45.44393721914019" lon="9.172966941762455"><ele>116.39999999999999</ele><time>2026-04-24T07:54:58Z</time></trkpt><trkpt lat="45.443928902548826" lon="9.17283236074494"><ele>116.6</ele><time>2026-04-24T07:55:00Z</time></trkpt><trkpt lat="45.44395860912366" lon="9.172734876743757"><ele>116.8</ele><time>2026-04-24T07:55:04Z</time></trkpt><trkpt lat="45.443900176829665" lon="9.172466251445227"><ele>117.0</ele><time>2026-04-24T07:55:31Z</time></trkpt><trkpt lat="45.44383064038104" lon="9.172427330765874"><ele>116.66666666666667</ele><time>2026-04-24T07:55:33Z</time></trkpt><trkpt lat="45.44376500926002" lon="9.172442247141918"><ele>116.33333333333334</ele><time>2026-04-24T07:55:34Z</time></trkpt><trkpt lat="45.44369433799596" lon="9.172474504472799"><ele>116.0</ele><time>2026-04-24T07:55:35Z</time></trkpt><trkpt lat="45.44361348467914" lon="9.172508005498663"><ele>115.66666666666667</ele><time>2026-04-24T07:55:36Z</time></trkpt><trkpt lat="45.443530880012396" lon="9.172548031560138"><ele>115.33333333333334</ele><time>2026-04-24T07:55:37Z</time></trkpt><trkpt lat="45.443438800671125" lon="9.172587481652995"><ele>115.0</ele><time>2026-04-24T07:55:38Z</time></trkpt><trkpt lat="45.443341952394256" lon="9.172600204060105"><ele>115.0</ele><time>2026-04-24T07:55:39Z</time></trkpt><trkpt lat="45.443232170306565" lon="9.172600819913638"><ele>115.0</ele><time>2026-04-24T07:55:40Z</time></trkpt><trkpt lat="45.443115512872104" lon="9.172600168807575"><ele>115.0</ele><time>2026-04-24T07:55:41Z</time></trkpt><trkpt lat="45.44299022289472" lon="9.172599202554276"><ele>115.0</ele><time>2026-04-24T07:55:42Z</time></trkpt><trkpt lat="45.44286580733474" lon="9.17259934919795"><ele>115.0</ele><time>2026-04-24T07:55:43Z</time></trkpt><trkpt lat="45.44273798043179" lon="9.172585636715883"><ele>115.0</ele><time>2026-04-24T07:55:44Z</time></trkpt><trkpt lat="45.44261382457861" lon="9.172585206493345"><ele>115.0</ele><time>2026-04-24T07:55:45Z</time></trkpt><trkpt lat="45.44249047728169" lon="9.17258141314955"><ele>115.0</ele><time>2026-04-24T07:55:46Z</time></trkpt><trkpt lat="45.44237079636602" lon="9.172579691801538"><ele>115.0</ele><time>2026-04-24T07:55:47Z</time></trkpt><trkpt lat="45.4422648087051" lon="9.17257003532058"><ele>115.0</ele><time>2026-04-24T07:55:48Z</time></trkpt><trkpt lat="45.442178045792474" lon="9.172560504679092"><ele>115.0</ele><time>2026-04-24T07:55:49Z</time></trkpt><trkpt lat="45.442098668197346" lon="9.172548978784521"><ele>115.0</ele><time>2026-04-24T07:55:50Z</time></trkpt><trkpt lat="45.442009918142915" lon="9.172545135019265"><ele>115.0</ele><time>2026-04-24T07:55:51Z</time></trkpt><trkpt lat="45.44191609268316" lon="9.172545388358772"><ele>114.8</ele><time>2026-04-24T07:55:52Z</time></trkpt><trkpt lat="45.441816315468756" lon="9.172536528544322"><ele>114.6</ele><time>2026-04-24T07:55:53Z</time></trkpt><trkpt lat="45.441715355261984" lon="9.17252632623266"><ele>114.4</ele><time>2026-04-24T07:55:54Z</time></trkpt><trkpt lat="45.44161479999398" lon="9.17251179250673"><ele>114.2</ele><time>2026-04-24T07:55:55Z</time></trkpt><trkpt lat="45.44151701679307" lon="9.172500156262412"><ele>114.0</ele><time>2026-04-24T07:55:56Z</time></trkpt><trkpt lat="45.44143114132973" lon="9.17249820934232"><ele>114.0</ele><time>2026-04-24T07:55:57Z</time></trkpt><trkpt lat="45.44135545227665" lon="9.172502226050357"><ele>114.0</ele><time>2026-04-24T07:55:58Z</time></trkpt><trkpt lat="45.4412832181951" lon="9.172491993843572"><ele>114.0</ele><time>2026-04-24T07:55:59Z</time></trkpt><trkpt lat="45.44117567717242" lon="9.172462450740987"><ele>114.0</ele><time>2026-04-24T07:56:01Z</time></trkpt><trkpt lat="45.44109017994391" lon="9.172456760003287"><ele>114.0</ele><time>2026-04-24T07:56:03Z</time></trkpt><trkpt lat="45.44102074488001" lon="9.172458245561485"><ele>114.0</ele><time>2026-04-24T07:56:05Z</time></trkpt><trkpt lat="45.4409395688101" lon="9.172448296952288"><ele>114.0</ele><time>2026-04-24T07:56:09Z</time></trkpt><trkpt lat="45.44087506462557" lon="9.172493810193652"><ele>114.0</ele><time>2026-04-24T07:56:19.999Z</time></trkpt><trkpt lat="45.44073267616738" lon="9.172496847168242"><ele>114.0</ele><time>2026-04-24T07:56:21.999Z</time></trkpt><trkpt lat="45.440632245312784" lon="9.172505867677746"><ele>114.0</ele><time>2026-04-24T07:56:22.999Z</time></trkpt><trkpt lat="45.44051940555805" lon="9.172507791782543"><ele>114.0</ele><time>2026-04-24T07:56:23.999Z</time></trkpt><trkpt lat="45.44039754206572" lon="9.172504541345587"><ele>114.75</ele><time>2026-04-24T07:56:24.999Z</time></trkpt><trkpt lat="45.44027726682216" lon="9.172427724331111"><ele>115.5</ele><time>2026-04-24T07:56:25.999Z</time></trkpt><trkpt lat="45.44014885634148" lon="9.172404691085378"><ele>116.25</ele><time>2026-04-24T07:56:26.999Z</time></trkpt><trkpt lat="45.44001435298074" lon="9.172365363338757"><ele>117.0</ele><time>2026-04-24T07:56:27.999Z</time></trkpt><trkpt lat="45.439883037555056" lon="9.172312145725318"><ele>117.5</ele><time>2026-04-24T07:56:28.999Z</time></trkpt><trkpt lat="45.43974928109058" lon="9.172266005752817"><ele>118.0</ele><time>2026-04-24T07:56:29.999Z</time></trkpt><trkpt lat="45.43961672731078" lon="9.172199898132254"><ele>118.5</ele><time>2026-04-24T07:56:30.999Z</time></trkpt><trkpt lat="45.43947924959736" lon="9.172125373842793"><ele>119.0</ele><time>2026-04-24T07:56:31.999Z</time></trkpt><trkpt lat="45.43934079723796" lon="9.172034404971868"><ele>117.66666666666666</ele><time>2026-04-24T07:56:32.999Z</time></trkpt><trkpt lat="45.4392011123164" lon="9.171936193585475"><ele>116.33333333333334</ele><time>2026-04-24T07:56:33.999Z</time></trkpt><trkpt lat="45.439057430139535" lon="9.171839758685605"><ele>115.0</ele><time>2026-04-24T07:56:34.999Z</time></trkpt><trkpt lat="45.43891657274251" lon="9.1717520279145"><ele>115.0</ele><time>2026-04-24T07:56:35.999Z</time></trkpt><trkpt lat="45.4387737193896" lon="9.171661184028418"><ele>115.0</ele><time>2026-04-24T07:56:36.999Z</time></trkpt><trkpt lat="45.43863959370774" lon="9.171570516139663"><ele>115.0</ele><time>2026-04-24T07:56:37.999Z</time></trkpt><trkpt lat="45.4385164057528" lon="9.171490814700897"><ele>115.0</ele><time>2026-04-24T07:56:38.999Z</time></trkpt><trkpt lat="45.438410076052236" lon="9.1714287615941"><ele>114.8</ele><time>2026-04-24T07:56:39.999Z</time></trkpt><trkpt lat="45.43832971253321" lon="9.171377460298078"><ele>114.6</ele><time>2026-04-24T07:56:40.999Z</time></trkpt><trkpt lat="45.43823059423535" lon="9.171312151111481"><ele>114.4</ele><time>2026-04-24T07:56:42.999Z</time></trkpt><trkpt lat="45.43817012923719" lon="9.171272657070821"><ele>114.2</ele><time>2026-04-24T07:56:44.999Z</time></trkpt><trkpt lat="45.43809463701843" lon="9.171254063968199"><ele>114.0</ele><time>2026-04-24T07:56:52.999Z</time></trkpt><trkpt lat="45.43802047792494" lon="9.17111864297482"><ele>114.0</ele><time>2026-04-24T07:56:55.999Z</time></trkpt><trkpt lat="45.43798444022507" lon="9.171036033869669"><ele>114.0</ele><time>2026-04-24T07:56:56.999Z</time></trkpt><trkpt lat="45.43794425309016" lon="9.17095763141956"><ele>114.0</ele><time>2026-04-24T07:56:57.999Z</time></trkpt><trkpt lat="45.4378934018756" lon="9.170889921095775"><ele>114.0</ele><time>2026-04-24T07:56:58.999Z</time></trkpt><trkpt lat="45.437829874091726" lon="9.170838889930293"><ele>114.0</ele><time>2026-04-24T07:56:59.999Z</time></trkpt><trkpt lat="45.437744891873656" lon="9.170806447915307"><ele>114.0</ele><time>2026-04-24T07:57:00.999Z</time></trkpt><trkpt lat="45.43765164994875" lon="9.170843120979788"><ele>114.4</ele><time>2026-04-24T07:57:01.999Z</time></trkpt><trkpt lat="45.43756425704173" lon="9.17086354296993"><ele>114.80000000000001</ele><time>2026-04-24T07:57:02.999Z</time></trkpt><trkpt lat="45.437465354167465" lon="9.17088472407185"><ele>115.19999999999999</ele><time>2026-04-24T07:57:03.999Z</time></trkpt><trkpt lat="45.437349701358976" lon="9.170857206999239"><ele>115.6</ele><time>2026-04-24T07:57:04.999Z</time></trkpt><trkpt lat="45.43722225320533" lon="9.170863164269743"><ele>116.0</ele><time>2026-04-24T07:57:05.999Z</time></trkpt><trkpt lat="45.437083192278266" lon="9.170812717379743"><ele>116.0</ele><time>2026-04-24T07:57:06.999Z</time></trkpt><trkpt lat="45.43693316741426" lon="9.17074773095887"><ele>116.0</ele><time>2026-04-24T07:57:07.999Z</time></trkpt><trkpt lat="45.43677717800729" lon="9.170650060361755"><ele>116.0</ele><time>2026-04-24T07:57:08.999Z</time></trkpt><trkpt lat="45.4366040668676" lon="9.170565591724174"><ele>116.0</ele><time>2026-04-24T07:57:09.999Z</time></trkpt><trkpt lat="45.43639047246837" lon="9.170468535551832"><ele>116.0</ele><time>2026-04-24T07:57:10.999Z</time></trkpt><trkpt lat="45.43616965533662" lon="9.170354170956635"><ele>115.5</ele><time>2026-04-24T07:57:11.999Z</time></trkpt><trkpt lat="45.435952562109755" lon="9.170226807081411"><ele>115.0</ele><time>2026-04-24T07:57:12.999Z</time></trkpt><trkpt lat="45.435720089183796" lon="9.170126336676546"><ele>115.0</ele><time>2026-04-24T07:57:13.999Z</time></trkpt><trkpt lat="45.435506275756694" lon="9.170048697512918"><ele>115.0</ele><time>2026-04-24T07:57:14.999Z</time></trkpt><trkpt lat="45.435290617802195" lon="9.16994822855712"><ele>115.0</ele><time>2026-04-24T07:57:15.999Z</time></trkpt><trkpt lat="45.43510620749128" lon="9.16982669065771"><ele>113.5</ele><time>2026-04-24T07:57:16.999Z</time></trkpt><trkpt lat="45.43488587141389" lon="9.1697063939955"><ele>112.0</ele><time>2026-04-24T07:57:17.999Z</time></trkpt><trkpt lat="45.4346600978085" lon="9.169558386788857"><ele>113.0</ele><time>2026-04-24T07:57:18.999Z</time></trkpt><trkpt lat="45.43443029237248" lon="9.169388815961115"><ele>114.0</ele><time>2026-04-24T07:57:19.999Z</time></trkpt><trkpt lat="45.43420768844672" lon="9.169162474629344"><ele>113.5</ele><time>2026-04-24T07:57:20.999Z</time></trkpt><trkpt lat="45.43399126430517" lon="9.168985728246703"><ele>113.0</ele><time>2026-04-24T07:57:21.999Z</time></trkpt><trkpt lat="45.433770061559805" lon="9.168722964794615"><ele>113.0</ele><time>2026-04-24T07:57:22.999Z</time></trkpt><trkpt lat="45.43355685846548" lon="9.168529793435928"><ele>113.0</ele><time>2026-04-24T07:57:23.999Z</time></trkpt><trkpt lat="45.43335412659926" lon="9.16834457878431"><ele>112.0</ele><time>2026-04-24T07:57:24.999Z</time></trkpt><trkpt lat="45.4331590762281" lon="9.168139272527132"><ele>111.0</ele><time>2026-04-24T07:57:25.999Z</time></trkpt><trkpt lat="45.43297558776131" lon="9.167929329225124"><ele>112.5</ele><time>2026-04-24T07:57:26.999Z</time></trkpt><trkpt lat="45.43279001783255" lon="9.167704914512582"><ele>114.0</ele><time>2026-04-24T07:57:27.999Z</time></trkpt><trkpt lat="45.432591897487576" lon="9.167515598389205"><ele>113.0</ele><time>2026-04-24T07:57:28.999Z</time></trkpt><trkpt lat="45.43241992163195" lon="9.16728394837716"><ele>112.0</ele><time>2026-04-24T07:57:29.999Z</time></trkpt><trkpt lat="45.432237370293564" lon="9.167060405453617"><ele>111.0</ele><time>2026-04-24T07:57:30.999Z</time></trkpt><trkpt lat="45.43202232161696" lon="9.166839059117072"><ele>110.0</ele><time>2026-04-24T07:57:31.999Z</time></trkpt><trkpt lat="45.431845734990475" lon="9.166522277521427"><ele>109.5</ele><time>2026-04-24T07:57:32.999Z</time></trkpt><trkpt lat="45.43163713968674" lon="9.166263177999506"><ele>109.0</ele><time>2026-04-24T07:57:33.999Z</time></trkpt><trkpt lat="45.43144812431781" lon="9.166003853593692"><ele>109.0</ele><time>2026-04-24T07:57:34.999Z</time></trkpt><trkpt lat="45.43126749777275" lon="9.165809542479506"><ele>109.0</ele><time>2026-04-24T07:57:35.999Z</time></trkpt><trkpt lat="45.43110094147218" lon="9.165579954348694"><ele>111.0</ele><time>2026-04-24T07:57:36.999Z</time></trkpt><trkpt lat="45.43093834871066" lon="9.165331992408836"><ele>113.0</ele><time>2026-04-24T07:57:37.999Z</time></trkpt><trkpt lat="45.43077149742689" lon="9.165118152085538"><ele>113.0</ele><time>2026-04-24T07:57:38.999Z</time></trkpt><trkpt lat="45.43060207902136" lon="9.164910658395366"><ele>113.0</ele><time>2026-04-24T07:57:39.999Z</time></trkpt><trkpt lat="45.43045315741602" lon="9.164685873775996"><ele>113.0</ele><time>2026-04-24T07:57:40.999Z</time></trkpt><trkpt lat="45.43029759833561" lon="9.164507307734244"><ele>113.0</ele><time>2026-04-24T07:57:41.999Z</time></trkpt><trkpt lat="45.43011126247749" lon="9.164329609857726"><ele>113.0</ele><time>2026-04-24T07:57:42.999Z</time></trkpt><trkpt lat="45.42993400088113" lon="9.164159411354904"><ele>113.0</ele><time>2026-04-24T07:57:43.999Z</time></trkpt><trkpt lat="45.429746694780356" lon="9.163955375152304"><ele>111.0</ele><time>2026-04-24T07:57:44.998Z</time></trkpt><trkpt lat="45.42955422060823" lon="9.163719673760054"><ele>109.0</ele><time>2026-04-24T07:57:45.998Z</time></trkpt><trkpt lat="45.42935265145886" lon="9.16351471463115"><ele>109.0</ele><time>2026-04-24T07:57:46.998Z</time></trkpt><trkpt lat="45.429128569624844" lon="9.16331425874224"><ele>109.0</ele><time>2026-04-24T07:57:47.998Z</time></trkpt><trkpt lat="45.4289125193709" lon="9.163121562335283"><ele>108.5</ele><time>2026-04-24T07:57:48.998Z</time></trkpt><trkpt lat="45.428698920637984" lon="9.162926776866035"><ele>108.0</ele><time>2026-04-24T07:57:49.998Z</time></trkpt><trkpt lat="45.428450389000744" lon="9.16271733729696"><ele>108.0</ele><time>2026-04-24T07:57:50.998Z</time></trkpt><trkpt lat="45.42821286528364" lon="9.162527899140715"><ele>108.0</ele><time>2026-04-24T07:57:51.998Z</time></trkpt><trkpt lat="45.427969314113156" lon="9.16235048312129"><ele>109.0</ele><time>2026-04-24T07:57:52.998Z</time></trkpt><trkpt lat="45.42771465507602" lon="9.162209809351085"><ele>110.0</ele><time>2026-04-24T07:57:53.998Z</time></trkpt><trkpt lat="45.42746769996407" lon="9.162062492603743"><ele>110.0</ele><time>2026-04-24T07:57:54.998Z</time></trkpt><trkpt lat="45.42721145451328" lon="9.161880676634663"><ele>110.0</ele><time>2026-04-24T07:57:55.998Z</time></trkpt><trkpt lat="45.426960935118615" lon="9.161720541902538"><ele>110.0</ele><time>2026-04-24T07:57:56.998Z</time></trkpt><trkpt lat="45.426703804487225" lon="9.161586999072442"><ele>110.0</ele><time>2026-04-24T07:57:57.998Z</time></trkpt><trkpt lat="45.42644611746802" lon="9.161436924414756"><ele>109.5</ele><time>2026-04-24T07:57:58.998Z</time></trkpt><trkpt lat="45.42620031107443" lon="9.16129545120058"><ele>109.0</ele><time>2026-04-24T07:57:59.998Z</time></trkpt><trkpt lat="45.42595300546897" lon="9.161218507055155"><ele>109.0</ele><time>2026-04-24T07:58:00.998Z</time></trkpt><trkpt lat="45.42571091771881" lon="9.161035192866155"><ele>109.0</ele><time>2026-04-24T07:58:01.998Z</time></trkpt><trkpt lat="45.42543552834075" lon="9.160847254080108"><ele>108.5</ele><time>2026-04-24T07:58:02.998Z</time></trkpt><trkpt lat="45.425181715072746" lon="9.160738846021964"><ele>108.0</ele><time>2026-04-24T07:58:03.998Z</time></trkpt><trkpt lat="45.42494340105525" lon="9.160536616565931"><ele>107.5</ele><time>2026-04-24T07:58:04.998Z</time></trkpt><trkpt lat="45.42469014084909" lon="9.160400378949461"><ele>107.0</ele><time>2026-04-24T07:58:05.998Z</time></trkpt><trkpt lat="45.42443316262711" lon="9.16032567686086"><ele>105.5</ele><time>2026-04-24T07:58:06.998Z</time></trkpt><trkpt lat="45.42417267446974" lon="9.160168014341606"><ele>104.0</ele><time>2026-04-24T07:58:07.998Z</time></trkpt><trkpt lat="45.42392249243992" lon="9.159972790183351"><ele>106.0</ele><time>2026-04-24T07:58:08.998Z</time></trkpt><trkpt lat="45.423680417884825" lon="9.15984643828328"><ele>108.0</ele><time>2026-04-24T07:58:09.998Z</time></trkpt><trkpt lat="45.42342752963311" lon="9.159660579472904"><ele>108.0</ele><time>2026-04-24T07:58:10.998Z</time></trkpt><trkpt lat="45.423146360066085" lon="9.159566901483439"><ele>108.0</ele><time>2026-04-24T07:58:11.998Z</time></trkpt><trkpt lat="45.42290330554741" lon="9.15942888713886"><ele>108.0</ele><time>2026-04-24T07:58:12.998Z</time></trkpt><trkpt lat="45.42265755149014" lon="9.159304402550738"><ele>108.0</ele><time>2026-04-24T07:58:13.998Z</time></trkpt><trkpt lat="45.42243152512146" lon="9.159136059310763"><ele>108.5</ele><time>2026-04-24T07:58:14.998Z</time></trkpt><trkpt lat="45.42219768475585" lon="9.158973043825469"><ele>109.0</ele><time>2026-04-24T07:58:15.998Z</time></trkpt><trkpt lat="45.42199148371321" lon="9.158772499095958"><ele>109.0</ele><time>2026-04-24T07:58:16.998Z</time></trkpt><trkpt lat="45.421740829894226" lon="9.158653639720969"><ele>109.0</ele><time>2026-04-24T07:58:17.998Z</time></trkpt><trkpt lat="45.4215288838399" lon="9.158353415670344"><ele>110.5</ele><time>2026-04-24T07:58:18.998Z</time></trkpt><trkpt lat="45.421300611849574" lon="9.158154181847648"><ele>112.0</ele><time>2026-04-24T07:58:19.998Z</time></trkpt><trkpt lat="45.421102475362474" lon="9.157883602288242"><ele>112.0</ele><time>2026-04-24T07:58:20.998Z</time></trkpt><trkpt lat="45.4208867607004" lon="9.157665896171668"><ele>112.0</ele><time>2026-04-24T07:58:21.998Z</time></trkpt><trkpt lat="45.420679884529314" lon="9.157452207019452"><ele>111.0</ele><time>2026-04-24T07:58:22.998Z</time></trkpt><trkpt lat="45.42048739084481" lon="9.157244201435164"><ele>110.0</ele><time>2026-04-24T07:58:23.998Z</time></trkpt><trkpt lat="45.42029488559567" lon="9.157037801779142"><ele>109.0</ele><time>2026-04-24T07:58:24.998Z</time></trkpt><trkpt lat="45.42010695716762" lon="9.156855673517507"><ele>108.0</ele><time>2026-04-24T07:58:25.998Z</time></trkpt><trkpt lat="45.419921883618066" lon="9.156663713572762"><ele>108.0</ele><time>2026-04-24T07:58:26.998Z</time></trkpt><trkpt lat="45.41973084392023" lon="9.156446795741264"><ele>108.0</ele><time>2026-04-24T07:58:27.998Z</time></trkpt><trkpt lat="45.41953958555215" lon="9.156271851465284"><ele>108.0</ele><time>2026-04-24T07:58:28.998Z</time></trkpt><trkpt lat="45.41933472388209" lon="9.156121951421095"><ele>108.0</ele><time>2026-04-24T07:58:29.998Z</time></trkpt><trkpt lat="45.4191501309058" lon="9.155936671344781"><ele>108.0</ele><time>2026-04-24T07:58:30.998Z</time></trkpt><trkpt lat="45.418972570000506" lon="9.155773332371883"><ele>108.0</ele><time>2026-04-24T07:58:31.998Z</time></trkpt><trkpt lat="45.41878840230551" lon="9.155606025214782"><ele>108.0</ele><time>2026-04-24T07:58:32.998Z</time></trkpt><trkpt lat="45.4186044797038" lon="9.155408174521382"><ele>108.0</ele><time>2026-04-24T07:58:33.998Z</time></trkpt><trkpt lat="45.41839797958743" lon="9.155230703312403"><ele>108.0</ele><time>2026-04-24T07:58:34.998Z</time></trkpt><trkpt lat="45.41819992615813" lon="9.155059441695089"><ele>108.66666666666666</ele><time>2026-04-24T07:58:35.998Z</time></trkpt><trkpt lat="45.4180359488707" lon="9.15485193702982"><ele>109.33333333333333</ele><time>2026-04-24T07:58:36.998Z</time></trkpt><trkpt lat="45.41785782061912" lon="9.154663683779287"><ele>110.0</ele><time>2026-04-24T07:58:37.998Z</time></trkpt><trkpt lat="45.41768065717417" lon="9.154498471631644"><ele>109.0</ele><time>2026-04-24T07:58:38.998Z</time></trkpt><trkpt lat="45.41749074008133" lon="9.154338222261984"><ele>108.0</ele><time>2026-04-24T07:58:39.998Z</time></trkpt><trkpt lat="45.417317301828426" lon="9.154151669236253"><ele>107.0</ele><time>2026-04-24T07:58:40.998Z</time></trkpt><trkpt lat="45.4171242241324" lon="9.15394051328619"><ele>107.0</ele><time>2026-04-24T07:58:41.998Z</time></trkpt><trkpt lat="45.41692850899678" lon="9.153748161275336"><ele>107.0</ele><time>2026-04-24T07:58:42.998Z</time></trkpt><trkpt lat="45.41674639366583" lon="9.153568961116584"><ele>107.0</ele><time>2026-04-24T07:58:43.998Z</time></trkpt><trkpt lat="45.41653596728357" lon="9.153433563731836"><ele>107.0</ele><time>2026-04-24T07:58:44.998Z</time></trkpt><trkpt lat="45.416342505781486" lon="9.153312603223968"><ele>107.0</ele><time>2026-04-24T07:58:45.998Z</time></trkpt><trkpt lat="45.41614872878102" lon="9.15320697983679"><ele>106.66666666666666</ele><time>2026-04-24T07:58:46.998Z</time></trkpt><trkpt lat="45.41597592368292" lon="9.153039453784817"><ele>106.33333333333334</ele><time>2026-04-24T07:58:47.998Z</time></trkpt><trkpt lat="45.41577524863057" lon="9.152967518833908"><ele>106.0</ele><time>2026-04-24T07:58:48.998Z</time></trkpt><trkpt lat="45.415568527964076" lon="9.152798986671776"><ele>106.33333333333334</ele><time>2026-04-24T07:58:49.998Z</time></trkpt><trkpt lat="45.41536658979429" lon="9.152668232955575"><ele>106.66666666666666</ele><time>2026-04-24T07:58:50.998Z</time></trkpt><trkpt lat="45.41515487106575" lon="9.152567431648661"><ele>107.0</ele><time>2026-04-24T07:58:51.998Z</time></trkpt><trkpt lat="45.41495381260834" lon="9.152446756411775"><ele>107.0</ele><time>2026-04-24T07:58:52.998Z</time></trkpt><trkpt lat="45.41472729405712" lon="9.152301254034835"><ele>107.0</ele><time>2026-04-24T07:58:53.998Z</time></trkpt><trkpt lat="45.414501394095275" lon="9.152228055987528"><ele>106.33333333333333</ele><time>2026-04-24T07:58:54.998Z</time></trkpt><trkpt lat="45.414318462379036" lon="9.152093689999592"><ele>105.66666666666666</ele><time>2026-04-24T07:58:55.998Z</time></trkpt><trkpt lat="45.414097616960795" lon="9.152027018377096"><ele>105.0</ele><time>2026-04-24T07:58:56.998Z</time></trkpt><trkpt lat="45.4138873998371" lon="9.151876358184303"><ele>106.0</ele><time>2026-04-24T07:58:57.998Z</time></trkpt><trkpt lat="45.4136883024371" lon="9.151720310114515"><ele>107.0</ele><time>2026-04-24T07:58:58.998Z</time></trkpt><trkpt lat="45.413476552758276" lon="9.15160802697468"><ele>107.33333333333333</ele><time>2026-04-24T07:58:59.998Z</time></trkpt><trkpt lat="45.41327625899639" lon="9.151505866209686"><ele>107.66666666666666</ele><time>2026-04-24T07:59:00.998Z</time></trkpt><trkpt lat="45.41307311190427" lon="9.151381626756256"><ele>108.0</ele><time>2026-04-24T07:59:01.998Z</time></trkpt><trkpt lat="45.41284409545147" lon="9.151287358834997"><ele>108.5</ele><time>2026-04-24T07:59:02.998Z</time></trkpt><trkpt lat="45.4126198255687" lon="9.151162224130378"><ele>109.0</ele><time>2026-04-24T07:59:03.998Z</time></trkpt><trkpt lat="45.41240147255719" lon="9.150985410682013"><ele>109.0</ele><time>2026-04-24T07:59:04.998Z</time></trkpt><trkpt lat="45.41217769883001" lon="9.150825963191762"><ele>109.0</ele><time>2026-04-24T07:59:05.998Z</time></trkpt><trkpt lat="45.41195504252108" lon="9.15069497101266"><ele>109.0</ele><time>2026-04-24T07:59:06.998Z</time></trkpt><trkpt lat="45.41173333944897" lon="9.150598439441687"><ele>109.0</ele><time>2026-04-24T07:59:07.998Z</time></trkpt><trkpt lat="45.41151229222175" lon="9.150463280125152"><ele>109.0</ele><time>2026-04-24T07:59:08.998Z</time></trkpt><trkpt lat="45.411294164876786" lon="9.150312166536974"><ele>109.0</ele><time>2026-04-24T07:59:09.998Z</time></trkpt><trkpt lat="45.411072745013" lon="9.150198561373816"><ele>109.0</ele><time>2026-04-24T07:59:10.998Z</time></trkpt><trkpt lat="45.41083426650913" lon="9.150108104590894"><ele>109.0</ele><time>2026-04-24T07:59:11.997Z</time></trkpt><trkpt lat="45.410625005537426" lon="9.150008777413223"><ele>108.5</ele><time>2026-04-24T07:59:12.997Z</time></trkpt><trkpt lat="45.41041449242479" lon="9.149896997964907"><ele>108.0</ele><time>2026-04-24T07:59:13.997Z</time></trkpt><trkpt lat="45.41021090558647" lon="9.149724225527363"><ele>108.0</ele><time>2026-04-24T07:59:14.997Z</time></trkpt><trkpt lat="45.40999387125256" lon="9.14960386945326"><ele>108.0</ele><time>2026-04-24T07:59:15.997Z</time></trkpt><trkpt lat="45.40977425081742" lon="9.149462421022033"><ele>108.5</ele><time>2026-04-24T07:59:16.997Z</time></trkpt><trkpt lat="45.409558025839175" lon="9.149315420491106"><ele>109.0</ele><time>2026-04-24T07:59:17.997Z</time></trkpt><trkpt lat="45.409326160958216" lon="9.149206445387515"><ele>109.0</ele><time>2026-04-24T07:59:18.997Z</time></trkpt><trkpt lat="45.40913521515952" lon="9.149052370370605"><ele>109.0</ele><time>2026-04-24T07:59:19.997Z</time></trkpt><trkpt lat="45.40893169704086" lon="9.148950133890944"><ele>109.0</ele><time>2026-04-24T07:59:20.997Z</time></trkpt><trkpt lat="45.408724739388155" lon="9.148829682234263"><ele>108.33333333333334</ele><time>2026-04-24T07:59:21.997Z</time></trkpt><trkpt lat="45.408522640557386" lon="9.148684274303262"><ele>107.66666666666666</ele><time>2026-04-24T07:59:22.997Z</time></trkpt><trkpt lat="45.40832080529759" lon="9.148556648980605"><ele>107.0</ele><time>2026-04-24T07:59:23.997Z</time></trkpt><trkpt lat="45.40810525164623" lon="9.148444303350836"><ele>107.0</ele><time>2026-04-24T07:59:24.997Z</time></trkpt><trkpt lat="45.40790181599965" lon="9.148342550497015"><ele>107.0</ele><time>2026-04-24T07:59:25.997Z</time></trkpt><trkpt lat="45.40770600510281" lon="9.148229864755173"><ele>107.0</ele><time>2026-04-24T07:59:26.997Z</time></trkpt><trkpt lat="45.40749696676687" lon="9.14811047651742"><ele>107.0</ele><time>2026-04-24T07:59:27.997Z</time></trkpt><trkpt lat="45.40726867136612" lon="9.148043971752289"><ele>107.0</ele><time>2026-04-24T07:59:28.997Z</time></trkpt><trkpt lat="45.407059490038066" lon="9.147909988054195"><ele>107.0</ele><time>2026-04-24T07:59:29.997Z</time></trkpt><trkpt lat="45.40684549657623" lon="9.147756887299888"><ele>107.0</ele><time>2026-04-24T07:59:30.997Z</time></trkpt><trkpt lat="45.40663449190114" lon="9.147611529351197"><ele>107.0</ele><time>2026-04-24T07:59:31.997Z</time></trkpt><trkpt lat="45.40642105202759" lon="9.147491915058868"><ele>107.0</ele><time>2026-04-24T07:59:32.997Z</time></trkpt><trkpt lat="45.406208351136975" lon="9.147370889400765"><ele>107.5</ele><time>2026-04-24T07:59:33.997Z</time></trkpt><trkpt lat="45.40600265210438" lon="9.147252226727003"><ele>108.0</ele><time>2026-04-24T07:59:34.997Z</time></trkpt><trkpt lat="45.40577617243242" lon="9.14712635482065"><ele>108.0</ele><time>2026-04-24T07:59:35.997Z</time></trkpt><trkpt lat="45.40555563484887" lon="9.147028995611532"><ele>108.0</ele><time>2026-04-24T07:59:36.997Z</time></trkpt><trkpt lat="45.4053520319894" lon="9.146868763614666"><ele>106.5</ele><time>2026-04-24T07:59:37.997Z</time></trkpt><trkpt lat="45.40512716140307" lon="9.146750025217045"><ele>105.0</ele><time>2026-04-24T07:59:38.997Z</time></trkpt><trkpt lat="45.40491639535572" lon="9.146625111519784"><ele>104.5</ele><time>2026-04-24T07:59:39.997Z</time></trkpt><trkpt lat="45.404678990265815" lon="9.146516228509707"><ele>104.0</ele><time>2026-04-24T07:59:40.997Z</time></trkpt><trkpt lat="45.404477341542034" lon="9.14636649354396"><ele>105.5</ele><time>2026-04-24T07:59:41.997Z</time></trkpt><trkpt lat="45.40426658386104" lon="9.146250596733324"><ele>107.0</ele><time>2026-04-24T07:59:42.997Z</time></trkpt><trkpt lat="45.4040385321413" lon="9.14614906504254"><ele>107.5</ele><time>2026-04-24T07:59:43.997Z</time></trkpt><trkpt lat="45.40381447463328" lon="9.146034378666135"><ele>108.0</ele><time>2026-04-24T07:59:44.997Z</time></trkpt><trkpt lat="45.403595923118225" lon="9.145902543999926"><ele>108.0</ele><time>2026-04-24T07:59:45.997Z</time></trkpt><trkpt lat="45.403384284708984" lon="9.145721472438495"><ele>108.0</ele><time>2026-04-24T07:59:46.997Z</time></trkpt><trkpt lat="45.403161666970114" lon="9.145563080542585"><ele>107.0</ele><time>2026-04-24T07:59:47.997Z</time></trkpt><trkpt lat="45.4029492537598" lon="9.145410048501857"><ele>106.0</ele><time>2026-04-24T07:59:48.997Z</time></trkpt><trkpt lat="45.4027202000889" lon="9.14527354112975"><ele>106.0</ele><time>2026-04-24T07:59:49.997Z</time></trkpt><trkpt lat="45.402495565576956" lon="9.145155553584663"><ele>106.0</ele><time>2026-04-24T07:59:50.997Z</time></trkpt><trkpt lat="45.402291664343004" lon="9.145045885438526"><ele>106.0</ele><time>2026-04-24T07:59:51.997Z</time></trkpt><trkpt lat="45.40209834632207" lon="9.144924155005752"><ele>106.0</ele><time>2026-04-24T07:59:52.997Z</time></trkpt><trkpt lat="45.401885181034004" lon="9.144817383936603"><ele>106.0</ele><time>2026-04-24T07:59:53.997Z</time></trkpt><trkpt lat="45.4016750171722" lon="9.144717281282364"><ele>106.0</ele><time>2026-04-24T07:59:54.997Z</time></trkpt><trkpt lat="45.40147168597691" lon="9.144598301036151"><ele>106.0</ele><time>2026-04-24T07:59:55.997Z</time></trkpt><trkpt lat="45.40126837365875" lon="9.144474410060766"><ele>106.0</ele><time>2026-04-24T07:59:56.997Z</time></trkpt><trkpt lat="45.40104542169168" lon="9.144386695035914"><ele>106.5</ele><time>2026-04-24T07:59:57.997Z</time></trkpt><trkpt lat="45.40083750124194" lon="9.144268978988592"><ele>107.0</ele><time>2026-04-24T07:59:58.997Z</time></trkpt><trkpt lat="45.40063110130406" lon="9.144121229672017"><ele>105.5</ele><time>2026-04-24T07:59:59.997Z</time></trkpt><trkpt lat="45.40042817531297" lon="9.144035088626964"><ele>104.0</ele><time>2026-04-24T08:00:00.997Z</time></trkpt><trkpt lat="45.400226746176656" lon="9.143851398198457"><ele>104.0</ele><time>2026-04-24T08:00:01.997Z</time></trkpt><trkpt lat="45.400018119021404" lon="9.143748902347243"><ele>104.0</ele><time>2026-04-24T08:00:02.997Z</time></trkpt><trkpt lat="45.39982656298434" lon="9.143605919057697"><ele>104.0</ele><time>2026-04-24T08:00:03.997Z</time></trkpt><trkpt lat="45.39963784902844" lon="9.143521277346188"><ele>104.0</ele><time>2026-04-24T08:00:04.997Z</time></trkpt><trkpt lat="45.399459412453425" lon="9.14340021064519"><ele>104.0</ele><time>2026-04-24T08:00:05.997Z</time></trkpt><trkpt lat="45.39929310570625" lon="9.143254603291748"><ele>104.0</ele><time>2026-04-24T08:00:06.997Z</time></trkpt><trkpt lat="45.39909435347048" lon="9.143173623979685"><ele>104.66666666666666</ele><time>2026-04-24T08:00:07.997Z</time></trkpt><trkpt lat="45.39890043855925" lon="9.143075020899579"><ele>105.33333333333334</ele><time>2026-04-24T08:00:08.997Z</time></trkpt><trkpt lat="45.39870730823874" lon="9.142997559751388"><ele>106.0</ele><time>2026-04-24T08:00:09.997Z</time></trkpt><trkpt lat="45.39853798483031" lon="9.142892900056658"><ele>106.0</ele><time>2026-04-24T08:00:10.997Z</time></trkpt><trkpt lat="45.398380033268616" lon="9.142719903207285"><ele>106.0</ele><time>2026-04-24T08:00:11.997Z</time></trkpt><trkpt lat="45.39819760049963" lon="9.142604028998514"><ele>106.0</ele><time>2026-04-24T08:00:12.997Z</time></trkpt><trkpt lat="45.398022280111064" lon="9.14248942478809"><ele>106.0</ele><time>2026-04-24T08:00:13.997Z</time></trkpt><trkpt lat="45.3978441067569" lon="9.142403296815461"><ele>106.0</ele><time>2026-04-24T08:00:14.997Z</time></trkpt><trkpt lat="45.39767364442703" lon="9.142328784563011"><ele>106.0</ele><time>2026-04-24T08:00:15.997Z</time></trkpt><trkpt lat="45.397478364952974" lon="9.142218735986473"><ele>106.0</ele><time>2026-04-24T08:00:16.997Z</time></trkpt><trkpt lat="45.39727648341114" lon="9.142133308357328"><ele>106.0</ele><time>2026-04-24T08:00:17.997Z</time></trkpt><trkpt lat="45.39708253339916" lon="9.14201670172046"><ele>106.0</ele><time>2026-04-24T08:00:18.997Z</time></trkpt><trkpt lat="45.39687338708841" lon="9.14190571304904"><ele>106.0</ele><time>2026-04-24T08:00:19.997Z</time></trkpt><trkpt lat="45.39668836008479" lon="9.141857919452042"><ele>106.0</ele><time>2026-04-24T08:00:20.997Z</time></trkpt><trkpt lat="45.396506416020436" lon="9.141760928490697"><ele>106.0</ele><time>2026-04-24T08:00:21.997Z</time></trkpt><trkpt lat="45.396321021672" lon="9.14168331416759"><ele>106.33333333333334</ele><time>2026-04-24T08:00:22.997Z</time></trkpt><trkpt lat="45.39613265069433" lon="9.141668328918678"><ele>106.66666666666666</ele><time>2026-04-24T08:00:23.997Z</time></trkpt><trkpt lat="45.39596300177078" lon="9.1415694265892"><ele>107.0</ele><time>2026-04-24T08:00:24.997Z</time></trkpt><trkpt lat="45.39579688124255" lon="9.141478415861082"><ele>107.0</ele><time>2026-04-24T08:00:25.997Z</time></trkpt><trkpt lat="45.395641576195715" lon="9.141409907098687"><ele>107.0</ele><time>2026-04-24T08:00:26.997Z</time></trkpt><trkpt lat="45.39549786174163" lon="9.141382168299174"><ele>107.0</ele><time>2026-04-24T08:00:27.997Z</time></trkpt><trkpt lat="45.395350058863606" lon="9.141280642384608"><ele>106.5</ele><time>2026-04-24T08:00:28.997Z</time></trkpt><trkpt lat="45.39521488464661" lon="9.141182853746736"><ele>106.0</ele><time>2026-04-24T08:00:29.997Z</time></trkpt><trkpt lat="45.395102836936594" lon="9.141055454419154"><ele>105.5</ele><time>2026-04-24T08:00:30.997Z</time></trkpt><trkpt lat="45.395002052893375" lon="9.140987855184102"><ele>105.0</ele><time>2026-04-24T08:00:31.997Z</time></trkpt><trkpt lat="45.39488346580316" lon="9.140911574152577"><ele>105.0</ele><time>2026-04-24T08:00:32.997Z</time></trkpt><trkpt lat="45.394792270459625" lon="9.140829641294905"><ele>105.0</ele><time>2026-04-24T08:00:33.997Z</time></trkpt><trkpt lat="45.394702656600536" lon="9.140711884386999"><ele>105.0</ele><time>2026-04-24T08:00:34.997Z</time></trkpt><trkpt lat="45.39465448019822" lon="9.14062566789929"><ele>105.0</ele><time>2026-04-24T08:00:35.997Z</time></trkpt><trkpt lat="45.39460697728495" lon="9.140528764494688"><ele>105.0</ele><time>2026-04-24T08:00:36.997Z</time></trkpt><trkpt lat="45.39457557732197" lon="9.140442541007827"><ele>104.8</ele><time>2026-04-24T08:00:37.997Z</time></trkpt><trkpt lat="45.39454572634827" lon="9.140340410884901"><ele>104.6</ele><time>2026-04-24T08:00:38.996Z</time></trkpt><trkpt lat="45.39455476511025" lon="9.140224439627488"><ele>104.4</ele><time>2026-04-24T08:00:40.996Z</time></trkpt><trkpt lat="45.39453196295928" lon="9.140080354624658"><ele>104.2</ele><time>2026-04-24T08:00:42.996Z</time></trkpt><trkpt lat="45.39454778994478" lon="9.139933096361633"><ele>104.0</ele><time>2026-04-24T08:00:44.996Z</time></trkpt><trkpt lat="45.39456948743133" lon="9.139793787525944"><ele>103.99999999999999</ele><time>2026-04-24T08:00:46.996Z</time></trkpt><trkpt lat="45.39460356153851" lon="9.139701136337504"><ele>104.0</ele><time>2026-04-24T08:00:47.996Z</time></trkpt><trkpt lat="45.39466266653478" lon="9.139622695679853"><ele>104.0</ele><time>2026-04-24T08:00:48.996Z</time></trkpt><trkpt lat="45.3947179588401" lon="9.139569624504771"><ele>104.0</ele><time>2026-04-24T08:00:49.996Z</time></trkpt><trkpt lat="45.39478379560781" lon="9.139505674678144"><ele>103.99999999999999</ele><time>2026-04-24T08:00:50.996Z</time></trkpt><trkpt lat="45.3948577550936" lon="9.139478911395635"><ele>104.0</ele><time>2026-04-24T08:00:51.996Z</time></trkpt><trkpt lat="45.39493383118719" lon="9.13945781078639"><ele>104.16666666666666</ele><time>2026-04-24T08:00:52.996Z</time></trkpt><trkpt lat="45.39501098062896" lon="9.13945746661815"><ele>104.33333333333333</ele><time>2026-04-24T08:00:53.996Z</time></trkpt><trkpt lat="45.39512119801018" lon="9.139476528717191"><ele>104.5</ele><time>2026-04-24T08:00:55.996Z</time></trkpt><trkpt lat="45.3951822106455" lon="9.139545933332244"><ele>104.66666666666666</ele><time>2026-04-24T08:00:56.996Z</time></trkpt><trkpt lat="45.39524540313094" lon="9.13961071073909"><ele>104.83333333333333</ele><time>2026-04-24T08:00:57.996Z</time></trkpt><trkpt lat="45.39530800859754" lon="9.139672145154528"><ele>105.0</ele><time>2026-04-24T08:00:58.996Z</time></trkpt><trkpt lat="45.39534770451524" lon="9.139778597477884"><ele>105.16666666666667</ele><time>2026-04-24T08:00:59.996Z</time></trkpt><trkpt lat="45.39539215231227" lon="9.139890412214372"><ele>105.33333333333334</ele><time>2026-04-24T08:01:00.996Z</time></trkpt><trkpt lat="45.39540610351557" lon="9.139996131015753"><ele>105.5</ele><time>2026-04-24T08:01:01.996Z</time></trkpt><trkpt lat="45.39542986771298" lon="9.14010650821611"><ele>105.66666666666667</ele><time>2026-04-24T08:01:02.996Z</time></trkpt><trkpt lat="45.39544447131236" lon="9.140229328273962"><ele>105.83333333333334</ele><time>2026-04-24T08:01:03.996Z</time></trkpt><trkpt lat="45.395436209699476" lon="9.140344664714956"><ele>106.0</ele><time>2026-04-24T08:01:04.996Z</time></trkpt><trkpt lat="45.39544251919914" lon="9.140440337497557"><ele>106.0</ele><time>2026-04-24T08:01:05.996Z</time></trkpt><trkpt lat="45.39543068095928" lon="9.140595488819564"><ele>106.0</ele><time>2026-04-24T08:01:07.996Z</time></trkpt><trkpt lat="45.39542874271543" lon="9.140768556087531"><ele>106.0</ele><time>2026-04-24T08:01:09.996Z</time></trkpt><trkpt lat="45.395390446310756" lon="9.140889914033957"><ele>106.0</ele><time>2026-04-24T08:01:10.996Z</time></trkpt><trkpt lat="45.3953420359699" lon="9.141004631096985"><ele>106.0</ele><time>2026-04-24T08:01:11.996Z</time></trkpt><trkpt lat="45.39529018390985" lon="9.141146959080057"><ele>105.75</ele><time>2026-04-24T08:01:12.996Z</time></trkpt><trkpt lat="45.39522931504793" lon="9.141285362939755"><ele>105.5</ele><time>2026-04-24T08:01:13.996Z</time></trkpt><trkpt lat="45.39517001286246" lon="9.141424050112233"><ele>105.25</ele><time>2026-04-24T08:01:14.996Z</time></trkpt><trkpt lat="45.3951213943816" lon="9.14157525741827"><ele>105.0</ele><time>2026-04-24T08:01:15.996Z</time></trkpt><trkpt lat="45.39506051218371" lon="9.141737977942585"><ele>105.0</ele><time>2026-04-24T08:01:16.996Z</time></trkpt><trkpt lat="45.3950087427764" lon="9.141911422604794"><ele>105.0</ele><time>2026-04-24T08:01:17.996Z</time></trkpt><trkpt lat="45.394952418141834" lon="9.142097335340182"><ele>105.0</ele><time>2026-04-24T08:01:18.996Z</time></trkpt><trkpt lat="45.394906457886805" lon="9.142315171121188"><ele>105.0</ele><time>2026-04-24T08:01:19.996Z</time></trkpt><trkpt lat="45.394830700714735" lon="9.142529648592765"><ele>105.33333333333334</ele><time>2026-04-24T08:01:20.996Z</time></trkpt><trkpt lat="45.394765248575354" lon="9.14274061567899"><ele>105.66666666666667</ele><time>2026-04-24T08:01:21.996Z</time></trkpt><trkpt lat="45.39466788965271" lon="9.1429489879496"><ele>106.0</ele><time>2026-04-24T08:01:22.996Z</time></trkpt><trkpt lat="45.394600333586425" lon="9.14317738925788"><ele>106.33333333333334</ele><time>2026-04-24T08:01:23.996Z</time></trkpt><trkpt lat="45.39452283986463" lon="9.143399847575116"><ele>106.66666666666666</ele><time>2026-04-24T08:01:24.996Z</time></trkpt><trkpt lat="45.394455849760185" lon="9.143657889411877"><ele>107.0</ele><time>2026-04-24T08:01:25.996Z</time></trkpt><trkpt lat="45.39435750541478" lon="9.143874752583317"><ele>107.0</ele><time>2026-04-24T08:01:26.996Z</time></trkpt><trkpt lat="45.39426225369784" lon="9.14409475041159"><ele>107.0</ele><time>2026-04-24T08:01:27.996Z</time></trkpt><trkpt lat="45.394188450743975" lon="9.144282863736153"><ele>107.0</ele><time>2026-04-24T08:01:28.996Z</time></trkpt><trkpt lat="45.39411270858421" lon="9.144477792632836"><ele>107.0</ele><time>2026-04-24T08:01:29.996Z</time></trkpt><trkpt lat="45.394066348678095" lon="9.144705066470262"><ele>107.0</ele><time>2026-04-24T08:01:30.996Z</time></trkpt><trkpt lat="45.39400163320742" lon="9.144914823553679"><ele>107.0</ele><time>2026-04-24T08:01:31.996Z</time></trkpt><trkpt lat="45.393935208246546" lon="9.14508909195734"><ele>106.5</ele><time>2026-04-24T08:01:32.996Z</time></trkpt><trkpt lat="45.39388650169363" lon="9.145309891500084"><ele>106.0</ele><time>2026-04-24T08:01:33.996Z</time></trkpt><trkpt lat="45.393811495634885" lon="9.145440538505971"><ele>105.5</ele><time>2026-04-24T08:01:34.996Z</time></trkpt><trkpt lat="45.39375201879457" lon="9.145591266631365"><ele>105.0</ele><time>2026-04-24T08:01:35.996Z</time></trkpt><trkpt lat="45.393702804193175" lon="9.14578083495697"><ele>105.0</ele><time>2026-04-24T08:01:36.996Z</time></trkpt><trkpt lat="45.39364172127267" lon="9.145965662087026"><ele>105.0</ele><time>2026-04-24T08:01:37.996Z</time></trkpt><trkpt lat="45.39358026529702" lon="9.146154026609434"><ele>105.0</ele><time>2026-04-24T08:01:38.996Z</time></trkpt><trkpt lat="45.39351482335404" lon="9.146321178987137"><ele>105.0</ele><time>2026-04-24T08:01:39.996Z</time></trkpt><trkpt lat="45.39345423008949" lon="9.14651921259352"><ele>106.0</ele><time>2026-04-24T08:01:40.996Z</time></trkpt><trkpt lat="45.39338413112732" lon="9.14671336635502"><ele>107.0</ele><time>2026-04-24T08:01:41.996Z</time></trkpt><trkpt lat="45.39331878479423" lon="9.146924831406064"><ele>108.0</ele><time>2026-04-24T08:01:42.996Z</time></trkpt><trkpt lat="45.39322179651462" lon="9.147132940326637"><ele>108.0</ele><time>2026-04-24T08:01:43.996Z</time></trkpt><trkpt lat="45.393159978958" lon="9.14735238935554"><ele>108.0</ele><time>2026-04-24T08:01:45Z</time></trkpt><trkpt lat="45.39311066304872" lon="9.147566488178981"><ele>108.0</ele><time>2026-04-24T08:01:46Z</time></trkpt><trkpt lat="45.3930257163711" lon="9.147787529734655"><ele>108.66666666666666</ele><time>2026-04-24T08:01:47Z</time></trkpt><trkpt lat="45.39294133179378" lon="9.148012457720018"><ele>109.33333333333333</ele><time>2026-04-24T08:01:48Z</time></trkpt><trkpt lat="45.39284622358251" lon="9.148226023990837"><ele>110.0</ele><time>2026-04-24T08:01:49Z</time></trkpt><trkpt lat="45.39277074179082" lon="9.14850782786582"><ele>110.0</ele><time>2026-04-24T08:01:50Z</time></trkpt><trkpt lat="45.39267102177343" lon="9.148737989062154"><ele>110.0</ele><time>2026-04-24T08:01:51Z</time></trkpt><trkpt lat="45.392576453032746" lon="9.148988590514783"><ele>110.0</ele><time>2026-04-24T08:01:52Z</time></trkpt><trkpt lat="45.39249693487094" lon="9.149239523391596"><ele>109.0</ele><time>2026-04-24T08:01:53Z</time></trkpt><trkpt lat="45.39237973334176" lon="9.14946808088838"><ele>108.0</ele><time>2026-04-24T08:01:54Z</time></trkpt><trkpt lat="45.392286516083125" lon="9.149714254187325"><ele>107.0</ele><time>2026-04-24T08:01:55Z</time></trkpt><trkpt lat="45.39222996793151" lon="9.149960068684887"><ele>107.0</ele><time>2026-04-24T08:01:56Z</time></trkpt><trkpt lat="45.39213361346741" lon="9.150183204345607"><ele>107.0</ele><time>2026-04-24T08:01:57Z</time></trkpt><trkpt lat="45.392050057424086" lon="9.150425878414826"><ele>107.0</ele><time>2026-04-24T08:01:58Z</time></trkpt><trkpt lat="45.3919662046986" lon="9.150633124455382"><ele>107.33333333333333</ele><time>2026-04-24T08:01:59Z</time></trkpt><trkpt lat="45.39187955157304" lon="9.150871144684126"><ele>107.66666666666666</ele><time>2026-04-24T08:02:00Z</time></trkpt><trkpt lat="45.39178714493604" lon="9.151079354703306"><ele>108.0</ele><time>2026-04-24T08:02:01Z</time></trkpt><trkpt lat="45.391715849291344" lon="9.15130816452149"><ele>108.0</ele><time>2026-04-24T08:02:02Z</time></trkpt><trkpt lat="45.39165309561743" lon="9.151520284771825"><ele>108.0</ele><time>2026-04-24T08:02:03Z</time></trkpt><trkpt lat="45.39156146043338" lon="9.15170069240125"><ele>108.0</ele><time>2026-04-24T08:02:04Z</time></trkpt><trkpt lat="45.39150197881705" lon="9.151901063897729"><ele>107.25</ele><time>2026-04-24T08:02:05Z</time></trkpt><trkpt lat="45.391440247948715" lon="9.152034309761534"><ele>106.5</ele><time>2026-04-24T08:02:06Z</time></trkpt><trkpt lat="45.39133562654898" lon="9.152088062931162"><ele>105.75</ele><time>2026-04-24T08:02:07Z</time></trkpt><trkpt lat="45.39125024761935" lon="9.152175650173218"><ele>105.0</ele><time>2026-04-24T08:02:08Z</time></trkpt><trkpt lat="45.39111828175758" lon="9.152128994388889"><ele>104.8</ele><time>2026-04-24T08:02:10Z</time></trkpt><trkpt lat="45.39105437957002" lon="9.152038465479249"><ele>104.6</ele><time>2026-04-24T08:02:11Z</time></trkpt><trkpt lat="45.391021809186405" lon="9.151923127259495"><ele>104.4</ele><time>2026-04-24T08:02:12Z</time></trkpt><trkpt lat="45.391013523225055" lon="9.151754809771232"><ele>104.2</ele><time>2026-04-24T08:02:13Z</time></trkpt><trkpt lat="45.39108493152164" lon="9.15157758366522"><ele>104.0</ele><time>2026-04-24T08:02:14Z</time></trkpt><trkpt lat="45.391167123799285" lon="9.151388892405649"><ele>104.66666666666666</ele><time>2026-04-24T08:02:15Z</time></trkpt><trkpt lat="45.391264497829454" lon="9.151175607815386"><ele>105.33333333333334</ele><time>2026-04-24T08:02:16Z</time></trkpt><trkpt lat="45.39136755978446" lon="9.151006407059388"><ele>106.0</ele><time>2026-04-24T08:02:17Z</time></trkpt><trkpt lat="45.39148014500409" lon="9.15084669656306"><ele>106.25</ele><time>2026-04-24T08:02:18Z</time></trkpt><trkpt lat="45.3915919619553" lon="9.150708370461789"><ele>106.5</ele><time>2026-04-24T08:02:19Z</time></trkpt><trkpt lat="45.39167108262065" lon="9.150562211593963"><ele>106.75</ele><time>2026-04-24T08:02:20Z</time></trkpt><trkpt lat="45.39172153902706" lon="9.150406057556188"><ele>107.0</ele><time>2026-04-24T08:02:21Z</time></trkpt><trkpt lat="45.39179161564459" lon="9.150333526580722"><ele>106.99999999999999</ele><time>2026-04-24T08:02:22Z</time></trkpt><trkpt lat="45.39184772191287" lon="9.150259161805696"><ele>107.0</ele><time>2026-04-24T08:02:23Z</time></trkpt><trkpt lat="45.39196685254074" lon="9.150235608691903"><ele>107.0</ele><time>2026-04-24T08:02:25Z</time></trkpt><trkpt lat="45.39202966131614" lon="9.150250154958396"><ele>107.0</ele><time>2026-04-24T08:02:26Z</time></trkpt><trkpt lat="45.392098680315016" lon="9.150334918553655"><ele>106.99999999999999</ele><time>2026-04-24T08:02:28Z</time></trkpt><trkpt lat="45.39219041144405" lon="9.150367654936915"><ele>107.0</ele><time>2026-04-24T08:02:30Z</time></trkpt><trkpt lat="45.39229620175862" lon="9.150428193394037"><ele>107.0</ele><time>2026-04-24T08:02:32Z</time></trkpt><trkpt lat="45.392402674001964" lon="9.150509009782763"><ele>106.99999999999999</ele><time>2026-04-24T08:02:33Z</time></trkpt><trkpt lat="45.392491197416646" lon="9.150534878461444"><ele>106.99999999999999</ele><time>2026-04-24T08:02:34Z</time></trkpt><trkpt lat="45.3926060483146" lon="9.150600477999177"><ele>107.0</ele><time>2026-04-24T08:02:35Z</time></trkpt><trkpt lat="45.392707962333425" lon="9.150598428772094"><ele>107.0</ele><time>2026-04-24T08:02:36Z</time></trkpt><trkpt lat="45.39279668904078" lon="9.150629445526338"><ele>107.0</ele><time>2026-04-24T08:02:37Z</time></trkpt><trkpt lat="45.39289689797594" lon="9.150677855641595"><ele>106.99999999999999</ele><time>2026-04-24T08:02:38Z</time></trkpt><trkpt lat="45.39299319785415" lon="9.150719238547508"><ele>106.99999999999999</ele><time>2026-04-24T08:02:39Z</time></trkpt><trkpt lat="45.39308906811944" lon="9.150764140843723"><ele>107.0</ele><time>2026-04-24T08:02:40Z</time></trkpt><trkpt lat="45.39318350172947" lon="9.15080586860413"><ele>107.0</ele><time>2026-04-24T08:02:41Z</time></trkpt><trkpt lat="45.39327943232702" lon="9.150850900426073"><ele>106.8</ele><time>2026-04-24T08:02:42Z</time></trkpt><trkpt lat="45.39337445913853" lon="9.150882891138087"><ele>106.6</ele><time>2026-04-24T08:02:43Z</time></trkpt><trkpt lat="45.3934619160919" lon="9.150929249838873"><ele>106.39999999999999</ele><time>2026-04-24T08:02:44Z</time></trkpt><trkpt lat="45.393564382497715" lon="9.150957558157895"><ele>106.19999999999999</ele><time>2026-04-24T08:02:45Z</time></trkpt><trkpt lat="45.393667823188316" lon="9.151008805382702"><ele>106.0</ele><time>2026-04-24T08:02:46Z</time></trkpt><trkpt lat="45.393778626685474" lon="9.151089616308926"><ele>105.75</ele><time>2026-04-24T08:02:47Z</time></trkpt><trkpt lat="45.39388662136255" lon="9.15118509604479"><ele>105.5</ele><time>2026-04-24T08:02:48Z</time></trkpt><trkpt lat="45.394004241290226" lon="9.151274366055542"><ele>105.25</ele><time>2026-04-24T08:02:49Z</time></trkpt><trkpt lat="45.39413389366726" lon="9.151359967662183"><ele>105.0</ele><time>2026-04-24T08:02:50Z</time></trkpt><trkpt lat="45.394271884857574" lon="9.151437242818254"><ele>105.0</ele><time>2026-04-24T08:02:51Z</time></trkpt><trkpt lat="45.3944032567647" lon="9.151475985678085"><ele>105.0</ele><time>2026-04-24T08:02:52Z</time></trkpt><trkpt lat="45.394537467940026" lon="9.151561358297068"><ele>105.0</ele><time>2026-04-24T08:02:53Z</time></trkpt><trkpt lat="45.394665878714385" lon="9.151637374596785"><ele>105.0</ele><time>2026-04-24T08:02:53.999Z</time></trkpt><trkpt lat="45.39478682353473" lon="9.151692253157206"><ele>105.0</ele><time>2026-04-24T08:02:54.999Z</time></trkpt><trkpt lat="45.39488839239308" lon="9.151791652408967"><ele>105.0</ele><time>2026-04-24T08:02:55.999Z</time></trkpt><trkpt lat="45.39498488346775" lon="9.151844927229927"><ele>105.0</ele><time>2026-04-24T08:02:56.999Z</time></trkpt><trkpt lat="45.39505966487401" lon="9.15189461477546"><ele>105.0</ele><time>2026-04-24T08:02:57.999Z</time></trkpt><trkpt lat="45.3951504082247" lon="9.151867697878133"><ele>105.0</ele><time>2026-04-24T08:02:59.999Z</time></trkpt><trkpt lat="45.395200259405556" lon="9.151984683131495"><ele>105.0</ele><time>2026-04-24T08:03:02.999Z</time></trkpt><trkpt lat="45.39522051610557" lon="9.152079031479902"><ele>105.0</ele><time>2026-04-24T08:03:03.999Z</time></trkpt><trkpt lat="45.395275176932664" lon="9.15217113949685"><ele>105.0</ele><time>2026-04-24T08:03:04.999Z</time></trkpt><trkpt lat="45.39535862730464" lon="9.152242705019345"><ele>105.0</ele><time>2026-04-24T08:03:05.999Z</time></trkpt><trkpt lat="45.39543432938401" lon="9.152305362010797"><ele>105.0</ele><time>2026-04-24T08:03:06.999Z</time></trkpt><trkpt lat="45.39549687553987" lon="9.152243813701835"><ele>105.0</ele><time>2026-04-24T08:03:07.999Z</time></trkpt><trkpt lat="45.39555587179783" lon="9.152191964025185"><ele>105.0</ele><time>2026-04-24T08:03:08.999Z</time></trkpt><trkpt lat="45.39559590601272" lon="9.152120886411144"><ele>105.0</ele><time>2026-04-24T08:03:09.999Z</time></trkpt><trkpt lat="45.39562022017075" lon="9.152036896019952"><ele>105.0</ele><time>2026-04-24T08:03:10.999Z</time></trkpt><trkpt lat="45.39561422974021" lon="9.151866851278132"><ele>105.0</ele><time>2026-04-24T08:03:12.999Z</time></trkpt><trkpt lat="45.39551919707553" lon="9.151733183756214"><ele>105.0</ele><time>2026-04-24T08:03:14.999Z</time></trkpt><trkpt lat="45.395436113349724" lon="9.151721899383334"><ele>105.0</ele><time>2026-04-24T08:03:15.999Z</time></trkpt><trkpt lat="45.395349785486765" lon="9.15171659955185"><ele>105.0</ele><time>2026-04-24T08:03:16.999Z</time></trkpt><trkpt lat="45.395260895692964" lon="9.151729031258633"><ele>105.0</ele><time>2026-04-24T08:03:17.999Z</time></trkpt><trkpt lat="45.39517191373313" lon="9.15172150399427"><ele>105.0</ele><time>2026-04-24T08:03:18.999Z</time></trkpt><trkpt lat="45.39507275318338" lon="9.151705179977105"><ele>105.0</ele><time>2026-04-24T08:03:19.999Z</time></trkpt><trkpt lat="45.39496511403479" lon="9.15164456019537"><ele>105.0</ele><time>2026-04-24T08:03:20.999Z</time></trkpt><trkpt lat="45.394844380266186" lon="9.151555324523613"><ele>105.0</ele><time>2026-04-24T08:03:21.999Z</time></trkpt><trkpt lat="45.39470685789335" lon="9.15150012348446"><ele>105.0</ele><time>2026-04-24T08:03:22.999Z</time></trkpt><trkpt lat="45.394570850288254" lon="9.151425665564497"><ele>105.0</ele><time>2026-04-24T08:03:23.999Z</time></trkpt><trkpt lat="45.394424730575814" lon="9.151325316713331"><ele>105.0</ele><time>2026-04-24T08:03:24.999Z</time></trkpt><trkpt lat="45.394247219653245" lon="9.15124757812896"><ele>105.0</ele><time>2026-04-24T08:03:25.999Z</time></trkpt><trkpt lat="45.39405505364293" lon="9.151164920445327"><ele>105.0</ele><time>2026-04-24T08:03:26.999Z</time></trkpt><trkpt lat="45.39387909341897" lon="9.151092793710413"><ele>105.5</ele><time>2026-04-24T08:03:27.999Z</time></trkpt><trkpt lat="45.39368028436449" lon="9.151011593482322"><ele>106.0</ele><time>2026-04-24T08:03:28.999Z</time></trkpt><trkpt lat="45.39344398220689" lon="9.150855941668134"><ele>106.5</ele><time>2026-04-24T08:03:29.999Z</time></trkpt><trkpt lat="45.393207430512525" lon="9.15066289399185"><ele>107.0</ele><time>2026-04-24T08:03:30.999Z</time></trkpt><trkpt lat="45.39297014837943" lon="9.150550284945284"><ele>107.0</ele><time>2026-04-24T08:03:31.999Z</time></trkpt><trkpt lat="45.39271092577975" lon="9.15038471451131"><ele>107.0</ele><time>2026-04-24T08:03:32.999Z</time></trkpt><trkpt lat="45.392492188928294" lon="9.150257576598687"><ele>107.0</ele><time>2026-04-24T08:03:33.999Z</time></trkpt><trkpt lat="45.3922840042913" lon="9.150119134124804"><ele>107.0</ele><time>2026-04-24T08:03:34.999Z</time></trkpt><trkpt lat="45.39208794696352" lon="9.150042143982654"><ele>107.0</ele><time>2026-04-24T08:03:35.999Z</time></trkpt><trkpt lat="45.39188830134964" lon="9.149917782044898"><ele>107.0</ele><time>2026-04-24T08:03:36.999Z</time></trkpt><trkpt lat="45.39168265746651" lon="9.14980260034153"><ele>107.0</ele><time>2026-04-24T08:03:37.999Z</time></trkpt><trkpt lat="45.391490047639536" lon="9.149662761104995"><ele>107.0</ele><time>2026-04-24T08:03:38.999Z</time></trkpt><trkpt lat="45.39127780399378" lon="9.149534825470454"><ele>107.0</ele><time>2026-04-24T08:03:39.999Z</time></trkpt><trkpt lat="45.39108504412195" lon="9.149419657440486"><ele>107.0</ele><time>2026-04-24T08:03:40.999Z</time></trkpt><trkpt lat="45.39089894668231" lon="9.149298797160416"><ele>107.0</ele><time>2026-04-24T08:03:41.999Z</time></trkpt><trkpt lat="45.39073789822446" lon="9.149220131929246"><ele>107.0</ele><time>2026-04-24T08:03:42.999Z</time></trkpt><trkpt lat="45.39057430106484" lon="9.149119925421731"><ele>107.0</ele><time>2026-04-24T08:03:43.999Z</time></trkpt><trkpt lat="45.39040331389127" lon="9.149046157821243"><ele>107.0</ele><time>2026-04-24T08:03:44.999Z</time></trkpt><trkpt lat="45.39024580906652" lon="9.148941070258305"><ele>106.0</ele><time>2026-04-24T08:03:45.999Z</time></trkpt><trkpt lat="45.390082423563776" lon="9.148835936291933"><ele>105.0</ele><time>2026-04-24T08:03:46.999Z</time></trkpt><trkpt lat="45.389934513709754" lon="9.148711242624595"><ele>104.0</ele><time>2026-04-24T08:03:47.999Z</time></trkpt><trkpt lat="45.389800220847896" lon="9.148635593647185"><ele>103.80000000000001</ele><time>2026-04-24T08:03:48.999Z</time></trkpt><trkpt lat="45.389663946413066" lon="9.148576019131442"><ele>103.60000000000001</ele><time>2026-04-24T08:03:49.999Z</time></trkpt><trkpt lat="45.389555708628855" lon="9.148508496604023"><ele>103.4</ele><time>2026-04-24T08:03:50.999Z</time></trkpt><trkpt lat="45.3894756591904" lon="9.148476600075155"><ele>103.2</ele><time>2026-04-24T08:03:51.999Z</time></trkpt><trkpt lat="45.38939878739907" lon="9.148406323870052"><ele>103.0</ele><time>2026-04-24T08:03:52.999Z</time></trkpt><trkpt lat="45.38936414268632" lon="9.1482414776184"><ele>102.80000000000001</ele><time>2026-04-24T08:03:53.999Z</time></trkpt><trkpt lat="45.38929608505062" lon="9.148116424300104"><ele>102.6</ele><time>2026-04-24T08:03:54.999Z</time></trkpt><trkpt lat="45.38918290767207" lon="9.148087290741236"><ele>102.4</ele><time>2026-04-24T08:03:55.999Z</time></trkpt><trkpt lat="45.38908107253435" lon="9.148126691522258"><ele>102.19999999999999</ele><time>2026-04-24T08:03:56.999Z</time></trkpt><trkpt lat="45.388998838577315" lon="9.148137674502113"><ele>102.0</ele><time>2026-04-24T08:03:57.999Z</time></trkpt><trkpt lat="45.388921128912315" lon="9.148146883978777"><ele>102.0</ele><time>2026-04-24T08:03:58.999Z</time></trkpt><trkpt lat="45.388853784346985" lon="9.148113098582309"><ele>102.0</ele><time>2026-04-24T08:03:59.999Z</time></trkpt><trkpt lat="45.38877527311524" lon="9.148074171560694"><ele>102.0</ele><time>2026-04-24T08:04:00.999Z</time></trkpt><trkpt lat="45.38870141722063" lon="9.148013216817217"><ele>102.0</ele><time>2026-04-24T08:04:01.999Z</time></trkpt><trkpt lat="45.388626719078374" lon="9.147979765723127"><ele>102.0</ele><time>2026-04-24T08:04:02.999Z</time></trkpt><trkpt lat="45.38854783564203" lon="9.147928450534506"><ele>102.0</ele><time>2026-04-24T08:04:03.999Z</time></trkpt><trkpt lat="45.38845541294967" lon="9.147881586347443"><ele>102.5</ele><time>2026-04-24T08:04:04.999Z</time></trkpt><trkpt lat="45.38836060378525" lon="9.147832167159864"><ele>103.0</ele><time>2026-04-24T08:04:05.999Z</time></trkpt><trkpt lat="45.388272403203516" lon="9.14782921350159"><ele>103.5</ele><time>2026-04-24T08:04:06.999Z</time></trkpt><trkpt lat="45.38818798931144" lon="9.147781292758209"><ele>104.0</ele><time>2026-04-24T08:04:07.999Z</time></trkpt><trkpt lat="45.388124797586656" lon="9.147742281136223"><ele>104.5</ele><time>2026-04-24T08:04:08.999Z</time></trkpt><trkpt lat="45.388069411616186" lon="9.147637818494134"><ele>105.0</ele><time>2026-04-24T08:04:09.999Z</time></trkpt><trkpt lat="45.38800448967363" lon="9.14758687806301"><ele>105.2</ele><time>2026-04-24T08:04:10.999Z</time></trkpt><trkpt lat="45.387937926896974" lon="9.147548610210816"><ele>105.4</ele><time>2026-04-24T08:04:11.999Z</time></trkpt><trkpt lat="45.387825128161495" lon="9.147493248366974"><ele>105.6</ele><time>2026-04-24T08:04:13.999Z</time></trkpt><trkpt lat="45.38772792696208" lon="9.147439190717005"><ele>105.8</ele><time>2026-04-24T08:04:15.999Z</time></trkpt><trkpt lat="45.387659182156824" lon="9.147401570743513"><ele>106.0</ele><time>2026-04-24T08:04:16.999Z</time></trkpt><trkpt lat="45.38756668413477" lon="9.147400946599497"><ele>106.0</ele><time>2026-04-24T08:04:17.999Z</time></trkpt><trkpt lat="45.38752028974841" lon="9.147303441398675"><ele>106.0</ele><time>2026-04-24T08:04:18.999Z</time></trkpt><trkpt lat="45.3873867322712" lon="9.147217801054284"><ele>106.0</ele><time>2026-04-24T08:04:20.999Z</time></trkpt><trkpt lat="45.38730025482437" lon="9.147176108802363"><ele>106.0</ele><time>2026-04-24T08:04:21.999Z</time></trkpt><trkpt lat="45.3872241726698" lon="9.147124591934448"><ele>106.0</ele><time>2026-04-24T08:04:22.999Z</time></trkpt><trkpt lat="45.38713997041193" lon="9.147074378710245"><ele>106.0</ele><time>2026-04-24T08:04:23.999Z</time></trkpt><trkpt lat="45.38706035804627" lon="9.147031834291285"><ele>106.0</ele><time>2026-04-24T08:04:24.999Z</time></trkpt><trkpt lat="45.38698896910996" lon="9.14698336476869"><ele>106.0</ele><time>2026-04-24T08:04:25.998Z</time></trkpt><trkpt lat="45.38692091521368" lon="9.146947738059227"><ele>106.0</ele><time>2026-04-24T08:04:26.998Z</time></trkpt><trkpt lat="45.386802551485296" lon="9.146828065955678"><ele>106.0</ele><time>2026-04-24T08:04:28.998Z</time></trkpt><trkpt lat="45.38677524157582" lon="9.146731556616054"><ele>106.0</ele><time>2026-04-24T08:04:29.998Z</time></trkpt><trkpt lat="45.38669942550895" lon="9.14661883489702"><ele>106.0</ele><time>2026-04-24T08:04:30.998Z</time></trkpt><trkpt lat="45.38662183666736" lon="9.146525351331391"><ele>106.0</ele><time>2026-04-24T08:04:31.998Z</time></trkpt><trkpt lat="45.38654120917155" lon="9.146554224413482"><ele>106.0</ele><time>2026-04-24T08:04:32.998Z</time></trkpt><trkpt lat="45.38645442619957" lon="9.146533630450849"><ele>106.0</ele><time>2026-04-24T08:04:33.998Z</time></trkpt><trkpt lat="45.38635202371618" lon="9.146559411674904"><ele>105.5</ele><time>2026-04-24T08:04:34.998Z</time></trkpt><trkpt lat="45.386241241988664" lon="9.14653657559706"><ele>105.0</ele><time>2026-04-24T08:04:35.998Z</time></trkpt><trkpt lat="45.3861245265089" lon="9.146480533562011"><ele>104.5</ele><time>2026-04-24T08:04:36.998Z</time></trkpt><trkpt lat="45.38600130315623" lon="9.146431813751207"><ele>104.0</ele><time>2026-04-24T08:04:37.998Z</time></trkpt><trkpt lat="45.38586682956073" lon="9.146372435152502"><ele>104.0</ele><time>2026-04-24T08:04:38.998Z</time></trkpt><trkpt lat="45.38573627838895" lon="9.146314715149268"><ele>104.0</ele><time>2026-04-24T08:04:39.998Z</time></trkpt><trkpt lat="45.38560683975139" lon="9.146251365581312"><ele>104.0</ele><time>2026-04-24T08:04:40.998Z</time></trkpt><trkpt lat="45.38549904873165" lon="9.146157999594848"><ele>104.0</ele><time>2026-04-24T08:04:41.998Z</time></trkpt><trkpt lat="45.38537245088368" lon="9.146082027996277"><ele>103.75</ele><time>2026-04-24T08:04:42.998Z</time></trkpt><trkpt lat="45.38524281481433" lon="9.146026796908918"><ele>103.5</ele><time>2026-04-24T08:04:43.998Z</time></trkpt><trkpt lat="45.3851055191307" lon="9.146010674291366"><ele>103.25</ele><time>2026-04-24T08:04:44.998Z</time></trkpt><trkpt lat="45.38498740375644" lon="9.145954745028845"><ele>103.0</ele><time>2026-04-24T08:04:45.998Z</time></trkpt><trkpt lat="45.38488721080713" lon="9.145874061944655"><ele>103.0</ele><time>2026-04-24T08:04:46.998Z</time></trkpt><trkpt lat="45.38477799298723" lon="9.145745322255182"><ele>103.0</ele><time>2026-04-24T08:04:47.998Z</time></trkpt><trkpt lat="45.38466521927259" lon="9.145679301920953"><ele>103.0</ele><time>2026-04-24T08:04:48.998Z</time></trkpt><trkpt lat="45.38454737764386" lon="9.145610314606351"><ele>103.0</ele><time>2026-04-24T08:04:49.998Z</time></trkpt><trkpt lat="45.384438863281574" lon="9.145546787595565"><ele>102.75</ele><time>2026-04-24T08:04:50.998Z</time></trkpt><trkpt lat="45.38430248287213" lon="9.145468402141326"><ele>102.5</ele><time>2026-04-24T08:04:51.998Z</time></trkpt><trkpt lat="45.38419649752811" lon="9.14540742869292"><ele>102.25</ele><time>2026-04-24T08:04:52.998Z</time></trkpt><trkpt lat="45.384080941493174" lon="9.145340949221426"><ele>102.0</ele><time>2026-04-24T08:04:53.998Z</time></trkpt><trkpt lat="45.383960094099386" lon="9.145271425651966"><ele>102.0</ele><time>2026-04-24T08:04:54.998Z</time></trkpt><trkpt lat="45.38383394972641" lon="9.1451988546936"><ele>102.0</ele><time>2026-04-24T08:04:55.998Z</time></trkpt><trkpt lat="45.38369969459258" lon="9.145121617585565"><ele>102.0</ele><time>2026-04-24T08:04:56.998Z</time></trkpt><trkpt lat="45.38355196851791" lon="9.14503626684748"><ele>102.0</ele><time>2026-04-24T08:04:57.998Z</time></trkpt><trkpt lat="45.38341920779503" lon="9.144959078337662"><ele>102.0</ele><time>2026-04-24T08:04:58.998Z</time></trkpt><trkpt lat="45.383301259950436" lon="9.144890502156112"><ele>102.0</ele><time>2026-04-24T08:04:59.998Z</time></trkpt><trkpt lat="45.38315918401063" lon="9.144807897625777"><ele>102.0</ele><time>2026-04-24T08:05:00.998Z</time></trkpt><trkpt lat="45.38304087941503" lon="9.144739114060112"><ele>102.0</ele><time>2026-04-24T08:05:01.998Z</time></trkpt><trkpt lat="45.38292137456037" lon="9.144669680807796"><ele>102.0</ele><time>2026-04-24T08:05:02.998Z</time></trkpt><trkpt lat="45.382802858097364" lon="9.144601372987477"><ele>102.0</ele><time>2026-04-24T08:05:03.998Z</time></trkpt><trkpt lat="45.3826743927119" lon="9.144527331083347"><ele>102.0</ele><time>2026-04-24T08:05:04.998Z</time></trkpt><trkpt lat="45.38254358565744" lon="9.144470284155389"><ele>102.0</ele><time>2026-04-24T08:05:05.998Z</time></trkpt><trkpt lat="45.38242166023821" lon="9.144398972120891"><ele>102.0</ele><time>2026-04-24T08:05:06.998Z</time></trkpt><trkpt lat="45.382270926699555" lon="9.144292594405792"><ele>102.0</ele><time>2026-04-24T08:05:07.998Z</time></trkpt><trkpt lat="45.382119768657965" lon="9.14421800317723"><ele>102.0</ele><time>2026-04-24T08:05:08.998Z</time></trkpt><trkpt lat="45.381978420121236" lon="9.144122746784682"><ele>103.0</ele><time>2026-04-24T08:05:09.998Z</time></trkpt><trkpt lat="45.38183356508392" lon="9.14403906667692"><ele>104.0</ele><time>2026-04-24T08:05:10.998Z</time></trkpt><trkpt lat="45.38169299350657" lon="9.143971563112084"><ele>105.0</ele><time>2026-04-24T08:05:11.998Z</time></trkpt><trkpt lat="45.381556723265234" lon="9.143861510021386"><ele>105.0</ele><time>2026-04-24T08:05:12.998Z</time></trkpt><trkpt lat="45.381432888271014" lon="9.143786188231545"><ele>105.0</ele><time>2026-04-24T08:05:13.998Z</time></trkpt><trkpt lat="45.38131004511176" lon="9.14369281822375"><ele>105.0</ele><time>2026-04-24T08:05:14.998Z</time></trkpt><trkpt lat="45.381211382921215" lon="9.143613201031354"><ele>105.0</ele><time>2026-04-24T08:05:15.998Z</time></trkpt><trkpt lat="45.38107504746348" lon="9.143623971623237"><ele>104.5</ele><time>2026-04-24T08:05:16.998Z</time></trkpt><trkpt lat="45.38097242547619" lon="9.14354154195668"><ele>104.0</ele><time>2026-04-24T08:05:17.998Z</time></trkpt><trkpt lat="45.380870066726594" lon="9.143507702066168"><ele>103.5</ele><time>2026-04-24T08:05:18.998Z</time></trkpt><trkpt lat="45.380766998139975" lon="9.143449332518435"><ele>103.0</ele><time>2026-04-24T08:05:19.998Z</time></trkpt><trkpt lat="45.38064600851598" lon="9.143378636136903"><ele>103.0</ele><time>2026-04-24T08:05:20.998Z</time></trkpt><trkpt lat="45.38054117730674" lon="9.14329409388377"><ele>103.0</ele><time>2026-04-24T08:05:21.998Z</time></trkpt><trkpt lat="45.380447079219145" lon="9.143240640852124"><ele>103.0</ele><time>2026-04-24T08:05:22.998Z</time></trkpt><trkpt lat="45.38036948328878" lon="9.143195465252827"><ele>103.0</ele><time>2026-04-24T08:05:23.998Z</time></trkpt><trkpt lat="45.38030423288509" lon="9.143128373661973"><ele>103.0</ele><time>2026-04-24T08:05:24.998Z</time></trkpt><trkpt lat="45.38023105141398" lon="9.143071426246388"><ele>103.16666666666667</ele><time>2026-04-24T08:05:25.998Z</time></trkpt><trkpt lat="45.3801578766986" lon="9.143023257103323"><ele>103.33333333333334</ele><time>2026-04-24T08:05:26.998Z</time></trkpt><trkpt lat="45.38008816534641" lon="9.143011495843304"><ele>103.5</ele><time>2026-04-24T08:05:27.998Z</time></trkpt><trkpt lat="45.379961818146775" lon="9.143033073136666"><ele>103.66666666666666</ele><time>2026-04-24T08:05:29.998Z</time></trkpt><trkpt lat="45.37989141698664" lon="9.143047322080136"><ele>103.83333333333333</ele><time>2026-04-24T08:05:30.998Z</time></trkpt><trkpt lat="45.379809859865745" lon="9.142979594800531"><ele>104.0</ele><time>2026-04-24T08:05:32.998Z</time></trkpt><trkpt lat="45.3797221735826" lon="9.14286706462092"><ele>104.0</ele><time>2026-04-24T08:05:34.998Z</time></trkpt><trkpt lat="45.37966030603091" lon="9.142814040492258"><ele>104.0</ele><time>2026-04-24T08:05:35.998Z</time></trkpt><trkpt lat="45.37958857067558" lon="9.142764635756054"><ele>104.0</ele><time>2026-04-24T08:05:36.998Z</time></trkpt><trkpt lat="45.37949045349745" lon="9.142729550636485"><ele>104.0</ele><time>2026-04-24T08:05:37.998Z</time></trkpt><trkpt lat="45.37939247445081" lon="9.142695925433557"><ele>104.0</ele><time>2026-04-24T08:05:38.998Z</time></trkpt><trkpt lat="45.37929154301145" lon="9.142660071001382"><ele>104.0</ele><time>2026-04-24T08:05:39.998Z</time></trkpt><trkpt lat="45.37917237878704" lon="9.142601229658657"><ele>104.0</ele><time>2026-04-24T08:05:40.998Z</time></trkpt><trkpt lat="45.37908495049524" lon="9.14255406456385"><ele>104.0</ele><time>2026-04-24T08:05:41.998Z</time></trkpt><trkpt lat="45.379002250275335" lon="9.142434765481983"><ele>104.0</ele><time>2026-04-24T08:05:42.998Z</time></trkpt><trkpt lat="45.378891103159255" lon="9.142347778238664"><ele>102.75</ele><time>2026-04-24T08:05:43.998Z</time></trkpt><trkpt lat="45.37878711224069" lon="9.142265027081528"><ele>101.5</ele><time>2026-04-24T08:05:44.998Z</time></trkpt><trkpt lat="45.378670316393396" lon="9.1421767024416"><ele>100.25</ele><time>2026-04-24T08:05:45.998Z</time></trkpt><trkpt lat="45.378560442082545" lon="9.142109860674584"><ele>99.0</ele><time>2026-04-24T08:05:46.998Z</time></trkpt><trkpt lat="45.378454419707964" lon="9.142064544343988"><ele>99.0</ele><time>2026-04-24T08:05:47.998Z</time></trkpt><trkpt lat="45.378334914075545" lon="9.142020832797657"><ele>99.0</ele><time>2026-04-24T08:05:48.998Z</time></trkpt><trkpt lat="45.378225665046784" lon="9.141951204667613"><ele>99.0</ele><time>2026-04-24T08:05:49.998Z</time></trkpt><trkpt lat="45.378117905003265" lon="9.141888771998119"><ele>99.0</ele><time>2026-04-24T08:05:50.998Z</time></trkpt><trkpt lat="45.37801777249958" lon="9.141830475904767"><ele>99.5</ele><time>2026-04-24T08:05:51.998Z</time></trkpt><trkpt lat="45.37790652585958" lon="9.141765709101591"><ele>100.0</ele><time>2026-04-24T08:05:52.998Z</time></trkpt><trkpt lat="45.37778960369336" lon="9.14169782960915"><ele>100.5</ele><time>2026-04-24T08:05:53.998Z</time></trkpt><trkpt lat="45.37768289255677" lon="9.141635989511206"><ele>101.0</ele><time>2026-04-24T08:05:54.998Z</time></trkpt><trkpt lat="45.37755957224007" lon="9.141564524285776"><ele>100.75</ele><time>2026-04-24T08:05:55.998Z</time></trkpt><trkpt lat="45.37744976174458" lon="9.141500888122641"><ele>100.5</ele><time>2026-04-24T08:05:56.997Z</time></trkpt><trkpt lat="45.377335981237216" lon="9.141434951294427"><ele>100.25</ele><time>2026-04-24T08:05:57.997Z</time></trkpt><trkpt lat="45.37720177351644" lon="9.141371807735876"><ele>100.0</ele><time>2026-04-24T08:05:58.997Z</time></trkpt><trkpt lat="45.37708599959822" lon="9.141306331303856"><ele>100.0</ele><time>2026-04-24T08:05:59.997Z</time></trkpt><trkpt lat="45.37699089075566" lon="9.141213688760226"><ele>100.0</ele><time>2026-04-24T08:06:00.997Z</time></trkpt><trkpt lat="45.37689152936777" lon="9.141154918725821"><ele>100.0</ele><time>2026-04-24T08:06:01.997Z</time></trkpt><trkpt lat="45.376775476872155" lon="9.141099375861248"><ele>100.0</ele><time>2026-04-24T08:06:02.997Z</time></trkpt><trkpt lat="45.376672791524626" lon="9.141010087609564"><ele>100.0</ele><time>2026-04-24T08:06:03.997Z</time></trkpt><trkpt lat="45.37656889606872" lon="9.140927590078137"><ele>100.0</ele><time>2026-04-24T08:06:04.997Z</time></trkpt><trkpt lat="45.37647284106113" lon="9.140903433858494"><ele>100.0</ele><time>2026-04-24T08:06:05.997Z</time></trkpt><trkpt lat="45.376380230409346" lon="9.140910093305143"><ele>100.0</ele><time>2026-04-24T08:06:06.997Z</time></trkpt><trkpt lat="45.37629458358185" lon="9.14086506087137"><ele>100.0</ele><time>2026-04-24T08:06:07.997Z</time></trkpt><trkpt lat="45.376202389795175" lon="9.140849595233576"><ele>100.2</ele><time>2026-04-24T08:06:08.997Z</time></trkpt><trkpt lat="45.37611042648204" lon="9.140779575523059"><ele>100.4</ele><time>2026-04-24T08:06:09.997Z</time></trkpt><trkpt lat="45.37603274770453" lon="9.140760283858123"><ele>100.6</ele><time>2026-04-24T08:06:10.997Z</time></trkpt><trkpt lat="45.375941842953445" lon="9.140708017241705"><ele>100.8</ele><time>2026-04-24T08:06:11.997Z</time></trkpt><trkpt lat="45.375874006069644" lon="9.140640929898844"><ele>101.0</ele><time>2026-04-24T08:06:12.997Z</time></trkpt><trkpt lat="45.37578663159318" lon="9.140644797050028"><ele>100.99999999999999</ele><time>2026-04-24T08:06:13.997Z</time></trkpt><trkpt lat="45.37573384157104" lon="9.140510924797931"><ele>101.0</ele><time>2026-04-24T08:06:14.997Z</time></trkpt><trkpt lat="45.37566930340525" lon="9.140473991273122"><ele>101.0</ele><time>2026-04-24T08:06:15.997Z</time></trkpt><trkpt lat="45.375596434581134" lon="9.140432117841062"><ele>101.0</ele><time>2026-04-24T08:06:16.997Z</time></trkpt><trkpt lat="45.37553481432157" lon="9.14039654329389"><ele>100.99999999999999</ele><time>2026-04-24T08:06:17.997Z</time></trkpt><trkpt lat="45.375463010950234" lon="9.140376264736863"><ele>101.0</ele><time>2026-04-24T08:06:18.997Z</time></trkpt><trkpt lat="45.37539100179578" lon="9.140314009264484"><ele>100.99999999999999</ele><time>2026-04-24T08:06:19.997Z</time></trkpt><trkpt lat="45.375292764609746" lon="9.140280066696127"><ele>101.0</ele><time>2026-04-24T08:06:20.997Z</time></trkpt><trkpt lat="45.37522253954914" lon="9.140216625886874"><ele>101.0</ele><time>2026-04-24T08:06:21.997Z</time></trkpt><trkpt lat="45.37514723496704" lon="9.14019769909072"><ele>101.0</ele><time>2026-04-24T08:06:22.997Z</time></trkpt><trkpt lat="45.37507365998759" lon="9.140130584969548"><ele>100.99999999999999</ele><time>2026-04-24T08:06:23.997Z</time></trkpt><trkpt lat="45.374999759350814" lon="9.140087852594206"><ele>101.0</ele><time>2026-04-24T08:06:24.997Z</time></trkpt><trkpt lat="45.37491522900232" lon="9.140038886990835"><ele>101.0</ele><time>2026-04-24T08:06:25.997Z</time></trkpt><trkpt lat="45.37483023451476" lon="9.140008103197102"><ele>101.0</ele><time>2026-04-24T08:06:26.997Z</time></trkpt><trkpt lat="45.374750330096994" lon="9.139943366698818"><ele>101.0</ele><time>2026-04-24T08:06:27.997Z</time></trkpt><trkpt lat="45.37465612367533" lon="9.139888796699378"><ele>101.0</ele><time>2026-04-24T08:06:28.997Z</time></trkpt><trkpt lat="45.374566473318275" lon="9.139837138804706"><ele>101.0</ele><time>2026-04-24T08:06:29.997Z</time></trkpt><trkpt lat="45.37447684751877" lon="9.139785441360958"><ele>100.8</ele><time>2026-04-24T08:06:30.997Z</time></trkpt><trkpt lat="45.37439305544027" lon="9.13973710895957"><ele>100.6</ele><time>2026-04-24T08:06:31.997Z</time></trkpt><trkpt lat="45.37431507175241" lon="9.13969212690608"><ele>100.4</ele><time>2026-04-24T08:06:32.997Z</time></trkpt><trkpt lat="45.37423443558992" lon="9.139644811601805"><ele>100.2</ele><time>2026-04-24T08:06:33.997Z</time></trkpt><trkpt lat="45.37414533437463" lon="9.139592534687878"><ele>100.0</ele><time>2026-04-24T08:06:34.997Z</time></trkpt><trkpt lat="45.37404094291156" lon="9.139531286931314"><ele>100.0</ele><time>2026-04-24T08:06:35.997Z</time></trkpt><trkpt lat="45.37396719032249" lon="9.139488015392493"><ele>100.0</ele><time>2026-04-24T08:06:36.997Z</time></trkpt><trkpt lat="45.37386702179205" lon="9.139429245174775"><ele>100.0</ele><time>2026-04-24T08:06:37.997Z</time></trkpt><trkpt lat="45.37377547759475" lon="9.139375535164813"><ele>100.0</ele><time>2026-04-24T08:06:38.997Z</time></trkpt><trkpt lat="45.37366909025746" lon="9.13933726527108"><ele>100.0</ele><time>2026-04-24T08:06:39.997Z</time></trkpt><trkpt lat="45.37357260443246" lon="9.139256437897481"><ele>100.4</ele><time>2026-04-24T08:06:40.997Z</time></trkpt><trkpt lat="45.373464323998384" lon="9.139194552939527"><ele>100.8</ele><time>2026-04-24T08:06:41.997Z</time></trkpt><trkpt lat="45.37337201981026" lon="9.139141798626897"><ele>101.19999999999999</ele><time>2026-04-24T08:06:42.997Z</time></trkpt><trkpt lat="45.37327069239436" lon="9.139083884014147"><ele>101.6</ele><time>2026-04-24T08:06:43.997Z</time></trkpt><trkpt lat="45.37316818971447" lon="9.139025211903194"><ele>102.0</ele><time>2026-04-24T08:06:44.997Z</time></trkpt><trkpt lat="45.37306802369372" lon="9.138967910457838"><ele>101.6</ele><time>2026-04-24T08:06:45.997Z</time></trkpt><trkpt lat="45.37294330456479" lon="9.138896563141437"><ele>101.19999999999999</ele><time>2026-04-24T08:06:46.997Z</time></trkpt><trkpt lat="45.37284283830134" lon="9.138839089967819"><ele>100.8</ele><time>2026-04-24T08:06:47.997Z</time></trkpt><trkpt lat="45.37275872468145" lon="9.138790971781658"><ele>100.4</ele><time>2026-04-24T08:06:48.997Z</time></trkpt><trkpt lat="45.37266634703805" lon="9.138738125729223"><ele>100.0</ele><time>2026-04-24T08:06:49.997Z</time></trkpt><trkpt lat="45.37258093850756" lon="9.138689266479583"><ele>100.00000000000001</ele><time>2026-04-24T08:06:50.997Z</time></trkpt><trkpt lat="45.37248479870808" lon="9.13864059989588"><ele>100.0</ele><time>2026-04-24T08:06:51.997Z</time></trkpt><trkpt lat="45.37240338227708" lon="9.138598875302009"><ele>100.0</ele><time>2026-04-24T08:06:52.997Z</time></trkpt><trkpt lat="45.37232628968105" lon="9.138563285985509"><ele>100.0</ele><time>2026-04-24T08:06:53.997Z</time></trkpt><trkpt lat="45.372267212211405" lon="9.138518183818574"><ele>100.00000000000001</ele><time>2026-04-24T08:06:54.997Z</time></trkpt><trkpt lat="45.372199981872456" lon="9.138473787390627"><ele>100.0</ele><time>2026-04-24T08:06:55.997Z</time></trkpt><trkpt lat="45.372140256495" lon="9.138444140391647"><ele>99.6</ele><time>2026-04-24T08:06:56.997Z</time></trkpt><trkpt lat="45.37207381699768" lon="9.138343840683545"><ele>99.2</ele><time>2026-04-24T08:06:58.997Z</time></trkpt><trkpt lat="45.372014214186116" lon="9.138299184432308"><ele>98.80000000000001</ele><time>2026-04-24T08:06:59.997Z</time></trkpt><trkpt lat="45.371881385868356" lon="9.138281452163968"><ele>98.4</ele><time>2026-04-24T08:07:01.997Z</time></trkpt><trkpt lat="45.37179751382474" lon="9.138233360592823"><ele>98.0</ele><time>2026-04-24T08:07:02.997Z</time></trkpt><trkpt lat="45.371709601211776" lon="9.138174602203929"><ele>98.0</ele><time>2026-04-24T08:07:03.997Z</time></trkpt><trkpt lat="45.371599356522424" lon="9.138086054449465"><ele>98.0</ele><time>2026-04-24T08:07:04.997Z</time></trkpt><trkpt lat="45.37145454161564" lon="9.137997780469309"><ele>98.0</ele><time>2026-04-24T08:07:05.997Z</time></trkpt><trkpt lat="45.37129557974932" lon="9.13792821916662"><ele>98.0</ele><time>2026-04-24T08:07:06.997Z</time></trkpt><trkpt lat="45.37114389526368" lon="9.137827337066831"><ele>98.0</ele><time>2026-04-24T08:07:07.997Z</time></trkpt><trkpt lat="45.37097273250558" lon="9.137745333997445"><ele>98.0</ele><time>2026-04-24T08:07:08.997Z</time></trkpt><trkpt lat="45.37081423613454" lon="9.137650657467006"><ele>98.0</ele><time>2026-04-24T08:07:09.997Z</time></trkpt><trkpt lat="45.37064651196362" lon="9.137553440833846"><ele>98.0</ele><time>2026-04-24T08:07:10.997Z</time></trkpt><trkpt lat="45.370493703544334" lon="9.137464825305278"><ele>98.0</ele><time>2026-04-24T08:07:11.997Z</time></trkpt><trkpt lat="45.370330695285816" lon="9.137369718974833"><ele>99.0</ele><time>2026-04-24T08:07:12.997Z</time></trkpt><trkpt lat="45.37017242444115" lon="9.137278188076905"><ele>100.0</ele><time>2026-04-24T08:07:13.997Z</time></trkpt><trkpt lat="45.37001997845497" lon="9.137188381143844"><ele>101.0</ele><time>2026-04-24T08:07:14.997Z</time></trkpt><trkpt lat="45.36985782699085" lon="9.137094205485655"><ele>101.0</ele><time>2026-04-24T08:07:15.997Z</time></trkpt><trkpt lat="45.36970103175051" lon="9.137003154059267"><ele>101.0</ele><time>2026-04-24T08:07:16.997Z</time></trkpt><trkpt lat="45.369559193809486" lon="9.136921191960408"><ele>101.0</ele><time>2026-04-24T08:07:17.997Z</time></trkpt><trkpt lat="45.36940933436403" lon="9.136849204069865"><ele>101.0</ele><time>2026-04-24T08:07:18.997Z</time></trkpt><trkpt lat="45.36927833960566" lon="9.13675956764245"><ele>101.0</ele><time>2026-04-24T08:07:19.997Z</time></trkpt><trkpt lat="45.36913640062378" lon="9.136686801571159"><ele>101.0</ele><time>2026-04-24T08:07:20.997Z</time></trkpt><trkpt lat="45.36900364660354" lon="9.136569670018993"><ele>100.33333333333333</ele><time>2026-04-24T08:07:21.997Z</time></trkpt><trkpt lat="45.36885367089326" lon="9.136516856079423"><ele>99.66666666666666</ele><time>2026-04-24T08:07:22.997Z</time></trkpt><trkpt lat="45.36871270651846" lon="9.136436635447327"><ele>99.0</ele><time>2026-04-24T08:07:23.997Z</time></trkpt><trkpt lat="45.36854154015705" lon="9.136431372478672"><ele>99.0</ele><time>2026-04-24T08:07:24.997Z</time></trkpt><trkpt lat="45.368416023424025" lon="9.136363080849735"><ele>99.0</ele><time>2026-04-24T08:07:25.997Z</time></trkpt><trkpt lat="45.36830097199639" lon="9.136231931665861"><ele>99.0</ele><time>2026-04-24T08:07:26.997Z</time></trkpt><trkpt lat="45.368173181182755" lon="9.136139122241001"><ele>99.0</ele><time>2026-04-24T08:07:27.997Z</time></trkpt><trkpt lat="45.36803032036923" lon="9.136048659612316"><ele>98.75</ele><time>2026-04-24T08:07:28.996Z</time></trkpt><trkpt lat="45.3678935938678" lon="9.135988133581273"><ele>98.5</ele><time>2026-04-24T08:07:29.996Z</time></trkpt><trkpt lat="45.36776130154521" lon="9.135894901810346"><ele>98.25</ele><time>2026-04-24T08:07:30.996Z</time></trkpt><trkpt lat="45.36762137532202" lon="9.135814926930188"><ele>98.0</ele><time>2026-04-24T08:07:31.996Z</time></trkpt><trkpt lat="45.367500352221064" lon="9.135746906369908"><ele>97.75</ele><time>2026-04-24T08:07:32.996Z</time></trkpt><trkpt lat="45.367354399952454" lon="9.1356635960986"><ele>97.5</ele><time>2026-04-24T08:07:33.996Z</time></trkpt><trkpt lat="45.367225457062936" lon="9.135589994862759"><ele>97.25</ele><time>2026-04-24T08:07:34.996Z</time></trkpt><trkpt lat="45.36710697514705" lon="9.135522364802254"><ele>97.0</ele><time>2026-04-24T08:07:35.996Z</time></trkpt><trkpt lat="45.366979623453375" lon="9.135450022856366"><ele>97.0</ele><time>2026-04-24T08:07:36.996Z</time></trkpt><trkpt lat="45.36685619426626" lon="9.135380400162274"><ele>97.0</ele><time>2026-04-24T08:07:37.996Z</time></trkpt><trkpt lat="45.366740412038226" lon="9.135314896138077"><ele>97.0</ele><time>2026-04-24T08:07:38.996Z</time></trkpt><trkpt lat="45.3666378063691" lon="9.135238820042215"><ele>97.0</ele><time>2026-04-24T08:07:39.996Z</time></trkpt><trkpt lat="45.36652537393142" lon="9.135223429945531"><ele>97.0</ele><time>2026-04-24T08:07:40.996Z</time></trkpt><trkpt lat="45.366413784988154" lon="9.13516255626878"><ele>97.0</ele><time>2026-04-24T08:07:41.996Z</time></trkpt><trkpt lat="45.36632335909261" lon="9.13509900585415"><ele>97.0</ele><time>2026-04-24T08:07:42.996Z</time></trkpt><trkpt lat="45.366217362144816" lon="9.135097428979348"><ele>97.0</ele><time>2026-04-24T08:07:43.996Z</time></trkpt><trkpt lat="45.366121657941626" lon="9.135065941631547"><ele>97.0</ele><time>2026-04-24T08:07:44.996Z</time></trkpt><trkpt lat="45.36602729064123" lon="9.13501848008495"><ele>97.0</ele><time>2026-04-24T08:07:45.996Z</time></trkpt><trkpt lat="45.36592990836017" lon="9.134969502269088"><ele>97.0</ele><time>2026-04-24T08:07:46.996Z</time></trkpt><trkpt lat="45.36583662773952" lon="9.13491787259242"><ele>97.0</ele><time>2026-04-24T08:07:47.996Z</time></trkpt><trkpt lat="45.36575824327467" lon="9.134782216193532"><ele>97.0</ele><time>2026-04-24T08:07:49.996Z</time></trkpt><trkpt lat="45.36570744571787" lon="9.134705889482229"><ele>97.0</ele><time>2026-04-24T08:07:50.996Z</time></trkpt><trkpt lat="45.365669280275746" lon="9.134568077261575"><ele>97.0</ele><time>2026-04-24T08:07:51.996Z</time></trkpt><trkpt lat="45.36557487712046" lon="9.134493861749029"><ele>97.0</ele><time>2026-04-24T08:07:52.996Z</time></trkpt><trkpt lat="45.36549779817959" lon="9.134421131031404"><ele>97.0</ele><time>2026-04-24T08:07:53.996Z</time></trkpt><trkpt lat="45.365392988457934" lon="9.134372118758554"><ele>97.0</ele><time>2026-04-24T08:07:54.996Z</time></trkpt><trkpt lat="45.365298873957165" lon="9.134316270207233"><ele>97.0</ele><time>2026-04-24T08:07:55.996Z</time></trkpt><trkpt lat="45.36517887455159" lon="9.134255807437562"><ele>97.5</ele><time>2026-04-24T08:07:56.996Z</time></trkpt><trkpt lat="45.36506076878392" lon="9.134220982454277"><ele>98.0</ele><time>2026-04-24T08:07:57.996Z</time></trkpt><trkpt lat="45.36491247695702" lon="9.134196796636504"><ele>98.5</ele><time>2026-04-24T08:07:58.996Z</time></trkpt><trkpt lat="45.36481985269757" lon="9.134191598417914"><ele>99.0</ele><time>2026-04-24T08:07:59.996Z</time></trkpt><trkpt lat="45.3647176961666" lon="9.134140432736197"><ele>99.25</ele><time>2026-04-24T08:08:00.996Z</time></trkpt><trkpt lat="45.364588396719896" lon="9.134077749791329"><ele>99.5</ele><time>2026-04-24T08:08:01.996Z</time></trkpt><trkpt lat="45.36448422766547" lon="9.133974310322927"><ele>99.75</ele><time>2026-04-24T08:08:02.996Z</time></trkpt><trkpt lat="45.36437862816346" lon="9.133914226805267"><ele>100.0</ele><time>2026-04-24T08:08:03.996Z</time></trkpt><trkpt lat="45.36427944912623" lon="9.133864556346891"><ele>99.50000000000001</ele><time>2026-04-24T08:08:04.996Z</time></trkpt><trkpt lat="45.364203969548356" lon="9.133874244650286"><ele>99.0</ele><time>2026-04-24T08:08:05.996Z</time></trkpt><trkpt lat="45.364141412855275" lon="9.133809563598838"><ele>98.5</ele><time>2026-04-24T08:08:06.996Z</time></trkpt><trkpt lat="45.364051646009166" lon="9.133776243439387"><ele>98.0</ele><time>2026-04-24T08:08:08.996Z</time></trkpt><trkpt lat="45.3639503987394" lon="9.133711743803133"><ele>97.50000000000001</ele><time>2026-04-24T08:08:11.996Z</time></trkpt><trkpt lat="45.36388894832381" lon="9.133746850063735"><ele>97.0</ele><time>2026-04-24T08:08:12.996Z</time></trkpt><trkpt lat="45.363836320458695" lon="9.133682075240753"><ele>97.00000000000001</ele><time>2026-04-24T08:08:13.996Z</time></trkpt><trkpt lat="45.363765761509754" lon="9.133670080246043"><ele>97.0</ele><time>2026-04-24T08:08:14.996Z</time></trkpt><trkpt lat="45.363693742248294" lon="9.133577710030256"><ele>97.0</ele><time>2026-04-24T08:08:15.996Z</time></trkpt><trkpt lat="45.363630637525475" lon="9.133487537919622"><ele>97.0</ele><time>2026-04-24T08:08:16.996Z</time></trkpt><trkpt lat="45.363552593032864" lon="9.133418057461768"><ele>97.00000000000001</ele><time>2026-04-24T08:08:17.996Z</time></trkpt><trkpt lat="45.363487961343935" lon="9.133357366262176"><ele>97.0</ele><time>2026-04-24T08:08:18.996Z</time></trkpt><trkpt lat="45.3634420660812" lon="9.13324373154066"><ele>97.0</ele><time>2026-04-24T08:08:19.996Z</time></trkpt><trkpt lat="45.36331663868708" lon="9.1331779545722"><ele>97.0</ele><time>2026-04-24T08:08:21.996Z</time></trkpt><trkpt lat="45.36324059354354" lon="9.133288381007285"><ele>97.0</ele><time>2026-04-24T08:08:22.996Z</time></trkpt><trkpt lat="45.36316037594024" lon="9.133290769359986"><ele>97.0</ele><time>2026-04-24T08:08:24.996Z</time></trkpt><trkpt lat="45.363075941468985" lon="9.13338564576456"><ele>97.0</ele><time>2026-04-24T08:08:27.996Z</time></trkpt><trkpt lat="45.3629542539961" lon="9.133326929186186"><ele>97.0</ele><time>2026-04-24T08:08:36.996Z</time></trkpt><trkpt lat="45.36285772341632" lon="9.133310816373578"><ele>97.0</ele><time>2026-04-24T08:08:37.996Z</time></trkpt><trkpt lat="45.36276037560205" lon="9.133326320277376"><ele>97.0</ele><time>2026-04-24T08:08:38.996Z</time></trkpt><trkpt lat="45.36265868896264" lon="9.133196885123722"><ele>97.0</ele><time>2026-04-24T08:08:39.996Z</time></trkpt><trkpt lat="45.36257974171432" lon="9.133055655874719"><ele>97.0</ele><time>2026-04-24T08:08:40.996Z</time></trkpt><trkpt lat="45.36249281062461" lon="9.13295169655604"><ele>97.0</ele><time>2026-04-24T08:08:41.996Z</time></trkpt><trkpt lat="45.362392956958054" lon="9.132831514950231"><ele>97.0</ele><time>2026-04-24T08:08:42.996Z</time></trkpt><trkpt lat="45.36230206810028" lon="9.132754593913967"><ele>97.0</ele><time>2026-04-24T08:08:43.996Z</time></trkpt><trkpt lat="45.36221342681679" lon="9.132727832663138"><ele>97.0</ele><time>2026-04-24T08:08:44.996Z</time></trkpt><trkpt lat="45.36212667250343" lon="9.132683330128451"><ele>97.39999999999999</ele><time>2026-04-24T08:08:45.996Z</time></trkpt><trkpt lat="45.36202457056749" lon="9.132686146904872"><ele>97.8</ele><time>2026-04-24T08:08:47.996Z</time></trkpt><trkpt lat="45.36203951473175" lon="9.132582447783484"><ele>98.2</ele><time>2026-04-24T08:08:50.999Z</time></trkpt><trkpt lat="45.36203162226306" lon="9.13247842344149"><ele>98.6</ele><time>2026-04-24T08:08:53.999Z</time></trkpt><trkpt lat="45.3619736645275" lon="9.132591678519308"><ele>99.0</ele><time>2026-04-24T08:08:59.999Z</time></trkpt><trkpt lat="45.36197075064109" lon="9.132419646349316"><ele>99.0</ele><time>2026-04-24T08:10:01.999Z</time></trkpt><trkpt lat="45.36192015969097" lon="9.132506492653944"><ele>99.0</ele><time>2026-04-24T08:10:22.999Z</time></trkpt><trkpt lat="45.3618795273964" lon="9.132589094161728"><ele>99.0</ele><time>2026-04-24T08:10:26.999Z</time></trkpt><trkpt lat="45.36180617576026" lon="9.132489308942917"><ele>99.0</ele><time>2026-04-24T08:13:33.997Z</time></trkpt><trkpt lat="45.36176646171906" lon="9.132584845392284"><ele>99.0</ele><time>2026-04-24T08:13:51.997Z</time></trkpt><trkpt lat="45.36168720711106" lon="9.132518037720823"><ele>99.0</ele><time>2026-04-24T08:13:58.997Z</time></trkpt><trkpt lat="45.36165009628994" lon="9.132421461766592"><ele>98.80000000000001</ele><time>2026-04-24T08:14:00.997Z</time></trkpt><trkpt lat="45.361618858003254" lon="9.132333739949932"><ele>98.60000000000001</ele><time>2026-04-24T08:14:07.997Z</time></trkpt><trkpt lat="45.361503180870294" lon="9.132290244880897"><ele>98.4</ele><time>2026-04-24T08:14:10.997Z</time></trkpt><trkpt lat="45.361440784184616" lon="9.132235759526182"><ele>98.2</ele><time>2026-04-24T08:14:11.997Z</time></trkpt><trkpt lat="45.361364250830185" lon="9.132194473514538"><ele>98.0</ele><time>2026-04-24T08:14:12.997Z</time></trkpt><trkpt lat="45.36125292421424" lon="9.132191273717208"><ele>98.0</ele><time>2026-04-24T08:14:13.997Z</time></trkpt><trkpt lat="45.361150064233534" lon="9.132130515978345"><ele>98.0</ele><time>2026-04-24T08:14:14.997Z</time></trkpt><trkpt lat="45.36104046375298" lon="9.132071148931516"><ele>98.0</ele><time>2026-04-24T08:14:15.997Z</time></trkpt><trkpt lat="45.36092806846701" lon="9.132008629646082"><ele>98.0</ele><time>2026-04-24T08:14:16.997Z</time></trkpt><trkpt lat="45.36081300084915" lon="9.13194014692582"><ele>98.0</ele><time>2026-04-24T08:14:17.997Z</time></trkpt><trkpt lat="45.36069949647228" lon="9.131851727750213"><ele>98.0</ele><time>2026-04-24T08:14:18.997Z</time></trkpt><trkpt lat="45.360569179829014" lon="9.131800265566989"><ele>98.0</ele><time>2026-04-24T08:14:19.997Z</time></trkpt><trkpt lat="45.36044230709496" lon="9.131724960204833"><ele>98.0</ele><time>2026-04-24T08:14:20.997Z</time></trkpt><trkpt lat="45.36031051886768" lon="9.131649006763446"><ele>97.75</ele><time>2026-04-24T08:14:21.997Z</time></trkpt><trkpt lat="45.36017594507315" lon="9.131569689382122"><ele>97.5</ele><time>2026-04-24T08:14:22.997Z</time></trkpt><trkpt lat="45.36003963919259" lon="9.131487562318442"><ele>97.25</ele><time>2026-04-24T08:14:23.997Z</time></trkpt><trkpt lat="45.35990180769844" lon="9.131404242035233"><ele>97.0</ele><time>2026-04-24T08:14:24.997Z</time></trkpt><trkpt lat="45.359762934209286" lon="9.131319815206773"><ele>97.0</ele><time>2026-04-24T08:14:25.997Z</time></trkpt><trkpt lat="45.359623879667176" lon="9.1312323202659"><ele>97.0</ele><time>2026-04-24T08:14:26.997Z</time></trkpt><trkpt lat="45.359483983973135" lon="9.13112661771902"><ele>97.0</ele><time>2026-04-24T08:14:27.997Z</time></trkpt><trkpt lat="45.35934242491219" lon="9.131033055073857"><ele>97.0</ele><time>2026-04-24T08:14:28.997Z</time></trkpt><trkpt lat="45.35919469763838" lon="9.130940692532405"><ele>97.0</ele><time>2026-04-24T08:14:29.997Z</time></trkpt><trkpt lat="45.35903953869623" lon="9.13085494854729"><ele>97.0</ele><time>2026-04-24T08:14:30.997Z</time></trkpt><trkpt lat="45.35887110343077" lon="9.13076671979449"><ele>97.33333333333334</ele><time>2026-04-24T08:14:31.997Z</time></trkpt><trkpt lat="45.358717489872284" lon="9.130678247934032"><ele>97.66666666666666</ele><time>2026-04-24T08:14:32.997Z</time></trkpt><trkpt lat="45.35856500048" lon="9.130588049296875"><ele>98.0</ele><time>2026-04-24T08:14:33.997Z</time></trkpt><trkpt lat="45.35841048922658" lon="9.130505774663565"><ele>98.0</ele><time>2026-04-24T08:14:34.996Z</time></trkpt><trkpt lat="45.358248111585276" lon="9.130425184775259"><ele>98.0</ele><time>2026-04-24T08:14:35.996Z</time></trkpt><trkpt lat="45.35809556962692" lon="9.130337246948512"><ele>98.0</ele><time>2026-04-24T08:14:36.996Z</time></trkpt><trkpt lat="45.35793341330666" lon="9.130243762224795"><ele>98.66666666666666</ele><time>2026-04-24T08:14:37.996Z</time></trkpt><trkpt lat="45.35777348534509" lon="9.130156483278707"><ele>99.33333333333334</ele><time>2026-04-24T08:14:38.996Z</time></trkpt><trkpt lat="45.35762247800476" lon="9.130061495297051"><ele>100.0</ele><time>2026-04-24T08:14:39.996Z</time></trkpt><trkpt lat="45.35748343425292" lon="9.129959227693247"><ele>100.0</ele><time>2026-04-24T08:14:40.996Z</time></trkpt><trkpt lat="45.357335770945326" lon="9.129893014702024"><ele>100.0</ele><time>2026-04-24T08:14:41.996Z</time></trkpt><trkpt lat="45.357195925142484" lon="9.12983211733229"><ele>100.0</ele><time>2026-04-24T08:14:42.996Z</time></trkpt><trkpt lat="45.357051018808356" lon="9.129742711664486"><ele>100.0</ele><time>2026-04-24T08:14:43.996Z</time></trkpt><trkpt lat="45.35692136763322" lon="9.129648515354557"><ele>100.0</ele><time>2026-04-24T08:14:44.996Z</time></trkpt><trkpt lat="45.356775377681515" lon="9.129520837830952"><ele>100.0</ele><time>2026-04-24T08:14:45.996Z</time></trkpt><trkpt lat="45.35661592796698" lon="9.129469235856863"><ele>100.0</ele><time>2026-04-24T08:14:46.996Z</time></trkpt><trkpt lat="45.356479725469406" lon="9.129384885388168"><ele>100.0</ele><time>2026-04-24T08:14:47.996Z</time></trkpt><trkpt lat="45.35634286132719" lon="9.129305656329697"><ele>100.0</ele><time>2026-04-24T08:14:48.996Z</time></trkpt><trkpt lat="45.35620440450826" lon="9.129240434270416"><ele>100.0</ele><time>2026-04-24T08:14:49.996Z</time></trkpt><trkpt lat="45.35607176391996" lon="9.129160014829168"><ele>99.33333333333334</ele><time>2026-04-24T08:14:50.996Z</time></trkpt><trkpt lat="45.35591030831143" lon="9.129058042338903"><ele>98.66666666666666</ele><time>2026-04-24T08:14:51.996Z</time></trkpt><trkpt lat="45.35577528937711" lon="9.128973227405657"><ele>98.0</ele><time>2026-04-24T08:14:52.996Z</time></trkpt><trkpt lat="45.35565486677059" lon="9.128894738282803"><ele>97.75</ele><time>2026-04-24T08:14:53.996Z</time></trkpt><trkpt lat="45.35550594850295" lon="9.128833822808458"><ele>97.5</ele><time>2026-04-24T08:14:54.996Z</time></trkpt><trkpt lat="45.35537659009098" lon="9.128746633551405"><ele>97.25</ele><time>2026-04-24T08:14:55.996Z</time></trkpt><trkpt lat="45.35524643681006" lon="9.128653523767603"><ele>97.0</ele><time>2026-04-24T08:14:56.996Z</time></trkpt><trkpt lat="45.35510043306432" lon="9.128570823795469"><ele>97.0</ele><time>2026-04-24T08:14:57.996Z</time></trkpt><trkpt lat="45.354989033098505" lon="9.128464111166771"><ele>97.0</ele><time>2026-04-24T08:14:58.996Z</time></trkpt><trkpt lat="45.35486012417033" lon="9.128403229441776"><ele>97.0</ele><time>2026-04-24T08:14:59.996Z</time></trkpt><trkpt lat="45.35477667586203" lon="9.128292058783098"><ele>97.0</ele><time>2026-04-24T08:15:00.996Z</time></trkpt><trkpt lat="45.354700324128174" lon="9.12821696501284"><ele>97.00000000000001</ele><time>2026-04-24T08:15:01.996Z</time></trkpt><trkpt lat="45.354620688011984" lon="9.128149954707924"><ele>97.0</ele><time>2026-04-24T08:15:02.996Z</time></trkpt><trkpt lat="45.35454788092519" lon="9.128087355900917"><ele>97.0</ele><time>2026-04-24T08:15:03.996Z</time></trkpt><trkpt lat="45.35446071035282" lon="9.127965993055374"><ele>97.0</ele><time>2026-04-24T08:15:05.996Z</time></trkpt><trkpt lat="45.35439333785773" lon="9.127915056867588"><ele>97.00000000000001</ele><time>2026-04-24T08:15:07.996Z</time></trkpt><trkpt lat="45.354458703381916" lon="9.127900993570014"><ele>97.0</ele><time>2026-04-24T08:15:11.996Z</time></trkpt><trkpt lat="45.354392305753976" lon="9.127871326851624"><ele>97.00000000000001</ele><time>2026-04-24T08:15:32.996Z</time></trkpt><trkpt lat="45.35433306811253" lon="9.127771481283604"><ele>97.0</ele><time>2026-04-24T08:15:35.996Z</time></trkpt><trkpt lat="45.35430555479396" lon="9.127681996914868"><ele>97.0</ele><time>2026-04-24T08:15:37.996Z</time></trkpt><trkpt lat="45.35421822009443" lon="9.127602732306643"><ele>97.0</ele><time>2026-04-24T08:15:39.996Z</time></trkpt><trkpt lat="45.354159467452746" lon="9.127527515066284"><ele>97.00000000000001</ele><time>2026-04-24T08:15:40.996Z</time></trkpt><trkpt lat="45.35406994725623" lon="9.127461553526583"><ele>97.0</ele><time>2026-04-24T08:15:41.996Z</time></trkpt><trkpt lat="45.35399175695493" lon="9.1273742078603"><ele>97.25</ele><time>2026-04-24T08:15:42.996Z</time></trkpt><trkpt lat="45.353899088455606" lon="9.127303317555581"><ele>97.5</ele><time>2026-04-24T08:15:43.996Z</time></trkpt><trkpt lat="45.35380666792638" lon="9.127165152360085"><ele>97.75</ele><time>2026-04-24T08:15:44.996Z</time></trkpt><trkpt lat="45.35369785415453" lon="9.12706370540403"><ele>98.0</ele><time>2026-04-24T08:15:45.996Z</time></trkpt><trkpt lat="45.35357312917116" lon="9.126935115354527"><ele>98.0</ele><time>2026-04-24T08:15:46.996Z</time></trkpt><trkpt lat="45.353488921062635" lon="9.126747935128522"><ele>98.0</ele><time>2026-04-24T08:15:47.996Z</time></trkpt><trkpt lat="45.35336218827386" lon="9.126608441287187"><ele>98.0</ele><time>2026-04-24T08:15:48.996Z</time></trkpt><trkpt lat="45.35321059518494" lon="9.126510609538991"><ele>98.66666666666666</ele><time>2026-04-24T08:15:49.996Z</time></trkpt><trkpt lat="45.353067921149005" lon="9.12636002116391"><ele>99.33333333333334</ele><time>2026-04-24T08:15:50.996Z</time></trkpt><trkpt lat="45.352934674761094" lon="9.126184622460235"><ele>100.0</ele><time>2026-04-24T08:15:51.996Z</time></trkpt><trkpt lat="45.35280010950122" lon="9.126022700974357"><ele>100.0</ele><time>2026-04-24T08:15:52.996Z</time></trkpt><trkpt lat="45.352651915180466" lon="9.125869762869092"><ele>100.0</ele><time>2026-04-24T08:15:53.996Z</time></trkpt><trkpt lat="45.35251309047464" lon="9.12569384955479"><ele>100.0</ele><time>2026-04-24T08:15:54.996Z</time></trkpt><trkpt lat="45.35237341813371" lon="9.125541498421919"><ele>99.66666666666667</ele><time>2026-04-24T08:15:55.999Z</time></trkpt><trkpt lat="45.352249927250114" lon="9.125357356616691"><ele>99.33333333333334</ele><time>2026-04-24T08:15:56.999Z</time></trkpt><trkpt lat="45.352109542604374" lon="9.12518549806532"><ele>99.0</ele><time>2026-04-24T08:15:57.999Z</time></trkpt><trkpt lat="45.35195411339186" lon="9.125019477663317"><ele>99.0</ele><time>2026-04-24T08:15:58.999Z</time></trkpt><trkpt lat="45.351788603127765" lon="9.124841199185086"><ele>99.0</ele><time>2026-04-24T08:15:59.999Z</time></trkpt><trkpt lat="45.35162466656336" lon="9.12466318008618"><ele>99.0</ele><time>2026-04-24T08:16:00.999Z</time></trkpt><trkpt lat="45.35147131123483" lon="9.124495879758632"><ele>99.0</ele><time>2026-04-24T08:16:01.999Z</time></trkpt><trkpt lat="45.351302428076295" lon="9.124305662970746"><ele>99.0</ele><time>2026-04-24T08:16:02.999Z</time></trkpt><trkpt lat="45.351142986708794" lon="9.124137003606407"><ele>99.0</ele><time>2026-04-24T08:16:03.999Z</time></trkpt><trkpt lat="45.350964851080484" lon="9.123984568529956"><ele>98.33333333333334</ele><time>2026-04-24T08:16:04.999Z</time></trkpt><trkpt lat="45.35081312462692" lon="9.123795257376191"><ele>97.66666666666667</ele><time>2026-04-24T08:16:05.999Z</time></trkpt><trkpt lat="45.35065091829917" lon="9.123612937695993"><ele>97.0</ele><time>2026-04-24T08:16:06.999Z</time></trkpt><trkpt lat="45.3504873798084" lon="9.123432495409524"><ele>97.0</ele><time>2026-04-24T08:16:07.999Z</time></trkpt><trkpt lat="45.3503286418508" lon="9.123248738645598"><ele>97.0</ele><time>2026-04-24T08:16:08.999Z</time></trkpt><trkpt lat="45.350190023372036" lon="9.123064517131727"><ele>97.0</ele><time>2026-04-24T08:16:09.999Z</time></trkpt><trkpt lat="45.35004346474505" lon="9.12288727638198"><ele>97.0</ele><time>2026-04-24T08:16:10.999Z</time></trkpt><trkpt lat="45.34988015643069" lon="9.122732402256432"><ele>97.0</ele><time>2026-04-24T08:16:11.999Z</time></trkpt><trkpt lat="45.349730472685685" lon="9.122552513947058"><ele>97.0</ele><time>2026-04-24T08:16:12.999Z</time></trkpt><trkpt lat="45.3495837084302" lon="9.12238499494699"><ele>97.33333333333334</ele><time>2026-04-24T08:16:13.999Z</time></trkpt><trkpt lat="45.34943190639651" lon="9.122221508180079"><ele>97.66666666666666</ele><time>2026-04-24T08:16:14.999Z</time></trkpt><trkpt lat="45.34928474351285" lon="9.12205688189282"><ele>98.0</ele><time>2026-04-24T08:16:15.999Z</time></trkpt><trkpt lat="45.34914112028961" lon="9.121885130338166"><ele>98.0</ele><time>2026-04-24T08:16:16.999Z</time></trkpt><trkpt lat="45.34898534298742" lon="9.121705217142322"><ele>98.0</ele><time>2026-04-24T08:16:17.999Z</time></trkpt><trkpt lat="45.34883805683794" lon="9.121524006053496"><ele>98.0</ele><time>2026-04-24T08:16:18.999Z</time></trkpt><trkpt lat="45.34867894455591" lon="9.12134587859542"><ele>97.66666666666666</ele><time>2026-04-24T08:16:19.999Z</time></trkpt><trkpt lat="45.348519657743395" lon="9.121166704184516"><ele>97.33333333333334</ele><time>2026-04-24T08:16:20.999Z</time></trkpt><trkpt lat="45.348366446223245" lon="9.120987363587826"><ele>97.0</ele><time>2026-04-24T08:16:21.999Z</time></trkpt><trkpt lat="45.348211580933864" lon="9.120818301764077"><ele>97.33333333333334</ele><time>2026-04-24T08:16:22.999Z</time></trkpt><trkpt lat="45.34804304800517" lon="9.120674188288959"><ele>97.66666666666666</ele><time>2026-04-24T08:16:23.999Z</time></trkpt><trkpt lat="45.347912424639006" lon="9.120470579701637"><ele>98.0</ele><time>2026-04-24T08:16:24.999Z</time></trkpt><trkpt lat="45.347750484985355" lon="9.120308387810331"><ele>98.0</ele><time>2026-04-24T08:16:25.999Z</time></trkpt><trkpt lat="45.347583696763024" lon="9.120134842798024"><ele>98.0</ele><time>2026-04-24T08:16:26.999Z</time></trkpt><trkpt lat="45.34742340413114" lon="9.119960933823817"><ele>98.0</ele><time>2026-04-24T08:16:27.999Z</time></trkpt><trkpt lat="45.34728531871417" lon="9.119758375666622"><ele>97.66666666666666</ele><time>2026-04-24T08:16:28.999Z</time></trkpt><trkpt lat="45.34713660124061" lon="9.11957470565971"><ele>97.33333333333334</ele><time>2026-04-24T08:16:29.999Z</time></trkpt><trkpt lat="45.34699420100235" lon="9.11940518912677"><ele>97.0</ele><time>2026-04-24T08:16:30.999Z</time></trkpt><trkpt lat="45.346851782006325" lon="9.119224949466552"><ele>97.0</ele><time>2026-04-24T08:16:32Z</time></trkpt><trkpt lat="45.3467053041932" lon="9.119079989249746"><ele>97.0</ele><time>2026-04-24T08:16:33Z</time></trkpt><trkpt lat="45.34653334046127" lon="9.11889551839883"><ele>97.0</ele><time>2026-04-24T08:16:34Z</time></trkpt><trkpt lat="45.346362407786074" lon="9.118692298460562"><ele>97.0</ele><time>2026-04-24T08:16:35Z</time></trkpt><trkpt lat="45.34620243995799" lon="9.118512406347522"><ele>97.0</ele><time>2026-04-24T08:16:36Z</time></trkpt><trkpt lat="45.34603080813749" lon="9.11835169557609"><ele>97.0</ele><time>2026-04-24T08:16:37Z</time></trkpt><trkpt lat="45.345865512161566" lon="9.118163025268736"><ele>97.0</ele><time>2026-04-24T08:16:38Z</time></trkpt><trkpt lat="45.34570878434537" lon="9.117984593763747"><ele>97.0</ele><time>2026-04-24T08:16:39Z</time></trkpt><trkpt lat="45.34555342923941" lon="9.117800495630103"><ele>97.0</ele><time>2026-04-24T08:16:40Z</time></trkpt><trkpt lat="45.34538650690899" lon="9.117641075574593"><ele>97.0</ele><time>2026-04-24T08:16:41Z</time></trkpt><trkpt lat="45.3452323542476" lon="9.117461207869107"><ele>97.0</ele><time>2026-04-24T08:16:42Z</time></trkpt><trkpt lat="45.345091507367535" lon="9.117267929989746"><ele>97.0</ele><time>2026-04-24T08:16:43Z</time></trkpt><trkpt lat="45.34493561858062" lon="9.11711181534074"><ele>97.0</ele><time>2026-04-24T08:16:44Z</time></trkpt><trkpt lat="45.344752667184586" lon="9.116914586030015"><ele>97.0</ele><time>2026-04-24T08:16:45Z</time></trkpt><trkpt lat="45.34460250253343" lon="9.116732734463671"><ele>97.0</ele><time>2026-04-24T08:16:46Z</time></trkpt><trkpt lat="45.34445310413631" lon="9.116554547423187"><ele>97.0</ele><time>2026-04-24T08:16:47Z</time></trkpt><trkpt lat="45.3442885277813" lon="9.116408469237914"><ele>97.0</ele><time>2026-04-24T08:16:48Z</time></trkpt><trkpt lat="45.344150544925576" lon="9.116216421637436"><ele>97.0</ele><time>2026-04-24T08:16:49Z</time></trkpt><trkpt lat="45.34398090229512" lon="9.116065070551734"><ele>97.0</ele><time>2026-04-24T08:16:50Z</time></trkpt><trkpt lat="45.3438352326378" lon="9.115882097305578"><ele>97.0</ele><time>2026-04-24T08:16:51Z</time></trkpt><trkpt lat="45.343684154323505" lon="9.115693570900609"><ele>97.0</ele><time>2026-04-24T08:16:52Z</time></trkpt><trkpt lat="45.34353985539321" lon="9.115515370472167"><ele>97.0</ele><time>2026-04-24T08:16:53Z</time></trkpt><trkpt lat="45.3433902466715" lon="9.115346552309479"><ele>97.0</ele><time>2026-04-24T08:16:54Z</time></trkpt><trkpt lat="45.343224048121094" lon="9.115193227791586"><ele>97.0</ele><time>2026-04-24T08:16:55Z</time></trkpt><trkpt lat="45.34308108953516" lon="9.115013314532273"><ele>97.0</ele><time>2026-04-24T08:16:56Z</time></trkpt><trkpt lat="45.34293249499042" lon="9.114847145467115"><ele>97.0</ele><time>2026-04-24T08:16:57Z</time></trkpt><trkpt lat="45.342779409487946" lon="9.114651168541057"><ele>97.0</ele><time>2026-04-24T08:16:58Z</time></trkpt><trkpt lat="45.3426303696596" lon="9.114505226890957"><ele>97.0</ele><time>2026-04-24T08:16:59Z</time></trkpt><trkpt lat="45.34249062512621" lon="9.114342249466159"><ele>97.0</ele><time>2026-04-24T08:17:00Z</time></trkpt><trkpt lat="45.34233497836288" lon="9.114138735971574"><ele>97.0</ele><time>2026-04-24T08:17:01Z</time></trkpt><trkpt lat="45.342177526508394" lon="9.113977509986803"><ele>97.33333333333334</ele><time>2026-04-24T08:17:02Z</time></trkpt><trkpt lat="45.342027680287615" lon="9.113819287186251"><ele>97.66666666666666</ele><time>2026-04-24T08:17:03Z</time></trkpt><trkpt lat="45.34188981159219" lon="9.113647399231215"><ele>98.0</ele><time>2026-04-24T08:17:04Z</time></trkpt><trkpt lat="45.341723042414834" lon="9.113492317332428"><ele>98.0</ele><time>2026-04-24T08:17:05Z</time></trkpt><trkpt lat="45.3415730256858" lon="9.113291190284176"><ele>98.0</ele><time>2026-04-24T08:17:06Z</time></trkpt><trkpt lat="45.34142207802421" lon="9.113117749557837"><ele>98.0</ele><time>2026-04-24T08:17:07Z</time></trkpt><trkpt lat="45.3412658380438" lon="9.112948352527381"><ele>97.66666666666666</ele><time>2026-04-24T08:17:08Z</time></trkpt><trkpt lat="45.34112230688168" lon="9.112791092484322"><ele>97.33333333333334</ele><time>2026-04-24T08:17:09Z</time></trkpt><trkpt lat="45.34097948038559" lon="9.112604539205325"><ele>97.0</ele><time>2026-04-24T08:17:10Z</time></trkpt><trkpt lat="45.34082848241237" lon="9.112439390050403"><ele>97.0</ele><time>2026-04-24T08:17:11Z</time></trkpt><trkpt lat="45.34068565778331" lon="9.112276929514389"><ele>97.0</ele><time>2026-04-24T08:17:12Z</time></trkpt><trkpt lat="45.34053811361294" lon="9.11208461038673"><ele>97.0</ele><time>2026-04-24T08:17:13Z</time></trkpt><trkpt lat="45.340383506561345" lon="9.111901096678562"><ele>96.66666666666667</ele><time>2026-04-24T08:17:14Z</time></trkpt><trkpt lat="45.340229569271045" lon="9.111735969459511"><ele>96.33333333333334</ele><time>2026-04-24T08:17:15Z</time></trkpt><trkpt lat="45.34006389871647" lon="9.111599380609315"><ele>96.0</ele><time>2026-04-24T08:17:16Z</time></trkpt><trkpt lat="45.339901587195044" lon="9.11142333981744"><ele>96.0</ele><time>2026-04-24T08:17:17Z</time></trkpt><trkpt lat="45.33977366155125" lon="9.111235600447635"><ele>96.0</ele><time>2026-04-24T08:17:18Z</time></trkpt><trkpt lat="45.33962535857283" lon="9.111084693684425"><ele>96.0</ele><time>2026-04-24T08:17:19Z</time></trkpt><trkpt lat="45.339486114595864" lon="9.110914281931253"><ele>96.0</ele><time>2026-04-24T08:17:20Z</time></trkpt><trkpt lat="45.3393284621914" lon="9.11076524282853"><ele>96.0</ele><time>2026-04-24T08:17:21Z</time></trkpt><trkpt lat="45.33917708238482" lon="9.110590063630383"><ele>96.0</ele><time>2026-04-24T08:17:22Z</time></trkpt><trkpt lat="45.33901916333523" lon="9.110417845596418"><ele>96.0</ele><time>2026-04-24T08:17:23Z</time></trkpt><trkpt lat="45.33886045697788" lon="9.110261774827583"><ele>96.0</ele><time>2026-04-24T08:17:24Z</time></trkpt><trkpt lat="45.33872416327744" lon="9.11007573385398"><ele>96.0</ele><time>2026-04-24T08:17:25Z</time></trkpt><trkpt lat="45.33856981209991" lon="9.109906588351619"><ele>96.0</ele><time>2026-04-24T08:17:26Z</time></trkpt><trkpt lat="45.33841848553719" lon="9.109752332614448"><ele>96.0</ele><time>2026-04-24T08:17:27Z</time></trkpt><trkpt lat="45.33828565036119" lon="9.109572646686926"><ele>96.0</ele><time>2026-04-24T08:17:28Z</time></trkpt><trkpt lat="45.33813808662758" lon="9.109424668871746"><ele>96.66666666666666</ele><time>2026-04-24T08:17:29Z</time></trkpt><trkpt lat="45.33801059262553" lon="9.109259790185549"><ele>97.33333333333333</ele><time>2026-04-24T08:17:30Z</time></trkpt><trkpt lat="45.33787718750995" lon="9.109077972686919"><ele>98.0</ele><time>2026-04-24T08:17:31Z</time></trkpt><trkpt lat="45.33773320936418" lon="9.108907520692556"><ele>98.33333333333333</ele><time>2026-04-24T08:17:32Z</time></trkpt><trkpt lat="45.337578190717124" lon="9.108748009727059"><ele>98.66666666666666</ele><time>2026-04-24T08:17:33Z</time></trkpt><trkpt lat="45.33742752221704" lon="9.108600618383383"><ele>99.0</ele><time>2026-04-24T08:17:34Z</time></trkpt><trkpt lat="45.33727444179515" lon="9.108424586190905"><ele>99.33333333333334</ele><time>2026-04-24T08:17:35Z</time></trkpt><trkpt lat="45.33712794855987" lon="9.108270627296006"><ele>99.66666666666667</ele><time>2026-04-24T08:17:36Z</time></trkpt><trkpt lat="45.336987209304375" lon="9.108115119290925"><ele>100.0</ele><time>2026-04-24T08:17:37Z</time></trkpt><trkpt lat="45.33684637112821" lon="9.107956138438915"><ele>100.0</ele><time>2026-04-24T08:17:38Z</time></trkpt><trkpt lat="45.33671200019248" lon="9.1077970677817"><ele>100.0</ele><time>2026-04-24T08:17:39Z</time></trkpt><trkpt lat="45.336583540408846" lon="9.10765433351567"><ele>100.0</ele><time>2026-04-24T08:17:40Z</time></trkpt><trkpt lat="45.33644754429537" lon="9.107527159078488"><ele>100.0</ele><time>2026-04-24T08:17:41Z</time></trkpt><trkpt lat="45.336345181280855" lon="9.107388546915322"><ele>100.0</ele><time>2026-04-24T08:17:42Z</time></trkpt><trkpt lat="45.336237141093136" lon="9.107280155961291"><ele>100.0</ele><time>2026-04-24T08:17:43Z</time></trkpt><trkpt lat="45.33615438598016" lon="9.10715190018662"><ele>100.0</ele><time>2026-04-24T08:17:44Z</time></trkpt><trkpt lat="45.336090993118546" lon="9.107025053235594"><ele>100.00000000000001</ele><time>2026-04-24T08:17:45Z</time></trkpt><trkpt lat="45.33600955388301" lon="9.106915187079201"><ele>100.0</ele><time>2026-04-24T08:17:46Z</time></trkpt><trkpt lat="45.33593642846375" lon="9.106819129113408"><ele>100.0</ele><time>2026-04-24T08:17:47Z</time></trkpt><trkpt lat="45.3358889851036" lon="9.106731885020372"><ele>100.0</ele><time>2026-04-24T08:17:48Z</time></trkpt><trkpt lat="45.33582774689064" lon="9.106663136632363"><ele>100.00000000000001</ele><time>2026-04-24T08:17:49Z</time></trkpt><trkpt lat="45.33578663863141" lon="9.10658872926323"><ele>100.0</ele><time>2026-04-24T08:17:50Z</time></trkpt><trkpt lat="45.335750982714586" lon="9.106510368007763"><ele>100.0</ele><time>2026-04-24T08:17:51Z</time></trkpt><trkpt lat="45.33571650167859" lon="9.10642289722508"><ele>100.0</ele><time>2026-04-24T08:17:52Z</time></trkpt><trkpt lat="45.3356515038264" lon="9.10632093704901"><ele>100.0</ele><time>2026-04-24T08:17:53Z</time></trkpt><trkpt lat="45.335571486030936" lon="9.106271691777296"><ele>100.0</ele><time>2026-04-24T08:17:54Z</time></trkpt><trkpt lat="45.335485119402016" lon="9.106212330983542"><ele>100.0</ele><time>2026-04-24T08:17:55Z</time></trkpt><trkpt lat="45.335379430528434" lon="9.106110192372332"><ele>100.0</ele><time>2026-04-24T08:17:56Z</time></trkpt><trkpt lat="45.335287742995014" lon="9.105989243079058"><ele>100.0</ele><time>2026-04-24T08:17:57Z</time></trkpt><trkpt lat="45.33517514937717" lon="9.105854581953965"><ele>100.0</ele><time>2026-04-24T08:17:58Z</time></trkpt><trkpt lat="45.335045968750855" lon="9.105732761558523"><ele>100.0</ele><time>2026-04-24T08:17:59Z</time></trkpt><trkpt lat="45.334910597077425" lon="9.105618594464705"><ele>100.0</ele><time>2026-04-24T08:18:00Z</time></trkpt><trkpt lat="45.334769941936194" lon="9.105514818388896"><ele>100.0</ele><time>2026-04-24T08:18:01Z</time></trkpt><trkpt lat="45.33462421887249" lon="9.105400693534197"><ele>100.0</ele><time>2026-04-24T08:18:02Z</time></trkpt><trkpt lat="45.334492869125505" lon="9.105261604299185"><ele>100.0</ele><time>2026-04-24T08:18:03Z</time></trkpt><trkpt lat="45.33435660928838" lon="9.105080870726418"><ele>100.0</ele><time>2026-04-24T08:18:03.999Z</time></trkpt><trkpt lat="45.33423015915743" lon="9.104922042263587"><ele>100.0</ele><time>2026-04-24T08:18:04.999Z</time></trkpt><trkpt lat="45.33410656661588" lon="9.104797206461397"><ele>99.75</ele><time>2026-04-24T08:18:05.999Z</time></trkpt><trkpt lat="45.33399881234091" lon="9.104645814379552"><ele>99.5</ele><time>2026-04-24T08:18:06.999Z</time></trkpt><trkpt lat="45.33391287293299" lon="9.104498964884797"><ele>99.25</ele><time>2026-04-24T08:18:07.999Z</time></trkpt><trkpt lat="45.33384504280746" lon="9.104410725705925"><ele>99.0</ele><time>2026-04-24T08:18:08.999Z</time></trkpt><trkpt lat="45.33375548599329" lon="9.104281637621531"><ele>99.5</ele><time>2026-04-24T08:18:09.999Z</time></trkpt><trkpt lat="45.333662150913256" lon="9.104202306522495"><ele>100.0</ele><time>2026-04-24T08:18:10.999Z</time></trkpt><trkpt lat="45.33356024773861" lon="9.104068048129303"><ele>100.5</ele><time>2026-04-24T08:18:11.999Z</time></trkpt><trkpt lat="45.33342640536018" lon="9.104059346189896"><ele>101.0</ele><time>2026-04-24T08:18:12.999Z</time></trkpt><trkpt lat="45.333281834203795" lon="9.104042799882459"><ele>101.0</ele><time>2026-04-24T08:18:13.999Z</time></trkpt><trkpt lat="45.333141810672906" lon="9.104035305681654"><ele>101.0</ele><time>2026-04-24T08:18:14.999Z</time></trkpt><trkpt lat="45.332991869068344" lon="9.104002485439842"><ele>101.0</ele><time>2026-04-24T08:18:15.999Z</time></trkpt><trkpt lat="45.332854235840685" lon="9.103991388021509"><ele>101.0</ele><time>2026-04-24T08:18:16.999Z</time></trkpt><trkpt lat="45.33270606465909" lon="9.10403516831967"><ele>101.0</ele><time>2026-04-24T08:18:17.999Z</time></trkpt><trkpt lat="45.33255200553164" lon="9.103964874817661"><ele>101.0</ele><time>2026-04-24T08:18:18.999Z</time></trkpt><trkpt lat="45.33241462823025" lon="9.103943806099892"><ele>101.0</ele><time>2026-04-24T08:18:19.999Z</time></trkpt><trkpt lat="45.332259497449684" lon="9.103901962766425"><ele>100.0</ele><time>2026-04-24T08:18:20.999Z</time></trkpt><trkpt lat="45.33210371900922" lon="9.103897576777722"><ele>99.0</ele><time>2026-04-24T08:18:21.999Z</time></trkpt><trkpt lat="45.33195238718096" lon="9.10387975086519"><ele>98.0</ele><time>2026-04-24T08:18:22.999Z</time></trkpt><trkpt lat="45.331804177537684" lon="9.103902904909896"><ele>98.0</ele><time>2026-04-24T08:18:23.999Z</time></trkpt><trkpt lat="45.33165263489955" lon="9.103828643757128"><ele>98.0</ele><time>2026-04-24T08:18:24.999Z</time></trkpt><trkpt lat="45.33149445715818" lon="9.103814718466992"><ele>98.0</ele><time>2026-04-24T08:18:25.999Z</time></trkpt><trkpt lat="45.33133349114988" lon="9.103785941641657"><ele>98.0</ele><time>2026-04-24T08:18:26.999Z</time></trkpt><trkpt lat="45.3311790568487" lon="9.103754407336922"><ele>98.0</ele><time>2026-04-24T08:18:27.999Z</time></trkpt><trkpt lat="45.33104361907757" lon="9.103713402729307"><ele>98.0</ele><time>2026-04-24T08:18:28.999Z</time></trkpt><trkpt lat="45.33088002463742" lon="9.103700378725039"><ele>98.0</ele><time>2026-04-24T08:18:29.999Z</time></trkpt><trkpt lat="45.33075209288192" lon="9.103657475957622"><ele>98.0</ele><time>2026-04-24T08:18:30.999Z</time></trkpt><trkpt lat="45.33059703974274" lon="9.10362837676743"><ele>98.0</ele><time>2026-04-24T08:18:31.999Z</time></trkpt><trkpt lat="45.33044497057062" lon="9.103599702126798"><ele>98.0</ele><time>2026-04-24T08:18:32.999Z</time></trkpt><trkpt lat="45.330290630689234" lon="9.103570517689956"><ele>98.25</ele><time>2026-04-24T08:18:33.999Z</time></trkpt><trkpt lat="45.33014675281354" lon="9.103566346304655"><ele>98.5</ele><time>2026-04-24T08:18:34.999Z</time></trkpt><trkpt lat="45.330015101505516" lon="9.103502228916263"><ele>98.75</ele><time>2026-04-24T08:18:35.999Z</time></trkpt><trkpt lat="45.329885037110195" lon="9.10345454963358"><ele>99.0</ele><time>2026-04-24T08:18:36.999Z</time></trkpt><trkpt lat="45.3297567825953" lon="9.103450930468554"><ele>99.0</ele><time>2026-04-24T08:18:37.999Z</time></trkpt><trkpt lat="45.329629234227625" lon="9.103411919583028"><ele>99.0</ele><time>2026-04-24T08:18:38.999Z</time></trkpt><trkpt lat="45.32951662180564" lon="9.103393286587877"><ele>99.0</ele><time>2026-04-24T08:18:39.999Z</time></trkpt><trkpt lat="45.32938698357802" lon="9.103343080012356"><ele>99.0</ele><time>2026-04-24T08:18:40.999Z</time></trkpt><trkpt lat="45.32928826376364" lon="9.103366658862543"><ele>99.0</ele><time>2026-04-24T08:18:41.999Z</time></trkpt><trkpt lat="45.329173659402535" lon="9.10332806888429"><ele>99.0</ele><time>2026-04-24T08:18:42.999Z</time></trkpt><trkpt lat="45.32904527993795" lon="9.103294547268792"><ele>99.0</ele><time>2026-04-24T08:18:43.999Z</time></trkpt><trkpt lat="45.32891194925272" lon="9.103270271729622"><ele>99.0</ele><time>2026-04-24T08:18:44.999Z</time></trkpt><trkpt lat="45.32874323480904" lon="9.103293094874191"><ele>99.0</ele><time>2026-04-24T08:18:45.999Z</time></trkpt><trkpt lat="45.32860233955471" lon="9.103253887370512"><ele>99.0</ele><time>2026-04-24T08:18:46.999Z</time></trkpt><trkpt lat="45.32847343692795" lon="9.10318401050301"><ele>99.0</ele><time>2026-04-24T08:18:47.999Z</time></trkpt><trkpt lat="45.3283377539306" lon="9.103149324464418"><ele>99.0</ele><time>2026-04-24T08:18:48.999Z</time></trkpt><trkpt lat="45.32818752580636" lon="9.10312679311285"><ele>98.75</ele><time>2026-04-24T08:18:49.999Z</time></trkpt><trkpt lat="45.32805092792236" lon="9.103086861453026"><ele>98.5</ele><time>2026-04-24T08:18:50.999Z</time></trkpt><trkpt lat="45.32790481634319" lon="9.103059180049756"><ele>98.25</ele><time>2026-04-24T08:18:51.999Z</time></trkpt><trkpt lat="45.327751275529344" lon="9.103047464570242"><ele>98.0</ele><time>2026-04-24T08:18:52.999Z</time></trkpt><trkpt lat="45.3276037238427" lon="9.103033240969658"><ele>98.0</ele><time>2026-04-24T08:18:53.999Z</time></trkpt><trkpt lat="45.32745232791642" lon="9.103014173445803"><ele>98.0</ele><time>2026-04-24T08:18:54.999Z</time></trkpt><trkpt lat="45.32730114051534" lon="9.102978465561199"><ele>98.0</ele><time>2026-04-24T08:18:55.999Z</time></trkpt><trkpt lat="45.32713854744329" lon="9.103029752290977"><ele>98.0</ele><time>2026-04-24T08:18:56.999Z</time></trkpt><trkpt lat="45.32700102876227" lon="9.10301699838211"><ele>98.0</ele><time>2026-04-24T08:18:57.999Z</time></trkpt><trkpt lat="45.326860234896834" lon="9.102981514902899"><ele>98.0</ele><time>2026-04-24T08:18:58.999Z</time></trkpt><trkpt lat="45.32672652015478" lon="9.10294445134952"><ele>98.0</ele><time>2026-04-24T08:18:59.999Z</time></trkpt><trkpt lat="45.326601156674165" lon="9.102908107000598"><ele>98.0</ele><time>2026-04-24T08:19:00.999Z</time></trkpt><trkpt lat="45.32646755888546" lon="9.102885150725644"><ele>98.0</ele><time>2026-04-24T08:19:01.999Z</time></trkpt><trkpt lat="45.32633758049857" lon="9.102821909677532"><ele>98.0</ele><time>2026-04-24T08:19:02.999Z</time></trkpt><trkpt lat="45.32621700119522" lon="9.102801247125297"><ele>98.0</ele><time>2026-04-24T08:19:03.999Z</time></trkpt><trkpt lat="45.32609320204441" lon="9.10280003932453"><ele>97.5</ele><time>2026-04-24T08:19:04.999Z</time></trkpt><trkpt lat="45.325976730913744" lon="9.102807669607504"><ele>97.0</ele><time>2026-04-24T08:19:05.999Z</time></trkpt><trkpt lat="45.325847988310414" lon="9.102837536605477"><ele>96.5</ele><time>2026-04-24T08:19:06.999Z</time></trkpt><trkpt lat="45.32573681436578" lon="9.102859723234744"><ele>96.0</ele><time>2026-04-24T08:19:07.999Z</time></trkpt><trkpt lat="45.325619237729676" lon="9.102900511691178"><ele>96.0</ele><time>2026-04-24T08:19:08.999Z</time></trkpt><trkpt lat="45.325485296611355" lon="9.102957292290593"><ele>96.0</ele><time>2026-04-24T08:19:09.999Z</time></trkpt><trkpt lat="45.325350542239285" lon="9.10300884562818"><ele>96.0</ele><time>2026-04-24T08:19:10.999Z</time></trkpt><trkpt lat="45.325250236150474" lon="9.10306451256837"><ele>96.0</ele><time>2026-04-24T08:19:11.999Z</time></trkpt><trkpt lat="45.3250974125641" lon="9.10310236042721"><ele>96.0</ele><time>2026-04-24T08:19:12.999Z</time></trkpt><trkpt lat="45.32493952983425" lon="9.10317612935085"><ele>96.0</ele><time>2026-04-24T08:19:13.999Z</time></trkpt><trkpt lat="45.32477951258712" lon="9.103230669152705"><ele>96.0</ele><time>2026-04-24T08:19:14.999Z</time></trkpt><trkpt lat="45.32460946541506" lon="9.103290054355996"><ele>96.33333333333334</ele><time>2026-04-24T08:19:15.999Z</time></trkpt><trkpt lat="45.32445284453203" lon="9.10335004963878"><ele>96.66666666666667</ele><time>2026-04-24T08:19:16.999Z</time></trkpt><trkpt lat="45.32430123216485" lon="9.103408126305018"><ele>97.0</ele><time>2026-04-24T08:19:17.999Z</time></trkpt><trkpt lat="45.32414580928711" lon="9.103465819069099"><ele>97.0</ele><time>2026-04-24T08:19:18.999Z</time></trkpt><trkpt lat="45.32400167399332" lon="9.103519877347917"><ele>97.0</ele><time>2026-04-24T08:19:19.999Z</time></trkpt><trkpt lat="45.323856902160784" lon="9.103574114650517"><ele>97.0</ele><time>2026-04-24T08:19:20.999Z</time></trkpt><trkpt lat="45.323724098272756" lon="9.103623569979698"><ele>97.0</ele><time>2026-04-24T08:19:21.999Z</time></trkpt><trkpt lat="45.323580242821194" lon="9.103677140876904"><ele>97.25</ele><time>2026-04-24T08:19:22.999Z</time></trkpt><trkpt lat="45.323440889889" lon="9.10372916748284"><ele>97.5</ele><time>2026-04-24T08:19:23.999Z</time></trkpt><trkpt lat="45.32330717250625" lon="9.103792072390231"><ele>97.75</ele><time>2026-04-24T08:19:24.999Z</time></trkpt><trkpt lat="45.323157073814045" lon="9.103856473090405"><ele>98.0</ele><time>2026-04-24T08:19:25.999Z</time></trkpt><trkpt lat="45.32300978851338" lon="9.103889806292225"><ele>98.33333333333333</ele><time>2026-04-24T08:19:26.999Z</time></trkpt><trkpt lat="45.322852151499994" lon="9.103947180121985"><ele>98.66666666666666</ele><time>2026-04-24T08:19:27.999Z</time></trkpt><trkpt lat="45.32268666697204" lon="9.104007410231043"><ele>99.0</ele><time>2026-04-24T08:19:28.999Z</time></trkpt><trkpt lat="45.32253088318256" lon="9.104064080845252"><ele>98.33333333333334</ele><time>2026-04-24T08:19:29.999Z</time></trkpt><trkpt lat="45.322357456236105" lon="9.104126824335049"><ele>97.66666666666667</ele><time>2026-04-24T08:19:30.999Z</time></trkpt><trkpt lat="45.322187715605054" lon="9.104188232152557"><ele>97.0</ele><time>2026-04-24T08:19:31.999Z</time></trkpt><trkpt lat="45.322019496764945" lon="9.104249089396209"><ele>97.0</ele><time>2026-04-24T08:19:32.999Z</time></trkpt><trkpt lat="45.32185349380619" lon="9.104309147015915"><ele>97.0</ele><time>2026-04-24T08:19:33.999Z</time></trkpt><trkpt lat="45.32168359301406" lon="9.104370612709149"><ele>97.0</ele><time>2026-04-24T08:19:34.999Z</time></trkpt><trkpt lat="45.32151229754287" lon="9.104432583035944"><ele>96.66666666666667</ele><time>2026-04-24T08:19:35.999Z</time></trkpt><trkpt lat="45.321328732514644" lon="9.10449899214806"><ele>96.33333333333334</ele><time>2026-04-24T08:19:36.999Z</time></trkpt><trkpt lat="45.32116127034914" lon="9.104560254189302"><ele>96.0</ele><time>2026-04-24T08:19:37.999Z</time></trkpt><trkpt lat="45.32099087447795" lon="9.10462319918667"><ele>96.0</ele><time>2026-04-24T08:19:38.999Z</time></trkpt><trkpt lat="45.32082347868327" lon="9.104684733670881"><ele>96.0</ele><time>2026-04-24T08:19:39.999Z</time></trkpt><trkpt lat="45.320660240339656" lon="9.104744672474908"><ele>96.0</ele><time>2026-04-24T08:19:40.999Z</time></trkpt><trkpt lat="45.320495840471935" lon="9.104805037760215"><ele>96.0</ele><time>2026-04-24T08:19:41.999Z</time></trkpt><trkpt lat="45.32033811906319" lon="9.104870428623892"><ele>96.0</ele><time>2026-04-24T08:19:42.999Z</time></trkpt><trkpt lat="45.32017433182373" lon="9.104923633831728"><ele>96.0</ele><time>2026-04-24T08:19:43.999Z</time></trkpt><trkpt lat="45.32001499725811" lon="9.104981545214747"><ele>96.0</ele><time>2026-04-24T08:19:44.999Z</time></trkpt><trkpt lat="45.31986653235251" lon="9.105035327050228"><ele>96.0</ele><time>2026-04-24T08:19:45.999Z</time></trkpt><trkpt lat="45.31971141222437" lon="9.105108320214594"><ele>96.0</ele><time>2026-04-24T08:19:46.999Z</time></trkpt><trkpt lat="45.31955533209158" lon="9.105167620386322"><ele>95.75</ele><time>2026-04-24T08:19:47.999Z</time></trkpt><trkpt lat="45.31941378504675" lon="9.105201076808076"><ele>95.5</ele><time>2026-04-24T08:19:48.999Z</time></trkpt><trkpt lat="45.31927781076691" lon="9.105251448980978"><ele>95.25</ele><time>2026-04-24T08:19:49.999Z</time></trkpt><trkpt lat="45.31914896607381" lon="9.105297096823646"><ele>95.0</ele><time>2026-04-24T08:19:50.999Z</time></trkpt><trkpt lat="45.31904054711268" lon="9.105335862637173"><ele>95.0</ele><time>2026-04-24T08:19:51.999Z</time></trkpt><trkpt lat="45.318937720937846" lon="9.105372628554575"><ele>95.0</ele><time>2026-04-24T08:19:52.999Z</time></trkpt><trkpt lat="45.31881851314117" lon="9.105415251752945"><ele>95.0</ele><time>2026-04-24T08:19:53.999Z</time></trkpt><trkpt lat="45.31872355590655" lon="9.105449204075578"><ele>95.0</ele><time>2026-04-24T08:19:54.999Z</time></trkpt><trkpt lat="45.31859484466212" lon="9.105496229439641"><ele>95.5</ele><time>2026-04-24T08:19:55.999Z</time></trkpt><trkpt lat="45.31848557377549" lon="9.105536170213801"><ele>96.0</ele><time>2026-04-24T08:19:56.998Z</time></trkpt><trkpt lat="45.31837288783025" lon="9.105599898528705"><ele>96.5</ele><time>2026-04-24T08:19:57.998Z</time></trkpt><trkpt lat="45.318259299855804" lon="9.105641608162934"><ele>97.0</ele><time>2026-04-24T08:19:58.998Z</time></trkpt><trkpt lat="45.31815618471252" lon="9.105656569541702"><ele>96.8</ele><time>2026-04-24T08:19:59.998Z</time></trkpt><trkpt lat="45.318052645243334" lon="9.105694415662644"><ele>96.6</ele><time>2026-04-24T08:20:00.998Z</time></trkpt><trkpt lat="45.31794051909557" lon="9.10575478305373"><ele>96.39999999999999</ele><time>2026-04-24T08:20:01.998Z</time></trkpt><trkpt lat="45.317831840351545" lon="9.10579437632444"><ele>96.19999999999999</ele><time>2026-04-24T08:20:02.998Z</time></trkpt><trkpt lat="45.31772755508173" lon="9.105812735870318"><ele>96.0</ele><time>2026-04-24T08:20:03.998Z</time></trkpt><trkpt lat="45.317623498362096" lon="9.105850162888702"><ele>96.0</ele><time>2026-04-24T08:20:04.998Z</time></trkpt><trkpt lat="45.317532601263" lon="9.105882857961968"><ele>96.0</ele><time>2026-04-24T08:20:05.998Z</time></trkpt><trkpt lat="45.31747020272591" lon="9.105905648018995"><ele>96.0</ele><time>2026-04-24T08:20:06.998Z</time></trkpt><trkpt lat="45.317406421180415" lon="9.105928806623186"><ele>96.0</ele><time>2026-04-24T08:20:07.998Z</time></trkpt><trkpt lat="45.317319582323805" lon="9.10596119326901"><ele>96.0</ele><time>2026-04-24T08:20:09.998Z</time></trkpt><trkpt lat="45.317255602141564" lon="9.105988440378313"><ele>96.0</ele><time>2026-04-24T08:20:10.998Z</time></trkpt><trkpt lat="45.317170554066855" lon="9.106017004839579"><ele>96.0</ele><time>2026-04-24T08:20:13.998Z</time></trkpt><trkpt lat="45.317047672179605" lon="9.106056650570551"><ele>96.0</ele><time>2026-04-24T08:20:15.998Z</time></trkpt><trkpt lat="45.31694978203384" lon="9.106096310389825"><ele>96.0</ele><time>2026-04-24T08:20:16.998Z</time></trkpt><trkpt lat="45.31683940063321" lon="9.106128647261901"><ele>96.0</ele><time>2026-04-24T08:20:17.998Z</time></trkpt><trkpt lat="45.31672399603376" lon="9.106139818975803"><ele>96.0</ele><time>2026-04-24T08:20:18.998Z</time></trkpt><trkpt lat="45.316634560841614" lon="9.106208718723593"><ele>96.0</ele><time>2026-04-24T08:20:19.998Z</time></trkpt><trkpt lat="45.31647288105846" lon="9.106278024600838"><ele>96.0</ele><time>2026-04-24T08:20:20.998Z</time></trkpt><trkpt lat="45.31630086352056" lon="9.106324339434252"><ele>96.0</ele><time>2026-04-24T08:20:21.998Z</time></trkpt><trkpt lat="45.3161315872681" lon="9.106389924656979"><ele>95.66666666666667</ele><time>2026-04-24T08:20:22.998Z</time></trkpt><trkpt lat="45.31595613527545" lon="9.106446445116454"><ele>95.33333333333334</ele><time>2026-04-24T08:20:23.998Z</time></trkpt><trkpt lat="45.31577025011076" lon="9.106523198713981"><ele>95.0</ele><time>2026-04-24T08:20:24.998Z</time></trkpt><trkpt lat="45.31557935835976" lon="9.106577504646562"><ele>94.66666666666667</ele><time>2026-04-24T08:20:25.998Z</time></trkpt><trkpt lat="45.31539087797216" lon="9.106643274819453"><ele>94.33333333333333</ele><time>2026-04-24T08:20:26.998Z</time></trkpt><trkpt lat="45.31520346438416" lon="9.106708373525159"><ele>94.0</ele><time>2026-04-24T08:20:27.998Z</time></trkpt><trkpt lat="45.31500937593584" lon="9.106775585436912"><ele>94.0</ele><time>2026-04-24T08:20:28.998Z</time></trkpt><trkpt lat="45.314800863041604" lon="9.106847792466652"><ele>94.0</ele><time>2026-04-24T08:20:29.998Z</time></trkpt><trkpt lat="45.31458232445058" lon="9.106923471333971"><ele>94.0</ele><time>2026-04-24T08:20:30.998Z</time></trkpt><trkpt lat="45.314368324299735" lon="9.106997578587192"><ele>94.0</ele><time>2026-04-24T08:20:31.998Z</time></trkpt><trkpt lat="45.31415507732414" lon="9.107074075443307"><ele>94.0</ele><time>2026-04-24T08:20:32.998Z</time></trkpt><trkpt lat="45.3139417132581" lon="9.107151934563703"><ele>94.0</ele><time>2026-04-24T08:20:33.998Z</time></trkpt><trkpt lat="45.313724465586894" lon="9.107232489360205"><ele>94.0</ele><time>2026-04-24T08:20:34.998Z</time></trkpt><trkpt lat="45.3135083715052" lon="9.107312484378092"><ele>94.0</ele><time>2026-04-24T08:20:35.998Z</time></trkpt><trkpt lat="45.313300014973684" lon="9.107389378059585"><ele>94.0</ele><time>2026-04-24T08:20:36.998Z</time></trkpt><trkpt lat="45.31307386461109" lon="9.107473584173885"><ele>93.5</ele><time>2026-04-24T08:20:37.998Z</time></trkpt><trkpt lat="45.31285164562745" lon="9.107556326388748"><ele>93.0</ele><time>2026-04-24T08:20:38.998Z</time></trkpt><trkpt lat="45.31263829153248" lon="9.107635767801735"><ele>93.0</ele><time>2026-04-24T08:20:39.998Z</time></trkpt><trkpt lat="45.31242760828312" lon="9.107714289079311"><ele>93.0</ele><time>2026-04-24T08:20:40.998Z</time></trkpt><trkpt lat="45.31220851839535" lon="9.107795949382057"><ele>93.0</ele><time>2026-04-24T08:20:41.998Z</time></trkpt><trkpt lat="45.3120013132021" lon="9.107873179955952"><ele>93.0</ele><time>2026-04-24T08:20:42.998Z</time></trkpt><trkpt lat="45.3117928113784" lon="9.107967617080531"><ele>93.0</ele><time>2026-04-24T08:20:43.998Z</time></trkpt><trkpt lat="45.31157922039136" lon="9.108030991879957"><ele>93.0</ele><time>2026-04-24T08:20:44.998Z</time></trkpt><trkpt lat="45.31137046272276" lon="9.108108524675929"><ele>93.33333333333333</ele><time>2026-04-24T08:20:45.998Z</time></trkpt><trkpt lat="45.31117639402822" lon="9.108181798756384"><ele>93.66666666666666</ele><time>2026-04-24T08:20:46.998Z</time></trkpt><trkpt lat="45.310976112461674" lon="9.108271003038729"><ele>94.0</ele><time>2026-04-24T08:20:47.998Z</time></trkpt><trkpt lat="45.31077134001014" lon="9.108353662558429"><ele>94.5</ele><time>2026-04-24T08:20:48.998Z</time></trkpt><trkpt lat="45.31055264675044" lon="9.108420474016778"><ele>95.0</ele><time>2026-04-24T08:20:49.998Z</time></trkpt><trkpt lat="45.310313650231244" lon="9.108505233098862"><ele>95.0</ele><time>2026-04-24T08:20:50.998Z</time></trkpt><trkpt lat="45.310110006792165" lon="9.108582685506388"><ele>95.0</ele><time>2026-04-24T08:20:51.998Z</time></trkpt><trkpt lat="45.309887998515244" lon="9.108671061845214"><ele>95.0</ele><time>2026-04-24T08:20:52.998Z</time></trkpt><trkpt lat="45.30967855458383" lon="9.1087581031978"><ele>94.66666666666667</ele><time>2026-04-24T08:20:53.998Z</time></trkpt><trkpt lat="45.309469428547416" lon="9.108806922071972"><ele>94.33333333333333</ele><time>2026-04-24T08:20:54.998Z</time></trkpt><trkpt lat="45.309248161016285" lon="9.10891694023162"><ele>94.0</ele><time>2026-04-24T08:20:55.998Z</time></trkpt><trkpt lat="45.30904725130114" lon="9.108998266903237"><ele>94.0</ele><time>2026-04-24T08:20:56.998Z</time></trkpt><trkpt lat="45.30881434482816" lon="9.109075278609472"><ele>94.0</ele><time>2026-04-24T08:20:57.998Z</time></trkpt><trkpt lat="45.30861280315242" lon="9.109159326276664"><ele>94.0</ele><time>2026-04-24T08:20:58.998Z</time></trkpt><trkpt lat="45.308396934539545" lon="9.109243231870732"><ele>94.0</ele><time>2026-04-24T08:20:59.998Z</time></trkpt><trkpt lat="45.30818601547434" lon="9.109325213634515"><ele>94.0</ele><time>2026-04-24T08:21:00.998Z</time></trkpt><trkpt lat="45.30797124932652" lon="9.109408690639045"><ele>94.0</ele><time>2026-04-24T08:21:01.998Z</time></trkpt><trkpt lat="45.30774659080376" lon="9.109496012722575"><ele>93.0</ele><time>2026-04-24T08:21:02.998Z</time></trkpt><trkpt lat="45.307525414704976" lon="9.1095810949804"><ele>92.0</ele><time>2026-04-24T08:21:03.998Z</time></trkpt><trkpt lat="45.307311243247874" lon="9.109662409224896"><ele>92.66666666666667</ele><time>2026-04-24T08:21:04.998Z</time></trkpt><trkpt lat="45.307094060393005" lon="9.109744175075035"><ele>93.33333333333333</ele><time>2026-04-24T08:21:05.998Z</time></trkpt><trkpt lat="45.30689277748789" lon="9.109821170146027"><ele>94.0</ele><time>2026-04-24T08:21:06.998Z</time></trkpt><trkpt lat="45.30669713345682" lon="9.109895587876698"><ele>94.0</ele><time>2026-04-24T08:21:07.998Z</time></trkpt><trkpt lat="45.30649385089823" lon="9.109994033546718"><ele>94.0</ele><time>2026-04-24T08:21:08.998Z</time></trkpt><trkpt lat="45.30628526382946" lon="9.110087142693468"><ele>94.0</ele><time>2026-04-24T08:21:09.998Z</time></trkpt><trkpt lat="45.306076399731374" lon="9.1101480893937"><ele>95.0</ele><time>2026-04-24T08:21:10.998Z</time></trkpt><trkpt lat="45.305873530748244" lon="9.110301949374193"><ele>96.0</ele><time>2026-04-24T08:21:11.998Z</time></trkpt><trkpt lat="45.30563305945422" lon="9.110350794695478"><ele>96.0</ele><time>2026-04-24T08:21:12.998Z</time></trkpt><trkpt lat="45.305421409827225" lon="9.110453309467573"><ele>96.0</ele><time>2026-04-24T08:21:13.998Z</time></trkpt><trkpt lat="45.30521776489769" lon="9.110549507517568"><ele>96.0</ele><time>2026-04-24T08:21:14.998Z</time></trkpt><trkpt lat="45.304991740716034" lon="9.110615024811157"><ele>96.0</ele><time>2026-04-24T08:21:15.998Z</time></trkpt><trkpt lat="45.304781210157245" lon="9.110711196584122"><ele>96.0</ele><time>2026-04-24T08:21:16.998Z</time></trkpt><trkpt lat="45.30456538197316" lon="9.110795326991472"><ele>96.0</ele><time>2026-04-24T08:21:17.998Z</time></trkpt><trkpt lat="45.304347380887684" lon="9.110844069597547"><ele>95.0</ele><time>2026-04-24T08:21:18.998Z</time></trkpt><trkpt lat="45.30413338260885" lon="9.110929433048296"><ele>94.0</ele><time>2026-04-24T08:21:19.998Z</time></trkpt><trkpt lat="45.30390625805393" lon="9.110925143675274"><ele>93.0</ele><time>2026-04-24T08:21:20.998Z</time></trkpt><trkpt lat="45.303681681238885" lon="9.111004816972413"><ele>92.66666666666667</ele><time>2026-04-24T08:21:21.998Z</time></trkpt><trkpt lat="45.303466402618255" lon="9.111081210347956"><ele>92.33333333333334</ele><time>2026-04-24T08:21:22.998Z</time></trkpt><trkpt lat="45.303257012906634" lon="9.111156317105241"><ele>92.0</ele><time>2026-04-24T08:21:23.998Z</time></trkpt><trkpt lat="45.30304311641614" lon="9.111233039865988"><ele>92.0</ele><time>2026-04-24T08:21:24.998Z</time></trkpt><trkpt lat="45.30282139197342" lon="9.111312570429153"><ele>92.0</ele><time>2026-04-24T08:21:25.998Z</time></trkpt><trkpt lat="45.30260679918194" lon="9.1113897374555"><ele>92.0</ele><time>2026-04-24T08:21:26.998Z</time></trkpt><trkpt lat="45.30239228474016" lon="9.111466971289474"><ele>92.0</ele><time>2026-04-24T08:21:27.998Z</time></trkpt><trkpt lat="45.30218373168115" lon="9.11154205878399"><ele>92.0</ele><time>2026-04-24T08:21:28.998Z</time></trkpt><trkpt lat="45.301966819858364" lon="9.111620155798457"><ele>92.0</ele><time>2026-04-24T08:21:29.998Z</time></trkpt><trkpt lat="45.301744261872976" lon="9.11170040766021"><ele>92.0</ele><time>2026-04-24T08:21:30.998Z</time></trkpt><trkpt lat="45.301528993393354" lon="9.111778358063253"><ele>92.0</ele><time>2026-04-24T08:21:31.998Z</time></trkpt><trkpt lat="45.30131703161591" lon="9.11185538283338"><ele>92.0</ele><time>2026-04-24T08:21:32.998Z</time></trkpt><trkpt lat="45.30110376466089" lon="9.111934786679932"><ele>92.0</ele><time>2026-04-24T08:21:33.998Z</time></trkpt><trkpt lat="45.300894441230234" lon="9.112014744707844"><ele>92.0</ele><time>2026-04-24T08:21:34.998Z</time></trkpt><trkpt lat="45.30067727856351" lon="9.11209769716507"><ele>92.0</ele><time>2026-04-24T08:21:35.998Z</time></trkpt><trkpt lat="45.300447439878475" lon="9.11218384311484"><ele>92.0</ele><time>2026-04-24T08:21:36.998Z</time></trkpt><trkpt lat="45.300232130776806" lon="9.112262667578916"><ele>92.0</ele><time>2026-04-24T08:21:37.998Z</time></trkpt><trkpt lat="45.30002229573438" lon="9.112340056994222"><ele>92.0</ele><time>2026-04-24T08:21:38.998Z</time></trkpt><trkpt lat="45.29981441585632" lon="9.112417885254839"><ele>91.66666666666667</ele><time>2026-04-24T08:21:39.998Z</time></trkpt><trkpt lat="45.29959983768271" lon="9.112499877010983"><ele>91.33333333333333</ele><time>2026-04-24T08:21:40.998Z</time></trkpt><trkpt lat="45.29940462283543" lon="9.112574469910115"><ele>91.0</ele><time>2026-04-24T08:21:41.998Z</time></trkpt><trkpt lat="45.29919538358934" lon="9.112654421602032"><ele>91.0</ele><time>2026-04-24T08:21:42.998Z</time></trkpt><trkpt lat="45.29898909065847" lon="9.112733247489988"><ele>91.0</ele><time>2026-04-24T08:21:43.998Z</time></trkpt><trkpt lat="45.29878942567345" lon="9.112809265645371"><ele>91.0</ele><time>2026-04-24T08:21:44.998Z</time></trkpt><trkpt lat="45.29858996064255" lon="9.112884991104737"><ele>91.0</ele><time>2026-04-24T08:21:45.998Z</time></trkpt><trkpt lat="45.298381473435306" lon="9.112964141699846"><ele>91.0</ele><time>2026-04-24T08:21:46.998Z</time></trkpt><trkpt lat="45.298177341685445" lon="9.11304163873202"><ele>91.0</ele><time>2026-04-24T08:21:47.998Z</time></trkpt><trkpt lat="45.29797108192092" lon="9.113119672092138"><ele>91.33333333333333</ele><time>2026-04-24T08:21:48.998Z</time></trkpt><trkpt lat="45.29776777921568" lon="9.113196300842922"><ele>91.66666666666667</ele><time>2026-04-24T08:21:49.997Z</time></trkpt><trkpt lat="45.29756876857067" lon="9.113271313932668"><ele>92.0</ele><time>2026-04-24T08:21:50.997Z</time></trkpt><trkpt lat="45.29736655779622" lon="9.11334753119913"><ele>92.33333333333334</ele><time>2026-04-24T08:21:51.997Z</time></trkpt><trkpt lat="45.297156852879304" lon="9.113426573156843"><ele>92.66666666666667</ele><time>2026-04-24T08:21:52.997Z</time></trkpt><trkpt lat="45.296952694242535" lon="9.113503524611215"><ele>93.0</ele><time>2026-04-24T08:21:53.997Z</time></trkpt><trkpt lat="45.296752971730385" lon="9.113578804002117"><ele>93.0</ele><time>2026-04-24T08:21:54.997Z</time></trkpt><trkpt lat="45.29654715087317" lon="9.113656693514713"><ele>93.0</ele><time>2026-04-24T08:21:55.997Z</time></trkpt><trkpt lat="45.29634016492197" lon="9.11374965425592"><ele>93.0</ele><time>2026-04-24T08:21:56.997Z</time></trkpt><trkpt lat="45.29613481980227" lon="9.113822402898561"><ele>92.33333333333333</ele><time>2026-04-24T08:21:57.997Z</time></trkpt><trkpt lat="45.29592202851515" lon="9.113874776724991"><ele>91.66666666666666</ele><time>2026-04-24T08:21:58.997Z</time></trkpt><trkpt lat="45.29573296065448" lon="9.113962930698424"><ele>91.0</ele><time>2026-04-24T08:21:59.997Z</time></trkpt><trkpt lat="45.295509930397465" lon="9.114049567066653"><ele>91.0</ele><time>2026-04-24T08:22:00.997Z</time></trkpt><trkpt lat="45.295303130105864" lon="9.114127897811608"><ele>91.0</ele><time>2026-04-24T08:22:01.997Z</time></trkpt><trkpt lat="45.295099309693356" lon="9.114221249716834"><ele>91.0</ele><time>2026-04-24T08:22:02.997Z</time></trkpt><trkpt lat="45.294895187211964" lon="9.114291464598633"><ele>91.0</ele><time>2026-04-24T08:22:03.997Z</time></trkpt><trkpt lat="45.29470241050967" lon="9.114353213537463"><ele>91.0</ele><time>2026-04-24T08:22:04.997Z</time></trkpt><trkpt lat="45.29450722791937" lon="9.114447135262743"><ele>91.0</ele><time>2026-04-24T08:22:05.997Z</time></trkpt><trkpt lat="45.2942889234191" lon="9.114508243985055"><ele>91.0</ele><time>2026-04-24T08:22:06.997Z</time></trkpt><trkpt lat="45.29408099797462" lon="9.11458620248934"><ele>91.0</ele><time>2026-04-24T08:22:07.997Z</time></trkpt><trkpt lat="45.2938850207442" lon="9.114659854274695"><ele>91.0</ele><time>2026-04-24T08:22:08.997Z</time></trkpt><trkpt lat="45.29368713537883" lon="9.11473463924336"><ele>91.0</ele><time>2026-04-24T08:22:09.997Z</time></trkpt><trkpt lat="45.293486685490834" lon="9.11481651875285"><ele>91.0</ele><time>2026-04-24T08:22:10.997Z</time></trkpt><trkpt lat="45.293278884743785" lon="9.114893979768382"><ele>91.0</ele><time>2026-04-24T08:22:11.997Z</time></trkpt><trkpt lat="45.293075276058296" lon="9.1149352373033"><ele>90.66666666666666</ele><time>2026-04-24T08:22:12.997Z</time></trkpt><trkpt lat="45.292885192834355" lon="9.115030772130902"><ele>90.33333333333333</ele><time>2026-04-24T08:22:13.997Z</time></trkpt><trkpt lat="45.292681072266106" lon="9.115105938897152"><ele>90.0</ele><time>2026-04-24T08:22:14.997Z</time></trkpt><trkpt lat="45.29247270815416" lon="9.11519045913965"><ele>90.0</ele><time>2026-04-24T08:22:15.997Z</time></trkpt><trkpt lat="45.29226661186418" lon="9.11526693731623"><ele>90.0</ele><time>2026-04-24T08:22:16.997Z</time></trkpt><trkpt lat="45.29206442073415" lon="9.115343033540658"><ele>90.0</ele><time>2026-04-24T08:22:17.997Z</time></trkpt><trkpt lat="45.291863962190945" lon="9.115418582299522"><ele>90.0</ele><time>2026-04-24T08:22:18.997Z</time></trkpt><trkpt lat="45.291661619509796" lon="9.115494841131275"><ele>90.0</ele><time>2026-04-24T08:22:19.997Z</time></trkpt><trkpt lat="45.29146029803651" lon="9.11557066760431"><ele>90.0</ele><time>2026-04-24T08:22:20.997Z</time></trkpt><trkpt lat="45.291270725767816" lon="9.11566160633109"><ele>90.0</ele><time>2026-04-24T08:22:21.997Z</time></trkpt><trkpt lat="45.29107759821509" lon="9.11571281532959"><ele>90.0</ele><time>2026-04-24T08:22:22.997Z</time></trkpt><trkpt lat="45.29087027221649" lon="9.115789823252397"><ele>90.0</ele><time>2026-04-24T08:22:23.997Z</time></trkpt><trkpt lat="45.29067904094026" lon="9.115966229578005"><ele>90.33333333333333</ele><time>2026-04-24T08:22:24.997Z</time></trkpt><trkpt lat="45.290447804267245" lon="9.115981576719825"><ele>90.66666666666666</ele><time>2026-04-24T08:22:25.997Z</time></trkpt><trkpt lat="45.29023839198279" lon="9.11605562478564"><ele>91.0</ele><time>2026-04-24T08:22:26.997Z</time></trkpt><trkpt lat="45.29005327258389" lon="9.11615930530572"><ele>91.0</ele><time>2026-04-24T08:22:27.997Z</time></trkpt><trkpt lat="45.2898329926142" lon="9.11617599699653"><ele>91.0</ele><time>2026-04-24T08:22:28.997Z</time></trkpt><trkpt lat="45.2896309791083" lon="9.11625138579276"><ele>91.0</ele><time>2026-04-24T08:22:29.997Z</time></trkpt><trkpt lat="45.289423512783365" lon="9.116328809502825"><ele>90.33333333333333</ele><time>2026-04-24T08:22:30.997Z</time></trkpt><trkpt lat="45.28920963265661" lon="9.116408626738467"><ele>89.66666666666667</ele><time>2026-04-24T08:22:31.997Z</time></trkpt><trkpt lat="45.28900194522642" lon="9.116486132587438"><ele>89.0</ele><time>2026-04-24T08:22:32.997Z</time></trkpt><trkpt lat="45.28879987658717" lon="9.116561542199388"><ele>90.0</ele><time>2026-04-24T08:22:33.997Z</time></trkpt><trkpt lat="45.288632231869904" lon="9.116624105032303"><ele>91.0</ele><time>2026-04-24T08:22:34.997Z</time></trkpt><trkpt lat="45.28843587082065" lon="9.116697384343873"><ele>92.0</ele><time>2026-04-24T08:22:35.997Z</time></trkpt><trkpt lat="45.2882406138191" lon="9.116770253658506"><ele>91.66666666666667</ele><time>2026-04-24T08:22:36.997Z</time></trkpt><trkpt lat="45.28804742593844" lon="9.116842348812819"><ele>91.33333333333333</ele><time>2026-04-24T08:22:37.997Z</time></trkpt><trkpt lat="45.287830126530814" lon="9.116923442087224"><ele>91.0</ele><time>2026-04-24T08:22:38.997Z</time></trkpt><trkpt lat="45.28762670485279" lon="9.117021178339247"><ele>91.0</ele><time>2026-04-24T08:22:39.997Z</time></trkpt><trkpt lat="45.28741670339787" lon="9.117077726114914"><ele>91.0</ele><time>2026-04-24T08:22:40.997Z</time></trkpt><trkpt lat="45.287209032530924" lon="9.11715481144869"><ele>91.0</ele><time>2026-04-24T08:22:41.997Z</time></trkpt><trkpt lat="45.28701780028832" lon="9.117223676453387"><ele>91.0</ele><time>2026-04-24T08:22:42.997Z</time></trkpt><trkpt lat="45.286816924332484" lon="9.11729601430732"><ele>91.0</ele><time>2026-04-24T08:22:43.997Z</time></trkpt><trkpt lat="45.286611389810716" lon="9.11737195834236"><ele>91.0</ele><time>2026-04-24T08:22:44.997Z</time></trkpt><trkpt lat="45.28640838812243" lon="9.117446152733768"><ele>90.66666666666666</ele><time>2026-04-24T08:22:45.997Z</time></trkpt><trkpt lat="45.28620598456293" lon="9.117522701844578"><ele>90.33333333333333</ele><time>2026-04-24T08:22:46.997Z</time></trkpt><trkpt lat="45.28600868265191" lon="9.117598672126661"><ele>90.0</ele><time>2026-04-24T08:22:47.997Z</time></trkpt><trkpt lat="45.28583455173154" lon="9.117664322142222"><ele>90.0</ele><time>2026-04-24T08:22:48.997Z</time></trkpt><trkpt lat="45.28565092904253" lon="9.11773386279018"><ele>90.0</ele><time>2026-04-24T08:22:49.997Z</time></trkpt><trkpt lat="45.28545820944316" lon="9.117807035477933"><ele>90.0</ele><time>2026-04-24T08:22:50.997Z</time></trkpt><trkpt lat="45.285293250776114" lon="9.117872001327319"><ele>89.66666666666667</ele><time>2026-04-24T08:22:51.997Z</time></trkpt><trkpt lat="45.2851380894488" lon="9.117928023544547"><ele>89.33333333333334</ele><time>2026-04-24T08:22:52.997Z</time></trkpt><trkpt lat="45.28499403480842" lon="9.117970266672403"><ele>89.0</ele><time>2026-04-24T08:22:53.997Z</time></trkpt><trkpt lat="45.284851539369264" lon="9.11799608192289"><ele>89.5</ele><time>2026-04-24T08:22:54.997Z</time></trkpt><trkpt lat="45.28470206825463" lon="9.117992156739328"><ele>90.0</ele><time>2026-04-24T08:22:55.997Z</time></trkpt><trkpt lat="45.28458120337714" lon="9.117957128096258"><ele>90.5</ele><time>2026-04-24T08:22:56.997Z</time></trkpt><trkpt lat="45.2844761928935" lon="9.117901245425928"><ele>91.0</ele><time>2026-04-24T08:22:57.997Z</time></trkpt><trkpt lat="45.284357234592065" lon="9.11791416909483"><ele>91.0</ele><time>2026-04-24T08:22:58.997Z</time></trkpt><trkpt lat="45.2842872533987" lon="9.117822493286566"><ele>91.0</ele><time>2026-04-24T08:22:59.997Z</time></trkpt><trkpt lat="45.284234297606915" lon="9.117725378292107"><ele>91.0</ele><time>2026-04-24T08:23:01.001Z</time></trkpt><trkpt lat="45.28419558405364" lon="9.11765105077315"><ele>91.0</ele><time>2026-04-24T08:23:02.001Z</time></trkpt><trkpt lat="45.28413844643522" lon="9.11749949212392"><ele>91.0</ele><time>2026-04-24T08:23:04.001Z</time></trkpt><trkpt lat="45.28411321694917" lon="9.117400745520639"><ele>91.0</ele><time>2026-04-24T08:23:05.001Z</time></trkpt><trkpt lat="45.28406871331322" lon="9.117332994495788"><ele>90.8</ele><time>2026-04-24T08:23:06.001Z</time></trkpt><trkpt lat="45.283968527016974" lon="9.117207222769553"><ele>90.6</ele><time>2026-04-24T08:23:08.001Z</time></trkpt><trkpt lat="45.28390365775711" lon="9.117143548901232"><ele>90.4</ele><time>2026-04-24T08:23:09.001Z</time></trkpt><trkpt lat="45.28381320785617" lon="9.117158440663742"><ele>90.2</ele><time>2026-04-24T08:23:10.001Z</time></trkpt><trkpt lat="45.283736800465114" lon="9.11717846822446"><ele>90.0</ele><time>2026-04-24T08:23:11.001Z</time></trkpt><trkpt lat="45.283659800547134" lon="9.117233860324722"><ele>90.0</ele><time>2026-04-24T08:23:12.001Z</time></trkpt><trkpt lat="45.2835947224823" lon="9.117294285182453"><ele>90.0</ele><time>2026-04-24T08:23:13.001Z</time></trkpt><trkpt lat="45.28353507216333" lon="9.117371162113567"><ele>90.0</ele><time>2026-04-24T08:23:14.001Z</time></trkpt><trkpt lat="45.283501604827926" lon="9.117477386870549"><ele>90.0</ele><time>2026-04-24T08:23:15.001Z</time></trkpt><trkpt lat="45.28347821708717" lon="9.117604534407347"><ele>90.0</ele><time>2026-04-24T08:23:16.001Z</time></trkpt><trkpt lat="45.28348422747335" lon="9.117739620137916"><ele>90.0</ele><time>2026-04-24T08:23:17.001Z</time></trkpt><trkpt lat="45.28347720049487" lon="9.117870769570864"><ele>90.0</ele><time>2026-04-24T08:23:18.001Z</time></trkpt><trkpt lat="45.28345686043746" lon="9.117992702032229"><ele>90.0</ele><time>2026-04-24T08:23:19.001Z</time></trkpt><trkpt lat="45.28344286985275" lon="9.118144786461237"><ele>90.0</ele><time>2026-04-24T08:23:20.001Z</time></trkpt><trkpt lat="45.283364582873226" lon="9.118260364952041"><ele>90.0</ele><time>2026-04-24T08:23:21.001Z</time></trkpt><trkpt lat="45.28326588481115" lon="9.118374123341463"><ele>90.0</ele><time>2026-04-24T08:23:22.001Z</time></trkpt><trkpt lat="45.28317727735426" lon="9.118499155910309"><ele>90.0</ele><time>2026-04-24T08:23:23Z</time></trkpt><trkpt lat="45.28309794145372" lon="9.118627716043571"><ele>90.0</ele><time>2026-04-24T08:23:24Z</time></trkpt><trkpt lat="45.282979439012635" lon="9.118728865578953"><ele>90.0</ele><time>2026-04-24T08:23:25Z</time></trkpt><trkpt lat="45.282861942829236" lon="9.118811168759922"><ele>90.0</ele><time>2026-04-24T08:23:26Z</time></trkpt><trkpt lat="45.28272925414195" lon="9.11888169611238"><ele>90.0</ele><time>2026-04-24T08:23:27Z</time></trkpt><trkpt lat="45.282592337150774" lon="9.118957096347222"><ele>90.0</ele><time>2026-04-24T08:23:28Z</time></trkpt><trkpt lat="45.28245030984578" lon="9.119005310518231"><ele>90.0</ele><time>2026-04-24T08:23:29Z</time></trkpt><trkpt lat="45.282302828722685" lon="9.119058731349442"><ele>90.0</ele><time>2026-04-24T08:23:30Z</time></trkpt><trkpt lat="45.28215342101404" lon="9.119112286308672"><ele>90.0</ele><time>2026-04-24T08:23:31Z</time></trkpt><trkpt lat="45.2819994227538" lon="9.119160632761943"><ele>90.0</ele><time>2026-04-24T08:23:32Z</time></trkpt><trkpt lat="45.28183446304975" lon="9.119237942147485"><ele>90.0</ele><time>2026-04-24T08:23:33Z</time></trkpt><trkpt lat="45.28166227333875" lon="9.119288637225978"><ele>90.0</ele><time>2026-04-24T08:23:34Z</time></trkpt><trkpt lat="45.28147788822448" lon="9.119366593201596"><ele>90.0</ele><time>2026-04-24T08:23:35Z</time></trkpt><trkpt lat="45.28128557242575" lon="9.119453982974314"><ele>90.0</ele><time>2026-04-24T08:23:36Z</time></trkpt><trkpt lat="45.28110609708445" lon="9.119497543538712"><ele>89.66666666666667</ele><time>2026-04-24T08:23:37Z</time></trkpt><trkpt lat="45.28093006236871" lon="9.119582462861716"><ele>89.33333333333334</ele><time>2026-04-24T08:23:38Z</time></trkpt><trkpt lat="45.28074221315292" lon="9.11963806276967"><ele>89.0</ele><time>2026-04-24T08:23:39Z</time></trkpt><trkpt lat="45.28055632867393" lon="9.11970777873958"><ele>89.0</ele><time>2026-04-24T08:23:40Z</time></trkpt><trkpt lat="45.280367629807344" lon="9.119778221237949"><ele>89.0</ele><time>2026-04-24T08:23:41Z</time></trkpt><trkpt lat="45.28018489865067" lon="9.119847151519505"><ele>89.0</ele><time>2026-04-24T08:23:42Z</time></trkpt><trkpt lat="45.280004139917146" lon="9.119915903281667"><ele>88.66666666666667</ele><time>2026-04-24T08:23:43Z</time></trkpt><trkpt lat="45.279821604110396" lon="9.119985330895448"><ele>88.33333333333333</ele><time>2026-04-24T08:23:44Z</time></trkpt><trkpt lat="45.27964186243026" lon="9.120054935976317"><ele>88.0</ele><time>2026-04-24T08:23:45Z</time></trkpt><trkpt lat="45.27947575971893" lon="9.120119793782383"><ele>88.66666666666666</ele><time>2026-04-24T08:23:46Z</time></trkpt><trkpt lat="45.27932605198703" lon="9.120196246009233"><ele>89.33333333333333</ele><time>2026-04-24T08:23:47Z</time></trkpt><trkpt lat="45.27916121944233" lon="9.120220318385304"><ele>90.0</ele><time>2026-04-24T08:23:48Z</time></trkpt><trkpt lat="45.279001307913425" lon="9.12027538454539"><ele>90.0</ele><time>2026-04-24T08:23:49Z</time></trkpt><trkpt lat="45.278842345347" lon="9.12033874546986"><ele>90.0</ele><time>2026-04-24T08:23:50Z</time></trkpt><trkpt lat="45.278700204555825" lon="9.120415179466988"><ele>90.0</ele><time>2026-04-24T08:23:51Z</time></trkpt><trkpt lat="45.27853997116568" lon="9.120475104278714"><ele>90.0</ele><time>2026-04-24T08:23:52Z</time></trkpt><trkpt lat="45.27837575099665" lon="9.120536606251866"><ele>90.0</ele><time>2026-04-24T08:23:53Z</time></trkpt><trkpt lat="45.27822335795758" lon="9.120603394964352"><ele>90.0</ele><time>2026-04-24T08:23:54Z</time></trkpt><trkpt lat="45.27807331348334" lon="9.120652357223266"><ele>89.66666666666667</ele><time>2026-04-24T08:23:55Z</time></trkpt><trkpt lat="45.27791515440263" lon="9.12071288786058"><ele>89.33333333333334</ele><time>2026-04-24T08:23:56Z</time></trkpt><trkpt lat="45.27775983868238" lon="9.120772031098848"><ele>89.0</ele><time>2026-04-24T08:23:57Z</time></trkpt><trkpt lat="45.27760159703646" lon="9.120832275928375"><ele>89.0</ele><time>2026-04-24T08:23:58Z</time></trkpt><trkpt lat="45.27744386171755" lon="9.120892327938968"><ele>89.0</ele><time>2026-04-24T08:23:59Z</time></trkpt><trkpt lat="45.27726526134687" lon="9.120960323662318"><ele>89.0</ele><time>2026-04-24T08:24:00Z</time></trkpt><trkpt lat="45.27709318395548" lon="9.121046810855288"><ele>89.0</ele><time>2026-04-24T08:24:01Z</time></trkpt><trkpt lat="45.276887203296845" lon="9.121110469504767"><ele>89.0</ele><time>2026-04-24T08:24:02Z</time></trkpt><trkpt lat="45.276671514999045" lon="9.121183184272223"><ele>89.0</ele><time>2026-04-24T08:24:03Z</time></trkpt><trkpt lat="45.276436452542576" lon="9.121279813684835"><ele>89.5</ele><time>2026-04-24T08:24:04Z</time></trkpt><trkpt lat="45.27618889572317" lon="9.12131431665701"><ele>90.0</ele><time>2026-04-24T08:24:05Z</time></trkpt><trkpt lat="45.27595086425111" lon="9.121452904548748"><ele>90.0</ele><time>2026-04-24T08:24:06Z</time></trkpt><trkpt lat="45.27572420432178" lon="9.121546294211257"><ele>90.0</ele><time>2026-04-24T08:24:07Z</time></trkpt><trkpt lat="45.275492319557884" lon="9.121628658450343"><ele>90.0</ele><time>2026-04-24T08:24:08Z</time></trkpt><trkpt lat="45.275266919178435" lon="9.121715996480367"><ele>90.0</ele><time>2026-04-24T08:24:09Z</time></trkpt><trkpt lat="45.27504774736998" lon="9.121797645233393"><ele>90.0</ele><time>2026-04-24T08:24:10Z</time></trkpt><trkpt lat="45.27484366608691" lon="9.121887589347383"><ele>90.0</ele><time>2026-04-24T08:24:11Z</time></trkpt><trkpt lat="45.27464279192821" lon="9.121966183765606"><ele>90.0</ele><time>2026-04-24T08:24:12Z</time></trkpt><trkpt lat="45.27444775523233" lon="9.122024850929202"><ele>90.0</ele><time>2026-04-24T08:24:13Z</time></trkpt><trkpt lat="45.27425622740345" lon="9.122116602652664"><ele>90.0</ele><time>2026-04-24T08:24:14Z</time></trkpt><trkpt lat="45.27405164122777" lon="9.122171364013338"><ele>90.0</ele><time>2026-04-24T08:24:15Z</time></trkpt><trkpt lat="45.27384226907507" lon="9.122272924532473"><ele>90.0</ele><time>2026-04-24T08:24:16Z</time></trkpt><trkpt lat="45.27365234989691" lon="9.122310172325736"><ele>90.0</ele><time>2026-04-24T08:24:17Z</time></trkpt><trkpt lat="45.27345056645728" lon="9.122398887714704"><ele>90.0</ele><time>2026-04-24T08:24:18Z</time></trkpt><trkpt lat="45.27324579834945" lon="9.122484733372177"><ele>89.66666666666667</ele><time>2026-04-24T08:24:19Z</time></trkpt><trkpt lat="45.27302429292578" lon="9.122578046866625"><ele>89.33333333333334</ele><time>2026-04-24T08:24:20Z</time></trkpt><trkpt lat="45.27284288537346" lon="9.122633602274169"><ele>89.0</ele><time>2026-04-24T08:24:21Z</time></trkpt><trkpt lat="45.2726473314595" lon="9.12268859093569"><ele>89.0</ele><time>2026-04-24T08:24:22Z</time></trkpt><trkpt lat="45.27244952691528" lon="9.122784842490889"><ele>89.0</ele><time>2026-04-24T08:24:23Z</time></trkpt><trkpt lat="45.272254537643114" lon="9.122867965479406"><ele>89.0</ele><time>2026-04-24T08:24:24Z</time></trkpt><trkpt lat="45.27206496183079" lon="9.122962157129008"><ele>89.0</ele><time>2026-04-24T08:24:25Z</time></trkpt><trkpt lat="45.27187227240315" lon="9.122978528519937"><ele>89.0</ele><time>2026-04-24T08:24:26Z</time></trkpt><trkpt lat="45.27172004720045" lon="9.123080856950331"><ele>89.0</ele><time>2026-04-24T08:24:27Z</time></trkpt><trkpt lat="45.27154223902757" lon="9.123113630276395"><ele>89.33333333333334</ele><time>2026-04-24T08:24:28Z</time></trkpt><trkpt lat="45.27136205538342" lon="9.123201459296906"><ele>89.66666666666667</ele><time>2026-04-24T08:24:29Z</time></trkpt><trkpt lat="45.27117649322314" lon="9.12323830042113"><ele>90.0</ele><time>2026-04-24T08:24:30Z</time></trkpt><trkpt lat="45.27101429215057" lon="9.123354439040005"><ele>90.0</ele><time>2026-04-24T08:24:30.999Z</time></trkpt><trkpt lat="45.27081401244294" lon="9.123403942523614"><ele>90.0</ele><time>2026-04-24T08:24:31.999Z</time></trkpt><trkpt lat="45.27061428461727" lon="9.123479165592997"><ele>90.0</ele><time>2026-04-24T08:24:32.999Z</time></trkpt><trkpt lat="45.27042332782845" lon="9.123551900269412"><ele>90.0</ele><time>2026-04-24T08:24:33.999Z</time></trkpt><trkpt lat="45.270235006345864" lon="9.123623631248421"><ele>90.0</ele><time>2026-04-24T08:24:34.999Z</time></trkpt><trkpt lat="45.27003316779533" lon="9.123700182137632"><ele>90.0</ele><time>2026-04-24T08:24:35.999Z</time></trkpt><trkpt lat="45.26983100212614" lon="9.123776422697922"><ele>89.33333333333333</ele><time>2026-04-24T08:24:36.999Z</time></trkpt><trkpt lat="45.26964067502758" lon="9.123841066623276"><ele>88.66666666666666</ele><time>2026-04-24T08:24:37.999Z</time></trkpt><trkpt lat="45.26946782165134" lon="9.123913384890104"><ele>88.0</ele><time>2026-04-24T08:24:38.999Z</time></trkpt><trkpt lat="45.26927241124959" lon="9.123987077870567"><ele>88.0</ele><time>2026-04-24T08:24:39.999Z</time></trkpt><trkpt lat="45.269054113266535" lon="9.124069402071973"><ele>88.0</ele><time>2026-04-24T08:24:40.999Z</time></trkpt><trkpt lat="45.268876034588395" lon="9.124136559018243"><ele>88.0</ele><time>2026-04-24T08:24:41.999Z</time></trkpt><trkpt lat="45.26867464105351" lon="9.124212832743178"><ele>87.66666666666666</ele><time>2026-04-24T08:24:42.999Z</time></trkpt><trkpt lat="45.26846784227498" lon="9.124291509944683"><ele>87.33333333333333</ele><time>2026-04-24T08:24:43.999Z</time></trkpt><trkpt lat="45.26828163269911" lon="9.124382958052363"><ele>87.0</ele><time>2026-04-24T08:24:44.999Z</time></trkpt><trkpt lat="45.26808322785657" lon="9.12443783405543"><ele>87.0</ele><time>2026-04-24T08:24:45.999Z</time></trkpt><trkpt lat="45.26788807566322" lon="9.124518566719846"><ele>87.0</ele><time>2026-04-24T08:24:46.999Z</time></trkpt><trkpt lat="45.267690952481246" lon="9.12459360036648"><ele>87.0</ele><time>2026-04-24T08:24:47.999Z</time></trkpt><trkpt lat="45.267496243545835" lon="9.124667234791792"><ele>87.0</ele><time>2026-04-24T08:24:48.999Z</time></trkpt><trkpt lat="45.26731325135416" lon="9.124730766670345"><ele>87.0</ele><time>2026-04-24T08:24:49.999Z</time></trkpt><trkpt lat="45.267112007714914" lon="9.124807132901482"><ele>87.0</ele><time>2026-04-24T08:24:50.999Z</time></trkpt><trkpt lat="45.26692124298838" lon="9.124878737905133"><ele>87.33333333333333</ele><time>2026-04-24T08:24:51.999Z</time></trkpt><trkpt lat="45.266733760123536" lon="9.12494911096356"><ele>87.66666666666666</ele><time>2026-04-24T08:24:52.999Z</time></trkpt><trkpt lat="45.26653626996884" lon="9.125023240370556"><ele>88.0</ele><time>2026-04-24T08:24:53.999Z</time></trkpt><trkpt lat="45.2663599828564" lon="9.125100819725699"><ele>88.0</ele><time>2026-04-24T08:24:54.999Z</time></trkpt><trkpt lat="45.2661520107363" lon="9.125166803150732"><ele>88.0</ele><time>2026-04-24T08:24:55.999Z</time></trkpt><trkpt lat="45.26595289219385" lon="9.125241178331038"><ele>88.0</ele><time>2026-04-24T08:24:56.999Z</time></trkpt><trkpt lat="45.26576650430172" lon="9.125310798330826"><ele>88.0</ele><time>2026-04-24T08:24:57.999Z</time></trkpt><trkpt lat="45.26556905391557" lon="9.125384550390676"><ele>88.0</ele><time>2026-04-24T08:24:58.999Z</time></trkpt><trkpt lat="45.265385775142406" lon="9.125453079564265"><ele>88.0</ele><time>2026-04-24T08:24:59.999Z</time></trkpt><trkpt lat="45.26519510420493" lon="9.12552516722775"><ele>88.0</ele><time>2026-04-24T08:25:00.999Z</time></trkpt><trkpt lat="45.26501633883743" lon="9.125616085823973"><ele>88.0</ele><time>2026-04-24T08:25:01.999Z</time></trkpt><trkpt lat="45.264822111198384" lon="9.125666186072024"><ele>88.0</ele><time>2026-04-24T08:25:02.999Z</time></trkpt><trkpt lat="45.26464112992276" lon="9.125752889389188"><ele>88.0</ele><time>2026-04-24T08:25:03.999Z</time></trkpt><trkpt lat="45.26447146258381" lon="9.125798757013612"><ele>88.0</ele><time>2026-04-24T08:25:04.999Z</time></trkpt><trkpt lat="45.264288512477556" lon="9.125867925737749"><ele>88.0</ele><time>2026-04-24T08:25:05.999Z</time></trkpt><trkpt lat="45.2641073175282" lon="9.125936430617832"><ele>88.0</ele><time>2026-04-24T08:25:06.999Z</time></trkpt><trkpt lat="45.263921453726056" lon="9.12602588740028"><ele>88.0</ele><time>2026-04-24T08:25:07.999Z</time></trkpt><trkpt lat="45.263741172337795" lon="9.126072500284913"><ele>88.0</ele><time>2026-04-24T08:25:08.999Z</time></trkpt><trkpt lat="45.26354530797816" lon="9.126145136018478"><ele>88.0</ele><time>2026-04-24T08:25:09.999Z</time></trkpt><trkpt lat="45.26336103646154" lon="9.12621374074354"><ele>88.0</ele><time>2026-04-24T08:25:10.999Z</time></trkpt><trkpt lat="45.26317499062812" lon="9.126283528797787"><ele>88.0</ele><time>2026-04-24T08:25:11.999Z</time></trkpt><trkpt lat="45.262993144851976" lon="9.12635193715628"><ele>88.0</ele><time>2026-04-24T08:25:12.999Z</time></trkpt><trkpt lat="45.262832078285236" lon="9.126413240581114"><ele>88.0</ele><time>2026-04-24T08:25:13.999Z</time></trkpt><trkpt lat="45.262661032483265" lon="9.12648095117795"><ele>88.0</ele><time>2026-04-24T08:25:14.999Z</time></trkpt><trkpt lat="45.262496554870594" lon="9.126547958205965"><ele>87.66666666666666</ele><time>2026-04-24T08:25:15.999Z</time></trkpt><trkpt lat="45.262332472648446" lon="9.12661454447373"><ele>87.33333333333333</ele><time>2026-04-24T08:25:16.999Z</time></trkpt><trkpt lat="45.26218502415838" lon="9.126684344489496"><ele>87.0</ele><time>2026-04-24T08:25:17.999Z</time></trkpt><trkpt lat="45.262024103915785" lon="9.126729712498882"><ele>87.0</ele><time>2026-04-24T08:25:18.999Z</time></trkpt><trkpt lat="45.261880706295784" lon="9.12679171903802"><ele>87.0</ele><time>2026-04-24T08:25:19.999Z</time></trkpt><trkpt lat="45.26172583673659" lon="9.126850816521817"><ele>87.0</ele><time>2026-04-24T08:25:20.999Z</time></trkpt><trkpt lat="45.26156472916579" lon="9.126909881974264"><ele>86.66666666666667</ele><time>2026-04-24T08:25:21.999Z</time></trkpt><trkpt lat="45.26140898055939" lon="9.12698624856196"><ele>86.33333333333334</ele><time>2026-04-24T08:25:22.999Z</time></trkpt><trkpt lat="45.2612547482519" lon="9.127015715643086"><ele>86.0</ele><time>2026-04-24T08:25:23.999Z</time></trkpt><trkpt lat="45.2611073383544" lon="9.127068153525531"><ele>86.0</ele><time>2026-04-24T08:25:24.999Z</time></trkpt><trkpt lat="45.260960643207945" lon="9.127121727024958"><ele>86.0</ele><time>2026-04-24T08:25:25.999Z</time></trkpt><trkpt lat="45.26080931740431" lon="9.12717868959259"><ele>86.0</ele><time>2026-04-24T08:25:26.999Z</time></trkpt><trkpt lat="45.260654489606296" lon="9.127236970380306"><ele>86.0</ele><time>2026-04-24T08:25:27.999Z</time></trkpt><trkpt lat="45.26048758022478" lon="9.127299943109024"><ele>86.0</ele><time>2026-04-24T08:25:28.999Z</time></trkpt><trkpt lat="45.26032519808656" lon="9.127361564977376"><ele>86.0</ele><time>2026-04-24T08:25:29.999Z</time></trkpt><trkpt lat="45.26014357242303" lon="9.127430489509688"><ele>86.0</ele><time>2026-04-24T08:25:30.999Z</time></trkpt><trkpt lat="45.2599584584342" lon="9.12750073792251"><ele>86.0</ele><time>2026-04-24T08:25:31.999Z</time></trkpt><trkpt lat="45.25978368166306" lon="9.127567063422058"><ele>86.0</ele><time>2026-04-24T08:25:32.999Z</time></trkpt><trkpt lat="45.25959644161584" lon="9.127638118598858"><ele>86.0</ele><time>2026-04-24T08:25:33.999Z</time></trkpt><trkpt lat="45.25940591560427" lon="9.127710411968474"><ele>86.0</ele><time>2026-04-24T08:25:34.999Z</time></trkpt><trkpt lat="45.25920156738108" lon="9.127787808008282"><ele>86.0</ele><time>2026-04-24T08:25:35.999Z</time></trkpt><trkpt lat="45.25900373382723" lon="9.127862736591108"><ele>86.0</ele><time>2026-04-24T08:25:36.999Z</time></trkpt><trkpt lat="45.25881462339575" lon="9.127934361372374"><ele>86.0</ele><time>2026-04-24T08:25:37.999Z</time></trkpt><trkpt lat="45.25862796541009" lon="9.128005059144074"><ele>86.0</ele><time>2026-04-24T08:25:38.999Z</time></trkpt><trkpt lat="45.258440352871055" lon="9.128076256570159"><ele>86.0</ele><time>2026-04-24T08:25:39.999Z</time></trkpt><trkpt lat="45.25825388658864" lon="9.128147935419367"><ele>86.0</ele><time>2026-04-24T08:25:40.999Z</time></trkpt><trkpt lat="45.25807242069565" lon="9.128217692059811"><ele>86.0</ele><time>2026-04-24T08:25:41.999Z</time></trkpt><trkpt lat="45.257881899200555" lon="9.128290480153689"><ele>86.0</ele><time>2026-04-24T08:25:42.999Z</time></trkpt><trkpt lat="45.257702269510034" lon="9.128377819297084"><ele>86.0</ele><time>2026-04-24T08:25:43.999Z</time></trkpt><trkpt lat="45.25751954392286" lon="9.128428169454118"><ele>86.0</ele><time>2026-04-24T08:25:44.999Z</time></trkpt><trkpt lat="45.2573585044626" lon="9.128495680984798"><ele>86.33333333333334</ele><time>2026-04-24T08:25:45.999Z</time></trkpt><trkpt lat="45.257195447669474" lon="9.128551320925798"><ele>86.66666666666667</ele><time>2026-04-24T08:25:46.999Z</time></trkpt><trkpt lat="45.257041362282514" lon="9.12861635457904"><ele>87.0</ele><time>2026-04-24T08:25:47.999Z</time></trkpt><trkpt lat="45.2568928931734" lon="9.128684572385254"><ele>87.0</ele><time>2026-04-24T08:25:48.999Z</time></trkpt><trkpt lat="45.25675097730943" lon="9.128720791023804"><ele>87.0</ele><time>2026-04-24T08:25:49.999Z</time></trkpt><trkpt lat="45.256607864675125" lon="9.12877633285459"><ele>87.0</ele><time>2026-04-24T08:25:50.999Z</time></trkpt><trkpt lat="45.25645286058624" lon="9.128836489806949"><ele>87.0</ele><time>2026-04-24T08:25:51.999Z</time></trkpt><trkpt lat="45.25629016371223" lon="9.12889963236505"><ele>87.0</ele><time>2026-04-24T08:25:52.999Z</time></trkpt><trkpt lat="45.25611856244092" lon="9.128966390061992"><ele>87.0</ele><time>2026-04-24T08:25:53.999Z</time></trkpt><trkpt lat="45.255932454613955" lon="9.129038467136048"><ele>87.0</ele><time>2026-04-24T08:25:54.999Z</time></trkpt><trkpt lat="45.25574548186066" lon="9.129110038412778"><ele>87.0</ele><time>2026-04-24T08:25:55.999Z</time></trkpt><trkpt lat="45.25555936112481" lon="9.129181603882598"><ele>87.0</ele><time>2026-04-24T08:25:56.999Z</time></trkpt><trkpt lat="45.255368546636575" lon="9.129255520275086"><ele>87.33333333333333</ele><time>2026-04-24T08:25:57.999Z</time></trkpt><trkpt lat="45.2551933295032" lon="9.129325154426775"><ele>87.66666666666666</ele><time>2026-04-24T08:25:58.999Z</time></trkpt><trkpt lat="45.25503017204221" lon="9.129410815128674"><ele>88.0</ele><time>2026-04-24T08:25:59.999Z</time></trkpt><trkpt lat="45.254862963483305" lon="9.129458124558266"><ele>88.0</ele><time>2026-04-24T08:26:00.999Z</time></trkpt><trkpt lat="45.25470059581863" lon="9.129492704092572"><ele>88.0</ele><time>2026-04-24T08:26:01.999Z</time></trkpt><trkpt lat="45.25455007264484" lon="9.129556263258344"><ele>88.0</ele><time>2026-04-24T08:26:02.999Z</time></trkpt><trkpt lat="45.254416395220815" lon="9.129620515186469"><ele>88.0</ele><time>2026-04-24T08:26:03.999Z</time></trkpt><trkpt lat="45.25429415524016" lon="9.129687829725878"><ele>88.0</ele><time>2026-04-24T08:26:04.999Z</time></trkpt><trkpt lat="45.25417024631203" lon="9.129675754054649"><ele>88.0</ele><time>2026-04-24T08:26:05.999Z</time></trkpt><trkpt lat="45.25406300896151" lon="9.129762954796066"><ele>88.0</ele><time>2026-04-24T08:26:06.998Z</time></trkpt><trkpt lat="45.25395417604392" lon="9.129789050694257"><ele>88.0</ele><time>2026-04-24T08:26:07.998Z</time></trkpt><trkpt lat="45.253862630762725" lon="9.129870389503104"><ele>88.0</ele><time>2026-04-24T08:26:08.998Z</time></trkpt><trkpt lat="45.253754143126855" lon="9.129919014593309"><ele>88.0</ele><time>2026-04-24T08:26:09.998Z</time></trkpt><trkpt lat="45.25365994484669" lon="9.129945951920591"><ele>88.0</ele><time>2026-04-24T08:26:10.998Z</time></trkpt><trkpt lat="45.25356124605527" lon="9.129997943831972"><ele>88.0</ele><time>2026-04-24T08:26:11.998Z</time></trkpt><trkpt lat="45.253470073051155" lon="9.130025523328685"><ele>88.2</ele><time>2026-04-24T08:26:12.998Z</time></trkpt><trkpt lat="45.253387584423656" lon="9.130059215104563"><ele>88.4</ele><time>2026-04-24T08:26:13.998Z</time></trkpt><trkpt lat="45.25329877010588" lon="9.130068342938438"><ele>88.60000000000001</ele><time>2026-04-24T08:26:14.998Z</time></trkpt><trkpt lat="45.253201303028874" lon="9.130138305008575"><ele>88.80000000000001</ele><time>2026-04-24T08:26:15.998Z</time></trkpt><trkpt lat="45.253114163215706" lon="9.130140768008514"><ele>89.0</ele><time>2026-04-24T08:26:16.998Z</time></trkpt><trkpt lat="45.25301995415118" lon="9.130182789095993"><ele>89.2</ele><time>2026-04-24T08:26:17.998Z</time></trkpt><trkpt lat="45.252954476592976" lon="9.130224440170911"><ele>89.4</ele><time>2026-04-24T08:26:18.998Z</time></trkpt><trkpt lat="45.2528512364609" lon="9.130236895853832"><ele>89.6</ele><time>2026-04-24T08:26:19.998Z</time></trkpt><trkpt lat="45.25277439340885" lon="9.130304682294701"><ele>89.8</ele><time>2026-04-24T08:26:20.998Z</time></trkpt><trkpt lat="45.25266854485258" lon="9.130328298187791"><ele>90.0</ele><time>2026-04-24T08:26:21.998Z</time></trkpt><trkpt lat="45.252562337975895" lon="9.130384349404652"><ele>90.0</ele><time>2026-04-24T08:26:22.998Z</time></trkpt><trkpt lat="45.25245166173977" lon="9.130419150601947"><ele>90.0</ele><time>2026-04-24T08:26:23.998Z</time></trkpt><trkpt lat="45.252349415410464" lon="9.13046966755474"><ele>90.0</ele><time>2026-04-24T08:26:24.998Z</time></trkpt><trkpt lat="45.25224372317107" lon="9.130512464232526"><ele>90.0</ele><time>2026-04-24T08:26:25.998Z</time></trkpt><trkpt lat="45.25214508292592" lon="9.130513729422015"><ele>90.0</ele><time>2026-04-24T08:26:26.998Z</time></trkpt><trkpt lat="45.25204921295889" lon="9.130557778707896"><ele>89.6</ele><time>2026-04-24T08:26:27.998Z</time></trkpt><trkpt lat="45.251956813545036" lon="9.130598174829762"><ele>89.2</ele><time>2026-04-24T08:26:28.998Z</time></trkpt><trkpt lat="45.25185786909983" lon="9.13063230668462"><ele>88.80000000000001</ele><time>2026-04-24T08:26:29.998Z</time></trkpt><trkpt lat="45.25175940615803" lon="9.130695013872277"><ele>88.4</ele><time>2026-04-24T08:26:30.998Z</time></trkpt><trkpt lat="45.25164499275828" lon="9.13074032891156"><ele>88.0</ele><time>2026-04-24T08:26:31.998Z</time></trkpt><trkpt lat="45.25151749390671" lon="9.130740342676033"><ele>87.25</ele><time>2026-04-24T08:26:32.998Z</time></trkpt><trkpt lat="45.25140623579788" lon="9.130807693666535"><ele>86.5</ele><time>2026-04-24T08:26:33.998Z</time></trkpt><trkpt lat="45.25127743105964" lon="9.130855197141333"><ele>85.75</ele><time>2026-04-24T08:26:34.998Z</time></trkpt><trkpt lat="45.25113348307929" lon="9.130918538676001"><ele>85.0</ele><time>2026-04-24T08:26:35.998Z</time></trkpt><trkpt lat="45.25098786115094" lon="9.130965606065404"><ele>85.0</ele><time>2026-04-24T08:26:36.998Z</time></trkpt><trkpt lat="45.25085674327694" lon="9.131002450684209"><ele>85.0</ele><time>2026-04-24T08:26:37.998Z</time></trkpt><trkpt lat="45.25072546551533" lon="9.131062438834855"><ele>85.0</ele><time>2026-04-24T08:26:38.998Z</time></trkpt><trkpt lat="45.2506055259916" lon="9.131105772578541"><ele>85.0</ele><time>2026-04-24T08:26:39.998Z</time></trkpt><trkpt lat="45.25048518883893" lon="9.131147779519322"><ele>85.0</ele><time>2026-04-24T08:26:40.998Z</time></trkpt><trkpt lat="45.25039186030198" lon="9.131185621974995"><ele>85.0</ele><time>2026-04-24T08:26:41.998Z</time></trkpt><trkpt lat="45.25029485776874" lon="9.131225118334958"><ele>85.0</ele><time>2026-04-24T08:26:42.998Z</time></trkpt><trkpt lat="45.250216887276196" lon="9.13125745343055"><ele>85.0</ele><time>2026-04-24T08:26:43.998Z</time></trkpt><trkpt lat="45.25014510765957" lon="9.13128609214333"><ele>85.0</ele><time>2026-04-24T08:26:44.998Z</time></trkpt><trkpt lat="45.25005842498352" lon="9.131323869534658"><ele>85.0</ele><time>2026-04-24T08:26:45.998Z</time></trkpt><trkpt lat="45.249985586640996" lon="9.131363370648955"><ele>85.0</ele><time>2026-04-24T08:26:46.998Z</time></trkpt><trkpt lat="45.24989634662422" lon="9.131386539353576"><ele>85.0</ele><time>2026-04-24T08:26:48.998Z</time></trkpt><trkpt lat="45.249828730811636" lon="9.131394926588973"><ele>85.0</ele><time>2026-04-24T08:26:50.998Z</time></trkpt><trkpt lat="45.24977814295259" lon="9.131454733766171"><ele>85.0</ele><time>2026-04-24T08:26:53.998Z</time></trkpt><trkpt lat="45.24966931281019" lon="9.131454769578243"><ele>85.0</ele><time>2026-04-24T08:27:09.998Z</time></trkpt><trkpt lat="45.24956085213301" lon="9.131473712948273"><ele>85.0</ele><time>2026-04-24T08:27:10.998Z</time></trkpt><trkpt lat="45.24942371525368" lon="9.13152302733174"><ele>85.0</ele><time>2026-04-24T08:27:11.998Z</time></trkpt><trkpt lat="45.24931615155562" lon="9.131619516474487"><ele>85.0</ele><time>2026-04-24T08:27:12.998Z</time></trkpt><trkpt lat="45.24917119342403" lon="9.131671761442522"><ele>85.0</ele><time>2026-04-24T08:27:13.998Z</time></trkpt><trkpt lat="45.24902050302414" lon="9.13173790783616"><ele>85.0</ele><time>2026-04-24T08:27:14.998Z</time></trkpt><trkpt lat="45.24884641612751" lon="9.131802702071514"><ele>85.33333333333333</ele><time>2026-04-24T08:27:15.998Z</time></trkpt><trkpt lat="45.248674329731664" lon="9.131841373561386"><ele>85.66666666666667</ele><time>2026-04-24T08:27:16.998Z</time></trkpt><trkpt lat="45.248518614209814" lon="9.131927543249773"><ele>86.0</ele><time>2026-04-24T08:27:17.998Z</time></trkpt><trkpt lat="45.24834008270225" lon="9.132011821526925"><ele>86.0</ele><time>2026-04-24T08:27:18.998Z</time></trkpt><trkpt lat="45.24817403705555" lon="9.132065707443306"><ele>86.0</ele><time>2026-04-24T08:27:19.998Z</time></trkpt><trkpt lat="45.247990092851644" lon="9.13215003854583"><ele>86.0</ele><time>2026-04-24T08:27:20.998Z</time></trkpt><trkpt lat="45.24777896834649" lon="9.132217921601097"><ele>86.0</ele><time>2026-04-24T08:27:21.998Z</time></trkpt><trkpt lat="45.247586924426614" lon="9.132292378748724"><ele>86.0</ele><time>2026-04-24T08:27:22.998Z</time></trkpt><trkpt lat="45.24738553685365" lon="9.132369912508395"><ele>86.0</ele><time>2026-04-24T08:27:23.998Z</time></trkpt><trkpt lat="45.24717998083317" lon="9.132449051092014"><ele>86.0</ele><time>2026-04-24T08:27:24.998Z</time></trkpt><trkpt lat="45.24697039510547" lon="9.132530039046026"><ele>86.0</ele><time>2026-04-24T08:27:25.998Z</time></trkpt><trkpt lat="45.24676655178797" lon="9.132609579839418"><ele>86.0</ele><time>2026-04-24T08:27:26.998Z</time></trkpt><trkpt lat="45.246567721468395" lon="9.13268707455018"><ele>85.66666666666667</ele><time>2026-04-24T08:27:27.998Z</time></trkpt><trkpt lat="45.24635629154029" lon="9.132768946116505"><ele>85.33333333333333</ele><time>2026-04-24T08:27:28.998Z</time></trkpt><trkpt lat="45.246145082899396" lon="9.13285073192854"><ele>85.0</ele><time>2026-04-24T08:27:29.998Z</time></trkpt><trkpt lat="45.24592466085414" lon="9.132936085484685"><ele>85.0</ele><time>2026-04-24T08:27:30.998Z</time></trkpt><trkpt lat="45.245722368341575" lon="9.133014418770381"><ele>85.0</ele><time>2026-04-24T08:27:31.998Z</time></trkpt><trkpt lat="45.24550931120502" lon="9.133097028833337"><ele>85.0</ele><time>2026-04-24T08:27:32.998Z</time></trkpt><trkpt lat="45.245272077157836" lon="9.133194314039372"><ele>85.0</ele><time>2026-04-24T08:27:33.998Z</time></trkpt><trkpt lat="45.24505533562582" lon="9.133279514314527"><ele>85.0</ele><time>2026-04-24T08:27:34.998Z</time></trkpt><trkpt lat="45.24486079238333" lon="9.133348647417439"><ele>85.0</ele><time>2026-04-24T08:27:35.998Z</time></trkpt><trkpt lat="45.244661704786516" lon="9.133450550701898"><ele>84.33333333333333</ele><time>2026-04-24T08:27:36.998Z</time></trkpt><trkpt lat="45.244447648906274" lon="9.13350972469854"><ele>83.66666666666667</ele><time>2026-04-24T08:27:37.998Z</time></trkpt><trkpt lat="45.24426090145197" lon="9.1336045868421"><ele>83.0</ele><time>2026-04-24T08:27:38.998Z</time></trkpt><trkpt lat="45.24405089156352" lon="9.133676049326906"><ele>83.33333333333334</ele><time>2026-04-24T08:27:39.998Z</time></trkpt><trkpt lat="45.24386196526309" lon="9.133752746403623"><ele>83.66666666666667</ele><time>2026-04-24T08:27:40.998Z</time></trkpt><trkpt lat="45.24365865786513" lon="9.133801670306724"><ele>84.0</ele><time>2026-04-24T08:27:41.998Z</time></trkpt><trkpt lat="45.24348520283469" lon="9.133881091762538"><ele>84.0</ele><time>2026-04-24T08:27:42.998Z</time></trkpt><trkpt lat="45.2432867868219" lon="9.133953803245886"><ele>84.0</ele><time>2026-04-24T08:27:43.997Z</time></trkpt><trkpt lat="45.243108881226725" lon="9.134027896974162"><ele>84.0</ele><time>2026-04-24T08:27:44.997Z</time></trkpt><trkpt lat="45.24290887305764" lon="9.134101705095253"><ele>84.0</ele><time>2026-04-24T08:27:45.997Z</time></trkpt><trkpt lat="45.24271661139745" lon="9.134187080545502"><ele>84.0</ele><time>2026-04-24T08:27:46.997Z</time></trkpt><trkpt lat="45.24252479037865" lon="9.134251912882265"><ele>84.0</ele><time>2026-04-24T08:27:47.997Z</time></trkpt><trkpt lat="45.24232830177276" lon="9.13431972230557"><ele>84.33333333333333</ele><time>2026-04-24T08:27:48.997Z</time></trkpt><trkpt lat="45.2421349438895" lon="9.134381979339965"><ele>84.66666666666666</ele><time>2026-04-24T08:27:49.997Z</time></trkpt><trkpt lat="45.24194868591053" lon="9.13445205139904"><ele>85.0</ele><time>2026-04-24T08:27:50.997Z</time></trkpt><trkpt lat="45.24176369289969" lon="9.134548116655749"><ele>85.0</ele><time>2026-04-24T08:27:51.997Z</time></trkpt><trkpt lat="45.24157965200735" lon="9.134626902965373"><ele>85.0</ele><time>2026-04-24T08:27:52.997Z</time></trkpt><trkpt lat="45.24139458461689" lon="9.134687723953927"><ele>85.0</ele><time>2026-04-24T08:27:53.997Z</time></trkpt><trkpt lat="45.24119511711945" lon="9.134776137789299"><ele>85.0</ele><time>2026-04-24T08:27:54.997Z</time></trkpt><trkpt lat="45.241031101316736" lon="9.134851099988776"><ele>85.0</ele><time>2026-04-24T08:27:55.997Z</time></trkpt><trkpt lat="45.240850131332856" lon="9.134901100661349"><ele>85.0</ele><time>2026-04-24T08:27:56.997Z</time></trkpt><trkpt lat="45.24068470053536" lon="9.134967043601241"><ele>84.5</ele><time>2026-04-24T08:27:57.997Z</time></trkpt><trkpt lat="45.24054140377323" lon="9.135036853871336"><ele>84.0</ele><time>2026-04-24T08:27:58.997Z</time></trkpt><trkpt lat="45.24041083045743" lon="9.135072735976577"><ele>83.5</ele><time>2026-04-24T08:27:59.997Z</time></trkpt><trkpt lat="45.2402628809403" lon="9.135129016844418"><ele>83.0</ele><time>2026-04-24T08:28:00.997Z</time></trkpt><trkpt lat="45.24015120713532" lon="9.135172233032508"><ele>83.0</ele><time>2026-04-24T08:28:01.997Z</time></trkpt><trkpt lat="45.240052967403564" lon="9.135216083104394"><ele>83.0</ele><time>2026-04-24T08:28:02.997Z</time></trkpt><trkpt lat="45.23995241399143" lon="9.135268838359993"><ele>83.0</ele><time>2026-04-24T08:28:03.997Z</time></trkpt><trkpt lat="45.239844312987685" lon="9.135291533402935"><ele>83.0</ele><time>2026-04-24T08:28:04.997Z</time></trkpt><trkpt lat="45.23972686893647" lon="9.135337187958532"><ele>83.0</ele><time>2026-04-24T08:28:05.997Z</time></trkpt><trkpt lat="45.2396107789288" lon="9.135383949829393"><ele>83.33333333333334</ele><time>2026-04-24T08:28:06.997Z</time></trkpt><trkpt lat="45.23947984262446" lon="9.135436776434025"><ele>83.66666666666667</ele><time>2026-04-24T08:28:07.997Z</time></trkpt><trkpt lat="45.239318192226726" lon="9.135499481431951"><ele>84.0</ele><time>2026-04-24T08:28:08.997Z</time></trkpt><trkpt lat="45.23914780407602" lon="9.13556641910761"><ele>84.0</ele><time>2026-04-24T08:28:09.997Z</time></trkpt><trkpt lat="45.23897520231178" lon="9.1356342263042"><ele>84.0</ele><time>2026-04-24T08:28:10.997Z</time></trkpt><trkpt lat="45.23879266168892" lon="9.135705458000583"><ele>84.0</ele><time>2026-04-24T08:28:11.997Z</time></trkpt><trkpt lat="45.238631022875374" lon="9.135767365285325"><ele>83.66666666666667</ele><time>2026-04-24T08:28:12.997Z</time></trkpt><trkpt lat="45.23847313692847" lon="9.135826563432587"><ele>83.33333333333334</ele><time>2026-04-24T08:28:13.997Z</time></trkpt><trkpt lat="45.238310169142316" lon="9.135887667016556"><ele>83.0</ele><time>2026-04-24T08:28:14.997Z</time></trkpt><trkpt lat="45.238179259190126" lon="9.135938422440702"><ele>82.75</ele><time>2026-04-24T08:28:15.997Z</time></trkpt><trkpt lat="45.23805954181387" lon="9.136008135089195"><ele>82.5</ele><time>2026-04-24T08:28:16.997Z</time></trkpt><trkpt lat="45.2379404817662" lon="9.136031375748372"><ele>82.25</ele><time>2026-04-24T08:28:17.997Z</time></trkpt><trkpt lat="45.23782188141889" lon="9.136077546277688"><ele>82.0</ele><time>2026-04-24T08:28:18.997Z</time></trkpt><trkpt lat="45.23770144396852" lon="9.136124033046185"><ele>82.0</ele><time>2026-04-24T08:28:19.997Z</time></trkpt><trkpt lat="45.237595307314855" lon="9.136165092958667"><ele>82.0</ele><time>2026-04-24T08:28:20.997Z</time></trkpt><trkpt lat="45.237479822142916" lon="9.136216541258351"><ele>82.0</ele><time>2026-04-24T08:28:21.997Z</time></trkpt><trkpt lat="45.23736264606587" lon="9.13626498303331"><ele>82.0</ele><time>2026-04-24T08:28:22.997Z</time></trkpt><trkpt lat="45.237253399323876" lon="9.136316336891822"><ele>83.0</ele><time>2026-04-24T08:28:23.997Z</time></trkpt><trkpt lat="45.2371370309963" lon="9.136342357043128"><ele>84.0</ele><time>2026-04-24T08:28:24.997Z</time></trkpt><trkpt lat="45.23702810135962" lon="9.136384482757858"><ele>85.0</ele><time>2026-04-24T08:28:25.997Z</time></trkpt><trkpt lat="45.2369123367805" lon="9.136429251684268"><ele>86.0</ele><time>2026-04-24T08:28:26.997Z</time></trkpt><trkpt lat="45.23678192902716" lon="9.136479683479182"><ele>86.0</ele><time>2026-04-24T08:28:27.997Z</time></trkpt><trkpt lat="45.23664220651945" lon="9.136533718211142"><ele>86.0</ele><time>2026-04-24T08:28:28.997Z</time></trkpt><trkpt lat="45.23650889358328" lon="9.136585101354635"><ele>86.0</ele><time>2026-04-24T08:28:29.997Z</time></trkpt><trkpt lat="45.23635950347684" lon="9.136657017845216"><ele>86.0</ele><time>2026-04-24T08:28:30.997Z</time></trkpt><trkpt lat="45.23620134323975" lon="9.136671281753808"><ele>85.5</ele><time>2026-04-24T08:28:31.997Z</time></trkpt><trkpt lat="45.23608443380915" lon="9.136754637025074"><ele>85.0</ele><time>2026-04-24T08:28:32.997Z</time></trkpt><trkpt lat="45.235979184396086" lon="9.13680415301608"><ele>84.5</ele><time>2026-04-24T08:28:33.997Z</time></trkpt><trkpt lat="45.23586202581061" lon="9.136834141643412"><ele>84.0</ele><time>2026-04-24T08:28:34.997Z</time></trkpt><trkpt lat="45.235738037706355" lon="9.136898812387868"><ele>84.66666666666667</ele><time>2026-04-24T08:28:35.997Z</time></trkpt><trkpt lat="45.235591909136595" lon="9.13693844377998"><ele>85.33333333333334</ele><time>2026-04-24T08:28:36.997Z</time></trkpt><trkpt lat="45.23543900338397" lon="9.136998209320092"><ele>86.0</ele><time>2026-04-24T08:28:37.997Z</time></trkpt><trkpt lat="45.235296660492445" lon="9.137053855904211"><ele>86.0</ele><time>2026-04-24T08:28:38.997Z</time></trkpt><trkpt lat="45.23515010488971" lon="9.137111149336521"><ele>86.0</ele><time>2026-04-24T08:28:39.997Z</time></trkpt><trkpt lat="45.234996228348294" lon="9.13717130657572"><ele>86.0</ele><time>2026-04-24T08:28:40.997Z</time></trkpt><trkpt lat="45.234843926576055" lon="9.137230846400874"><ele>85.66666666666667</ele><time>2026-04-24T08:28:41.997Z</time></trkpt><trkpt lat="45.234695809574376" lon="9.137286754517625"><ele>85.33333333333333</ele><time>2026-04-24T08:28:42.997Z</time></trkpt><trkpt lat="45.23455168591698" lon="9.13734057333844"><ele>85.0</ele><time>2026-04-24T08:28:43.997Z</time></trkpt><trkpt lat="45.234405388353274" lon="9.137395915948339"><ele>84.66666666666666</ele><time>2026-04-24T08:28:44.997Z</time></trkpt><trkpt lat="45.23424812586719" lon="9.137455120207239"><ele>84.33333333333333</ele><time>2026-04-24T08:28:45.997Z</time></trkpt><trkpt lat="45.23409830854956" lon="9.137511490710816"><ele>84.0</ele><time>2026-04-24T08:28:46.997Z</time></trkpt><trkpt lat="45.23393822176512" lon="9.13757172522287"><ele>83.0</ele><time>2026-04-24T08:28:47.997Z</time></trkpt><trkpt lat="45.233785258504604" lon="9.137629279413343"><ele>82.0</ele><time>2026-04-24T08:28:48.997Z</time></trkpt><trkpt lat="45.23364126614872" lon="9.1376834360958"><ele>81.0</ele><time>2026-04-24T08:28:49.997Z</time></trkpt><trkpt lat="45.23349391795931" lon="9.13773839042117"><ele>81.0</ele><time>2026-04-24T08:28:50.997Z</time></trkpt><trkpt lat="45.233337195680036" lon="9.137796840882116"><ele>81.0</ele><time>2026-04-24T08:28:51.997Z</time></trkpt><trkpt lat="45.23317291588793" lon="9.137866268430193"><ele>81.0</ele><time>2026-04-24T08:28:52.997Z</time></trkpt><trkpt lat="45.23300999391013" lon="9.137924212589793"><ele>81.33333333333333</ele><time>2026-04-24T08:28:53.997Z</time></trkpt><trkpt lat="45.23283132327457" lon="9.137985508776065"><ele>81.66666666666666</ele><time>2026-04-24T08:28:54.997Z</time></trkpt><trkpt lat="45.232652040999334" lon="9.138052373111428"><ele>82.0</ele><time>2026-04-24T08:28:55.997Z</time></trkpt><trkpt lat="45.232470424930234" lon="9.138120139489592"><ele>82.0</ele><time>2026-04-24T08:28:56.997Z</time></trkpt><trkpt lat="45.232290158259126" lon="9.138205854672346"><ele>82.0</ele><time>2026-04-24T08:28:57.997Z</time></trkpt><trkpt lat="45.232101468632294" lon="9.138257847693847"><ele>82.0</ele><time>2026-04-24T08:28:58.997Z</time></trkpt><trkpt lat="45.23192783769391" lon="9.138322653190402"><ele>82.0</ele><time>2026-04-24T08:28:59.997Z</time></trkpt><trkpt lat="45.231751243975154" lon="9.138388564511967"><ele>82.0</ele><time>2026-04-24T08:29:00.997Z</time></trkpt><trkpt lat="45.23157107102905" lon="9.13845581176172"><ele>82.0</ele><time>2026-04-24T08:29:01.997Z</time></trkpt><trkpt lat="45.231382157048955" lon="9.138526297015401"><ele>81.33333333333333</ele><time>2026-04-24T08:29:02.997Z</time></trkpt><trkpt lat="45.231176947735875" lon="9.138602826138273"><ele>80.66666666666667</ele><time>2026-04-24T08:29:03.997Z</time></trkpt><trkpt lat="45.231008811895705" lon="9.138665529488655"><ele>80.0</ele><time>2026-04-24T08:29:04.997Z</time></trkpt><trkpt lat="45.23079947271166" lon="9.138743598879925"><ele>81.0</ele><time>2026-04-24T08:29:05.997Z</time></trkpt><trkpt lat="45.2306017653583" lon="9.138817329442182"><ele>82.0</ele><time>2026-04-24T08:29:06.997Z</time></trkpt><trkpt lat="45.230390168901394" lon="9.138896030242385"><ele>83.0</ele><time>2026-04-24T08:29:07.997Z</time></trkpt><trkpt lat="45.23018560284811" lon="9.138972115964874"><ele>83.0</ele><time>2026-04-24T08:29:08.997Z</time></trkpt><trkpt lat="45.22998934837282" lon="9.139045112438819"><ele>83.0</ele><time>2026-04-24T08:29:09.997Z</time></trkpt><trkpt lat="45.229783145607115" lon="9.139121807007964"><ele>83.0</ele><time>2026-04-24T08:29:10.997Z</time></trkpt><trkpt lat="45.22957903703398" lon="9.139197722703676"><ele>83.66666666666667</ele><time>2026-04-24T08:29:11.997Z</time></trkpt><trkpt lat="45.2293835735404" lon="9.13927042297905"><ele>84.33333333333333</ele><time>2026-04-24T08:29:12.997Z</time></trkpt><trkpt lat="45.22921252995575" lon="9.139334040512427"><ele>85.0</ele><time>2026-04-24T08:29:13.997Z</time></trkpt><trkpt lat="45.229064510551076" lon="9.13939713792922"><ele>84.66666666666666</ele><time>2026-04-24T08:29:14.997Z</time></trkpt><trkpt lat="45.22890541258888" lon="9.139448027679025"><ele>84.33333333333333</ele><time>2026-04-24T08:29:15.997Z</time></trkpt><trkpt lat="45.22874910997026" lon="9.13950687190048"><ele>84.0</ele><time>2026-04-24T08:29:16.997Z</time></trkpt><trkpt lat="45.22858340651717" lon="9.13956933057737"><ele>84.0</ele><time>2026-04-24T08:29:17.997Z</time></trkpt><trkpt lat="45.2284120552186" lon="9.139638929986788"><ele>84.0</ele><time>2026-04-24T08:29:18.997Z</time></trkpt><trkpt lat="45.22823284841652" lon="9.139700176456303"><ele>84.0</ele><time>2026-04-24T08:29:19.997Z</time></trkpt><trkpt lat="45.22806449286371" lon="9.139763737184921"><ele>83.33333333333333</ele><time>2026-04-24T08:29:20.996Z</time></trkpt><trkpt lat="45.22788107044972" lon="9.139832408206585"><ele>82.66666666666666</ele><time>2026-04-24T08:29:21.996Z</time></trkpt><trkpt lat="45.2276913155037" lon="9.139903686078823"><ele>82.0</ele><time>2026-04-24T08:29:22.996Z</time></trkpt><trkpt lat="45.227505963652455" lon="9.13997331009566"><ele>82.0</ele><time>2026-04-24T08:29:23.996Z</time></trkpt><trkpt lat="45.22731954922359" lon="9.140043333260513"><ele>82.0</ele><time>2026-04-24T08:29:24.996Z</time></trkpt><trkpt lat="45.22712726304986" lon="9.140136435590675"><ele>82.0</ele><time>2026-04-24T08:29:25.996Z</time></trkpt><trkpt lat="45.22691432171701" lon="9.140219336195255"><ele>81.66666666666666</ele><time>2026-04-24T08:29:26.996Z</time></trkpt><trkpt lat="45.22669567203559" lon="9.1402779967244"><ele>81.33333333333333</ele><time>2026-04-24T08:29:27.996Z</time></trkpt><trkpt lat="45.226502799003875" lon="9.14037432266183"><ele>81.0</ele><time>2026-04-24T08:29:28.996Z</time></trkpt><trkpt lat="45.22631467816688" lon="9.14043165542729"><ele>81.0</ele><time>2026-04-24T08:29:29.996Z</time></trkpt><trkpt lat="45.226117918415795" lon="9.14050049452371"><ele>81.0</ele><time>2026-04-24T08:29:30.996Z</time></trkpt><trkpt lat="45.225930844994785" lon="9.140577952210505"><ele>81.0</ele><time>2026-04-24T08:29:31.996Z</time></trkpt><trkpt lat="45.225748607919876" lon="9.140634879667697"><ele>81.0</ele><time>2026-04-24T08:29:32.996Z</time></trkpt><trkpt lat="45.22556435286683" lon="9.1407069817589"><ele>81.0</ele><time>2026-04-24T08:29:33.996Z</time></trkpt><trkpt lat="45.225402264662236" lon="9.140782187743136"><ele>81.0</ele><time>2026-04-24T08:29:34.996Z</time></trkpt><trkpt lat="45.22524181260948" lon="9.140831979938017"><ele>81.0</ele><time>2026-04-24T08:29:35.996Z</time></trkpt><trkpt lat="45.22508434579251" lon="9.140895072460948"><ele>81.0</ele><time>2026-04-24T08:29:36.996Z</time></trkpt><trkpt lat="45.224929345999186" lon="9.140957166330764"><ele>81.0</ele><time>2026-04-24T08:29:37.996Z</time></trkpt><trkpt lat="45.224779999270744" lon="9.141016995563152"><ele>81.0</ele><time>2026-04-24T08:29:38.996Z</time></trkpt><trkpt lat="45.22462484477817" lon="9.141079151375369"><ele>81.0</ele><time>2026-04-24T08:29:39.996Z</time></trkpt><trkpt lat="45.22447351870372" lon="9.141139780721797"><ele>81.0</ele><time>2026-04-24T08:29:40.996Z</time></trkpt><trkpt lat="45.22432692903698" lon="9.141198691545966"><ele>81.0</ele><time>2026-04-24T08:29:41.996Z</time></trkpt><trkpt lat="45.22419199311698" lon="9.141252918981156"><ele>81.0</ele><time>2026-04-24T08:29:42.996Z</time></trkpt><trkpt lat="45.22404911586688" lon="9.141300786940585"><ele>81.0</ele><time>2026-04-24T08:29:43.996Z</time></trkpt><trkpt lat="45.223900135087355" lon="9.141343737264638"><ele>81.0</ele><time>2026-04-24T08:29:44.996Z</time></trkpt><trkpt lat="45.22374613568451" lon="9.141414594439413"><ele>81.0</ele><time>2026-04-24T08:29:45.996Z</time></trkpt><trkpt lat="45.22358560448835" lon="9.141480556102058"><ele>81.0</ele><time>2026-04-24T08:29:46.996Z</time></trkpt><trkpt lat="45.223432313075826" lon="9.141532235889892"><ele>81.0</ele><time>2026-04-24T08:29:47.996Z</time></trkpt><trkpt lat="45.223273361329234" lon="9.141634336773121"><ele>80.66666666666667</ele><time>2026-04-24T08:29:48.996Z</time></trkpt><trkpt lat="45.22309301588578" lon="9.141692199834925"><ele>80.33333333333334</ele><time>2026-04-24T08:29:49.996Z</time></trkpt><trkpt lat="45.22291966630328" lon="9.141760889885905"><ele>80.0</ele><time>2026-04-24T08:29:50.996Z</time></trkpt><trkpt lat="45.222756854552784" lon="9.141825402564702"><ele>80.0</ele><time>2026-04-24T08:29:51.996Z</time></trkpt><trkpt lat="45.22260107666306" lon="9.14188914612348"><ele>80.0</ele><time>2026-04-24T08:29:52.996Z</time></trkpt><trkpt lat="45.22243003093652" lon="9.141944619777357"><ele>80.0</ele><time>2026-04-24T08:29:53.996Z</time></trkpt><trkpt lat="45.2222654046838" lon="9.142036457923282"><ele>80.0</ele><time>2026-04-24T08:29:54.996Z</time></trkpt><trkpt lat="45.22209985482968" lon="9.14208676222388"><ele>80.0</ele><time>2026-04-24T08:29:55.996Z</time></trkpt><trkpt lat="45.22192947102437" lon="9.142154940438195"><ele>80.0</ele><time>2026-04-24T08:29:56.996Z</time></trkpt><trkpt lat="45.22177655737185" lon="9.142216128187961"><ele>80.0</ele><time>2026-04-24T08:29:57.996Z</time></trkpt><trkpt lat="45.22161488430346" lon="9.14228082073279"><ele>80.0</ele><time>2026-04-24T08:29:58.996Z</time></trkpt><trkpt lat="45.221454781069376" lon="9.142344885253216"><ele>80.0</ele><time>2026-04-24T08:29:59.996Z</time></trkpt><trkpt lat="45.22130578634787" lon="9.142404504761988"><ele>81.0</ele><time>2026-04-24T08:30:00.996Z</time></trkpt><trkpt lat="45.22111901840401" lon="9.142479238971994"><ele>82.0</ele><time>2026-04-24T08:30:01.996Z</time></trkpt><trkpt lat="45.220938149964695" lon="9.142551612616634"><ele>83.0</ele><time>2026-04-24T08:30:02.996Z</time></trkpt><trkpt lat="45.22077249838405" lon="9.142617899053233"><ele>82.33333333333334</ele><time>2026-04-24T08:30:03.996Z</time></trkpt><trkpt lat="45.22060505208252" lon="9.142684641528973"><ele>81.66666666666667</ele><time>2026-04-24T08:30:04.996Z</time></trkpt><trkpt lat="45.220451322271416" lon="9.14274585502542"><ele>81.0</ele><time>2026-04-24T08:30:05.996Z</time></trkpt><trkpt lat="45.2202783117921" lon="9.142814745691538"><ele>81.0</ele><time>2026-04-24T08:30:07Z</time></trkpt><trkpt lat="45.22010071222194" lon="9.142885463754647"><ele>81.0</ele><time>2026-04-24T08:30:08Z</time></trkpt><trkpt lat="45.219918002769276" lon="9.142958216460679"><ele>81.0</ele><time>2026-04-24T08:30:09Z</time></trkpt><trkpt lat="45.21973999564285" lon="9.14302909678932"><ele>81.33333333333333</ele><time>2026-04-24T08:30:10Z</time></trkpt><trkpt lat="45.21955213232381" lon="9.14310417148967"><ele>81.66666666666666</ele><time>2026-04-24T08:30:11Z</time></trkpt><trkpt lat="45.219381820223724" lon="9.143172578895138"><ele>82.0</ele><time>2026-04-24T08:30:12Z</time></trkpt><trkpt lat="45.219197783308616" lon="9.143246498967915"><ele>82.33333333333333</ele><time>2026-04-24T08:30:13Z</time></trkpt><trkpt lat="45.219026316253924" lon="9.14333908972569"><ele>82.66666666666667</ele><time>2026-04-24T08:30:14Z</time></trkpt><trkpt lat="45.21884722981266" lon="9.143391123928097"><ele>83.0</ele><time>2026-04-24T08:30:15Z</time></trkpt><trkpt lat="45.21867730054831" lon="9.14344682862897"><ele>83.0</ele><time>2026-04-24T08:30:16Z</time></trkpt><trkpt lat="45.218506238119176" lon="9.143510689817566"><ele>83.0</ele><time>2026-04-24T08:30:17Z</time></trkpt><trkpt lat="45.21833357505847" lon="9.14359750650897"><ele>83.0</ele><time>2026-04-24T08:30:18Z</time></trkpt><trkpt lat="45.21816940978152" lon="9.143656007461344"><ele>81.66666666666667</ele><time>2026-04-24T08:30:19Z</time></trkpt><trkpt lat="45.21800538845209" lon="9.143721055545393"><ele>80.33333333333333</ele><time>2026-04-24T08:30:20Z</time></trkpt><trkpt lat="45.21784035102476" lon="9.143786506715564"><ele>79.0</ele><time>2026-04-24T08:30:21Z</time></trkpt><trkpt lat="45.21768822119053" lon="9.143846826693919"><ele>79.0</ele><time>2026-04-24T08:30:22Z</time></trkpt><trkpt lat="45.21734575355556" lon="9.14398203093019"><ele>79.0</ele><time>2026-04-24T08:30:24Z</time></trkpt><trkpt lat="45.217176278383704" lon="9.144048938827014"><ele>79.0</ele><time>2026-04-24T08:30:25Z</time></trkpt><trkpt lat="45.21701603075741" lon="9.144112203681772"><ele>79.0</ele><time>2026-04-24T08:30:26Z</time></trkpt><trkpt lat="45.21684843474797" lon="9.144178369642468"><ele>79.0</ele><time>2026-04-24T08:30:27Z</time></trkpt><trkpt lat="45.21668900599916" lon="9.144241311313651"><ele>79.0</ele><time>2026-04-24T08:30:28Z</time></trkpt><trkpt lat="45.216527240435674" lon="9.144305175295809"><ele>79.0</ele><time>2026-04-24T08:30:29Z</time></trkpt><trkpt lat="45.216361785461665" lon="9.144370496125909"><ele>79.0</ele><time>2026-04-24T08:30:30Z</time></trkpt><trkpt lat="45.216201401623906" lon="9.144433929897845"><ele>79.33333333333333</ele><time>2026-04-24T08:30:31Z</time></trkpt><trkpt lat="45.21602467551879" lon="9.144504216054386"><ele>79.66666666666667</ele><time>2026-04-24T08:30:32Z</time></trkpt><trkpt lat="45.215862277146265" lon="9.14456880420526"><ele>80.0</ele><time>2026-04-24T08:30:33Z</time></trkpt><trkpt lat="45.21570244663514" lon="9.144632364096214"><ele>80.66666666666667</ele><time>2026-04-24T08:30:34Z</time></trkpt><trkpt lat="45.21555363938712" lon="9.144691537040595"><ele>81.33333333333333</ele><time>2026-04-24T08:30:35Z</time></trkpt><trkpt lat="45.21540373693551" lon="9.14475135596761"><ele>82.0</ele><time>2026-04-24T08:30:36Z</time></trkpt><trkpt lat="45.215250333108564" lon="9.144813211756748"><ele>82.0</ele><time>2026-04-24T08:30:37Z</time></trkpt><trkpt lat="45.21509465654011" lon="9.14487752262657"><ele>82.0</ele><time>2026-04-24T08:30:38Z</time></trkpt><trkpt lat="45.214949037879556" lon="9.144940183702566"><ele>82.0</ele><time>2026-04-24T08:30:39Z</time></trkpt><trkpt lat="45.21478963680447" lon="9.145027623189854"><ele>81.66666666666666</ele><time>2026-04-24T08:30:40Z</time></trkpt><trkpt lat="45.21462294810713" lon="9.145097956016652"><ele>81.33333333333333</ele><time>2026-04-24T08:30:41Z</time></trkpt><trkpt lat="45.214478999358334" lon="9.145174582282369"><ele>81.0</ele><time>2026-04-24T08:30:42Z</time></trkpt><trkpt lat="45.21434887216518" lon="9.145247880830834"><ele>81.0</ele><time>2026-04-24T08:30:43Z</time></trkpt><trkpt lat="45.21421629775801" lon="9.145321116909736"><ele>81.0</ele><time>2026-04-24T08:30:44Z</time></trkpt><trkpt lat="45.21408001405273" lon="9.145412246351324"><ele>81.0</ele><time>2026-04-24T08:30:45Z</time></trkpt><trkpt lat="45.21395751363367" lon="9.145441990069456"><ele>81.0</ele><time>2026-04-24T08:30:46Z</time></trkpt><trkpt lat="45.21382827977729" lon="9.145511169628564"><ele>80.5</ele><time>2026-04-24T08:30:47Z</time></trkpt><trkpt lat="45.21370650528922" lon="9.145539039773164"><ele>80.0</ele><time>2026-04-24T08:30:48Z</time></trkpt><trkpt lat="45.21358106035813" lon="9.145608743485376"><ele>79.5</ele><time>2026-04-24T08:30:49Z</time></trkpt><trkpt lat="45.21343625407031" lon="9.145570861793919"><ele>79.0</ele><time>2026-04-24T08:30:50Z</time></trkpt><trkpt lat="45.213303032465966" lon="9.14561544356496"><ele>79.33333333333333</ele><time>2026-04-24T08:30:51Z</time></trkpt><trkpt lat="45.21315461240275" lon="9.145666237644818"><ele>79.66666666666667</ele><time>2026-04-24T08:30:52Z</time></trkpt><trkpt lat="45.2130052622015" lon="9.14572108699579"><ele>80.0</ele><time>2026-04-24T08:30:53Z</time></trkpt><trkpt lat="45.21285885606185" lon="9.145773296500115"><ele>80.0</ele><time>2026-04-24T08:30:54Z</time></trkpt><trkpt lat="45.21272122611242" lon="9.145824987446904"><ele>80.0</ele><time>2026-04-24T08:30:55Z</time></trkpt><trkpt lat="45.21258860440819" lon="9.145901249597452"><ele>80.0</ele><time>2026-04-24T08:30:56Z</time></trkpt><trkpt lat="45.21245691796641" lon="9.145957869691934"><ele>80.0</ele><time>2026-04-24T08:30:57Z</time></trkpt><trkpt lat="45.212326347966275" lon="9.145968367547855"><ele>80.0</ele><time>2026-04-24T08:30:58Z</time></trkpt><trkpt lat="45.21219329223964" lon="9.146031462462938"><ele>80.0</ele><time>2026-04-24T08:30:59Z</time></trkpt><trkpt lat="45.21203521929736" lon="9.14609488515572"><ele>80.0</ele><time>2026-04-24T08:31:00Z</time></trkpt><trkpt lat="45.21189797358831" lon="9.146149951301112"><ele>80.0</ele><time>2026-04-24T08:31:01Z</time></trkpt><trkpt lat="45.21175236723636" lon="9.146208598072983"><ele>80.0</ele><time>2026-04-24T08:31:02Z</time></trkpt><trkpt lat="45.211594572804714" lon="9.146271181883664"><ele>80.0</ele><time>2026-04-24T08:31:02.999Z</time></trkpt><trkpt lat="45.21143580868109" lon="9.14633415021421"><ele>80.0</ele><time>2026-04-24T08:31:03.999Z</time></trkpt><trkpt lat="45.21128125177741" lon="9.14639410365968"><ele>79.66666666666667</ele><time>2026-04-24T08:31:04.999Z</time></trkpt><trkpt lat="45.21112297285635" lon="9.146455333015323"><ele>79.33333333333333</ele><time>2026-04-24T08:31:05.999Z</time></trkpt><trkpt lat="45.21096841848668" lon="9.146516633084842"><ele>79.0</ele><time>2026-04-24T08:31:06.999Z</time></trkpt><trkpt lat="45.210822633265884" lon="9.146575384899077"><ele>79.0</ele><time>2026-04-24T08:31:07.999Z</time></trkpt><trkpt lat="45.210676304562064" lon="9.146634341411099"><ele>79.0</ele><time>2026-04-24T08:31:08.999Z</time></trkpt><trkpt lat="45.210530627909336" lon="9.146692245847097"><ele>79.0</ele><time>2026-04-24T08:31:09.999Z</time></trkpt><trkpt lat="45.21038246221462" lon="9.146750171470055"><ele>79.66666666666666</ele><time>2026-04-24T08:31:10.999Z</time></trkpt><trkpt lat="45.21020253992104" lon="9.146820736986543"><ele>80.33333333333333</ele><time>2026-04-24T08:31:11.999Z</time></trkpt><trkpt lat="45.21002944963991" lon="9.146888552444729"><ele>81.0</ele><time>2026-04-24T08:31:12.999Z</time></trkpt><trkpt lat="45.209852126292866" lon="9.146969178521939"><ele>81.33333333333333</ele><time>2026-04-24T08:31:13.999Z</time></trkpt><trkpt lat="45.209668362529186" lon="9.147025607098564"><ele>81.66666666666666</ele><time>2026-04-24T08:31:14.999Z</time></trkpt><trkpt lat="45.209486371514984" lon="9.147092895799526"><ele>82.0</ele><time>2026-04-24T08:31:15.999Z</time></trkpt><trkpt lat="45.2093052046737" lon="9.147174940235661"><ele>82.0</ele><time>2026-04-24T08:31:16.999Z</time></trkpt><trkpt lat="45.20912601917468" lon="9.147245975977844"><ele>82.0</ele><time>2026-04-24T08:31:17.999Z</time></trkpt><trkpt lat="45.208952789867396" lon="9.147314849537056"><ele>82.0</ele><time>2026-04-24T08:31:18.999Z</time></trkpt><trkpt lat="45.20879217937983" lon="9.1473787736873"><ele>81.0</ele><time>2026-04-24T08:31:19.999Z</time></trkpt><trkpt lat="45.20862696037171" lon="9.147460335684706"><ele>80.0</ele><time>2026-04-24T08:31:20.999Z</time></trkpt><trkpt lat="45.20846548277322" lon="9.14751951093992"><ele>79.0</ele><time>2026-04-24T08:31:21.999Z</time></trkpt><trkpt lat="45.20831539332956" lon="9.147611512121031"><ele>79.0</ele><time>2026-04-24T08:31:22.999Z</time></trkpt><trkpt lat="45.20815335582983" lon="9.147665418177171"><ele>79.0</ele><time>2026-04-24T08:31:23.999Z</time></trkpt><trkpt lat="45.20799854646774" lon="9.14770911200521"><ele>79.0</ele><time>2026-04-24T08:31:24.999Z</time></trkpt><trkpt lat="45.207839213571475" lon="9.1477684444373"><ele>79.0</ele><time>2026-04-24T08:31:25.999Z</time></trkpt><trkpt lat="45.20769113327081" lon="9.147826019102967"><ele>79.0</ele><time>2026-04-24T08:31:26.999Z</time></trkpt><trkpt lat="45.20753147963844" lon="9.147888649378826"><ele>79.0</ele><time>2026-04-24T08:31:27.999Z</time></trkpt><trkpt lat="45.207382577023964" lon="9.14796975413516"><ele>78.5</ele><time>2026-04-24T08:31:28.999Z</time></trkpt><trkpt lat="45.20722588191029" lon="9.14802849668209"><ele>78.0</ele><time>2026-04-24T08:31:29.999Z</time></trkpt><trkpt lat="45.20709310542591" lon="9.148080495634673"><ele>77.5</ele><time>2026-04-24T08:31:30.999Z</time></trkpt><trkpt lat="45.20695388218679" lon="9.148135157570868"><ele>77.0</ele><time>2026-04-24T08:31:31.999Z</time></trkpt><trkpt lat="45.20681053030128" lon="9.148190426807087"><ele>77.5</ele><time>2026-04-24T08:31:32.999Z</time></trkpt><trkpt lat="45.20666972063296" lon="9.148242085085064"><ele>78.0</ele><time>2026-04-24T08:31:33.999Z</time></trkpt><trkpt lat="45.20654021739177" lon="9.148306436116455"><ele>78.5</ele><time>2026-04-24T08:31:34.999Z</time></trkpt><trkpt lat="45.206410896266576" lon="9.14833408357051"><ele>79.0</ele><time>2026-04-24T08:31:35.999Z</time></trkpt><trkpt lat="45.20628946076915" lon="9.148346678228092"><ele>79.25</ele><time>2026-04-24T08:31:36.999Z</time></trkpt><trkpt lat="45.20619587852378" lon="9.148399534348608"><ele>79.5</ele><time>2026-04-24T08:31:37.999Z</time></trkpt><trkpt lat="45.20607919984542" lon="9.14841629530473"><ele>79.75</ele><time>2026-04-24T08:31:38.999Z</time></trkpt><trkpt lat="45.20595614262453" lon="9.148454202840384"><ele>80.0</ele><time>2026-04-24T08:31:39.999Z</time></trkpt><trkpt lat="45.20583714870913" lon="9.148517151595469"><ele>80.0</ele><time>2026-04-24T08:31:40.999Z</time></trkpt><trkpt lat="45.20569825219772" lon="9.148542840760852"><ele>80.0</ele><time>2026-04-24T08:31:41.999Z</time></trkpt><trkpt lat="45.205566275633586" lon="9.148582295224362"><ele>80.0</ele><time>2026-04-24T08:31:42.999Z</time></trkpt><trkpt lat="45.20544132331538" lon="9.148636611730005"><ele>80.0</ele><time>2026-04-24T08:31:43.999Z</time></trkpt><trkpt lat="45.20533049408674" lon="9.148659211661073"><ele>79.5</ele><time>2026-04-24T08:31:44.999Z</time></trkpt><trkpt lat="45.20519882695084" lon="9.148664391944749"><ele>79.0</ele><time>2026-04-24T08:31:45.999Z</time></trkpt><trkpt lat="45.20506911165731" lon="9.148721310438669"><ele>78.5</ele><time>2026-04-24T08:31:46.999Z</time></trkpt><trkpt lat="45.20494032929411" lon="9.148798328892369"><ele>78.0</ele><time>2026-04-24T08:31:47.999Z</time></trkpt><trkpt lat="45.20482134269705" lon="9.148868421178532"><ele>77.5</ele><time>2026-04-24T08:31:48.999Z</time></trkpt><trkpt lat="45.20469688562524" lon="9.148902414930467"><ele>77.0</ele><time>2026-04-24T08:31:49.999Z</time></trkpt><trkpt lat="45.204571379647355" lon="9.148937705041245"><ele>76.5</ele><time>2026-04-24T08:31:50.999Z</time></trkpt><trkpt lat="45.20445256470529" lon="9.14898559222298"><ele>76.0</ele><time>2026-04-24T08:31:51.999Z</time></trkpt><trkpt lat="45.204321646722626" lon="9.148994979108476"><ele>76.0</ele><time>2026-04-24T08:31:52.999Z</time></trkpt><trkpt lat="45.20418448199126" lon="9.149041361419334"><ele>76.0</ele><time>2026-04-24T08:31:53.999Z</time></trkpt><trkpt lat="45.20404853375608" lon="9.14907603386517"><ele>76.0</ele><time>2026-04-24T08:31:54.999Z</time></trkpt><trkpt lat="45.203930137746895" lon="9.149163984304277"><ele>76.0</ele><time>2026-04-24T08:31:55.999Z</time></trkpt><trkpt lat="45.20380964177641" lon="9.14918654623551"><ele>76.25</ele><time>2026-04-24T08:31:56.999Z</time></trkpt><trkpt lat="45.20368375302517" lon="9.149264678489237"><ele>76.5</ele><time>2026-04-24T08:31:57.999Z</time></trkpt><trkpt lat="45.20357342530179" lon="9.149312785977227"><ele>76.75</ele><time>2026-04-24T08:31:58.999Z</time></trkpt><trkpt lat="45.20343202451653" lon="9.14930602646843"><ele>77.0</ele><time>2026-04-24T08:31:59.999Z</time></trkpt><trkpt lat="45.20331063976138" lon="9.149383741842135"><ele>77.0</ele><time>2026-04-24T08:32:00.999Z</time></trkpt><trkpt lat="45.203190976088436" lon="9.149398920339898"><ele>77.0</ele><time>2026-04-24T08:32:01.999Z</time></trkpt><trkpt lat="45.203070026526866" lon="9.1494269394944"><ele>77.0</ele><time>2026-04-24T08:32:02.999Z</time></trkpt><trkpt lat="45.20293769079532" lon="9.149524931622087"><ele>77.0</ele><time>2026-04-24T08:32:03.999Z</time></trkpt><trkpt lat="45.20280149316243" lon="9.149531209200646"><ele>76.75</ele><time>2026-04-24T08:32:04.999Z</time></trkpt><trkpt lat="45.20266747261653" lon="9.149574858440687"><ele>76.5</ele><time>2026-04-24T08:32:05.999Z</time></trkpt><trkpt lat="45.20252804578607" lon="9.149621059349622"><ele>76.25</ele><time>2026-04-24T08:32:06.999Z</time></trkpt><trkpt lat="45.20239664491338" lon="9.1496816353078"><ele>76.0</ele><time>2026-04-24T08:32:07.999Z</time></trkpt><trkpt lat="45.20228936451266" lon="9.149764937002505"><ele>75.75</ele><time>2026-04-24T08:32:08.999Z</time></trkpt><trkpt lat="45.20217263549018" lon="9.149782839994124"><ele>75.5</ele><time>2026-04-24T08:32:09.999Z</time></trkpt><trkpt lat="45.20203739130973" lon="9.149829854958432"><ele>75.25</ele><time>2026-04-24T08:32:10.999Z</time></trkpt><trkpt lat="45.20189341939403" lon="9.149847319478463"><ele>75.0</ele><time>2026-04-24T08:32:11.999Z</time></trkpt><trkpt lat="45.20173671009922" lon="9.14990506977116"><ele>75.5</ele><time>2026-04-24T08:32:12.999Z</time></trkpt><trkpt lat="45.20160811156946" lon="9.149954619474668"><ele>76.0</ele><time>2026-04-24T08:32:13.999Z</time></trkpt><trkpt lat="45.20149269054135" lon="9.150031085622487"><ele>76.5</ele><time>2026-04-24T08:32:14.999Z</time></trkpt><trkpt lat="45.20136597197222" lon="9.150038416589425"><ele>77.0</ele><time>2026-04-24T08:32:15.999Z</time></trkpt><trkpt lat="45.20124709881085" lon="9.150088812234547"><ele>77.0</ele><time>2026-04-24T08:32:16.999Z</time></trkpt><trkpt lat="45.20110685513497" lon="9.150124996374522"><ele>77.0</ele><time>2026-04-24T08:32:17.999Z</time></trkpt><trkpt lat="45.20099132693261" lon="9.150193187146114"><ele>77.0</ele><time>2026-04-24T08:32:18.999Z</time></trkpt><trkpt lat="45.20087674896516" lon="9.150251788611866"><ele>77.0</ele><time>2026-04-24T08:32:19.999Z</time></trkpt><trkpt lat="45.20075353637228" lon="9.15028852770083"><ele>76.75</ele><time>2026-04-24T08:32:20.999Z</time></trkpt><trkpt lat="45.20063026553457" lon="9.15032304867799"><ele>76.5</ele><time>2026-04-24T08:32:21.999Z</time></trkpt><trkpt lat="45.20051073441236" lon="9.150380223918301"><ele>76.25</ele><time>2026-04-24T08:32:22.999Z</time></trkpt><trkpt lat="45.20039479056956" lon="9.150428876796786"><ele>76.0</ele><time>2026-04-24T08:32:23.999Z</time></trkpt><trkpt lat="45.20027119036711" lon="9.15048706901166"><ele>76.0</ele><time>2026-04-24T08:32:24.999Z</time></trkpt><trkpt lat="45.20012900902032" lon="9.15049440125804"><ele>76.0</ele><time>2026-04-24T08:32:25.999Z</time></trkpt><trkpt lat="45.19999656513215" lon="9.15054050464316"><ele>76.0</ele><time>2026-04-24T08:32:26.999Z</time></trkpt><trkpt lat="45.19986565985937" lon="9.150584576137678"><ele>76.0</ele><time>2026-04-24T08:32:27.999Z</time></trkpt><trkpt lat="45.199744398061966" lon="9.150677279518044"><ele>76.39999999999999</ele><time>2026-04-24T08:32:28.999Z</time></trkpt><trkpt lat="45.19962841336606" lon="9.150720390386462"><ele>76.8</ele><time>2026-04-24T08:32:29.999Z</time></trkpt><trkpt lat="45.19950809736881" lon="9.150719099072926"><ele>77.19999999999999</ele><time>2026-04-24T08:32:30.999Z</time></trkpt><trkpt lat="45.199401937534375" lon="9.150745240460523"><ele>77.6</ele><time>2026-04-24T08:32:31.999Z</time></trkpt><trkpt lat="45.199311464238185" lon="9.150774230229848"><ele>78.0</ele><time>2026-04-24T08:32:32.999Z</time></trkpt><trkpt lat="45.19921523529886" lon="9.150828688162742"><ele>78.0</ele><time>2026-04-24T08:32:33.999Z</time></trkpt><trkpt lat="45.19910073336004" lon="9.150808585072069"><ele>78.0</ele><time>2026-04-24T08:32:34.999Z</time></trkpt><trkpt lat="45.199009321113756" lon="9.150847345154936"><ele>78.0</ele><time>2026-04-24T08:32:35.999Z</time></trkpt><trkpt lat="45.19891211211826" lon="9.15084921563214"><ele>78.0</ele><time>2026-04-24T08:32:36.999Z</time></trkpt><trkpt lat="45.19882410099474" lon="9.1508847420408"><ele>78.0</ele><time>2026-04-24T08:32:37.999Z</time></trkpt><trkpt lat="45.19872975388207" lon="9.150966825423213"><ele>77.5</ele><time>2026-04-24T08:32:38.999Z</time></trkpt><trkpt lat="45.19863051798428" lon="9.15099483424922"><ele>77.0</ele><time>2026-04-24T08:32:39.998Z</time></trkpt><trkpt lat="45.19855194308931" lon="9.151038895945684"><ele>76.5</ele><time>2026-04-24T08:32:40.998Z</time></trkpt><trkpt lat="45.198474468370975" lon="9.151066780463463"><ele>76.0</ele><time>2026-04-24T08:32:41.998Z</time></trkpt><trkpt lat="45.198404439407625" lon="9.151088121934011"><ele>75.5</ele><time>2026-04-24T08:32:42.998Z</time></trkpt><trkpt lat="45.198325631854246" lon="9.151122923683284"><ele>75.0</ele><time>2026-04-24T08:32:43.998Z</time></trkpt><trkpt lat="45.19823730615382" lon="9.151146332972818"><ele>75.2</ele><time>2026-04-24T08:32:44.998Z</time></trkpt><trkpt lat="45.19815773755696" lon="9.151150882675935"><ele>75.4</ele><time>2026-04-24T08:32:45.998Z</time></trkpt><trkpt lat="45.19806657100088" lon="9.151161027541994"><ele>75.6</ele><time>2026-04-24T08:32:46.998Z</time></trkpt><trkpt lat="45.197972427513314" lon="9.151166576786647"><ele>75.8</ele><time>2026-04-24T08:32:47.998Z</time></trkpt><trkpt lat="45.19788149769673" lon="9.151189922221382"><ele>76.0</ele><time>2026-04-24T08:32:48.998Z</time></trkpt><trkpt lat="45.19777817745295" lon="9.15118763210501"><ele>76.0</ele><time>2026-04-24T08:32:49.998Z</time></trkpt><trkpt lat="45.19766631224543" lon="9.15120385461588"><ele>76.0</ele><time>2026-04-24T08:32:50.998Z</time></trkpt><trkpt lat="45.19755872291191" lon="9.151171050041976"><ele>76.0</ele><time>2026-04-24T08:32:51.998Z</time></trkpt><trkpt lat="45.19745099458442" lon="9.151155625680696"><ele>76.0</ele><time>2026-04-24T08:32:52.998Z</time></trkpt><trkpt lat="45.197318722954826" lon="9.15113190863193"><ele>76.25</ele><time>2026-04-24T08:32:53.998Z</time></trkpt><trkpt lat="45.19718503985726" lon="9.151102507115041"><ele>76.5</ele><time>2026-04-24T08:32:54.998Z</time></trkpt><trkpt lat="45.19705690346662" lon="9.151070087387868"><ele>76.75</ele><time>2026-04-24T08:32:55.998Z</time></trkpt><trkpt lat="45.1969325279026" lon="9.15103690464822"><ele>77.0</ele><time>2026-04-24T08:32:56.998Z</time></trkpt><trkpt lat="45.19682498517532" lon="9.15100780909967"><ele>77.0</ele><time>2026-04-24T08:32:57.998Z</time></trkpt><trkpt lat="45.196721639188006" lon="9.151021991227951"><ele>77.0</ele><time>2026-04-24T08:32:58.998Z</time></trkpt><trkpt lat="45.19661591180627" lon="9.150956746550367"><ele>77.0</ele><time>2026-04-24T08:32:59.998Z</time></trkpt><trkpt lat="45.196503722218495" lon="9.150959781812217"><ele>77.0</ele><time>2026-04-24T08:33:00.998Z</time></trkpt><trkpt lat="45.19640459430299" lon="9.150902690205788"><ele>77.0</ele><time>2026-04-24T08:33:01.998Z</time></trkpt><trkpt lat="45.1962974421434" lon="9.150892569876898"><ele>77.0</ele><time>2026-04-24T08:33:02.998Z</time></trkpt><trkpt lat="45.196184320081514" lon="9.150836363609255"><ele>77.0</ele><time>2026-04-24T08:33:03.998Z</time></trkpt><trkpt lat="45.19605195453409" lon="9.15079357455558"><ele>77.0</ele><time>2026-04-24T08:33:04.998Z</time></trkpt><trkpt lat="45.195920416973145" lon="9.150764827085867"><ele>77.0</ele><time>2026-04-24T08:33:05.998Z</time></trkpt><trkpt lat="45.19578346933482" lon="9.150734093607841"><ele>77.8</ele><time>2026-04-24T08:33:06.998Z</time></trkpt><trkpt lat="45.19564921925085" lon="9.150692076096014"><ele>78.6</ele><time>2026-04-24T08:33:07.998Z</time></trkpt><trkpt lat="45.195533143204926" lon="9.150653733452447"><ele>79.39999999999999</ele><time>2026-04-24T08:33:08.998Z</time></trkpt><trkpt lat="45.19545063841802" lon="9.150619472242846"><ele>80.2</ele><time>2026-04-24T08:33:09.998Z</time></trkpt><trkpt lat="45.19538178546751" lon="9.150557632718417"><ele>81.0</ele><time>2026-04-24T08:33:10.998Z</time></trkpt><trkpt lat="45.195314063646656" lon="9.15045217060041"><ele>81.0</ele><time>2026-04-24T08:33:12.998Z</time></trkpt><trkpt lat="45.1952343814459" lon="9.150351659909031"><ele>81.0</ele><time>2026-04-24T08:33:15.998Z</time></trkpt><trkpt lat="45.195154301143745" lon="9.15028611788358"><ele>81.0</ele><time>2026-04-24T08:33:16.998Z</time></trkpt><trkpt lat="45.19506951996255" lon="9.150189565380812"><ele>81.0</ele><time>2026-04-24T08:33:17.998Z</time></trkpt><trkpt lat="45.19496596205736" lon="9.150139590782747"><ele>81.0</ele><time>2026-04-24T08:33:18.998Z</time></trkpt><trkpt lat="45.194881396142854" lon="9.150111619641306"><ele>80.39999999999999</ele><time>2026-04-24T08:33:19.998Z</time></trkpt><trkpt lat="45.19477898310583" lon="9.150171956799866"><ele>79.8</ele><time>2026-04-24T08:33:20.998Z</time></trkpt><trkpt lat="45.19471222573077" lon="9.150262116058649"><ele>79.19999999999999</ele><time>2026-04-24T08:33:21.998Z</time></trkpt><trkpt lat="45.19465479482507" lon="9.150372321857473"><ele>78.6</ele><time>2026-04-24T08:33:22.998Z</time></trkpt><trkpt lat="45.19458843634363" lon="9.150473013223358"><ele>78.0</ele><time>2026-04-24T08:33:23.998Z</time></trkpt><trkpt lat="45.19451546921759" lon="9.150557176184819"><ele>78.0</ele><time>2026-04-24T08:33:24.998Z</time></trkpt><trkpt lat="45.19444356037281" lon="9.150648983664773"><ele>78.0</ele><time>2026-04-24T08:33:25.998Z</time></trkpt><trkpt lat="45.19434778906762" lon="9.150747684911762"><ele>78.0</ele><time>2026-04-24T08:33:26.998Z</time></trkpt><trkpt lat="45.19424210437051" lon="9.150831540820487"><ele>78.0</ele><time>2026-04-24T08:33:27.998Z</time></trkpt><trkpt lat="45.19412618780547" lon="9.150911038379855"><ele>77.5</ele><time>2026-04-24T08:33:28.998Z</time></trkpt><trkpt lat="45.19400497730442" lon="9.15100364098099"><ele>77.0</ele><time>2026-04-24T08:33:29.998Z</time></trkpt><trkpt lat="45.19390722034242" lon="9.151064507439807"><ele>76.5</ele><time>2026-04-24T08:33:30.998Z</time></trkpt><trkpt lat="45.19382756190034" lon="9.151131558353235"><ele>76.0</ele><time>2026-04-24T08:33:31.998Z</time></trkpt><trkpt lat="45.19361478271378" lon="9.1512299155875"><ele>76.0</ele><time>2026-04-24T08:33:33.998Z</time></trkpt><trkpt lat="45.19351831349191" lon="9.151265590430363"><ele>76.0</ele><time>2026-04-24T08:33:34.998Z</time></trkpt><trkpt lat="45.19341606784684" lon="9.151305988029097"><ele>76.0</ele><time>2026-04-24T08:33:35.998Z</time></trkpt><trkpt lat="45.193318670349605" lon="9.15132548465889"><ele>76.0</ele><time>2026-04-24T08:33:36.998Z</time></trkpt><trkpt lat="45.19323304579402" lon="9.151340529941269"><ele>76.0</ele><time>2026-04-24T08:33:37.998Z</time></trkpt><trkpt lat="45.19315012071265" lon="9.151301308651345"><ele>76.33333333333333</ele><time>2026-04-24T08:33:38.998Z</time></trkpt><trkpt lat="45.19308004241409" lon="9.151296762406842"><ele>76.66666666666666</ele><time>2026-04-24T08:33:39.998Z</time></trkpt><trkpt lat="45.19300702066453" lon="9.151281908559563"><ele>77.0</ele><time>2026-04-24T08:33:40.998Z</time></trkpt><trkpt lat="45.192945266761505" lon="9.151258827371324"><ele>77.33333333333333</ele><time>2026-04-24T08:33:41.998Z</time></trkpt><trkpt lat="45.19283409467256" lon="9.151201518925486"><ele>77.66666666666667</ele><time>2026-04-24T08:33:43.998Z</time></trkpt><trkpt lat="45.192740984120924" lon="9.151163268760317"><ele>78.0</ele><time>2026-04-24T08:33:45.998Z</time></trkpt><trkpt lat="45.19266717065936" lon="9.151095567616382"><ele>78.0</ele><time>2026-04-24T08:33:47.998Z</time></trkpt><trkpt lat="45.192573895699596" lon="9.150981585695977"><ele>78.0</ele><time>2026-04-24T08:33:49.998Z</time></trkpt><trkpt lat="45.192523685105265" lon="9.150908911276808"><ele>78.0</ele><time>2026-04-24T08:33:50.998Z</time></trkpt><trkpt lat="45.192469217415635" lon="9.150835091485456"><ele>78.0</ele><time>2026-04-24T08:33:51.998Z</time></trkpt><trkpt lat="45.192411752520634" lon="9.150758950821533"><ele>78.0</ele><time>2026-04-24T08:33:52.998Z</time></trkpt><trkpt lat="45.19235226096113" lon="9.150680097899334"><ele>78.0</ele><time>2026-04-24T08:33:53.998Z</time></trkpt><trkpt lat="45.19231167664559" lon="9.150576119954726"><ele>78.16666666666667</ele><time>2026-04-24T08:33:54.998Z</time></trkpt><trkpt lat="45.192251036865564" lon="9.150493767607525"><ele>78.33333333333333</ele><time>2026-04-24T08:33:55.998Z</time></trkpt><trkpt lat="45.19220227810696" lon="9.15039905966231"><ele>78.5</ele><time>2026-04-24T08:33:56.998Z</time></trkpt><trkpt lat="45.1921469631871" lon="9.1503094010275"><ele>78.66666666666666</ele><time>2026-04-24T08:33:57.998Z</time></trkpt><trkpt lat="45.1920967708106" lon="9.150212381276546"><ele>78.83333333333333</ele><time>2026-04-24T08:33:58.998Z</time></trkpt><trkpt lat="45.192043967090214" lon="9.150116967881024"><ele>79.0</ele><time>2026-04-24T08:33:59.998Z</time></trkpt><trkpt lat="45.1919855958029" lon="9.150024093385017"><ele>79.0</ele><time>2026-04-24T08:34:00.998Z</time></trkpt><trkpt lat="45.191928105113945" lon="9.149928112403542"><ele>79.0</ele><time>2026-04-24T08:34:01.998Z</time></trkpt><trkpt lat="45.19187016196434" lon="9.149828388388977"><ele>79.0</ele><time>2026-04-24T08:34:02.998Z</time></trkpt><trkpt lat="45.19180895340923" lon="9.149723777689928"><ele>79.0</ele><time>2026-04-24T08:34:03.998Z</time></trkpt><trkpt lat="45.19175524026276" lon="9.149605496011144"><ele>79.0</ele><time>2026-04-24T08:34:04.998Z</time></trkpt><trkpt lat="45.1916973336096" lon="9.149494990873295"><ele>78.60000000000001</ele><time>2026-04-24T08:34:05.998Z</time></trkpt><trkpt lat="45.19163531687069" lon="9.14938183579736"><ele>78.2</ele><time>2026-04-24T08:34:06.998Z</time></trkpt><trkpt lat="45.191571794090784" lon="9.14926252712812"><ele>77.80000000000001</ele><time>2026-04-24T08:34:07.998Z</time></trkpt><trkpt lat="45.19150751932445" lon="9.149146803520896"><ele>77.4</ele><time>2026-04-24T08:34:08.998Z</time></trkpt><trkpt lat="45.19143623491181" lon="9.149034913210615"><ele>77.0</ele><time>2026-04-24T08:34:09.998Z</time></trkpt><trkpt lat="45.19136793094544" lon="9.148926443530952"><ele>77.0</ele><time>2026-04-24T08:34:10.998Z</time></trkpt><trkpt lat="45.19130048229334" lon="9.148827447773998"><ele>77.0</ele><time>2026-04-24T08:34:11.998Z</time></trkpt><trkpt lat="45.19125246086306" lon="9.1487237503787"><ele>77.0</ele><time>2026-04-24T08:34:12.998Z</time></trkpt><trkpt lat="45.191204048502975" lon="9.148640930324499"><ele>77.0</ele><time>2026-04-24T08:34:13.998Z</time></trkpt><trkpt lat="45.191155352925534" lon="9.148576206243431"><ele>77.0</ele><time>2026-04-24T08:34:14.998Z</time></trkpt><trkpt lat="45.19108995552586" lon="9.148479704620222"><ele>77.0</ele><time>2026-04-24T08:34:16.998Z</time></trkpt><trkpt lat="45.19100845457327" lon="9.148503343421096"><ele>77.0</ele><time>2026-04-24T08:34:17.997Z</time></trkpt><trkpt lat="45.190917769160464" lon="9.148533129501697"><ele>77.0</ele><time>2026-04-24T08:34:18.997Z</time></trkpt><trkpt lat="45.190902957653876" lon="9.148621578081066"><ele>77.0</ele><time>2026-04-24T08:34:19.997Z</time></trkpt><trkpt lat="45.190898395160616" lon="9.148723780482927"><ele>77.0</ele><time>2026-04-24T08:34:20.997Z</time></trkpt><trkpt lat="45.19086440916823" lon="9.148824487788815"><ele>77.0</ele><time>2026-04-24T08:34:21.997Z</time></trkpt><trkpt lat="45.19083325315547" lon="9.148920763058538"><ele>77.0</ele><time>2026-04-24T08:34:22.997Z</time></trkpt><trkpt lat="45.190804640974065" lon="9.149001687967901"><ele>77.0</ele><time>2026-04-24T08:34:23.997Z</time></trkpt><trkpt lat="45.190772256690366" lon="9.149134654729336"><ele>77.2</ele><time>2026-04-24T08:34:25.997Z</time></trkpt><trkpt lat="45.19074741879007" lon="9.149267506927274"><ele>77.4</ele><time>2026-04-24T08:34:27.997Z</time></trkpt><trkpt lat="45.19071955098354" lon="9.149411163388097"><ele>77.6</ele><time>2026-04-24T08:34:29.997Z</time></trkpt><trkpt lat="45.19068868907997" lon="9.149570254306909"><ele>77.8</ele><time>2026-04-24T08:34:31.997Z</time></trkpt><trkpt lat="45.19065615229505" lon="9.149714499638456"><ele>78.0</ele><time>2026-04-24T08:34:33.997Z</time></trkpt><trkpt lat="45.19060697543274" lon="9.149821312098515"><ele>78.8</ele><time>2026-04-24T08:34:35.997Z</time></trkpt><trkpt lat="45.19057759193745" lon="9.149937632274765"><ele>79.6</ele><time>2026-04-24T08:34:37.997Z</time></trkpt><trkpt lat="45.190516354429555" lon="9.150068716259819"><ele>80.39999999999999</ele><time>2026-04-24T08:34:39.997Z</time></trkpt><trkpt lat="45.190387891052616" lon="9.15008005883585"><ele>81.19999999999999</ele><time>2026-04-24T08:34:41.997Z</time></trkpt><trkpt lat="45.190315554207736" lon="9.15008148418732"><ele>82.0</ele><time>2026-04-24T08:34:42.997Z</time></trkpt><trkpt lat="45.19024165487541" lon="9.150057220814086"><ele>82.0</ele><time>2026-04-24T08:34:43.997Z</time></trkpt><trkpt lat="45.190170145849216" lon="9.150015492386673"><ele>82.0</ele><time>2026-04-24T08:34:44.997Z</time></trkpt><trkpt lat="45.19011723475112" lon="9.149936791035415"><ele>82.0</ele><time>2026-04-24T08:34:45.997Z</time></trkpt><trkpt lat="45.19005536136837" lon="9.14986994929659"><ele>82.0</ele><time>2026-04-24T08:34:46.997Z</time></trkpt><trkpt lat="45.18999120339838" lon="9.149799025182007"><ele>82.0</ele><time>2026-04-24T08:34:47.997Z</time></trkpt><trkpt lat="45.18992514807396" lon="9.149724947049512"><ele>82.0</ele><time>2026-04-24T08:34:48.997Z</time></trkpt><trkpt lat="45.18985718850927" lon="9.149647579146633"><ele>81.83333333333333</ele><time>2026-04-24T08:34:49.997Z</time></trkpt><trkpt lat="45.18978936175618" lon="9.149570362334684"><ele>81.66666666666666</ele><time>2026-04-24T08:34:50.997Z</time></trkpt><trkpt lat="45.18972137125551" lon="9.149495177360755"><ele>81.5</ele><time>2026-04-24T08:34:51.997Z</time></trkpt><trkpt lat="45.189648004520144" lon="9.149413830745925"><ele>81.33333333333333</ele><time>2026-04-24T08:34:52.997Z</time></trkpt><trkpt lat="45.189576989774615" lon="9.149335089662731"><ele>81.16666666666667</ele><time>2026-04-24T08:34:53.997Z</time></trkpt><trkpt lat="45.18950929660363" lon="9.149259399696405"><ele>81.0</ele><time>2026-04-24T08:34:54.997Z</time></trkpt><trkpt lat="45.18943536255811" lon="9.149177567319978"><ele>81.0</ele><time>2026-04-24T08:34:55.997Z</time></trkpt><trkpt lat="45.18936173814537" lon="9.149095295411353"><ele>81.0</ele><time>2026-04-24T08:34:56.997Z</time></trkpt><trkpt lat="45.18928964126722" lon="9.149013169917989"><ele>81.0</ele><time>2026-04-24T08:34:57.997Z</time></trkpt><trkpt lat="45.189216365599066" lon="9.148929699942837"><ele>81.0</ele><time>2026-04-24T08:34:58.997Z</time></trkpt><trkpt lat="45.18913978976912" lon="9.148843209942777"><ele>81.0</ele><time>2026-04-24T08:34:59.997Z</time></trkpt><trkpt lat="45.189065219065874" lon="9.14875933742909"><ele>80.66666666666667</ele><time>2026-04-24T08:35:00.997Z</time></trkpt><trkpt lat="45.18899335254451" lon="9.148678845201285"><ele>80.33333333333333</ele><time>2026-04-24T08:35:01.997Z</time></trkpt><trkpt lat="45.18892444436551" lon="9.148601887715119"><ele>80.0</ele><time>2026-04-24T08:35:02.997Z</time></trkpt><trkpt lat="45.188841828334496" lon="9.14853537144675"><ele>79.66666666666666</ele><time>2026-04-24T08:35:03.997Z</time></trkpt><trkpt lat="45.188776551217465" lon="9.148456759054618"><ele>79.33333333333333</ele><time>2026-04-24T08:35:04.997Z</time></trkpt><trkpt lat="45.18871408163384" lon="9.148393618270807"><ele>79.0</ele><time>2026-04-24T08:35:05.997Z</time></trkpt><trkpt lat="45.18866103754995" lon="9.14833453378161"><ele>79.0</ele><time>2026-04-24T08:35:06.997Z</time></trkpt><trkpt lat="45.18857888723103" lon="9.148215390461509"><ele>79.0</ele><time>2026-04-24T08:35:08.997Z</time></trkpt><trkpt lat="45.18848652557221" lon="9.148111916344106"><ele>79.0</ele><time>2026-04-24T08:35:10.997Z</time></trkpt><trkpt lat="45.188403464183104" lon="9.148046282384737"><ele>79.0</ele><time>2026-04-24T08:35:12.997Z</time></trkpt><trkpt lat="45.188357004705416" lon="9.147966812235024"><ele>79.0</ele><time>2026-04-24T08:35:14.997Z</time></trkpt><trkpt lat="45.18830119312442" lon="9.147904285663392"><ele>78.75</ele><time>2026-04-24T08:35:16.997Z</time></trkpt><trkpt lat="45.18821642382207" lon="9.147808591782335"><ele>78.5</ele><time>2026-04-24T08:35:18.997Z</time></trkpt><trkpt lat="45.18808291396774" lon="9.14765925650127"><ele>78.25</ele><time>2026-04-24T08:35:20.997Z</time></trkpt><trkpt lat="45.18799059626369" lon="9.147616327246359"><ele>78.0</ele><time>2026-04-24T08:35:21.997Z</time></trkpt><trkpt lat="45.18791841559467" lon="9.147542208899232"><ele>78.0</ele><time>2026-04-24T08:35:22.997Z</time></trkpt><trkpt lat="45.18785879847461" lon="9.147480857624954"><ele>78.0</ele><time>2026-04-24T08:35:23.997Z</time></trkpt><trkpt lat="45.18777072576454" lon="9.147363370515151"><ele>78.0</ele><time>2026-04-24T08:35:25.997Z</time></trkpt><trkpt lat="45.18769751384504" lon="9.147274768786856"><ele>78.0</ele><time>2026-04-24T08:35:27.997Z</time></trkpt><trkpt lat="45.18763343083118" lon="9.147204409771362"><ele>78.0</ele><time>2026-04-24T08:35:29.997Z</time></trkpt><trkpt lat="45.18757705872023" lon="9.147143583543324"><ele>78.0</ele><time>2026-04-24T08:35:33.997Z</time></trkpt><trkpt lat="45.18751703447733" lon="9.147077716486328"><ele>78.0</ele><time>2026-04-24T08:35:44.997Z</time></trkpt><trkpt lat="45.187414535044105" lon="9.14698656525009"><ele>78.0</ele><time>2026-04-24T08:35:46.997Z</time></trkpt><trkpt lat="45.187363866733996" lon="9.146923802084832"><ele>78.0</ele><time>2026-04-24T08:35:47.997Z</time></trkpt><trkpt lat="45.187298337326425" lon="9.146878003771857"><ele>78.0</ele><time>2026-04-24T08:35:48.997Z</time></trkpt><trkpt lat="45.18721551223272" lon="9.146925623898099"><ele>78.0</ele><time>2026-04-24T08:35:49.997Z</time></trkpt><trkpt lat="45.18713036250055" lon="9.146850740652178"><ele>77.6</ele><time>2026-04-24T08:35:50.997Z</time></trkpt><trkpt lat="45.187036701686424" lon="9.146814841121431"><ele>77.19999999999999</ele><time>2026-04-24T08:35:51.997Z</time></trkpt><trkpt lat="45.18694436131499" lon="9.146807677432443"><ele>76.8</ele><time>2026-04-24T08:35:52.997Z</time></trkpt><trkpt lat="45.186849133923545" lon="9.14680772884449"><ele>76.39999999999999</ele><time>2026-04-24T08:35:53.997Z</time></trkpt><trkpt lat="45.186750781391176" lon="9.1468048639641"><ele>76.0</ele><time>2026-04-24T08:35:54.996Z</time></trkpt><trkpt lat="45.18664410921373" lon="9.146804649802423"><ele>76.0</ele><time>2026-04-24T08:35:55.996Z</time></trkpt><trkpt lat="45.18653391348795" lon="9.1467901221142"><ele>76.0</ele><time>2026-04-24T08:35:56.996Z</time></trkpt><trkpt lat="45.18642213481948" lon="9.146783824787084"><ele>76.0</ele><time>2026-04-24T08:35:57.996Z</time></trkpt><trkpt lat="45.1863021960335" lon="9.146764276556665"><ele>76.0</ele><time>2026-04-24T08:35:58.996Z</time></trkpt><trkpt lat="45.18617144405544" lon="9.146757762606583"><ele>75.5</ele><time>2026-04-24T08:35:59.996Z</time></trkpt><trkpt lat="45.18603681764446" lon="9.146765844430371"><ele>75.0</ele><time>2026-04-24T08:36:00.996Z</time></trkpt><trkpt lat="45.18590029037152" lon="9.146753503533413"><ele>74.5</ele><time>2026-04-24T08:36:01.996Z</time></trkpt><trkpt lat="45.18576287064967" lon="9.146741289604323"><ele>74.0</ele><time>2026-04-24T08:36:02.996Z</time></trkpt><trkpt lat="45.18563316444315" lon="9.1467295812383"><ele>73.5</ele><time>2026-04-24T08:36:03.996Z</time></trkpt><trkpt lat="45.18551732045478" lon="9.146720468354538"><ele>73.0</ele><time>2026-04-24T08:36:04.996Z</time></trkpt><trkpt lat="45.18540213988467" lon="9.146711349141329"><ele>72.5</ele><time>2026-04-24T08:36:05.996Z</time></trkpt><trkpt lat="45.18528417951475" lon="9.14670352546378"><ele>72.0</ele><time>2026-04-24T08:36:06.996Z</time></trkpt><trkpt lat="45.18517916197017" lon="9.146690395929935"><ele>72.0</ele><time>2026-04-24T08:36:07.996Z</time></trkpt><trkpt lat="45.18508505481714" lon="9.146678879704089"><ele>72.0</ele><time>2026-04-24T08:36:08.996Z</time></trkpt><trkpt lat="45.18499318011103" lon="9.146665860212407"><ele>72.0</ele><time>2026-04-24T08:36:09.996Z</time></trkpt><trkpt lat="45.18490885955879" lon="9.146652688508631"><ele>72.0</ele><time>2026-04-24T08:36:10.996Z</time></trkpt><trkpt lat="45.18483105812638" lon="9.146634702595637"><ele>72.0</ele><time>2026-04-24T08:36:11.996Z</time></trkpt><trkpt lat="45.184759169015514" lon="9.146637524142804"><ele>72.0</ele><time>2026-04-24T08:36:12.996Z</time></trkpt><trkpt lat="45.18465863158898" lon="9.14661974646554"><ele>71.8</ele><time>2026-04-24T08:36:14.996Z</time></trkpt><trkpt lat="45.18458495041086" lon="9.146614370203977"><ele>71.6</ele><time>2026-04-24T08:36:17.996Z</time></trkpt><trkpt lat="45.18450128243506" lon="9.14659220533785"><ele>71.39999999999999</ele><time>2026-04-24T08:36:20.996Z</time></trkpt><trkpt lat="45.184422403802344" lon="9.146581572420947"><ele>71.2</ele><time>2026-04-24T08:36:21.996Z</time></trkpt><trkpt lat="45.18431028516015" lon="9.146563880731241"><ele>71.0</ele><time>2026-04-24T08:36:22.996Z</time></trkpt><trkpt lat="45.184176368323946" lon="9.146561740857694"><ele>71.0</ele><time>2026-04-24T08:36:23.996Z</time></trkpt><trkpt lat="45.18403288620814" lon="9.14656649637895"><ele>71.0</ele><time>2026-04-24T08:36:24.996Z</time></trkpt><trkpt lat="45.18389049187425" lon="9.146562205628051"><ele>71.0</ele><time>2026-04-24T08:36:25.996Z</time></trkpt><trkpt lat="45.18374868121948" lon="9.146555386142099"><ele>71.0</ele><time>2026-04-24T08:36:26.996Z</time></trkpt><trkpt lat="45.183613347886094" lon="9.146544100330775"><ele>71.0</ele><time>2026-04-24T08:36:27.996Z</time></trkpt><trkpt lat="45.18349497392739" lon="9.14652988501436"><ele>71.0</ele><time>2026-04-24T08:36:28.996Z</time></trkpt><trkpt lat="45.1833873831164" lon="9.14652951879173"><ele>71.0</ele><time>2026-04-24T08:36:29.996Z</time></trkpt><trkpt lat="45.18328751434712" lon="9.146527456659438"><ele>71.0</ele><time>2026-04-24T08:36:30.996Z</time></trkpt><trkpt lat="45.183204922619744" lon="9.146513426223486"><ele>71.0</ele><time>2026-04-24T08:36:31.996Z</time></trkpt><trkpt lat="45.18313252124122" lon="9.146506318862594"><ele>71.0</ele><time>2026-04-24T08:36:32.996Z</time></trkpt><trkpt lat="45.18306944495925" lon="9.146495726777426"><ele>71.0</ele><time>2026-04-24T08:36:33.996Z</time></trkpt><trkpt lat="45.18296531240309" lon="9.146616035394729"><ele>71.0</ele><time>2026-04-24T08:36:35.996Z</time></trkpt><trkpt lat="45.182914107541436" lon="9.146508046697788"><ele>71.0</ele><time>2026-04-24T08:36:36.996Z</time></trkpt><trkpt lat="45.1828389851061" lon="9.14649827685742"><ele>71.0</ele><time>2026-04-24T08:36:38.996Z</time></trkpt><trkpt lat="45.18264918979551" lon="9.14657015530919"><ele>71.0</ele><time>2026-04-24T08:36:40.996Z</time></trkpt><trkpt lat="45.18259298577846" lon="9.146461402775452"><ele>71.0</ele><time>2026-04-24T08:36:42.996Z</time></trkpt><trkpt lat="45.182509307334335" lon="9.146348759525369"><ele>71.0</ele><time>2026-04-24T08:36:44.996Z</time></trkpt><trkpt lat="45.182448818568204" lon="9.146394478778927"><ele>71.0</ele><time>2026-04-24T08:36:45.996Z</time></trkpt><trkpt lat="45.18238891169692" lon="9.146451577577924"><ele>71.0</ele><time>2026-04-24T08:36:46.996Z</time></trkpt><trkpt lat="45.182329140594234" lon="9.146504604208701"><ele>71.0</ele><time>2026-04-24T08:36:47.996Z</time></trkpt><trkpt lat="45.182255440768316" lon="9.146512688298737"><ele>70.0</ele><time>2026-04-24T08:36:48.996Z</time></trkpt><trkpt lat="45.1821895169431" lon="9.146548642658866"><ele>69.0</ele><time>2026-04-24T08:36:49.996Z</time></trkpt><trkpt lat="45.182113565266505" lon="9.14656075782069"><ele>68.0</ele><time>2026-04-24T08:36:50.996Z</time></trkpt><trkpt lat="45.18203362920416" lon="9.146557187813327"><ele>67.0</ele><time>2026-04-24T08:36:51.996Z</time></trkpt><trkpt lat="45.18194418769024" lon="9.146551955060431"><ele>66.0</ele><time>2026-04-24T08:36:52.996Z</time></trkpt><trkpt lat="45.18184723930226" lon="9.146547322199549"><ele>65.0</ele><time>2026-04-24T08:36:53.996Z</time></trkpt><trkpt lat="45.18174986159181" lon="9.146542150645649"><ele>65.0</ele><time>2026-04-24T08:36:54.996Z</time></trkpt><trkpt lat="45.181653190579496" lon="9.146536896604589"><ele>65.0</ele><time>2026-04-24T08:36:55.996Z</time></trkpt><trkpt lat="45.1815547746998" lon="9.146531311724472"><ele>65.0</ele><time>2026-04-24T08:36:56.996Z</time></trkpt><trkpt lat="45.18142981874666" lon="9.14660222206583"><ele>65.0</ele><time>2026-04-24T08:36:57.996Z</time></trkpt><trkpt lat="45.181322035828714" lon="9.146611302804791"><ele>65.0</ele><time>2026-04-24T08:36:58.996Z</time></trkpt><trkpt lat="45.181206990665615" lon="9.14660965447737"><ele>62.0</ele><time>2026-04-24T08:36:59.996Z</time></trkpt><trkpt lat="45.18109320516183" lon="9.146605810449525"><ele>59.0</ele><time>2026-04-24T08:37:00.996Z</time></trkpt><trkpt lat="45.18098323722137" lon="9.146602277705757"><ele>56.0</ele><time>2026-04-24T08:37:01.996Z</time></trkpt><trkpt lat="45.18086770079199" lon="9.14659386187095"><ele>53.0</ele><time>2026-04-24T08:37:02.996Z</time></trkpt><trkpt lat="45.1807497560614" lon="9.146588667803812"><ele>53.25</ele><time>2026-04-24T08:37:03.996Z</time></trkpt><trkpt lat="45.1806319822669" lon="9.146559294458163"><ele>53.5</ele><time>2026-04-24T08:37:04.996Z</time></trkpt><trkpt lat="45.18051218178376" lon="9.146551774017793"><ele>53.75</ele><time>2026-04-24T08:37:05.996Z</time></trkpt><trkpt lat="45.18039442720129" lon="9.146544382021695"><ele>54.0</ele><time>2026-04-24T08:37:06.996Z</time></trkpt><trkpt lat="45.180272947136245" lon="9.146536756162675"><ele>54.5</ele><time>2026-04-24T08:37:07.996Z</time></trkpt><trkpt lat="45.18015029167073" lon="9.146529058425731"><ele>55.0</ele><time>2026-04-24T08:37:08.996Z</time></trkpt><trkpt lat="45.18002768883067" lon="9.146521543902352"><ele>55.5</ele><time>2026-04-24T08:37:09.996Z</time></trkpt><trkpt lat="45.179905670708905" lon="9.146514193409756"><ele>56.0</ele><time>2026-04-24T08:37:10.996Z</time></trkpt><trkpt lat="45.179786800289435" lon="9.146507032536288"><ele>58.25</ele><time>2026-04-24T08:37:12Z</time></trkpt><trkpt lat="45.17966515256411" lon="9.146499704356147"><ele>60.5</ele><time>2026-04-24T08:37:13Z</time></trkpt><trkpt lat="45.17954178217912" lon="9.146491011543684"><ele>62.75</ele><time>2026-04-24T08:37:14Z</time></trkpt><trkpt lat="45.179418400925236" lon="9.146483473631159"><ele>65.0</ele><time>2026-04-24T08:37:15Z</time></trkpt><trkpt lat="45.17929816626033" lon="9.14649862947536"><ele>65.0</ele><time>2026-04-24T08:37:16Z</time></trkpt><trkpt lat="45.179179483942576" lon="9.1464865197794"><ele>65.0</ele><time>2026-04-24T08:37:17Z</time></trkpt><trkpt lat="45.17906160328519" lon="9.146478494016332"><ele>65.0</ele><time>2026-04-24T08:37:18Z</time></trkpt><trkpt lat="45.178941389600425" lon="9.146472236648297"><ele>65.0</ele><time>2026-04-24T08:37:19Z</time></trkpt><trkpt lat="45.17881209508016" lon="9.146461684423574"><ele>65.25</ele><time>2026-04-24T08:37:20Z</time></trkpt><trkpt lat="45.17867061913653" lon="9.146451890045425"><ele>65.5</ele><time>2026-04-24T08:37:21Z</time></trkpt><trkpt lat="45.178524595446426" lon="9.146439175923767"><ele>65.75</ele><time>2026-04-24T08:37:22Z</time></trkpt><trkpt lat="45.17837201415193" lon="9.14642718878318"><ele>66.0</ele><time>2026-04-24T08:37:23Z</time></trkpt><trkpt lat="45.17821131203209" lon="9.146419327289127"><ele>67.0</ele><time>2026-04-24T08:37:24Z</time></trkpt><trkpt lat="45.178047818813184" lon="9.146405609497185"><ele>68.0</ele><time>2026-04-24T08:37:25Z</time></trkpt><trkpt lat="45.17787457917833" lon="9.146381703222243"><ele>69.0</ele><time>2026-04-24T08:37:26Z</time></trkpt><trkpt lat="45.17770676917678" lon="9.146355974389376"><ele>69.0</ele><time>2026-04-24T08:37:27Z</time></trkpt><trkpt lat="45.17756735715128" lon="9.146332782290028"><ele>69.0</ele><time>2026-04-24T08:37:28Z</time></trkpt><trkpt lat="45.17743758145354" lon="9.14631096240135"><ele>69.0</ele><time>2026-04-24T08:37:29Z</time></trkpt><trkpt lat="45.177320776390175" lon="9.146332225799528"><ele>69.0</ele><time>2026-04-24T08:37:30Z</time></trkpt><trkpt lat="45.17720753885468" lon="9.146280062112059"><ele>68.2</ele><time>2026-04-24T08:37:31Z</time></trkpt><trkpt lat="45.17710564503614" lon="9.146231760607588"><ele>67.4</ele><time>2026-04-24T08:37:32Z</time></trkpt><trkpt lat="45.17701711772143" lon="9.146152724300583"><ele>66.6</ele><time>2026-04-24T08:37:33Z</time></trkpt><trkpt lat="45.17691158824623" lon="9.146140249754108"><ele>65.8</ele><time>2026-04-24T08:37:34Z</time></trkpt><trkpt lat="45.17681753641877" lon="9.146172906557297"><ele>65.0</ele><time>2026-04-24T08:37:35Z</time></trkpt><trkpt lat="45.1767027428628" lon="9.146228456402193"><ele>65.0</ele><time>2026-04-24T08:37:36Z</time></trkpt><trkpt lat="45.176585301762714" lon="9.146274048086305"><ele>65.0</ele><time>2026-04-24T08:37:37Z</time></trkpt><trkpt lat="45.17648478028958" lon="9.146326383622647"><ele>65.0</ele><time>2026-04-24T08:37:38Z</time></trkpt><trkpt lat="45.17635337967238" lon="9.146307160715155"><ele>65.0</ele><time>2026-04-24T08:37:39Z</time></trkpt><trkpt lat="45.17622913839081" lon="9.146287614882285"><ele>64.0</ele><time>2026-04-24T08:37:40Z</time></trkpt><trkpt lat="45.17605587051252" lon="9.146288782079282"><ele>63.0</ele><time>2026-04-24T08:37:41Z</time></trkpt><trkpt lat="45.17589226195772" lon="9.146278675162893"><ele>62.0</ele><time>2026-04-24T08:37:42Z</time></trkpt><trkpt lat="45.1757158448666" lon="9.14626777696289"><ele>62.0</ele><time>2026-04-24T08:37:43Z</time></trkpt><trkpt lat="45.175544137928206" lon="9.146257169798297"><ele>62.0</ele><time>2026-04-24T08:37:44Z</time></trkpt><trkpt lat="45.175376072798485" lon="9.146224222837803"><ele>62.0</ele><time>2026-04-24T08:37:45Z</time></trkpt><trkpt lat="45.175197757399076" lon="9.146220233121888"><ele>62.0</ele><time>2026-04-24T08:37:46Z</time></trkpt><trkpt lat="45.17503075972581" lon="9.146202467727058"><ele>62.0</ele><time>2026-04-24T08:37:46.999Z</time></trkpt><trkpt lat="45.174858972662676" lon="9.146188072632915"><ele>62.0</ele><time>2026-04-24T08:37:47.999Z</time></trkpt><trkpt lat="45.174713095872264" lon="9.146202849330129"><ele>61.333333333333336</ele><time>2026-04-24T08:37:48.999Z</time></trkpt><trkpt lat="45.17453568104318" lon="9.146173469928486"><ele>60.66666666666667</ele><time>2026-04-24T08:37:49.999Z</time></trkpt><trkpt lat="45.174367498711256" lon="9.146148810357452"><ele>60.0</ele><time>2026-04-24T08:37:50.999Z</time></trkpt><trkpt lat="45.17421309987646" lon="9.146118394446132"><ele>60.0</ele><time>2026-04-24T08:37:51.999Z</time></trkpt><trkpt lat="45.17405379197359" lon="9.146074524266595"><ele>60.0</ele><time>2026-04-24T08:37:52.999Z</time></trkpt><trkpt lat="45.17389243276371" lon="9.146060710929314"><ele>60.0</ele><time>2026-04-24T08:37:53.999Z</time></trkpt><trkpt lat="45.17373379150791" lon="9.145997212188712"><ele>61.33333333333333</ele><time>2026-04-24T08:37:54.999Z</time></trkpt><trkpt lat="45.17358976256361" lon="9.1459557392627"><ele>62.666666666666664</ele><time>2026-04-24T08:37:55.999Z</time></trkpt><trkpt lat="45.17343539302164" lon="9.145910397547476"><ele>64.0</ele><time>2026-04-24T08:37:56.999Z</time></trkpt><trkpt lat="45.17326646344115" lon="9.145859098685609"><ele>64.0</ele><time>2026-04-24T08:37:57.999Z</time></trkpt><trkpt lat="45.17310289274052" lon="9.145809427174902"><ele>64.0</ele><time>2026-04-24T08:37:58.999Z</time></trkpt><trkpt lat="45.172945483721335" lon="9.145750638711828"><ele>64.0</ele><time>2026-04-24T08:37:59.999Z</time></trkpt><trkpt lat="45.17278472035973" lon="9.14574630387832"><ele>63.5</ele><time>2026-04-24T08:38:00.999Z</time></trkpt><trkpt lat="45.1726363471641" lon="9.145691120840896"><ele>63.0</ele><time>2026-04-24T08:38:01.999Z</time></trkpt><trkpt lat="45.17251606825508" lon="9.145616227083622"><ele>62.5</ele><time>2026-04-24T08:38:02.999Z</time></trkpt><trkpt lat="45.17240864723813" lon="9.145600145660271"><ele>62.0</ele><time>2026-04-24T08:38:03.999Z</time></trkpt><trkpt lat="45.172318040661104" lon="9.145571230950015"><ele>62.0</ele><time>2026-04-24T08:38:04.999Z</time></trkpt><trkpt lat="45.17223221337595" lon="9.145502864750638"><ele>62.0</ele><time>2026-04-24T08:38:05.999Z</time></trkpt><trkpt lat="45.17214962510089" lon="9.145396785262115"><ele>62.0</ele><time>2026-04-24T08:38:06.999Z</time></trkpt><trkpt lat="45.17206575813857" lon="9.145345791023917"><ele>62.0</ele><time>2026-04-24T08:38:07.999Z</time></trkpt><trkpt lat="45.17197844990123" lon="9.145330110010628"><ele>62.0</ele><time>2026-04-24T08:38:08.999Z</time></trkpt><trkpt lat="45.17190083493686" lon="9.14526589612484"><ele>62.00000000000001</ele><time>2026-04-24T08:38:09.999Z</time></trkpt><trkpt lat="45.171826865908656" lon="9.14522635870774"><ele>62.0</ele><time>2026-04-24T08:38:10.999Z</time></trkpt><trkpt lat="45.17171802164636" lon="9.145175900390361"><ele>62.0</ele><time>2026-04-24T08:38:12.999Z</time></trkpt><trkpt lat="45.17161600199657" lon="9.145107667703128"><ele>62.0</ele><time>2026-04-24T08:38:14.999Z</time></trkpt><trkpt lat="45.17155529511229" lon="9.14507257523698"><ele>62.00000000000001</ele><time>2026-04-24T08:38:16.999Z</time></trkpt><trkpt lat="45.17148400021219" lon="9.145047257552724"><ele>62.0</ele><time>2026-04-24T08:38:19.999Z</time></trkpt><trkpt lat="45.17138142174003" lon="9.144942087549287"><ele>62.0</ele><time>2026-04-24T08:38:21.999Z</time></trkpt><trkpt lat="45.171293591111" lon="9.144875312183343"><ele>62.0</ele><time>2026-04-24T08:38:22.999Z</time></trkpt><trkpt lat="45.17119861518904" lon="9.144819894681065"><ele>62.0</ele><time>2026-04-24T08:38:23.999Z</time></trkpt><trkpt lat="45.17107153995674" lon="9.144733665544445"><ele>62.0</ele><time>2026-04-24T08:38:24.999Z</time></trkpt><trkpt lat="45.17096931258508" lon="9.144640201225911"><ele>62.0</ele><time>2026-04-24T08:38:25.999Z</time></trkpt><trkpt lat="45.17084850511817" lon="9.144591730836215"><ele>62.0</ele><time>2026-04-24T08:38:26.999Z</time></trkpt><trkpt lat="45.170739638368204" lon="9.144497831857178"><ele>62.0</ele><time>2026-04-24T08:38:27.999Z</time></trkpt><trkpt lat="45.17061946293718" lon="9.144417729221411"><ele>62.0</ele><time>2026-04-24T08:38:28.999Z</time></trkpt><trkpt lat="45.17051001586313" lon="9.144360689313844"><ele>62.25</ele><time>2026-04-24T08:38:29.999Z</time></trkpt><trkpt lat="45.17038445316725" lon="9.14425267073314"><ele>62.5</ele><time>2026-04-24T08:38:30.999Z</time></trkpt><trkpt lat="45.17027413622517" lon="9.144136611783965"><ele>62.75</ele><time>2026-04-24T08:38:31.999Z</time></trkpt><trkpt lat="45.170139416079614" lon="9.144022975314183"><ele>63.0</ele><time>2026-04-24T08:38:32.999Z</time></trkpt><trkpt lat="45.17001601383612" lon="9.143918465431923"><ele>63.0</ele><time>2026-04-24T08:38:33.999Z</time></trkpt><trkpt lat="45.16989421631651" lon="9.143798251077099"><ele>63.0</ele><time>2026-04-24T08:38:34.999Z</time></trkpt><trkpt lat="45.16976298962165" lon="9.143694176175755"><ele>63.0</ele><time>2026-04-24T08:38:35.999Z</time></trkpt><trkpt lat="45.16964626677384" lon="9.14356726153334"><ele>63.0</ele><time>2026-04-24T08:38:36.999Z</time></trkpt><trkpt lat="45.16951441021936" lon="9.143501236713185"><ele>63.0</ele><time>2026-04-24T08:38:37.999Z</time></trkpt><trkpt lat="45.169384012273284" lon="9.143405647624606"><ele>63.0</ele><time>2026-04-24T08:38:38.999Z</time></trkpt><trkpt lat="45.169257407303874" lon="9.143294700667779"><ele>63.0</ele><time>2026-04-24T08:38:39.999Z</time></trkpt><trkpt lat="45.169156664447144" lon="9.143159410611515"><ele>63.0</ele><time>2026-04-24T08:38:40.999Z</time></trkpt><trkpt lat="45.169056034549925" lon="9.143040046625762"><ele>62.5</ele><time>2026-04-24T08:38:41.999Z</time></trkpt><trkpt lat="45.16896233096622" lon="9.142884431416435"><ele>62.0</ele><time>2026-04-24T08:38:42.999Z</time></trkpt><trkpt lat="45.16885617291244" lon="9.142734748056952"><ele>61.5</ele><time>2026-04-24T08:38:43.999Z</time></trkpt><trkpt lat="45.16875951014197" lon="9.142579235044352"><ele>61.0</ele><time>2026-04-24T08:38:44.999Z</time></trkpt><trkpt lat="45.16865167340285" lon="9.142432649117362"><ele>60.33333333333333</ele><time>2026-04-24T08:38:45.999Z</time></trkpt><trkpt lat="45.16854241395936" lon="9.142286329642598"><ele>59.66666666666667</ele><time>2026-04-24T08:38:46.999Z</time></trkpt><trkpt lat="45.16844469095315" lon="9.142126981250344"><ele>59.0</ele><time>2026-04-24T08:38:47.999Z</time></trkpt><trkpt lat="45.168338193678146" lon="9.141967785815474"><ele>59.0</ele><time>2026-04-24T08:38:48.999Z</time></trkpt><trkpt lat="45.168233242893166" lon="9.141821158909721"><ele>59.0</ele><time>2026-04-24T08:38:49.999Z</time></trkpt><trkpt lat="45.168129404638144" lon="9.141677804443198"><ele>59.0</ele><time>2026-04-24T08:38:50.999Z</time></trkpt><trkpt lat="45.16802079263471" lon="9.14152659125765"><ele>59.0</ele><time>2026-04-24T08:38:51.999Z</time></trkpt><trkpt lat="45.167914758040524" lon="9.141378966428174"><ele>59.25</ele><time>2026-04-24T08:38:52.999Z</time></trkpt><trkpt lat="45.16782018715384" lon="9.141247301744478"><ele>59.5</ele><time>2026-04-24T08:38:53.999Z</time></trkpt><trkpt lat="45.16773513054983" lon="9.14112888315144"><ele>59.75</ele><time>2026-04-24T08:38:54.999Z</time></trkpt><trkpt lat="45.16761456561226" lon="9.14111909915562"><ele>60.0</ele><time>2026-04-24T08:38:55.999Z</time></trkpt><trkpt lat="45.16754945880181" lon="9.140993075014919"><ele>60.0</ele><time>2026-04-24T08:38:56.999Z</time></trkpt><trkpt lat="45.16747103152569" lon="9.140874000014577"><ele>60.0</ele><time>2026-04-24T08:38:57.999Z</time></trkpt><trkpt lat="45.16738088566705" lon="9.140760953066694"><ele>60.0</ele><time>2026-04-24T08:38:58.999Z</time></trkpt><trkpt lat="45.16730234594783" lon="9.140622123915643"><ele>60.0</ele><time>2026-04-24T08:38:59.999Z</time></trkpt><trkpt lat="45.167237195686766" lon="9.140436293143662"><ele>60.5</ele><time>2026-04-24T08:39:00.999Z</time></trkpt><trkpt lat="45.16715200437046" lon="9.140320294832708"><ele>61.0</ele><time>2026-04-24T08:39:01.999Z</time></trkpt><trkpt lat="45.16706216917458" lon="9.140197973316612"><ele>61.5</ele><time>2026-04-24T08:39:02.999Z</time></trkpt><trkpt lat="45.166967443553254" lon="9.140068992892099"><ele>62.0</ele><time>2026-04-24T08:39:03.999Z</time></trkpt><trkpt lat="45.16687428943111" lon="9.13994215225302"><ele>62.0</ele><time>2026-04-24T08:39:04.999Z</time></trkpt><trkpt lat="45.16677644626246" lon="9.13981127719623"><ele>62.0</ele><time>2026-04-24T08:39:05.999Z</time></trkpt><trkpt lat="45.16669676679283" lon="9.139704790589509"><ele>62.0</ele><time>2026-04-24T08:39:06.999Z</time></trkpt><trkpt lat="45.16659835441538" lon="9.139573268622717"><ele>62.0</ele><time>2026-04-24T08:39:07.999Z</time></trkpt><trkpt lat="45.166512116694676" lon="9.139458824527338"><ele>62.0</ele><time>2026-04-24T08:39:08.999Z</time></trkpt><trkpt lat="45.166421450076335" lon="9.139339230317166"><ele>62.0</ele><time>2026-04-24T08:39:09.999Z</time></trkpt><trkpt lat="45.166324027617236" lon="9.139210724754772"><ele>62.0</ele><time>2026-04-24T08:39:10.999Z</time></trkpt><trkpt lat="45.16616870191638" lon="9.139145688036766"><ele>62.0</ele><time>2026-04-24T08:39:11.999Z</time></trkpt><trkpt lat="45.16608850511214" lon="9.13901271713997"><ele>62.25</ele><time>2026-04-24T08:39:12.999Z</time></trkpt><trkpt lat="45.16599020727145" lon="9.138886570017487"><ele>62.5</ele><time>2026-04-24T08:39:13.999Z</time></trkpt><trkpt lat="45.16589990728136" lon="9.138745490458778"><ele>62.75</ele><time>2026-04-24T08:39:14.999Z</time></trkpt><trkpt lat="45.165790616312876" lon="9.138595663082716"><ele>63.0</ele><time>2026-04-24T08:39:15.999Z</time></trkpt><trkpt lat="45.16566387086491" lon="9.138468881895822"><ele>63.0</ele><time>2026-04-24T08:39:16.999Z</time></trkpt><trkpt lat="45.16554112873929" lon="9.138315638739941"><ele>63.0</ele><time>2026-04-24T08:39:17.999Z</time></trkpt><trkpt lat="45.165415983867724" lon="9.13815292575527"><ele>63.0</ele><time>2026-04-24T08:39:18.998Z</time></trkpt><trkpt lat="45.16533198680741" lon="9.137958491918816"><ele>63.0</ele><time>2026-04-24T08:39:19.998Z</time></trkpt><trkpt lat="45.165217539696904" lon="9.137813683002781"><ele>63.0</ele><time>2026-04-24T08:39:20.998Z</time></trkpt><trkpt lat="45.16513593123866" lon="9.137704253316596"><ele>63.0</ele><time>2026-04-24T08:39:21.998Z</time></trkpt><trkpt lat="45.16503747231128" lon="9.137602805102578"><ele>63.0</ele><time>2026-04-24T08:39:22.998Z</time></trkpt><trkpt lat="45.16495284067958" lon="9.137500838435704"><ele>62.8</ele><time>2026-04-24T08:39:23.998Z</time></trkpt><trkpt lat="45.16488255588069" lon="9.137376173119241"><ele>62.599999999999994</ele><time>2026-04-24T08:39:24.998Z</time></trkpt><trkpt lat="45.164817744319244" lon="9.137289389951897"><ele>62.400000000000006</ele><time>2026-04-24T08:39:25.998Z</time></trkpt><trkpt lat="45.16475009076512" lon="9.137202527168315"><ele>62.2</ele><time>2026-04-24T08:39:26.998Z</time></trkpt><trkpt lat="45.164674698207094" lon="9.137108894454933"><ele>62.0</ele><time>2026-04-24T08:39:27.998Z</time></trkpt><trkpt lat="45.16461405939062" lon="9.137034891073341"><ele>62.0</ele><time>2026-04-24T08:39:28.998Z</time></trkpt><trkpt lat="45.16454001725313" lon="9.13694651841806"><ele>62.0</ele><time>2026-04-24T08:39:29.998Z</time></trkpt><trkpt lat="45.16446887313631" lon="9.136861965475742"><ele>62.0</ele><time>2026-04-24T08:39:30.998Z</time></trkpt><trkpt lat="45.16439131319999" lon="9.136769655819636"><ele>62.0</ele><time>2026-04-24T08:39:31.998Z</time></trkpt><trkpt lat="45.16431357404211" lon="9.136677484346322"><ele>62.0</ele><time>2026-04-24T08:39:32.998Z</time></trkpt><trkpt lat="45.16424380807331" lon="9.136582003034897"><ele>62.16666666666667</ele><time>2026-04-24T08:39:33.998Z</time></trkpt><trkpt lat="45.16416023915276" lon="9.136515051714202"><ele>62.333333333333336</ele><time>2026-04-24T08:39:34.998Z</time></trkpt><trkpt lat="45.16409974003309" lon="9.136446536116363"><ele>62.5</ele><time>2026-04-24T08:39:35.998Z</time></trkpt><trkpt lat="45.164061037838806" lon="9.136367412624148"><ele>62.66666666666667</ele><time>2026-04-24T08:39:36.998Z</time></trkpt><trkpt lat="45.164006576921594" lon="9.136313065657816"><ele>62.833333333333336</ele><time>2026-04-24T08:39:37.998Z</time></trkpt><trkpt lat="45.16400341220097" lon="9.136202875889563"><ele>63.0</ele><time>2026-04-24T08:39:43.998Z</time></trkpt><trkpt lat="45.16398073691142" lon="9.136096640851898"><ele>62.599999999999994</ele><time>2026-04-24T08:39:47.998Z</time></trkpt><trkpt lat="45.163966135665625" lon="9.135989752522509"><ele>62.199999999999996</ele><time>2026-04-24T08:39:49.998Z</time></trkpt><trkpt lat="45.16389818441021" lon="9.135979767668307"><ele>61.8</ele><time>2026-04-24T08:39:50.998Z</time></trkpt><trkpt lat="45.16378131169864" lon="9.135899462985643"><ele>61.4</ele><time>2026-04-24T08:39:52.998Z</time></trkpt><trkpt lat="45.163706191715036" lon="9.135864744689627"><ele>61.0</ele><time>2026-04-24T08:39:53.998Z</time></trkpt><trkpt lat="45.163625370799494" lon="9.135788108078387"><ele>61.0</ele><time>2026-04-24T08:39:54.998Z</time></trkpt><trkpt lat="45.16353153956273" lon="9.135712104696474"><ele>60.99999999999999</ele><time>2026-04-24T08:39:55.998Z</time></trkpt><trkpt lat="45.163443614154936" lon="9.13560387538869"><ele>60.99999999999999</ele><time>2026-04-24T08:39:56.998Z</time></trkpt><trkpt lat="45.16336285795374" lon="9.135501320186062"><ele>61.0</ele><time>2026-04-24T08:39:57.998Z</time></trkpt><trkpt lat="45.16329436203438" lon="9.135386713417839"><ele>61.0</ele><time>2026-04-24T08:39:58.998Z</time></trkpt><trkpt lat="45.16321325486752" lon="9.135289828325154"><ele>61.166666666666664</ele><time>2026-04-24T08:39:59.998Z</time></trkpt><trkpt lat="45.163137745339505" lon="9.135201465237417"><ele>61.33333333333333</ele><time>2026-04-24T08:40:00.999Z</time></trkpt><trkpt lat="45.16305470560606" lon="9.135104493314815"><ele>61.5</ele><time>2026-04-24T08:40:01.999Z</time></trkpt><trkpt lat="45.16299896764064" lon="9.13501626824444"><ele>61.66666666666667</ele><time>2026-04-24T08:40:02.999Z</time></trkpt><trkpt lat="45.16292769272792" lon="9.134935968008126"><ele>61.833333333333336</ele><time>2026-04-24T08:40:03.999Z</time></trkpt><trkpt lat="45.16288136954451" lon="9.134873031994822"><ele>62.0</ele><time>2026-04-24T08:40:04.999Z</time></trkpt><trkpt lat="45.16279793442133" lon="9.134744139559542"><ele>62.00000000000001</ele><time>2026-04-24T08:40:06.999Z</time></trkpt><trkpt lat="45.1627336092262" lon="9.134710056824733"><ele>62.0</ele><time>2026-04-24T08:40:07.999Z</time></trkpt><trkpt lat="45.162682114709575" lon="9.134638092439586"><ele>62.0</ele><time>2026-04-24T08:40:08.999Z</time></trkpt><trkpt lat="45.16262713951477" lon="9.134568460417386"><ele>62.0</ele><time>2026-04-24T08:40:09.999Z</time></trkpt><trkpt lat="45.162557937272986" lon="9.134501752380176"><ele>62.00000000000001</ele><time>2026-04-24T08:40:10.999Z</time></trkpt><trkpt lat="45.16249088382147" lon="9.13439587788008"><ele>62.0</ele><time>2026-04-24T08:40:11.999Z</time></trkpt><trkpt lat="45.16241762937522" lon="9.134304501208149"><ele>62.2</ele><time>2026-04-24T08:40:12.999Z</time></trkpt><trkpt lat="45.162345938522805" lon="9.134215222291703"><ele>62.400000000000006</ele><time>2026-04-24T08:40:13.999Z</time></trkpt><trkpt lat="45.16228110921448" lon="9.13413448826423"><ele>62.599999999999994</ele><time>2026-04-24T08:40:14.999Z</time></trkpt><trkpt lat="45.162200791097945" lon="9.134034465534794"><ele>62.8</ele><time>2026-04-24T08:40:15.999Z</time></trkpt><trkpt lat="45.16212576933243" lon="9.133941038511567"><ele>63.0</ele><time>2026-04-24T08:40:16.999Z</time></trkpt><trkpt lat="45.16204412766195" lon="9.133839367502969"><ele>63.0</ele><time>2026-04-24T08:40:17.999Z</time></trkpt><trkpt lat="45.16196246085179" lon="9.133758371841292"><ele>63.0</ele><time>2026-04-24T08:40:18.999Z</time></trkpt><trkpt lat="45.16189322459375" lon="9.133651443076516"><ele>63.0</ele><time>2026-04-24T08:40:19.999Z</time></trkpt><trkpt lat="45.16180486590256" lon="9.133541443952632"><ele>63.0</ele><time>2026-04-24T08:40:20.999Z</time></trkpt><trkpt lat="45.16172081747638" lon="9.133436822412483"><ele>63.0</ele><time>2026-04-24T08:40:21.999Z</time></trkpt><trkpt lat="45.16164104627588" lon="9.133335472158358"><ele>63.0</ele><time>2026-04-24T08:40:22.999Z</time></trkpt><trkpt lat="45.16156398033429" lon="9.133237935480729"><ele>63.0</ele><time>2026-04-24T08:40:23.999Z</time></trkpt><trkpt lat="45.16148134378794" lon="9.133134996328092"><ele>63.0</ele><time>2026-04-24T08:40:24.999Z</time></trkpt><trkpt lat="45.16139546929868" lon="9.133038501830471"><ele>63.0</ele><time>2026-04-24T08:40:25.999Z</time></trkpt><trkpt lat="45.161307887590326" lon="9.132922222718593"><ele>63.0</ele><time>2026-04-24T08:40:26.999Z</time></trkpt><trkpt lat="45.16121823451743" lon="9.132808322811986"><ele>63.0</ele><time>2026-04-24T08:40:27.999Z</time></trkpt><trkpt lat="45.16112017619493" lon="9.13268426859732"><ele>63.0</ele><time>2026-04-24T08:40:28.999Z</time></trkpt><trkpt lat="45.16102385084247" lon="9.132562406804935"><ele>63.0</ele><time>2026-04-24T08:40:29.999Z</time></trkpt><trkpt lat="45.16093785953519" lon="9.132453618431201"><ele>63.0</ele><time>2026-04-24T08:40:30.999Z</time></trkpt><trkpt lat="45.160848585917684" lon="9.13233765912814"><ele>63.0</ele><time>2026-04-24T08:40:31.999Z</time></trkpt><trkpt lat="45.160763580054066" lon="9.132226944545883"><ele>63.0</ele><time>2026-04-24T08:40:32.999Z</time></trkpt><trkpt lat="45.16067927048192" lon="9.132118624699446"><ele>63.0</ele><time>2026-04-24T08:40:33.999Z</time></trkpt><trkpt lat="45.16058606063261" lon="9.132022710400642"><ele>63.0</ele><time>2026-04-24T08:40:34.999Z</time></trkpt><trkpt lat="45.16050137743059" lon="9.131916902078851"><ele>63.0</ele><time>2026-04-24T08:40:35.999Z</time></trkpt><trkpt lat="45.160421496558726" lon="9.131796840709834"><ele>63.0</ele><time>2026-04-24T08:40:36.999Z</time></trkpt><trkpt lat="45.16032490225486" lon="9.131718665108552"><ele>63.0</ele><time>2026-04-24T08:40:37.999Z</time></trkpt><trkpt lat="45.16025266041907" lon="9.131616231655903"><ele>63.0</ele><time>2026-04-24T08:40:38.999Z</time></trkpt><trkpt lat="45.16020314445725" lon="9.13148809972585"><ele>63.0</ele><time>2026-04-24T08:40:39.999Z</time></trkpt><trkpt lat="45.16012428882208" lon="9.131408208378268"><ele>63.2</ele><time>2026-04-24T08:40:40.999Z</time></trkpt><trkpt lat="45.160037445407475" lon="9.131304164613878"><ele>63.4</ele><time>2026-04-24T08:40:41.999Z</time></trkpt><trkpt lat="45.15995575378708" lon="9.131209918649892"><ele>63.60000000000001</ele><time>2026-04-24T08:40:42.999Z</time></trkpt><trkpt lat="45.15987999425107" lon="9.13111191400843"><ele>63.800000000000004</ele><time>2026-04-24T08:40:43.999Z</time></trkpt><trkpt lat="45.15980347664547" lon="9.13104163267882"><ele>64.0</ele><time>2026-04-24T08:40:44.999Z</time></trkpt><trkpt lat="45.15975104216673" lon="9.130944816569247"><ele>63.99999999999999</ele><time>2026-04-24T08:40:45.999Z</time></trkpt><trkpt lat="45.15969212601927" lon="9.130874696256292"><ele>64.0</ele><time>2026-04-24T08:40:46.999Z</time></trkpt><trkpt lat="45.159626996867594" lon="9.130795058674595"><ele>64.0</ele><time>2026-04-24T08:40:47.999Z</time></trkpt><trkpt lat="45.159558323563154" lon="9.130716284062277"><ele>64.0</ele><time>2026-04-24T08:40:48.999Z</time></trkpt><trkpt lat="45.15949388092243" lon="9.130630165572509"><ele>63.99999999999999</ele><time>2026-04-24T08:40:49.999Z</time></trkpt><trkpt lat="45.159415032519284" lon="9.130545229191265"><ele>64.0</ele><time>2026-04-24T08:40:50.999Z</time></trkpt><trkpt lat="45.15935327738765" lon="9.130459168287366"><ele>64.0</ele><time>2026-04-24T08:40:51.998Z</time></trkpt><trkpt lat="45.15930479413311" lon="9.130368447002496"><ele>64.0</ele><time>2026-04-24T08:40:52.998Z</time></trkpt><trkpt lat="45.15922980204751" lon="9.13030165099241"><ele>64.0</ele><time>2026-04-24T08:40:53.998Z</time></trkpt><trkpt lat="45.15917032306247" lon="9.130195609501255"><ele>64.0</ele><time>2026-04-24T08:40:54.998Z</time></trkpt><trkpt lat="45.15908305023112" lon="9.130121244825894"><ele>64.0</ele><time>2026-04-24T08:40:55.998Z</time></trkpt><trkpt lat="45.15901117333092" lon="9.13000053324074"><ele>63.800000000000004</ele><time>2026-04-24T08:40:56.998Z</time></trkpt><trkpt lat="45.15894116220546" lon="9.12992637057006"><ele>63.60000000000001</ele><time>2026-04-24T08:40:57.998Z</time></trkpt><trkpt lat="45.15885999463012" lon="9.129815557047184"><ele>63.4</ele><time>2026-04-24T08:40:58.998Z</time></trkpt><trkpt lat="45.158784099098774" lon="9.129705628022366"><ele>63.2</ele><time>2026-04-24T08:40:59.998Z</time></trkpt><trkpt lat="45.15871417590777" lon="9.129611328148497"><ele>63.0</ele><time>2026-04-24T08:41:00.998Z</time></trkpt><trkpt lat="45.15861325172813" lon="9.129532237502163"><ele>62.4</ele><time>2026-04-24T08:41:01.998Z</time></trkpt><trkpt lat="45.15853549421094" lon="9.129420589300706"><ele>61.8</ele><time>2026-04-24T08:41:02.998Z</time></trkpt><trkpt lat="45.15846523226314" lon="9.129321900214915"><ele>61.2</ele><time>2026-04-24T08:41:03.998Z</time></trkpt><trkpt lat="45.15840014291464" lon="9.129200833156839"><ele>60.6</ele><time>2026-04-24T08:41:04.998Z</time></trkpt><trkpt lat="45.15831892345247" lon="9.129085663504043"><ele>60.0</ele><time>2026-04-24T08:41:05.998Z</time></trkpt><trkpt lat="45.158223646594884" lon="9.128990491096946"><ele>60.25</ele><time>2026-04-24T08:41:06.998Z</time></trkpt><trkpt lat="45.15812122054221" lon="9.128906743577586"><ele>60.5</ele><time>2026-04-24T08:41:07.998Z</time></trkpt><trkpt lat="45.1580254413105" lon="9.128810732236987"><ele>60.75</ele><time>2026-04-24T08:41:08.998Z</time></trkpt><trkpt lat="45.15794381630707" lon="9.128704952253315"><ele>61.0</ele><time>2026-04-24T08:41:09.998Z</time></trkpt><trkpt lat="45.15784163106895" lon="9.128582234528768"><ele>61.0</ele><time>2026-04-24T08:41:10.998Z</time></trkpt><trkpt lat="45.157769095378235" lon="9.128459695523919"><ele>61.0</ele><time>2026-04-24T08:41:11.998Z</time></trkpt><trkpt lat="45.15768523928562" lon="9.128354557954447"><ele>61.0</ele><time>2026-04-24T08:41:12.998Z</time></trkpt><trkpt lat="45.157598011761486" lon="9.12824494024549"><ele>61.0</ele><time>2026-04-24T08:41:13.998Z</time></trkpt><trkpt lat="45.157508901149356" lon="9.128132956058229"><ele>61.0</ele><time>2026-04-24T08:41:14.998Z</time></trkpt><trkpt lat="45.15741735802491" lon="9.128017914976395"><ele>61.0</ele><time>2026-04-24T08:41:15.998Z</time></trkpt><trkpt lat="45.15731591922375" lon="9.127921910444858"><ele>61.0</ele><time>2026-04-24T08:41:16.998Z</time></trkpt><trkpt lat="45.15722128666249" lon="9.127801687090573"><ele>61.0</ele><time>2026-04-24T08:41:17.998Z</time></trkpt><trkpt lat="45.15712208063096" lon="9.127646843594608"><ele>61.0</ele><time>2026-04-24T08:41:18.998Z</time></trkpt><trkpt lat="45.15701607933588" lon="9.127513614640119"><ele>61.0</ele><time>2026-04-24T08:41:19.998Z</time></trkpt><trkpt lat="45.15691510868131" lon="9.127386699292279"><ele>61.0</ele><time>2026-04-24T08:41:20.998Z</time></trkpt><trkpt lat="45.15681130916815" lon="9.127256228211655"><ele>61.0</ele><time>2026-04-24T08:41:21.998Z</time></trkpt><trkpt lat="45.15671178641635" lon="9.127131132839253"><ele>61.25</ele><time>2026-04-24T08:41:22.998Z</time></trkpt><trkpt lat="45.156610318970316" lon="9.127004382038397"><ele>61.5</ele><time>2026-04-24T08:41:23.998Z</time></trkpt><trkpt lat="45.15651010181353" lon="9.126879198015956"><ele>61.75</ele><time>2026-04-24T08:41:24.998Z</time></trkpt><trkpt lat="45.156413880319434" lon="9.126759005073428"><ele>62.0</ele><time>2026-04-24T08:41:25.998Z</time></trkpt><trkpt lat="45.156319457936924" lon="9.126641059479592"><ele>61.5</ele><time>2026-04-24T08:41:26.998Z</time></trkpt><trkpt lat="45.15622329087699" lon="9.126520934129667"><ele>61.0</ele><time>2026-04-24T08:41:27.998Z</time></trkpt><trkpt lat="45.15612679697251" lon="9.126400413644427"><ele>60.5</ele><time>2026-04-24T08:41:28.998Z</time></trkpt><trkpt lat="45.15603142189544" lon="9.126281286410666"><ele>60.0</ele><time>2026-04-24T08:41:29.998Z</time></trkpt><trkpt lat="45.155935363373416" lon="9.12616074050408"><ele>60.0</ele><time>2026-04-24T08:41:30.998Z</time></trkpt><trkpt lat="45.15583806225581" lon="9.1260380023653"><ele>60.0</ele><time>2026-04-24T08:41:31.998Z</time></trkpt><trkpt lat="45.155740878987615" lon="9.12591541432808"><ele>60.0</ele><time>2026-04-24T08:41:32.998Z</time></trkpt><trkpt lat="45.15564571886072" lon="9.12579537685233"><ele>60.0</ele><time>2026-04-24T08:41:33.998Z</time></trkpt><trkpt lat="45.15555382986912" lon="9.125679465584058"><ele>60.4</ele><time>2026-04-24T08:41:34.998Z</time></trkpt><trkpt lat="45.15546741339884" lon="9.125567142532349"><ele>60.8</ele><time>2026-04-24T08:41:35.998Z</time></trkpt><trkpt lat="45.15538915551923" lon="9.12545265538277"><ele>61.2</ele><time>2026-04-24T08:41:36.998Z</time></trkpt><trkpt lat="45.15532051950785" lon="9.125336746098853"><ele>61.6</ele><time>2026-04-24T08:41:37.998Z</time></trkpt><trkpt lat="45.15525984954443" lon="9.125223421011864"><ele>62.0</ele><time>2026-04-24T08:41:38.998Z</time></trkpt><trkpt lat="45.155207479885874" lon="9.125111632324806"><ele>62.0</ele><time>2026-04-24T08:41:39.998Z</time></trkpt><trkpt lat="45.15516795323692" lon="9.125005777572142"><ele>62.00000000000001</ele><time>2026-04-24T08:41:40.998Z</time></trkpt><trkpt lat="45.15513999352742" lon="9.124906965555345"><ele>62.0</ele><time>2026-04-24T08:41:41.998Z</time></trkpt><trkpt lat="45.15511731882945" lon="9.124815584611264"><ele>62.0</ele><time>2026-04-24T08:41:42.998Z</time></trkpt><trkpt lat="45.15509708916498" lon="9.124729523344367"><ele>62.00000000000001</ele><time>2026-04-24T08:41:43.998Z</time></trkpt><trkpt lat="45.15512017415272" lon="9.124620319768137"><ele>62.0</ele><time>2026-04-24T08:41:45.998Z</time></trkpt><trkpt lat="45.155145962733144" lon="9.124520626064244"><ele>62.0</ele><time>2026-04-24T08:41:47.998Z</time></trkpt><trkpt lat="45.155185093354504" lon="9.124398534880147"><ele>61.75</ele><time>2026-04-24T08:41:52.998Z</time></trkpt><trkpt lat="45.15527405342244" lon="9.124304829320465"><ele>61.5</ele><time>2026-04-24T08:41:54.998Z</time></trkpt><trkpt lat="45.15538164450854" lon="9.124214029053757"><ele>61.25</ele><time>2026-04-24T08:41:55.998Z</time></trkpt><trkpt lat="45.15546979445916" lon="9.124092353329724"><ele>61.0</ele><time>2026-04-24T08:41:56.998Z</time></trkpt><trkpt lat="45.15555197375053" lon="9.123898956440213"><ele>61.0</ele><time>2026-04-24T08:41:57.998Z</time></trkpt><trkpt lat="45.15556115807778" lon="9.123719808207456"><ele>61.0</ele><time>2026-04-24T08:41:58.998Z</time></trkpt><trkpt lat="45.155534819344204" lon="9.123542528572061"><ele>61.0</ele><time>2026-04-24T08:41:59.998Z</time></trkpt><trkpt lat="45.15546461248068" lon="9.123381161516061"><ele>61.0</ele><time>2026-04-24T08:42:00.998Z</time></trkpt><trkpt lat="45.155387424600846" lon="9.123252882445826"><ele>61.0</ele><time>2026-04-24T08:42:01.998Z</time></trkpt><trkpt lat="45.15529700196418" lon="9.123149346341505"><ele>61.0</ele><time>2026-04-24T08:42:02.998Z</time></trkpt><trkpt lat="45.155194468063115" lon="9.123069396600643"><ele>61.0</ele><time>2026-04-24T08:42:03.998Z</time></trkpt><trkpt lat="45.155080961076145" lon="9.123049737106715"><ele>61.0</ele><time>2026-04-24T08:42:04.998Z</time></trkpt><trkpt lat="45.15497804471261" lon="9.122998179511628"><ele>60.8</ele><time>2026-04-24T08:42:05.998Z</time></trkpt><trkpt lat="45.15486942290725" lon="9.122978557010427"><ele>60.599999999999994</ele><time>2026-04-24T08:42:06.998Z</time></trkpt><trkpt lat="45.15476116338417" lon="9.12299120527345"><ele>60.4</ele><time>2026-04-24T08:42:07.998Z</time></trkpt><trkpt lat="45.15464983380467" lon="9.1230248797201"><ele>60.2</ele><time>2026-04-24T08:42:08.998Z</time></trkpt><trkpt lat="45.15455437109199" lon="9.123101328747902"><ele>60.0</ele><time>2026-04-24T08:42:09.998Z</time></trkpt><trkpt lat="45.15442757743442" lon="9.123100241381923"><ele>60.0</ele><time>2026-04-24T08:42:10.998Z</time></trkpt><trkpt lat="45.154304704956196" lon="9.123110529526569"><ele>60.0</ele><time>2026-04-24T08:42:11.998Z</time></trkpt><trkpt lat="45.15417281658801" lon="9.12307796053049"><ele>60.0</ele><time>2026-04-24T08:42:12.998Z</time></trkpt><trkpt lat="45.15403381968443" lon="9.123035153966482"><ele>60.0</ele><time>2026-04-24T08:42:13.998Z</time></trkpt><trkpt lat="45.15389395419267" lon="9.122970585519125"><ele>60.0</ele><time>2026-04-24T08:42:14.998Z</time></trkpt><trkpt lat="45.15375808987885" lon="9.12289268295696"><ele>60.0</ele><time>2026-04-24T08:42:15.998Z</time></trkpt><trkpt lat="45.153620662221705" lon="9.12280983931535"><ele>60.0</ele><time>2026-04-24T08:42:16.998Z</time></trkpt><trkpt lat="45.153479658645864" lon="9.12271516092906"><ele>60.0</ele><time>2026-04-24T08:42:17.998Z</time></trkpt><trkpt lat="45.153349445879684" lon="9.122583561311007"><ele>60.0</ele><time>2026-04-24T08:42:18.998Z</time></trkpt><trkpt lat="45.153209957815804" lon="9.122465529558133"><ele>60.0</ele><time>2026-04-24T08:42:19.998Z</time></trkpt><trkpt lat="45.15306026672868" lon="9.12235763642283"><ele>61.33333333333333</ele><time>2026-04-24T08:42:20.998Z</time></trkpt><trkpt lat="45.15291194518868" lon="9.122220768098058"><ele>62.666666666666664</ele><time>2026-04-24T08:42:21.998Z</time></trkpt><trkpt lat="45.15277089748113" lon="9.12207954087338"><ele>64.0</ele><time>2026-04-24T08:42:22.998Z</time></trkpt><trkpt lat="45.15262725550013" lon="9.12194174183512"><ele>64.0</ele><time>2026-04-24T08:42:23.998Z</time></trkpt><trkpt lat="45.15247470893058" lon="9.1218318256571"><ele>64.0</ele><time>2026-04-24T08:42:24.998Z</time></trkpt><trkpt lat="45.15235865458058" lon="9.121633999265772"><ele>64.0</ele><time>2026-04-24T08:42:25.997Z</time></trkpt><trkpt lat="45.15221565756511" lon="9.121476207855771"><ele>63.666666666666664</ele><time>2026-04-24T08:42:26.997Z</time></trkpt><trkpt lat="45.15207357739089" lon="9.121331235429142"><ele>63.33333333333333</ele><time>2026-04-24T08:42:27.997Z</time></trkpt><trkpt lat="45.151914558914555" lon="9.121208272933586"><ele>63.0</ele><time>2026-04-24T08:42:28.997Z</time></trkpt><trkpt lat="45.15177643189355" lon="9.121029591440307"><ele>63.0</ele><time>2026-04-24T08:42:29.997Z</time></trkpt><trkpt lat="45.151620689555976" lon="9.12090882067261"><ele>63.0</ele><time>2026-04-24T08:42:30.997Z</time></trkpt><trkpt lat="45.1514679139784" lon="9.120787893631825"><ele>63.0</ele><time>2026-04-24T08:42:31.997Z</time></trkpt><trkpt lat="45.15130733763059" lon="9.120688265887603"><ele>62.33333333333333</ele><time>2026-04-24T08:42:32.997Z</time></trkpt><trkpt lat="45.15115578601431" lon="9.120600593826335"><ele>61.666666666666664</ele><time>2026-04-24T08:42:33.997Z</time></trkpt><trkpt lat="45.150989433071516" lon="9.120532942114764"><ele>61.0</ele><time>2026-04-24T08:42:34.997Z</time></trkpt><trkpt lat="45.15081064502651" lon="9.120447448147946"><ele>61.33333333333333</ele><time>2026-04-24T08:42:35.997Z</time></trkpt><trkpt lat="45.15062679243003" lon="9.120389669500055"><ele>61.66666666666667</ele><time>2026-04-24T08:42:36.997Z</time></trkpt><trkpt lat="45.15044971063682" lon="9.120335872020066"><ele>62.0</ele><time>2026-04-24T08:42:37.997Z</time></trkpt><trkpt lat="45.15026052000999" lon="9.120316513159551"><ele>62.0</ele><time>2026-04-24T08:42:38.997Z</time></trkpt><trkpt lat="45.15008592186602" lon="9.120278455313496"><ele>62.0</ele><time>2026-04-24T08:42:39.997Z</time></trkpt><trkpt lat="45.149928463902285" lon="9.120264858258878"><ele>62.0</ele><time>2026-04-24T08:42:40.997Z</time></trkpt><trkpt lat="45.149767500373535" lon="9.12025042900886"><ele>61.333333333333336</ele><time>2026-04-24T08:42:41.997Z</time></trkpt><trkpt lat="45.14959967738177" lon="9.12023891810154"><ele>60.66666666666667</ele><time>2026-04-24T08:42:42.997Z</time></trkpt><trkpt lat="45.14942468327384" lon="9.120230219329054"><ele>60.0</ele><time>2026-04-24T08:42:43.997Z</time></trkpt><trkpt lat="45.14926387442135" lon="9.120222373716324"><ele>60.0</ele><time>2026-04-24T08:42:44.997Z</time></trkpt><trkpt lat="45.14909558376853" lon="9.120224936457745"><ele>60.0</ele><time>2026-04-24T08:42:45.997Z</time></trkpt><trkpt lat="45.14893518589352" lon="9.120226216774453"><ele>60.0</ele><time>2026-04-24T08:42:46.997Z</time></trkpt><trkpt lat="45.14877022393318" lon="9.120211108281296"><ele>60.0</ele><time>2026-04-24T08:42:47.997Z</time></trkpt><trkpt lat="45.14860998585397" lon="9.120192488664618"><ele>60.0</ele><time>2026-04-24T08:42:48.997Z</time></trkpt><trkpt lat="45.14845442394917" lon="9.120184144529983"><ele>60.0</ele><time>2026-04-24T08:42:49.997Z</time></trkpt><trkpt lat="45.14828435138765" lon="9.120204885381346"><ele>59.66666666666667</ele><time>2026-04-24T08:42:50.997Z</time></trkpt><trkpt lat="45.14812735056774" lon="9.120182195513635"><ele>59.333333333333336</ele><time>2026-04-24T08:42:51.997Z</time></trkpt><trkpt lat="45.147967506305164" lon="9.120148565589743"><ele>59.0</ele><time>2026-04-24T08:42:52.997Z</time></trkpt><trkpt lat="45.14781569396863" lon="9.120173561510924"><ele>59.0</ele><time>2026-04-24T08:42:53.997Z</time></trkpt><trkpt lat="45.14767863008629" lon="9.120164075529724"><ele>59.0</ele><time>2026-04-24T08:42:54.997Z</time></trkpt><trkpt lat="45.1475410593063" lon="9.120163099892736"><ele>59.0</ele><time>2026-04-24T08:42:55.997Z</time></trkpt><trkpt lat="45.14742418998978" lon="9.1201639645432"><ele>59.0</ele><time>2026-04-24T08:42:56.997Z</time></trkpt><trkpt lat="45.14730876223535" lon="9.120137429613674"><ele>59.333333333333336</ele><time>2026-04-24T08:42:57.997Z</time></trkpt><trkpt lat="45.14721186763578" lon="9.120122136270194"><ele>59.66666666666667</ele><time>2026-04-24T08:42:58.997Z</time></trkpt><trkpt lat="45.14711785998313" lon="9.120119283159054"><ele>60.0</ele><time>2026-04-24T08:42:59.997Z</time></trkpt><trkpt lat="45.14703359710398" lon="9.120127806818953"><ele>60.33333333333333</ele><time>2026-04-24T08:43:00.997Z</time></trkpt><trkpt lat="45.1469596934298" lon="9.120120208222788"><ele>60.666666666666664</ele><time>2026-04-24T08:43:01.997Z</time></trkpt><trkpt lat="45.14687407310331" lon="9.120071550208166"><ele>61.0</ele><time>2026-04-24T08:43:02.997Z</time></trkpt><trkpt lat="45.14680735697467" lon="9.120029570377715"><ele>60.99999999999999</ele><time>2026-04-24T08:43:03.997Z</time></trkpt><trkpt lat="45.146742808494864" lon="9.119998260138912"><ele>61.0</ele><time>2026-04-24T08:43:04.997Z</time></trkpt><trkpt lat="45.14667493056669" lon="9.119992255990203"><ele>61.0</ele><time>2026-04-24T08:43:05.997Z</time></trkpt><trkpt lat="45.146610202532415" lon="9.120046973824332"><ele>61.0</ele><time>2026-04-24T08:43:06.997Z</time></trkpt><trkpt lat="45.14650985110083" lon="9.120074973600461"><ele>60.99999999999999</ele><time>2026-04-24T08:43:07.997Z</time></trkpt><trkpt lat="45.146415401000404" lon="9.120105824399873"><ele>61.0</ele><time>2026-04-24T08:43:08.997Z</time></trkpt><trkpt lat="45.146297684351026" lon="9.120127804372183"><ele>61.25</ele><time>2026-04-24T08:43:09.997Z</time></trkpt><trkpt lat="45.14617592754104" lon="9.120151454249056"><ele>61.5</ele><time>2026-04-24T08:43:10.997Z</time></trkpt><trkpt lat="45.146050829243066" lon="9.120171460996707"><ele>61.75</ele><time>2026-04-24T08:43:11.997Z</time></trkpt><trkpt lat="45.14592331372211" lon="9.120177945042661"><ele>62.0</ele><time>2026-04-24T08:43:12.997Z</time></trkpt><trkpt lat="45.14580168624795" lon="9.120099068760519"><ele>62.25</ele><time>2026-04-24T08:43:13.997Z</time></trkpt><trkpt lat="45.14566876013054" lon="9.120093962538526"><ele>62.5</ele><time>2026-04-24T08:43:14.997Z</time></trkpt><trkpt lat="45.14552168989149" lon="9.120088312991829"><ele>62.75</ele><time>2026-04-24T08:43:15.997Z</time></trkpt><trkpt lat="45.14536756629657" lon="9.120102576721465"><ele>63.0</ele><time>2026-04-24T08:43:16.997Z</time></trkpt><trkpt lat="45.145210726232534" lon="9.120087015973185"><ele>63.0</ele><time>2026-04-24T08:43:17.997Z</time></trkpt><trkpt lat="45.14505559656802" lon="9.120071935804932"><ele>63.0</ele><time>2026-04-24T08:43:18.997Z</time></trkpt><trkpt lat="45.144901580931034" lon="9.12008270695113"><ele>63.0</ele><time>2026-04-24T08:43:19.997Z</time></trkpt><trkpt lat="45.14473576566914" lon="9.120066036195325"><ele>62.75</ele><time>2026-04-24T08:43:20.997Z</time></trkpt><trkpt lat="45.14458050305186" lon="9.120063444968226"><ele>62.5</ele><time>2026-04-24T08:43:21.997Z</time></trkpt><trkpt lat="45.14443490094594" lon="9.120051237657062"><ele>62.25</ele><time>2026-04-24T08:43:22.997Z</time></trkpt><trkpt lat="45.14428739397368" lon="9.120039208255962"><ele>62.0</ele><time>2026-04-24T08:43:23.997Z</time></trkpt><trkpt lat="45.14414051450291" lon="9.120037451912763"><ele>62.25</ele><time>2026-04-24T08:43:24.997Z</time></trkpt><trkpt lat="45.14400008722512" lon="9.120025283926994"><ele>62.5</ele><time>2026-04-24T08:43:25.997Z</time></trkpt><trkpt lat="45.143870488076345" lon="9.120019802845812"><ele>62.75</ele><time>2026-04-24T08:43:26.997Z</time></trkpt><trkpt lat="45.143727581747214" lon="9.12001813912971"><ele>63.0</ele><time>2026-04-24T08:43:27.997Z</time></trkpt><trkpt lat="45.14359750360226" lon="9.120025943637339"><ele>63.0</ele><time>2026-04-24T08:43:28.997Z</time></trkpt><trkpt lat="45.14346855721842" lon="9.12003678288014"><ele>63.0</ele><time>2026-04-24T08:43:29.997Z</time></trkpt><trkpt lat="45.14334199123798" lon="9.120025309166829"><ele>63.0</ele><time>2026-04-24T08:43:30.997Z</time></trkpt><trkpt lat="45.14322327107898" lon="9.120029247163737"><ele>63.0</ele><time>2026-04-24T08:43:31.997Z</time></trkpt><trkpt lat="45.143082436572506" lon="9.120029229296499"><ele>63.25</ele><time>2026-04-24T08:43:32.997Z</time></trkpt><trkpt lat="45.14292942716389" lon="9.120063515617062"><ele>63.5</ele><time>2026-04-24T08:43:33.997Z</time></trkpt><trkpt lat="45.14281398261378" lon="9.120059066601334"><ele>63.75</ele><time>2026-04-24T08:43:34.997Z</time></trkpt><trkpt lat="45.1426883267135" lon="9.12007241117715"><ele>64.0</ele><time>2026-04-24T08:43:35.997Z</time></trkpt><trkpt lat="45.14260907593349" lon="9.120005917118425"><ele>64.0</ele><time>2026-04-24T08:43:36.997Z</time></trkpt><trkpt lat="45.14253849491932" lon="9.119990525093234"><ele>64.0</ele><time>2026-04-24T08:43:37.997Z</time></trkpt><trkpt lat="45.14243237913841" lon="9.119875821227588"><ele>64.0</ele><time>2026-04-24T08:43:39.997Z</time></trkpt><trkpt lat="45.14231129862795" lon="9.119852289048778"><ele>64.0</ele><time>2026-04-24T08:43:41.997Z</time></trkpt><trkpt lat="45.1422393023247" lon="9.119866865416743"><ele>64.0</ele><time>2026-04-24T08:43:42.997Z</time></trkpt><trkpt lat="45.14216733195225" lon="9.11991072857229"><ele>63.800000000000004</ele><time>2026-04-24T08:43:43.997Z</time></trkpt><trkpt lat="45.14208665814661" lon="9.119949053587131"><ele>63.60000000000001</ele><time>2026-04-24T08:43:44.997Z</time></trkpt><trkpt lat="45.14200420400188" lon="9.11997904348899"><ele>63.4</ele><time>2026-04-24T08:43:45.997Z</time></trkpt><trkpt lat="45.14190989869843" lon="9.120062446474254"><ele>63.2</ele><time>2026-04-24T08:43:46.997Z</time></trkpt><trkpt lat="45.141812677398164" lon="9.120063541309332"><ele>63.0</ele><time>2026-04-24T08:43:47.997Z</time></trkpt><trkpt lat="45.14169944689431" lon="9.120046647529014"><ele>63.0</ele><time>2026-04-24T08:43:48.997Z</time></trkpt><trkpt lat="45.141591476264374" lon="9.12003338354502"><ele>63.0</ele><time>2026-04-24T08:43:49.997Z</time></trkpt><trkpt lat="45.141478341773364" lon="9.119999302322826"><ele>63.0</ele><time>2026-04-24T08:43:50.997Z</time></trkpt><trkpt lat="45.141354940746346" lon="9.119973845146037"><ele>63.0</ele><time>2026-04-24T08:43:51.997Z</time></trkpt><trkpt lat="45.14123403712325" lon="9.119953371788094"><ele>63.0</ele><time>2026-04-24T08:43:52.997Z</time></trkpt><trkpt lat="45.141113042849476" lon="9.119950357951785"><ele>63.0</ele><time>2026-04-24T08:43:53.997Z</time></trkpt><trkpt lat="45.140972562798915" lon="9.119929352225874"><ele>63.0</ele><time>2026-04-24T08:43:54.997Z</time></trkpt><trkpt lat="45.14083912995524" lon="9.11992632372411"><ele>63.0</ele><time>2026-04-24T08:43:55.997Z</time></trkpt><trkpt lat="45.14069763058161" lon="9.119909942156568"><ele>62.75</ele><time>2026-04-24T08:43:56.997Z</time></trkpt><trkpt lat="45.140551043141414" lon="9.119904008269408"><ele>62.5</ele><time>2026-04-24T08:43:57.997Z</time></trkpt><trkpt lat="45.14042092496277" lon="9.119879251759688"><ele>62.25</ele><time>2026-04-24T08:43:58.997Z</time></trkpt><trkpt lat="45.14028989852706" lon="9.119898741432209"><ele>62.0</ele><time>2026-04-24T08:43:59.996Z</time></trkpt><trkpt lat="45.14014703933194" lon="9.119900660082969"><ele>62.0</ele><time>2026-04-24T08:44:00.996Z</time></trkpt><trkpt lat="45.139997600368815" lon="9.119870210046981"><ele>62.0</ele><time>2026-04-24T08:44:01.996Z</time></trkpt><trkpt lat="45.139843774236674" lon="9.11987122571392"><ele>62.0</ele><time>2026-04-24T08:44:02.996Z</time></trkpt><trkpt lat="45.13968699463102" lon="9.119860869845583"><ele>62.0</ele><time>2026-04-24T08:44:03.996Z</time></trkpt><trkpt lat="45.13952530913979" lon="9.119842110302681"><ele>62.0</ele><time>2026-04-24T08:44:04.996Z</time></trkpt><trkpt lat="45.13936469327106" lon="9.119845183682317"><ele>62.0</ele><time>2026-04-24T08:44:05.996Z</time></trkpt><trkpt lat="45.13918612550636" lon="9.119842884384466"><ele>62.0</ele><time>2026-04-24T08:44:06.996Z</time></trkpt><trkpt lat="45.13902583492833" lon="9.11983448285099"><ele>62.0</ele><time>2026-04-24T08:44:07.996Z</time></trkpt><trkpt lat="45.13886064114276" lon="9.119822414271454"><ele>62.0</ele><time>2026-04-24T08:44:08.996Z</time></trkpt><trkpt lat="45.13869675773401" lon="9.119805292268463"><ele>62.0</ele><time>2026-04-24T08:44:09.996Z</time></trkpt><trkpt lat="45.138529668552565" lon="9.119789475059903"><ele>62.0</ele><time>2026-04-24T08:44:10.996Z</time></trkpt><trkpt lat="45.1383725622476" lon="9.119769619051919"><ele>62.0</ele><time>2026-04-24T08:44:11.996Z</time></trkpt><trkpt lat="45.13818646767719" lon="9.119759366139148"><ele>61.333333333333336</ele><time>2026-04-24T08:44:12.996Z</time></trkpt><trkpt lat="45.13800804953829" lon="9.119768894728164"><ele>60.66666666666667</ele><time>2026-04-24T08:44:13.996Z</time></trkpt><trkpt lat="45.13783550873946" lon="9.119771741322596"><ele>60.0</ele><time>2026-04-24T08:44:14.996Z</time></trkpt><trkpt lat="45.13767225212299" lon="9.11976121564781"><ele>60.0</ele><time>2026-04-24T08:44:15.996Z</time></trkpt><trkpt lat="45.13750870721337" lon="9.11977379133515"><ele>60.0</ele><time>2026-04-24T08:44:16.996Z</time></trkpt><trkpt lat="45.13734887244944" lon="9.119744820599077"><ele>60.0</ele><time>2026-04-24T08:44:18.001Z</time></trkpt><trkpt lat="45.137187639412815" lon="9.119739243144629"><ele>60.33333333333333</ele><time>2026-04-24T08:44:19.001Z</time></trkpt><trkpt lat="45.137036669386845" lon="9.11972711906122"><ele>60.666666666666664</ele><time>2026-04-24T08:44:20.001Z</time></trkpt><trkpt lat="45.13689015589788" lon="9.119714252525958"><ele>61.0</ele><time>2026-04-24T08:44:21.001Z</time></trkpt><trkpt lat="45.13673199253946" lon="9.119703581480437"><ele>61.666666666666664</ele><time>2026-04-24T08:44:22.001Z</time></trkpt><trkpt lat="45.13655039674797" lon="9.119730511271058"><ele>62.33333333333333</ele><time>2026-04-24T08:44:23.001Z</time></trkpt><trkpt lat="45.136383447574296" lon="9.119737089418955"><ele>63.0</ele><time>2026-04-24T08:44:24.001Z</time></trkpt><trkpt lat="45.13621251212506" lon="9.119739420597506"><ele>63.0</ele><time>2026-04-24T08:44:25.001Z</time></trkpt><trkpt lat="45.13606357887314" lon="9.119764277134427"><ele>63.0</ele><time>2026-04-24T08:44:26.001Z</time></trkpt><trkpt lat="45.1359157635789" lon="9.119747681120925"><ele>63.0</ele><time>2026-04-24T08:44:27.001Z</time></trkpt><trkpt lat="45.13575733866277" lon="9.119702272853306"><ele>62.66666666666667</ele><time>2026-04-24T08:44:28.001Z</time></trkpt><trkpt lat="45.13560977648401" lon="9.119677314875402"><ele>62.333333333333336</ele><time>2026-04-24T08:44:29.001Z</time></trkpt><trkpt lat="45.13544748805158" lon="9.11966001395338"><ele>62.0</ele><time>2026-04-24T08:44:30.001Z</time></trkpt><trkpt lat="45.1352991845318" lon="9.119650906266404"><ele>62.0</ele><time>2026-04-24T08:44:31.001Z</time></trkpt><trkpt lat="45.135144151983496" lon="9.119660176289377"><ele>62.0</ele><time>2026-04-24T08:44:32.001Z</time></trkpt><trkpt lat="45.13499391749136" lon="9.11964775217181"><ele>62.0</ele><time>2026-04-24T08:44:33.001Z</time></trkpt><trkpt lat="45.134826063579936" lon="9.119647279886044"><ele>61.66666666666667</ele><time>2026-04-24T08:44:34.001Z</time></trkpt><trkpt lat="45.134663526688044" lon="9.119662994327774"><ele>61.33333333333333</ele><time>2026-04-24T08:44:35.001Z</time></trkpt><trkpt lat="45.134501310450396" lon="9.119632144569978"><ele>61.0</ele><time>2026-04-24T08:44:36.001Z</time></trkpt><trkpt lat="45.13433800843808" lon="9.11963407271446"><ele>61.0</ele><time>2026-04-24T08:44:37.001Z</time></trkpt><trkpt lat="45.134182238763245" lon="9.119630908969993"><ele>61.0</ele><time>2026-04-24T08:44:38.001Z</time></trkpt><trkpt lat="45.1340392779577" lon="9.119619361987846"><ele>61.0</ele><time>2026-04-24T08:44:39Z</time></trkpt><trkpt lat="45.1338788812712" lon="9.119603240288678"><ele>61.666666666666664</ele><time>2026-04-24T08:44:40Z</time></trkpt><trkpt lat="45.13374997741837" lon="9.119604866978255"><ele>62.33333333333333</ele><time>2026-04-24T08:44:41Z</time></trkpt><trkpt lat="45.13357370872327" lon="9.119586675487023"><ele>63.0</ele><time>2026-04-24T08:44:42Z</time></trkpt><trkpt lat="45.133409274193525" lon="9.11956848463354"><ele>63.0</ele><time>2026-04-24T08:44:43Z</time></trkpt><trkpt lat="45.133247093673226" lon="9.11952480900998"><ele>63.0</ele><time>2026-04-24T08:44:44Z</time></trkpt><trkpt lat="45.133101085528594" lon="9.119510398876425"><ele>63.0</ele><time>2026-04-24T08:44:45Z</time></trkpt><trkpt lat="45.132954525356645" lon="9.119509919482875"><ele>62.75</ele><time>2026-04-24T08:44:46Z</time></trkpt><trkpt lat="45.1328211555433" lon="9.119511606898378"><ele>62.5</ele><time>2026-04-24T08:44:47Z</time></trkpt><trkpt lat="45.132675741680806" lon="9.119537365347176"><ele>62.25</ele><time>2026-04-24T08:44:48Z</time></trkpt><trkpt lat="45.132561375064235" lon="9.119533210541984"><ele>62.0</ele><time>2026-04-24T08:44:49Z</time></trkpt><trkpt lat="45.132421667136555" lon="9.119545389504164"><ele>61.5</ele><time>2026-04-24T08:44:50Z</time></trkpt><trkpt lat="45.13227431715708" lon="9.11955766802728"><ele>61.0</ele><time>2026-04-24T08:44:51Z</time></trkpt><trkpt lat="45.13215451067043" lon="9.11953712357638"><ele>60.5</ele><time>2026-04-24T08:44:52Z</time></trkpt><trkpt lat="45.13202551596638" lon="9.119530904244206"><ele>60.0</ele><time>2026-04-24T08:44:53Z</time></trkpt><trkpt lat="45.131902292269466" lon="9.119524732651152"><ele>60.0</ele><time>2026-04-24T08:44:54Z</time></trkpt><trkpt lat="45.13174358288933" lon="9.119520328084228"><ele>60.0</ele><time>2026-04-24T08:44:55Z</time></trkpt><trkpt lat="45.13156946238022" lon="9.119499194281525"><ele>60.0</ele><time>2026-04-24T08:44:56Z</time></trkpt><trkpt lat="45.1314006912095" lon="9.119502623843063"><ele>60.66666666666667</ele><time>2026-04-24T08:44:57Z</time></trkpt><trkpt lat="45.1312368545945" lon="9.11949555335182"><ele>61.333333333333336</ele><time>2026-04-24T08:44:58Z</time></trkpt><trkpt lat="45.13108364369064" lon="9.119506884297842"><ele>62.0</ele><time>2026-04-24T08:44:59Z</time></trkpt><trkpt lat="45.13091518688353" lon="9.119477825615167"><ele>62.0</ele><time>2026-04-24T08:45:00Z</time></trkpt><trkpt lat="45.130749758345054" lon="9.119449204299555"><ele>62.0</ele><time>2026-04-24T08:45:01Z</time></trkpt><trkpt lat="45.13059206729022" lon="9.119435303779769"><ele>62.0</ele><time>2026-04-24T08:45:02Z</time></trkpt><trkpt lat="45.130425757325526" lon="9.119395969856896"><ele>62.0</ele><time>2026-04-24T08:45:03Z</time></trkpt><trkpt lat="45.130263271353265" lon="9.119410910913942"><ele>62.0</ele><time>2026-04-24T08:45:04Z</time></trkpt><trkpt lat="45.1301165275779" lon="9.11942300880301"><ele>62.0</ele><time>2026-04-24T08:45:05Z</time></trkpt><trkpt lat="45.12995160619744" lon="9.11940999983921"><ele>62.333333333333336</ele><time>2026-04-24T08:45:06Z</time></trkpt><trkpt lat="45.12980048882677" lon="9.119391613282403"><ele>62.66666666666667</ele><time>2026-04-24T08:45:07Z</time></trkpt><trkpt lat="45.12963180128483" lon="9.119377488408265"><ele>63.0</ele><time>2026-04-24T08:45:08Z</time></trkpt><trkpt lat="45.1294666528288" lon="9.119385321200932"><ele>63.0</ele><time>2026-04-24T08:45:09Z</time></trkpt><trkpt lat="45.12929716764265" lon="9.119390696091518"><ele>63.0</ele><time>2026-04-24T08:45:10Z</time></trkpt><trkpt lat="45.12913467306393" lon="9.119407963156641"><ele>63.0</ele><time>2026-04-24T08:45:11Z</time></trkpt><trkpt lat="45.128962331148976" lon="9.119412734682872"><ele>63.33333333333333</ele><time>2026-04-24T08:45:12Z</time></trkpt><trkpt lat="45.128779208858475" lon="9.11939047682733"><ele>63.666666666666664</ele><time>2026-04-24T08:45:13Z</time></trkpt><trkpt lat="45.128623479879664" lon="9.119387398769604"><ele>64.0</ele><time>2026-04-24T08:45:14Z</time></trkpt><trkpt lat="45.128459801176454" lon="9.11936545555999"><ele>64.0</ele><time>2026-04-24T08:45:15Z</time></trkpt><trkpt lat="45.12829821656565" lon="9.119346456497606"><ele>64.0</ele><time>2026-04-24T08:45:16Z</time></trkpt><trkpt lat="45.12811197442141" lon="9.11936954481624"><ele>64.0</ele><time>2026-04-24T08:45:17Z</time></trkpt><trkpt lat="45.127971328321884" lon="9.119361753742034"><ele>63.33333333333333</ele><time>2026-04-24T08:45:18Z</time></trkpt><trkpt lat="45.12780394973481" lon="9.119365074482412"><ele>62.66666666666667</ele><time>2026-04-24T08:45:19Z</time></trkpt><trkpt lat="45.12764792694627" lon="9.119356996070684"><ele>62.0</ele><time>2026-04-24T08:45:20Z</time></trkpt><trkpt lat="45.127499663130365" lon="9.119348649828204"><ele>62.333333333333336</ele><time>2026-04-24T08:45:21Z</time></trkpt><trkpt lat="45.12735265306488" lon="9.119311514586313"><ele>62.66666666666667</ele><time>2026-04-24T08:45:22Z</time></trkpt><trkpt lat="45.12719865757984" lon="9.119307860203152"><ele>63.0</ele><time>2026-04-24T08:45:23Z</time></trkpt><trkpt lat="45.127043906327145" lon="9.119289667975817"><ele>63.0</ele><time>2026-04-24T08:45:24Z</time></trkpt><trkpt lat="45.126903908342356" lon="9.11927099866702"><ele>63.0</ele><time>2026-04-24T08:45:25Z</time></trkpt><trkpt lat="45.12675703033141" lon="9.119269959427823"><ele>63.0</ele><time>2026-04-24T08:45:26Z</time></trkpt><trkpt lat="45.126618657325245" lon="9.119274032611534"><ele>63.0</ele><time>2026-04-24T08:45:27Z</time></trkpt><trkpt lat="45.1264552020724" lon="9.119293437946537"><ele>63.33333333333333</ele><time>2026-04-24T08:45:28Z</time></trkpt><trkpt lat="45.12630398573622" lon="9.119295016197206"><ele>63.666666666666664</ele><time>2026-04-24T08:45:29Z</time></trkpt><trkpt lat="45.126143284384376" lon="9.119290071993747"><ele>64.0</ele><time>2026-04-24T08:45:30Z</time></trkpt><trkpt lat="45.12598926499531" lon="9.119271563831367"><ele>64.0</ele><time>2026-04-24T08:45:31Z</time></trkpt><trkpt lat="45.125851515048986" lon="9.119256447038394"><ele>64.0</ele><time>2026-04-24T08:45:32Z</time></trkpt><trkpt lat="45.12571307540626" lon="9.119238978793438"><ele>64.0</ele><time>2026-04-24T08:45:33Z</time></trkpt><trkpt lat="45.12558321945428" lon="9.119225095916596"><ele>64.0</ele><time>2026-04-24T08:45:34Z</time></trkpt><trkpt lat="45.12546042263943" lon="9.119223508780864"><ele>64.0</ele><time>2026-04-24T08:45:35Z</time></trkpt><trkpt lat="45.12532708188335" lon="9.119220156849709"><ele>64.0</ele><time>2026-04-24T08:45:36Z</time></trkpt><trkpt lat="45.125208796351735" lon="9.119234296226924"><ele>64.0</ele><time>2026-04-24T08:45:37Z</time></trkpt><trkpt lat="45.125077483960084" lon="9.119183884405553"><ele>64.0</ele><time>2026-04-24T08:45:38Z</time></trkpt><trkpt lat="45.12493846521078" lon="9.119144685846694"><ele>64.0</ele><time>2026-04-24T08:45:39Z</time></trkpt><trkpt lat="45.124800727540084" lon="9.119080426612285"><ele>64.0</ele><time>2026-04-24T08:45:40Z</time></trkpt><trkpt lat="45.12466914117558" lon="9.119065048522296"><ele>64.0</ele><time>2026-04-24T08:45:41Z</time></trkpt><trkpt lat="45.124520320049356" lon="9.118980346428495"><ele>64.0</ele><time>2026-04-24T08:45:42Z</time></trkpt><trkpt lat="45.12438462055162" lon="9.1189296586276"><ele>64.0</ele><time>2026-04-24T08:45:43Z</time></trkpt><trkpt lat="45.12426424038108" lon="9.118855812337712"><ele>64.0</ele><time>2026-04-24T08:45:44Z</time></trkpt><trkpt lat="45.1241315162579" lon="9.118790284309611"><ele>64.0</ele><time>2026-04-24T08:45:45Z</time></trkpt><trkpt lat="45.1240010569262" lon="9.118712118252402"><ele>64.0</ele><time>2026-04-24T08:45:46Z</time></trkpt><trkpt lat="45.12386360175391" lon="9.118616350601366"><ele>63.666666666666664</ele><time>2026-04-24T08:45:47Z</time></trkpt><trkpt lat="45.12372281269567" lon="9.118500440830278"><ele>63.33333333333333</ele><time>2026-04-24T08:45:47.999Z</time></trkpt><trkpt lat="45.12357916040611" lon="9.118384978698492"><ele>63.0</ele><time>2026-04-24T08:45:48.999Z</time></trkpt><trkpt lat="45.12343887304963" lon="9.11826351420604"><ele>62.66666666666667</ele><time>2026-04-24T08:45:49.999Z</time></trkpt><trkpt lat="45.123305942205846" lon="9.118134539785695"><ele>62.333333333333336</ele><time>2026-04-24T08:45:50.999Z</time></trkpt><trkpt lat="45.12316592776485" lon="9.117990783833196"><ele>62.0</ele><time>2026-04-24T08:45:51.999Z</time></trkpt><trkpt lat="45.12303017541264" lon="9.117847003272956"><ele>62.0</ele><time>2026-04-24T08:45:52.999Z</time></trkpt><trkpt lat="45.122873110041546" lon="9.117680639520065"><ele>62.0</ele><time>2026-04-24T08:45:53.999Z</time></trkpt><trkpt lat="45.12273162255169" lon="9.117529146308081"><ele>62.0</ele><time>2026-04-24T08:45:54.999Z</time></trkpt><trkpt lat="45.12259693660539" lon="9.117384828035693"><ele>61.66666666666667</ele><time>2026-04-24T08:45:55.999Z</time></trkpt><trkpt lat="45.122440242426805" lon="9.117220570590245"><ele>61.33333333333333</ele><time>2026-04-24T08:45:56.999Z</time></trkpt><trkpt lat="45.122290027182196" lon="9.117065448662494"><ele>61.0</ele><time>2026-04-24T08:45:57.999Z</time></trkpt><trkpt lat="45.122137369619324" lon="9.116910477489292"><ele>61.0</ele><time>2026-04-24T08:45:58.999Z</time></trkpt><trkpt lat="45.122026565279526" lon="9.116799082314923"><ele>61.0</ele><time>2026-04-24T08:45:59.999Z</time></trkpt><trkpt lat="45.12188534940848" lon="9.116655954804546"><ele>61.0</ele><time>2026-04-24T08:46:00.999Z</time></trkpt><trkpt lat="45.1217371181945" lon="9.116508402974887"><ele>61.33333333333333</ele><time>2026-04-24T08:46:01.999Z</time></trkpt><trkpt lat="45.12158482619865" lon="9.11635837328628"><ele>61.66666666666667</ele><time>2026-04-24T08:46:02.999Z</time></trkpt><trkpt lat="45.12144869060507" lon="9.116224259931474"><ele>62.0</ele><time>2026-04-24T08:46:03.999Z</time></trkpt><trkpt lat="45.12129986246722" lon="9.11607583846317"><ele>62.0</ele><time>2026-04-24T08:46:04.999Z</time></trkpt><trkpt lat="45.121163470640504" lon="9.115938203960265"><ele>62.0</ele><time>2026-04-24T08:46:05.999Z</time></trkpt><trkpt lat="45.12096996774046" lon="9.115938366966809"><ele>62.0</ele><time>2026-04-24T08:46:06.999Z</time></trkpt><trkpt lat="45.12084777608492" lon="9.115830027523078"><ele>62.25</ele><time>2026-04-24T08:46:07.999Z</time></trkpt><trkpt lat="45.12072742298966" lon="9.115739095635268"><ele>62.5</ele><time>2026-04-24T08:46:08.999Z</time></trkpt><trkpt lat="45.12064333555052" lon="9.115675068414822"><ele>62.75</ele><time>2026-04-24T08:46:09.999Z</time></trkpt><trkpt lat="45.120638916113556" lon="9.115399459732387"><ele>63.0</ele><time>2026-04-24T08:46:10.999Z</time></trkpt><trkpt lat="45.120550045806404" lon="9.115307134284802"><ele>63.0</ele><time>2026-04-24T08:46:11.999Z</time></trkpt><trkpt lat="45.120432723914185" lon="9.115185489871374"><ele>63.0</ele><time>2026-04-24T08:46:12.999Z</time></trkpt><trkpt lat="45.120300568816646" lon="9.115048991443116"><ele>63.0</ele><time>2026-04-24T08:46:13.999Z</time></trkpt><trkpt lat="45.12021960933781" lon="9.114966970684543"><ele>63.0</ele><time>2026-04-24T08:46:14.999Z</time></trkpt><trkpt lat="45.120067755919735" lon="9.114811934026147"><ele>63.25</ele><time>2026-04-24T08:46:15.999Z</time></trkpt><trkpt lat="45.11997841625101" lon="9.114720450185148"><ele>63.5</ele><time>2026-04-24T08:46:16.999Z</time></trkpt><trkpt lat="45.119860969613704" lon="9.114603612169144"><ele>63.75</ele><time>2026-04-24T08:46:17.999Z</time></trkpt><trkpt lat="45.119725111146714" lon="9.114494081775163"><ele>64.0</ele><time>2026-04-24T08:46:18.999Z</time></trkpt><trkpt lat="45.119638537715645" lon="9.114358162073685"><ele>63.5</ele><time>2026-04-24T08:46:19.999Z</time></trkpt><trkpt lat="45.11952194677164" lon="9.114236469414854"><ele>63.0</ele><time>2026-04-24T08:46:20.999Z</time></trkpt><trkpt lat="45.11941911998922" lon="9.114143345919672"><ele>62.5</ele><time>2026-04-24T08:46:21.999Z</time></trkpt><trkpt lat="45.11930690609987" lon="9.114046380086526"><ele>62.0</ele><time>2026-04-24T08:46:22.999Z</time></trkpt><trkpt lat="45.11914292145997" lon="9.114023934676212"><ele>62.333333333333336</ele><time>2026-04-24T08:46:23.999Z</time></trkpt><trkpt lat="45.11899326196543" lon="9.113959708742989"><ele>62.66666666666667</ele><time>2026-04-24T08:46:24.999Z</time></trkpt><trkpt lat="45.11885292633713" lon="9.113875941943704"><ele>63.0</ele><time>2026-04-24T08:46:25.999Z</time></trkpt><trkpt lat="45.11871609425601" lon="9.113811027921663"><ele>63.0</ele><time>2026-04-24T08:46:26.999Z</time></trkpt><trkpt lat="45.11856945572534" lon="9.113754312199733"><ele>63.0</ele><time>2026-04-24T08:46:27.999Z</time></trkpt><trkpt lat="45.11841892909418" lon="9.113714433543418"><ele>63.0</ele><time>2026-04-24T08:46:28.999Z</time></trkpt><trkpt lat="45.118267180547484" lon="9.113666734088852"><ele>63.25</ele><time>2026-04-24T08:46:29.999Z</time></trkpt><trkpt lat="45.118127180826455" lon="9.113662868474165"><ele>63.5</ele><time>2026-04-24T08:46:30.999Z</time></trkpt><trkpt lat="45.117997354067356" lon="9.113622658205845"><ele>63.75</ele><time>2026-04-24T08:46:31.999Z</time></trkpt><trkpt lat="45.11786435417183" lon="9.113610548183697"><ele>64.0</ele><time>2026-04-24T08:46:32.999Z</time></trkpt><trkpt lat="45.117742662217466" lon="9.113578209018291"><ele>63.99999999999999</ele><time>2026-04-24T08:46:33.999Z</time></trkpt><trkpt lat="45.11765413494684" lon="9.113577450674871"><ele>64.0</ele><time>2026-04-24T08:46:34.999Z</time></trkpt><trkpt lat="45.1175925455616" lon="9.113611981842492"><ele>64.0</ele><time>2026-04-24T08:46:35.999Z</time></trkpt><trkpt lat="45.11747975848934" lon="9.113648772287831"><ele>64.0</ele><time>2026-04-24T08:46:37.999Z</time></trkpt><trkpt lat="45.1173928366514" lon="9.113655213336742"><ele>63.99999999999999</ele><time>2026-04-24T08:46:39.999Z</time></trkpt><trkpt lat="45.117326472557764" lon="9.113663086820987"><ele>64.0</ele><time>2026-04-24T08:46:42.999Z</time></trkpt><trkpt lat="45.117255269690276" lon="9.113671535555316"><ele>64.0</ele><time>2026-04-24T08:47:31.998Z</time></trkpt><trkpt lat="45.11732794149817" lon="9.11365908772399"><ele>64.0</ele><time>2026-04-24T08:48:21.998Z</time></trkpt><trkpt lat="45.1174590742178" lon="9.113675362835238"><ele>64.0</ele><time>2026-04-24T08:49:07.997Z</time></trkpt><trkpt lat="45.11755254362338" lon="9.113665523327217"><ele>64.0</ele><time>2026-04-24T08:49:09.997Z</time></trkpt><trkpt lat="45.11766641190026" lon="9.113673427949225"><ele>64.0</ele><time>2026-04-24T08:49:11.997Z</time></trkpt><trkpt lat="45.11778958155421" lon="9.113674795793706"><ele>63.99999999999999</ele><time>2026-04-24T08:49:13.997Z</time></trkpt><trkpt lat="45.11786125991595" lon="9.113682944705923"><ele>64.0</ele><time>2026-04-24T08:49:14.997Z</time></trkpt><trkpt lat="45.11793914433024" lon="9.113688858296447"><ele>64.0</ele><time>2026-04-24T08:49:15.997Z</time></trkpt><trkpt lat="45.118025775422915" lon="9.113703827568864"><ele>64.0</ele><time>2026-04-24T08:49:16.997Z</time></trkpt><trkpt lat="45.11812156545114" lon="9.113709317679433"><ele>63.99999999999999</ele><time>2026-04-24T08:49:17.997Z</time></trkpt><trkpt lat="45.118225009697355" lon="9.113728470354463"><ele>64.0</ele><time>2026-04-24T08:49:18.997Z</time></trkpt><trkpt lat="45.11833835466646" lon="9.11373778516399"><ele>63.75</ele><time>2026-04-24T08:49:19.997Z</time></trkpt><trkpt lat="45.1184481713224" lon="9.113769238635697"><ele>63.5</ele><time>2026-04-24T08:49:20.997Z</time></trkpt><trkpt lat="45.11856036406513" lon="9.1138057297975"><ele>63.25</ele><time>2026-04-24T08:49:21.997Z</time></trkpt><trkpt lat="45.118675466263554" lon="9.11384826814701"><ele>63.0</ele><time>2026-04-24T08:49:22.997Z</time></trkpt><trkpt lat="45.11878932843137" lon="9.113892939881888"><ele>63.0</ele><time>2026-04-24T08:49:23.997Z</time></trkpt><trkpt lat="45.11890738518862" lon="9.11394421312249"><ele>63.0</ele><time>2026-04-24T08:49:24.997Z</time></trkpt><trkpt lat="45.11903262296031" lon="9.114009441612907"><ele>63.0</ele><time>2026-04-24T08:49:25.997Z</time></trkpt><trkpt lat="45.11916131929209" lon="9.11408636040066"><ele>63.0</ele><time>2026-04-24T08:49:26.997Z</time></trkpt><trkpt lat="45.11928954197168" lon="9.114170072553678"><ele>62.5</ele><time>2026-04-24T08:49:27.997Z</time></trkpt><trkpt lat="45.11941631354503" lon="9.11426169951204"><ele>62.0</ele><time>2026-04-24T08:49:28.997Z</time></trkpt><trkpt lat="45.11954898770025" lon="9.114344294754043"><ele>61.5</ele><time>2026-04-24T08:49:29.997Z</time></trkpt><trkpt lat="45.11967064881567" lon="9.114458528431092"><ele>61.0</ele><time>2026-04-24T08:49:30.997Z</time></trkpt><trkpt lat="45.11979056987311" lon="9.114576661597553"><ele>61.666666666666664</ele><time>2026-04-24T08:49:31.997Z</time></trkpt><trkpt lat="45.11991167390432" lon="9.114700818379712"><ele>62.33333333333333</ele><time>2026-04-24T08:49:32.997Z</time></trkpt><trkpt lat="45.12003577601455" lon="9.114824450422748"><ele>63.0</ele><time>2026-04-24T08:49:33.997Z</time></trkpt><trkpt lat="45.12015990289654" lon="9.114950558017709"><ele>63.0</ele><time>2026-04-24T08:49:34.997Z</time></trkpt><trkpt lat="45.120285072887725" lon="9.115080703773492"><ele>63.0</ele><time>2026-04-24T08:49:35.997Z</time></trkpt><trkpt lat="45.120411440102075" lon="9.115216319294131"><ele>63.0</ele><time>2026-04-24T08:49:36.997Z</time></trkpt><trkpt lat="45.12055090346884" lon="9.115373601609507"><ele>63.0</ele><time>2026-04-24T08:49:37.997Z</time></trkpt><trkpt lat="45.120692721749094" lon="9.115529958985007"><ele>63.0</ele><time>2026-04-24T08:49:38.997Z</time></trkpt><trkpt lat="45.12082452240053" lon="9.115705072619518"><ele>63.0</ele><time>2026-04-24T08:49:39.997Z</time></trkpt><trkpt lat="45.120974541511465" lon="9.115834862990143"><ele>62.66666666666667</ele><time>2026-04-24T08:49:40.997Z</time></trkpt><trkpt lat="45.12111651567215" lon="9.11598099746137"><ele>62.333333333333336</ele><time>2026-04-24T08:49:41.997Z</time></trkpt><trkpt lat="45.121253907360135" lon="9.11612504787215"><ele>62.0</ele><time>2026-04-24T08:49:42.997Z</time></trkpt><trkpt lat="45.121400298432874" lon="9.11625040137743"><ele>62.0</ele><time>2026-04-24T08:49:43.997Z</time></trkpt><trkpt lat="45.12154115005274" lon="9.11637821580926"><ele>62.0</ele><time>2026-04-24T08:49:44.997Z</time></trkpt><trkpt lat="45.121696120659685" lon="9.116521850241513"><ele>62.0</ele><time>2026-04-24T08:49:45.997Z</time></trkpt><trkpt lat="45.1218427662766" lon="9.116665534536306"><ele>61.66666666666667</ele><time>2026-04-24T08:49:46.997Z</time></trkpt><trkpt lat="45.121979753097676" lon="9.116816000515216"><ele>61.33333333333333</ele><time>2026-04-24T08:49:47.997Z</time></trkpt><trkpt lat="45.12211723275355" lon="9.11697519681912"><ele>61.0</ele><time>2026-04-24T08:49:48.997Z</time></trkpt><trkpt lat="45.122270678438916" lon="9.117098988085505"><ele>61.0</ele><time>2026-04-24T08:49:49.997Z</time></trkpt><trkpt lat="45.122411616295494" lon="9.117256970981398"><ele>61.0</ele><time>2026-04-24T08:49:50.997Z</time></trkpt><trkpt lat="45.12255089961477" lon="9.117393165398795"><ele>61.0</ele><time>2026-04-24T08:49:51.997Z</time></trkpt><trkpt lat="45.12268300825057" lon="9.117516334021662"><ele>61.33333333333333</ele><time>2026-04-24T08:49:52.997Z</time></trkpt><trkpt lat="45.12282783029228" lon="9.117684828100732"><ele>61.66666666666667</ele><time>2026-04-24T08:49:53.997Z</time></trkpt><trkpt lat="45.122960276502" lon="9.117850064955226"><ele>62.0</ele><time>2026-04-24T08:49:54.997Z</time></trkpt><trkpt lat="45.123094055090554" lon="9.117993046616562"><ele>62.0</ele><time>2026-04-24T08:49:55.997Z</time></trkpt><trkpt lat="45.123218213934734" lon="9.118132363203916"><ele>62.0</ele><time>2026-04-24T08:49:56.997Z</time></trkpt><trkpt lat="45.123370944062266" lon="9.118239655678396"><ele>62.0</ele><time>2026-04-24T08:49:57.997Z</time></trkpt><trkpt lat="45.12351291559313" lon="9.118376449982133"><ele>62.333333333333336</ele><time>2026-04-24T08:49:58.997Z</time></trkpt><trkpt lat="45.123650583837545" lon="9.118505783682048"><ele>62.66666666666667</ele><time>2026-04-24T08:49:59.997Z</time></trkpt><trkpt lat="45.12379945579824" lon="9.11862399443346"><ele>63.0</ele><time>2026-04-24T08:50:00.997Z</time></trkpt><trkpt lat="45.123944222820825" lon="9.118707613235882"><ele>63.25</ele><time>2026-04-24T08:50:01.997Z</time></trkpt><trkpt lat="45.12408760394946" lon="9.1188056869234"><ele>63.5</ele><time>2026-04-24T08:50:02.996Z</time></trkpt><trkpt lat="45.124233134369135" lon="9.118892734353105"><ele>63.75</ele><time>2026-04-24T08:50:03.996Z</time></trkpt><trkpt lat="45.12435387917462" lon="9.118956187769172"><ele>64.0</ele><time>2026-04-24T08:50:04.996Z</time></trkpt><trkpt lat="45.12449986662535" lon="9.119024474197861"><ele>64.0</ele><time>2026-04-24T08:50:05.996Z</time></trkpt><trkpt lat="45.12463548000363" lon="9.119080737953784"><ele>64.0</ele><time>2026-04-24T08:50:06.996Z</time></trkpt><trkpt lat="45.12477642683311" lon="9.119113853694879"><ele>64.0</ele><time>2026-04-24T08:50:07.996Z</time></trkpt><trkpt lat="45.124911151985806" lon="9.119173736231494"><ele>64.0</ele><time>2026-04-24T08:50:08.996Z</time></trkpt><trkpt lat="45.12504961376289" lon="9.119204807693764"><ele>64.0</ele><time>2026-04-24T08:50:09.996Z</time></trkpt><trkpt lat="45.12517473671302" lon="9.119255952349073"><ele>64.0</ele><time>2026-04-24T08:50:10.996Z</time></trkpt><trkpt lat="45.125310929711596" lon="9.119254648649974"><ele>64.0</ele><time>2026-04-24T08:50:11.996Z</time></trkpt><trkpt lat="45.12544381417055" lon="9.11929458444882"><ele>64.0</ele><time>2026-04-24T08:50:12.996Z</time></trkpt><trkpt lat="45.12559509107928" lon="9.119289562494862"><ele>64.0</ele><time>2026-04-24T08:50:13.996Z</time></trkpt><trkpt lat="45.12573932238523" lon="9.119315528991727"><ele>64.0</ele><time>2026-04-24T08:50:14.996Z</time></trkpt><trkpt lat="45.125901105861594" lon="9.119321281700822"><ele>64.0</ele><time>2026-04-24T08:50:15.996Z</time></trkpt><trkpt lat="45.12606777751463" lon="9.119329453188927"><ele>64.0</ele><time>2026-04-24T08:50:16.996Z</time></trkpt><trkpt lat="45.126212431030375" lon="9.119336545180097"><ele>64.0</ele><time>2026-04-24T08:50:17.996Z</time></trkpt><trkpt lat="45.12638219334886" lon="9.11933174140907"><ele>64.0</ele><time>2026-04-24T08:50:18.996Z</time></trkpt><trkpt lat="45.12655408787134" lon="9.119353295716117"><ele>63.666666666666664</ele><time>2026-04-24T08:50:19.996Z</time></trkpt><trkpt lat="45.1267165142219" lon="9.119338573235177"><ele>63.33333333333333</ele><time>2026-04-24T08:50:20.996Z</time></trkpt><trkpt lat="45.126895376619096" lon="9.119391900961297"><ele>63.0</ele><time>2026-04-24T08:50:21.996Z</time></trkpt><trkpt lat="45.12705251327383" lon="9.119355209411218"><ele>63.0</ele><time>2026-04-24T08:50:22.996Z</time></trkpt><trkpt lat="45.127219543805765" lon="9.11935451448027"><ele>63.0</ele><time>2026-04-24T08:50:23.996Z</time></trkpt><trkpt lat="45.12737184837063" lon="9.119382941948983"><ele>63.0</ele><time>2026-04-24T08:50:24.996Z</time></trkpt><trkpt lat="45.12754495344934" lon="9.119390364426465"><ele>62.66666666666667</ele><time>2026-04-24T08:50:25.996Z</time></trkpt><trkpt lat="45.127721904184455" lon="9.119397951803412"><ele>62.333333333333336</ele><time>2026-04-24T08:50:26.996Z</time></trkpt><trkpt lat="45.127870390639764" lon="9.119404382268618"><ele>62.0</ele><time>2026-04-24T08:50:27.996Z</time></trkpt><trkpt lat="45.128037346196635" lon="9.119411701031972"><ele>62.0</ele><time>2026-04-24T08:50:28.996Z</time></trkpt><trkpt lat="45.12818844716289" lon="9.119418324777056"><ele>62.0</ele><time>2026-04-24T08:50:29.996Z</time></trkpt><trkpt lat="45.12833809606748" lon="9.11942366918633"><ele>62.0</ele><time>2026-04-24T08:50:30.996Z</time></trkpt><trkpt lat="45.128494533543765" lon="9.119423945697624"><ele>62.25</ele><time>2026-04-24T08:50:31.996Z</time></trkpt><trkpt lat="45.12864258007593" lon="9.119414271675886"><ele>62.5</ele><time>2026-04-24T08:50:32.996Z</time></trkpt><trkpt lat="45.1287825718926" lon="9.119440277799558"><ele>62.75</ele><time>2026-04-24T08:50:33.996Z</time></trkpt><trkpt lat="45.12889827815364" lon="9.11944585971457"><ele>63.0</ele><time>2026-04-24T08:50:34.996Z</time></trkpt><trkpt lat="45.12906324811547" lon="9.119439224981923"><ele>63.0</ele><time>2026-04-24T08:50:35.996Z</time></trkpt><trkpt lat="45.12919832649904" lon="9.11944631535626"><ele>63.0</ele><time>2026-04-24T08:50:36.996Z</time></trkpt><trkpt lat="45.12934240243971" lon="9.119458108832845"><ele>63.0</ele><time>2026-04-24T08:50:37.996Z</time></trkpt><trkpt lat="45.12948958548039" lon="9.119469586067954"><ele>63.0</ele><time>2026-04-24T08:50:38.996Z</time></trkpt><trkpt lat="45.12963305249016" lon="9.11948256055955"><ele>63.0</ele><time>2026-04-24T08:50:39.996Z</time></trkpt><trkpt lat="45.12979109408705" lon="9.119492054566996"><ele>63.0</ele><time>2026-04-24T08:50:40.996Z</time></trkpt><trkpt lat="45.12993978263628" lon="9.119478447412682"><ele>63.0</ele><time>2026-04-24T08:50:41.996Z</time></trkpt><trkpt lat="45.13009320289687" lon="9.1194997383911"><ele>62.66666666666667</ele><time>2026-04-24T08:50:42.996Z</time></trkpt><trkpt lat="45.13023926316927" lon="9.119498598333312"><ele>62.333333333333336</ele><time>2026-04-24T08:50:43.996Z</time></trkpt><trkpt lat="45.13038656071475" lon="9.11951151635166"><ele>62.0</ele><time>2026-04-24T08:50:44.996Z</time></trkpt><trkpt lat="45.13054691638044" lon="9.119547051922838"><ele>62.0</ele><time>2026-04-24T08:50:45.996Z</time></trkpt><trkpt lat="45.130702393857206" lon="9.11951616969968"><ele>62.0</ele><time>2026-04-24T08:50:46.996Z</time></trkpt><trkpt lat="45.13085338007058" lon="9.119538259730051"><ele>62.0</ele><time>2026-04-24T08:50:47.996Z</time></trkpt><trkpt lat="45.131002001772856" lon="9.119490299641441"><ele>62.0</ele><time>2026-04-24T08:50:48.996Z</time></trkpt><trkpt lat="45.13115810622627" lon="9.11952148506816"><ele>62.0</ele><time>2026-04-24T08:50:49.996Z</time></trkpt><trkpt lat="45.13131897393844" lon="9.11952374500723"><ele>62.0</ele><time>2026-04-24T08:50:50.996Z</time></trkpt><trkpt lat="45.13146190924803" lon="9.119550350273721"><ele>61.5</ele><time>2026-04-24T08:50:51.996Z</time></trkpt><trkpt lat="45.131604035668765" lon="9.11955706329399"><ele>61.0</ele><time>2026-04-24T08:50:52.996Z</time></trkpt><trkpt lat="45.13175224829495" lon="9.119564242757061"><ele>60.5</ele><time>2026-04-24T08:50:53.996Z</time></trkpt><trkpt lat="45.13188150895289" lon="9.119547961328431"><ele>60.0</ele><time>2026-04-24T08:50:54.996Z</time></trkpt><trkpt lat="45.132000991775946" lon="9.119557888223746"><ele>60.0</ele><time>2026-04-24T08:50:55.996Z</time></trkpt><trkpt lat="45.13212526023824" lon="9.11958003103873"><ele>60.0</ele><time>2026-04-24T08:50:56.996Z</time></trkpt><trkpt lat="45.13223530966734" lon="9.119573199302947"><ele>60.0</ele><time>2026-04-24T08:50:57.996Z</time></trkpt><trkpt lat="45.132352141019005" lon="9.119592924660244"><ele>60.0</ele><time>2026-04-24T08:50:58.996Z</time></trkpt><trkpt lat="45.13246915283435" lon="9.119596645200916"><ele>60.5</ele><time>2026-04-24T08:50:59.996Z</time></trkpt><trkpt lat="45.13260289751523" lon="9.119590556724525"><ele>61.0</ele><time>2026-04-24T08:51:00.996Z</time></trkpt><trkpt lat="45.13273375569469" lon="9.119605177039015"><ele>61.5</ele><time>2026-04-24T08:51:01.996Z</time></trkpt><trkpt lat="45.132847196074074" lon="9.119629572575983"><ele>62.0</ele><time>2026-04-24T08:51:02.996Z</time></trkpt><trkpt lat="45.132972678007285" lon="9.119632607354092"><ele>62.0</ele><time>2026-04-24T08:51:03.996Z</time></trkpt><trkpt lat="45.133084334201556" lon="9.119627706208382"><ele>62.0</ele><time>2026-04-24T08:51:04.996Z</time></trkpt><trkpt lat="45.13321329034704" lon="9.119630298913032"><ele>62.0</ele><time>2026-04-24T08:51:05.996Z</time></trkpt><trkpt lat="45.13333930235859" lon="9.119617416421356"><ele>62.0</ele><time>2026-04-24T08:51:06.996Z</time></trkpt><trkpt lat="45.133463150839276" lon="9.119640473136952"><ele>62.25</ele><time>2026-04-24T08:51:07.996Z</time></trkpt><trkpt lat="45.133586632927944" lon="9.119646907043792"><ele>62.5</ele><time>2026-04-24T08:51:08.996Z</time></trkpt><trkpt lat="45.133707417173795" lon="9.11966092521796"><ele>62.75</ele><time>2026-04-24T08:51:09.996Z</time></trkpt><trkpt lat="45.133842639022504" lon="9.119658258294608"><ele>63.0</ele><time>2026-04-24T08:51:10.996Z</time></trkpt><trkpt lat="45.13398020459859" lon="9.119674657162847"><ele>62.5</ele><time>2026-04-24T08:51:11.996Z</time></trkpt><trkpt lat="45.13408999073136" lon="9.1196773290432"><ele>62.0</ele><time>2026-04-24T08:51:12.996Z</time></trkpt><trkpt lat="45.13422187973851" lon="9.119673181944739"><ele>61.5</ele><time>2026-04-24T08:51:13.996Z</time></trkpt><trkpt lat="45.13434167026959" lon="9.119677621306147"><ele>61.0</ele><time>2026-04-24T08:51:14.996Z</time></trkpt><trkpt lat="45.13446478224283" lon="9.119640358072166"><ele>61.0</ele><time>2026-04-24T08:51:15.996Z</time></trkpt><trkpt lat="45.13458350008726" lon="9.119673112878122"><ele>61.0</ele><time>2026-04-24T08:51:16.996Z</time></trkpt><trkpt lat="45.13471298785111" lon="9.119696868412035"><ele>61.0</ele><time>2026-04-24T08:51:17.996Z</time></trkpt><trkpt lat="45.13483615489029" lon="9.119695849658903"><ele>61.0</ele><time>2026-04-24T08:51:18.996Z</time></trkpt><trkpt lat="45.13495691013243" lon="9.119685197840644"><ele>61.199999999999996</ele><time>2026-04-24T08:51:19.996Z</time></trkpt><trkpt lat="45.13506094909976" lon="9.119710064176909"><ele>61.39999999999999</ele><time>2026-04-24T08:51:20.996Z</time></trkpt><trkpt lat="45.13516286056594" lon="9.119715262588006"><ele>61.6</ele><time>2026-04-24T08:51:21.996Z</time></trkpt><trkpt lat="45.13525363308858" lon="9.119719713622318"><ele>61.8</ele><time>2026-04-24T08:51:23Z</time></trkpt><trkpt lat="45.13533730493585" lon="9.119723816452591"><ele>62.0</ele><time>2026-04-24T08:51:24Z</time></trkpt><trkpt lat="45.13543150941093" lon="9.11973101257655"><ele>62.0</ele><time>2026-04-24T08:51:25Z</time></trkpt><trkpt lat="45.13552486816744" lon="9.119737432169567"><ele>62.0</ele><time>2026-04-24T08:51:26Z</time></trkpt><trkpt lat="45.13564431244401" lon="9.119681117075118"><ele>62.0</ele><time>2026-04-24T08:51:27Z</time></trkpt><trkpt lat="45.135752345428244" lon="9.119687742480943"><ele>62.0</ele><time>2026-04-24T08:51:28Z</time></trkpt><trkpt lat="45.13584879469072" lon="9.119706441117618"><ele>62.0</ele><time>2026-04-24T08:51:29Z</time></trkpt><trkpt lat="45.13594780450635" lon="9.119730092008638"><ele>62.2</ele><time>2026-04-24T08:51:30Z</time></trkpt><trkpt lat="45.13604493909959" lon="9.119718805845839"><ele>62.400000000000006</ele><time>2026-04-24T08:51:31Z</time></trkpt><trkpt lat="45.13615567949782" lon="9.11972510735761"><ele>62.599999999999994</ele><time>2026-04-24T08:51:32Z</time></trkpt><trkpt lat="45.13622154425012" lon="9.11977209651852"><ele>62.8</ele><time>2026-04-24T08:51:33Z</time></trkpt><trkpt lat="45.13631391384839" lon="9.119773588738878"><ele>63.0</ele><time>2026-04-24T08:51:34Z</time></trkpt><trkpt lat="45.13640073352762" lon="9.119774991300726"><ele>63.0</ele><time>2026-04-24T08:51:35Z</time></trkpt><trkpt lat="45.136495776627044" lon="9.119756510389877"><ele>63.0</ele><time>2026-04-24T08:51:36Z</time></trkpt><trkpt lat="45.13658506811804" lon="9.119765173836239"><ele>63.0</ele><time>2026-04-24T08:51:37Z</time></trkpt><trkpt lat="45.136660477204536" lon="9.119780030818779"><ele>63.0</ele><time>2026-04-24T08:51:38Z</time></trkpt><trkpt lat="45.136768080975564" lon="9.119782452073698"><ele>63.0</ele><time>2026-04-24T08:51:39Z</time></trkpt><trkpt lat="45.13685168232911" lon="9.119784472840273"><ele>62.599999999999994</ele><time>2026-04-24T08:51:40Z</time></trkpt><trkpt lat="45.13695238975883" lon="9.119787277129477"><ele>62.199999999999996</ele><time>2026-04-24T08:51:41Z</time></trkpt><trkpt lat="45.13704848006154" lon="9.119789952849686"><ele>61.8</ele><time>2026-04-24T08:51:42Z</time></trkpt><trkpt lat="45.13716547290495" lon="9.119793210621186"><ele>61.4</ele><time>2026-04-24T08:51:43Z</time></trkpt><trkpt lat="45.137268531169205" lon="9.119796080370302"><ele>61.0</ele><time>2026-04-24T08:51:44Z</time></trkpt><trkpt lat="45.13739947668278" lon="9.119799726643494"><ele>60.75</ele><time>2026-04-24T08:51:45Z</time></trkpt><trkpt lat="45.137508051854155" lon="9.119803283223957"><ele>60.5</ele><time>2026-04-24T08:51:46Z</time></trkpt><trkpt lat="45.13761635815665" lon="9.119826638694946"><ele>60.25</ele><time>2026-04-24T08:51:47Z</time></trkpt><trkpt lat="45.13773026772648" lon="9.119837582339704"><ele>60.0</ele><time>2026-04-24T08:51:48Z</time></trkpt><trkpt lat="45.13784783984825" lon="9.119859325501425"><ele>60.0</ele><time>2026-04-24T08:51:49Z</time></trkpt><trkpt lat="45.13797170831188" lon="9.119867025842726"><ele>60.0</ele><time>2026-04-24T08:51:50Z</time></trkpt><trkpt lat="45.13809350512149" lon="9.119832373430892"><ele>60.0</ele><time>2026-04-24T08:51:51Z</time></trkpt><trkpt lat="45.13822708020093" lon="9.119834013643949"><ele>60.0</ele><time>2026-04-24T08:51:52Z</time></trkpt><trkpt lat="45.138359248388284" lon="9.119835046079608"><ele>60.5</ele><time>2026-04-24T08:51:53Z</time></trkpt><trkpt lat="45.13849020520992" lon="9.119855750277654"><ele>61.0</ele><time>2026-04-24T08:51:54Z</time></trkpt><trkpt lat="45.13861063838537" lon="9.119863440875315"><ele>61.5</ele><time>2026-04-24T08:51:55Z</time></trkpt><trkpt lat="45.13874400722869" lon="9.119870109632494"><ele>62.0</ele><time>2026-04-24T08:51:56Z</time></trkpt><trkpt lat="45.13887359419442" lon="9.119854020340004"><ele>62.0</ele><time>2026-04-24T08:51:57Z</time></trkpt><trkpt lat="45.13899233563156" lon="9.11985899324523"><ele>62.0</ele><time>2026-04-24T08:51:58Z</time></trkpt><trkpt lat="45.139105555363976" lon="9.119865448522692"><ele>62.0</ele><time>2026-04-24T08:51:59Z</time></trkpt><trkpt lat="45.13924314948185" lon="9.119895792248217"><ele>62.0</ele><time>2026-04-24T08:52:00Z</time></trkpt><trkpt lat="45.13937226979919" lon="9.11990697186126"><ele>62.0</ele><time>2026-04-24T08:52:01Z</time></trkpt><trkpt lat="45.13948193879628" lon="9.119892766208338"><ele>62.0</ele><time>2026-04-24T08:52:02Z</time></trkpt><trkpt lat="45.139582758977966" lon="9.119904240953364"><ele>62.0</ele><time>2026-04-24T08:52:03Z</time></trkpt><trkpt lat="45.13969196991269" lon="9.119908327236958"><ele>62.0</ele><time>2026-04-24T08:52:04Z</time></trkpt><trkpt lat="45.139807841109736" lon="9.11991301769094"><ele>62.0</ele><time>2026-04-24T08:52:05Z</time></trkpt><trkpt lat="45.13993687548669" lon="9.119918448823224"><ele>62.0</ele><time>2026-04-24T08:52:06Z</time></trkpt><trkpt lat="45.14005514869545" lon="9.119912519941165"><ele>62.0</ele><time>2026-04-24T08:52:07Z</time></trkpt><trkpt lat="45.140179692462205" lon="9.119912980263006"><ele>62.0</ele><time>2026-04-24T08:52:08Z</time></trkpt><trkpt lat="45.1403033428286" lon="9.119917845734799"><ele>62.0</ele><time>2026-04-24T08:52:09Z</time></trkpt><trkpt lat="45.140427163825116" lon="9.119928818211623"><ele>62.0</ele><time>2026-04-24T08:52:10Z</time></trkpt><trkpt lat="45.14053858455929" lon="9.119945067866455"><ele>62.0</ele><time>2026-04-24T08:52:11Z</time></trkpt><trkpt lat="45.140655313423515" lon="9.119938655283267"><ele>62.0</ele><time>2026-04-24T08:52:12Z</time></trkpt><trkpt lat="45.14076283277104" lon="9.11989723159011"><ele>62.0</ele><time>2026-04-24T08:52:13Z</time></trkpt><trkpt lat="45.14087846342696" lon="9.11994106192272"><ele>62.2</ele><time>2026-04-24T08:52:14Z</time></trkpt><trkpt lat="45.140982775493406" lon="9.119935387182915"><ele>62.400000000000006</ele><time>2026-04-24T08:52:15Z</time></trkpt><trkpt lat="45.14108078809935" lon="9.119963185662955"><ele>62.599999999999994</ele><time>2026-04-24T08:52:16Z</time></trkpt><trkpt lat="45.14120179733272" lon="9.120000378623109"><ele>62.8</ele><time>2026-04-24T08:52:17Z</time></trkpt><trkpt lat="45.1413014711416" lon="9.120013025337215"><ele>63.0</ele><time>2026-04-24T08:52:18Z</time></trkpt><trkpt lat="45.141414345467496" lon="9.12000872032105"><ele>63.0</ele><time>2026-04-24T08:52:19Z</time></trkpt><trkpt lat="45.14150036940608" lon="9.120041738905195"><ele>63.0</ele><time>2026-04-24T08:52:20Z</time></trkpt><trkpt lat="45.1416007677647" lon="9.120059408322277"><ele>63.0</ele><time>2026-04-24T08:52:21Z</time></trkpt><trkpt lat="45.141684123700266" lon="9.120075466956381"><ele>63.0</ele><time>2026-04-24T08:52:22Z</time></trkpt><trkpt lat="45.14176407772346" lon="9.12009145233741"><ele>63.0</ele><time>2026-04-24T08:52:22.999Z</time></trkpt><trkpt lat="45.1418320620014" lon="9.120092492304227"><ele>63.0</ele><time>2026-04-24T08:52:23.999Z</time></trkpt><trkpt lat="45.14191669089603" lon="9.120106056055043"><ele>63.0</ele><time>2026-04-24T08:52:25.999Z</time></trkpt><trkpt lat="45.1419789577945" lon="9.120173268960558"><ele>63.0</ele><time>2026-04-24T08:52:27.999Z</time></trkpt><trkpt lat="45.14205565733387" lon="9.120223174448505"><ele>63.0</ele><time>2026-04-24T08:52:31.999Z</time></trkpt><trkpt lat="45.142115290982304" lon="9.120263900932745"><ele>63.0</ele><time>2026-04-24T08:52:35.999Z</time></trkpt><trkpt lat="45.14216050027834" lon="9.120350171398334"><ele>63.0</ele><time>2026-04-24T08:52:37.999Z</time></trkpt><trkpt lat="45.14221586245589" lon="9.120414244558127"><ele>63.0</ele><time>2026-04-24T08:52:38.999Z</time></trkpt><trkpt lat="45.14228006896215" lon="9.120460855835073"><ele>63.0</ele><time>2026-04-24T08:52:39.999Z</time></trkpt><trkpt lat="45.142347456995196" lon="9.120429979389622"><ele>63.166666666666664</ele><time>2026-04-24T08:52:40.999Z</time></trkpt><trkpt lat="45.142431435019375" lon="9.120364168581036"><ele>63.33333333333333</ele><time>2026-04-24T08:52:41.999Z</time></trkpt><trkpt lat="45.14250280115119" lon="9.120307922368685"><ele>63.5</ele><time>2026-04-24T08:52:42.999Z</time></trkpt><trkpt lat="45.14257509729215" lon="9.120242494955518"><ele>63.666666666666664</ele><time>2026-04-24T08:52:43.999Z</time></trkpt><trkpt lat="45.1426454872855" lon="9.120201422245806"><ele>63.83333333333333</ele><time>2026-04-24T08:52:44.999Z</time></trkpt><trkpt lat="45.14273538489868" lon="9.120185266670779"><ele>64.0</ele><time>2026-04-24T08:52:45.999Z</time></trkpt><trkpt lat="45.14281082074337" lon="9.120165022074508"><ele>64.0</ele><time>2026-04-24T08:52:46.999Z</time></trkpt><trkpt lat="45.14289796204364" lon="9.120131871895222"><ele>64.0</ele><time>2026-04-24T08:52:47.999Z</time></trkpt><trkpt lat="45.14299734517974" lon="9.120129728373982"><ele>64.0</ele><time>2026-04-24T08:52:48.999Z</time></trkpt><trkpt lat="45.14311897233834" lon="9.120119266140568"><ele>64.0</ele><time>2026-04-24T08:52:49.999Z</time></trkpt><trkpt lat="45.14323119300328" lon="9.12010319435063"><ele>64.0</ele><time>2026-04-24T08:52:50.999Z</time></trkpt><trkpt lat="45.143346434703595" lon="9.12008305075554"><ele>63.800000000000004</ele><time>2026-04-24T08:52:51.999Z</time></trkpt><trkpt lat="45.143449182394455" lon="9.120073149205897"><ele>63.60000000000001</ele><time>2026-04-24T08:52:52.999Z</time></trkpt><trkpt lat="45.143546287994916" lon="9.120069739018836"><ele>63.4</ele><time>2026-04-24T08:52:53.999Z</time></trkpt><trkpt lat="45.14363459360307" lon="9.120062045301555"><ele>63.2</ele><time>2026-04-24T08:52:54.999Z</time></trkpt><trkpt lat="45.143721794816905" lon="9.120078832075816"><ele>63.0</ele><time>2026-04-24T08:52:55.999Z</time></trkpt><trkpt lat="45.143811395935046" lon="9.120080493692765"><ele>63.0</ele><time>2026-04-24T08:52:56.999Z</time></trkpt><trkpt lat="45.14389800522393" lon="9.120082153053689"><ele>63.0</ele><time>2026-04-24T08:52:57.999Z</time></trkpt><trkpt lat="45.14398343034598" lon="9.120084436777152"><ele>63.0</ele><time>2026-04-24T08:52:58.999Z</time></trkpt><trkpt lat="45.14406834849177" lon="9.120087186641252"><ele>63.0</ele><time>2026-04-24T08:52:59.999Z</time></trkpt><trkpt lat="45.14415950507212" lon="9.120090138523839"><ele>63.0</ele><time>2026-04-24T08:53:00.999Z</time></trkpt><trkpt lat="45.14425870236959" lon="9.120093350777971"><ele>63.0</ele><time>2026-04-24T08:53:01.999Z</time></trkpt><trkpt lat="45.144369828605136" lon="9.120096949324045"><ele>63.0</ele><time>2026-04-24T08:53:02.999Z</time></trkpt><trkpt lat="45.144490704640496" lon="9.120100863595201"><ele>63.0</ele><time>2026-04-24T08:53:03.999Z</time></trkpt><trkpt lat="45.144621348589084" lon="9.120105094177568"><ele>63.0</ele><time>2026-04-24T08:53:04.999Z</time></trkpt><trkpt lat="45.14475678873249" lon="9.120089381959783"><ele>63.0</ele><time>2026-04-24T08:53:05.999Z</time></trkpt><trkpt lat="45.14490283674665" lon="9.120100149698926"><ele>63.0</ele><time>2026-04-24T08:53:06.999Z</time></trkpt><trkpt lat="45.14505591043558" lon="9.120106415202779"><ele>63.0</ele><time>2026-04-24T08:53:07.999Z</time></trkpt><trkpt lat="45.14521924660598" lon="9.12011356445336"><ele>63.0</ele><time>2026-04-24T08:53:08.999Z</time></trkpt><trkpt lat="45.145395550974406" lon="9.120123366350718"><ele>63.0</ele><time>2026-04-24T08:53:09.999Z</time></trkpt><trkpt lat="45.1455787274357" lon="9.120136197721857"><ele>63.0</ele><time>2026-04-24T08:53:10.999Z</time></trkpt><trkpt lat="45.1457488309536" lon="9.120140164736616"><ele>63.0</ele><time>2026-04-24T08:53:11.999Z</time></trkpt><trkpt lat="45.145901802928826" lon="9.120150285044126"><ele>62.75</ele><time>2026-04-24T08:53:12.999Z</time></trkpt><trkpt lat="45.14605340655535" lon="9.120157384274874"><ele>62.5</ele><time>2026-04-24T08:53:13.999Z</time></trkpt><trkpt lat="45.14619809561683" lon="9.120164159708198"><ele>62.25</ele><time>2026-04-24T08:53:14.999Z</time></trkpt><trkpt lat="45.14633731582224" lon="9.12017067904997"><ele>62.0</ele><time>2026-04-24T08:53:15.999Z</time></trkpt><trkpt lat="45.14646386790661" lon="9.120171275720919"><ele>61.8</ele><time>2026-04-24T08:53:16.999Z</time></trkpt><trkpt lat="45.14655414483368" lon="9.120159718331948"><ele>61.6</ele><time>2026-04-24T08:53:17.999Z</time></trkpt><trkpt lat="45.14664424692138" lon="9.12023724908849"><ele>61.39999999999999</ele><time>2026-04-24T08:53:18.999Z</time></trkpt><trkpt lat="45.14676338393629" lon="9.120247997079378"><ele>61.199999999999996</ele><time>2026-04-24T08:53:19.999Z</time></trkpt><trkpt lat="45.14682782488922" lon="9.120315101181419"><ele>61.0</ele><time>2026-04-24T08:53:20.999Z</time></trkpt><trkpt lat="45.14695681933727" lon="9.120264313130525"><ele>61.0</ele><time>2026-04-24T08:53:22.999Z</time></trkpt><trkpt lat="45.14705300645004" lon="9.12023224095048"><ele>60.99999999999999</ele><time>2026-04-24T08:53:23.999Z</time></trkpt><trkpt lat="45.147156169758595" lon="9.120227015961442"><ele>60.99999999999999</ele><time>2026-04-24T08:53:24.999Z</time></trkpt><trkpt lat="45.14727282329599" lon="9.120240068654173"><ele>61.0</ele><time>2026-04-24T08:53:25.999Z</time></trkpt><trkpt lat="45.14739279585459" lon="9.120240844651054"><ele>61.0</ele><time>2026-04-24T08:53:26.999Z</time></trkpt><trkpt lat="45.14751125249444" lon="9.120246242904182"><ele>60.5</ele><time>2026-04-24T08:53:27.999Z</time></trkpt><trkpt lat="45.14763766822377" lon="9.120219630294983"><ele>60.0</ele><time>2026-04-24T08:53:28.999Z</time></trkpt><trkpt lat="45.14777767444274" lon="9.120264927343356"><ele>59.5</ele><time>2026-04-24T08:53:29.999Z</time></trkpt><trkpt lat="45.14791755855094" lon="9.120274067694561"><ele>59.0</ele><time>2026-04-24T08:53:30.999Z</time></trkpt><trkpt lat="45.14807161657204" lon="9.12021474734404"><ele>59.25</ele><time>2026-04-24T08:53:31.999Z</time></trkpt><trkpt lat="45.148225119731165" lon="9.12022952393362"><ele>59.5</ele><time>2026-04-24T08:53:32.999Z</time></trkpt><trkpt lat="45.1483482446298" lon="9.120231199086378"><ele>59.75</ele><time>2026-04-24T08:53:33.999Z</time></trkpt><trkpt lat="45.148481401982956" lon="9.12023744266776"><ele>60.0</ele><time>2026-04-24T08:53:34.999Z</time></trkpt><trkpt lat="45.148616498687986" lon="9.120235708750487"><ele>60.0</ele><time>2026-04-24T08:53:35.999Z</time></trkpt><trkpt lat="45.14874863904333" lon="9.12025171287831"><ele>60.0</ele><time>2026-04-24T08:53:36.999Z</time></trkpt><trkpt lat="45.148876096524354" lon="9.120253887341505"><ele>60.0</ele><time>2026-04-24T08:53:37.999Z</time></trkpt><trkpt lat="45.149014315025646" lon="9.120258985595434"><ele>60.0</ele><time>2026-04-24T08:53:38.999Z</time></trkpt><trkpt lat="45.14916433863168" lon="9.120264593977053"><ele>60.0</ele><time>2026-04-24T08:53:39.999Z</time></trkpt><trkpt lat="45.14929400015358" lon="9.120270919954724"><ele>60.0</ele><time>2026-04-24T08:53:40.999Z</time></trkpt><trkpt lat="45.149425261139456" lon="9.120277323986457"><ele>60.0</ele><time>2026-04-24T08:53:41.999Z</time></trkpt><trkpt lat="45.149556377707256" lon="9.120283720965531"><ele>60.0</ele><time>2026-04-24T08:53:42.999Z</time></trkpt><trkpt lat="45.14971692854225" lon="9.120276387095274"><ele>60.0</ele><time>2026-04-24T08:53:43.999Z</time></trkpt><trkpt lat="45.14983898730482" lon="9.120287136603887"><ele>60.0</ele><time>2026-04-24T08:53:44.999Z</time></trkpt><trkpt lat="45.14996391626229" lon="9.12031677426003"><ele>60.0</ele><time>2026-04-24T08:53:45.999Z</time></trkpt><trkpt lat="45.15010694462882" lon="9.120333636111067"><ele>60.0</ele><time>2026-04-24T08:53:46.999Z</time></trkpt><trkpt lat="45.15023751799139" lon="9.120369757389023"><ele>60.25</ele><time>2026-04-24T08:53:47.998Z</time></trkpt><trkpt lat="45.150382962052106" lon="9.120407931712887"><ele>60.5</ele><time>2026-04-24T08:53:48.998Z</time></trkpt><trkpt lat="45.150504875132164" lon="9.120443742498706"><ele>60.75</ele><time>2026-04-24T08:53:49.998Z</time></trkpt><trkpt lat="45.15062591068704" lon="9.120484850293977"><ele>61.0</ele><time>2026-04-24T08:53:50.998Z</time></trkpt><trkpt lat="45.15073652790963" lon="9.120528332666389"><ele>61.0</ele><time>2026-04-24T08:53:51.998Z</time></trkpt><trkpt lat="45.15085352219215" lon="9.120576186025264"><ele>61.0</ele><time>2026-04-24T08:53:52.998Z</time></trkpt><trkpt lat="45.150969323489" lon="9.120629939447845"><ele>61.0</ele><time>2026-04-24T08:53:53.998Z</time></trkpt><trkpt lat="45.151087214411284" lon="9.120690561899057"><ele>61.0</ele><time>2026-04-24T08:53:54.998Z</time></trkpt><trkpt lat="45.15121599705541" lon="9.12073732043377"><ele>61.5</ele><time>2026-04-24T08:53:55.998Z</time></trkpt><trkpt lat="45.15131886782249" lon="9.120819906141037"><ele>62.0</ele><time>2026-04-24T08:53:56.998Z</time></trkpt><trkpt lat="45.15143431005393" lon="9.120894938526183"><ele>62.5</ele><time>2026-04-24T08:53:57.998Z</time></trkpt><trkpt lat="45.15154298844528" lon="9.120965488528025"><ele>63.0</ele><time>2026-04-24T08:53:58.998Z</time></trkpt><trkpt lat="45.15164573450621" lon="9.121072410167663"><ele>63.0</ele><time>2026-04-24T08:53:59.998Z</time></trkpt><trkpt lat="45.15173421999404" lon="9.121144297999022"><ele>63.0</ele><time>2026-04-24T08:54:00.998Z</time></trkpt><trkpt lat="45.1518262688565" lon="9.121239596872174"><ele>63.0</ele><time>2026-04-24T08:54:01.998Z</time></trkpt><trkpt lat="45.15193548230522" lon="9.121339239472231"><ele>63.0</ele><time>2026-04-24T08:54:02.998Z</time></trkpt><trkpt lat="45.152051121772445" lon="9.121424933302714"><ele>63.0</ele><time>2026-04-24T08:54:03.998Z</time></trkpt><trkpt lat="45.15214560425699" lon="9.121546946778523"><ele>63.0</ele><time>2026-04-24T08:54:04.998Z</time></trkpt><trkpt lat="45.152235452928615" lon="9.121676598467017"><ele>63.0</ele><time>2026-04-24T08:54:05.998Z</time></trkpt><trkpt lat="45.152337814716056" lon="9.121807528225261"><ele>63.0</ele><time>2026-04-24T08:54:06.998Z</time></trkpt><trkpt lat="45.1524441140831" lon="9.12194104620882"><ele>63.0</ele><time>2026-04-24T08:54:07.998Z</time></trkpt><trkpt lat="45.15255298493778" lon="9.122080134100427"><ele>63.0</ele><time>2026-04-24T08:54:08.998Z</time></trkpt><trkpt lat="45.1526810134929" lon="9.122200635663262"><ele>63.0</ele><time>2026-04-24T08:54:09.998Z</time></trkpt><trkpt lat="45.15278412480895" lon="9.122334601154675"><ele>63.0</ele><time>2026-04-24T08:54:10.998Z</time></trkpt><trkpt lat="45.15288151436545" lon="9.122479761957582"><ele>63.0</ele><time>2026-04-24T08:54:11.998Z</time></trkpt><trkpt lat="45.15298069783685" lon="9.122608473231717"><ele>63.0</ele><time>2026-04-24T08:54:12.998Z</time></trkpt><trkpt lat="45.15307261619942" lon="9.122743941099843"><ele>63.0</ele><time>2026-04-24T08:54:13.998Z</time></trkpt><trkpt lat="45.1531720118063" lon="9.122850816843847"><ele>63.0</ele><time>2026-04-24T08:54:14.998Z</time></trkpt><trkpt lat="45.15328473083696" lon="9.122965050031695"><ele>62.25</ele><time>2026-04-24T08:54:15.998Z</time></trkpt><trkpt lat="45.15340856849147" lon="9.123053438912656"><ele>61.5</ele><time>2026-04-24T08:54:16.998Z</time></trkpt><trkpt lat="45.15355973383449" lon="9.123112375512259"><ele>60.75</ele><time>2026-04-24T08:54:17.998Z</time></trkpt><trkpt lat="45.15367814013589" lon="9.123233388486415"><ele>60.0</ele><time>2026-04-24T08:54:18.998Z</time></trkpt><trkpt lat="45.15382238578118" lon="9.123336388614009"><ele>60.0</ele><time>2026-04-24T08:54:19.998Z</time></trkpt><trkpt lat="45.15395118035224" lon="9.123417400990954"><ele>60.0</ele><time>2026-04-24T08:54:20.998Z</time></trkpt><trkpt lat="45.15405153825641" lon="9.123479856669206"><ele>60.0</ele><time>2026-04-24T08:54:21.998Z</time></trkpt><trkpt lat="45.154137889376635" lon="9.123555014320242"><ele>60.0</ele><time>2026-04-24T08:54:22.998Z</time></trkpt><trkpt lat="45.154210848760485" lon="9.123636633091714"><ele>60.0</ele><time>2026-04-24T08:54:23.998Z</time></trkpt><trkpt lat="45.15429980011816" lon="9.12365494021928"><ele>60.333333333333336</ele><time>2026-04-24T08:54:24.998Z</time></trkpt><trkpt lat="45.15435407924181" lon="9.123703542192645"><ele>60.66666666666667</ele><time>2026-04-24T08:54:25.998Z</time></trkpt><trkpt lat="45.15439865082711" lon="9.12382782644885"><ele>61.0</ele><time>2026-04-24T08:54:27.998Z</time></trkpt><trkpt lat="45.15441791714668" lon="9.123924331039047"><ele>61.333333333333336</ele><time>2026-04-24T08:54:28.998Z</time></trkpt><trkpt lat="45.15447392532531" lon="9.124033796424783"><ele>61.66666666666667</ele><time>2026-04-24T08:54:29.998Z</time></trkpt><trkpt lat="45.154529298960085" lon="9.124140684310406"><ele>62.0</ele><time>2026-04-24T08:54:30.998Z</time></trkpt><trkpt lat="45.15459260850484" lon="9.124234786129058"><ele>62.0</ele><time>2026-04-24T08:54:31.998Z</time></trkpt><trkpt lat="45.15468390523726" lon="9.124284180953754"><ele>62.0</ele><time>2026-04-24T08:54:32.998Z</time></trkpt><trkpt lat="45.15476856938834" lon="9.124319309522635"><ele>62.0</ele><time>2026-04-24T08:54:33.998Z</time></trkpt><trkpt lat="45.15482294860334" lon="9.124432062576071"><ele>62.0</ele><time>2026-04-24T08:54:34.998Z</time></trkpt><trkpt lat="45.15491083546158" lon="9.124496783867475"><ele>62.0</ele><time>2026-04-24T08:54:35.998Z</time></trkpt><trkpt lat="45.154958491305415" lon="9.124625036375717"><ele>62.0</ele><time>2026-04-24T08:54:36.998Z</time></trkpt><trkpt lat="45.155036104081134" lon="9.124730776227034"><ele>62.0</ele><time>2026-04-24T08:54:37.998Z</time></trkpt><trkpt lat="45.155050358697565" lon="9.124938443082739"><ele>62.0</ele><time>2026-04-24T08:54:38.998Z</time></trkpt><trkpt lat="45.155092192208905" lon="9.125120814766257"><ele>62.0</ele><time>2026-04-24T08:54:39.998Z</time></trkpt><trkpt lat="45.155175994503274" lon="9.12527053098251"><ele>62.0</ele><time>2026-04-24T08:54:40.998Z</time></trkpt><trkpt lat="45.15527425487366" lon="9.125405912401064"><ele>62.0</ele><time>2026-04-24T08:54:41.998Z</time></trkpt><trkpt lat="45.155365028627855" lon="9.125539416571435"><ele>62.0</ele><time>2026-04-24T08:54:42.998Z</time></trkpt><trkpt lat="45.15547108186327" lon="9.125656845599154"><ele>62.0</ele><time>2026-04-24T08:54:43.998Z</time></trkpt><trkpt lat="45.155567678513556" lon="9.125792730933949"><ele>61.5</ele><time>2026-04-24T08:54:44.998Z</time></trkpt><trkpt lat="45.15566694341616" lon="9.125925461183193"><ele>61.0</ele><time>2026-04-24T08:54:45.998Z</time></trkpt><trkpt lat="45.15576697943229" lon="9.126064611329012"><ele>60.5</ele><time>2026-04-24T08:54:46.998Z</time></trkpt><trkpt lat="45.155866422921235" lon="9.12618184512321"><ele>60.0</ele><time>2026-04-24T08:54:47.998Z</time></trkpt><trkpt lat="45.155963034362415" lon="9.12630799148327"><ele>60.0</ele><time>2026-04-24T08:54:48.998Z</time></trkpt><trkpt lat="45.15606808702306" lon="9.126421045626358"><ele>60.0</ele><time>2026-04-24T08:54:49.998Z</time></trkpt><trkpt lat="45.15617565213354" lon="9.126555792206233"><ele>60.0</ele><time>2026-04-24T08:54:50.998Z</time></trkpt><trkpt lat="45.156281720472315" lon="9.126692483539458"><ele>60.0</ele><time>2026-04-24T08:54:51.998Z</time></trkpt><trkpt lat="45.156397576642455" lon="9.126833068979241"><ele>60.0</ele><time>2026-04-24T08:54:52.998Z</time></trkpt><trkpt lat="45.156515514622825" lon="9.126971041487824"><ele>60.0</ele><time>2026-04-24T08:54:53.998Z</time></trkpt><trkpt lat="45.15662719264311" lon="9.127117628968932"><ele>60.0</ele><time>2026-04-24T08:54:54.998Z</time></trkpt><trkpt lat="45.15673840671786" lon="9.127266925480521"><ele>60.25</ele><time>2026-04-24T08:54:55.998Z</time></trkpt><trkpt lat="45.15685502734666" lon="9.12739105132004"><ele>60.5</ele><time>2026-04-24T08:54:56.998Z</time></trkpt><trkpt lat="45.156966825578024" lon="9.127513978969953"><ele>60.75</ele><time>2026-04-24T08:54:57.998Z</time></trkpt><trkpt lat="45.157057003617844" lon="9.127642438918421"><ele>61.0</ele><time>2026-04-24T08:54:58.998Z</time></trkpt><trkpt lat="45.15716643859062" lon="9.127750147667397"><ele>61.0</ele><time>2026-04-24T08:54:59.998Z</time></trkpt><trkpt lat="45.157237887178056" lon="9.127871530157522"><ele>60.99999999999999</ele><time>2026-04-24T08:55:00.998Z</time></trkpt><trkpt lat="45.157308497236656" lon="9.127991257410114"><ele>60.99999999999999</ele><time>2026-04-24T08:55:01.998Z</time></trkpt><trkpt lat="45.1573692228376" lon="9.128102092990618"><ele>61.0</ele><time>2026-04-24T08:55:02.998Z</time></trkpt><trkpt lat="45.15744460725975" lon="9.12818775392382"><ele>61.0</ele><time>2026-04-24T08:55:03.998Z</time></trkpt><trkpt lat="45.157516781212266" lon="9.12825955686968"><ele>61.0</ele><time>2026-04-24T08:55:04.998Z</time></trkpt><trkpt lat="45.15758002188893" lon="9.128339920511616"><ele>60.99999999999999</ele><time>2026-04-24T08:55:05.998Z</time></trkpt><trkpt lat="45.15765129449787" lon="9.128414518582517"><ele>60.99999999999999</ele><time>2026-04-24T08:55:06.998Z</time></trkpt><trkpt lat="45.15772409521039" lon="9.128499567069095"><ele>61.0</ele><time>2026-04-24T08:55:07.998Z</time></trkpt><trkpt lat="45.15779082990798" lon="9.128608619608647"><ele>61.0</ele><time>2026-04-24T08:55:08.998Z</time></trkpt><trkpt lat="45.15786396742526" lon="9.128697195396992"><ele>61.0</ele><time>2026-04-24T08:55:09.998Z</time></trkpt><trkpt lat="45.15793219237376" lon="9.128785518005113"><ele>60.99999999999999</ele><time>2026-04-24T08:55:10.998Z</time></trkpt><trkpt lat="45.1580081460864" lon="9.128879268005125"><ele>60.99999999999999</ele><time>2026-04-24T08:55:11.998Z</time></trkpt><trkpt lat="45.15808509777122" lon="9.128974953976089"><ele>61.0</ele><time>2026-04-24T08:55:12.997Z</time></trkpt><trkpt lat="45.15817747379235" lon="9.129089415714267"><ele>61.0</ele><time>2026-04-24T08:55:13.997Z</time></trkpt><trkpt lat="45.158260843066074" lon="9.129194441015207"><ele>60.8</ele><time>2026-04-24T08:55:14.997Z</time></trkpt><trkpt lat="45.15833361431991" lon="9.129286115746293"><ele>60.599999999999994</ele><time>2026-04-24T08:55:15.997Z</time></trkpt><trkpt lat="45.158399376992705" lon="9.129368520015825"><ele>60.4</ele><time>2026-04-24T08:55:16.997Z</time></trkpt><trkpt lat="45.15845671662259" lon="9.129440404091877"><ele>60.2</ele><time>2026-04-24T08:55:17.997Z</time></trkpt><trkpt lat="45.158505931331824" lon="9.129502102610608"><ele>60.0</ele><time>2026-04-24T08:55:18.997Z</time></trkpt><trkpt lat="45.15859634585177" lon="9.12963608912924"><ele>60.0</ele><time>2026-04-24T08:55:20.997Z</time></trkpt><trkpt lat="45.15866527449224" lon="9.129685320463468"><ele>60.0</ele><time>2026-04-24T08:55:21.997Z</time></trkpt><trkpt lat="45.15871775907391" lon="9.12976819428987"><ele>60.0</ele><time>2026-04-24T08:55:22.997Z</time></trkpt><trkpt lat="45.158802493780854" lon="9.129874823382668"><ele>60.0</ele><time>2026-04-24T08:55:23.997Z</time></trkpt><trkpt lat="45.15887645658977" lon="9.129967373732036"><ele>60.0</ele><time>2026-04-24T08:55:24.997Z</time></trkpt><trkpt lat="45.158950370240746" lon="9.130059862528967"><ele>60.6</ele><time>2026-04-24T08:55:25.997Z</time></trkpt><trkpt lat="45.159027069271524" lon="9.130155839191358"><ele>61.2</ele><time>2026-04-24T08:55:26.997Z</time></trkpt><trkpt lat="45.159097968269336" lon="9.130257273105595"><ele>61.8</ele><time>2026-04-24T08:55:27.997Z</time></trkpt><trkpt lat="45.15916386096812" lon="9.130349556608945"><ele>62.4</ele><time>2026-04-24T08:55:28.997Z</time></trkpt><trkpt lat="45.15924470251821" lon="9.130416641418508"><ele>63.0</ele><time>2026-04-24T08:55:29.997Z</time></trkpt><trkpt lat="45.15932144025346" lon="9.130506487799424"><ele>63.2</ele><time>2026-04-24T08:55:30.997Z</time></trkpt><trkpt lat="45.15939669921707" lon="9.130596043864156"><ele>63.4</ele><time>2026-04-24T08:55:31.997Z</time></trkpt><trkpt lat="45.15946128711437" lon="9.130685297820483"><ele>63.60000000000001</ele><time>2026-04-24T08:55:32.997Z</time></trkpt><trkpt lat="45.159523736928804" lon="9.1307783070664"><ele>63.800000000000004</ele><time>2026-04-24T08:55:33.997Z</time></trkpt><trkpt lat="45.15958781035776" lon="9.130863422217262"><ele>64.0</ele><time>2026-04-24T08:55:34.997Z</time></trkpt><trkpt lat="45.1596526260057" lon="9.130970528894647"><ele>64.0</ele><time>2026-04-24T08:55:35.997Z</time></trkpt><trkpt lat="45.15974518659392" lon="9.131066513144782"><ele>64.0</ele><time>2026-04-24T08:55:36.997Z</time></trkpt><trkpt lat="45.15982465895611" lon="9.13116904950268"><ele>64.0</ele><time>2026-04-24T08:55:37.997Z</time></trkpt><trkpt lat="45.15990504326091" lon="9.131273396381383"><ele>64.0</ele><time>2026-04-24T08:55:38.997Z</time></trkpt><trkpt lat="45.15996285421703" lon="9.131363978281387"><ele>64.0</ele><time>2026-04-24T08:55:39.997Z</time></trkpt><trkpt lat="45.160042587860055" lon="9.131477175483253"><ele>63.800000000000004</ele><time>2026-04-24T08:55:40.997Z</time></trkpt><trkpt lat="45.16012803798275" lon="9.131557603402772"><ele>63.60000000000001</ele><time>2026-04-24T08:55:41.997Z</time></trkpt><trkpt lat="45.16020049306142" lon="9.13164941750884"><ele>63.4</ele><time>2026-04-24T08:55:42.997Z</time></trkpt><trkpt lat="45.16026220131097" lon="9.131727613507575"><ele>63.2</ele><time>2026-04-24T08:55:43.997Z</time></trkpt><trkpt lat="45.160330525332064" lon="9.131827635725847"><ele>63.0</ele><time>2026-04-24T08:55:44.997Z</time></trkpt><trkpt lat="45.160383826240356" lon="9.1319059983724"><ele>63.0</ele><time>2026-04-24T08:55:45.997Z</time></trkpt><trkpt lat="45.160440823430605" lon="9.131980261827492"><ele>63.0</ele><time>2026-04-24T08:55:46.997Z</time></trkpt><trkpt lat="45.16052010461996" lon="9.132010973722327"><ele>63.0</ele><time>2026-04-24T08:55:47.997Z</time></trkpt><trkpt lat="45.16059013419469" lon="9.13205242628823"><ele>63.0</ele><time>2026-04-24T08:55:48.997Z</time></trkpt><trkpt lat="45.16063568693551" lon="9.132119337777109"><ele>63.0</ele><time>2026-04-24T08:55:49.997Z</time></trkpt><trkpt lat="45.16068993279793" lon="9.13217146241923"><ele>63.0</ele><time>2026-04-24T08:55:50.997Z</time></trkpt><trkpt lat="45.16073673067228" lon="9.132251883375265"><ele>63.0</ele><time>2026-04-24T08:55:51.997Z</time></trkpt><trkpt lat="45.16078812012036" lon="9.132337023018582"><ele>62.8</ele><time>2026-04-24T08:55:52.997Z</time></trkpt><trkpt lat="45.160850719162525" lon="9.132446535925038"><ele>62.599999999999994</ele><time>2026-04-24T08:55:53.997Z</time></trkpt><trkpt lat="45.16091143702903" lon="9.132545887887982"><ele>62.400000000000006</ele><time>2026-04-24T08:55:54.997Z</time></trkpt><trkpt lat="45.160991678931936" lon="9.132634003937307"><ele>62.2</ele><time>2026-04-24T08:55:55.997Z</time></trkpt><trkpt lat="45.161065347403934" lon="9.132731193228594"><ele>62.0</ele><time>2026-04-24T08:55:56.997Z</time></trkpt><trkpt lat="45.16113727114125" lon="9.132826173798222"><ele>62.0</ele><time>2026-04-24T08:55:57.997Z</time></trkpt><trkpt lat="45.16120251986647" lon="9.132927137538278"><ele>62.0</ele><time>2026-04-24T08:55:58.997Z</time></trkpt><trkpt lat="45.16128352837146" lon="9.13301992163815"><ele>62.0</ele><time>2026-04-24T08:55:59.997Z</time></trkpt><trkpt lat="45.16135519643378" lon="9.13312202123927"><ele>62.0</ele><time>2026-04-24T08:56:00.997Z</time></trkpt><trkpt lat="45.16143366395693" lon="9.13321283910172"><ele>62.0</ele><time>2026-04-24T08:56:01.997Z</time></trkpt><trkpt lat="45.16151476043172" lon="9.13327821139157"><ele>62.2</ele><time>2026-04-24T08:56:02.997Z</time></trkpt><trkpt lat="45.16157331452996" lon="9.133393835694738"><ele>62.400000000000006</ele><time>2026-04-24T08:56:03.997Z</time></trkpt><trkpt lat="45.16163443583229" lon="9.133503744771021"><ele>62.599999999999994</ele><time>2026-04-24T08:56:04.997Z</time></trkpt><trkpt lat="45.161704188125064" lon="9.13358736802238"><ele>62.8</ele><time>2026-04-24T08:56:05.997Z</time></trkpt><trkpt lat="45.16177368814699" lon="9.13368471845924"><ele>63.0</ele><time>2026-04-24T08:56:06.997Z</time></trkpt><trkpt lat="45.16185355507648" lon="9.133772124539574"><ele>63.0</ele><time>2026-04-24T08:56:07.997Z</time></trkpt><trkpt lat="45.16192669659691" lon="9.133876603931363"><ele>63.0</ele><time>2026-04-24T08:56:08.997Z</time></trkpt><trkpt lat="45.1620081469669" lon="9.133956268086871"><ele>63.0</ele><time>2026-04-24T08:56:09.997Z</time></trkpt><trkpt lat="45.16207688221224" lon="9.134061648012501"><ele>63.0</ele><time>2026-04-24T08:56:10.997Z</time></trkpt><trkpt lat="45.16214209856358" lon="9.134173099105439"><ele>63.0</ele><time>2026-04-24T08:56:11.997Z</time></trkpt><trkpt lat="45.16222412171445" lon="9.13426480731531"><ele>63.0</ele><time>2026-04-24T08:56:12.997Z</time></trkpt><trkpt lat="45.16228001661335" lon="9.134361149001647"><ele>63.0</ele><time>2026-04-24T08:56:13.997Z</time></trkpt><trkpt lat="45.16235094911933" lon="9.134442405529018"><ele>63.0</ele><time>2026-04-24T08:56:14.997Z</time></trkpt><trkpt lat="45.16245275843829" lon="9.134484490549257"><ele>63.0</ele><time>2026-04-24T08:56:15.997Z</time></trkpt><trkpt lat="45.16251500942323" lon="9.13456327783061"><ele>63.0</ele><time>2026-04-24T08:56:16.997Z</time></trkpt><trkpt lat="45.162580778334345" lon="9.134646515849111"><ele>62.85714285714286</ele><time>2026-04-24T08:56:17.997Z</time></trkpt><trkpt lat="45.16265066047608" lon="9.13467179321251"><ele>62.714285714285715</ele><time>2026-04-24T08:56:18.997Z</time></trkpt><trkpt lat="45.162701378295814" lon="9.134735052567482"><ele>62.57142857142857</ele><time>2026-04-24T08:56:19.997Z</time></trkpt><trkpt lat="45.162754291341884" lon="9.134800269379722"><ele>62.42857142857143</ele><time>2026-04-24T08:56:20.997Z</time></trkpt><trkpt lat="45.16281227170918" lon="9.134872174603672"><ele>62.28571428571429</ele><time>2026-04-24T08:56:21.997Z</time></trkpt><trkpt lat="45.16286944572119" lon="9.134943716655384"><ele>62.142857142857146</ele><time>2026-04-24T08:56:22.997Z</time></trkpt><trkpt lat="45.162920045357495" lon="9.135041058030948"><ele>62.0</ele><time>2026-04-24T08:56:23.997Z</time></trkpt><trkpt lat="45.16298369943154" lon="9.135117208837942"><ele>62.0</ele><time>2026-04-24T08:56:24.997Z</time></trkpt><trkpt lat="45.163034066455545" lon="9.135204883038854"><ele>62.0</ele><time>2026-04-24T08:56:25.997Z</time></trkpt><trkpt lat="45.163087150960926" lon="9.135286331937676"><ele>62.0</ele><time>2026-04-24T08:56:26.997Z</time></trkpt><trkpt lat="45.1631435624962" lon="9.135351160407373"><ele>62.0</ele><time>2026-04-24T08:56:27.997Z</time></trkpt><trkpt lat="45.16324618597974" lon="9.135475533655406"><ele>62.0</ele><time>2026-04-24T08:56:29.997Z</time></trkpt><trkpt lat="45.16330959089806" lon="9.13555761090094"><ele>61.833333333333336</ele><time>2026-04-24T08:56:30.997Z</time></trkpt><trkpt lat="45.16337952806565" lon="9.135648119062498"><ele>61.66666666666667</ele><time>2026-04-24T08:56:31.997Z</time></trkpt><trkpt lat="45.16345103830409" lon="9.13573216823205"><ele>61.5</ele><time>2026-04-24T08:56:32.997Z</time></trkpt><trkpt lat="45.16350319525751" lon="9.135799832932765"><ele>61.33333333333333</ele><time>2026-04-24T08:56:33.997Z</time></trkpt><trkpt lat="45.16356841292565" lon="9.135864152732227"><ele>61.166666666666664</ele><time>2026-04-24T08:56:34.997Z</time></trkpt><trkpt lat="45.163643293134335" lon="9.13597083327388"><ele>61.0</ele><time>2026-04-24T08:56:36.997Z</time></trkpt><trkpt lat="45.16369235476561" lon="9.13602753822541"><ele>60.99999999999999</ele><time>2026-04-24T08:56:38.996Z</time></trkpt><trkpt lat="45.16374575232128" lon="9.136106006131653"><ele>61.0</ele><time>2026-04-24T08:56:42.996Z</time></trkpt><trkpt lat="45.16374404524333" lon="9.136217785767172"><ele>61.0</ele><time>2026-04-24T08:56:44.996Z</time></trkpt><trkpt lat="45.16374242168775" lon="9.13632702768719"><ele>61.0</ele><time>2026-04-24T08:56:46.996Z</time></trkpt><trkpt lat="45.16372016623193" lon="9.13649389679779"><ele>60.99999999999999</ele><time>2026-04-24T08:56:48.996Z</time></trkpt><trkpt lat="45.16369898533905" lon="9.13658794035958"><ele>61.0</ele><time>2026-04-24T08:56:49.996Z</time></trkpt><trkpt lat="45.16367676670974" lon="9.136676916134226"><ele>61.166666666666664</ele><time>2026-04-24T08:56:50.996Z</time></trkpt><trkpt lat="45.163648518980864" lon="9.136763111478059"><ele>61.33333333333333</ele><time>2026-04-24T08:56:51.996Z</time></trkpt><trkpt lat="45.16361105019891" lon="9.136848994151398"><ele>61.5</ele><time>2026-04-24T08:56:52.996Z</time></trkpt><trkpt lat="45.1635903775048" lon="9.136938492327763"><ele>61.66666666666667</ele><time>2026-04-24T08:56:53.996Z</time></trkpt><trkpt lat="45.16357403773545" lon="9.137113410770453"><ele>61.833333333333336</ele><time>2026-04-24T08:56:55.996Z</time></trkpt><trkpt lat="45.16355357016156" lon="9.137206131225406"><ele>62.0</ele><time>2026-04-24T08:56:56.996Z</time></trkpt><trkpt lat="45.16352152526233" lon="9.137351298719754"><ele>62.333333333333336</ele><time>2026-04-24T08:56:58.996Z</time></trkpt><trkpt lat="45.163499302988555" lon="9.137451968247401"><ele>62.66666666666667</ele><time>2026-04-24T08:57:00.996Z</time></trkpt><trkpt lat="45.163524525708105" lon="9.137535194614115"><ele>63.0</ele><time>2026-04-24T08:57:24.996Z</time></trkpt><trkpt lat="45.163454935399706" lon="9.137590274323411"><ele>63.33333333333333</ele><time>2026-04-24T08:58:37Z</time></trkpt><trkpt lat="45.16351484172486" lon="9.13761832550455"><ele>63.666666666666664</ele><time>2026-04-24T08:58:40Z</time></trkpt><trkpt lat="45.16347635540015" lon="9.137753411880603"><ele>64.0</ele><time>2026-04-24T09:01:40.997Z</time></trkpt><trkpt lat="45.16345670282928" lon="9.137842870445441"><ele>64.0</ele><time>2026-04-24T09:01:41.997Z</time></trkpt><trkpt lat="45.16343422014223" lon="9.137946385524886"><ele>64.0</ele><time>2026-04-24T09:01:42.997Z</time></trkpt><trkpt lat="45.1634094533639" lon="9.138060416635295"><ele>64.0</ele><time>2026-04-24T09:01:43.997Z</time></trkpt><trkpt lat="45.163382017248495" lon="9.138186741219817"><ele>64.0</ele><time>2026-04-24T09:01:44.997Z</time></trkpt><trkpt lat="45.16335369668332" lon="9.138329823871764"><ele>64.0</ele><time>2026-04-24T09:01:45.997Z</time></trkpt><trkpt lat="45.16332610576121" lon="9.138464907383755"><ele>63.99999999999999</ele><time>2026-04-24T09:01:46.997Z</time></trkpt><trkpt lat="45.16330422536873" lon="9.138565172061828"><ele>64.0</ele><time>2026-04-24T09:01:47.997Z</time></trkpt><trkpt lat="45.16327833769904" lon="9.138663771969576"><ele>64.0</ele><time>2026-04-24T09:01:49.997Z</time></trkpt><trkpt lat="45.16323565382215" lon="9.138762090160583"><ele>64.0</ele><time>2026-04-24T09:01:52.997Z</time></trkpt><trkpt lat="45.16318580984973" lon="9.138863806351093"><ele>63.99999999999999</ele><time>2026-04-24T09:01:54.997Z</time></trkpt><trkpt lat="45.163203464208905" lon="9.138962873277563"><ele>64.0</ele><time>2026-04-24T09:01:56.997Z</time></trkpt><trkpt lat="45.16327950035161" lon="9.139006509540211"><ele>64.0</ele><time>2026-04-24T09:01:58.997Z</time></trkpt><trkpt lat="45.16337550416476" lon="9.139057051767821"><ele>64.0</ele><time>2026-04-24T09:02:00.997Z</time></trkpt><trkpt lat="45.16347894389996" lon="9.139124178830464"><ele>64.0</ele><time>2026-04-24T09:02:02.997Z</time></trkpt><trkpt lat="45.16357275957822" lon="9.139179702180211"><ele>64.0</ele><time>2026-04-24T09:02:04.997Z</time></trkpt><trkpt lat="45.16367921355575" lon="9.139232042984569"><ele>64.0</ele><time>2026-04-24T09:02:06.997Z</time></trkpt><trkpt lat="45.163742609523936" lon="9.139259117690914"><ele>64.0</ele><time>2026-04-24T09:02:07.997Z</time></trkpt><trkpt lat="45.16381971796805" lon="9.139297132133857"><ele>64.0</ele><time>2026-04-24T09:02:08.997Z</time></trkpt><trkpt lat="45.163908992950816" lon="9.139336914162936"><ele>64.0</ele><time>2026-04-24T09:02:09.997Z</time></trkpt><trkpt lat="45.16400271569558" lon="9.139387936700441"><ele>64.0</ele><time>2026-04-24T09:02:10.997Z</time></trkpt><trkpt lat="45.1640930841049" lon="9.13941973406967"><ele>64.0</ele><time>2026-04-24T09:02:11.997Z</time></trkpt><trkpt lat="45.16417178474853" lon="9.139460841031545"><ele>64.33333333333333</ele><time>2026-04-24T09:02:12.997Z</time></trkpt><trkpt lat="45.16425403238901" lon="9.139498025951292"><ele>64.66666666666666</ele><time>2026-04-24T09:02:13.997Z</time></trkpt><trkpt lat="45.16433834431362" lon="9.139548131986743"><ele>65.0</ele><time>2026-04-24T09:02:14.997Z</time></trkpt><trkpt lat="45.16441530119474" lon="9.139597147763835"><ele>65.33333333333333</ele><time>2026-04-24T09:02:15.997Z</time></trkpt><trkpt lat="45.16448562155471" lon="9.139636242148015"><ele>65.66666666666667</ele><time>2026-04-24T09:02:16.997Z</time></trkpt><trkpt lat="45.16455139074538" lon="9.13965933107692"><ele>66.0</ele><time>2026-04-24T09:02:17.997Z</time></trkpt><trkpt lat="45.16461515160231" lon="9.13968357863905"><ele>66.0</ele><time>2026-04-24T09:02:18.997Z</time></trkpt><trkpt lat="45.16467912787858" lon="9.139717044132464"><ele>66.0</ele><time>2026-04-24T09:02:19.997Z</time></trkpt><trkpt lat="45.164740613167695" lon="9.139757277019697"><ele>66.0</ele><time>2026-04-24T09:02:20.997Z</time></trkpt><trkpt lat="45.16480738114638" lon="9.139798069945428"><ele>66.0</ele><time>2026-04-24T09:02:21.997Z</time></trkpt><trkpt lat="45.16488270813203" lon="9.139823854371388"><ele>66.0</ele><time>2026-04-24T09:02:22.997Z</time></trkpt><trkpt lat="45.16495870407871" lon="9.139857678686681"><ele>66.0</ele><time>2026-04-24T09:02:23.997Z</time></trkpt><trkpt lat="45.16504131338661" lon="9.139894140215421"><ele>65.8</ele><time>2026-04-24T09:02:24.997Z</time></trkpt><trkpt lat="45.165123465216766" lon="9.139942594368774"><ele>65.6</ele><time>2026-04-24T09:02:25.997Z</time></trkpt><trkpt lat="45.16520895130852" lon="9.140002839932686"><ele>65.4</ele><time>2026-04-24T09:02:26.997Z</time></trkpt><trkpt lat="45.165294718251005" lon="9.140080477161728"><ele>65.2</ele><time>2026-04-24T09:02:27.997Z</time></trkpt><trkpt lat="45.165380802077216" lon="9.140157523321546"><ele>65.0</ele><time>2026-04-24T09:02:28.997Z</time></trkpt><trkpt lat="45.16546221775535" lon="9.14022398262986"><ele>65.0</ele><time>2026-04-24T09:02:29.997Z</time></trkpt><trkpt lat="45.16553502001408" lon="9.140272649073806"><ele>65.0</ele><time>2026-04-24T09:02:30.997Z</time></trkpt><trkpt lat="45.165629550870975" lon="9.140344344685449"><ele>65.0</ele><time>2026-04-24T09:02:32.997Z</time></trkpt><trkpt lat="45.165685466113594" lon="9.140396048758516"><ele>65.0</ele><time>2026-04-24T09:02:36.997Z</time></trkpt><trkpt lat="45.16576292137384" lon="9.140427759993422"><ele>65.0</ele><time>2026-04-24T09:02:44.997Z</time></trkpt><trkpt lat="45.16581928504262" lon="9.140476508264662"><ele>65.0</ele><time>2026-04-24T09:02:45.997Z</time></trkpt><trkpt lat="45.16588967361913" lon="9.140537612106868"><ele>64.6</ele><time>2026-04-24T09:02:46.997Z</time></trkpt><trkpt lat="45.16596549448864" lon="9.140608335823515"><ele>64.2</ele><time>2026-04-24T09:02:47.997Z</time></trkpt><trkpt lat="45.16604738576053" lon="9.140676648188697"><ele>63.8</ele><time>2026-04-24T09:02:48.997Z</time></trkpt><trkpt lat="45.16613870059753" lon="9.140754537880058"><ele>63.4</ele><time>2026-04-24T09:02:49.997Z</time></trkpt><trkpt lat="45.16623595599323" lon="9.140836045241487"><ele>63.0</ele><time>2026-04-24T09:02:50.997Z</time></trkpt><trkpt lat="45.16633949293772" lon="9.140920197650937"><ele>63.25</ele><time>2026-04-24T09:02:51.997Z</time></trkpt><trkpt lat="45.16644578042706" lon="9.141006078422913"><ele>63.5</ele><time>2026-04-24T09:02:52.997Z</time></trkpt><trkpt lat="45.16655583947513" lon="9.141098210261722"><ele>63.75</ele><time>2026-04-24T09:02:53.997Z</time></trkpt><trkpt lat="45.166666734979664" lon="9.141187081649969"><ele>64.0</ele><time>2026-04-24T09:02:54.996Z</time></trkpt><trkpt lat="45.1667760178258" lon="9.141271044069722"><ele>64.0</ele><time>2026-04-24T09:02:55.996Z</time></trkpt><trkpt lat="45.16688587458012" lon="9.141357052236499"><ele>64.0</ele><time>2026-04-24T09:02:56.996Z</time></trkpt><trkpt lat="45.16699352263643" lon="9.141447972524379"><ele>64.0</ele><time>2026-04-24T09:02:57.996Z</time></trkpt><trkpt lat="45.16710234047681" lon="9.141540993255314"><ele>64.0</ele><time>2026-04-24T09:02:58.996Z</time></trkpt><trkpt lat="45.167210229818004" lon="9.141633254811612"><ele>63.25</ele><time>2026-04-24T09:02:59.996Z</time></trkpt><trkpt lat="45.16731363556787" lon="9.141723414398502"><ele>62.5</ele><time>2026-04-24T09:03:00.996Z</time></trkpt><trkpt lat="45.16741046553192" lon="9.14181313694304"><ele>61.75</ele><time>2026-04-24T09:03:01.996Z</time></trkpt><trkpt lat="45.167503869180806" lon="9.141902274648064"><ele>61.0</ele><time>2026-04-24T09:03:02.996Z</time></trkpt><trkpt lat="45.16759587142015" lon="9.141981999994782"><ele>61.0</ele><time>2026-04-24T09:03:03.996Z</time></trkpt><trkpt lat="45.16767767323246" lon="9.142061781650966"><ele>60.99999999999999</ele><time>2026-04-24T09:03:04.996Z</time></trkpt><trkpt lat="45.167762256725545" lon="9.142136721920252"><ele>60.99999999999999</ele><time>2026-04-24T09:03:05.996Z</time></trkpt><trkpt lat="45.16784834647829" lon="9.142218197447505"><ele>61.0</ele><time>2026-04-24T09:03:06.996Z</time></trkpt><trkpt lat="45.167933493008576" lon="9.142295087741562"><ele>61.0</ele><time>2026-04-24T09:03:07.996Z</time></trkpt><trkpt lat="45.16801580547524" lon="9.14236684146552"><ele>60.99999999999999</ele><time>2026-04-24T09:03:08.996Z</time></trkpt><trkpt lat="45.168093575271264" lon="9.142419389352144"><ele>61.0</ele><time>2026-04-24T09:03:09.996Z</time></trkpt><trkpt lat="45.16815812338334" lon="9.142464602655036"><ele>61.0</ele><time>2026-04-24T09:03:10.996Z</time></trkpt><trkpt lat="45.168249409054994" lon="9.142542783927832"><ele>61.0</ele><time>2026-04-24T09:03:12.996Z</time></trkpt><trkpt lat="45.16831796321029" lon="9.142598513251558"><ele>60.99999999999999</ele><time>2026-04-24T09:03:14.996Z</time></trkpt><trkpt lat="45.16838944270405" lon="9.14263381778322"><ele>61.0</ele><time>2026-04-24T09:03:16.996Z</time></trkpt><trkpt lat="45.16845648791221" lon="9.142690936236956"><ele>61.0</ele><time>2026-04-24T09:03:18.996Z</time></trkpt><trkpt lat="45.16853616405061" lon="9.14276030123229"><ele>60.99999999999999</ele><time>2026-04-24T09:03:20.996Z</time></trkpt><trkpt lat="45.1686246442546" lon="9.142837642129598"><ele>60.99999999999999</ele><time>2026-04-24T09:03:22.996Z</time></trkpt><trkpt lat="45.168723113442574" lon="9.142920545824445"><ele>61.0</ele><time>2026-04-24T09:03:24.996Z</time></trkpt><trkpt lat="45.168821383797045" lon="9.1430280415416"><ele>61.0</ele><time>2026-04-24T09:03:26.996Z</time></trkpt><trkpt lat="45.168875791438026" lon="9.143077929015785"><ele>60.99999999999999</ele><time>2026-04-24T09:03:27.996Z</time></trkpt><trkpt lat="45.16893299916756" lon="9.143127272955644"><ele>61.0</ele><time>2026-04-24T09:03:28.996Z</time></trkpt><trkpt lat="45.168993111022345" lon="9.143179122080044"><ele>60.99999999999999</ele><time>2026-04-24T09:03:29.996Z</time></trkpt><trkpt lat="45.16905221795727" lon="9.143227987321291"><ele>60.99999999999999</ele><time>2026-04-24T09:03:30.996Z</time></trkpt><trkpt lat="45.16910890991368" lon="9.143273937026288"><ele>61.0</ele><time>2026-04-24T09:03:31.996Z</time></trkpt><trkpt lat="45.16916608927309" lon="9.14332028201252"><ele>60.99999999999999</ele><time>2026-04-24T09:03:32.996Z</time></trkpt><trkpt lat="45.169224394529024" lon="9.143369807365245"><ele>60.99999999999999</ele><time>2026-04-24T09:03:33.996Z</time></trkpt><trkpt lat="45.169280394642556" lon="9.143413833614451"><ele>61.33333333333333</ele><time>2026-04-24T09:03:34.996Z</time></trkpt><trkpt lat="45.16934273725643" lon="9.143460149712025"><ele>61.666666666666664</ele><time>2026-04-24T09:03:35.996Z</time></trkpt><trkpt lat="45.16939588447418" lon="9.143544651886486"><ele>62.0</ele><time>2026-04-24T09:03:36.996Z</time></trkpt><trkpt lat="45.169464302033994" lon="9.143596868320953"><ele>62.33333333333333</ele><time>2026-04-24T09:03:37.996Z</time></trkpt><trkpt lat="45.16953539316761" lon="9.143651272823842"><ele>62.666666666666664</ele><time>2026-04-24T09:03:38.996Z</time></trkpt><trkpt lat="45.169604933948776" lon="9.143708843343658"><ele>63.0</ele><time>2026-04-24T09:03:39.996Z</time></trkpt><trkpt lat="45.169674135274064" lon="9.143774147848765"><ele>63.0</ele><time>2026-04-24T09:03:40.996Z</time></trkpt><trkpt lat="45.16974716121544" lon="9.143837155556064"><ele>63.0</ele><time>2026-04-24T09:03:41.996Z</time></trkpt><trkpt lat="45.169820560344576" lon="9.143895183355468"><ele>63.0</ele><time>2026-04-24T09:03:42.996Z</time></trkpt><trkpt lat="45.16989543855999" lon="9.143954163562809"><ele>63.0</ele><time>2026-04-24T09:03:43.996Z</time></trkpt><trkpt lat="45.169970978028246" lon="9.144013744548426"><ele>63.0</ele><time>2026-04-24T09:03:44.996Z</time></trkpt><trkpt lat="45.170046213208536" lon="9.144073042842734"><ele>63.0</ele><time>2026-04-24T09:03:45.996Z</time></trkpt><trkpt lat="45.17011749446446" lon="9.144128730013861"><ele>63.14285714285714</ele><time>2026-04-24T09:03:46.996Z</time></trkpt><trkpt lat="45.17018494796337" lon="9.144185317858936"><ele>63.285714285714285</ele><time>2026-04-24T09:03:47.996Z</time></trkpt><trkpt lat="45.17024946425723" lon="9.144240794984222"><ele>63.42857142857143</ele><time>2026-04-24T09:03:48.996Z</time></trkpt><trkpt lat="45.17031261949457" lon="9.144294318200663"><ele>63.57142857142857</ele><time>2026-04-24T09:03:49.996Z</time></trkpt><trkpt lat="45.17037789934827" lon="9.144330582442581"><ele>63.71428571428571</ele><time>2026-04-24T09:03:50.996Z</time></trkpt><trkpt lat="45.17043650873275" lon="9.144374693901407"><ele>63.857142857142854</ele><time>2026-04-24T09:03:51.996Z</time></trkpt><trkpt lat="45.17049188251196" lon="9.144418920787968"><ele>64.0</ele><time>2026-04-24T09:03:52.996Z</time></trkpt><trkpt lat="45.17058983228562" lon="9.144505652931993"><ele>64.0</ele><time>2026-04-24T09:03:54.996Z</time></trkpt><trkpt lat="45.170682695966406" lon="9.144575859028874"><ele>64.0</ele><time>2026-04-24T09:03:56.996Z</time></trkpt><trkpt lat="45.17076911039357" lon="9.144633069435203"><ele>64.0</ele><time>2026-04-24T09:03:58.996Z</time></trkpt><trkpt lat="45.17087683447703" lon="9.144703723036843"><ele>64.0</ele><time>2026-04-24T09:04:00.996Z</time></trkpt><trkpt lat="45.17094082027789" lon="9.144742469994268"><ele>64.0</ele><time>2026-04-24T09:04:01.996Z</time></trkpt><trkpt lat="45.17100948831106" lon="9.14479478261269"><ele>63.800000000000004</ele><time>2026-04-24T09:04:02.996Z</time></trkpt><trkpt lat="45.17108393421885" lon="9.144845329994867"><ele>63.60000000000001</ele><time>2026-04-24T09:04:03.996Z</time></trkpt><trkpt lat="45.17116326848684" lon="9.144903514755802"><ele>63.4</ele><time>2026-04-24T09:04:04.996Z</time></trkpt><trkpt lat="45.171250773247756" lon="9.1449592370619"><ele>63.2</ele><time>2026-04-24T09:04:05.996Z</time></trkpt><trkpt lat="45.17135034841298" lon="9.145024924289965"><ele>63.0</ele><time>2026-04-24T09:04:06.996Z</time></trkpt><trkpt lat="45.171464272069315" lon="9.145093078589392"><ele>62.75</ele><time>2026-04-24T09:04:07.996Z</time></trkpt><trkpt lat="45.171578884427284" lon="9.145168890738933"><ele>62.5</ele><time>2026-04-24T09:04:08.996Z</time></trkpt><trkpt lat="45.17169107133823" lon="9.145241023801898"><ele>62.25</ele><time>2026-04-24T09:04:09.996Z</time></trkpt><trkpt lat="45.171797814461186" lon="9.145319003865444"><ele>62.0</ele><time>2026-04-24T09:04:10.996Z</time></trkpt><trkpt lat="45.17190224672618" lon="9.145376599720457"><ele>62.0</ele><time>2026-04-24T09:04:11.996Z</time></trkpt><trkpt lat="45.17200427744818" lon="9.145436009174949"><ele>62.0</ele><time>2026-04-24T09:04:12.995Z</time></trkpt><trkpt lat="45.17210644550019" lon="9.145502239994276"><ele>62.0</ele><time>2026-04-24T09:04:13.995Z</time></trkpt><trkpt lat="45.17221679270434" lon="9.145555622918618"><ele>62.0</ele><time>2026-04-24T09:04:14.995Z</time></trkpt><trkpt lat="45.172332188383486" lon="9.145606908750057"><ele>61.75</ele><time>2026-04-24T09:04:15.995Z</time></trkpt><trkpt lat="45.17244688538281" lon="9.145668108863221"><ele>61.5</ele><time>2026-04-24T09:04:16.995Z</time></trkpt><trkpt lat="45.17256680290438" lon="9.145719824419277"><ele>61.25</ele><time>2026-04-24T09:04:17.996Z</time></trkpt><trkpt lat="45.172685962726376" lon="9.145767191585126"><ele>61.0</ele><time>2026-04-24T09:04:18.996Z</time></trkpt><trkpt lat="45.172804553471885" lon="9.145809665782886"><ele>61.75</ele><time>2026-04-24T09:04:19.996Z</time></trkpt><trkpt lat="45.17292630549919" lon="9.145844915272557"><ele>62.5</ele><time>2026-04-24T09:04:20.996Z</time></trkpt><trkpt lat="45.173048994645335" lon="9.14589063137733"><ele>63.25</ele><time>2026-04-24T09:04:21.996Z</time></trkpt><trkpt lat="45.17317339622353" lon="9.14594009462121"><ele>64.0</ele><time>2026-04-24T09:04:22.996Z</time></trkpt><trkpt lat="45.17329684073178" lon="9.14597679730045"><ele>64.0</ele><time>2026-04-24T09:04:23.996Z</time></trkpt><trkpt lat="45.17342648633888" lon="9.146004935310003"><ele>64.0</ele><time>2026-04-24T09:04:24.996Z</time></trkpt><trkpt lat="45.17355883877738" lon="9.146038714108853"><ele>64.0</ele><time>2026-04-24T09:04:25.996Z</time></trkpt><trkpt lat="45.173695256939766" lon="9.146071865060412"><ele>64.0</ele><time>2026-04-24T09:04:26.996Z</time></trkpt><trkpt lat="45.173829526468225" lon="9.146109226927852"><ele>64.0</ele><time>2026-04-24T09:04:27.996Z</time></trkpt><trkpt lat="45.17396023991575" lon="9.146148213489342"><ele>64.0</ele><time>2026-04-24T09:04:28.996Z</time></trkpt><trkpt lat="45.174099286996615" lon="9.146120445964"><ele>64.0</ele><time>2026-04-24T09:04:29.996Z</time></trkpt><trkpt lat="45.17422457382993" lon="9.146139872142024"><ele>64.0</ele><time>2026-04-24T09:04:30.996Z</time></trkpt><trkpt lat="45.17433951875099" lon="9.146165838720295"><ele>63.5</ele><time>2026-04-24T09:04:31.996Z</time></trkpt><trkpt lat="45.17445712648957" lon="9.146186193854668"><ele>63.0</ele><time>2026-04-24T09:04:32.996Z</time></trkpt><trkpt lat="45.17458235843819" lon="9.1462099544478"><ele>62.5</ele><time>2026-04-24T09:04:33.996Z</time></trkpt><trkpt lat="45.17471852625469" lon="9.146235575725923"><ele>62.0</ele><time>2026-04-24T09:04:34.996Z</time></trkpt><trkpt lat="45.17486420057368" lon="9.146259242430434"><ele>62.0</ele><time>2026-04-24T09:04:35.996Z</time></trkpt><trkpt lat="45.17501907577568" lon="9.14628144400627"><ele>62.0</ele><time>2026-04-24T09:04:36.996Z</time></trkpt><trkpt lat="45.17517852207071" lon="9.14630275542515"><ele>62.0</ele><time>2026-04-24T09:04:37.996Z</time></trkpt><trkpt lat="45.175337313893266" lon="9.146321725354252"><ele>62.0</ele><time>2026-04-24T09:04:38.996Z</time></trkpt><trkpt lat="45.17549993608815" lon="9.14632427739599"><ele>62.0</ele><time>2026-04-24T09:04:39.996Z</time></trkpt><trkpt lat="45.17567504896737" lon="9.146327418323933"><ele>62.0</ele><time>2026-04-24T09:04:40.996Z</time></trkpt><trkpt lat="45.17583571019666" lon="9.146335054859165"><ele>62.0</ele><time>2026-04-24T09:04:41.996Z</time></trkpt><trkpt lat="45.176001376823535" lon="9.14635254183807"><ele>62.0</ele><time>2026-04-24T09:04:42.996Z</time></trkpt><trkpt lat="45.17615705579206" lon="9.146342283982952"><ele>62.0</ele><time>2026-04-24T09:04:43.996Z</time></trkpt><trkpt lat="45.176311574743316" lon="9.146381750411122"><ele>62.0</ele><time>2026-04-24T09:04:44.996Z</time></trkpt><trkpt lat="45.17642693665054" lon="9.146356507654598"><ele>62.0</ele><time>2026-04-24T09:04:45.996Z</time></trkpt><trkpt lat="45.176528938986856" lon="9.146390889765112"><ele>62.0</ele><time>2026-04-24T09:04:46.996Z</time></trkpt><trkpt lat="45.17662956642957" lon="9.146425095589027"><ele>62.0</ele><time>2026-04-24T09:04:47.996Z</time></trkpt><trkpt lat="45.17673030044001" lon="9.146477590362236"><ele>62.0</ele><time>2026-04-24T09:04:48.996Z</time></trkpt><trkpt lat="45.17682927637526" lon="9.146574377853211"><ele>62.2</ele><time>2026-04-24T09:04:49.996Z</time></trkpt><trkpt lat="45.176926154900904" lon="9.146577037058973"><ele>62.400000000000006</ele><time>2026-04-24T09:04:50.996Z</time></trkpt><trkpt lat="45.17702627204041" lon="9.14654634471397"><ele>62.599999999999994</ele><time>2026-04-24T09:04:51.996Z</time></trkpt><trkpt lat="45.17711947080607" lon="9.146507643982737"><ele>62.8</ele><time>2026-04-24T09:04:52.996Z</time></trkpt><trkpt lat="45.17722634834701" lon="9.14647645197231"><ele>63.0</ele><time>2026-04-24T09:04:53.996Z</time></trkpt><trkpt lat="45.17735397399105" lon="9.146430748292145"><ele>64.5</ele><time>2026-04-24T09:04:54.996Z</time></trkpt><trkpt lat="45.17748987203918" lon="9.146432990020534"><ele>66.0</ele><time>2026-04-24T09:04:55.996Z</time></trkpt><trkpt lat="45.17761587056647" lon="9.146428931065312"><ele>67.5</ele><time>2026-04-24T09:04:56.996Z</time></trkpt><trkpt lat="45.17774271425857" lon="9.146450146470682"><ele>69.0</ele><time>2026-04-24T09:04:57.996Z</time></trkpt><trkpt lat="45.17787661576236" lon="9.146486066103494"><ele>69.0</ele><time>2026-04-24T09:04:58.996Z</time></trkpt><trkpt lat="45.17800088782306" lon="9.146487123317204"><ele>69.0</ele><time>2026-04-24T09:04:59.996Z</time></trkpt><trkpt lat="45.178135085150984" lon="9.14649380435687"><ele>69.0</ele><time>2026-04-24T09:05:00.996Z</time></trkpt><trkpt lat="45.178280848539664" lon="9.14650140006855"><ele>69.0</ele><time>2026-04-24T09:05:01.996Z</time></trkpt><trkpt lat="45.17841400595283" lon="9.146514890936015"><ele>68.25</ele><time>2026-04-24T09:05:02.996Z</time></trkpt><trkpt lat="45.17855239351684" lon="9.146524680544498"><ele>67.5</ele><time>2026-04-24T09:05:03.996Z</time></trkpt><trkpt lat="45.178684928763424" lon="9.146514696629252"><ele>66.75</ele><time>2026-04-24T09:05:04.996Z</time></trkpt><trkpt lat="45.178816230638375" lon="9.146523296597856"><ele>66.0</ele><time>2026-04-24T09:05:05.996Z</time></trkpt><trkpt lat="45.1789680774141" lon="9.146531957906642"><ele>65.75</ele><time>2026-04-24T09:05:06.996Z</time></trkpt><trkpt lat="45.17909937709454" lon="9.146515336887024"><ele>65.5</ele><time>2026-04-24T09:05:07.996Z</time></trkpt><trkpt lat="45.17924842019373" lon="9.146545993144194"><ele>65.25</ele><time>2026-04-24T09:05:08.996Z</time></trkpt><trkpt lat="45.17938625031016" lon="9.146548218351242"><ele>65.0</ele><time>2026-04-24T09:05:09.996Z</time></trkpt><trkpt lat="45.17953707945771" lon="9.146542002909687"><ele>64.5</ele><time>2026-04-24T09:05:10.996Z</time></trkpt><trkpt lat="45.17966237351785" lon="9.146546652083986"><ele>64.0</ele><time>2026-04-24T09:05:11.996Z</time></trkpt><trkpt lat="45.179806861496075" lon="9.14655535618189"><ele>63.5</ele><time>2026-04-24T09:05:12.996Z</time></trkpt><trkpt lat="45.17995339050197" lon="9.14656418323022"><ele>63.0</ele><time>2026-04-24T09:05:13.996Z</time></trkpt><trkpt lat="45.180100698646406" lon="9.14657306403709"><ele>60.75</ele><time>2026-04-24T09:05:14.996Z</time></trkpt><trkpt lat="45.18023793809331" lon="9.14658167920634"><ele>58.5</ele><time>2026-04-24T09:05:15.996Z</time></trkpt><trkpt lat="45.180398511410274" lon="9.14657510741607"><ele>56.25</ele><time>2026-04-24T09:05:16.996Z</time></trkpt><trkpt lat="45.180535319690236" lon="9.146597369913847"><ele>54.0</ele><time>2026-04-24T09:05:17.996Z</time></trkpt><trkpt lat="45.18065930842989" lon="9.14660728225969"><ele>53.75</ele><time>2026-04-24T09:05:18.996Z</time></trkpt><trkpt lat="45.18080383636528" lon="9.146611606510147"><ele>53.5</ele><time>2026-04-24T09:05:19.996Z</time></trkpt><trkpt lat="45.18093085345782" lon="9.146603991961749"><ele>53.25</ele><time>2026-04-24T09:05:20.996Z</time></trkpt><trkpt lat="45.181061925239874" lon="9.146610645673151"><ele>53.0</ele><time>2026-04-24T09:05:21.996Z</time></trkpt><trkpt lat="45.18118080156878" lon="9.146639397684776"><ele>53.0</ele><time>2026-04-24T09:05:22.996Z</time></trkpt><trkpt lat="45.18129255670706" lon="9.14664599511466"><ele>53.0</ele><time>2026-04-24T09:05:23.996Z</time></trkpt><trkpt lat="45.18139623178127" lon="9.14665187846467"><ele>53.0</ele><time>2026-04-24T09:05:24.996Z</time></trkpt><trkpt lat="45.18149949227688" lon="9.146642711782686"><ele>53.0</ele><time>2026-04-24T09:05:25.996Z</time></trkpt><trkpt lat="45.18158953815659" lon="9.14664770247139"><ele>53.0</ele><time>2026-04-24T09:05:26.996Z</time></trkpt><trkpt lat="45.18166566619964" lon="9.14667442540167"><ele>54.2</ele><time>2026-04-24T09:05:27.996Z</time></trkpt><trkpt lat="45.181733896868245" lon="9.146659860757772"><ele>55.4</ele><time>2026-04-24T09:05:29.996Z</time></trkpt><trkpt lat="45.18180413102313" lon="9.14667501439153"><ele>56.60000000000001</ele><time>2026-04-24T09:05:35.002Z</time></trkpt><trkpt lat="45.18200155082201" lon="9.146689236137266"><ele>57.800000000000004</ele><time>2026-04-24T09:05:48.002Z</time></trkpt><trkpt lat="45.18206359852795" lon="9.146782603913845"><ele>59.0</ele><time>2026-04-24T09:05:50.001Z</time></trkpt><trkpt lat="45.18210155177467" lon="9.14686349815674"><ele>59.00000000000001</ele><time>2026-04-24T09:05:53.001Z</time></trkpt><trkpt lat="45.18213980201496" lon="9.146985933331768"><ele>59.0</ele><time>2026-04-24T09:05:58.001Z</time></trkpt><trkpt lat="45.18214819537491" lon="9.147136886295412"><ele>59.0</ele><time>2026-04-24T09:06:08.001Z</time></trkpt><trkpt lat="45.182148183697" lon="9.14723439011695"><ele>59.0</ele><time>2026-04-24T09:06:10.001Z</time></trkpt><trkpt lat="45.18213117501684" lon="9.147348673889761"><ele>59.00000000000001</ele><time>2026-04-24T09:06:13Z</time></trkpt><trkpt lat="45.182102386735195" lon="9.147437330975377"><ele>59.0</ele><time>2026-04-24T09:06:15Z</time></trkpt><trkpt lat="45.182096538009645" lon="9.147586936376758"><ele>58.800000000000004</ele><time>2026-04-24T09:06:18Z</time></trkpt><trkpt lat="45.18208645450047" lon="9.14773000447799"><ele>58.60000000000001</ele><time>2026-04-24T09:06:20Z</time></trkpt><trkpt lat="45.18208891512484" lon="9.147901008923537"><ele>58.4</ele><time>2026-04-24T09:06:22Z</time></trkpt><trkpt lat="45.18209521828393" lon="9.147990827915631"><ele>58.2</ele><time>2026-04-24T09:06:23Z</time></trkpt><trkpt lat="45.18207038227321" lon="9.148167878414503"><ele>58.0</ele><time>2026-04-24T09:06:25Z</time></trkpt><trkpt lat="45.18208687766431" lon="9.148264713018818"><ele>58.33333333333333</ele><time>2026-04-24T09:06:26Z</time></trkpt><trkpt lat="45.18206746030591" lon="9.148369266801064"><ele>58.666666666666664</ele><time>2026-04-24T09:06:27Z</time></trkpt><trkpt lat="45.18207833920301" lon="9.148471853422066"><ele>59.0</ele><time>2026-04-24T09:06:28Z</time></trkpt><trkpt lat="45.18206792466657" lon="9.148589359851645"><ele>59.33333333333333</ele><time>2026-04-24T09:06:29Z</time></trkpt><trkpt lat="45.18207811363357" lon="9.148700523775359"><ele>59.666666666666664</ele><time>2026-04-24T09:06:30Z</time></trkpt><trkpt lat="45.18206276110526" lon="9.148810877152918"><ele>60.0</ele><time>2026-04-24T09:06:31Z</time></trkpt><trkpt lat="45.18203073036934" lon="9.148933095700059"><ele>60.0</ele><time>2026-04-24T09:06:32Z</time></trkpt><trkpt lat="45.18200603685733" lon="9.149057548824235"><ele>60.0</ele><time>2026-04-24T09:06:33Z</time></trkpt><trkpt lat="45.182014725129385" lon="9.149188975901998"><ele>60.0</ele><time>2026-04-24T09:06:34Z</time></trkpt><trkpt lat="45.18200885579672" lon="9.149295985257007"><ele>60.0</ele><time>2026-04-24T09:06:35Z</time></trkpt><trkpt lat="45.18201366830693" lon="9.14948618984933"><ele>60.0</ele><time>2026-04-24T09:06:37Z</time></trkpt><trkpt lat="45.181998499400734" lon="9.149640273066131"><ele>60.0</ele><time>2026-04-24T09:06:39Z</time></trkpt><trkpt lat="45.18197881205686" lon="9.14974165711215"><ele>60.0</ele><time>2026-04-24T09:06:41Z</time></trkpt><trkpt lat="45.18201465649076" lon="9.149871016200704"><ele>60.0</ele><time>2026-04-24T09:06:43Z</time></trkpt><trkpt lat="45.1820122189827" lon="9.149975125627932"><ele>60.0</ele><time>2026-04-24T09:06:44Z</time></trkpt><trkpt lat="45.182008105399206" lon="9.150165523213026"><ele>60.0</ele><time>2026-04-24T09:06:46Z</time></trkpt><trkpt lat="45.18199214667152" lon="9.15026927108465"><ele>60.5</ele><time>2026-04-24T09:06:47Z</time></trkpt><trkpt lat="45.18197843337056" lon="9.150378324493913"><ele>61.0</ele><time>2026-04-24T09:06:48Z</time></trkpt><trkpt lat="45.18197335114306" lon="9.150498826132855"><ele>61.5</ele><time>2026-04-24T09:06:49Z</time></trkpt><trkpt lat="45.18196427252978" lon="9.15061408617186"><ele>62.0</ele><time>2026-04-24T09:06:50Z</time></trkpt><trkpt lat="45.181951786646415" lon="9.15071465022234"><ele>62.5</ele><time>2026-04-24T09:06:51Z</time></trkpt><trkpt lat="45.18192502860012" lon="9.15088123162446"><ele>63.0</ele><time>2026-04-24T09:06:53Z</time></trkpt><trkpt lat="45.18189594229039" lon="9.15103130507475"><ele>63.666666666666664</ele><time>2026-04-24T09:06:55Z</time></trkpt><trkpt lat="45.1818770257335" lon="9.151129163408852"><ele>64.33333333333333</ele><time>2026-04-24T09:06:57Z</time></trkpt><trkpt lat="45.18186064868343" lon="9.151256582429882"><ele>65.0</ele><time>2026-04-24T09:06:59.999Z</time></trkpt><trkpt lat="45.18183254082642" lon="9.151435876403456"><ele>65.66666666666666</ele><time>2026-04-24T09:07:01.999Z</time></trkpt><trkpt lat="45.18182231465164" lon="9.151532738917004"><ele>66.33333333333333</ele><time>2026-04-24T09:07:02.999Z</time></trkpt><trkpt lat="45.181813849282925" lon="9.151626718339227"><ele>67.0</ele><time>2026-04-24T09:07:03.999Z</time></trkpt><trkpt lat="45.18179959009343" lon="9.151719374887703"><ele>67.33333333333333</ele><time>2026-04-24T09:07:04.999Z</time></trkpt><trkpt lat="45.18178473817599" lon="9.151811128798416"><ele>67.66666666666666</ele><time>2026-04-24T09:07:05.999Z</time></trkpt><trkpt lat="45.181773567405976" lon="9.151961694068003"><ele>68.0</ele><time>2026-04-24T09:07:07.999Z</time></trkpt><trkpt lat="45.181768448077946" lon="9.15206440868554"><ele>68.33333333333333</ele><time>2026-04-24T09:07:09.999Z</time></trkpt><trkpt lat="45.18174380862003" lon="9.152216017460143"><ele>68.66666666666667</ele><time>2026-04-24T09:07:11.999Z</time></trkpt><trkpt lat="45.18172748080391" lon="9.152322761825628"><ele>69.0</ele><time>2026-04-24T09:07:12.999Z</time></trkpt><trkpt lat="45.18171085037679" lon="9.152424896740609"><ele>69.0</ele><time>2026-04-24T09:07:13.999Z</time></trkpt><trkpt lat="45.1816956954489" lon="9.152524189209618"><ele>69.0</ele><time>2026-04-24T09:07:14.999Z</time></trkpt><trkpt lat="45.1816836324226" lon="9.152623322117552"><ele>69.0</ele><time>2026-04-24T09:07:15.999Z</time></trkpt><trkpt lat="45.18167420857574" lon="9.152716585741489"><ele>69.0</ele><time>2026-04-24T09:07:16.999Z</time></trkpt><trkpt lat="45.181662234136624" lon="9.152809409036829"><ele>69.0</ele><time>2026-04-24T09:07:17.999Z</time></trkpt><trkpt lat="45.1816478908143" lon="9.152910016774943"><ele>69.0</ele><time>2026-04-24T09:07:18.999Z</time></trkpt><trkpt lat="45.181631041547035" lon="9.153017551865787"><ele>69.0</ele><time>2026-04-24T09:07:19.999Z</time></trkpt><trkpt lat="45.181617836912075" lon="9.153131139441784"><ele>69.16666666666667</ele><time>2026-04-24T09:07:20.999Z</time></trkpt><trkpt lat="45.18160460195977" lon="9.15324591353327"><ele>69.33333333333333</ele><time>2026-04-24T09:07:21.999Z</time></trkpt><trkpt lat="45.1815950837787" lon="9.153358480516546"><ele>69.5</ele><time>2026-04-24T09:07:22.999Z</time></trkpt><trkpt lat="45.181579203417336" lon="9.153469433039279"><ele>69.66666666666666</ele><time>2026-04-24T09:07:23.999Z</time></trkpt><trkpt lat="45.18155860517759" lon="9.15358106769396"><ele>69.83333333333333</ele><time>2026-04-24T09:07:24.999Z</time></trkpt><trkpt lat="45.18153592604277" lon="9.153692873746195"><ele>70.0</ele><time>2026-04-24T09:07:25.999Z</time></trkpt><trkpt lat="45.18150802106895" lon="9.15381056925535"><ele>68.5</ele><time>2026-04-24T09:07:26.999Z</time></trkpt><trkpt lat="45.1814697700193" lon="9.15395396128985"><ele>67.0</ele><time>2026-04-24T09:07:27.999Z</time></trkpt><trkpt lat="45.18142109709927" lon="9.15412886107455"><ele>65.5</ele><time>2026-04-24T09:07:28.999Z</time></trkpt><trkpt lat="45.1813567664857" lon="9.154317421575705"><ele>64.0</ele><time>2026-04-24T09:07:29.999Z</time></trkpt><trkpt lat="45.18130174754771" lon="9.15450257461128"><ele>64.0</ele><time>2026-04-24T09:07:30.999Z</time></trkpt><trkpt lat="45.18125015202687" lon="9.154666748304788"><ele>64.0</ele><time>2026-04-24T09:07:31.999Z</time></trkpt><trkpt lat="45.18120435928939" lon="9.154817991178495"><ele>64.0</ele><time>2026-04-24T09:07:32.999Z</time></trkpt><trkpt lat="45.181144426819856" lon="9.154947713030056"><ele>64.0</ele><time>2026-04-24T09:07:33.999Z</time></trkpt><trkpt lat="45.18110227342802" lon="9.15507614755854"><ele>64.8</ele><time>2026-04-24T09:07:34.999Z</time></trkpt><trkpt lat="45.18106032041129" lon="9.155203971413425"><ele>65.60000000000001</ele><time>2026-04-24T09:07:35.999Z</time></trkpt><trkpt lat="45.18101585508616" lon="9.155339449888709"><ele>66.4</ele><time>2026-04-24T09:07:36.999Z</time></trkpt><trkpt lat="45.18097015048978" lon="9.155479095139327"><ele>67.2</ele><time>2026-04-24T09:07:37.999Z</time></trkpt><trkpt lat="45.18092533170143" lon="9.155616545724703"><ele>68.0</ele><time>2026-04-24T09:07:38.999Z</time></trkpt><trkpt lat="45.180881005798135" lon="9.155752640103813"><ele>68.0</ele><time>2026-04-24T09:07:39.999Z</time></trkpt><trkpt lat="45.1808340769477" lon="9.155896926704647"><ele>68.0</ele><time>2026-04-24T09:07:40.999Z</time></trkpt><trkpt lat="45.18078476068543" lon="9.15604794877106"><ele>68.0</ele><time>2026-04-24T09:07:41.999Z</time></trkpt><trkpt lat="45.18075760858642" lon="9.156213178664023"><ele>68.0</ele><time>2026-04-24T09:07:42.999Z</time></trkpt><trkpt lat="45.18070774373026" lon="9.156368900139244"><ele>66.0</ele><time>2026-04-24T09:07:43.999Z</time></trkpt><trkpt lat="45.180645090067145" lon="9.156521760490904"><ele>64.0</ele><time>2026-04-24T09:07:44.999Z</time></trkpt><trkpt lat="45.180592888365595" lon="9.156679263536017"><ele>62.0</ele><time>2026-04-24T09:07:45.999Z</time></trkpt><trkpt lat="45.18054185059504" lon="9.156843086386472"><ele>60.0</ele><time>2026-04-24T09:07:46.999Z</time></trkpt><trkpt lat="45.180489393498654" lon="9.157010379373409"><ele>59.75</ele><time>2026-04-24T09:07:47.999Z</time></trkpt><trkpt lat="45.180434118730126" lon="9.157168692492078"><ele>59.5</ele><time>2026-04-24T09:07:48.999Z</time></trkpt><trkpt lat="45.18038082586819" lon="9.157324944558018"><ele>59.25</ele><time>2026-04-24T09:07:49.999Z</time></trkpt><trkpt lat="45.180329788530706" lon="9.157478706129304"><ele>59.0</ele><time>2026-04-24T09:07:50.999Z</time></trkpt><trkpt lat="45.18027764158887" lon="9.15763338802911"><ele>60.0</ele><time>2026-04-24T09:07:51.999Z</time></trkpt><trkpt lat="45.18022992851702" lon="9.157789858868519"><ele>61.0</ele><time>2026-04-24T09:07:52.999Z</time></trkpt><trkpt lat="45.180180536660096" lon="9.15794331568511"><ele>62.0</ele><time>2026-04-24T09:07:53.999Z</time></trkpt><trkpt lat="45.180126685049345" lon="9.1580906544798"><ele>63.0</ele><time>2026-04-24T09:07:54.999Z</time></trkpt><trkpt lat="45.180073923419975" lon="9.158237297461998"><ele>64.0</ele><time>2026-04-24T09:07:55.999Z</time></trkpt><trkpt lat="45.18000482160624" lon="9.158376847015665"><ele>65.0</ele><time>2026-04-24T09:07:56.999Z</time></trkpt><trkpt lat="45.179948924034015" lon="9.158528448383542"><ele>66.0</ele><time>2026-04-24T09:07:57.999Z</time></trkpt><trkpt lat="45.17989905573766" lon="9.158681904490024"><ele>67.0</ele><time>2026-04-24T09:07:58.998Z</time></trkpt><trkpt lat="45.17986561168948" lon="9.158849922282114"><ele>65.25</ele><time>2026-04-24T09:07:59.998Z</time></trkpt><trkpt lat="45.17981397426019" lon="9.159010791342203"><ele>63.5</ele><time>2026-04-24T09:08:00.998Z</time></trkpt><trkpt lat="45.17976117016123" lon="9.159170665001698"><ele>61.75</ele><time>2026-04-24T09:08:01.998Z</time></trkpt><trkpt lat="45.1797085816348" lon="9.159331814563062"><ele>60.0</ele><time>2026-04-24T09:08:02.998Z</time></trkpt><trkpt lat="45.179655830752296" lon="9.159494952658308"><ele>59.75</ele><time>2026-04-24T09:08:03.998Z</time></trkpt><trkpt lat="45.17960300152969" lon="9.15965843278223"><ele>59.5</ele><time>2026-04-24T09:08:04.998Z</time></trkpt><trkpt lat="45.179541222177114" lon="9.159821454389338"><ele>59.25</ele><time>2026-04-24T09:08:05.998Z</time></trkpt><trkpt lat="45.179488173764796" lon="9.159988720546057"><ele>59.0</ele><time>2026-04-24T09:08:06.998Z</time></trkpt><trkpt lat="45.17943433172914" lon="9.160156287104005"><ele>59.0</ele><time>2026-04-24T09:08:07.998Z</time></trkpt><trkpt lat="45.17938061228878" lon="9.160320004484193"><ele>59.0</ele><time>2026-04-24T09:08:08.998Z</time></trkpt><trkpt lat="45.17932576887862" lon="9.160482635090984"><ele>59.0</ele><time>2026-04-24T09:08:09.998Z</time></trkpt><trkpt lat="45.17927049177262" lon="9.160642571938041"><ele>59.0</ele><time>2026-04-24T09:08:10.998Z</time></trkpt><trkpt lat="45.17922232303727" lon="9.160794702523862"><ele>59.400000000000006</ele><time>2026-04-24T09:08:11.998Z</time></trkpt><trkpt lat="45.17917711207102" lon="9.160942138349395"><ele>59.800000000000004</ele><time>2026-04-24T09:08:12.998Z</time></trkpt><trkpt lat="45.179131204094155" lon="9.161078750873052"><ele>60.199999999999996</ele><time>2026-04-24T09:08:13.998Z</time></trkpt><trkpt lat="45.179089489451805" lon="9.161210442403592"><ele>60.599999999999994</ele><time>2026-04-24T09:08:14.998Z</time></trkpt><trkpt lat="45.1790462552856" lon="9.161342851458985"><ele>61.0</ele><time>2026-04-24T09:08:15.998Z</time></trkpt><trkpt lat="45.17899993368721" lon="9.161472292733222"><ele>60.199999999999996</ele><time>2026-04-24T09:08:16.998Z</time></trkpt><trkpt lat="45.17896137049425" lon="9.161609684922915"><ele>59.39999999999999</ele><time>2026-04-24T09:08:17.998Z</time></trkpt><trkpt lat="45.17891707892656" lon="9.161747428896787"><ele>58.6</ele><time>2026-04-24T09:08:18.998Z</time></trkpt><trkpt lat="45.17887048418407" lon="9.16188961222825"><ele>57.8</ele><time>2026-04-24T09:08:19.998Z</time></trkpt><trkpt lat="45.178817477771325" lon="9.162036323919516"><ele>57.0</ele><time>2026-04-24T09:08:20.998Z</time></trkpt><trkpt lat="45.178765424380316" lon="9.162191905668575"><ele>57.0</ele><time>2026-04-24T09:08:21.998Z</time></trkpt><trkpt lat="45.178712108023355" lon="9.162348424021882"><ele>57.0</ele><time>2026-04-24T09:08:22.998Z</time></trkpt><trkpt lat="45.17866258786364" lon="9.162504921963311"><ele>57.0</ele><time>2026-04-24T09:08:23.998Z</time></trkpt><trkpt lat="45.17860899853136" lon="9.162661543358256"><ele>57.0</ele><time>2026-04-24T09:08:24.998Z</time></trkpt><trkpt lat="45.17855852845865" lon="9.162821359926298"><ele>57.75</ele><time>2026-04-24T09:08:25.998Z</time></trkpt><trkpt lat="45.17850402190828" lon="9.162982584605043"><ele>58.5</ele><time>2026-04-24T09:08:26.998Z</time></trkpt><trkpt lat="45.178446861769835" lon="9.163143219288633"><ele>59.25</ele><time>2026-04-24T09:08:27.998Z</time></trkpt><trkpt lat="45.178391139414956" lon="9.163308486916133"><ele>60.0</ele><time>2026-04-24T09:08:28.998Z</time></trkpt><trkpt lat="45.17833980541845" lon="9.163472240277766"><ele>60.25</ele><time>2026-04-24T09:08:29.998Z</time></trkpt><trkpt lat="45.17828870857858" lon="9.163632828005447"><ele>60.5</ele><time>2026-04-24T09:08:30.998Z</time></trkpt><trkpt lat="45.1782357061767" lon="9.163797318423631"><ele>60.75</ele><time>2026-04-24T09:08:31.998Z</time></trkpt><trkpt lat="45.17818412072258" lon="9.163963255118261"><ele>61.0</ele><time>2026-04-24T09:08:32.998Z</time></trkpt><trkpt lat="45.17812984251978" lon="9.16412315470549"><ele>60.0</ele><time>2026-04-24T09:08:33.998Z</time></trkpt><trkpt lat="45.17807900400539" lon="9.164278994259092"><ele>59.0</ele><time>2026-04-24T09:08:34.998Z</time></trkpt><trkpt lat="45.17803064302243" lon="9.164432365515031"><ele>58.0</ele><time>2026-04-24T09:08:35.998Z</time></trkpt><trkpt lat="45.177979629712524" lon="9.164579421885415"><ele>57.0</ele><time>2026-04-24T09:08:36.998Z</time></trkpt><trkpt lat="45.17793228597891" lon="9.164733292244133"><ele>57.8</ele><time>2026-04-24T09:08:37.998Z</time></trkpt><trkpt lat="45.1778821100007" lon="9.164883001087963"><ele>58.6</ele><time>2026-04-24T09:08:38.998Z</time></trkpt><trkpt lat="45.17783424776396" lon="9.165030796887338"><ele>59.39999999999999</ele><time>2026-04-24T09:08:39.998Z</time></trkpt><trkpt lat="45.17779558724774" lon="9.165176116031075"><ele>60.199999999999996</ele><time>2026-04-24T09:08:40.998Z</time></trkpt><trkpt lat="45.17776225738361" lon="9.165313973230077"><ele>61.0</ele><time>2026-04-24T09:08:41.998Z</time></trkpt><trkpt lat="45.17775599070912" lon="9.165453897761488"><ele>61.0</ele><time>2026-04-24T09:08:42.998Z</time></trkpt><trkpt lat="45.177783680467314" lon="9.165589877740576"><ele>60.99999999999999</ele><time>2026-04-24T09:08:43.998Z</time></trkpt><trkpt lat="45.17783899132274" lon="9.16570895918155"><ele>60.99999999999999</ele><time>2026-04-24T09:08:44.998Z</time></trkpt><trkpt lat="45.17792756256378" lon="9.165775285002553"><ele>61.0</ele><time>2026-04-24T09:08:45.998Z</time></trkpt><trkpt lat="45.178023118008" lon="9.165816291819606"><ele>61.0</ele><time>2026-04-24T09:08:46.998Z</time></trkpt><trkpt lat="45.17811722183147" lon="9.165850931093122"><ele>61.49999999999999</ele><time>2026-04-24T09:08:47.998Z</time></trkpt><trkpt lat="45.17820818756806" lon="9.165880867535755"><ele>62.0</ele><time>2026-04-24T09:08:48.998Z</time></trkpt><trkpt lat="45.178299635515394" lon="9.165913795519407"><ele>62.5</ele><time>2026-04-24T09:08:49.998Z</time></trkpt><trkpt lat="45.17838585938252" lon="9.165961411318474"><ele>63.0</ele><time>2026-04-24T09:08:50.998Z</time></trkpt><trkpt lat="45.17846903154401" lon="9.165983689508218"><ele>63.49999999999999</ele><time>2026-04-24T09:08:51.998Z</time></trkpt><trkpt lat="45.178550809275045" lon="9.166009683820766"><ele>64.0</ele><time>2026-04-24T09:08:52.998Z</time></trkpt><trkpt lat="45.1786303965093" lon="9.166030026229349"><ele>63.99999999999999</ele><time>2026-04-24T09:08:53.998Z</time></trkpt><trkpt lat="45.178712404347955" lon="9.166060299240234"><ele>64.0</ele><time>2026-04-24T09:08:54.998Z</time></trkpt><trkpt lat="45.17879454037551" lon="9.166077130669107"><ele>64.0</ele><time>2026-04-24T09:08:55.998Z</time></trkpt><trkpt lat="45.17887911852699" lon="9.16609343326353"><ele>64.0</ele><time>2026-04-24T09:08:56.998Z</time></trkpt><trkpt lat="45.17895876202435" lon="9.16611227377991"><ele>63.99999999999999</ele><time>2026-04-24T09:08:57.998Z</time></trkpt><trkpt lat="45.179037628856136" lon="9.166127934080627"><ele>64.0</ele><time>2026-04-24T09:08:58.998Z</time></trkpt><trkpt lat="45.17912055467878" lon="9.166146686079816"><ele>64.5</ele><time>2026-04-24T09:08:59.998Z</time></trkpt><trkpt lat="45.17920781350084" lon="9.166166527313978"><ele>65.0</ele><time>2026-04-24T09:09:00.997Z</time></trkpt><trkpt lat="45.1792964730812" lon="9.166195141419331"><ele>65.5</ele><time>2026-04-24T09:09:01.997Z</time></trkpt><trkpt lat="45.179383314565094" lon="9.166230978863414"><ele>66.0</ele><time>2026-04-24T09:09:02.997Z</time></trkpt><trkpt lat="45.17946698180886" lon="9.166251377680862"><ele>66.5</ele><time>2026-04-24T09:09:03.997Z</time></trkpt><trkpt lat="45.17955395659865" lon="9.166270339670074"><ele>67.0</ele><time>2026-04-24T09:09:04.997Z</time></trkpt><trkpt lat="45.179650170113085" lon="9.166285660505142"><ele>67.0</ele><time>2026-04-24T09:09:05.997Z</time></trkpt><trkpt lat="45.17974871488304" lon="9.16632219589393"><ele>67.0</ele><time>2026-04-24T09:09:06.997Z</time></trkpt><trkpt lat="45.179846041164566" lon="9.166359291031048"><ele>67.0</ele><time>2026-04-24T09:09:07.997Z</time></trkpt><trkpt lat="45.1799465331209" lon="9.166391105771968"><ele>67.0</ele><time>2026-04-24T09:09:08.997Z</time></trkpt><trkpt lat="45.18004774480931" lon="9.16642471417414"><ele>67.0</ele><time>2026-04-24T09:09:09.997Z</time></trkpt><trkpt lat="45.18014622489834" lon="9.16643957973997"><ele>67.0</ele><time>2026-04-24T09:09:10.997Z</time></trkpt><trkpt lat="45.1802387518812" lon="9.16646412686385"><ele>67.0</ele><time>2026-04-24T09:09:11.997Z</time></trkpt><trkpt lat="45.180327759492" lon="9.166510635014859"><ele>67.0</ele><time>2026-04-24T09:09:12.997Z</time></trkpt><trkpt lat="45.180417550011505" lon="9.166511561544807"><ele>67.0</ele><time>2026-04-24T09:09:13.997Z</time></trkpt><trkpt lat="45.18049590675488" lon="9.166532349290085"><ele>67.0</ele><time>2026-04-24T09:09:14.997Z</time></trkpt><trkpt lat="45.18056544467798" lon="9.166549185490501"><ele>67.0</ele><time>2026-04-24T09:09:15.997Z</time></trkpt><trkpt lat="45.180628836471605" lon="9.166587469113445"><ele>67.2</ele><time>2026-04-24T09:09:16.997Z</time></trkpt><trkpt lat="45.180709291021095" lon="9.166491063536666"><ele>67.4</ele><time>2026-04-24T09:09:17.997Z</time></trkpt><trkpt lat="45.18077446813246" lon="9.166516059222232"><ele>67.6</ele><time>2026-04-24T09:09:20.997Z</time></trkpt><trkpt lat="45.18088477183577" lon="9.166542140446506"><ele>67.8</ele><time>2026-04-24T09:09:27.997Z</time></trkpt><trkpt lat="45.181013131850456" lon="9.166572491052724"><ele>68.0</ele><time>2026-04-24T09:09:29.997Z</time></trkpt><trkpt lat="45.181097534342285" lon="9.16655106972546"><ele>68.0</ele><time>2026-04-24T09:09:30.997Z</time></trkpt><trkpt lat="45.18110617054856" lon="9.16664673583321"><ele>68.0</ele><time>2026-04-24T09:09:31.997Z</time></trkpt><trkpt lat="45.181140363953176" lon="9.16674038365202"><ele>68.0</ele><time>2026-04-24T09:09:32.997Z</time></trkpt><trkpt lat="45.181185898066616" lon="9.166847470733632"><ele>68.0</ele><time>2026-04-24T09:09:33.997Z</time></trkpt><trkpt lat="45.18119623508503" lon="9.166963711287174"><ele>68.0</ele><time>2026-04-24T09:09:34.997Z</time></trkpt><trkpt lat="45.181206350413596" lon="9.167077491452499"><ele>68.0</ele><time>2026-04-24T09:09:35.997Z</time></trkpt><trkpt lat="45.18121650864555" lon="9.167191822164176"><ele>68.0</ele><time>2026-04-24T09:09:36.997Z</time></trkpt><trkpt lat="45.181226706106095" lon="9.16730276879716"><ele>68.0</ele><time>2026-04-24T09:09:37.997Z</time></trkpt><trkpt lat="45.18130196997814" lon="9.167394635440186"><ele>68.0</ele><time>2026-04-24T09:09:38.997Z</time></trkpt><trkpt lat="45.181308672339966" lon="9.16750472014858"><ele>68.0</ele><time>2026-04-24T09:09:39.997Z</time></trkpt><trkpt lat="45.181322743115345" lon="9.167615237919595"><ele>68.0</ele><time>2026-04-24T09:09:40.997Z</time></trkpt><trkpt lat="45.18133864886917" lon="9.167723160055631"><ele>68.0</ele><time>2026-04-24T09:09:41.997Z</time></trkpt><trkpt lat="45.181355667765594" lon="9.167830818626866"><ele>68.0</ele><time>2026-04-24T09:09:42.997Z</time></trkpt><trkpt lat="45.181373727965116" lon="9.167941597846573"><ele>68.0</ele><time>2026-04-24T09:09:43.997Z</time></trkpt><trkpt lat="45.181407217785456" lon="9.168050372270182"><ele>68.0</ele><time>2026-04-24T09:09:44.997Z</time></trkpt><trkpt lat="45.181421096875404" lon="9.1681672891757"><ele>68.0</ele><time>2026-04-24T09:09:45.997Z</time></trkpt><trkpt lat="45.18142992099119" lon="9.16828644164719"><ele>68.0</ele><time>2026-04-24T09:09:46.997Z</time></trkpt><trkpt lat="45.18144224987734" lon="9.16840761883263"><ele>68.0</ele><time>2026-04-24T09:09:47.997Z</time></trkpt><trkpt lat="45.18145940797901" lon="9.168522468850162"><ele>67.8</ele><time>2026-04-24T09:09:48.997Z</time></trkpt><trkpt lat="45.18147464491147" lon="9.168625029378612"><ele>67.6</ele><time>2026-04-24T09:09:49.997Z</time></trkpt><trkpt lat="45.18150339371363" lon="9.168788484305162"><ele>67.4</ele><time>2026-04-24T09:09:51.997Z</time></trkpt><trkpt lat="45.18152134771759" lon="9.16892402606631"><ele>67.2</ele><time>2026-04-24T09:09:53.997Z</time></trkpt><trkpt lat="45.181541940259265" lon="9.169037226882661"><ele>67.0</ele><time>2026-04-24T09:09:55.997Z</time></trkpt><trkpt lat="45.181543856203916" lon="9.169166698587153"><ele>67.8</ele><time>2026-04-24T09:09:57.997Z</time></trkpt><trkpt lat="45.18156191647246" lon="9.169308022219166"><ele>68.6</ele><time>2026-04-24T09:09:59.997Z</time></trkpt><trkpt lat="45.18158247444677" lon="9.169468890595212"><ele>69.39999999999999</ele><time>2026-04-24T09:10:01.996Z</time></trkpt><trkpt lat="45.18160530792809" lon="9.169640120745685"><ele>70.2</ele><time>2026-04-24T09:10:03.996Z</time></trkpt><trkpt lat="45.181617275019654" lon="9.16973016050854"><ele>71.0</ele><time>2026-04-24T09:10:04.996Z</time></trkpt><trkpt lat="45.181629576823894" lon="9.169822718731945"><ele>70.83333333333334</ele><time>2026-04-24T09:10:05.996Z</time></trkpt><trkpt lat="45.18164442731516" lon="9.16993445336458"><ele>70.66666666666667</ele><time>2026-04-24T09:10:06.996Z</time></trkpt><trkpt lat="45.18165881965821" lon="9.170042740553535"><ele>70.5</ele><time>2026-04-24T09:10:07.996Z</time></trkpt><trkpt lat="45.18167281477241" lon="9.170148039479429"><ele>70.33333333333333</ele><time>2026-04-24T09:10:08.996Z</time></trkpt><trkpt lat="45.18168464582195" lon="9.17023705702197"><ele>70.16666666666666</ele><time>2026-04-24T09:10:09.996Z</time></trkpt><trkpt lat="45.18170164678095" lon="9.170382356414475"><ele>70.0</ele><time>2026-04-24T09:10:11.996Z</time></trkpt><trkpt lat="45.181713351303834" lon="9.17048130147515"><ele>70.0</ele><time>2026-04-24T09:10:13.996Z</time></trkpt><trkpt lat="45.18172660132373" lon="9.170570105612306"><ele>70.0</ele><time>2026-04-24T09:10:18.996Z</time></trkpt><trkpt lat="45.18174240497105" lon="9.170685930619381"><ele>70.0</ele><time>2026-04-24T09:10:39.996Z</time></trkpt><trkpt lat="45.18176777792594" lon="9.170806961946273"><ele>70.0</ele><time>2026-04-24T09:10:41.996Z</time></trkpt><trkpt lat="45.18177049131823" lon="9.17092694288636"><ele>70.0</ele><time>2026-04-24T09:10:42.996Z</time></trkpt><trkpt lat="45.1817826247365" lon="9.171054449524"><ele>70.0</ele><time>2026-04-24T09:10:43.996Z</time></trkpt><trkpt lat="45.18180664556156" lon="9.171179244759001"><ele>70.2</ele><time>2026-04-24T09:10:44.996Z</time></trkpt><trkpt lat="45.18183203136348" lon="9.17131686562236"><ele>70.4</ele><time>2026-04-24T09:10:45.996Z</time></trkpt><trkpt lat="45.18185919677192" lon="9.171464707209713"><ele>70.6</ele><time>2026-04-24T09:10:46.996Z</time></trkpt><trkpt lat="45.18188503992166" lon="9.17162316351011"><ele>70.8</ele><time>2026-04-24T09:10:47.996Z</time></trkpt><trkpt lat="45.18191656868381" lon="9.171796385431536"><ele>71.0</ele><time>2026-04-24T09:10:48.996Z</time></trkpt><trkpt lat="45.18194882372967" lon="9.1719866190439"><ele>71.25</ele><time>2026-04-24T09:10:49.996Z</time></trkpt><trkpt lat="45.18198118341245" lon="9.172189434380709"><ele>71.5</ele><time>2026-04-24T09:10:50.996Z</time></trkpt><trkpt lat="45.18201260134852" lon="9.17238634816951"><ele>71.75</ele><time>2026-04-24T09:10:51.996Z</time></trkpt><trkpt lat="45.182043433833975" lon="9.17257605953511"><ele>72.0</ele><time>2026-04-24T09:10:52.996Z</time></trkpt><trkpt lat="45.182074113940224" lon="9.172766312512282"><ele>72.25</ele><time>2026-04-24T09:10:53.996Z</time></trkpt><trkpt lat="45.182103739696984" lon="9.172950937053121"><ele>72.5</ele><time>2026-04-24T09:10:54.996Z</time></trkpt><trkpt lat="45.18213288806795" lon="9.173132586854843"><ele>72.75</ele><time>2026-04-24T09:10:55.996Z</time></trkpt><trkpt lat="45.18216062622264" lon="9.17330544823293"><ele>73.0</ele><time>2026-04-24T09:10:56.996Z</time></trkpt><trkpt lat="45.18218707396835" lon="9.173470269823067"><ele>73.0</ele><time>2026-04-24T09:10:57.996Z</time></trkpt><trkpt lat="45.18221294495456" lon="9.173627001013557"><ele>73.0</ele><time>2026-04-24T09:10:58.996Z</time></trkpt><trkpt lat="45.18223750916813" lon="9.173779307994304"><ele>73.0</ele><time>2026-04-24T09:10:59.996Z</time></trkpt><trkpt lat="45.18226110121869" lon="9.173930846372846"><ele>73.0</ele><time>2026-04-24T09:11:00.996Z</time></trkpt><trkpt lat="45.182288073029554" lon="9.174068898066748"><ele>73.0</ele><time>2026-04-24T09:11:01.996Z</time></trkpt><trkpt lat="45.18228298260917" lon="9.174202497062707"><ele>73.16666666666666</ele><time>2026-04-24T09:11:02.995Z</time></trkpt><trkpt lat="45.18227426643005" lon="9.174323461178732"><ele>73.33333333333333</ele><time>2026-04-24T09:11:03.995Z</time></trkpt><trkpt lat="45.1822435676181" lon="9.17442348629684"><ele>73.5</ele><time>2026-04-24T09:11:04.995Z</time></trkpt><trkpt lat="45.182227373662144" lon="9.174514047572202"><ele>73.66666666666667</ele><time>2026-04-24T09:11:05.995Z</time></trkpt><trkpt lat="45.18220991859997" lon="9.174610156383096"><ele>73.83333333333334</ele><time>2026-04-24T09:11:06.995Z</time></trkpt><trkpt lat="45.1821907951146" lon="9.1747138316124"><ele>74.0</ele><time>2026-04-24T09:11:07.995Z</time></trkpt><trkpt lat="45.182171238536185" lon="9.174818744174384"><ele>74.4</ele><time>2026-04-24T09:11:08.995Z</time></trkpt><trkpt lat="45.18215322458297" lon="9.174915381471681"><ele>74.80000000000001</ele><time>2026-04-24T09:11:09.995Z</time></trkpt><trkpt lat="45.18212301920251" lon="9.17507742062863"><ele>75.19999999999999</ele><time>2026-04-24T09:11:11.995Z</time></trkpt><trkpt lat="45.182095858343445" lon="9.175223126959217"><ele>75.6</ele><time>2026-04-24T09:11:13.995Z</time></trkpt><trkpt lat="45.182083661550855" lon="9.175377143285747"><ele>76.0</ele><time>2026-04-24T09:11:15.995Z</time></trkpt><trkpt lat="45.182046265192184" lon="9.175554998162845"><ele>76.0</ele><time>2026-04-24T09:11:17.995Z</time></trkpt><trkpt lat="45.18202752589497" lon="9.175662284385645"><ele>76.0</ele><time>2026-04-24T09:11:18.995Z</time></trkpt><trkpt lat="45.18199095057997" lon="9.175779531495605"><ele>76.0</ele><time>2026-04-24T09:11:19.995Z</time></trkpt><trkpt lat="45.18196514660365" lon="9.17591528917084"><ele>76.0</ele><time>2026-04-24T09:11:20.995Z</time></trkpt><trkpt lat="45.181957516292684" lon="9.176064958403801"><ele>76.0</ele><time>2026-04-24T09:11:21.995Z</time></trkpt><trkpt lat="45.181929023130564" lon="9.17621206042769"><ele>76.0</ele><time>2026-04-24T09:11:22.995Z</time></trkpt><trkpt lat="45.18190247885804" lon="9.176367026188641"><ele>76.0</ele><time>2026-04-24T09:11:23.995Z</time></trkpt><trkpt lat="45.18187647378767" lon="9.176519183316067"><ele>76.0</ele><time>2026-04-24T09:11:24.995Z</time></trkpt><trkpt lat="45.18184569088073" lon="9.176673270019299"><ele>76.0</ele><time>2026-04-24T09:11:25.995Z</time></trkpt><trkpt lat="45.18181487395466" lon="9.17683471464725"><ele>76.0</ele><time>2026-04-24T09:11:26.995Z</time></trkpt><trkpt lat="45.18178099576042" lon="9.177002537855994"><ele>76.0</ele><time>2026-04-24T09:11:27.995Z</time></trkpt><trkpt lat="45.181745637502786" lon="9.177174605548128"><ele>76.0</ele><time>2026-04-24T09:11:28.995Z</time></trkpt><trkpt lat="45.18170919323326" lon="9.177353157198102"><ele>76.0</ele><time>2026-04-24T09:11:29.995Z</time></trkpt><trkpt lat="45.181676744754924" lon="9.177532765547483"><ele>75.5</ele><time>2026-04-24T09:11:30.995Z</time></trkpt><trkpt lat="45.18164430039632" lon="9.177710606159573"><ele>75.0</ele><time>2026-04-24T09:11:31.995Z</time></trkpt><trkpt lat="45.18161017881024" lon="9.177889836466363"><ele>74.5</ele><time>2026-04-24T09:11:32.995Z</time></trkpt><trkpt lat="45.181582158171686" lon="9.178070815351191"><ele>74.0</ele><time>2026-04-24T09:11:33.995Z</time></trkpt><trkpt lat="45.18155042010119" lon="9.178246728693031"><ele>73.75</ele><time>2026-04-24T09:11:34.995Z</time></trkpt><trkpt lat="45.18151920876758" lon="9.178415812252728"><ele>73.5</ele><time>2026-04-24T09:11:35.995Z</time></trkpt><trkpt lat="45.181486543347795" lon="9.178582157175551"><ele>73.25</ele><time>2026-04-24T09:11:36.995Z</time></trkpt><trkpt lat="45.18145829302908" lon="9.178746481943755"><ele>73.0</ele><time>2026-04-24T09:11:37.995Z</time></trkpt><trkpt lat="45.18143035613735" lon="9.178904226895073"><ele>74.0</ele><time>2026-04-24T09:11:38.995Z</time></trkpt><trkpt lat="45.18140005966488" lon="9.179064985387642"><ele>75.0</ele><time>2026-04-24T09:11:39.995Z</time></trkpt><trkpt lat="45.18136795675957" lon="9.179229273675553"><ele>76.0</ele><time>2026-04-24T09:11:40.995Z</time></trkpt><trkpt lat="45.18134059129234" lon="9.179397778258227"><ele>77.0</ele><time>2026-04-24T09:11:41.995Z</time></trkpt><trkpt lat="45.18130948214319" lon="9.179565919692095"><ele>77.0</ele><time>2026-04-24T09:11:42.995Z</time></trkpt><trkpt lat="45.18127879017321" lon="9.179738888861563"><ele>77.0</ele><time>2026-04-24T09:11:43.995Z</time></trkpt><trkpt lat="45.181251594118706" lon="9.17991052569508"><ele>77.0</ele><time>2026-04-24T09:11:44.995Z</time></trkpt><trkpt lat="45.18121916755821" lon="9.180079863487109"><ele>77.0</ele><time>2026-04-24T09:11:45.995Z</time></trkpt><trkpt lat="45.18118552342195" lon="9.180245727935718"><ele>77.0</ele><time>2026-04-24T09:11:46.995Z</time></trkpt><trkpt lat="45.18115470347758" lon="9.180410303491048"><ele>77.0</ele><time>2026-04-24T09:11:47.995Z</time></trkpt><trkpt lat="45.18112137463399" lon="9.18057301856972"><ele>77.0</ele><time>2026-04-24T09:11:48.995Z</time></trkpt><trkpt lat="45.18108723113972" lon="9.180728606426465"><ele>77.0</ele><time>2026-04-24T09:11:49.995Z</time></trkpt><trkpt lat="45.18106042357622" lon="9.180872608793202"><ele>77.0</ele><time>2026-04-24T09:11:50.995Z</time></trkpt><trkpt lat="45.18103517932457" lon="9.181000259742572"><ele>77.0</ele><time>2026-04-24T09:11:51.995Z</time></trkpt><trkpt lat="45.18101459776258" lon="9.18112253051714"><ele>77.0</ele><time>2026-04-24T09:11:52.995Z</time></trkpt><trkpt lat="45.180989521872156" lon="9.181239576907116"><ele>77.0</ele><time>2026-04-24T09:11:53.995Z</time></trkpt><trkpt lat="45.18095740553095" lon="9.181363041920948"><ele>77.0</ele><time>2026-04-24T09:11:54.995Z</time></trkpt><trkpt lat="45.18088631040587" lon="9.181479457250777"><ele>77.0</ele><time>2026-04-24T09:11:55.995Z</time></trkpt><trkpt lat="45.18084092409733" lon="9.18162140909695"><ele>77.0</ele><time>2026-04-24T09:11:56.995Z</time></trkpt><trkpt lat="45.18080309217042" lon="9.181770124084924"><ele>77.0</ele><time>2026-04-24T09:11:57.995Z</time></trkpt><trkpt lat="45.18076892189012" lon="9.181923241828471"><ele>77.0</ele><time>2026-04-24T09:11:58.995Z</time></trkpt><trkpt lat="45.180736487987865" lon="9.182080035220924"><ele>77.0</ele><time>2026-04-24T09:11:59.995Z</time></trkpt><trkpt lat="45.180708385918116" lon="9.182238125861117"><ele>77.0</ele><time>2026-04-24T09:12:00.995Z</time></trkpt><trkpt lat="45.180681550629664" lon="9.182397518118876"><ele>77.0</ele><time>2026-04-24T09:12:01.995Z</time></trkpt><trkpt lat="45.18065460846036" lon="9.18255863386032"><ele>77.0</ele><time>2026-04-24T09:12:02.995Z</time></trkpt><trkpt lat="45.180628089824964" lon="9.182717218448639"><ele>76.2</ele><time>2026-04-24T09:12:03.995Z</time></trkpt><trkpt lat="45.180603310206585" lon="9.182861249857137"><ele>75.4</ele><time>2026-04-24T09:12:04.994Z</time></trkpt><trkpt lat="45.18057875093681" lon="9.183004426431053"><ele>74.6</ele><time>2026-04-24T09:12:05.994Z</time></trkpt><trkpt lat="45.180554439831454" lon="9.183147132041322"><ele>73.8</ele><time>2026-04-24T09:12:06.994Z</time></trkpt><trkpt lat="45.18053083383005" lon="9.183285698776162"><ele>73.0</ele><time>2026-04-24T09:12:07.994Z</time></trkpt><trkpt lat="45.180506778428175" lon="9.183426903586996"><ele>72.8</ele><time>2026-04-24T09:12:08.994Z</time></trkpt><trkpt lat="45.1804804633985" lon="9.183581372115365"><ele>72.6</ele><time>2026-04-24T09:12:09.994Z</time></trkpt><trkpt lat="45.18045426041073" lon="9.183736466254569"><ele>72.4</ele><time>2026-04-24T09:12:10.994Z</time></trkpt><trkpt lat="45.18042872834594" lon="9.183887862105003"><ele>72.2</ele><time>2026-04-24T09:12:11.994Z</time></trkpt><trkpt lat="45.18040364049841" lon="9.184038088578996"><ele>72.0</ele><time>2026-04-24T09:12:12.994Z</time></trkpt><trkpt lat="45.18037777022687" lon="9.184192564942645"><ele>71.6</ele><time>2026-04-24T09:12:13.994Z</time></trkpt><trkpt lat="45.180351514787304" lon="9.184348607548763"><ele>71.2</ele><time>2026-04-24T09:12:14.994Z</time></trkpt><trkpt lat="45.18032607905338" lon="9.184499714649279"><ele>70.8</ele><time>2026-04-24T09:12:15.994Z</time></trkpt><trkpt lat="45.18030131026278" lon="9.184650631819771"><ele>70.4</ele><time>2026-04-24T09:12:16.994Z</time></trkpt><trkpt lat="45.18027505127841" lon="9.18480636287727"><ele>70.0</ele><time>2026-04-24T09:12:17.994Z</time></trkpt><trkpt lat="45.18024761421011" lon="9.184969082358384"><ele>69.8</ele><time>2026-04-24T09:12:18.994Z</time></trkpt><trkpt lat="45.18022155270639" lon="9.18512528677896"><ele>69.6</ele><time>2026-04-24T09:12:19.994Z</time></trkpt><trkpt lat="45.18019699756356" lon="9.185272251061441"><ele>69.4</ele><time>2026-04-24T09:12:20.994Z</time></trkpt><trkpt lat="45.18017300790927" lon="9.185418795779889"><ele>69.2</ele><time>2026-04-24T09:12:21.994Z</time></trkpt><trkpt lat="45.18014676235218" lon="9.18557367676413"><ele>69.0</ele><time>2026-04-24T09:12:22.994Z</time></trkpt><trkpt lat="45.18012215793511" lon="9.18572040946951"><ele>68.5</ele><time>2026-04-24T09:12:23.994Z</time></trkpt><trkpt lat="45.18009969865836" lon="9.18585435343724"><ele>68.0</ele><time>2026-04-24T09:12:24.994Z</time></trkpt><trkpt lat="45.18007860452869" lon="9.18598177459053"><ele>67.5</ele><time>2026-04-24T09:12:25.994Z</time></trkpt><trkpt lat="45.180059584469795" lon="9.18609622159792"><ele>67.0</ele><time>2026-04-24T09:12:26.994Z</time></trkpt><trkpt lat="45.18004176133264" lon="9.186203471873398"><ele>66.5</ele><time>2026-04-24T09:12:27.994Z</time></trkpt><trkpt lat="45.180023473034815" lon="9.186313274131921"><ele>66.0</ele><time>2026-04-24T09:12:28.994Z</time></trkpt><trkpt lat="45.180006513756055" lon="9.186415190361544"><ele>66.14285714285714</ele><time>2026-04-24T09:12:29.994Z</time></trkpt><trkpt lat="45.180004354987084" lon="9.186522819197931"><ele>66.28571428571429</ele><time>2026-04-24T09:12:30.994Z</time></trkpt><trkpt lat="45.17998346268443" lon="9.186626443591132"><ele>66.42857142857143</ele><time>2026-04-24T09:12:31.994Z</time></trkpt><trkpt lat="45.179962627032744" lon="9.186724784200559"><ele>66.57142857142857</ele><time>2026-04-24T09:12:32.994Z</time></trkpt><trkpt lat="45.179941878992224" lon="9.186819209031563"><ele>66.71428571428571</ele><time>2026-04-24T09:12:33.994Z</time></trkpt><trkpt lat="45.17992227251682" lon="9.186918750250411"><ele>66.85714285714286</ele><time>2026-04-24T09:12:34.994Z</time></trkpt><trkpt lat="45.17990125617323" lon="9.187022680372824"><ele>67.0</ele><time>2026-04-24T09:12:35.994Z</time></trkpt><trkpt lat="45.1798811168435" lon="9.187129253565674"><ele>67.0</ele><time>2026-04-24T09:12:36.994Z</time></trkpt><trkpt lat="45.179863594382695" lon="9.187239298341439"><ele>67.0</ele><time>2026-04-24T09:12:37.994Z</time></trkpt><trkpt lat="45.17984465803146" lon="9.187351790804342"><ele>67.0</ele><time>2026-04-24T09:12:39Z</time></trkpt><trkpt lat="45.179824965395795" lon="9.187469795243395"><ele>67.0</ele><time>2026-04-24T09:12:40Z</time></trkpt><trkpt lat="45.1798064962219" lon="9.18759163930722"><ele>67.0</ele><time>2026-04-24T09:12:41Z</time></trkpt><trkpt lat="45.17978801221455" lon="9.18770641072674"><ele>67.0</ele><time>2026-04-24T09:12:42Z</time></trkpt><trkpt lat="45.1797667541393" lon="9.187817484527889"><ele>66.83333333333333</ele><time>2026-04-24T09:12:43Z</time></trkpt><trkpt lat="45.179748094356974" lon="9.187931817865293"><ele>66.66666666666666</ele><time>2026-04-24T09:12:44Z</time></trkpt><trkpt lat="45.17972841580853" lon="9.188046474823034"><ele>66.5</ele><time>2026-04-24T09:12:45Z</time></trkpt><trkpt lat="45.179705969672746" lon="9.188162260664706"><ele>66.33333333333333</ele><time>2026-04-24T09:12:46Z</time></trkpt><trkpt lat="45.17968482804339" lon="9.188283017167732"><ele>66.16666666666667</ele><time>2026-04-24T09:12:47Z</time></trkpt><trkpt lat="45.179656736117764" lon="9.188405223008886"><ele>66.0</ele><time>2026-04-24T09:12:48Z</time></trkpt><trkpt lat="45.179630530423786" lon="9.18852998192258"><ele>66.0</ele><time>2026-04-24T09:12:49Z</time></trkpt><trkpt lat="45.17960537254302" lon="9.18865730171019"><ele>66.0</ele><time>2026-04-24T09:12:50Z</time></trkpt><trkpt lat="45.17958506496147" lon="9.188788955575218"><ele>66.0</ele><time>2026-04-24T09:12:51Z</time></trkpt><trkpt lat="45.1795622454752" lon="9.188921045552245"><ele>66.0</ele><time>2026-04-24T09:12:52Z</time></trkpt><trkpt lat="45.1795370247813" lon="9.189055096489597"><ele>66.0</ele><time>2026-04-24T09:12:53Z</time></trkpt><trkpt lat="45.17951458335175" lon="9.189189805370285"><ele>66.0</ele><time>2026-04-24T09:12:54Z</time></trkpt><trkpt lat="45.179489121602444" lon="9.189320846392555"><ele>66.0</ele><time>2026-04-24T09:12:55Z</time></trkpt><trkpt lat="45.17946076129" lon="9.18944807135553"><ele>66.0</ele><time>2026-04-24T09:12:56Z</time></trkpt><trkpt lat="45.179435330314206" lon="9.189579202613436"><ele>66.0</ele><time>2026-04-24T09:12:57Z</time></trkpt><trkpt lat="45.17940591455207" lon="9.189711480861172"><ele>66.0</ele><time>2026-04-24T09:12:58Z</time></trkpt><trkpt lat="45.17937444914685" lon="9.189844742745292"><ele>66.0</ele><time>2026-04-24T09:12:59Z</time></trkpt><trkpt lat="45.179338272567094" lon="9.18996997276749"><ele>66.0</ele><time>2026-04-24T09:13:00Z</time></trkpt><trkpt lat="45.17930847105587" lon="9.190081276668918"><ele>66.0</ele><time>2026-04-24T09:13:01Z</time></trkpt><trkpt lat="45.17928028487524" lon="9.190189781176313"><ele>66.0</ele><time>2026-04-24T09:13:02Z</time></trkpt><trkpt lat="45.17925137535061" lon="9.190302480960343"><ele>66.0</ele><time>2026-04-24T09:13:03Z</time></trkpt><trkpt lat="45.17922201267514" lon="9.190421992548652"><ele>66.0</ele><time>2026-04-24T09:13:04Z</time></trkpt><trkpt lat="45.17920166388301" lon="9.190549676999806"><ele>66.39999999999999</ele><time>2026-04-24T09:13:05Z</time></trkpt><trkpt lat="45.17918096482827" lon="9.190685512731724"><ele>66.8</ele><time>2026-04-24T09:13:06Z</time></trkpt><trkpt lat="45.179156968076875" lon="9.190825467521666"><ele>67.19999999999999</ele><time>2026-04-24T09:13:07Z</time></trkpt><trkpt lat="45.17913159029934" lon="9.190967654435264"><ele>67.6</ele><time>2026-04-24T09:13:08Z</time></trkpt><trkpt lat="45.179107196582024" lon="9.191107764427002"><ele>68.0</ele><time>2026-04-24T09:13:09Z</time></trkpt><trkpt lat="45.17908437331291" lon="9.19124472837721"><ele>68.0</ele><time>2026-04-24T09:13:10Z</time></trkpt><trkpt lat="45.17906253778842" lon="9.191380264337177"><ele>68.0</ele><time>2026-04-24T09:13:11Z</time></trkpt><trkpt lat="45.17903890439393" lon="9.191516777664127"><ele>68.0</ele><time>2026-04-24T09:13:12Z</time></trkpt><trkpt lat="45.179012688357396" lon="9.191652913896343"><ele>68.0</ele><time>2026-04-24T09:13:13Z</time></trkpt><trkpt lat="45.17898325509316" lon="9.191791267956738"><ele>68.0</ele><time>2026-04-24T09:13:14Z</time></trkpt><trkpt lat="45.17895587814757" lon="9.191931358117834"><ele>68.0</ele><time>2026-04-24T09:13:15Z</time></trkpt><trkpt lat="45.17892717963221" lon="9.192072850128742"><ele>68.0</ele><time>2026-04-24T09:13:16Z</time></trkpt><trkpt lat="45.17890074863953" lon="9.192216363950786"><ele>68.0</ele><time>2026-04-24T09:13:17Z</time></trkpt><trkpt lat="45.17887243279601" lon="9.192360844480286"><ele>68.0</ele><time>2026-04-24T09:13:18Z</time></trkpt><trkpt lat="45.17884587693694" lon="9.192506015218918"><ele>68.0</ele><time>2026-04-24T09:13:19Z</time></trkpt><trkpt lat="45.178819902776304" lon="9.192656143027868"><ele>67.8</ele><time>2026-04-24T09:13:20Z</time></trkpt><trkpt lat="45.17878996219441" lon="9.192803641754717"><ele>67.6</ele><time>2026-04-24T09:13:21Z</time></trkpt><trkpt lat="45.17876051814947" lon="9.192952246713034"><ele>67.4</ele><time>2026-04-24T09:13:22Z</time></trkpt><trkpt lat="45.17873405884415" lon="9.193102338675281"><ele>67.2</ele><time>2026-04-24T09:13:23Z</time></trkpt><trkpt lat="45.17870163540734" lon="9.193249670587479"><ele>67.0</ele><time>2026-04-24T09:13:24Z</time></trkpt><trkpt lat="45.1786720388085" lon="9.193402193192966"><ele>66.75</ele><time>2026-04-24T09:13:25Z</time></trkpt><trkpt lat="45.17864170782487" lon="9.193557341660643"><ele>66.5</ele><time>2026-04-24T09:13:26Z</time></trkpt><trkpt lat="45.17860374024982" lon="9.193707632970948"><ele>66.25</ele><time>2026-04-24T09:13:27Z</time></trkpt><trkpt lat="45.1785667889509" lon="9.193863453487976"><ele>66.0</ele><time>2026-04-24T09:13:28Z</time></trkpt><trkpt lat="45.178532849775245" lon="9.19402149598701"><ele>66.0</ele><time>2026-04-24T09:13:29Z</time></trkpt><trkpt lat="45.17849146900163" lon="9.194175192050865"><ele>66.0</ele><time>2026-04-24T09:13:30Z</time></trkpt><trkpt lat="45.17845363721929" lon="9.194333531800432"><ele>66.0</ele><time>2026-04-24T09:13:31Z</time></trkpt><trkpt lat="45.17839572912416" lon="9.194476993564809"><ele>66.0</ele><time>2026-04-24T09:13:32Z</time></trkpt><trkpt lat="45.17835031531207" lon="9.194626328992726"><ele>66.0</ele><time>2026-04-24T09:13:33Z</time></trkpt><trkpt lat="45.17830407868323" lon="9.194778776168226"><ele>66.0</ele><time>2026-04-24T09:13:34Z</time></trkpt><trkpt lat="45.1782572543591" lon="9.194939939860394"><ele>66.0</ele><time>2026-04-24T09:13:35Z</time></trkpt><trkpt lat="45.17821824861512" lon="9.195111656923324"><ele>66.0</ele><time>2026-04-24T09:13:36Z</time></trkpt><trkpt lat="45.17819537122064" lon="9.19528568501086"><ele>66.0</ele><time>2026-04-24T09:13:37Z</time></trkpt><trkpt lat="45.17817385394445" lon="9.195464783673224"><ele>66.0</ele><time>2026-04-24T09:13:37.999Z</time></trkpt><trkpt lat="45.17815138264483" lon="9.195651627777572"><ele>66.0</ele><time>2026-04-24T09:13:38.999Z</time></trkpt><trkpt lat="45.178129301876574" lon="9.195838760083314"><ele>66.0</ele><time>2026-04-24T09:13:39.999Z</time></trkpt><trkpt lat="45.17810783745297" lon="9.19602066894706"><ele>66.0</ele><time>2026-04-24T09:13:40.999Z</time></trkpt><trkpt lat="45.1780861249102" lon="9.196204679970013"><ele>66.0</ele><time>2026-04-24T09:13:41.999Z</time></trkpt><trkpt lat="45.178063875575155" lon="9.196390595972392"><ele>66.0</ele><time>2026-04-24T09:13:42.999Z</time></trkpt><trkpt lat="45.17804223319012" lon="9.196573660541997"><ele>66.0</ele><time>2026-04-24T09:13:43.999Z</time></trkpt><trkpt lat="45.17802069061077" lon="9.19675616490827"><ele>66.25</ele><time>2026-04-24T09:13:44.999Z</time></trkpt><trkpt lat="45.17799958398336" lon="9.1969349759952"><ele>66.5</ele><time>2026-04-24T09:13:45.999Z</time></trkpt><trkpt lat="45.177979725674696" lon="9.197113367126784"><ele>66.75</ele><time>2026-04-24T09:13:46.999Z</time></trkpt><trkpt lat="45.177959990957106" lon="9.19729480409125"><ele>67.0</ele><time>2026-04-24T09:13:47.999Z</time></trkpt><trkpt lat="45.17794045422527" lon="9.19747442024544"><ele>67.75</ele><time>2026-04-24T09:13:48.999Z</time></trkpt><trkpt lat="45.17792121762921" lon="9.197651380821783"><ele>68.5</ele><time>2026-04-24T09:13:49.999Z</time></trkpt><trkpt lat="45.177902408111706" lon="9.19782439419239"><ele>69.25</ele><time>2026-04-24T09:13:50.999Z</time></trkpt><trkpt lat="45.177883765255935" lon="9.197995874624777"><ele>70.0</ele><time>2026-04-24T09:13:51.999Z</time></trkpt><trkpt lat="45.17787996826424" lon="9.198170317301502"><ele>71.25</ele><time>2026-04-24T09:13:52.999Z</time></trkpt><trkpt lat="45.17784712652775" lon="9.19833288436804"><ele>72.5</ele><time>2026-04-24T09:13:53.999Z</time></trkpt><trkpt lat="45.17782944043731" lon="9.198495564252893"><ele>73.75</ele><time>2026-04-24T09:13:54.999Z</time></trkpt><trkpt lat="45.17781148305083" lon="9.198659734681911"><ele>75.0</ele><time>2026-04-24T09:13:55.999Z</time></trkpt><trkpt lat="45.17779397550983" lon="9.198819665184141"><ele>75.0</ele><time>2026-04-24T09:13:56.999Z</time></trkpt><trkpt lat="45.17777710153624" lon="9.198973808025448"><ele>75.0</ele><time>2026-04-24T09:13:57.999Z</time></trkpt><trkpt lat="45.17776189706804" lon="9.199112700061827"><ele>75.0</ele><time>2026-04-24T09:13:58.999Z</time></trkpt><trkpt lat="45.177747243054675" lon="9.199246563669506"><ele>75.0</ele><time>2026-04-24T09:13:59.999Z</time></trkpt><trkpt lat="45.177733022277245" lon="9.199376469691703"><ele>75.0</ele><time>2026-04-24T09:14:00.999Z</time></trkpt><trkpt lat="45.17771910246618" lon="9.199503626421604"><ele>75.2</ele><time>2026-04-24T09:14:01.999Z</time></trkpt><trkpt lat="45.17770511052448" lon="9.199631442046627"><ele>75.4</ele><time>2026-04-24T09:14:02.999Z</time></trkpt><trkpt lat="45.17769099137539" lon="9.199760419695824"><ele>75.6</ele><time>2026-04-24T09:14:03.999Z</time></trkpt><trkpt lat="45.17767682762857" lon="9.199889804773337"><ele>75.8</ele><time>2026-04-24T09:14:04.999Z</time></trkpt><trkpt lat="45.1776628897424" lon="9.200017126453151"><ele>76.0</ele><time>2026-04-24T09:14:05.999Z</time></trkpt><trkpt lat="45.17764828363627" lon="9.200145279317136"><ele>76.0</ele><time>2026-04-24T09:14:06.999Z</time></trkpt><trkpt lat="45.17763284926333" lon="9.200276860763365"><ele>76.0</ele><time>2026-04-24T09:14:07.999Z</time></trkpt><trkpt lat="45.17762891432185" lon="9.20041567158904"><ele>76.0</ele><time>2026-04-24T09:14:08.999Z</time></trkpt><trkpt lat="45.17761120937141" lon="9.200553870630035"><ele>76.0</ele><time>2026-04-24T09:14:09.999Z</time></trkpt><trkpt lat="45.17759826771381" lon="9.200692381046471"><ele>76.0</ele><time>2026-04-24T09:14:10.999Z</time></trkpt><trkpt lat="45.17758144005958" lon="9.200822816266045"><ele>76.0</ele><time>2026-04-24T09:14:11.999Z</time></trkpt><trkpt lat="45.17756541755519" lon="9.200945102598347"><ele>76.0</ele><time>2026-04-24T09:14:12.999Z</time></trkpt><trkpt lat="45.17754707979235" lon="9.201068789835306"><ele>76.0</ele><time>2026-04-24T09:14:13.999Z</time></trkpt><trkpt lat="45.17753339746855" lon="9.201197638810434"><ele>76.0</ele><time>2026-04-24T09:14:14.999Z</time></trkpt><trkpt lat="45.17751940752122" lon="9.201328538841981"><ele>76.0</ele><time>2026-04-24T09:14:15.999Z</time></trkpt><trkpt lat="45.17751092783758" lon="9.201462911489001"><ele>76.0</ele><time>2026-04-24T09:14:16.999Z</time></trkpt><trkpt lat="45.17749215250164" lon="9.201591033296163"><ele>76.0</ele><time>2026-04-24T09:14:17.999Z</time></trkpt><trkpt lat="45.177473907085606" lon="9.20172034938842"><ele>76.0</ele><time>2026-04-24T09:14:18.999Z</time></trkpt><trkpt lat="45.17746046960186" lon="9.201851127644943"><ele>76.0</ele><time>2026-04-24T09:14:19.999Z</time></trkpt><trkpt lat="45.17744016734372" lon="9.201979720999763"><ele>76.0</ele><time>2026-04-24T09:14:20.999Z</time></trkpt><trkpt lat="45.17742329849326" lon="9.202109578492989"><ele>76.0</ele><time>2026-04-24T09:14:21.999Z</time></trkpt><trkpt lat="45.17740682431728" lon="9.202231683454904"><ele>76.0</ele><time>2026-04-24T09:14:22.999Z</time></trkpt><trkpt lat="45.17739205253787" lon="9.202354384362856"><ele>76.0</ele><time>2026-04-24T09:14:23.999Z</time></trkpt><trkpt lat="45.177375948496824" lon="9.202479086059677"><ele>76.0</ele><time>2026-04-24T09:14:24.999Z</time></trkpt><trkpt lat="45.17736143171226" lon="9.202604098928624"><ele>76.0</ele><time>2026-04-24T09:14:25.999Z</time></trkpt><trkpt lat="45.17734737794522" lon="9.202729391538103"><ele>76.0</ele><time>2026-04-24T09:14:26.999Z</time></trkpt><trkpt lat="45.1773367607233" lon="9.202856016607972"><ele>76.0</ele><time>2026-04-24T09:14:27.999Z</time></trkpt><trkpt lat="45.177322276600584" lon="9.202985906147676"><ele>76.0</ele><time>2026-04-24T09:14:28.999Z</time></trkpt><trkpt lat="45.17730459323047" lon="9.203114552049303"><ele>76.0</ele><time>2026-04-24T09:14:29.999Z</time></trkpt><trkpt lat="45.17729095019989" lon="9.20324402885433"><ele>76.0</ele><time>2026-04-24T09:14:30.999Z</time></trkpt><trkpt lat="45.17727589353293" lon="9.203376023111637"><ele>76.0</ele><time>2026-04-24T09:14:31.999Z</time></trkpt><trkpt lat="45.17725830725028" lon="9.203506558276933"><ele>75.6</ele><time>2026-04-24T09:14:32.999Z</time></trkpt><trkpt lat="45.17723978095579" lon="9.20363656201509"><ele>75.19999999999999</ele><time>2026-04-24T09:14:33.999Z</time></trkpt><trkpt lat="45.17722392186826" lon="9.203770304633073"><ele>74.80000000000001</ele><time>2026-04-24T09:14:34.999Z</time></trkpt><trkpt lat="45.17720772043979" lon="9.203905596500586"><ele>74.4</ele><time>2026-04-24T09:14:35.999Z</time></trkpt><trkpt lat="45.17719551540279" lon="9.204042676834588"><ele>74.0</ele><time>2026-04-24T09:14:36.999Z</time></trkpt><trkpt lat="45.17716544683537" lon="9.204176749963839"><ele>74.0</ele><time>2026-04-24T09:14:37.999Z</time></trkpt><trkpt lat="45.1771475559317" lon="9.204315462951836"><ele>74.0</ele><time>2026-04-24T09:14:38.999Z</time></trkpt><trkpt lat="45.17714432462497" lon="9.204458106625989"><ele>74.0</ele><time>2026-04-24T09:14:39.999Z</time></trkpt><trkpt lat="45.17712158468159" lon="9.204596483164321"><ele>74.0</ele><time>2026-04-24T09:14:40.999Z</time></trkpt><trkpt lat="45.17710248513404" lon="9.204735773294132"><ele>74.0</ele><time>2026-04-24T09:14:41.998Z</time></trkpt><trkpt lat="45.17708064308339" lon="9.204875794968027"><ele>74.0</ele><time>2026-04-24T09:14:42.999Z</time></trkpt><trkpt lat="45.17706346912833" lon="9.205016981120561"><ele>74.0</ele><time>2026-04-24T09:14:43.998Z</time></trkpt><trkpt lat="45.177046103507216" lon="9.20515968673859"><ele>74.0</ele><time>2026-04-24T09:14:44.998Z</time></trkpt><trkpt lat="45.17702861632855" lon="9.205300503825544"><ele>74.0</ele><time>2026-04-24T09:14:45.998Z</time></trkpt><trkpt lat="45.17700861455839" lon="9.205443336337494"><ele>74.0</ele><time>2026-04-24T09:14:46.998Z</time></trkpt><trkpt lat="45.17699280561111" lon="9.205587619200136"><ele>74.2</ele><time>2026-04-24T09:14:47.998Z</time></trkpt><trkpt lat="45.176972417236826" lon="9.205729565228724"><ele>74.4</ele><time>2026-04-24T09:14:48.998Z</time></trkpt><trkpt lat="45.176953745729776" lon="9.205870794528144"><ele>74.6</ele><time>2026-04-24T09:14:49.998Z</time></trkpt><trkpt lat="45.17693378219411" lon="9.20601045500102"><ele>74.8</ele><time>2026-04-24T09:14:50.998Z</time></trkpt><trkpt lat="45.17691140122916" lon="9.20614940029886"><ele>75.0</ele><time>2026-04-24T09:14:51.998Z</time></trkpt><trkpt lat="45.17689235944525" lon="9.20628697121786"><ele>75.0</ele><time>2026-04-24T09:14:52.998Z</time></trkpt><trkpt lat="45.17687206990517" lon="9.20642122175254"><ele>75.0</ele><time>2026-04-24T09:14:53.998Z</time></trkpt><trkpt lat="45.17685601012513" lon="9.206555495206988"><ele>75.0</ele><time>2026-04-24T09:14:54.998Z</time></trkpt><trkpt lat="45.17683847405772" lon="9.20668629335957"><ele>75.0</ele><time>2026-04-24T09:14:55.998Z</time></trkpt><trkpt lat="45.17682247578288" lon="9.206812455925112"><ele>75.0</ele><time>2026-04-24T09:14:56.998Z</time></trkpt><trkpt lat="45.17680774765246" lon="9.206933309900977"><ele>75.2</ele><time>2026-04-24T09:14:57.998Z</time></trkpt><trkpt lat="45.176787369091784" lon="9.20704660898323"><ele>75.4</ele><time>2026-04-24T09:14:58.998Z</time></trkpt><trkpt lat="45.17676371575444" lon="9.20714644640271"><ele>75.6</ele><time>2026-04-24T09:14:59.998Z</time></trkpt><trkpt lat="45.17670628998582" lon="9.207291798882729"><ele>75.8</ele><time>2026-04-24T09:15:01.998Z</time></trkpt><trkpt lat="45.17664160713342" lon="9.207404979857717"><ele>76.0</ele><time>2026-04-24T09:15:03.998Z</time></trkpt><trkpt lat="45.17657745716395" lon="9.207492194724242"><ele>76.5</ele><time>2026-04-24T09:15:05.998Z</time></trkpt><trkpt lat="45.176498970125884" lon="9.20760461667954"><ele>77.0</ele><time>2026-04-24T09:15:07.998Z</time></trkpt><trkpt lat="45.17645664411052" lon="9.20768421758756"><ele>77.5</ele><time>2026-04-24T09:15:08.998Z</time></trkpt><trkpt lat="45.17641672824741" lon="9.207781379242451"><ele>78.0</ele><time>2026-04-24T09:15:09.998Z</time></trkpt><trkpt lat="45.17638766459186" lon="9.207898590625943"><ele>78.5</ele><time>2026-04-24T09:15:10.998Z</time></trkpt><trkpt lat="45.17639099044309" lon="9.208029938448911"><ele>79.0</ele><time>2026-04-24T09:15:11.998Z</time></trkpt><trkpt lat="45.17640292447773" lon="9.208151564438486"><ele>79.2</ele><time>2026-04-24T09:15:12.998Z</time></trkpt><trkpt lat="45.17643621063639" lon="9.20827550517379"><ele>79.4</ele><time>2026-04-24T09:15:13.998Z</time></trkpt><trkpt lat="45.1764707468561" lon="9.208425465187904"><ele>79.6</ele><time>2026-04-24T09:15:14.998Z</time></trkpt><trkpt lat="45.17649433966904" lon="9.20857421147011"><ele>79.8</ele><time>2026-04-24T09:15:15.998Z</time></trkpt><trkpt lat="45.17646695695195" lon="9.208755038116433"><ele>80.0</ele><time>2026-04-24T09:15:16.998Z</time></trkpt><trkpt lat="45.17644659507657" lon="9.208946816370519"><ele>79.75</ele><time>2026-04-24T09:15:17.998Z</time></trkpt><trkpt lat="45.17641740391664" lon="9.209148001385419"><ele>79.5</ele><time>2026-04-24T09:15:18.998Z</time></trkpt><trkpt lat="45.17638546922302" lon="9.209352456502357"><ele>79.25</ele><time>2026-04-24T09:15:19.998Z</time></trkpt><trkpt lat="45.17635681012135" lon="9.209561691934068"><ele>79.0</ele><time>2026-04-24T09:15:20.998Z</time></trkpt><trkpt lat="45.17633109652023" lon="9.20978236503859"><ele>78.66666666666666</ele><time>2026-04-24T09:15:21.998Z</time></trkpt><trkpt lat="45.17631837019987" lon="9.210005422715513"><ele>78.33333333333333</ele><time>2026-04-24T09:15:22.998Z</time></trkpt><trkpt lat="45.17629137017262" lon="9.210221602792332"><ele>78.0</ele><time>2026-04-24T09:15:23.998Z</time></trkpt><trkpt lat="45.176250758514556" lon="9.21043631954806"><ele>78.0</ele><time>2026-04-24T09:15:24.998Z</time></trkpt><trkpt lat="45.1762270015493" lon="9.210648995193132"><ele>78.0</ele><time>2026-04-24T09:15:25.998Z</time></trkpt><trkpt lat="45.176179570429674" lon="9.210837568642509"><ele>78.0</ele><time>2026-04-24T09:15:26.998Z</time></trkpt><trkpt lat="45.1761491880922" lon="9.211013298828792"><ele>78.0</ele><time>2026-04-24T09:15:27.998Z</time></trkpt><trkpt lat="45.17611467211226" lon="9.211173470358585"><ele>78.2</ele><time>2026-04-24T09:15:28.998Z</time></trkpt><trkpt lat="45.17608065512287" lon="9.211326073991712"><ele>78.4</ele><time>2026-04-24T09:15:29.998Z</time></trkpt><trkpt lat="45.17602994956881" lon="9.211439690037123"><ele>78.60000000000001</ele><time>2026-04-24T09:15:30.998Z</time></trkpt><trkpt lat="45.17600211262414" lon="9.211542069969216"><ele>78.8</ele><time>2026-04-24T09:15:31.998Z</time></trkpt><trkpt lat="45.17595215540541" lon="9.21163318581795"><ele>79.0</ele><time>2026-04-24T09:15:32.998Z</time></trkpt><trkpt lat="45.175874872916125" lon="9.21170154088335"><ele>78.25</ele><time>2026-04-24T09:15:33.998Z</time></trkpt><trkpt lat="45.17574963940123" lon="9.211735980801333"><ele>77.5</ele><time>2026-04-24T09:15:34.998Z</time></trkpt><trkpt lat="45.17563258672808" lon="9.211725201730676"><ele>76.75</ele><time>2026-04-24T09:15:35.998Z</time></trkpt><trkpt lat="45.17552439208611" lon="9.211698312682428"><ele>76.0</ele><time>2026-04-24T09:15:36.998Z</time></trkpt><trkpt lat="45.17539406405653" lon="9.211649859225938"><ele>76.0</ele><time>2026-04-24T09:15:37.998Z</time></trkpt><trkpt lat="45.175254512973616" lon="9.211582869340468"><ele>76.0</ele><time>2026-04-24T09:15:38.998Z</time></trkpt><trkpt lat="45.17509700037578" lon="9.211541938089423"><ele>76.0</ele><time>2026-04-24T09:15:39.998Z</time></trkpt><trkpt lat="45.174954482151506" lon="9.211476286847867"><ele>74.33333333333333</ele><time>2026-04-24T09:15:40.998Z</time></trkpt><trkpt lat="45.17480671580386" lon="9.211419747819114"><ele>72.66666666666667</ele><time>2026-04-24T09:15:41.998Z</time></trkpt><trkpt lat="45.174639918603795" lon="9.211371955818723"><ele>71.0</ele><time>2026-04-24T09:15:42.998Z</time></trkpt><trkpt lat="45.17448070076441" lon="9.211301249077806"><ele>71.0</ele><time>2026-04-24T09:15:43.998Z</time></trkpt><trkpt lat="45.174304588240666" lon="9.211247942325155"><ele>71.0</ele><time>2026-04-24T09:15:44.998Z</time></trkpt><trkpt lat="45.17414701448502" lon="9.211156030805071"><ele>71.0</ele><time>2026-04-24T09:15:45.997Z</time></trkpt><trkpt lat="45.17397861786299" lon="9.211097506680398"><ele>71.33333333333334</ele><time>2026-04-24T09:15:46.997Z</time></trkpt><trkpt lat="45.17381576742032" lon="9.211062030126538"><ele>71.66666666666667</ele><time>2026-04-24T09:15:47.997Z</time></trkpt><trkpt lat="45.17364853122996" lon="9.21100340829001"><ele>72.0</ele><time>2026-04-24T09:15:48.997Z</time></trkpt><trkpt lat="45.173473858459076" lon="9.210929879516003"><ele>72.0</ele><time>2026-04-24T09:15:49.997Z</time></trkpt><trkpt lat="45.17329522561709" lon="9.210882604271886"><ele>72.0</ele><time>2026-04-24T09:15:50.997Z</time></trkpt><trkpt lat="45.17310357070135" lon="9.210836165821313"><ele>72.0</ele><time>2026-04-24T09:15:51.997Z</time></trkpt><trkpt lat="45.17291722721457" lon="9.210770173971325"><ele>72.0</ele><time>2026-04-24T09:15:52.997Z</time></trkpt><trkpt lat="45.1727239571565" lon="9.210721227725408"><ele>72.0</ele><time>2026-04-24T09:15:53.997Z</time></trkpt><trkpt lat="45.172541438814285" lon="9.210637091964735"><ele>72.0</ele><time>2026-04-24T09:15:54.997Z</time></trkpt><trkpt lat="45.172355718660796" lon="9.210570965435728"><ele>72.66666666666667</ele><time>2026-04-24T09:15:55.997Z</time></trkpt><trkpt lat="45.17217015305263" lon="9.21050678161378"><ele>73.33333333333334</ele><time>2026-04-24T09:15:56.997Z</time></trkpt><trkpt lat="45.171983091795816" lon="9.210458726696531"><ele>74.0</ele><time>2026-04-24T09:15:57.997Z</time></trkpt><trkpt lat="45.171802003699014" lon="9.210393765262436"><ele>74.0</ele><time>2026-04-24T09:15:58.997Z</time></trkpt><trkpt lat="45.17161702165418" lon="9.210309522590187"><ele>74.0</ele><time>2026-04-24T09:15:59.997Z</time></trkpt><trkpt lat="45.17144834608213" lon="9.210250466597182"><ele>74.0</ele><time>2026-04-24T09:16:00.997Z</time></trkpt><trkpt lat="45.171283229608434" lon="9.210215490837673"><ele>73.5</ele><time>2026-04-24T09:16:01.997Z</time></trkpt><trkpt lat="45.171133703566596" lon="9.210145996452537"><ele>73.0</ele><time>2026-04-24T09:16:02.997Z</time></trkpt><trkpt lat="45.17098816165295" lon="9.2101078241586"><ele>72.5</ele><time>2026-04-24T09:16:03.997Z</time></trkpt><trkpt lat="45.17086741991505" lon="9.210050916388978"><ele>72.0</ele><time>2026-04-24T09:16:04.997Z</time></trkpt><trkpt lat="45.170755122603296" lon="9.209991209132857"><ele>71.5</ele><time>2026-04-24T09:16:05.997Z</time></trkpt><trkpt lat="45.170644653066965" lon="9.20997311820578"><ele>71.0</ele><time>2026-04-24T09:16:06.997Z</time></trkpt><trkpt lat="45.170533993610626" lon="9.209923571615066"><ele>70.5</ele><time>2026-04-24T09:16:07.997Z</time></trkpt><trkpt lat="45.17042868678835" lon="9.209883807940475"><ele>70.0</ele><time>2026-04-24T09:16:08.997Z</time></trkpt><trkpt lat="45.17030817206345" lon="9.209865759895086"><ele>69.75</ele><time>2026-04-24T09:16:09.997Z</time></trkpt><trkpt lat="45.17018950374177" lon="9.209820711490378"><ele>69.5</ele><time>2026-04-24T09:16:10.997Z</time></trkpt><trkpt lat="45.17006631066409" lon="9.209807474058362"><ele>69.25</ele><time>2026-04-24T09:16:11.997Z</time></trkpt><trkpt lat="45.1699398786637" lon="9.209746344484309"><ele>69.0</ele><time>2026-04-24T09:16:12.997Z</time></trkpt><trkpt lat="45.16981177286961" lon="9.20970125260888"><ele>69.0</ele><time>2026-04-24T09:16:13.997Z</time></trkpt><trkpt lat="45.16967300818739" lon="9.209677423613163"><ele>69.0</ele><time>2026-04-24T09:16:14.997Z</time></trkpt><trkpt lat="45.1695242755081" lon="9.209634119833284"><ele>69.0</ele><time>2026-04-24T09:16:15.997Z</time></trkpt><trkpt lat="45.16938545137677" lon="9.209596423464252"><ele>69.0</ele><time>2026-04-24T09:16:16.997Z</time></trkpt><trkpt lat="45.16922782712622" lon="9.209554736659722"><ele>69.0</ele><time>2026-04-24T09:16:17.997Z</time></trkpt><trkpt lat="45.169084056959704" lon="9.209516770742168"><ele>69.0</ele><time>2026-04-24T09:16:18.997Z</time></trkpt><trkpt lat="45.168945115249805" lon="9.209478791428873"><ele>69.0</ele><time>2026-04-24T09:16:19.997Z</time></trkpt><trkpt lat="45.16879525926824" lon="9.20945918206056"><ele>69.0</ele><time>2026-04-24T09:16:20.997Z</time></trkpt><trkpt lat="45.16866097877426" lon="9.209424432979695"><ele>68.0</ele><time>2026-04-24T09:16:21.997Z</time></trkpt><trkpt lat="45.1685018290512" lon="9.20938783435583"><ele>67.0</ele><time>2026-04-24T09:16:22.997Z</time></trkpt><trkpt lat="45.16835592725011" lon="9.209364589103393"><ele>66.0</ele><time>2026-04-24T09:16:23.997Z</time></trkpt><trkpt lat="45.16820887211142" lon="9.209383168076629"><ele>65.0</ele><time>2026-04-24T09:16:24.997Z</time></trkpt><trkpt lat="45.16806240227093" lon="9.209421907274495"><ele>64.0</ele><time>2026-04-24T09:16:25.997Z</time></trkpt><trkpt lat="45.16791362614478" lon="9.20948006850025"><ele>63.0</ele><time>2026-04-24T09:16:26.997Z</time></trkpt><trkpt lat="45.16777014502365" lon="9.209586207600973"><ele>63.0</ele><time>2026-04-24T09:16:27.997Z</time></trkpt><trkpt lat="45.167631367621546" lon="9.20968157810508"><ele>63.0</ele><time>2026-04-24T09:16:28.997Z</time></trkpt><trkpt lat="45.167498006452284" lon="9.209813549919945"><ele>63.0</ele><time>2026-04-24T09:16:29.997Z</time></trkpt><trkpt lat="45.16738078517329" lon="9.209974748064356"><ele>62.0</ele><time>2026-04-24T09:16:30.997Z</time></trkpt><trkpt lat="45.167271889797206" lon="9.210131952819157"><ele>61.0</ele><time>2026-04-24T09:16:31.997Z</time></trkpt><trkpt lat="45.167153631079465" lon="9.210305307910952"><ele>60.0</ele><time>2026-04-24T09:16:32.997Z</time></trkpt><trkpt lat="45.16704043618378" lon="9.210482076488926"><ele>60.0</ele><time>2026-04-24T09:16:33.997Z</time></trkpt><trkpt lat="45.166931317314855" lon="9.21064877787386"><ele>60.0</ele><time>2026-04-24T09:16:34.997Z</time></trkpt><trkpt lat="45.16683809244195" lon="9.210844854164552"><ele>60.0</ele><time>2026-04-24T09:16:35.997Z</time></trkpt><trkpt lat="45.16671520161896" lon="9.211014678889853"><ele>60.33333333333333</ele><time>2026-04-24T09:16:36.997Z</time></trkpt><trkpt lat="45.1666021783275" lon="9.211198985336308"><ele>60.666666666666664</ele><time>2026-04-24T09:16:37.997Z</time></trkpt><trkpt lat="45.166508162225306" lon="9.21138278981946"><ele>61.0</ele><time>2026-04-24T09:16:38.997Z</time></trkpt><trkpt lat="45.16639033966085" lon="9.211547509157626"><ele>61.5</ele><time>2026-04-24T09:16:39.997Z</time></trkpt><trkpt lat="45.166281799087194" lon="9.211698943972765"><ele>62.0</ele><time>2026-04-24T09:16:40.997Z</time></trkpt><trkpt lat="45.16618490912079" lon="9.211847054193967"><ele>62.5</ele><time>2026-04-24T09:16:41.997Z</time></trkpt><trkpt lat="45.16610278086254" lon="9.212015359457725"><ele>63.0</ele><time>2026-04-24T09:16:42.997Z</time></trkpt><trkpt lat="45.16603255821692" lon="9.212164157602684"><ele>62.75</ele><time>2026-04-24T09:16:43.997Z</time></trkpt><trkpt lat="45.165966341145015" lon="9.212332066757405"><ele>62.5</ele><time>2026-04-24T09:16:44.997Z</time></trkpt><trkpt lat="45.16590772048106" lon="9.212506912793442"><ele>62.25</ele><time>2026-04-24T09:16:45.997Z</time></trkpt><trkpt lat="45.16585658119326" lon="9.212671635989539"><ele>62.0</ele><time>2026-04-24T09:16:46.997Z</time></trkpt><trkpt lat="45.16580550007613" lon="9.212849329909117"><ele>62.0</ele><time>2026-04-24T09:16:47.997Z</time></trkpt><trkpt lat="45.165769968009656" lon="9.213025195189115"><ele>62.0</ele><time>2026-04-24T09:16:48.996Z</time></trkpt><trkpt lat="45.16571646000301" lon="9.213207005746156"><ele>62.0</ele><time>2026-04-24T09:16:49.996Z</time></trkpt><trkpt lat="45.16566176775209" lon="9.213391342151766"><ele>62.0</ele><time>2026-04-24T09:16:50.996Z</time></trkpt><trkpt lat="45.16561117672145" lon="9.21355230034884"><ele>62.00000000000001</ele><time>2026-04-24T09:16:51.996Z</time></trkpt><trkpt lat="45.165565541090594" lon="9.213695775951548"><ele>62.0</ele><time>2026-04-24T09:16:52.996Z</time></trkpt><trkpt lat="45.16552913895382" lon="9.213812364940098"><ele>62.0</ele><time>2026-04-24T09:16:53.996Z</time></trkpt><trkpt lat="45.16550074108513" lon="9.213917121588263"><ele>62.0</ele><time>2026-04-24T09:16:54.996Z</time></trkpt><trkpt lat="45.165490422298376" lon="9.214019710314906"><ele>62.00000000000001</ele><time>2026-04-24T09:16:55.996Z</time></trkpt><trkpt lat="45.165460436100304" lon="9.214103289599812"><ele>62.0</ele><time>2026-04-24T09:16:56.996Z</time></trkpt><trkpt lat="45.165378166264226" lon="9.21426565169707"><ele>61.6</ele><time>2026-04-24T09:16:58.996Z</time></trkpt><trkpt lat="45.16529689452694" lon="9.214296801284382"><ele>61.2</ele><time>2026-04-24T09:16:59.996Z</time></trkpt><trkpt lat="45.16520238990649" lon="9.214350619484902"><ele>60.8</ele><time>2026-04-24T09:17:00.996Z</time></trkpt><trkpt lat="45.16512112751555" lon="9.21444019878905"><ele>60.4</ele><time>2026-04-24T09:17:01.996Z</time></trkpt><trkpt lat="45.16503330557256" lon="9.214525880296833"><ele>60.0</ele><time>2026-04-24T09:17:02.996Z</time></trkpt><trkpt lat="45.16496231649699" lon="9.214621400292808"><ele>60.0</ele><time>2026-04-24T09:17:03.996Z</time></trkpt><trkpt lat="45.16490121494477" lon="9.214749824574382"><ele>60.0</ele><time>2026-04-24T09:17:04.996Z</time></trkpt><trkpt lat="45.16480319704664" lon="9.214815658526812"><ele>60.0</ele><time>2026-04-24T09:17:05.996Z</time></trkpt><trkpt lat="45.164733271786446" lon="9.214909706675753"><ele>60.0</ele><time>2026-04-24T09:17:06.996Z</time></trkpt><trkpt lat="45.16464022514621" lon="9.215009205151581"><ele>60.0</ele><time>2026-04-24T09:17:07.996Z</time></trkpt><trkpt lat="45.16455147994085" lon="9.215136362573341"><ele>60.33333333333333</ele><time>2026-04-24T09:17:08.996Z</time></trkpt><trkpt lat="45.16440952837932" lon="9.215242546691316"><ele>60.666666666666664</ele><time>2026-04-24T09:17:09.996Z</time></trkpt><trkpt lat="45.164260487105935" lon="9.215351493939588"><ele>61.0</ele><time>2026-04-24T09:17:10.996Z</time></trkpt><trkpt lat="45.164083028210364" lon="9.215475675305266"><ele>61.33333333333333</ele><time>2026-04-24T09:17:11.996Z</time></trkpt><trkpt lat="45.16391214513604" lon="9.215604208872994"><ele>61.66666666666667</ele><time>2026-04-24T09:17:12.996Z</time></trkpt><trkpt lat="45.163756221086764" lon="9.215754154972572"><ele>62.0</ele><time>2026-04-24T09:17:13.996Z</time></trkpt><trkpt lat="45.163594092538155" lon="9.215851851094419"><ele>62.0</ele><time>2026-04-24T09:17:14.996Z</time></trkpt><trkpt lat="45.163431136131095" lon="9.215994922674636"><ele>62.0</ele><time>2026-04-24T09:17:15.996Z</time></trkpt><trkpt lat="45.163256746572344" lon="9.216112658755723"><ele>62.0</ele><time>2026-04-24T09:17:16.996Z</time></trkpt><trkpt lat="45.16306828942945" lon="9.216260850824936"><ele>62.0</ele><time>2026-04-24T09:17:17.996Z</time></trkpt><trkpt lat="45.16287515093544" lon="9.216392042869103"><ele>62.0</ele><time>2026-04-24T09:17:18.996Z</time></trkpt><trkpt lat="45.16267620064111" lon="9.216534825336336"><ele>62.0</ele><time>2026-04-24T09:17:19.996Z</time></trkpt><trkpt lat="45.162485774242704" lon="9.216663102199497"><ele>61.333333333333336</ele><time>2026-04-24T09:17:20.996Z</time></trkpt><trkpt lat="45.16228993387264" lon="9.216801567818214"><ele>60.66666666666667</ele><time>2026-04-24T09:17:21.996Z</time></trkpt><trkpt lat="45.162084008152" lon="9.216903995440878"><ele>60.0</ele><time>2026-04-24T09:17:22.996Z</time></trkpt><trkpt lat="45.16187120906492" lon="9.217013203056183"><ele>60.0</ele><time>2026-04-24T09:17:23.996Z</time></trkpt><trkpt lat="45.16166823269208" lon="9.217100160537113"><ele>60.0</ele><time>2026-04-24T09:17:24.996Z</time></trkpt><trkpt lat="45.16146842763696" lon="9.217208952399325"><ele>60.0</ele><time>2026-04-24T09:17:25.996Z</time></trkpt><trkpt lat="45.16126768111649" lon="9.217308538580374"><ele>60.0</ele><time>2026-04-24T09:17:26.996Z</time></trkpt><trkpt lat="45.161056114750984" lon="9.217376570324456"><ele>60.0</ele><time>2026-04-24T09:17:27.996Z</time></trkpt><trkpt lat="45.16086893524284" lon="9.217471521642553"><ele>60.0</ele><time>2026-04-24T09:17:28.996Z</time></trkpt><trkpt lat="45.16065985743781" lon="9.217558952547009"><ele>60.0</ele><time>2026-04-24T09:17:29.996Z</time></trkpt><trkpt lat="45.16045527629221" lon="9.217653620626923"><ele>60.0</ele><time>2026-04-24T09:17:30.996Z</time></trkpt><trkpt lat="45.1602297649019" lon="9.217735447634084"><ele>60.0</ele><time>2026-04-24T09:17:31.996Z</time></trkpt><trkpt lat="45.160021468382496" lon="9.217836241283608"><ele>60.0</ele><time>2026-04-24T09:17:32.996Z</time></trkpt><trkpt lat="45.159807313139424" lon="9.217916900073421"><ele>60.0</ele><time>2026-04-24T09:17:33.996Z</time></trkpt><trkpt lat="45.159602564210815" lon="9.217982532734068"><ele>60.0</ele><time>2026-04-24T09:17:34.996Z</time></trkpt><trkpt lat="45.15939458517841" lon="9.218045751289976"><ele>60.0</ele><time>2026-04-24T09:17:35.996Z</time></trkpt><trkpt lat="45.1591903364561" lon="9.218094397209349"><ele>60.0</ele><time>2026-04-24T09:17:36.996Z</time></trkpt><trkpt lat="45.15898162751214" lon="9.218170724012722"><ele>60.0</ele><time>2026-04-24T09:17:37.996Z</time></trkpt><trkpt lat="45.15877296462278" lon="9.218244088046054"><ele>60.66666666666667</ele><time>2026-04-24T09:17:38.996Z</time></trkpt><trkpt lat="45.15856766353447" lon="9.21833929805459"><ele>61.333333333333336</ele><time>2026-04-24T09:17:39.996Z</time></trkpt><trkpt lat="45.15836032332307" lon="9.21842998725696"><ele>62.0</ele><time>2026-04-24T09:17:40.996Z</time></trkpt><trkpt lat="45.158147484135185" lon="9.218489372407804"><ele>62.0</ele><time>2026-04-24T09:17:41.996Z</time></trkpt><trkpt lat="45.15794647182601" lon="9.21856705269483"><ele>62.0</ele><time>2026-04-24T09:17:42.996Z</time></trkpt><trkpt lat="45.15775531572351" lon="9.218640002320852"><ele>62.0</ele><time>2026-04-24T09:17:43.996Z</time></trkpt><trkpt lat="45.157568382635425" lon="9.218710858308901"><ele>62.0</ele><time>2026-04-24T09:17:44.996Z</time></trkpt><trkpt lat="45.15739438490345" lon="9.218779877834114"><ele>62.0</ele><time>2026-04-24T09:17:45.996Z</time></trkpt><trkpt lat="45.15722197581631" lon="9.218866850222708"><ele>62.0</ele><time>2026-04-24T09:17:46.996Z</time></trkpt><trkpt lat="45.15705537403963" lon="9.218985751810962"><ele>61.66666666666667</ele><time>2026-04-24T09:17:47.996Z</time></trkpt><trkpt lat="45.15689064434415" lon="9.219150681915458"><ele>61.33333333333333</ele><time>2026-04-24T09:17:48.996Z</time></trkpt><trkpt lat="45.156758044807155" lon="9.219300129231653"><ele>61.0</ele><time>2026-04-24T09:17:49.996Z</time></trkpt><trkpt lat="45.156603957559604" lon="9.219493154245974"><ele>60.666666666666664</ele><time>2026-04-24T09:17:50.996Z</time></trkpt><trkpt lat="45.156462910367026" lon="9.21966717876365"><ele>60.33333333333333</ele><time>2026-04-24T09:17:51.995Z</time></trkpt><trkpt lat="45.15633284366748" lon="9.219858281862733"><ele>60.0</ele><time>2026-04-24T09:17:52.995Z</time></trkpt><trkpt lat="45.15621089882233" lon="9.220037537892306"><ele>60.0</ele><time>2026-04-24T09:17:53.995Z</time></trkpt><trkpt lat="45.15606566184387" lon="9.220219609030833"><ele>60.0</ele><time>2026-04-24T09:17:54.995Z</time></trkpt><trkpt lat="45.15591074276592" lon="9.22040511232838"><ele>60.0</ele><time>2026-04-24T09:17:55.995Z</time></trkpt><trkpt lat="45.155767180088866" lon="9.22061122314173"><ele>59.66666666666667</ele><time>2026-04-24T09:17:56.995Z</time></trkpt><trkpt lat="45.15560992843805" lon="9.220771489490314"><ele>59.333333333333336</ele><time>2026-04-24T09:17:57.995Z</time></trkpt><trkpt lat="45.15545440011452" lon="9.220988053583431"><ele>59.0</ele><time>2026-04-24T09:17:58.995Z</time></trkpt><trkpt lat="45.15530552307586" lon="9.221162015719194"><ele>59.0</ele><time>2026-04-24T09:17:59.995Z</time></trkpt><trkpt lat="45.155151785240484" lon="9.221316243557297"><ele>59.0</ele><time>2026-04-24T09:18:00.995Z</time></trkpt><trkpt lat="45.15500452343168" lon="9.22149497992659"><ele>59.0</ele><time>2026-04-24T09:18:01.995Z</time></trkpt><trkpt lat="45.15486476195268" lon="9.22170238661688"><ele>58.66666666666667</ele><time>2026-04-24T09:18:02.995Z</time></trkpt><trkpt lat="45.15472419144743" lon="9.221899891961506"><ele>58.33333333333333</ele><time>2026-04-24T09:18:03.995Z</time></trkpt><trkpt lat="45.15459060510676" lon="9.222087584368882"><ele>58.0</ele><time>2026-04-24T09:18:04.995Z</time></trkpt><trkpt lat="45.154450840640706" lon="9.22228395719426"><ele>58.33333333333333</ele><time>2026-04-24T09:18:05.995Z</time></trkpt><trkpt lat="45.15432042482667" lon="9.222467194908228"><ele>58.66666666666667</ele><time>2026-04-24T09:18:06.995Z</time></trkpt><trkpt lat="45.15417376658045" lon="9.222653301995198"><ele>59.0</ele><time>2026-04-24T09:18:07.995Z</time></trkpt><trkpt lat="45.154053113449194" lon="9.22281635498331"><ele>59.0</ele><time>2026-04-24T09:18:08.995Z</time></trkpt><trkpt lat="45.15397305877041" lon="9.2230406579683"><ele>59.0</ele><time>2026-04-24T09:18:09.995Z</time></trkpt><trkpt lat="45.153829404595086" lon="9.223205807604124"><ele>59.0</ele><time>2026-04-24T09:18:10.995Z</time></trkpt><trkpt lat="45.15369871117392" lon="9.22335622212215"><ele>59.0</ele><time>2026-04-24T09:18:11.995Z</time></trkpt><trkpt lat="45.1535662988851" lon="9.223531115782118"><ele>59.0</ele><time>2026-04-24T09:18:12.995Z</time></trkpt><trkpt lat="45.15345114904388" lon="9.22368554443708"><ele>59.0</ele><time>2026-04-24T09:18:13.995Z</time></trkpt><trkpt lat="45.153326633938235" lon="9.223859801419337"><ele>59.0</ele><time>2026-04-24T09:18:14.995Z</time></trkpt><trkpt lat="45.15321667561153" lon="9.224015723772478"><ele>59.0</ele><time>2026-04-24T09:18:15.995Z</time></trkpt><trkpt lat="45.153099594978144" lon="9.22418174539213"><ele>59.0</ele><time>2026-04-24T09:18:16.995Z</time></trkpt><trkpt lat="45.1529817004008" lon="9.224343561573548"><ele>59.66666666666667</ele><time>2026-04-24T09:18:17.995Z</time></trkpt><trkpt lat="45.152852474632084" lon="9.224516480128893"><ele>60.33333333333333</ele><time>2026-04-24T09:18:18.995Z</time></trkpt><trkpt lat="45.152735594843314" lon="9.22466984991194"><ele>61.0</ele><time>2026-04-24T09:18:19.995Z</time></trkpt><trkpt lat="45.15262963480128" lon="9.224806601810597"><ele>61.0</ele><time>2026-04-24T09:18:20.995Z</time></trkpt><trkpt lat="45.15251546552845" lon="9.224953601171482"><ele>61.0</ele><time>2026-04-24T09:18:21.995Z</time></trkpt><trkpt lat="45.15239801253493" lon="9.225103874581412"><ele>61.0</ele><time>2026-04-24T09:18:22.995Z</time></trkpt><trkpt lat="45.15229537851582" lon="9.22523518813432"><ele>61.0</ele><time>2026-04-24T09:18:23.995Z</time></trkpt><trkpt lat="45.15219207457646" lon="9.225367358697708"><ele>61.0</ele><time>2026-04-24T09:18:24.995Z</time></trkpt><trkpt lat="45.15207984142514" lon="9.225504930897285"><ele>61.0</ele><time>2026-04-24T09:18:25.995Z</time></trkpt><trkpt lat="45.151977144313086" lon="9.225637754722289"><ele>61.0</ele><time>2026-04-24T09:18:26.995Z</time></trkpt><trkpt lat="45.15187444875589" lon="9.225734442543247"><ele>60.75</ele><time>2026-04-24T09:18:27.995Z</time></trkpt><trkpt lat="45.15176546271835" lon="9.2258435905063"><ele>60.5</ele><time>2026-04-24T09:18:28.995Z</time></trkpt><trkpt lat="45.151657143046855" lon="9.225935837669592"><ele>60.25</ele><time>2026-04-24T09:18:29.995Z</time></trkpt><trkpt lat="45.1515577487423" lon="9.226041942380512"><ele>60.0</ele><time>2026-04-24T09:18:30.995Z</time></trkpt><trkpt lat="45.151434343474875" lon="9.226116525412145"><ele>60.0</ele><time>2026-04-24T09:18:31.995Z</time></trkpt><trkpt lat="45.151382641452" lon="9.226212535777522"><ele>60.0</ele><time>2026-04-24T09:18:32.995Z</time></trkpt><trkpt lat="45.15138573206284" lon="9.226404782175253"><ele>60.0</ele><time>2026-04-24T09:18:33.995Z</time></trkpt><trkpt lat="45.15131628256328" lon="9.226563060031479"><ele>60.0</ele><time>2026-04-24T09:18:35.995Z</time></trkpt><trkpt lat="45.151287154420935" lon="9.226651846837921"><ele>60.0</ele><time>2026-04-24T09:18:36.995Z</time></trkpt><trkpt lat="45.15124027755077" lon="9.226750483849889"><ele>60.0</ele><time>2026-04-24T09:18:37.995Z</time></trkpt><trkpt lat="45.151187096996715" lon="9.22681654057714"><ele>60.0</ele><time>2026-04-24T09:18:38.995Z</time></trkpt><trkpt lat="45.151124698563876" lon="9.226915017115745"><ele>60.0</ele><time>2026-04-24T09:18:39.995Z</time></trkpt><trkpt lat="45.15108443205344" lon="9.226999966827451"><ele>60.0</ele><time>2026-04-24T09:18:40.995Z</time></trkpt><trkpt lat="45.151037892258145" lon="9.227083122194662"><ele>60.0</ele><time>2026-04-24T09:18:41.995Z</time></trkpt><trkpt lat="45.15098086232341" lon="9.227165002602273"><ele>60.0</ele><time>2026-04-24T09:18:42.995Z</time></trkpt><trkpt lat="45.15091952279568" lon="9.227230874649118"><ele>60.0</ele><time>2026-04-24T09:18:43.995Z</time></trkpt><trkpt lat="45.15081055387382" lon="9.22726746602014"><ele>60.0</ele><time>2026-04-24T09:18:45.995Z</time></trkpt><trkpt lat="45.15086888586984" lon="9.227309365979842"><ele>60.0</ele><time>2026-04-24T09:18:50.995Z</time></trkpt><trkpt lat="45.15081505068882" lon="9.227357697096256"><ele>60.0</ele><time>2026-04-24T09:18:59.994Z</time></trkpt><trkpt lat="45.150732931757595" lon="9.227352053363528"><ele>60.0</ele><time>2026-04-24T09:19:10.994Z</time></trkpt><trkpt lat="45.15066063886869" lon="9.227404006589985"><ele>60.0</ele><time>2026-04-24T09:19:12.994Z</time></trkpt><trkpt lat="45.15058665804977" lon="9.227466552476487"><ele>59.6</ele><time>2026-04-24T09:19:14.994Z</time></trkpt><trkpt lat="45.15051464673387" lon="9.227551291372817"><ele>59.2</ele><time>2026-04-24T09:19:17.994Z</time></trkpt><trkpt lat="45.150460070745055" lon="9.227604700096208"><ele>58.8</ele><time>2026-04-24T09:19:19.994Z</time></trkpt><trkpt lat="45.150395819305764" lon="9.227653052813068"><ele>58.4</ele><time>2026-04-24T09:19:21.994Z</time></trkpt><trkpt lat="45.15032790170223" lon="9.227744632301029"><ele>58.0</ele><time>2026-04-24T09:19:23.994Z</time></trkpt><trkpt lat="45.15022856075131" lon="9.227878336801327"><ele>58.0</ele><time>2026-04-24T09:19:25.994Z</time></trkpt><trkpt lat="45.15015083533814" lon="9.227974987705513"><ele>58.0</ele><time>2026-04-24T09:19:26.994Z</time></trkpt><trkpt lat="45.15007553255428" lon="9.228069641615482"><ele>58.0</ele><time>2026-04-24T09:19:27.994Z</time></trkpt><trkpt lat="45.14998888108089" lon="9.228178816051948"><ele>58.0</ele><time>2026-04-24T09:19:28.994Z</time></trkpt><trkpt lat="45.14989868381538" lon="9.228292896798845"><ele>58.0</ele><time>2026-04-24T09:19:29.994Z</time></trkpt><trkpt lat="45.14980107056728" lon="9.22841635785385"><ele>58.0</ele><time>2026-04-24T09:19:30.994Z</time></trkpt><trkpt lat="45.14968831322089" lon="9.228542873289953"><ele>58.0</ele><time>2026-04-24T09:19:31.994Z</time></trkpt><trkpt lat="45.149566647954686" lon="9.228661596362562"><ele>58.0</ele><time>2026-04-24T09:19:32.994Z</time></trkpt><trkpt lat="45.149460065017806" lon="9.228787469948399"><ele>58.0</ele><time>2026-04-24T09:19:33.994Z</time></trkpt><trkpt lat="45.149339624214704" lon="9.228890717094078"><ele>58.0</ele><time>2026-04-24T09:19:34.994Z</time></trkpt><trkpt lat="45.149209197813555" lon="9.228983434604245"><ele>58.0</ele><time>2026-04-24T09:19:35.994Z</time></trkpt><trkpt lat="45.14906294220502" lon="9.229085999363654"><ele>58.0</ele><time>2026-04-24T09:19:36.994Z</time></trkpt><trkpt lat="45.14891857067517" lon="9.22914459307602"><ele>58.0</ele><time>2026-04-24T09:19:37.994Z</time></trkpt><trkpt lat="45.1487842468096" lon="9.22918366584952"><ele>58.0</ele><time>2026-04-24T09:19:38.994Z</time></trkpt><trkpt lat="45.14864738350803" lon="9.22920795788562"><ele>58.0</ele><time>2026-04-24T09:19:39.994Z</time></trkpt><trkpt lat="45.14849999534653" lon="9.229229359134541"><ele>58.0</ele><time>2026-04-24T09:19:40.994Z</time></trkpt><trkpt lat="45.14833712197406" lon="9.229231606354022"><ele>57.666666666666664</ele><time>2026-04-24T09:19:41.994Z</time></trkpt><trkpt lat="45.14817622039841" lon="9.229197792912013"><ele>57.33333333333333</ele><time>2026-04-24T09:19:42.994Z</time></trkpt><trkpt lat="45.148010295255915" lon="9.229181713550945"><ele>57.0</ele><time>2026-04-24T09:19:43.994Z</time></trkpt><trkpt lat="45.147845384507605" lon="9.229139556190644"><ele>57.0</ele><time>2026-04-24T09:19:44.999Z</time></trkpt><trkpt lat="45.14768106197748" lon="9.229119987773535"><ele>57.0</ele><time>2026-04-24T09:19:45.999Z</time></trkpt><trkpt lat="45.14753525911933" lon="9.229080045435905"><ele>57.0</ele><time>2026-04-24T09:19:46.999Z</time></trkpt><trkpt lat="45.14735825783263" lon="9.229074861959472"><ele>56.66666666666667</ele><time>2026-04-24T09:19:47.999Z</time></trkpt><trkpt lat="45.14720728623654" lon="9.229043273647441"><ele>56.333333333333336</ele><time>2026-04-24T09:19:48.999Z</time></trkpt><trkpt lat="45.14704945364951" lon="9.229010906363246"><ele>56.0</ele><time>2026-04-24T09:19:49.999Z</time></trkpt><trkpt lat="45.14688947863424" lon="9.22898568187504"><ele>56.0</ele><time>2026-04-24T09:19:50.999Z</time></trkpt><trkpt lat="45.146721347501256" lon="9.228981906073125"><ele>56.0</ele><time>2026-04-24T09:19:51.999Z</time></trkpt><trkpt lat="45.14655735999248" lon="9.228948013692232"><ele>56.0</ele><time>2026-04-24T09:19:52.999Z</time></trkpt><trkpt lat="45.146399262555015" lon="9.228934565544588"><ele>56.333333333333336</ele><time>2026-04-24T09:19:53.999Z</time></trkpt><trkpt lat="45.14622989900274" lon="9.228929906670398"><ele>56.66666666666667</ele><time>2026-04-24T09:19:54.999Z</time></trkpt><trkpt lat="45.14607636959819" lon="9.228902019549126"><ele>57.0</ele><time>2026-04-24T09:19:55.999Z</time></trkpt><trkpt lat="45.14592189762754" lon="9.228889558248657"><ele>57.0</ele><time>2026-04-24T09:19:56.999Z</time></trkpt><trkpt lat="45.145779966006295" lon="9.228830085886319"><ele>57.0</ele><time>2026-04-24T09:19:57.999Z</time></trkpt><trkpt lat="45.14563798072361" lon="9.228781025434564"><ele>57.0</ele><time>2026-04-24T09:19:58.999Z</time></trkpt><trkpt lat="45.145513748729776" lon="9.228739296876793"><ele>57.0</ele><time>2026-04-24T09:19:59.999Z</time></trkpt><trkpt lat="45.14538302864218" lon="9.228717907181096"><ele>56.8</ele><time>2026-04-24T09:20:00.999Z</time></trkpt><trkpt lat="45.145294546124134" lon="9.22871679451186"><ele>56.6</ele><time>2026-04-24T09:20:01.999Z</time></trkpt><trkpt lat="45.14521328153211" lon="9.2286849317473"><ele>56.39999999999999</ele><time>2026-04-24T09:20:02.999Z</time></trkpt><trkpt lat="45.14514158760295" lon="9.22863931187805"><ele>56.199999999999996</ele><time>2026-04-24T09:20:03.999Z</time></trkpt><trkpt lat="45.14506571115785" lon="9.228618446962667"><ele>56.0</ele><time>2026-04-24T09:20:04.999Z</time></trkpt><trkpt lat="45.14493266366913" lon="9.228549371569274"><ele>55.0</ele><time>2026-04-24T09:20:06.999Z</time></trkpt><trkpt lat="45.14486278702747" lon="9.228528567755948"><ele>53.99999999999999</ele><time>2026-04-24T09:20:07.999Z</time></trkpt><trkpt lat="45.144731889231316" lon="9.228490000187525"><ele>53.0</ele><time>2026-04-24T09:20:09.999Z</time></trkpt><trkpt lat="45.14466760899045" lon="9.22845820991205"><ele>52.0</ele><time>2026-04-24T09:20:10.999Z</time></trkpt><trkpt lat="45.14455198305626" lon="9.22837740065907"><ele>51.0</ele><time>2026-04-24T09:20:12.999Z</time></trkpt><trkpt lat="45.144466321873054" lon="9.228383122983026"><ele>51.0</ele><time>2026-04-24T09:20:13.999Z</time></trkpt><trkpt lat="45.14438512292328" lon="9.228332601891937"><ele>51.0</ele><time>2026-04-24T09:20:14.999Z</time></trkpt><trkpt lat="45.14431433403997" lon="9.22830480687525"><ele>51.0</ele><time>2026-04-24T09:20:15.999Z</time></trkpt><trkpt lat="45.144233445067066" lon="9.228264782984404"><ele>51.0</ele><time>2026-04-24T09:20:16.999Z</time></trkpt><trkpt lat="45.144141948920065" lon="9.228222015763741"><ele>51.0</ele><time>2026-04-24T09:20:17.999Z</time></trkpt><trkpt lat="45.144055435430445" lon="9.228135972797226"><ele>51.0</ele><time>2026-04-24T09:20:18.999Z</time></trkpt><trkpt lat="45.14395820166656" lon="9.228113252770088"><ele>51.0</ele><time>2026-04-24T09:20:19.999Z</time></trkpt><trkpt lat="45.143860104994815" lon="9.22807425872622"><ele>51.0</ele><time>2026-04-24T09:20:20.999Z</time></trkpt><trkpt lat="45.14377721682797" lon="9.228046186777359"><ele>51.0</ele><time>2026-04-24T09:20:21.999Z</time></trkpt><trkpt lat="45.143702154110926" lon="9.228016032818886"><ele>51.0</ele><time>2026-04-24T09:20:22.999Z</time></trkpt><trkpt lat="45.14360502587134" lon="9.227986508606362"><ele>51.0</ele><time>2026-04-24T09:20:23.999Z</time></trkpt><trkpt lat="45.14351290233205" lon="9.227954591457339"><ele>51.0</ele><time>2026-04-24T09:20:24.999Z</time></trkpt><trkpt lat="45.143410897381735" lon="9.227908510803204"><ele>51.0</ele><time>2026-04-24T09:20:25.999Z</time></trkpt><trkpt lat="45.1433067510309" lon="9.227867658588115"><ele>51.0</ele><time>2026-04-24T09:20:26.999Z</time></trkpt><trkpt lat="45.14320715210081" lon="9.227817296403881"><ele>51.0</ele><time>2026-04-24T09:20:27.999Z</time></trkpt><trkpt lat="45.14311286624558" lon="9.22776401468401"><ele>51.0</ele><time>2026-04-24T09:20:28.999Z</time></trkpt><trkpt lat="45.14301609766516" lon="9.227740045750902"><ele>51.0</ele><time>2026-04-24T09:20:29.999Z</time></trkpt><trkpt lat="45.1429066516541" lon="9.227707342966434"><ele>51.0</ele><time>2026-04-24T09:20:30.999Z</time></trkpt><trkpt lat="45.142809466474496" lon="9.227648286062633"><ele>51.0</ele><time>2026-04-24T09:20:31.999Z</time></trkpt><trkpt lat="45.14271929541176" lon="9.227593974409244"><ele>51.0</ele><time>2026-04-24T09:20:32.999Z</time></trkpt><trkpt lat="45.14262498970304" lon="9.227533895944163"><ele>51.0</ele><time>2026-04-24T09:20:33.999Z</time></trkpt><trkpt lat="45.14249911586725" lon="9.22750542462964"><ele>51.0</ele><time>2026-04-24T09:20:34.999Z</time></trkpt><trkpt lat="45.14241000884289" lon="9.227470180147892"><ele>51.0</ele><time>2026-04-24T09:20:35.999Z</time></trkpt><trkpt lat="45.14230421591961" lon="9.227451021432177"><ele>51.0</ele><time>2026-04-24T09:20:36.999Z</time></trkpt><trkpt lat="45.142192672093124" lon="9.227409613479772"><ele>51.0</ele><time>2026-04-24T09:20:37.999Z</time></trkpt><trkpt lat="45.14208677788304" lon="9.227369821823725"><ele>51.0</ele><time>2026-04-24T09:20:38.999Z</time></trkpt><trkpt lat="45.141966888056714" lon="9.227317739597598"><ele>51.0</ele><time>2026-04-24T09:20:39.999Z</time></trkpt><trkpt lat="45.14186933617677" lon="9.22727442014651"><ele>51.0</ele><time>2026-04-24T09:20:40.999Z</time></trkpt><trkpt lat="45.141781112122224" lon="9.227219398584756"><ele>51.0</ele><time>2026-04-24T09:20:41.999Z</time></trkpt><trkpt lat="45.141687396546864" lon="9.227176201990721"><ele>51.0</ele><time>2026-04-24T09:20:42.999Z</time></trkpt><trkpt lat="45.141588617922295" lon="9.227096182905054"><ele>51.0</ele><time>2026-04-24T09:20:43.999Z</time></trkpt><trkpt lat="45.14146280612838" lon="9.227075391528606"><ele>51.0</ele><time>2026-04-24T09:20:44.999Z</time></trkpt><trkpt lat="45.14137117260211" lon="9.227018452371428"><ele>51.0</ele><time>2026-04-24T09:20:45.999Z</time></trkpt><trkpt lat="45.14125019673984" lon="9.22700389620278"><ele>51.0</ele><time>2026-04-24T09:20:46.999Z</time></trkpt><trkpt lat="45.14115982121915" lon="9.226943444556017"><ele>51.0</ele><time>2026-04-24T09:20:47.999Z</time></trkpt><trkpt lat="45.14105931270875" lon="9.226872768278193"><ele>51.0</ele><time>2026-04-24T09:20:48.999Z</time></trkpt><trkpt lat="45.14095946680838" lon="9.226807565259472"><ele>51.0</ele><time>2026-04-24T09:20:49.999Z</time></trkpt><trkpt lat="45.1408617563389" lon="9.226782327417157"><ele>51.0</ele><time>2026-04-24T09:20:50.999Z</time></trkpt><trkpt lat="45.140758216270285" lon="9.22675020348946"><ele>51.0</ele><time>2026-04-24T09:20:51.999Z</time></trkpt><trkpt lat="45.14067238994822" lon="9.226701160897735"><ele>51.0</ele><time>2026-04-24T09:20:52.999Z</time></trkpt><trkpt lat="45.140568807720705" lon="9.226686796588442"><ele>51.0</ele><time>2026-04-24T09:20:53.999Z</time></trkpt><trkpt lat="45.14048924666404" lon="9.226655166728818"><ele>51.0</ele><time>2026-04-24T09:20:54.999Z</time></trkpt><trkpt lat="45.1403863060493" lon="9.226596408024223"><ele>51.0</ele><time>2026-04-24T09:20:55.999Z</time></trkpt><trkpt lat="45.14029365959533" lon="9.22655578577702"><ele>51.0</ele><time>2026-04-24T09:20:56.999Z</time></trkpt><trkpt lat="45.14017647974648" lon="9.22652393464647"><ele>51.0</ele><time>2026-04-24T09:20:57.999Z</time></trkpt><trkpt lat="45.14007778941251" lon="9.226470400285052"><ele>51.0</ele><time>2026-04-24T09:20:58.999Z</time></trkpt><trkpt lat="45.139958753332245" lon="9.226440342841489"><ele>51.0</ele><time>2026-04-24T09:20:59.999Z</time></trkpt><trkpt lat="45.139861871571654" lon="9.22638805059889"><ele>51.0</ele><time>2026-04-24T09:21:00.999Z</time></trkpt><trkpt lat="45.13976081405712" lon="9.226345728030301"><ele>51.0</ele><time>2026-04-24T09:21:01.999Z</time></trkpt><trkpt lat="45.139652141965556" lon="9.226310385007118"><ele>51.0</ele><time>2026-04-24T09:21:02.999Z</time></trkpt><trkpt lat="45.13957511318991" lon="9.226266819821282"><ele>51.0</ele><time>2026-04-24T09:21:03.999Z</time></trkpt><trkpt lat="45.13947278233263" lon="9.22620340426719"><ele>51.0</ele><time>2026-04-24T09:21:04.999Z</time></trkpt><trkpt lat="45.139371515628284" lon="9.226173882816669"><ele>51.0</ele><time>2026-04-24T09:21:05.999Z</time></trkpt><trkpt lat="45.139263947283354" lon="9.226160057006453"><ele>51.0</ele><time>2026-04-24T09:21:06.999Z</time></trkpt><trkpt lat="45.13915860496132" lon="9.226129304918599"><ele>51.0</ele><time>2026-04-24T09:21:07.999Z</time></trkpt><trkpt lat="45.13905550148252" lon="9.226070191603615"><ele>51.5</ele><time>2026-04-24T09:21:08.999Z</time></trkpt><trkpt lat="45.13893190112234" lon="9.226002722299109"><ele>52.0</ele><time>2026-04-24T09:21:09.999Z</time></trkpt><trkpt lat="45.138823668284864" lon="9.225925036761204"><ele>52.5</ele><time>2026-04-24T09:21:10.999Z</time></trkpt><trkpt lat="45.13870813193491" lon="9.225877386297208"><ele>53.0</ele><time>2026-04-24T09:21:11.999Z</time></trkpt><trkpt lat="45.1386030592737" lon="9.225839563562603"><ele>53.0</ele><time>2026-04-24T09:21:12.999Z</time></trkpt><trkpt lat="45.13849311830924" lon="9.225809349941281"><ele>53.0</ele><time>2026-04-24T09:21:13.999Z</time></trkpt><trkpt lat="45.13838666174335" lon="9.225777562381753"><ele>53.0</ele><time>2026-04-24T09:21:14.999Z</time></trkpt><trkpt lat="45.13829544057426" lon="9.225723363444779"><ele>53.0</ele><time>2026-04-24T09:21:15.999Z</time></trkpt><trkpt lat="45.13819945507512" lon="9.225688067065269"><ele>53.0</ele><time>2026-04-24T09:21:16.999Z</time></trkpt><trkpt lat="45.138078210605116" lon="9.22564156212362"><ele>54.2</ele><time>2026-04-24T09:21:17.999Z</time></trkpt><trkpt lat="45.13796898680761" lon="9.225588776742097"><ele>55.4</ele><time>2026-04-24T09:21:18.999Z</time></trkpt><trkpt lat="45.1378786019546" lon="9.225530305659904"><ele>56.60000000000001</ele><time>2026-04-24T09:21:19.999Z</time></trkpt><trkpt lat="45.13775845712201" lon="9.225535467139542"><ele>57.800000000000004</ele><time>2026-04-24T09:21:20.999Z</time></trkpt><trkpt lat="45.13766295180557" lon="9.225473122555428"><ele>59.0</ele><time>2026-04-24T09:21:21.999Z</time></trkpt><trkpt lat="45.13756287793873" lon="9.225441112512312"><ele>59.0</ele><time>2026-04-24T09:21:22.999Z</time></trkpt><trkpt lat="45.13746911136694" lon="9.225385351263318"><ele>59.00000000000001</ele><time>2026-04-24T09:21:23.999Z</time></trkpt><trkpt lat="45.13736625604473" lon="9.225333861252748"><ele>59.00000000000001</ele><time>2026-04-24T09:21:24.998Z</time></trkpt><trkpt lat="45.13726001711625" lon="9.225292625678753"><ele>59.0</ele><time>2026-04-24T09:21:25.998Z</time></trkpt><trkpt lat="45.13718025859837" lon="9.22524764251936"><ele>59.0</ele><time>2026-04-24T09:21:26.998Z</time></trkpt><trkpt lat="45.13709333433357" lon="9.225212113213537"><ele>59.00000000000001</ele><time>2026-04-24T09:21:27.998Z</time></trkpt><trkpt lat="45.13702237595145" lon="9.225209337324895"><ele>59.0</ele><time>2026-04-24T09:21:28.998Z</time></trkpt><trkpt lat="45.13694480093031" lon="9.22516227786126"><ele>59.0</ele><time>2026-04-24T09:21:29.998Z</time></trkpt><trkpt lat="45.13685880864543" lon="9.225096459245993"><ele>59.0</ele><time>2026-04-24T09:21:30.998Z</time></trkpt><trkpt lat="45.136790067051116" lon="9.225068929089446"><ele>59.00000000000001</ele><time>2026-04-24T09:21:31.998Z</time></trkpt><trkpt lat="45.13672814616202" lon="9.225043968751006"><ele>59.0</ele><time>2026-04-24T09:21:32.998Z</time></trkpt><trkpt lat="45.1366537248246" lon="9.225051602932687"><ele>59.00000000000001</ele><time>2026-04-24T09:21:33.998Z</time></trkpt><trkpt lat="45.136591753442204" lon="9.224991149631455"><ele>59.0</ele><time>2026-04-24T09:21:35.998Z</time></trkpt><trkpt lat="45.13652394526468" lon="9.224990731313767"><ele>59.0</ele><time>2026-04-24T09:21:37.998Z</time></trkpt><trkpt lat="45.136464078171215" lon="9.224962282186242"><ele>59.0</ele><time>2026-04-24T09:21:39.998Z</time></trkpt><trkpt lat="45.13640093985753" lon="9.224924882125581"><ele>59.00000000000001</ele><time>2026-04-24T09:21:41.998Z</time></trkpt><trkpt lat="45.13631777453834" lon="9.224861482962435"><ele>59.0</ele><time>2026-04-24T09:21:44.998Z</time></trkpt><trkpt lat="45.13623476347597" lon="9.22482770757889"><ele>58.66666666666667</ele><time>2026-04-24T09:21:46.998Z</time></trkpt><trkpt lat="45.136166008820396" lon="9.224794596397224"><ele>58.333333333333336</ele><time>2026-04-24T09:21:48.998Z</time></trkpt><trkpt lat="45.13610170587323" lon="9.224785744855444"><ele>58.0</ele><time>2026-04-24T09:21:50.998Z</time></trkpt><trkpt lat="45.13601723127389" lon="9.224731028435047"><ele>57.66666666666667</ele><time>2026-04-24T09:21:53.998Z</time></trkpt><trkpt lat="45.13594131276838" lon="9.224731610284124"><ele>57.333333333333336</ele><time>2026-04-24T09:21:55.998Z</time></trkpt><trkpt lat="45.135865942485836" lon="9.224687664747846"><ele>57.0</ele><time>2026-04-24T09:21:57.998Z</time></trkpt><trkpt lat="45.13581027592234" lon="9.224630880179772"><ele>57.0</ele><time>2026-04-24T09:22:04.998Z</time></trkpt><trkpt lat="45.1357400270475" lon="9.224596777821072"><ele>56.99999999999999</ele><time>2026-04-24T09:22:08.998Z</time></trkpt><trkpt lat="45.13564943578399" lon="9.224564114577351"><ele>57.0</ele><time>2026-04-24T09:22:12.998Z</time></trkpt><trkpt lat="45.13558287520994" lon="9.224537554515434"><ele>57.0</ele><time>2026-04-24T09:22:14.998Z</time></trkpt><trkpt lat="45.13551984404533" lon="9.22450500461578"><ele>56.99999999999999</ele><time>2026-04-24T09:22:16.998Z</time></trkpt><trkpt lat="45.13545258156636" lon="9.224466082719156"><ele>57.0</ele><time>2026-04-24T09:22:18.998Z</time></trkpt><trkpt lat="45.13538340037162" lon="9.224441347772478"><ele>57.0</ele><time>2026-04-24T09:22:20.998Z</time></trkpt><trkpt lat="45.135309750354935" lon="9.224411802367765"><ele>57.2</ele><time>2026-04-24T09:22:22.998Z</time></trkpt><trkpt lat="45.135188849253424" lon="9.224363259709277"><ele>57.400000000000006</ele><time>2026-04-24T09:22:24.998Z</time></trkpt><trkpt lat="45.13511329821068" lon="9.224337270893143"><ele>57.599999999999994</ele><time>2026-04-24T09:22:25.998Z</time></trkpt><trkpt lat="45.13502769431677" lon="9.224304191443625"><ele>57.8</ele><time>2026-04-24T09:22:26.998Z</time></trkpt><trkpt lat="45.13493027510024" lon="9.224314737618933"><ele>58.0</ele><time>2026-04-24T09:22:27.998Z</time></trkpt><trkpt lat="45.13483606160318" lon="9.224290121094459"><ele>58.2</ele><time>2026-04-24T09:22:28.998Z</time></trkpt><trkpt lat="45.13473684164241" lon="9.224265387237597"><ele>58.4</ele><time>2026-04-24T09:22:29.998Z</time></trkpt><trkpt lat="45.1346384434971" lon="9.224225522440534"><ele>58.60000000000001</ele><time>2026-04-24T09:22:30.998Z</time></trkpt><trkpt lat="45.1345388263198" lon="9.224187088629574"><ele>58.800000000000004</ele><time>2026-04-24T09:22:31.998Z</time></trkpt><trkpt lat="45.134437703042096" lon="9.224147396979498"><ele>59.0</ele><time>2026-04-24T09:22:32.998Z</time></trkpt><trkpt lat="45.13434381420096" lon="9.224092379988424"><ele>59.00000000000001</ele><time>2026-04-24T09:22:33.998Z</time></trkpt><trkpt lat="45.13425077593197" lon="9.224054737033592"><ele>59.0</ele><time>2026-04-24T09:22:34.997Z</time></trkpt><trkpt lat="45.13416489909769" lon="9.224019991605099"><ele>59.0</ele><time>2026-04-24T09:22:35.997Z</time></trkpt><trkpt lat="45.13408970748891" lon="9.223989541944633"><ele>59.0</ele><time>2026-04-24T09:22:36.997Z</time></trkpt><trkpt lat="45.13402050229448" lon="9.223961482213614"><ele>59.00000000000001</ele><time>2026-04-24T09:22:37.997Z</time></trkpt><trkpt lat="45.13391118736861" lon="9.223940176428515"><ele>59.0</ele><time>2026-04-24T09:22:39.997Z</time></trkpt><trkpt lat="45.13382210300298" lon="9.223896511734656"><ele>58.833333333333336</ele><time>2026-04-24T09:22:41.997Z</time></trkpt><trkpt lat="45.13373525295813" lon="9.223860310320532"><ele>58.66666666666667</ele><time>2026-04-24T09:22:43.997Z</time></trkpt><trkpt lat="45.13367150753972" lon="9.223834945745596"><ele>58.5</ele><time>2026-04-24T09:22:45.997Z</time></trkpt><trkpt lat="45.13357954342181" lon="9.22376725972139"><ele>58.33333333333333</ele><time>2026-04-24T09:25:52.995Z</time></trkpt><trkpt lat="45.13350729969119" lon="9.223738178214893"><ele>58.166666666666664</ele><time>2026-04-24T09:26:19.994Z</time></trkpt><trkpt lat="45.13343381378771" lon="9.22371928938019"><ele>58.0</ele><time>2026-04-24T09:26:20.994Z</time></trkpt><trkpt lat="45.133357753061404" lon="9.223692654498302"><ele>58.0</ele><time>2026-04-24T09:26:21.994Z</time></trkpt><trkpt lat="45.1332708668174" lon="9.223658927569254"><ele>58.0</ele><time>2026-04-24T09:26:22.994Z</time></trkpt><trkpt lat="45.133172941689736" lon="9.223629420171271"><ele>58.0</ele><time>2026-04-24T09:26:23.994Z</time></trkpt><trkpt lat="45.13307402453427" lon="9.223596436689494"><ele>58.0</ele><time>2026-04-24T09:26:24.994Z</time></trkpt><trkpt lat="45.132977517512586" lon="9.223572298113682"><ele>58.0</ele><time>2026-04-24T09:26:25.994Z</time></trkpt><trkpt lat="45.13288098244344" lon="9.223596719825538"><ele>58.0</ele><time>2026-04-24T09:26:26.994Z</time></trkpt><trkpt lat="45.1327895284644" lon="9.223585429486983"><ele>58.0</ele><time>2026-04-24T09:26:27.994Z</time></trkpt><trkpt lat="45.13269834205766" lon="9.223572110526575"><ele>58.0</ele><time>2026-04-24T09:26:28.994Z</time></trkpt><trkpt lat="45.132605403334864" lon="9.223558693780644"><ele>58.0</ele><time>2026-04-24T09:26:29.994Z</time></trkpt><trkpt lat="45.13251055118605" lon="9.223545337980731"><ele>58.0</ele><time>2026-04-24T09:26:30.994Z</time></trkpt><trkpt lat="45.13241854334692" lon="9.22353367181573"><ele>57.99999999999999</ele><time>2026-04-24T09:26:31.994Z</time></trkpt><trkpt lat="45.13233063385347" lon="9.223500264982318"><ele>58.0</ele><time>2026-04-24T09:26:32.994Z</time></trkpt><trkpt lat="45.132241947135036" lon="9.223489726298462"><ele>58.0</ele><time>2026-04-24T09:26:33.994Z</time></trkpt><trkpt lat="45.13216086170256" lon="9.223483021486807"><ele>58.0</ele><time>2026-04-24T09:26:34.994Z</time></trkpt><trkpt lat="45.13208691770687" lon="9.223502482035064"><ele>57.99999999999999</ele><time>2026-04-24T09:26:35.994Z</time></trkpt><trkpt lat="45.13202475183867" lon="9.2234793910255"><ele>58.0</ele><time>2026-04-24T09:26:36.994Z</time></trkpt><trkpt lat="45.13193570996808" lon="9.223510382477885"><ele>58.00000000000001</ele><time>2026-04-24T09:26:38.994Z</time></trkpt><trkpt lat="45.13186434134471" lon="9.223510741557284"><ele>58.0</ele><time>2026-04-24T09:26:40.994Z</time></trkpt><trkpt lat="45.13179538106022" lon="9.223482950285655"><ele>58.00000000000001</ele><time>2026-04-24T09:26:42.994Z</time></trkpt><trkpt lat="45.13173425737502" lon="9.223448290911223"><ele>58.00000000000001</ele><time>2026-04-24T09:26:43.994Z</time></trkpt><trkpt lat="45.13176224337974" lon="9.223354431223042"><ele>58.0</ele><time>2026-04-24T09:26:47.994Z</time></trkpt><trkpt lat="45.13179469017133" lon="9.223263797487933"><ele>58.00000000000001</ele><time>2026-04-24T09:26:51.001Z</time></trkpt><trkpt lat="45.13183377595519" lon="9.223174655083037"><ele>58.00000000000001</ele><time>2026-04-24T09:26:53.001Z</time></trkpt><trkpt lat="45.131890033555806" lon="9.22306968580512"><ele>57.8</ele><time>2026-04-24T09:26:55.001Z</time></trkpt><trkpt lat="45.13196264815161" lon="9.22295419646716"><ele>57.599999999999994</ele><time>2026-04-24T09:26:57.001Z</time></trkpt><trkpt lat="45.13200438755671" lon="9.22286230145279"><ele>57.400000000000006</ele><time>2026-04-24T09:26:58.001Z</time></trkpt><trkpt lat="45.1320611168946" lon="9.222758197379697"><ele>57.2</ele><time>2026-04-24T09:26:59.001Z</time></trkpt><trkpt lat="45.13212491391101" lon="9.22264510170219"><ele>57.0</ele><time>2026-04-24T09:27:00Z</time></trkpt><trkpt lat="45.13218946349001" lon="9.222538570601666"><ele>57.0</ele><time>2026-04-24T09:27:01Z</time></trkpt><trkpt lat="45.13225554894467" lon="9.22242489686501"><ele>57.0</ele><time>2026-04-24T09:27:02Z</time></trkpt><trkpt lat="45.13232638039933" lon="9.222306770618447"><ele>57.0</ele><time>2026-04-24T09:27:03Z</time></trkpt><trkpt lat="45.13238944726709" lon="9.222172569785585"><ele>57.0</ele><time>2026-04-24T09:27:04Z</time></trkpt><trkpt lat="45.13245841702649" lon="9.222030916262108"><ele>57.0</ele><time>2026-04-24T09:27:05Z</time></trkpt><trkpt lat="45.132530173628325" lon="9.221883445846393"><ele>57.0</ele><time>2026-04-24T09:27:06Z</time></trkpt><trkpt lat="45.13260462043123" lon="9.22173365447038"><ele>57.0</ele><time>2026-04-24T09:27:07Z</time></trkpt><trkpt lat="45.13267935722313" lon="9.221576038283937"><ele>57.0</ele><time>2026-04-24T09:27:08Z</time></trkpt><trkpt lat="45.132761574595904" lon="9.221422562789073"><ele>57.0</ele><time>2026-04-24T09:27:09Z</time></trkpt><trkpt lat="45.1328478980868" lon="9.22126957127881"><ele>57.0</ele><time>2026-04-24T09:27:10Z</time></trkpt><trkpt lat="45.13293053068934" lon="9.22110967978436"><ele>57.0</ele><time>2026-04-24T09:27:11Z</time></trkpt><trkpt lat="45.13302978801999" lon="9.22096784520274"><ele>57.0</ele><time>2026-04-24T09:27:12Z</time></trkpt><trkpt lat="45.133115147383" lon="9.220810485177513"><ele>57.0</ele><time>2026-04-24T09:27:13Z</time></trkpt><trkpt lat="45.13319952903338" lon="9.220655450490607"><ele>57.0</ele><time>2026-04-24T09:27:14Z</time></trkpt><trkpt lat="45.13328337732477" lon="9.220501190377275"><ele>57.0</ele><time>2026-04-24T09:27:15Z</time></trkpt><trkpt lat="45.13336430384348" lon="9.22035230560549"><ele>57.0</ele><time>2026-04-24T09:27:16Z</time></trkpt><trkpt lat="45.133436899700584" lon="9.22022046195098"><ele>57.0</ele><time>2026-04-24T09:27:17Z</time></trkpt><trkpt lat="45.133496660354346" lon="9.220112957416696"><ele>57.0</ele><time>2026-04-24T09:27:18Z</time></trkpt><trkpt lat="45.13353551206641" lon="9.220007519861392"><ele>57.0</ele><time>2026-04-24T09:27:19Z</time></trkpt><trkpt lat="45.133582426236046" lon="9.219926460719963"><ele>57.0</ele><time>2026-04-24T09:27:20Z</time></trkpt><trkpt lat="45.13362625634387" lon="9.219848562703659"><ele>57.0</ele><time>2026-04-24T09:27:21Z</time></trkpt><trkpt lat="45.13367273884881" lon="9.219763538560478"><ele>57.0</ele><time>2026-04-24T09:27:22Z</time></trkpt><trkpt lat="45.1337312204972" lon="9.21967475018631"><ele>57.0</ele><time>2026-04-24T09:27:23Z</time></trkpt><trkpt lat="45.13379170913702" lon="9.219575411692489"><ele>57.0</ele><time>2026-04-24T09:27:24Z</time></trkpt><trkpt lat="45.13385499800804" lon="9.219463600282621"><ele>57.0</ele><time>2026-04-24T09:27:25Z</time></trkpt><trkpt lat="45.13392656288073" lon="9.21934165342151"><ele>57.0</ele><time>2026-04-24T09:27:26Z</time></trkpt><trkpt lat="45.133995787132164" lon="9.219211014834368"><ele>57.0</ele><time>2026-04-24T09:27:27Z</time></trkpt><trkpt lat="45.134068933807235" lon="9.21907697221142"><ele>57.0</ele><time>2026-04-24T09:27:27.999Z</time></trkpt><trkpt lat="45.134141446334446" lon="9.218943984634521"><ele>57.0</ele><time>2026-04-24T09:27:28.999Z</time></trkpt><trkpt lat="45.13420930583633" lon="9.218819006634932"><ele>57.0</ele><time>2026-04-24T09:27:29.999Z</time></trkpt><trkpt lat="45.13427149983786" lon="9.218706735334491"><ele>57.0</ele><time>2026-04-24T09:27:30.999Z</time></trkpt><trkpt lat="45.13432623263683" lon="9.218598620036076"><ele>57.0</ele><time>2026-04-24T09:27:31.999Z</time></trkpt><trkpt lat="45.134378461042665" lon="9.218505197873567"><ele>57.0</ele><time>2026-04-24T09:27:32.999Z</time></trkpt><trkpt lat="45.13442571753281" lon="9.218417178563994"><ele>57.0</ele><time>2026-04-24T09:27:33.999Z</time></trkpt><trkpt lat="45.13447055731872" lon="9.218336030985544"><ele>57.0</ele><time>2026-04-24T09:27:34.999Z</time></trkpt><trkpt lat="45.13453989483281" lon="9.218219865638495"><ele>57.0</ele><time>2026-04-24T09:27:36.999Z</time></trkpt><trkpt lat="45.1345839168944" lon="9.218149778090636"><ele>57.0</ele><time>2026-04-24T09:27:39.999Z</time></trkpt><trkpt lat="45.13452454415662" lon="9.218053990436927"><ele>57.0</ele><time>2026-04-24T09:28:05.999Z</time></trkpt><trkpt lat="45.13446891782106" lon="9.218011218458985"><ele>57.0</ele><time>2026-04-24T09:28:06.999Z</time></trkpt><trkpt lat="45.134373233264654" lon="9.217893586429232"><ele>57.166666666666664</ele><time>2026-04-24T09:28:08.999Z</time></trkpt><trkpt lat="45.1343227664009" lon="9.21782469001747"><ele>57.33333333333333</ele><time>2026-04-24T09:28:09.999Z</time></trkpt><trkpt lat="45.13427026309837" lon="9.217749815995708"><ele>57.5</ele><time>2026-04-24T09:28:10.999Z</time></trkpt><trkpt lat="45.13422280859459" lon="9.217660460712812"><ele>57.666666666666664</ele><time>2026-04-24T09:28:11.999Z</time></trkpt><trkpt lat="45.13416947819341" lon="9.217576837403396"><ele>57.83333333333333</ele><time>2026-04-24T09:28:12.999Z</time></trkpt><trkpt lat="45.134122596602126" lon="9.217482040903894"><ele>58.0</ele><time>2026-04-24T09:28:13.999Z</time></trkpt><trkpt lat="45.134075318711915" lon="9.217374696061036"><ele>57.599999999999994</ele><time>2026-04-24T09:28:14.999Z</time></trkpt><trkpt lat="45.134027108069226" lon="9.217262696789282"><ele>57.199999999999996</ele><time>2026-04-24T09:28:15.999Z</time></trkpt><trkpt lat="45.133984225900036" lon="9.217148170920346"><ele>56.8</ele><time>2026-04-24T09:28:16.999Z</time></trkpt><trkpt lat="45.13394102615609" lon="9.217035566765468"><ele>56.4</ele><time>2026-04-24T09:28:17.999Z</time></trkpt><trkpt lat="45.133916033996634" lon="9.216906211755873"><ele>56.0</ele><time>2026-04-24T09:28:18.999Z</time></trkpt><trkpt lat="45.13387367413619" lon="9.216774193061026"><ele>56.0</ele><time>2026-04-24T09:28:19.998Z</time></trkpt><trkpt lat="45.133856158202185" lon="9.216630707728651"><ele>55.99999999999999</ele><time>2026-04-24T09:28:20.998Z</time></trkpt><trkpt lat="45.133845495018846" lon="9.216483337388718"><ele>55.99999999999999</ele><time>2026-04-24T09:28:21.998Z</time></trkpt><trkpt lat="45.13383897478414" lon="9.216330461006432"><ele>56.0</ele><time>2026-04-24T09:28:22.998Z</time></trkpt><trkpt lat="45.13383304658561" lon="9.216173600026396"><ele>56.0</ele><time>2026-04-24T09:28:23.998Z</time></trkpt><trkpt lat="45.133826983711955" lon="9.21601317532924"><ele>55.75</ele><time>2026-04-24T09:28:24.998Z</time></trkpt><trkpt lat="45.13382017108368" lon="9.215850235730048"><ele>55.5</ele><time>2026-04-24T09:28:25.998Z</time></trkpt><trkpt lat="45.1338131608236" lon="9.215683640236879"><ele>55.25</ele><time>2026-04-24T09:28:26.998Z</time></trkpt><trkpt lat="45.13380618187676" lon="9.215517777960487"><ele>55.0</ele><time>2026-04-24T09:28:27.998Z</time></trkpt><trkpt lat="45.13379397328003" lon="9.215348247188038"><ele>55.25</ele><time>2026-04-24T09:28:28.998Z</time></trkpt><trkpt lat="45.13378182577396" lon="9.215178420793718"><ele>55.5</ele><time>2026-04-24T09:28:29.998Z</time></trkpt><trkpt lat="45.13376959407819" lon="9.215008949029109"><ele>55.75</ele><time>2026-04-24T09:28:30.998Z</time></trkpt><trkpt lat="45.1337565216572" lon="9.214841344527013"><ele>56.0</ele><time>2026-04-24T09:28:31.998Z</time></trkpt><trkpt lat="45.133742775094916" lon="9.2146757129758"><ele>56.0</ele><time>2026-04-24T09:28:32.998Z</time></trkpt><trkpt lat="45.13372937089632" lon="9.21451420685798"><ele>55.99999999999999</ele><time>2026-04-24T09:28:33.998Z</time></trkpt><trkpt lat="45.1337166007325" lon="9.214360340124099"><ele>55.99999999999999</ele><time>2026-04-24T09:28:34.998Z</time></trkpt><trkpt lat="45.13370461248351" lon="9.214215894482066"><ele>56.0</ele><time>2026-04-24T09:28:35.998Z</time></trkpt><trkpt lat="45.13369230787152" lon="9.214082475245254"><ele>56.0</ele><time>2026-04-24T09:28:36.998Z</time></trkpt><trkpt lat="45.133681732912954" lon="9.213959519785362"><ele>56.00000000000001</ele><time>2026-04-24T09:28:37.998Z</time></trkpt><trkpt lat="45.13368585490853" lon="9.21385504560171"><ele>56.0</ele><time>2026-04-24T09:28:38.998Z</time></trkpt><trkpt lat="45.133640045443244" lon="9.213769541117504"><ele>56.0</ele><time>2026-04-24T09:28:39.998Z</time></trkpt><trkpt lat="45.13356210916776" lon="9.213724020079592"><ele>56.0</ele><time>2026-04-24T09:28:40.998Z</time></trkpt><trkpt lat="45.133484921459356" lon="9.21373424603466"><ele>56.00000000000001</ele><time>2026-04-24T09:28:41.998Z</time></trkpt><trkpt lat="45.1334018248025" lon="9.213753878375586"><ele>56.0</ele><time>2026-04-24T09:28:42.998Z</time></trkpt><trkpt lat="45.13331250405524" lon="9.213772795886571"><ele>55.8</ele><time>2026-04-24T09:28:43.998Z</time></trkpt><trkpt lat="45.133216267287196" lon="9.213793101967378"><ele>55.599999999999994</ele><time>2026-04-24T09:28:44.998Z</time></trkpt><trkpt lat="45.133111360182575" lon="9.213815498251071"><ele>55.4</ele><time>2026-04-24T09:28:45.998Z</time></trkpt><trkpt lat="45.13299927650777" lon="9.213839880902555"><ele>55.2</ele><time>2026-04-24T09:28:46.998Z</time></trkpt><trkpt lat="45.13287131170224" lon="9.213869016137505"><ele>55.0</ele><time>2026-04-24T09:28:47.998Z</time></trkpt><trkpt lat="45.132740736414334" lon="9.213899332686672"><ele>55.0</ele><time>2026-04-24T09:28:48.998Z</time></trkpt><trkpt lat="45.13260488721649" lon="9.213930873653238"><ele>55.0</ele><time>2026-04-24T09:28:49.998Z</time></trkpt><trkpt lat="45.13245426938211" lon="9.213965843655371"><ele>55.0</ele><time>2026-04-24T09:28:50.998Z</time></trkpt><trkpt lat="45.13229529449465" lon="9.214002187866638"><ele>55.0</ele><time>2026-04-24T09:28:51.998Z</time></trkpt><trkpt lat="45.132133919138035" lon="9.214038866764161"><ele>55.0</ele><time>2026-04-24T09:28:52.998Z</time></trkpt><trkpt lat="45.13196170068572" lon="9.214078009791912"><ele>55.0</ele><time>2026-04-24T09:28:53.998Z</time></trkpt><trkpt lat="45.13178275214789" lon="9.214118682896377"><ele>55.0</ele><time>2026-04-24T09:28:54.998Z</time></trkpt><trkpt lat="45.13160085910486" lon="9.214160025153513"><ele>55.0</ele><time>2026-04-24T09:28:55.998Z</time></trkpt><trkpt lat="45.13143963872044" lon="9.214196573347746"><ele>55.0</ele><time>2026-04-24T09:28:56.998Z</time></trkpt><trkpt lat="45.13130834005056" lon="9.214225972612594"><ele>55.0</ele><time>2026-04-24T09:28:57.998Z</time></trkpt><trkpt lat="45.13120231921793" lon="9.214236143716345"><ele>55.0</ele><time>2026-04-24T09:28:58.998Z</time></trkpt><trkpt lat="45.13111910846732" lon="9.214222580168096"><ele>55.0</ele><time>2026-04-24T09:28:59.998Z</time></trkpt><trkpt lat="45.131039802125805" lon="9.214201766173062"><ele>55.0</ele><time>2026-04-24T09:29:00.998Z</time></trkpt><trkpt lat="45.13094141382941" lon="9.214187557262044"><ele>55.0</ele><time>2026-04-24T09:29:01.998Z</time></trkpt><trkpt lat="45.1308430169394" lon="9.21418456409638"><ele>55.0</ele><time>2026-04-24T09:29:02.998Z</time></trkpt><trkpt lat="45.130753389044806" lon="9.214184172036271"><ele>55.0</ele><time>2026-04-24T09:29:03.998Z</time></trkpt><trkpt lat="45.1306442709579" lon="9.214183694719763"><ele>55.0</ele><time>2026-04-24T09:29:04.998Z</time></trkpt><trkpt lat="45.13053596866651" lon="9.214183563519772"><ele>55.0</ele><time>2026-04-24T09:29:05.998Z</time></trkpt><trkpt lat="45.130426917500806" lon="9.21418377294315"><ele>55.0</ele><time>2026-04-24T09:29:06.998Z</time></trkpt><trkpt lat="45.130302289996635" lon="9.214184012280647"><ele>55.0</ele><time>2026-04-24T09:29:07.998Z</time></trkpt><trkpt lat="45.13018328713332" lon="9.214184240814806"><ele>55.0</ele><time>2026-04-24T09:29:08.998Z</time></trkpt><trkpt lat="45.13008360619257" lon="9.214184432244071"><ele>55.0</ele><time>2026-04-24T09:29:09.998Z</time></trkpt><trkpt lat="45.12999909129913" lon="9.214184594547703"><ele>55.0</ele><time>2026-04-24T09:29:10.998Z</time></trkpt><trkpt lat="45.12990841379453" lon="9.214184768686158"><ele>55.0</ele><time>2026-04-24T09:29:12.998Z</time></trkpt><trkpt lat="45.12991033836605" lon="9.214009682731092"><ele>54.75</ele><time>2026-04-24T09:29:16.998Z</time></trkpt><trkpt lat="45.12991166839823" lon="9.21385046139128"><ele>54.5</ele><time>2026-04-24T09:29:17.998Z</time></trkpt><trkpt lat="45.129908989019185" lon="9.21369650095625"><ele>54.25</ele><time>2026-04-24T09:29:18.998Z</time></trkpt><trkpt lat="45.12992721094933" lon="9.213525123010562"><ele>54.0</ele><time>2026-04-24T09:29:19.998Z</time></trkpt><trkpt lat="45.12992707586012" lon="9.213347291640575"><ele>54.0</ele><time>2026-04-24T09:29:20.997Z</time></trkpt><trkpt lat="45.129917184775245" lon="9.21319008261876"><ele>54.0</ele><time>2026-04-24T09:29:21.997Z</time></trkpt><trkpt lat="45.12991860450269" lon="9.213020123568631"><ele>54.0</ele><time>2026-04-24T09:29:22.997Z</time></trkpt><trkpt lat="45.12991881658482" lon="9.212828303363834"><ele>54.0</ele><time>2026-04-24T09:29:23.997Z</time></trkpt><trkpt lat="45.129918492111635" lon="9.212667312403866"><ele>54.75</ele><time>2026-04-24T09:29:24.998Z</time></trkpt><trkpt lat="45.129905222880765" lon="9.212519943788461"><ele>55.5</ele><time>2026-04-24T09:29:25.998Z</time></trkpt><trkpt lat="45.12991787712579" lon="9.212370229057917"><ele>56.25</ele><time>2026-04-24T09:29:26.998Z</time></trkpt><trkpt lat="45.129915066456626" lon="9.212208680534399"><ele>57.0</ele><time>2026-04-24T09:29:27.998Z</time></trkpt><trkpt lat="45.12991716254253" lon="9.212007633083534"><ele>57.0</ele><time>2026-04-24T09:29:28.998Z</time></trkpt><trkpt lat="45.129917668411764" lon="9.211846312516906"><ele>57.0</ele><time>2026-04-24T09:29:29.998Z</time></trkpt><trkpt lat="45.12991806859079" lon="9.211696830374523"><ele>57.0</ele><time>2026-04-24T09:29:30.998Z</time></trkpt><trkpt lat="45.12991849047455" lon="9.211539240614124"><ele>57.0</ele><time>2026-04-24T09:29:31.998Z</time></trkpt><trkpt lat="45.12991891108424" lon="9.21138212687647"><ele>57.0</ele><time>2026-04-24T09:29:32.998Z</time></trkpt><trkpt lat="45.12990362151627" lon="9.211251514840205"><ele>57.0</ele><time>2026-04-24T09:29:33.998Z</time></trkpt><trkpt lat="45.129907926633706" lon="9.211103503667305"><ele>57.0</ele><time>2026-04-24T09:29:34.998Z</time></trkpt><trkpt lat="45.12991031183664" lon="9.2109496981658"><ele>57.0</ele><time>2026-04-24T09:29:35.998Z</time></trkpt><trkpt lat="45.12990721455428" lon="9.210811904427493"><ele>57.0</ele><time>2026-04-24T09:29:36.998Z</time></trkpt><trkpt lat="45.12991338432252" lon="9.21068705156856"><ele>57.0</ele><time>2026-04-24T09:29:37.998Z</time></trkpt><trkpt lat="45.12991309007914" lon="9.210543728303291"><ele>57.0</ele><time>2026-04-24T09:29:38.998Z</time></trkpt><trkpt lat="45.12992014338507" lon="9.21043273413819"><ele>57.0</ele><time>2026-04-24T09:29:39.998Z</time></trkpt><trkpt lat="45.12993268573793" lon="9.210318273305791"><ele>57.0</ele><time>2026-04-24T09:29:40.998Z</time></trkpt><trkpt lat="45.12992250214253" lon="9.210193561453677"><ele>57.0</ele><time>2026-04-24T09:29:42.998Z</time></trkpt><trkpt lat="45.12993625620962" lon="9.210080517721604"><ele>57.0</ele><time>2026-04-24T09:29:45.998Z</time></trkpt><trkpt lat="45.12994049104361" lon="9.209911889916675"><ele>57.0</ele><time>2026-04-24T09:29:47.998Z</time></trkpt><trkpt lat="45.129942608541185" lon="9.20979333432728"><ele>56.833333333333336</ele><time>2026-04-24T09:29:48.998Z</time></trkpt><trkpt lat="45.12994425255504" lon="9.209672984814762"><ele>56.66666666666667</ele><time>2026-04-24T09:29:49.998Z</time></trkpt><trkpt lat="45.12994542105969" lon="9.209549092354228"><ele>56.5</ele><time>2026-04-24T09:29:50.998Z</time></trkpt><trkpt lat="45.12994645322543" lon="9.209439655460852"><ele>56.333333333333336</ele><time>2026-04-24T09:29:51.998Z</time></trkpt><trkpt lat="45.12994757521282" lon="9.209320695019159"><ele>56.16666666666667</ele><time>2026-04-24T09:29:52.998Z</time></trkpt><trkpt lat="45.12994869511461" lon="9.209197389524187"><ele>56.0</ele><time>2026-04-24T09:29:53.998Z</time></trkpt><trkpt lat="45.12994974285419" lon="9.209068933610592"><ele>56.199999999999996</ele><time>2026-04-24T09:29:54.998Z</time></trkpt><trkpt lat="45.12993407588399" lon="9.208953535131315"><ele>56.39999999999999</ele><time>2026-04-24T09:29:55.998Z</time></trkpt><trkpt lat="45.129936767820915" lon="9.20884803569288"><ele>56.6</ele><time>2026-04-24T09:29:56.998Z</time></trkpt><trkpt lat="45.129952750402985" lon="9.20870019951613"><ele>56.8</ele><time>2026-04-24T09:29:57.998Z</time></trkpt><trkpt lat="45.12995421189278" lon="9.208521016354988"><ele>57.0</ele><time>2026-04-24T09:29:58.998Z</time></trkpt><trkpt lat="45.129956535136195" lon="9.208377877049632"><ele>57.0</ele><time>2026-04-24T09:29:59.998Z</time></trkpt><trkpt lat="45.12995886472337" lon="9.208227632081247"><ele>57.0</ele><time>2026-04-24T09:30:00.998Z</time></trkpt><trkpt lat="45.12996129539952" lon="9.208070867420334"><ele>57.0</ele><time>2026-04-24T09:30:01.998Z</time></trkpt><trkpt lat="45.12996350647158" lon="9.207928265956156"><ele>57.0</ele><time>2026-04-24T09:30:02.998Z</time></trkpt><trkpt lat="45.129965779932455" lon="9.207781640780901"><ele>57.0</ele><time>2026-04-24T09:30:03.998Z</time></trkpt><trkpt lat="45.12996792040636" lon="9.207643591930124"><ele>57.0</ele><time>2026-04-24T09:30:04.998Z</time></trkpt><trkpt lat="45.129970817969" lon="9.207495644872957"><ele>57.0</ele><time>2026-04-24T09:30:05.998Z</time></trkpt><trkpt lat="45.129973401207174" lon="9.20735796566521"><ele>57.0</ele><time>2026-04-24T09:30:06.998Z</time></trkpt><trkpt lat="45.12996716875818" lon="9.207233460259895"><ele>57.0</ele><time>2026-04-24T09:30:07.998Z</time></trkpt><trkpt lat="45.12997433690629" lon="9.207085911822364"><ele>57.0</ele><time>2026-04-24T09:30:08.998Z</time></trkpt><trkpt lat="45.129977083995584" lon="9.206945736196595"><ele>57.0</ele><time>2026-04-24T09:30:09.998Z</time></trkpt><trkpt lat="45.1299807479693" lon="9.206818083402535"><ele>57.0</ele><time>2026-04-24T09:30:10.998Z</time></trkpt><trkpt lat="45.12996819472286" lon="9.206699652534148"><ele>57.0</ele><time>2026-04-24T09:30:11.998Z</time></trkpt><trkpt lat="45.12997252002461" lon="9.206579355416897"><ele>57.0</ele><time>2026-04-24T09:30:12.998Z</time></trkpt><trkpt lat="45.129973978666996" lon="9.20645876217856"><ele>57.0</ele><time>2026-04-24T09:30:13.998Z</time></trkpt><trkpt lat="45.12996941290504" lon="9.206345941773586"><ele>57.0</ele><time>2026-04-24T09:30:14.998Z</time></trkpt><trkpt lat="45.129986866856434" lon="9.206204200165894"><ele>56.8</ele><time>2026-04-24T09:30:15.998Z</time></trkpt><trkpt lat="45.12998812584183" lon="9.206079928094859"><ele>56.6</ele><time>2026-04-24T09:30:16.998Z</time></trkpt><trkpt lat="45.12998927437481" lon="9.20596655841373"><ele>56.39999999999999</ele><time>2026-04-24T09:30:17.998Z</time></trkpt><trkpt lat="45.12999057962283" lon="9.20583771980006"><ele>56.199999999999996</ele><time>2026-04-24T09:30:18.998Z</time></trkpt><trkpt lat="45.12999213376719" lon="9.205684313234949"><ele>56.0</ele><time>2026-04-24T09:30:19.998Z</time></trkpt><trkpt lat="45.12999356803661" lon="9.205542739014327"><ele>56.0</ele><time>2026-04-24T09:30:20.998Z</time></trkpt><trkpt lat="45.12999477878759" lon="9.20540146883429"><ele>55.99999999999999</ele><time>2026-04-24T09:30:21.997Z</time></trkpt><trkpt lat="45.12999591520872" lon="9.205262945627412"><ele>55.99999999999999</ele><time>2026-04-24T09:30:22.997Z</time></trkpt><trkpt lat="45.12999705073536" lon="9.20512453145563"><ele>56.0</ele><time>2026-04-24T09:30:23.997Z</time></trkpt><trkpt lat="45.129986616756185" lon="9.204985835481226"><ele>56.0</ele><time>2026-04-24T09:30:24.997Z</time></trkpt><trkpt lat="45.12999247945048" lon="9.204869107665669"><ele>56.16666666666667</ele><time>2026-04-24T09:30:25.997Z</time></trkpt><trkpt lat="45.129991579819105" lon="9.204778569478064"><ele>56.333333333333336</ele><time>2026-04-24T09:30:26.997Z</time></trkpt><trkpt lat="45.13000157924044" lon="9.204667606946712"><ele>56.5</ele><time>2026-04-24T09:30:27.997Z</time></trkpt><trkpt lat="45.1300335071412" lon="9.204532563732036"><ele>56.66666666666667</ele><time>2026-04-24T09:30:29.997Z</time></trkpt><trkpt lat="45.130087221384734" lon="9.204423032693008"><ele>56.833333333333336</ele><time>2026-04-24T09:30:31.997Z</time></trkpt><trkpt lat="45.13015194017282" lon="9.204358922911098"><ele>57.0</ele><time>2026-04-24T09:30:34.997Z</time></trkpt><trkpt lat="45.1301079921499" lon="9.204294334324793"><ele>57.0</ele><time>2026-04-24T09:30:46.997Z</time></trkpt><trkpt lat="45.13002001707395" lon="9.204352882765093"><ele>57.0</ele><time>2026-04-24T09:30:53.997Z</time></trkpt><trkpt lat="45.130044936936415" lon="9.20445192601374"><ele>57.0</ele><time>2026-04-24T09:30:56.997Z</time></trkpt><trkpt lat="45.12995287391365" lon="9.204512869220292"><ele>57.0</ele><time>2026-04-24T09:30:58.997Z</time></trkpt><trkpt lat="45.129846103728035" lon="9.20456632819496"><ele>57.0</ele><time>2026-04-24T09:31:00.997Z</time></trkpt><trkpt lat="45.12978440750522" lon="9.204593468880907"><ele>57.166666666666664</ele><time>2026-04-24T09:31:01.997Z</time></trkpt><trkpt lat="45.129715230893574" lon="9.20462169260611"><ele>57.33333333333333</ele><time>2026-04-24T09:31:02.997Z</time></trkpt><trkpt lat="45.12964541666378" lon="9.204626922131398"><ele>57.5</ele><time>2026-04-24T09:31:03.997Z</time></trkpt><trkpt lat="45.129575159332795" lon="9.204655535738349"><ele>57.666666666666664</ele><time>2026-04-24T09:31:04.997Z</time></trkpt><trkpt lat="45.1295027153788" lon="9.204685039901072"><ele>57.83333333333333</ele><time>2026-04-24T09:31:05.997Z</time></trkpt><trkpt lat="45.129426907499" lon="9.204715914077562"><ele>58.0</ele><time>2026-04-24T09:31:06.997Z</time></trkpt><trkpt lat="45.12934460464203" lon="9.204749891226477"><ele>58.0</ele><time>2026-04-24T09:31:07.997Z</time></trkpt><trkpt lat="45.12925345678586" lon="9.204788674530315"><ele>58.0</ele><time>2026-04-24T09:31:08.997Z</time></trkpt><trkpt lat="45.12916192820083" lon="9.204827619839088"><ele>58.0</ele><time>2026-04-24T09:31:09.997Z</time></trkpt><trkpt lat="45.12907286794299" lon="9.204865514869383"><ele>58.0</ele><time>2026-04-24T09:31:10.997Z</time></trkpt><trkpt lat="45.128983147001236" lon="9.204903691039227"><ele>58.0</ele><time>2026-04-24T09:31:11.997Z</time></trkpt><trkpt lat="45.12889293933419" lon="9.204942074283414"><ele>58.2</ele><time>2026-04-24T09:31:12.997Z</time></trkpt><trkpt lat="45.12880000895877" lon="9.204981355986792"><ele>58.4</ele><time>2026-04-24T09:31:13.997Z</time></trkpt><trkpt lat="45.128706638890236" lon="9.205021107083631"><ele>58.60000000000001</ele><time>2026-04-24T09:31:14.997Z</time></trkpt><trkpt lat="45.12861411054412" lon="9.205061021911476"><ele>58.800000000000004</ele><time>2026-04-24T09:31:15.997Z</time></trkpt><trkpt lat="45.12851513011653" lon="9.205102667060153"><ele>59.0</ele><time>2026-04-24T09:31:16.997Z</time></trkpt><trkpt lat="45.128412364586545" lon="9.205146046358264"><ele>59.0</ele><time>2026-04-24T09:31:17.997Z</time></trkpt><trkpt lat="45.12831047566683" lon="9.205189055642672"><ele>59.00000000000001</ele><time>2026-04-24T09:31:18.997Z</time></trkpt><trkpt lat="45.12820992520687" lon="9.205231215453395"><ele>59.00000000000001</ele><time>2026-04-24T09:31:19.997Z</time></trkpt><trkpt lat="45.12810784072979" lon="9.205273008611181"><ele>59.0</ele><time>2026-04-24T09:31:20.997Z</time></trkpt><trkpt lat="45.128005650429486" lon="9.205314845085406"><ele>59.0</ele><time>2026-04-24T09:31:21.997Z</time></trkpt><trkpt lat="45.12790357144071" lon="9.205356635987533"><ele>58.800000000000004</ele><time>2026-04-24T09:31:22.996Z</time></trkpt><trkpt lat="45.12780158873923" lon="9.205398387464319"><ele>58.60000000000001</ele><time>2026-04-24T09:31:23.996Z</time></trkpt><trkpt lat="45.127695915397396" lon="9.205442260455982"><ele>58.4</ele><time>2026-04-24T09:31:24.996Z</time></trkpt><trkpt lat="45.12758794640105" lon="9.205486131331341"><ele>58.2</ele><time>2026-04-24T09:31:25.996Z</time></trkpt><trkpt lat="45.12747874017456" lon="9.205530504938972"><ele>58.0</ele><time>2026-04-24T09:31:26.996Z</time></trkpt><trkpt lat="45.1273715036955" lon="9.205574078175925"><ele>58.0</ele><time>2026-04-24T09:31:27.996Z</time></trkpt><trkpt lat="45.12726429029508" lon="9.205617642037062"><ele>58.0</ele><time>2026-04-24T09:31:28.996Z</time></trkpt><trkpt lat="45.12715197226736" lon="9.205663280379774"><ele>58.0</ele><time>2026-04-24T09:31:29.996Z</time></trkpt><trkpt lat="45.127038435306716" lon="9.205709394218255"><ele>58.0</ele><time>2026-04-24T09:31:30.996Z</time></trkpt><trkpt lat="45.12692569033183" lon="9.20575519368103"><ele>58.25</ele><time>2026-04-24T09:31:31.996Z</time></trkpt><trkpt lat="45.12681179773222" lon="9.205803770092666"><ele>58.5</ele><time>2026-04-24T09:31:32.996Z</time></trkpt><trkpt lat="45.12670112565247" lon="9.205851228178174"><ele>58.75</ele><time>2026-04-24T09:31:33.996Z</time></trkpt><trkpt lat="45.126592828586425" lon="9.205897387614444"><ele>59.0</ele><time>2026-04-24T09:31:34.996Z</time></trkpt><trkpt lat="45.126487249302244" lon="9.205941422970767"><ele>59.0</ele><time>2026-04-24T09:31:35.996Z</time></trkpt><trkpt lat="45.12638554725818" lon="9.205983841137286"><ele>59.00000000000001</ele><time>2026-04-24T09:31:36.996Z</time></trkpt><trkpt lat="45.1262866795445" lon="9.206025077140644"><ele>59.00000000000001</ele><time>2026-04-24T09:31:37.996Z</time></trkpt><trkpt lat="45.12619145438413" lon="9.20606378194034"><ele>59.0</ele><time>2026-04-24T09:31:38.996Z</time></trkpt><trkpt lat="45.126095589647434" lon="9.206102204889383"><ele>59.0</ele><time>2026-04-24T09:31:39.996Z</time></trkpt><trkpt lat="45.126012658499285" lon="9.206134961271768"><ele>59.00000000000001</ele><time>2026-04-24T09:31:40.996Z</time></trkpt><trkpt lat="45.12593609939723" lon="9.206172979548345"><ele>59.0</ele><time>2026-04-24T09:31:41.996Z</time></trkpt><trkpt lat="45.12586276201052" lon="9.206173375128373"><ele>59.0</ele><time>2026-04-24T09:31:42.996Z</time></trkpt><trkpt lat="45.125755315432485" lon="9.206188091703428"><ele>59.0</ele><time>2026-04-24T09:31:44.996Z</time></trkpt><trkpt lat="45.12568366703438" lon="9.206196623942093"><ele>59.00000000000001</ele><time>2026-04-24T09:31:46.996Z</time></trkpt><trkpt lat="45.12559857066234" lon="9.206119374162935"><ele>59.0</ele><time>2026-04-24T09:31:49.996Z</time></trkpt><trkpt lat="45.12557520490784" lon="9.205964635700932"><ele>59.00000000000001</ele><time>2026-04-24T09:31:51.996Z</time></trkpt><trkpt lat="45.125550173394345" lon="9.20578789118463"><ele>59.0</ele><time>2026-04-24T09:31:53.996Z</time></trkpt><trkpt lat="45.12553681881387" lon="9.205693596056134"><ele>59.0</ele><time>2026-04-24T09:31:54.996Z</time></trkpt><trkpt lat="45.12552305985845" lon="9.205596445191725"><ele>59.0</ele><time>2026-04-24T09:31:55.996Z</time></trkpt><trkpt lat="45.12550833424118" lon="9.205494955909193"><ele>59.00000000000001</ele><time>2026-04-24T09:31:56.996Z</time></trkpt><trkpt lat="45.125493486301764" lon="9.205384662368164"><ele>59.0</ele><time>2026-04-24T09:31:57.996Z</time></trkpt><trkpt lat="45.12548230608984" lon="9.205265027091775"><ele>59.0</ele><time>2026-04-24T09:31:58.996Z</time></trkpt><trkpt lat="45.12547819160027" lon="9.205147883788198"><ele>59.00000000000001</ele><time>2026-04-24T09:31:59.996Z</time></trkpt><trkpt lat="45.125478466475116" lon="9.20501739211224"><ele>59.00000000000001</ele><time>2026-04-24T09:32:00.996Z</time></trkpt><trkpt lat="45.125479944506054" lon="9.204877053731636"><ele>59.0</ele><time>2026-04-24T09:32:01.996Z</time></trkpt><trkpt lat="45.12548408741683" lon="9.204735013908216"><ele>59.0</ele><time>2026-04-24T09:32:02.996Z</time></trkpt><trkpt lat="45.125488781005544" lon="9.204591298549644"><ele>58.800000000000004</ele><time>2026-04-24T09:32:03.996Z</time></trkpt><trkpt lat="45.12549419299818" lon="9.204440629959265"><ele>58.60000000000001</ele><time>2026-04-24T09:32:04.996Z</time></trkpt><trkpt lat="45.1255003128267" lon="9.204286649758052"><ele>58.4</ele><time>2026-04-24T09:32:05.996Z</time></trkpt><trkpt lat="45.12550837015683" lon="9.204133298497606"><ele>58.2</ele><time>2026-04-24T09:32:06.996Z</time></trkpt><trkpt lat="45.12551662599711" lon="9.203976169063548"><ele>58.0</ele><time>2026-04-24T09:32:07.996Z</time></trkpt><trkpt lat="45.125524962451486" lon="9.203817505330088"><ele>57.8</ele><time>2026-04-24T09:32:08.996Z</time></trkpt><trkpt lat="45.125533162528015" lon="9.20366143671614"><ele>57.599999999999994</ele><time>2026-04-24T09:32:09.996Z</time></trkpt><trkpt lat="45.125539255646494" lon="9.203503972496001"><ele>57.400000000000006</ele><time>2026-04-24T09:32:10.996Z</time></trkpt><trkpt lat="45.12554571391695" lon="9.203346209063424"><ele>57.2</ele><time>2026-04-24T09:32:11.996Z</time></trkpt><trkpt lat="45.12555105599377" lon="9.203188542360143"><ele>57.0</ele><time>2026-04-24T09:32:12.996Z</time></trkpt><trkpt lat="45.12555584456912" lon="9.203033007977217"><ele>57.0</ele><time>2026-04-24T09:32:13.996Z</time></trkpt><trkpt lat="45.12556060864719" lon="9.202878269235127"><ele>57.0</ele><time>2026-04-24T09:32:14.996Z</time></trkpt><trkpt lat="45.12556540181533" lon="9.202722585618751"><ele>57.0</ele><time>2026-04-24T09:32:15.996Z</time></trkpt><trkpt lat="45.12557016878581" lon="9.202567752928815"><ele>57.0</ele><time>2026-04-24T09:32:16.996Z</time></trkpt><trkpt lat="45.12557389053402" lon="9.202412321351012"><ele>57.0</ele><time>2026-04-24T09:32:17.996Z</time></trkpt><trkpt lat="45.12557752721979" lon="9.202258085765877"><ele>57.0</ele><time>2026-04-24T09:32:18.996Z</time></trkpt><trkpt lat="45.1255810872855" lon="9.202107099691515"><ele>57.0</ele><time>2026-04-24T09:32:19.996Z</time></trkpt><trkpt lat="45.12558349913577" lon="9.2019605876985"><ele>57.0</ele><time>2026-04-24T09:32:20.996Z</time></trkpt><trkpt lat="45.125584949495675" lon="9.201815665821341"><ele>57.0</ele><time>2026-04-24T09:32:21.996Z</time></trkpt><trkpt lat="45.12558639041183" lon="9.20167168756012"><ele>57.0</ele><time>2026-04-24T09:32:22.996Z</time></trkpt><trkpt lat="45.12558652337204" lon="9.201529589781265"><ele>57.0</ele><time>2026-04-24T09:32:23.995Z</time></trkpt><trkpt lat="45.12558652337204" lon="9.201383995382454"><ele>57.0</ele><time>2026-04-24T09:32:24.995Z</time></trkpt><trkpt lat="45.125585750269494" lon="9.20123712545468"><ele>57.0</ele><time>2026-04-24T09:32:25.995Z</time></trkpt><trkpt lat="45.12558465470351" lon="9.201085711752826"><ele>57.0</ele><time>2026-04-24T09:32:26.995Z</time></trkpt><trkpt lat="45.12558314198268" lon="9.200930924236873"><ele>57.0</ele><time>2026-04-24T09:32:27.995Z</time></trkpt><trkpt lat="45.12558160195429" lon="9.20077431430663"><ele>57.2</ele><time>2026-04-24T09:32:28.995Z</time></trkpt><trkpt lat="45.12558006567279" lon="9.200618085391767"><ele>57.400000000000006</ele><time>2026-04-24T09:32:29.995Z</time></trkpt><trkpt lat="45.125578505026645" lon="9.200459378711457"><ele>57.599999999999994</ele><time>2026-04-24T09:32:30.995Z</time></trkpt><trkpt lat="45.125576930129526" lon="9.200299222333822"><ele>57.8</ele><time>2026-04-24T09:32:31.995Z</time></trkpt><trkpt lat="45.12557499211978" lon="9.200140912013389"><ele>58.0</ele><time>2026-04-24T09:32:32.995Z</time></trkpt><trkpt lat="45.12557312152973" lon="9.199985821189491"><ele>58.0</ele><time>2026-04-24T09:32:33.995Z</time></trkpt><trkpt lat="45.125571381941434" lon="9.19983094447893"><ele>58.0</ele><time>2026-04-24T09:32:34.995Z</time></trkpt><trkpt lat="45.125571381941434" lon="9.199678960496193"><ele>58.0</ele><time>2026-04-24T09:32:35.995Z</time></trkpt><trkpt lat="45.125571955674275" lon="9.199529445730388"><ele>58.0</ele><time>2026-04-24T09:32:36.995Z</time></trkpt><trkpt lat="45.12557590364852" lon="9.199383035304091"><ele>58.0</ele><time>2026-04-24T09:32:37.995Z</time></trkpt><trkpt lat="45.12558670799812" lon="9.199239435369577"><ele>57.99999999999999</ele><time>2026-04-24T09:32:38.995Z</time></trkpt><trkpt lat="45.12562814494194" lon="9.199122576017782"><ele>58.0</ele><time>2026-04-24T09:32:39.995Z</time></trkpt><trkpt lat="45.125654337720555" lon="9.199026307979887"><ele>58.0</ele><time>2026-04-24T09:32:40.995Z</time></trkpt><trkpt lat="45.12570427926964" lon="9.198886184181797"><ele>58.0</ele><time>2026-04-24T09:32:42.995Z</time></trkpt><trkpt lat="45.12572892615934" lon="9.198783789818664"><ele>57.99999999999999</ele><time>2026-04-24T09:32:44.995Z</time></trkpt><trkpt lat="45.125772079952334" lon="9.198714595325415"><ele>58.0</ele><time>2026-04-24T09:32:46.995Z</time></trkpt><trkpt lat="45.12577862187316" lon="9.198624028943161"><ele>58.0</ele><time>2026-04-24T09:32:52.995Z</time></trkpt><trkpt lat="45.12582975138609" lon="9.198470827544542"><ele>58.0</ele><time>2026-04-24T09:34:08Z</time></trkpt><trkpt lat="45.12588404992126" lon="9.198329772312263"><ele>58.0</ele><time>2026-04-24T09:34:10Z</time></trkpt><trkpt lat="45.12593364221916" lon="9.19820094277893"><ele>58.0</ele><time>2026-04-24T09:34:12Z</time></trkpt><trkpt lat="45.12598034965277" lon="9.198079607456268"><ele>58.0</ele><time>2026-04-24T09:34:14Z</time></trkpt><trkpt lat="45.12603200238318" lon="9.197945425463804"><ele>58.25</ele><time>2026-04-24T09:34:16Z</time></trkpt><trkpt lat="45.126089992288065" lon="9.197795035929817"><ele>58.5</ele><time>2026-04-24T09:34:18Z</time></trkpt><trkpt lat="45.126151705698724" lon="9.197638195224748"><ele>58.75</ele><time>2026-04-24T09:34:20Z</time></trkpt><trkpt lat="45.12619693596116" lon="9.19752324538554"><ele>59.0</ele><time>2026-04-24T09:34:22Z</time></trkpt><trkpt lat="45.12620282586144" lon="9.197320842359085"><ele>58.66666666666667</ele><time>2026-04-24T09:34:24Z</time></trkpt><trkpt lat="45.12612453421779" lon="9.197253061489503"><ele>58.333333333333336</ele><time>2026-04-24T09:34:26Z</time></trkpt><trkpt lat="45.126066489466744" lon="9.197202809268338"><ele>58.0</ele><time>2026-04-24T09:34:27Z</time></trkpt><trkpt lat="45.12599824867432" lon="9.197143729923587"><ele>57.66666666666667</ele><time>2026-04-24T09:34:28Z</time></trkpt><trkpt lat="45.12592930416772" lon="9.197084041323226"><ele>57.333333333333336</ele><time>2026-04-24T09:34:29Z</time></trkpt><trkpt lat="45.125861098890915" lon="9.197024992688945"><ele>57.0</ele><time>2026-04-24T09:34:30Z</time></trkpt><trkpt lat="45.12579281881892" lon="9.196965879319071"><ele>57.0</ele><time>2026-04-24T09:34:31Z</time></trkpt><trkpt lat="45.12572307457026" lon="9.196905498322412"><ele>57.0</ele><time>2026-04-24T09:34:32Z</time></trkpt><trkpt lat="45.125652290687576" lon="9.196844757757534"><ele>57.0</ele><time>2026-04-24T09:34:33Z</time></trkpt><trkpt lat="45.12558029658442" lon="9.196783622497557"><ele>57.0</ele><time>2026-04-24T09:34:34Z</time></trkpt><trkpt lat="45.12549921931301" lon="9.196739505855597"><ele>57.0</ele><time>2026-04-24T09:34:35Z</time></trkpt><trkpt lat="45.125424040823134" lon="9.196673622734284"><ele>57.0</ele><time>2026-04-24T09:34:36Z</time></trkpt><trkpt lat="45.12534743030003" lon="9.196606589594138"><ele>57.0</ele><time>2026-04-24T09:34:37Z</time></trkpt><trkpt lat="45.12527043188367" lon="9.19653984690801"><ele>57.0</ele><time>2026-04-24T09:34:38Z</time></trkpt><trkpt lat="45.125192560727214" lon="9.196472437703907"><ele>57.0</ele><time>2026-04-24T09:34:39Z</time></trkpt><trkpt lat="45.12511445812228" lon="9.196405452215798"><ele>57.0</ele><time>2026-04-24T09:34:40Z</time></trkpt><trkpt lat="45.12503735729669" lon="9.196337490320023"><ele>57.0</ele><time>2026-04-24T09:34:41Z</time></trkpt><trkpt lat="45.12496025937576" lon="9.196271188041028"><ele>57.166666666666664</ele><time>2026-04-24T09:34:42Z</time></trkpt><trkpt lat="45.124887582672486" lon="9.196205265636774"><ele>57.33333333333333</ele><time>2026-04-24T09:34:43Z</time></trkpt><trkpt lat="45.1248200270302" lon="9.19613586924374"><ele>57.5</ele><time>2026-04-24T09:34:44Z</time></trkpt><trkpt lat="45.12477778928376" lon="9.19603518399266"><ele>57.666666666666664</ele><time>2026-04-24T09:34:45Z</time></trkpt><trkpt lat="45.12478388042226" lon="9.195920797096566"><ele>57.83333333333333</ele><time>2026-04-24T09:34:46Z</time></trkpt><trkpt lat="45.12479694725074" lon="9.19580747359445"><ele>58.0</ele><time>2026-04-24T09:34:47Z</time></trkpt><trkpt lat="45.12481579377759" lon="9.195692703140326"><ele>57.99999999999999</ele><time>2026-04-24T09:34:48Z</time></trkpt><trkpt lat="45.1248362119502" lon="9.195576840443522"><ele>58.0</ele><time>2026-04-24T09:34:49Z</time></trkpt><trkpt lat="45.12485505395626" lon="9.195453437576337"><ele>58.0</ele><time>2026-04-24T09:34:50Z</time></trkpt><trkpt lat="45.124857739805044" lon="9.195327369232357"><ele>58.0</ele><time>2026-04-24T09:34:51Z</time></trkpt><trkpt lat="45.12481466498011" lon="9.195227885988253"><ele>57.99999999999999</ele><time>2026-04-24T09:34:52Z</time></trkpt><trkpt lat="45.12476650703293" lon="9.19514762342196"><ele>58.0</ele><time>2026-04-24T09:34:53Z</time></trkpt><trkpt lat="45.12469996632197" lon="9.195099317554082"><ele>57.99999999999999</ele><time>2026-04-24T09:34:54Z</time></trkpt><trkpt lat="45.124622019417764" lon="9.195080430825495"><ele>58.0</ele><time>2026-04-24T09:34:55Z</time></trkpt><trkpt lat="45.124536281271034" lon="9.195072853948528"><ele>58.0</ele><time>2026-04-24T09:34:55.999Z</time></trkpt><trkpt lat="45.12444450126871" lon="9.19506779556572"><ele>58.0</ele><time>2026-04-24T09:34:56.999Z</time></trkpt><trkpt lat="45.124351047921465" lon="9.195052388633904"><ele>57.99999999999999</ele><time>2026-04-24T09:34:57.999Z</time></trkpt><trkpt lat="45.12425751391878" lon="9.195040303279546"><ele>58.0</ele><time>2026-04-24T09:34:58.999Z</time></trkpt><trkpt lat="45.12416408680487" lon="9.19503478960327"><ele>58.0</ele><time>2026-04-24T09:34:59.999Z</time></trkpt><trkpt lat="45.1240701505609" lon="9.195029416292924"><ele>58.0</ele><time>2026-04-24T09:35:00.999Z</time></trkpt><trkpt lat="45.123976057472696" lon="9.195024614807172"><ele>58.0</ele><time>2026-04-24T09:35:01.999Z</time></trkpt><trkpt lat="45.123881750706" lon="9.1950170326959"><ele>58.0</ele><time>2026-04-24T09:35:02.999Z</time></trkpt><trkpt lat="45.123787931913355" lon="9.195009995009263"><ele>58.0</ele><time>2026-04-24T09:35:03.999Z</time></trkpt><trkpt lat="45.12369549033271" lon="9.194997076923988"><ele>58.166666666666664</ele><time>2026-04-24T09:35:04.999Z</time></trkpt><trkpt lat="45.12360599372263" lon="9.194988231984116"><ele>58.33333333333333</ele><time>2026-04-24T09:35:05.999Z</time></trkpt><trkpt lat="45.12352172620167" lon="9.194980432767279"><ele>58.5</ele><time>2026-04-24T09:35:06.999Z</time></trkpt><trkpt lat="45.123443583363525" lon="9.194973391120898"><ele>58.66666666666667</ele><time>2026-04-24T09:35:07.999Z</time></trkpt><trkpt lat="45.123371128947895" lon="9.194966323993572"><ele>58.833333333333336</ele><time>2026-04-24T09:35:08.999Z</time></trkpt><trkpt lat="45.12330611608939" lon="9.194943517198759"><ele>59.0</ele><time>2026-04-24T09:35:09.999Z</time></trkpt><trkpt lat="45.12325004517132" lon="9.194897802804448"><ele>59.00000000000001</ele><time>2026-04-24T09:35:10.999Z</time></trkpt><trkpt lat="45.12320460062667" lon="9.194822282597686"><ele>59.0</ele><time>2026-04-24T09:35:11.999Z</time></trkpt><trkpt lat="45.123173679271545" lon="9.194720709587251"><ele>59.0</ele><time>2026-04-24T09:35:12.999Z</time></trkpt><trkpt lat="45.123141877623496" lon="9.194614108508434"><ele>59.0</ele><time>2026-04-24T09:35:13.999Z</time></trkpt><trkpt lat="45.12311022569943" lon="9.194502401770947"><ele>59.00000000000001</ele><time>2026-04-24T09:35:14.999Z</time></trkpt><trkpt lat="45.123078656916206" lon="9.194386666685185"><ele>59.0</ele><time>2026-04-24T09:35:15.999Z</time></trkpt><trkpt lat="45.123048960652255" lon="9.194265401101624"><ele>59.0</ele><time>2026-04-24T09:35:16.999Z</time></trkpt><trkpt lat="45.12301487834166" lon="9.194140027156006"><ele>59.00000000000001</ele><time>2026-04-24T09:35:17.999Z</time></trkpt><trkpt lat="45.12297560375049" lon="9.194012260987197"><ele>59.00000000000001</ele><time>2026-04-24T09:35:18.999Z</time></trkpt><trkpt lat="45.122934321743344" lon="9.1938786466629"><ele>59.0</ele><time>2026-04-24T09:35:19.999Z</time></trkpt><trkpt lat="45.12289402907722" lon="9.19374054765228"><ele>59.0</ele><time>2026-04-24T09:35:20.999Z</time></trkpt><trkpt lat="45.12285266362454" lon="9.193599316537368"><ele>58.75</ele><time>2026-04-24T09:35:21.999Z</time></trkpt><trkpt lat="45.12281073794066" lon="9.193452938885166"><ele>58.5</ele><time>2026-04-24T09:35:22.999Z</time></trkpt><trkpt lat="45.122766407261025" lon="9.193305212785319"><ele>58.25</ele><time>2026-04-24T09:35:23.999Z</time></trkpt><trkpt lat="45.12271896017027" lon="9.193155518207616"><ele>58.0</ele><time>2026-04-24T09:35:24.999Z</time></trkpt><trkpt lat="45.122668261666114" lon="9.193001960679112"><ele>58.0</ele><time>2026-04-24T09:35:25.999Z</time></trkpt><trkpt lat="45.12261830313822" lon="9.192845590861653"><ele>58.0</ele><time>2026-04-24T09:35:26.999Z</time></trkpt><trkpt lat="45.12256980517152" lon="9.19268877361269"><ele>58.0</ele><time>2026-04-24T09:35:27.999Z</time></trkpt><trkpt lat="45.12252265170116" lon="9.192531254671918"><ele>58.0</ele><time>2026-04-24T09:35:28.999Z</time></trkpt><trkpt lat="45.12246844011491" lon="9.19237971484738"><ele>57.75</ele><time>2026-04-24T09:35:29.999Z</time></trkpt><trkpt lat="45.12241181241509" lon="9.192230076939126"><ele>57.5</ele><time>2026-04-24T09:35:30.999Z</time></trkpt><trkpt lat="45.122349397790295" lon="9.192085687559953"><ele>57.25</ele><time>2026-04-24T09:35:31.999Z</time></trkpt><trkpt lat="45.12227405758938" lon="9.19195386497457"><ele>57.0</ele><time>2026-04-24T09:35:32.999Z</time></trkpt><trkpt lat="45.12219883485348" lon="9.191822198572808"><ele>57.0</ele><time>2026-04-24T09:35:33.999Z</time></trkpt><trkpt lat="45.1221205030017" lon="9.191693915945304"><ele>57.0</ele><time>2026-04-24T09:35:34.999Z</time></trkpt><trkpt lat="45.122045236953156" lon="9.19156168530952"><ele>57.0</ele><time>2026-04-24T09:35:35.999Z</time></trkpt><trkpt lat="45.12198054956302" lon="9.191422656960615"><ele>57.0</ele><time>2026-04-24T09:35:36.999Z</time></trkpt><trkpt lat="45.121932905422646" lon="9.19127163718732"><ele>57.25</ele><time>2026-04-24T09:35:37.999Z</time></trkpt><trkpt lat="45.121894745488746" lon="9.191114771649236"><ele>57.5</ele><time>2026-04-24T09:35:38.999Z</time></trkpt><trkpt lat="45.12187879090307" lon="9.190951030088074"><ele>57.75</ele><time>2026-04-24T09:35:39.999Z</time></trkpt><trkpt lat="45.121862708430605" lon="9.190787189924922"><ele>58.0</ele><time>2026-04-24T09:35:40.999Z</time></trkpt><trkpt lat="45.121847590949216" lon="9.190616368471414"><ele>58.0</ele><time>2026-04-24T09:35:41.999Z</time></trkpt><trkpt lat="45.12183265803198" lon="9.190446273058846"><ele>58.0</ele><time>2026-04-24T09:35:42.999Z</time></trkpt><trkpt lat="45.12181937076277" lon="9.1902745323067"><ele>58.0</ele><time>2026-04-24T09:35:43.999Z</time></trkpt><trkpt lat="45.12180814215373" lon="9.190106595713186"><ele>58.0</ele><time>2026-04-24T09:35:44.999Z</time></trkpt><trkpt lat="45.12180995160074" lon="9.18994312022309"><ele>58.0</ele><time>2026-04-24T09:35:45.999Z</time></trkpt><trkpt lat="45.12183059858775" lon="9.1897818292689"><ele>58.0</ele><time>2026-04-24T09:35:46.999Z</time></trkpt><trkpt lat="45.12186264072644" lon="9.189627143854675"><ele>58.0</ele><time>2026-04-24T09:35:47.999Z</time></trkpt><trkpt lat="45.12190333380155" lon="9.189471585575868"><ele>58.0</ele><time>2026-04-24T09:35:48.999Z</time></trkpt><trkpt lat="45.12194864588613" lon="9.189316114312065"><ele>58.0</ele><time>2026-04-24T09:35:49.999Z</time></trkpt><trkpt lat="45.12198992331224" lon="9.189153661367605"><ele>58.0</ele><time>2026-04-24T09:35:50.999Z</time></trkpt><trkpt lat="45.122011207460595" lon="9.188989223742759"><ele>58.0</ele><time>2026-04-24T09:35:51.999Z</time></trkpt><trkpt lat="45.12200599826814" lon="9.18881910730274"><ele>58.0</ele><time>2026-04-24T09:35:52.999Z</time></trkpt><trkpt lat="45.12196937841796" lon="9.188658047988197"><ele>58.0</ele><time>2026-04-24T09:35:53.999Z</time></trkpt><trkpt lat="45.121903474609255" lon="9.18852486365001"><ele>58.0</ele><time>2026-04-24T09:35:54.999Z</time></trkpt><trkpt lat="45.12182295953709" lon="9.188409604431943"><ele>58.0</ele><time>2026-04-24T09:35:55.999Z</time></trkpt><trkpt lat="45.121753263449996" lon="9.188279379397226"><ele>58.0</ele><time>2026-04-24T09:35:56.999Z</time></trkpt><trkpt lat="45.12168905913604" lon="9.188138681022215"><ele>57.75</ele><time>2026-04-24T09:35:57.999Z</time></trkpt><trkpt lat="45.121640420749145" lon="9.187982948592602"><ele>57.5</ele><time>2026-04-24T09:35:58.999Z</time></trkpt><trkpt lat="45.121624247030205" lon="9.187815407500372"><ele>57.25</ele><time>2026-04-24T09:35:59.999Z</time></trkpt><trkpt lat="45.12160384042262" lon="9.18764511203468"><ele>57.0</ele><time>2026-04-24T09:36:00.999Z</time></trkpt><trkpt lat="45.12158537588009" lon="9.187471166769528"><ele>57.25</ele><time>2026-04-24T09:36:01.998Z</time></trkpt><trkpt lat="45.12156469483835" lon="9.187296849883614"><ele>57.5</ele><time>2026-04-24T09:36:02.998Z</time></trkpt><trkpt lat="45.12154029737185" lon="9.187119283208336"><ele>57.75</ele><time>2026-04-24T09:36:03.998Z</time></trkpt><trkpt lat="45.121515609941405" lon="9.186945318447187"><ele>58.0</ele><time>2026-04-24T09:36:04.998Z</time></trkpt><trkpt lat="45.12149953392876" lon="9.186768362342182"><ele>58.0</ele><time>2026-04-24T09:36:05.998Z</time></trkpt><trkpt lat="45.1214900623433" lon="9.186593390163317"><ele>58.0</ele><time>2026-04-24T09:36:06.998Z</time></trkpt><trkpt lat="45.121495083233825" lon="9.186425966762217"><ele>58.0</ele><time>2026-04-24T09:36:07.998Z</time></trkpt><trkpt lat="45.121521455953534" lon="9.186265860061358"><ele>58.0</ele><time>2026-04-24T09:36:08.998Z</time></trkpt><trkpt lat="45.12156446663194" lon="9.18612067230485"><ele>58.25</ele><time>2026-04-24T09:36:09.998Z</time></trkpt><trkpt lat="45.12161743250683" lon="9.18596793193478"><ele>58.5</ele><time>2026-04-24T09:36:10.998Z</time></trkpt><trkpt lat="45.121668775197506" lon="9.18580921268535"><ele>58.75</ele><time>2026-04-24T09:36:11.998Z</time></trkpt><trkpt lat="45.12170221408996" lon="9.185632855242904"><ele>59.0</ele><time>2026-04-24T09:36:12.998Z</time></trkpt><trkpt lat="45.12171057508743" lon="9.18545503079252"><ele>59.0</ele><time>2026-04-24T09:36:13.998Z</time></trkpt><trkpt lat="45.12170827126102" lon="9.185283932411217"><ele>59.0</ele><time>2026-04-24T09:36:14.998Z</time></trkpt><trkpt lat="45.12170736455927" lon="9.185114552867484"><ele>59.0</ele><time>2026-04-24T09:36:15.998Z</time></trkpt><trkpt lat="45.12172343561843" lon="9.184947966033988"><ele>59.0</ele><time>2026-04-24T09:36:16.998Z</time></trkpt><trkpt lat="45.1217494087809" lon="9.184788882229114"><ele>59.0</ele><time>2026-04-24T09:36:17.998Z</time></trkpt><trkpt lat="45.12177981540622" lon="9.184632776739985"><ele>59.00000000000001</ele><time>2026-04-24T09:36:18.998Z</time></trkpt><trkpt lat="45.121812336811146" lon="9.18448052141288"><ele>59.00000000000001</ele><time>2026-04-24T09:36:19.998Z</time></trkpt><trkpt lat="45.12182544525478" lon="9.184329340159037"><ele>59.0</ele><time>2026-04-24T09:36:20.998Z</time></trkpt><trkpt lat="45.121801510377466" lon="9.184202952462341"><ele>59.0</ele><time>2026-04-24T09:36:21.998Z</time></trkpt><trkpt lat="45.121743980952566" lon="9.184103560945438"><ele>59.00000000000001</ele><time>2026-04-24T09:36:22.998Z</time></trkpt><trkpt lat="45.12168985248556" lon="9.184006310135132"><ele>59.0</ele><time>2026-04-24T09:36:23.998Z</time></trkpt><trkpt lat="45.12161696083293" lon="9.183970777972911"><ele>59.0</ele><time>2026-04-24T09:36:24.998Z</time></trkpt><trkpt lat="45.121540752733644" lon="9.18391397674482"><ele>59.0</ele><time>2026-04-24T09:36:25.998Z</time></trkpt><trkpt lat="45.121459737330156" lon="9.183850602271946"><ele>59.00000000000001</ele><time>2026-04-24T09:36:26.998Z</time></trkpt><trkpt lat="45.1213808137779" lon="9.183769475486498"><ele>59.0</ele><time>2026-04-24T09:36:27.998Z</time></trkpt><trkpt lat="45.12129253146887" lon="9.183707940922169"><ele>59.0</ele><time>2026-04-24T09:36:28.998Z</time></trkpt><trkpt lat="45.12120600903644" lon="9.183641490289434"><ele>59.00000000000001</ele><time>2026-04-24T09:36:29.998Z</time></trkpt><trkpt lat="45.12111984920162" lon="9.1835733362082"><ele>59.00000000000001</ele><time>2026-04-24T09:36:30.998Z</time></trkpt><trkpt lat="45.12103090504918" lon="9.18350968044079"><ele>59.0</ele><time>2026-04-24T09:36:31.998Z</time></trkpt><trkpt lat="45.12094100571479" lon="9.183442014425786"><ele>59.0</ele><time>2026-04-24T09:36:32.998Z</time></trkpt><trkpt lat="45.120848539893636" lon="9.183377950741415"><ele>59.0</ele><time>2026-04-24T09:36:33.998Z</time></trkpt><trkpt lat="45.12075583347382" lon="9.183310097332852"><ele>59.00000000000001</ele><time>2026-04-24T09:36:34.998Z</time></trkpt><trkpt lat="45.12066219355001" lon="9.183239098385679"><ele>59.00000000000001</ele><time>2026-04-24T09:36:35.998Z</time></trkpt><trkpt lat="45.120567014079455" lon="9.183166553838644"><ele>59.0</ele><time>2026-04-24T09:36:36.998Z</time></trkpt><trkpt lat="45.120472064602396" lon="9.18309413713293"><ele>59.0</ele><time>2026-04-24T09:36:37.998Z</time></trkpt><trkpt lat="45.12037882146418" lon="9.183023022410374"><ele>58.6</ele><time>2026-04-24T09:36:38.998Z</time></trkpt><trkpt lat="45.12028906297963" lon="9.182952084680249"><ele>58.2</ele><time>2026-04-24T09:36:39.998Z</time></trkpt><trkpt lat="45.12020221829798" lon="9.182882231968076"><ele>57.800000000000004</ele><time>2026-04-24T09:36:40.998Z</time></trkpt><trkpt lat="45.1201151192609" lon="9.182819034118873"><ele>57.400000000000006</ele><time>2026-04-24T09:36:41.998Z</time></trkpt><trkpt lat="45.12002325133201" lon="9.18277320029654"><ele>57.0</ele><time>2026-04-24T09:36:42.998Z</time></trkpt><trkpt lat="45.119925867749984" lon="9.182769058935936"><ele>57.2</ele><time>2026-04-24T09:36:43.998Z</time></trkpt><trkpt lat="45.11982878844744" lon="9.18279589327287"><ele>57.400000000000006</ele><time>2026-04-24T09:36:44.998Z</time></trkpt><trkpt lat="45.119733949904045" lon="9.182826421247892"><ele>57.599999999999994</ele><time>2026-04-24T09:36:45.998Z</time></trkpt><trkpt lat="45.11963795761654" lon="9.18286020315424"><ele>57.8</ele><time>2026-04-24T09:36:46.998Z</time></trkpt><trkpt lat="45.11954154120696" lon="9.18289276874499"><ele>58.0</ele><time>2026-04-24T09:36:47.998Z</time></trkpt><trkpt lat="45.11944529345554" lon="9.182926770813085"><ele>57.99999999999999</ele><time>2026-04-24T09:36:48.998Z</time></trkpt><trkpt lat="45.11935044441992" lon="9.182959457727508"><ele>58.0</ele><time>2026-04-24T09:36:49.998Z</time></trkpt><trkpt lat="45.11925926534711" lon="9.182991950183682"><ele>58.0</ele><time>2026-04-24T09:36:50.998Z</time></trkpt><trkpt lat="45.11917156585107" lon="9.18302329791785"><ele>58.0</ele><time>2026-04-24T09:36:51.998Z</time></trkpt><trkpt lat="45.1190907055302" lon="9.183056742573761"><ele>57.99999999999999</ele><time>2026-04-24T09:36:52.998Z</time></trkpt><trkpt lat="45.11902091518457" lon="9.183079746646209"><ele>58.0</ele><time>2026-04-24T09:36:53.998Z</time></trkpt><trkpt lat="45.118904279218135" lon="9.183100240729381"><ele>58.166666666666664</ele><time>2026-04-24T09:36:55.998Z</time></trkpt><trkpt lat="45.118860198727575" lon="9.183028229815505"><ele>58.33333333333333</ele><time>2026-04-24T09:36:56.998Z</time></trkpt><trkpt lat="45.11880230460144" lon="9.182875135975879"><ele>58.5</ele><time>2026-04-24T09:36:58.998Z</time></trkpt><trkpt lat="45.1187801816679" lon="9.182772712451865"><ele>58.66666666666667</ele><time>2026-04-24T09:36:59.998Z</time></trkpt><trkpt lat="45.11875365625776" lon="9.18265637167762"><ele>58.833333333333336</ele><time>2026-04-24T09:37:00.998Z</time></trkpt><trkpt lat="45.118728953987095" lon="9.182528328426077"><ele>59.0</ele><time>2026-04-24T09:37:01.998Z</time></trkpt><trkpt lat="45.11870300996604" lon="9.18239275034197"><ele>59.0</ele><time>2026-04-24T09:37:02.998Z</time></trkpt><trkpt lat="45.11867965738886" lon="9.182254298151458"><ele>59.00000000000001</ele><time>2026-04-24T09:37:03.998Z</time></trkpt><trkpt lat="45.11866084215065" lon="9.182114911678745"><ele>59.00000000000001</ele><time>2026-04-24T09:37:04.998Z</time></trkpt><trkpt lat="45.118639268246376" lon="9.181970640256708"><ele>59.0</ele><time>2026-04-24T09:37:05.998Z</time></trkpt><trkpt lat="45.1186180648818" lon="9.181823498859803"><ele>59.0</ele><time>2026-04-24T09:37:06.997Z</time></trkpt><trkpt lat="45.118588051637666" lon="9.18167878961212"><ele>59.0</ele><time>2026-04-24T09:37:07.997Z</time></trkpt><trkpt lat="45.118563468223165" lon="9.181532531710017"><ele>59.00000000000001</ele><time>2026-04-24T09:37:08.997Z</time></trkpt><trkpt lat="45.11853914865213" lon="9.181388408988314"><ele>59.00000000000001</ele><time>2026-04-24T09:37:09.997Z</time></trkpt><trkpt lat="45.11851990314884" lon="9.18124857712541"><ele>59.0</ele><time>2026-04-24T09:37:10.997Z</time></trkpt><trkpt lat="45.118503544550464" lon="9.181108922871859"><ele>59.0</ele><time>2026-04-24T09:37:11.997Z</time></trkpt><trkpt lat="45.11849363502671" lon="9.180964609173142"><ele>59.0</ele><time>2026-04-24T09:37:12.997Z</time></trkpt><trkpt lat="45.11848631815423" lon="9.180820838272325"><ele>59.00000000000001</ele><time>2026-04-24T09:37:13.997Z</time></trkpt><trkpt lat="45.118472297825534" lon="9.180680128380388"><ele>59.00000000000001</ele><time>2026-04-24T09:37:14.997Z</time></trkpt><trkpt lat="45.11843363889065" lon="9.18055714359282"><ele>59.0</ele><time>2026-04-24T09:37:15.997Z</time></trkpt><trkpt lat="45.118372484536415" lon="9.180453720321413"><ele>59.0</ele><time>2026-04-24T09:37:16.997Z</time></trkpt><trkpt lat="45.118284247658856" lon="9.180381474223612"><ele>59.25</ele><time>2026-04-24T09:37:17.997Z</time></trkpt><trkpt lat="45.11818494248463" lon="9.18031362268353"><ele>59.5</ele><time>2026-04-24T09:37:18.997Z</time></trkpt><trkpt lat="45.11807693271003" lon="9.180250678943624"><ele>59.75</ele><time>2026-04-24T09:37:19.997Z</time></trkpt><trkpt lat="45.11796748141625" lon="9.18017880842201"><ele>60.0</ele><time>2026-04-24T09:37:20.997Z</time></trkpt><trkpt lat="45.11785563448498" lon="9.180109694405868"><ele>60.0</ele><time>2026-04-24T09:37:21.997Z</time></trkpt><trkpt lat="45.11774389007486" lon="9.18004133638862"><ele>60.0</ele><time>2026-04-24T09:37:22.997Z</time></trkpt><trkpt lat="45.11763122298022" lon="9.179978958064416"><ele>60.0</ele><time>2026-04-24T09:37:23.997Z</time></trkpt><trkpt lat="45.11752100724926" lon="9.179913526693975"><ele>60.0</ele><time>2026-04-24T09:37:24.997Z</time></trkpt><trkpt lat="45.11741231346052" lon="9.179849128495386"><ele>59.5</ele><time>2026-04-24T09:37:25.997Z</time></trkpt><trkpt lat="45.1173038071927" lon="9.179779601189965"><ele>59.0</ele><time>2026-04-24T09:37:26.997Z</time></trkpt><trkpt lat="45.117205392569154" lon="9.179699672264931"><ele>58.5</ele><time>2026-04-24T09:37:27.997Z</time></trkpt><trkpt lat="45.11712319623566" lon="9.179593866929718"><ele>58.0</ele><time>2026-04-24T09:37:28.997Z</time></trkpt><trkpt lat="45.11706799227837" lon="9.179457115952872"><ele>58.0</ele><time>2026-04-24T09:37:29.997Z</time></trkpt><trkpt lat="45.11705349926285" lon="9.179293349055301"><ele>58.0</ele><time>2026-04-24T09:37:30.997Z</time></trkpt><trkpt lat="45.117019950851436" lon="9.179119813209294"><ele>58.0</ele><time>2026-04-24T09:37:31.997Z</time></trkpt><trkpt lat="45.1170222195026" lon="9.178937778982936"><ele>58.0</ele><time>2026-04-24T09:37:32.997Z</time></trkpt><trkpt lat="45.116993418009194" lon="9.178758204966815"><ele>58.0</ele><time>2026-04-24T09:37:33.997Z</time></trkpt><trkpt lat="45.117002070481036" lon="9.178577951709723"><ele>58.0</ele><time>2026-04-24T09:37:34.997Z</time></trkpt><trkpt lat="45.11699710572249" lon="9.178407100725606"><ele>58.0</ele><time>2026-04-24T09:37:35.997Z</time></trkpt><trkpt lat="45.11699763897832" lon="9.178246666835157"><ele>58.0</ele><time>2026-04-24T09:37:36.997Z</time></trkpt><trkpt lat="45.117003774240246" lon="9.178097920381145"><ele>57.99999999999999</ele><time>2026-04-24T09:37:37.997Z</time></trkpt><trkpt lat="45.11701306595139" lon="9.177957782196573"><ele>58.0</ele><time>2026-04-24T09:37:38.997Z</time></trkpt><trkpt lat="45.11702130729382" lon="9.177833485242282"><ele>58.0</ele><time>2026-04-24T09:37:39.997Z</time></trkpt><trkpt lat="45.11702832965595" lon="9.177727573423082"><ele>58.0</ele><time>2026-04-24T09:37:40.997Z</time></trkpt><trkpt lat="45.11704051557002" lon="9.17757124627794"><ele>57.99999999999999</ele><time>2026-04-24T09:37:42.997Z</time></trkpt><trkpt lat="45.11705051586958" lon="9.177468001499243"><ele>58.0</ele><time>2026-04-24T09:37:44.997Z</time></trkpt><trkpt lat="45.116929304789984" lon="9.177397856683374"><ele>58.0</ele><time>2026-04-24T09:37:46.997Z</time></trkpt><trkpt lat="45.11684578173169" lon="9.177412965558077"><ele>58.0</ele><time>2026-04-24T09:37:47.997Z</time></trkpt><trkpt lat="45.116749684957405" lon="9.177439488719633"><ele>58.0</ele><time>2026-04-24T09:37:48.997Z</time></trkpt><trkpt lat="45.11664773453034" lon="9.177447372695339"><ele>58.0</ele><time>2026-04-24T09:37:49.997Z</time></trkpt><trkpt lat="45.11654343911412" lon="9.177469971327156"><ele>58.0</ele><time>2026-04-24T09:37:50.997Z</time></trkpt><trkpt lat="45.11643453179266" lon="9.177484731592893"><ele>58.0</ele><time>2026-04-24T09:37:51.997Z</time></trkpt><trkpt lat="45.11632221211689" lon="9.177480689030881"><ele>58.0</ele><time>2026-04-24T09:37:52.997Z</time></trkpt><trkpt lat="45.116211241565864" lon="9.177517815789743"><ele>58.0</ele><time>2026-04-24T09:37:53.997Z</time></trkpt><trkpt lat="45.11609690901287" lon="9.177535361775396"><ele>58.0</ele><time>2026-04-24T09:37:54.997Z</time></trkpt><trkpt lat="45.115980957214234" lon="9.17753235930309"><ele>58.0</ele><time>2026-04-24T09:37:55.997Z</time></trkpt><trkpt lat="45.11586703157315" lon="9.17755051539371"><ele>58.0</ele><time>2026-04-24T09:37:56.997Z</time></trkpt><trkpt lat="45.11575413172253" lon="9.177566525527784"><ele>58.0</ele><time>2026-04-24T09:37:57.997Z</time></trkpt><trkpt lat="45.11564136158426" lon="9.177575351657346"><ele>58.0</ele><time>2026-04-24T09:37:58.997Z</time></trkpt><trkpt lat="45.11552712781355" lon="9.177571257143528"><ele>57.75</ele><time>2026-04-24T09:37:59.997Z</time></trkpt><trkpt lat="45.115411045920865" lon="9.177567003072008"><ele>57.5</ele><time>2026-04-24T09:38:00.997Z</time></trkpt><trkpt lat="45.11529743633744" lon="9.177586337830157"><ele>57.25</ele><time>2026-04-24T09:38:01.997Z</time></trkpt><trkpt lat="45.115186023021266" lon="9.177568551581796"><ele>57.0</ele><time>2026-04-24T09:38:02.997Z</time></trkpt><trkpt lat="45.1150784200019" lon="9.177552839073275"><ele>57.0</ele><time>2026-04-24T09:38:03.997Z</time></trkpt><trkpt lat="45.114974091222265" lon="9.177534935259233"><ele>57.0</ele><time>2026-04-24T09:38:04.997Z</time></trkpt><trkpt lat="45.11487027885707" lon="9.177516800250316"><ele>57.0</ele><time>2026-04-24T09:38:05.997Z</time></trkpt><trkpt lat="45.114761067398476" lon="9.177493831426785"><ele>57.0</ele><time>2026-04-24T09:38:06.997Z</time></trkpt><trkpt lat="45.11464658427641" lon="9.177476433611568"><ele>57.0</ele><time>2026-04-24T09:38:07.997Z</time></trkpt><trkpt lat="45.114531865057465" lon="9.177438373667876"><ele>57.25</ele><time>2026-04-24T09:38:08.997Z</time></trkpt><trkpt lat="45.11441663652366" lon="9.177430305341595"><ele>57.5</ele><time>2026-04-24T09:38:09.997Z</time></trkpt><trkpt lat="45.11429849111621" lon="9.177412364526871"><ele>57.75</ele><time>2026-04-24T09:38:10.996Z</time></trkpt><trkpt lat="45.11418034328305" lon="9.17739276479254"><ele>58.0</ele><time>2026-04-24T09:38:11.996Z</time></trkpt><trkpt lat="45.114065297001844" lon="9.17737178335595"><ele>58.0</ele><time>2026-04-24T09:38:12.996Z</time></trkpt><trkpt lat="45.11395416842127" lon="9.177332717989433"><ele>58.0</ele><time>2026-04-24T09:38:13.996Z</time></trkpt><trkpt lat="45.11383704747521" lon="9.177336910084865"><ele>58.0</ele><time>2026-04-24T09:38:14.996Z</time></trkpt><trkpt lat="45.1137257283554" lon="9.177293734188403"><ele>58.0</ele><time>2026-04-24T09:38:15.996Z</time></trkpt><trkpt lat="45.11361741387128" lon="9.17727269823701"><ele>58.0</ele><time>2026-04-24T09:38:16.996Z</time></trkpt><trkpt lat="45.11351475214738" lon="9.177252760102"><ele>58.0</ele><time>2026-04-24T09:38:17.996Z</time></trkpt><trkpt lat="45.11341407284298" lon="9.177234810570502"><ele>58.0</ele><time>2026-04-24T09:38:18.996Z</time></trkpt><trkpt lat="45.11331593412355" lon="9.177222581112137"><ele>58.0</ele><time>2026-04-24T09:38:19.996Z</time></trkpt><trkpt lat="45.113219312048" lon="9.177213646436163"><ele>58.0</ele><time>2026-04-24T09:38:20.996Z</time></trkpt><trkpt lat="45.113126819839344" lon="9.177220157123015"><ele>58.4</ele><time>2026-04-24T09:38:21.996Z</time></trkpt><trkpt lat="45.11303586640329" lon="9.1772012207593"><ele>58.8</ele><time>2026-04-24T09:38:22.996Z</time></trkpt><trkpt lat="45.11294113173666" lon="9.177168384409306"><ele>59.2</ele><time>2026-04-24T09:38:23.996Z</time></trkpt><trkpt lat="45.11284501530763" lon="9.177129750200272"><ele>59.6</ele><time>2026-04-24T09:38:24.996Z</time></trkpt><trkpt lat="45.112749197806515" lon="9.177085925611285"><ele>60.0</ele><time>2026-04-24T09:38:25.996Z</time></trkpt><trkpt lat="45.1126509347501" lon="9.177043069754838"><ele>60.0</ele><time>2026-04-24T09:38:26.996Z</time></trkpt><trkpt lat="45.11255637153028" lon="9.17697660644553"><ele>60.0</ele><time>2026-04-24T09:38:27.996Z</time></trkpt><trkpt lat="45.11245939882013" lon="9.1769281950099"><ele>60.0</ele><time>2026-04-24T09:38:28.996Z</time></trkpt><trkpt lat="45.11236958421962" lon="9.176880789404981"><ele>60.0</ele><time>2026-04-24T09:38:29.996Z</time></trkpt><trkpt lat="45.11228779489002" lon="9.176837123778856"><ele>60.0</ele><time>2026-04-24T09:38:30.996Z</time></trkpt><trkpt lat="45.112207505623694" lon="9.176818938001093"><ele>60.166666666666664</ele><time>2026-04-24T09:38:31.996Z</time></trkpt><trkpt lat="45.112138530370906" lon="9.17677862697505"><ele>60.33333333333333</ele><time>2026-04-24T09:38:32.996Z</time></trkpt><trkpt lat="45.11207412600583" lon="9.176731220364148"><ele>60.5</ele><time>2026-04-24T09:38:33.996Z</time></trkpt><trkpt lat="45.11201044871136" lon="9.17669565646125"><ele>60.666666666666664</ele><time>2026-04-24T09:38:34.996Z</time></trkpt><trkpt lat="45.111906423984635" lon="9.176633880763262"><ele>60.83333333333333</ele><time>2026-04-24T09:38:36.996Z</time></trkpt><trkpt lat="45.111817363206086" lon="9.176593314293275"><ele>61.0</ele><time>2026-04-24T09:38:38.996Z</time></trkpt><trkpt lat="45.11172420611391" lon="9.176519250169658"><ele>60.99999999999999</ele><time>2026-04-24T09:38:40.996Z</time></trkpt><trkpt lat="45.11166501095674" lon="9.176468725307252"><ele>61.0</ele><time>2026-04-24T09:38:41.996Z</time></trkpt><trkpt lat="45.11159555234362" lon="9.176411135450028"><ele>61.0</ele><time>2026-04-24T09:38:42.996Z</time></trkpt><trkpt lat="45.11152658015987" lon="9.176349026332655"><ele>61.0</ele><time>2026-04-24T09:38:43.996Z</time></trkpt><trkpt lat="45.111458417823926" lon="9.176283842406189"><ele>60.99999999999999</ele><time>2026-04-24T09:38:44.996Z</time></trkpt><trkpt lat="45.11137230055109" lon="9.176254016248539"><ele>61.0</ele><time>2026-04-24T09:38:45.996Z</time></trkpt><trkpt lat="45.11128507586788" lon="9.176201493108115"><ele>61.199999999999996</ele><time>2026-04-24T09:38:46.996Z</time></trkpt><trkpt lat="45.11119646859303" lon="9.176150440560365"><ele>61.39999999999999</ele><time>2026-04-24T09:38:47.996Z</time></trkpt><trkpt lat="45.111106982084124" lon="9.176099720891786"><ele>61.6</ele><time>2026-04-24T09:38:48.996Z</time></trkpt><trkpt lat="45.11101725279266" lon="9.17604886370393"><ele>61.8</ele><time>2026-04-24T09:38:49.996Z</time></trkpt><trkpt lat="45.110928521560574" lon="9.175981725212658"><ele>62.0</ele><time>2026-04-24T09:38:50.996Z</time></trkpt><trkpt lat="45.110834585793945" lon="9.175933616751822"><ele>62.00000000000001</ele><time>2026-04-24T09:38:51.996Z</time></trkpt><trkpt lat="45.1107440541859" lon="9.175879046970831"><ele>62.0</ele><time>2026-04-24T09:38:52.996Z</time></trkpt><trkpt lat="45.11065987417992" lon="9.175818234565488"><ele>62.0</ele><time>2026-04-24T09:38:53.996Z</time></trkpt><trkpt lat="45.11057479191701" lon="9.175782326712053"><ele>62.0</ele><time>2026-04-24T09:38:54.996Z</time></trkpt><trkpt lat="45.11049733647907" lon="9.17573409236245"><ele>62.00000000000001</ele><time>2026-04-24T09:38:55.996Z</time></trkpt><trkpt lat="45.11042265450581" lon="9.175688557172966"><ele>62.0</ele><time>2026-04-24T09:38:56.996Z</time></trkpt><trkpt lat="45.11035439004062" lon="9.175648329243243"><ele>62.0</ele><time>2026-04-24T09:38:57.996Z</time></trkpt><trkpt lat="45.11025609951746" lon="9.175591208819359"><ele>62.0</ele><time>2026-04-24T09:38:59.996Z</time></trkpt><trkpt lat="45.110178956079885" lon="9.17556364972393"><ele>62.0</ele><time>2026-04-24T09:39:01.996Z</time></trkpt><trkpt lat="45.110077808904634" lon="9.175458450422934"><ele>62.0</ele><time>2026-04-24T09:39:02.996Z</time></trkpt><trkpt lat="45.11010523573287" lon="9.175330842006577"><ele>62.0</ele><time>2026-04-24T09:39:04.996Z</time></trkpt><trkpt lat="45.110084118367986" lon="9.175227738315874"><ele>62.0</ele><time>2026-04-24T09:39:06.996Z</time></trkpt><trkpt lat="45.11003205820275" lon="9.17517697829069"><ele>62.00000000000001</ele><time>2026-04-24T09:39:07.996Z</time></trkpt><trkpt lat="45.10997707787461" lon="9.175112706425859"><ele>62.0</ele><time>2026-04-24T09:39:08.996Z</time></trkpt><trkpt lat="45.10991642165622" lon="9.175046202533279"><ele>62.0</ele><time>2026-04-24T09:39:09.996Z</time></trkpt><trkpt lat="45.109856385318686" lon="9.174981418917804"><ele>62.00000000000001</ele><time>2026-04-24T09:39:10.996Z</time></trkpt><trkpt lat="45.10979825668084" lon="9.17492828764356"><ele>62.0</ele><time>2026-04-24T09:39:11.996Z</time></trkpt><trkpt lat="45.10973867079815" lon="9.174872474940893"><ele>62.0</ele><time>2026-04-24T09:39:12.996Z</time></trkpt><trkpt lat="45.1096685107789" lon="9.174815378739012"><ele>61.6</ele><time>2026-04-24T09:39:13.996Z</time></trkpt><trkpt lat="45.1095938118515" lon="9.174760570280592"><ele>61.2</ele><time>2026-04-24T09:39:14.996Z</time></trkpt><trkpt lat="45.109524611022245" lon="9.174685908295851"><ele>60.8</ele><time>2026-04-24T09:39:15.995Z</time></trkpt><trkpt lat="45.10944201920259" lon="9.174612771948714"><ele>60.4</ele><time>2026-04-24T09:39:16.995Z</time></trkpt><trkpt lat="45.10935007248462" lon="9.174548328992124"><ele>60.0</ele><time>2026-04-24T09:39:17.995Z</time></trkpt><trkpt lat="45.10925886185072" lon="9.17447846287865"><ele>60.0</ele><time>2026-04-24T09:39:18.995Z</time></trkpt><trkpt lat="45.10916829964908" lon="9.17440583030493"><ele>60.0</ele><time>2026-04-24T09:39:19.995Z</time></trkpt><trkpt lat="45.10907516590587" lon="9.174326512198482"><ele>60.0</ele><time>2026-04-24T09:39:20.995Z</time></trkpt><trkpt lat="45.10897831508435" lon="9.174244221959158"><ele>60.0</ele><time>2026-04-24T09:39:21.995Z</time></trkpt><trkpt lat="45.108882114886704" lon="9.174162918985067"><ele>60.0</ele><time>2026-04-24T09:39:22.995Z</time></trkpt><trkpt lat="45.10878905518282" lon="9.174077209943196"><ele>60.0</ele><time>2026-04-24T09:39:23.995Z</time></trkpt><trkpt lat="45.10869042992892" lon="9.173992911545083"><ele>60.0</ele><time>2026-04-24T09:39:24.995Z</time></trkpt><trkpt lat="45.108600878356114" lon="9.173887827465585"><ele>60.0</ele><time>2026-04-24T09:39:25.995Z</time></trkpt><trkpt lat="45.10851294132222" lon="9.173782554987561"><ele>60.0</ele><time>2026-04-24T09:39:26.995Z</time></trkpt><trkpt lat="45.10842295472512" lon="9.17367746753308"><ele>60.0</ele><time>2026-04-24T09:39:27.995Z</time></trkpt><trkpt lat="45.1083344097553" lon="9.173579192102947"><ele>60.0</ele><time>2026-04-24T09:39:28.995Z</time></trkpt><trkpt lat="45.10823937156573" lon="9.173488861409359"><ele>60.0</ele><time>2026-04-24T09:39:29.995Z</time></trkpt><trkpt lat="45.10814159774211" lon="9.173400922888689"><ele>60.0</ele><time>2026-04-24T09:39:30.995Z</time></trkpt><trkpt lat="45.108051325889285" lon="9.173292742743108"><ele>60.0</ele><time>2026-04-24T09:39:31.995Z</time></trkpt><trkpt lat="45.10795619666424" lon="9.173191636864056"><ele>60.0</ele><time>2026-04-24T09:39:32.995Z</time></trkpt><trkpt lat="45.107867141675825" lon="9.173084320363134"><ele>60.0</ele><time>2026-04-24T09:39:33.995Z</time></trkpt><trkpt lat="45.10777790249282" lon="9.172971371569588"><ele>60.0</ele><time>2026-04-24T09:39:34.995Z</time></trkpt><trkpt lat="45.10767475060937" lon="9.17287499949669"><ele>60.0</ele><time>2026-04-24T09:39:35.995Z</time></trkpt><trkpt lat="45.107577368353176" lon="9.172747589494806"><ele>60.0</ele><time>2026-04-24T09:39:36.995Z</time></trkpt><trkpt lat="45.10747431523439" lon="9.172597998922264"><ele>60.0</ele><time>2026-04-24T09:39:37.995Z</time></trkpt><trkpt lat="45.107370321936095" lon="9.172438531076093"><ele>60.0</ele><time>2026-04-24T09:39:38.995Z</time></trkpt><trkpt lat="45.10726533614902" lon="9.172276421424622"><ele>59.33333333333333</ele><time>2026-04-24T09:39:39.995Z</time></trkpt><trkpt lat="45.10716024375419" lon="9.172113124861344"><ele>58.666666666666664</ele><time>2026-04-24T09:39:40.995Z</time></trkpt><trkpt lat="45.107057033211895" lon="9.1719530126835"><ele>58.0</ele><time>2026-04-24T09:39:41.995Z</time></trkpt><trkpt lat="45.10695690325043" lon="9.17179686415562"><ele>58.0</ele><time>2026-04-24T09:39:42.995Z</time></trkpt><trkpt lat="45.106856351988206" lon="9.171639921930751"><ele>58.0</ele><time>2026-04-24T09:39:43.995Z</time></trkpt><trkpt lat="45.106756298951154" lon="9.171483757382292"><ele>58.0</ele><time>2026-04-24T09:39:44.995Z</time></trkpt><trkpt lat="45.10665708102037" lon="9.171327779664654"><ele>58.0</ele><time>2026-04-24T09:39:45.995Z</time></trkpt><trkpt lat="45.106560038125394" lon="9.171170617628029"><ele>58.0</ele><time>2026-04-24T09:39:46.995Z</time></trkpt><trkpt lat="45.10646530489885" lon="9.171009735873707"><ele>58.0</ele><time>2026-04-24T09:39:47.995Z</time></trkpt><trkpt lat="45.106377523816384" lon="9.170855156375689"><ele>58.0</ele><time>2026-04-24T09:39:48.995Z</time></trkpt><trkpt lat="45.1062953646594" lon="9.17070668090375"><ele>58.0</ele><time>2026-04-24T09:39:49.995Z</time></trkpt><trkpt lat="45.1062176070201" lon="9.170564377703418"><ele>57.75</ele><time>2026-04-24T09:39:50.995Z</time></trkpt><trkpt lat="45.106142160585115" lon="9.170426304232626"><ele>57.5</ele><time>2026-04-24T09:39:51.995Z</time></trkpt><trkpt lat="45.10606833042968" lon="9.170288884825432"><ele>57.25</ele><time>2026-04-24T09:39:52.995Z</time></trkpt><trkpt lat="45.10599547822292" lon="9.170147883144892"><ele>57.0</ele><time>2026-04-24T09:39:53.995Z</time></trkpt><trkpt lat="45.10592558618889" lon="9.170006498805716"><ele>57.0</ele><time>2026-04-24T09:39:54.995Z</time></trkpt><trkpt lat="45.10585751893621" lon="9.1698651225645"><ele>57.0</ele><time>2026-04-24T09:39:55.995Z</time></trkpt><trkpt lat="45.10579023382976" lon="9.16972073035179"><ele>57.0</ele><time>2026-04-24T09:39:56.995Z</time></trkpt><trkpt lat="45.105723842648466" lon="9.169577300646658"><ele>57.0</ele><time>2026-04-24T09:39:57.995Z</time></trkpt><trkpt lat="45.10565699847823" lon="9.169432892734383"><ele>57.0</ele><time>2026-04-24T09:39:58.995Z</time></trkpt><trkpt lat="45.105589570918816" lon="9.16928635884597"><ele>57.0</ele><time>2026-04-24T09:39:59.995Z</time></trkpt><trkpt lat="45.105522235910975" lon="9.16913872932923"><ele>57.0</ele><time>2026-04-24T09:40:00.995Z</time></trkpt><trkpt lat="45.10545668369176" lon="9.168991249270858"><ele>57.0</ele><time>2026-04-24T09:40:01.995Z</time></trkpt><trkpt lat="45.10539329306666" lon="9.16884452057519"><ele>57.5</ele><time>2026-04-24T09:40:02.995Z</time></trkpt><trkpt lat="45.10532989362674" lon="9.168697805949595"><ele>58.0</ele><time>2026-04-24T09:40:03.995Z</time></trkpt><trkpt lat="45.1052667264463" lon="9.168553881883728"><ele>58.5</ele><time>2026-04-24T09:40:04.995Z</time></trkpt><trkpt lat="45.10520405210611" lon="9.168413674223023"><ele>59.0</ele><time>2026-04-24T09:40:05.995Z</time></trkpt><trkpt lat="45.10514298165851" lon="9.168277054993109"><ele>59.75</ele><time>2026-04-24T09:40:06.995Z</time></trkpt><trkpt lat="45.10508146724806" lon="9.168139442576777"><ele>60.5</ele><time>2026-04-24T09:40:07.995Z</time></trkpt><trkpt lat="45.1050210019741" lon="9.16800417707635"><ele>61.25</ele><time>2026-04-24T09:40:08.995Z</time></trkpt><trkpt lat="45.10495998861008" lon="9.167865306861104"><ele>62.0</ele><time>2026-04-24T09:40:09.995Z</time></trkpt><trkpt lat="45.1049209464215" lon="9.167713475006126"><ele>61.400000000000006</ele><time>2026-04-24T09:40:10.995Z</time></trkpt><trkpt lat="45.10485930741046" lon="9.167584852304863"><ele>60.800000000000004</ele><time>2026-04-24T09:40:11.995Z</time></trkpt><trkpt lat="45.10482272897025" lon="9.167452264391304"><ele>60.2</ele><time>2026-04-24T09:40:12.995Z</time></trkpt><trkpt lat="45.1047811674764" lon="9.167323650547369"><ele>59.6</ele><time>2026-04-24T09:40:13.995Z</time></trkpt><trkpt lat="45.1047379162062" lon="9.167199624321663"><ele>59.0</ele><time>2026-04-24T09:40:14.995Z</time></trkpt><trkpt lat="45.104686592905324" lon="9.167080529068137"><ele>59.0</ele><time>2026-04-24T09:40:15.995Z</time></trkpt><trkpt lat="45.10464601436296" lon="9.166947950662763"><ele>59.00000000000001</ele><time>2026-04-24T09:40:16.995Z</time></trkpt><trkpt lat="45.104589816507804" lon="9.166823720425134"><ele>59.00000000000001</ele><time>2026-04-24T09:40:17.995Z</time></trkpt><trkpt lat="45.1045488247024" lon="9.166684270076178"><ele>59.0</ele><time>2026-04-24T09:40:18.995Z</time></trkpt><trkpt lat="45.10452009617839" lon="9.16653979564213"><ele>59.0</ele><time>2026-04-24T09:40:19.995Z</time></trkpt><trkpt lat="45.1045117419513" lon="9.166387781279914"><ele>59.400000000000006</ele><time>2026-04-24T09:40:20.994Z</time></trkpt><trkpt lat="45.10449946555735" lon="9.166245201029101"><ele>59.800000000000004</ele><time>2026-04-24T09:40:21.994Z</time></trkpt><trkpt lat="45.10450462553475" lon="9.16610867685018"><ele>60.199999999999996</ele><time>2026-04-24T09:40:22.994Z</time></trkpt><trkpt lat="45.10450627832407" lon="9.165976268877033"><ele>60.599999999999994</ele><time>2026-04-24T09:40:23.994Z</time></trkpt><trkpt lat="45.10451706779474" lon="9.165855796098798"><ele>61.0</ele><time>2026-04-24T09:40:24.994Z</time></trkpt><trkpt lat="45.104522086728664" lon="9.165741033006729"><ele>60.99999999999999</ele><time>2026-04-24T09:40:25.994Z</time></trkpt><trkpt lat="45.10452838324696" lon="9.16563797379794"><ele>61.0</ele><time>2026-04-24T09:40:26.994Z</time></trkpt><trkpt lat="45.10452892760694" lon="9.16554774474166"><ele>61.0</ele><time>2026-04-24T09:40:27.994Z</time></trkpt><trkpt lat="45.104504253735705" lon="9.165406024335136"><ele>61.0</ele><time>2026-04-24T09:40:29.994Z</time></trkpt><trkpt lat="45.10441202621258" lon="9.165347355601513"><ele>60.99999999999999</ele><time>2026-04-24T09:40:31.994Z</time></trkpt><trkpt lat="45.104345047051304" lon="9.165330610323076"><ele>61.0</ele><time>2026-04-24T09:40:32.994Z</time></trkpt><trkpt lat="45.10426769886857" lon="9.165336885660617"><ele>60.99999999999999</ele><time>2026-04-24T09:40:33.994Z</time></trkpt><trkpt lat="45.10418808994428" lon="9.165336075580381"><ele>61.0</ele><time>2026-04-24T09:40:34.994Z</time></trkpt><trkpt lat="45.104106673645724" lon="9.16533933592115"><ele>61.0</ele><time>2026-04-24T09:40:35.994Z</time></trkpt><trkpt lat="45.10402306370501" lon="9.16533288180877"><ele>61.0</ele><time>2026-04-24T09:40:36.994Z</time></trkpt><trkpt lat="45.10393482788984" lon="9.165314864839893"><ele>60.99999999999999</ele><time>2026-04-24T09:40:37.994Z</time></trkpt><trkpt lat="45.103840883122885" lon="9.165308754409054"><ele>61.0</ele><time>2026-04-24T09:40:38.994Z</time></trkpt><trkpt lat="45.10374372075562" lon="9.165281823641658"><ele>60.5</ele><time>2026-04-24T09:40:39.994Z</time></trkpt><trkpt lat="45.10363980012336" lon="9.165268222452477"><ele>60.0</ele><time>2026-04-24T09:40:40.994Z</time></trkpt><trkpt lat="45.10352885921681" lon="9.16525370210747"><ele>59.5</ele><time>2026-04-24T09:40:41.994Z</time></trkpt><trkpt lat="45.10341591121236" lon="9.165236752091324"><ele>59.0</ele><time>2026-04-24T09:40:42.994Z</time></trkpt><trkpt lat="45.10329526849596" lon="9.16521827961501"><ele>58.5</ele><time>2026-04-24T09:40:43.994Z</time></trkpt><trkpt lat="45.10316986785597" lon="9.165198862554623"><ele>58.0</ele><time>2026-04-24T09:40:44.994Z</time></trkpt><trkpt lat="45.103041248407486" lon="9.165196514474488"><ele>57.5</ele><time>2026-04-24T09:40:45.994Z</time></trkpt><trkpt lat="45.10291216173476" lon="9.165179072734068"><ele>57.0</ele><time>2026-04-24T09:40:46.994Z</time></trkpt><trkpt lat="45.1027796751677" lon="9.165159294371191"><ele>57.0</ele><time>2026-04-24T09:40:47.994Z</time></trkpt><trkpt lat="45.10264231742503" lon="9.16513870260186"><ele>57.0</ele><time>2026-04-24T09:40:48.994Z</time></trkpt><trkpt lat="45.10250277104686" lon="9.165112127975283"><ele>57.0</ele><time>2026-04-24T09:40:49.994Z</time></trkpt><trkpt lat="45.102361784736885" lon="9.165092594627342"><ele>57.0</ele><time>2026-04-24T09:40:50.994Z</time></trkpt><trkpt lat="45.10221958250342" lon="9.16507419487455"><ele>57.5</ele><time>2026-04-24T09:40:51.994Z</time></trkpt><trkpt lat="45.10207595630771" lon="9.165057899318722"><ele>58.0</ele><time>2026-04-24T09:40:52.994Z</time></trkpt><trkpt lat="45.10193055298666" lon="9.165044027737311"><ele>58.5</ele><time>2026-04-24T09:40:53.994Z</time></trkpt><trkpt lat="45.10178671281049" lon="9.165001719345032"><ele>59.0</ele><time>2026-04-24T09:40:54.994Z</time></trkpt><trkpt lat="45.101639078758936" lon="9.165004489800237"><ele>59.0</ele><time>2026-04-24T09:40:55.994Z</time></trkpt><trkpt lat="45.10149257890103" lon="9.16497423855034"><ele>59.0</ele><time>2026-04-24T09:40:56.994Z</time></trkpt><trkpt lat="45.10134699813728" lon="9.164949533088288"><ele>59.0</ele><time>2026-04-24T09:40:57.994Z</time></trkpt><trkpt lat="45.10120237887798" lon="9.16492745714451"><ele>59.0</ele><time>2026-04-24T09:40:58.994Z</time></trkpt><trkpt lat="45.10105748381556" lon="9.16489995129516"><ele>59.0</ele><time>2026-04-24T09:40:59.994Z</time></trkpt><trkpt lat="45.100911695923784" lon="9.16487491745807"><ele>59.0</ele><time>2026-04-24T09:41:00.994Z</time></trkpt><trkpt lat="45.10076666998018" lon="9.164860884468455"><ele>59.0</ele><time>2026-04-24T09:41:01.998Z</time></trkpt><trkpt lat="45.10062252060314" lon="9.164843260969896"><ele>59.0</ele><time>2026-04-24T09:41:02.998Z</time></trkpt><trkpt lat="45.10047985563723" lon="9.164824110696868"><ele>58.5</ele><time>2026-04-24T09:41:03.998Z</time></trkpt><trkpt lat="45.10033904779812" lon="9.164803695727416"><ele>58.0</ele><time>2026-04-24T09:41:04.998Z</time></trkpt><trkpt lat="45.100200826288194" lon="9.16478656136398"><ele>57.5</ele><time>2026-04-24T09:41:05.998Z</time></trkpt><trkpt lat="45.10006405777804" lon="9.164760834261097"><ele>57.0</ele><time>2026-04-24T09:41:06.998Z</time></trkpt><trkpt lat="45.099928547857644" lon="9.164743481641981"><ele>57.5</ele><time>2026-04-24T09:41:07.998Z</time></trkpt><trkpt lat="45.09979617287461" lon="9.164724644166903"><ele>58.0</ele><time>2026-04-24T09:41:08.999Z</time></trkpt><trkpt lat="45.099673211781905" lon="9.164703484344418"><ele>58.5</ele><time>2026-04-24T09:41:09.999Z</time></trkpt><trkpt lat="45.099559070473404" lon="9.164697886733562"><ele>59.0</ele><time>2026-04-24T09:41:10.999Z</time></trkpt><trkpt lat="45.09945258967761" lon="9.164684110909873"><ele>59.0</ele><time>2026-04-24T09:41:11.999Z</time></trkpt><trkpt lat="45.099354493833786" lon="9.164663164131962"><ele>59.00000000000001</ele><time>2026-04-24T09:41:12.999Z</time></trkpt><trkpt lat="45.09926256182583" lon="9.164643133718034"><ele>59.00000000000001</ele><time>2026-04-24T09:41:13.999Z</time></trkpt><trkpt lat="45.09917443262635" lon="9.164621497147042"><ele>59.0</ele><time>2026-04-24T09:41:14.999Z</time></trkpt><trkpt lat="45.09908981227282" lon="9.164600135037094"><ele>59.0</ele><time>2026-04-24T09:41:15.999Z</time></trkpt><trkpt lat="45.09901066776751" lon="9.164562773194069"><ele>59.00000000000001</ele><time>2026-04-24T09:41:16.999Z</time></trkpt><trkpt lat="45.098933397273306" lon="9.164524292063378"><ele>59.0</ele><time>2026-04-24T09:41:17.999Z</time></trkpt><trkpt lat="45.09886434802944" lon="9.164458186264127"><ele>59.0</ele><time>2026-04-24T09:41:18.999Z</time></trkpt><trkpt lat="45.09879538650792" lon="9.1643784348983"><ele>59.0</ele><time>2026-04-24T09:41:19.999Z</time></trkpt><trkpt lat="45.09873227645648" lon="9.164292245551339"><ele>59.00000000000001</ele><time>2026-04-24T09:41:20.999Z</time></trkpt><trkpt lat="45.09867489300859" lon="9.164195918817375"><ele>59.0</ele><time>2026-04-24T09:41:21.999Z</time></trkpt><trkpt lat="45.09861349499342" lon="9.164087556933962"><ele>59.25</ele><time>2026-04-24T09:41:22.999Z</time></trkpt><trkpt lat="45.09853904979175" lon="9.163975352940627"><ele>59.5</ele><time>2026-04-24T09:41:23.999Z</time></trkpt><trkpt lat="45.0984574801504" lon="9.163862316053438"><ele>59.75</ele><time>2026-04-24T09:41:24.999Z</time></trkpt><trkpt lat="45.09838223226156" lon="9.16373556865849"><ele>60.0</ele><time>2026-04-24T09:41:25.999Z</time></trkpt><trkpt lat="45.0983023542984" lon="9.16360741215216"><ele>59.75</ele><time>2026-04-24T09:41:26.999Z</time></trkpt><trkpt lat="45.09821734045216" lon="9.163478174952019"><ele>59.5</ele><time>2026-04-24T09:41:27.999Z</time></trkpt><trkpt lat="45.098129826222504" lon="9.163346527122508"><ele>59.25</ele><time>2026-04-24T09:41:28.999Z</time></trkpt><trkpt lat="45.09803901782459" lon="9.163218528749036"><ele>59.0</ele><time>2026-04-24T09:41:29.999Z</time></trkpt><trkpt lat="45.097951189685595" lon="9.163084047959588"><ele>59.0</ele><time>2026-04-24T09:41:30.999Z</time></trkpt><trkpt lat="45.09786282828913" lon="9.162945278715021"><ele>59.0</ele><time>2026-04-24T09:41:31.999Z</time></trkpt><trkpt lat="45.0977726083439" lon="9.16279938219483"><ele>59.0</ele><time>2026-04-24T09:41:32.999Z</time></trkpt><trkpt lat="45.097677551632515" lon="9.162651879347669"><ele>59.0</ele><time>2026-04-24T09:41:33.999Z</time></trkpt><trkpt lat="45.09756705962157" lon="9.162520321011309"><ele>58.75</ele><time>2026-04-24T09:41:34.999Z</time></trkpt><trkpt lat="45.097478190447895" lon="9.162357286136348"><ele>58.5</ele><time>2026-04-24T09:41:35.999Z</time></trkpt><trkpt lat="45.097377408184535" lon="9.162209484675664"><ele>58.25</ele><time>2026-04-24T09:41:36.999Z</time></trkpt><trkpt lat="45.09726297971957" lon="9.162074065572584"><ele>58.0</ele><time>2026-04-24T09:41:37.999Z</time></trkpt><trkpt lat="45.09716111687435" lon="9.161926020545051"><ele>58.0</ele><time>2026-04-24T09:41:38.999Z</time></trkpt><trkpt lat="45.09705860466215" lon="9.161777032032186"><ele>58.0</ele><time>2026-04-24T09:41:39.999Z</time></trkpt><trkpt lat="45.096966915343984" lon="9.161614900050083"><ele>58.0</ele><time>2026-04-24T09:41:40.999Z</time></trkpt><trkpt lat="45.09686040667677" lon="9.16147078796167"><ele>58.0</ele><time>2026-04-24T09:41:41.999Z</time></trkpt><trkpt lat="45.09675764601655" lon="9.161319954496662"><ele>58.0</ele><time>2026-04-24T09:41:42.999Z</time></trkpt><trkpt lat="45.09665475661884" lon="9.161171446298635"><ele>58.0</ele><time>2026-04-24T09:41:43.999Z</time></trkpt><trkpt lat="45.09655456122222" lon="9.161020743992982"><ele>58.0</ele><time>2026-04-24T09:41:44.999Z</time></trkpt><trkpt lat="45.09645746037626" lon="9.160869124197275"><ele>58.0</ele><time>2026-04-24T09:41:45.999Z</time></trkpt><trkpt lat="45.096359494459755" lon="9.160726927095418"><ele>58.25</ele><time>2026-04-24T09:41:46.999Z</time></trkpt><trkpt lat="45.096265431195974" lon="9.160586496827356"><ele>58.5</ele><time>2026-04-24T09:41:47.999Z</time></trkpt><trkpt lat="45.09614766933772" lon="9.160485761204768"><ele>58.75</ele><time>2026-04-24T09:41:48.999Z</time></trkpt><trkpt lat="45.09601568770176" lon="9.16040863516099"><ele>59.0</ele><time>2026-04-24T09:41:49.999Z</time></trkpt><trkpt lat="45.09587285648335" lon="9.160371482843898"><ele>59.0</ele><time>2026-04-24T09:41:50.999Z</time></trkpt><trkpt lat="45.095727042564235" lon="9.160339793587044"><ele>59.0</ele><time>2026-04-24T09:41:51.999Z</time></trkpt><trkpt lat="45.09557884319185" lon="9.160313349948314"><ele>59.0</ele><time>2026-04-24T09:41:52.999Z</time></trkpt><trkpt lat="45.09543195259542" lon="9.160274071207137"><ele>59.0</ele><time>2026-04-24T09:41:53.999Z</time></trkpt><trkpt lat="45.095284433241076" lon="9.160242133512035"><ele>59.0</ele><time>2026-04-24T09:41:54.999Z</time></trkpt><trkpt lat="45.09513704998971" lon="9.160209266761926"><ele>59.0</ele><time>2026-04-24T09:41:55.999Z</time></trkpt><trkpt lat="45.09498998785562" lon="9.16018479042291"><ele>59.0</ele><time>2026-04-24T09:41:56.999Z</time></trkpt><trkpt lat="45.09484866200573" lon="9.160151909399302"><ele>59.0</ele><time>2026-04-24T09:41:57.999Z</time></trkpt><trkpt lat="45.09470833867858" lon="9.160117193641312"><ele>58.75</ele><time>2026-04-24T09:41:58.999Z</time></trkpt><trkpt lat="45.094569422784446" lon="9.160079835977358"><ele>58.5</ele><time>2026-04-24T09:41:59.999Z</time></trkpt><trkpt lat="45.09443059172811" lon="9.160039108414567"><ele>58.25</ele><time>2026-04-24T09:42:00.999Z</time></trkpt><trkpt lat="45.09429062467271" lon="9.160010325242284"><ele>58.0</ele><time>2026-04-24T09:42:01.999Z</time></trkpt><trkpt lat="45.09415069502309" lon="9.159981917296024"><ele>58.0</ele><time>2026-04-24T09:42:02.999Z</time></trkpt><trkpt lat="45.094009358533334" lon="9.15995846449818"><ele>58.0</ele><time>2026-04-24T09:42:03.999Z</time></trkpt><trkpt lat="45.093868135997255" lon="9.159930649472468"><ele>58.0</ele><time>2026-04-24T09:42:04.999Z</time></trkpt><trkpt lat="45.09373158132776" lon="9.159870131042439"><ele>58.0</ele><time>2026-04-24T09:42:05.999Z</time></trkpt><trkpt lat="45.09359250681464" lon="9.159831208834262"><ele>58.0</ele><time>2026-04-24T09:42:06.999Z</time></trkpt><trkpt lat="45.09345077885194" lon="9.159791544011563"><ele>58.0</ele><time>2026-04-24T09:42:07.999Z</time></trkpt><trkpt lat="45.09330372947084" lon="9.159772607383951"><ele>58.0</ele><time>2026-04-24T09:42:08.999Z</time></trkpt><trkpt lat="45.09315798168162" lon="9.159728784663221"><ele>58.0</ele><time>2026-04-24T09:42:09.999Z</time></trkpt><trkpt lat="45.09301136106962" lon="9.159680673923223"><ele>58.666666666666664</ele><time>2026-04-24T09:42:10.999Z</time></trkpt><trkpt lat="45.09286508068451" lon="9.159628022433393"><ele>59.33333333333333</ele><time>2026-04-24T09:42:11.999Z</time></trkpt><trkpt lat="45.09271749203812" lon="9.159592313747535"><ele>60.0</ele><time>2026-04-24T09:42:12.999Z</time></trkpt><trkpt lat="45.09257060433454" lon="9.159548179510804"><ele>60.0</ele><time>2026-04-24T09:42:13.999Z</time></trkpt><trkpt lat="45.09242359382167" lon="9.15950858461227"><ele>60.0</ele><time>2026-04-24T09:42:14.999Z</time></trkpt><trkpt lat="45.09227589934623" lon="9.159475336355671"><ele>60.0</ele><time>2026-04-24T09:42:15.999Z</time></trkpt><trkpt lat="45.09212749683614" lon="9.15944105157405"><ele>60.0</ele><time>2026-04-24T09:42:16.999Z</time></trkpt><trkpt lat="45.091980568196604" lon="9.159398588170575"><ele>60.0</ele><time>2026-04-24T09:42:17.999Z</time></trkpt><trkpt lat="45.09183455553909" lon="9.159359855022162"><ele>60.0</ele><time>2026-04-24T09:42:18.999Z</time></trkpt><trkpt lat="45.0916885272892" lon="9.15932371449198"><ele>60.0</ele><time>2026-04-24T09:42:19.999Z</time></trkpt><trkpt lat="45.09154104478499" lon="9.15928695833511"><ele>60.0</ele><time>2026-04-24T09:42:20.999Z</time></trkpt><trkpt lat="45.09139448945964" lon="9.159244780729074"><ele>60.0</ele><time>2026-04-24T09:42:21.999Z</time></trkpt><trkpt lat="45.09124961131803" lon="9.159193037163284"><ele>60.0</ele><time>2026-04-24T09:42:22.999Z</time></trkpt><trkpt lat="45.09110548523625" lon="9.159140887757939"><ele>60.0</ele><time>2026-04-24T09:42:23.999Z</time></trkpt><trkpt lat="45.090960314345196" lon="9.15909865319928"><ele>60.0</ele><time>2026-04-24T09:42:24.999Z</time></trkpt><trkpt lat="45.09081451354182" lon="9.159059928831976"><ele>60.0</ele><time>2026-04-24T09:42:25.999Z</time></trkpt><trkpt lat="45.09066865835111" lon="9.159026731419003"><ele>60.0</ele><time>2026-04-24T09:42:26.999Z</time></trkpt><trkpt lat="45.090523070390034" lon="9.158994304601986"><ele>60.0</ele><time>2026-04-24T09:42:27.999Z</time></trkpt><trkpt lat="45.090378584271015" lon="9.15895612677734"><ele>60.0</ele><time>2026-04-24T09:42:28.999Z</time></trkpt><trkpt lat="45.09023432674747" lon="9.158925699465547"><ele>60.0</ele><time>2026-04-24T09:42:29.999Z</time></trkpt><trkpt lat="45.09009321423975" lon="9.1588847678874"><ele>60.0</ele><time>2026-04-24T09:42:30.999Z</time></trkpt><trkpt lat="45.08995163161482" lon="9.158845294757016"><ele>60.0</ele><time>2026-04-24T09:42:31.999Z</time></trkpt><trkpt lat="45.0898110507815" lon="9.158804683711018"><ele>60.25</ele><time>2026-04-24T09:42:32.999Z</time></trkpt><trkpt lat="45.08966979420333" lon="9.158772863645543"><ele>60.5</ele><time>2026-04-24T09:42:33.999Z</time></trkpt><trkpt lat="45.08953147177021" lon="9.158734914771111"><ele>60.75</ele><time>2026-04-24T09:42:34.999Z</time></trkpt><trkpt lat="45.08939334892999" lon="9.158694372392935"><ele>61.0</ele><time>2026-04-24T09:42:35.999Z</time></trkpt><trkpt lat="45.089253660447056" lon="9.158660782155541"><ele>61.0</ele><time>2026-04-24T09:42:36.999Z</time></trkpt><trkpt lat="45.0891164940462" lon="9.158619665390631"><ele>61.0</ele><time>2026-04-24T09:42:37.999Z</time></trkpt><trkpt lat="45.08898741190476" lon="9.158583929822754"><ele>61.0</ele><time>2026-04-24T09:42:38.999Z</time></trkpt><trkpt lat="45.08888185811504" lon="9.158543421823307"><ele>61.0</ele><time>2026-04-24T09:42:39.999Z</time></trkpt><trkpt lat="45.088806989152864" lon="9.158503765414634"><ele>60.83333333333333</ele><time>2026-04-24T09:42:40.999Z</time></trkpt><trkpt lat="45.088728351176385" lon="9.158469017472028"><ele>60.666666666666664</ele><time>2026-04-24T09:42:42.999Z</time></trkpt><trkpt lat="45.088662879481134" lon="9.158486562652024"><ele>60.5</ele><time>2026-04-24T09:43:26.998Z</time></trkpt><trkpt lat="45.088538750555756" lon="9.15845098694352"><ele>60.33333333333333</ele><time>2026-04-24T09:43:29.998Z</time></trkpt><trkpt lat="45.088459260250374" lon="9.158428204769065"><ele>60.166666666666664</ele><time>2026-04-24T09:43:30.998Z</time></trkpt><trkpt lat="45.088381576759446" lon="9.15840594045052"><ele>60.0</ele><time>2026-04-24T09:43:31.998Z</time></trkpt><trkpt lat="45.088304416041396" lon="9.158383825947242"><ele>59.833333333333336</ele><time>2026-04-24T09:43:32.998Z</time></trkpt><trkpt lat="45.088219704489184" lon="9.158380737901377"><ele>59.66666666666667</ele><time>2026-04-24T09:43:33.998Z</time></trkpt><trkpt lat="45.08813661144474" lon="9.158357638420998"><ele>59.5</ele><time>2026-04-24T09:43:34.998Z</time></trkpt><trkpt lat="45.0880494397479" lon="9.15833347651189"><ele>59.333333333333336</ele><time>2026-04-24T09:43:35.998Z</time></trkpt><trkpt lat="45.08796107952417" lon="9.158308563711179"><ele>59.16666666666667</ele><time>2026-04-24T09:43:36.998Z</time></trkpt><trkpt lat="45.0878738087314" lon="9.158259413767304"><ele>59.0</ele><time>2026-04-24T09:43:37.998Z</time></trkpt><trkpt lat="45.08778137523984" lon="9.158251066243682"><ele>58.833333333333336</ele><time>2026-04-24T09:43:38.998Z</time></trkpt><trkpt lat="45.08769935923455" lon="9.158193490144376"><ele>58.66666666666667</ele><time>2026-04-24T09:43:39.998Z</time></trkpt><trkpt lat="45.08763186946255" lon="9.15811742227422"><ele>58.5</ele><time>2026-04-24T09:43:40.998Z</time></trkpt><trkpt lat="45.087578944421615" lon="9.158029455598905"><ele>58.33333333333333</ele><time>2026-04-24T09:43:41.998Z</time></trkpt><trkpt lat="45.087527102498875" lon="9.157938759756714"><ele>58.166666666666664</ele><time>2026-04-24T09:43:42.998Z</time></trkpt><trkpt lat="45.08749359562177" lon="9.157829539092667"><ele>58.0</ele><time>2026-04-24T09:43:43.998Z</time></trkpt><trkpt lat="45.08747756445393" lon="9.157717851324763"><ele>57.99999999999999</ele><time>2026-04-24T09:43:44.998Z</time></trkpt><trkpt lat="45.08747732981644" lon="9.157597172632224"><ele>58.0</ele><time>2026-04-24T09:43:45.998Z</time></trkpt><trkpt lat="45.087494530956036" lon="9.157484619454952"><ele>58.0</ele><time>2026-04-24T09:43:46.998Z</time></trkpt><trkpt lat="45.08752345329006" lon="9.157379655177223"><ele>58.0</ele><time>2026-04-24T09:43:47.998Z</time></trkpt><trkpt lat="45.087539108850734" lon="9.157266003405667"><ele>57.99999999999999</ele><time>2026-04-24T09:43:48.998Z</time></trkpt><trkpt lat="45.08755337860273" lon="9.157148110738362"><ele>58.0</ele><time>2026-04-24T09:43:49.998Z</time></trkpt><trkpt lat="45.08756791614055" lon="9.157027280100747"><ele>58.166666666666664</ele><time>2026-04-24T09:43:50.998Z</time></trkpt><trkpt lat="45.08758825274912" lon="9.15690636351969"><ele>58.33333333333333</ele><time>2026-04-24T09:43:51.998Z</time></trkpt><trkpt lat="45.08758934204973" lon="9.156788380709362"><ele>58.5</ele><time>2026-04-24T09:43:52.998Z</time></trkpt><trkpt lat="45.08759389161356" lon="9.15666992970107"><ele>58.66666666666667</ele><time>2026-04-24T09:43:53.998Z</time></trkpt><trkpt lat="45.08755390965419" lon="9.156572869194118"><ele>58.833333333333336</ele><time>2026-04-24T09:43:54.998Z</time></trkpt><trkpt lat="45.087526242172196" lon="9.156471023664482"><ele>59.0</ele><time>2026-04-24T09:43:55.998Z</time></trkpt><trkpt lat="45.08747923691637" lon="9.156383517891285"><ele>59.00000000000001</ele><time>2026-04-24T09:43:56.998Z</time></trkpt><trkpt lat="45.087417802441514" lon="9.156333809429913"><ele>59.0</ele><time>2026-04-24T09:43:57.998Z</time></trkpt><trkpt lat="45.08733747093015" lon="9.156250637184405"><ele>59.0</ele><time>2026-04-24T09:43:59.998Z</time></trkpt><trkpt lat="45.08727911823751" lon="9.15620095366193"><ele>59.0</ele><time>2026-04-24T09:44:02.998Z</time></trkpt><trkpt lat="45.08721278634289" lon="9.156168571607328"><ele>59.00000000000001</ele><time>2026-04-24T09:45:04.997Z</time></trkpt><trkpt lat="45.087107086903245" lon="9.156124638452152"><ele>59.0</ele><time>2026-04-24T09:45:06.997Z</time></trkpt><trkpt lat="45.087034848308555" lon="9.15609627519414"><ele>59.00000000000001</ele><time>2026-04-24T09:45:07.997Z</time></trkpt><trkpt lat="45.08696181686915" lon="9.156052627530011"><ele>59.0</ele><time>2026-04-24T09:45:08.997Z</time></trkpt><trkpt lat="45.086893525638224" lon="9.15598246978565"><ele>59.0</ele><time>2026-04-24T09:45:09.997Z</time></trkpt><trkpt lat="45.08681715576264" lon="9.155930317699973"><ele>59.0</ele><time>2026-04-24T09:45:10.997Z</time></trkpt><trkpt lat="45.08673861020419" lon="9.155876679906154"><ele>59.00000000000001</ele><time>2026-04-24T09:45:11.997Z</time></trkpt><trkpt lat="45.086658886420736" lon="9.155822237484212"><ele>59.0</ele><time>2026-04-24T09:45:12.997Z</time></trkpt><trkpt lat="45.086578440782866" lon="9.155767302122587"><ele>59.0</ele><time>2026-04-24T09:45:13.997Z</time></trkpt><trkpt lat="45.08649152717018" lon="9.155727852815158"><ele>59.00000000000001</ele><time>2026-04-24T09:45:14.997Z</time></trkpt><trkpt lat="45.08640818959167" lon="9.155669960172766"><ele>59.00000000000001</ele><time>2026-04-24T09:45:15.997Z</time></trkpt><trkpt lat="45.086324739268036" lon="9.15561328551006"><ele>59.0</ele><time>2026-04-24T09:45:16.997Z</time></trkpt><trkpt lat="45.08623878759286" lon="9.155558464568875"><ele>59.0</ele><time>2026-04-24T09:45:17.997Z</time></trkpt><trkpt lat="45.08615486349798" lon="9.155498013842228"><ele>59.0</ele><time>2026-04-24T09:45:18.997Z</time></trkpt><trkpt lat="45.08607120924353" lon="9.15542784883177"><ele>59.00000000000001</ele><time>2026-04-24T09:45:19.997Z</time></trkpt><trkpt lat="45.08598723257744" lon="9.155357970985433"><ele>59.00000000000001</ele><time>2026-04-24T09:45:20.997Z</time></trkpt><trkpt lat="45.085902067928245" lon="9.155283710254476"><ele>59.0</ele><time>2026-04-24T09:45:21.997Z</time></trkpt><trkpt lat="45.08581685258441" lon="9.155202086870224"><ele>59.0</ele><time>2026-04-24T09:45:22.997Z</time></trkpt><trkpt lat="45.08573301097925" lon="9.155113521580725"><ele>59.2</ele><time>2026-04-24T09:45:23.997Z</time></trkpt><trkpt lat="45.085644978435525" lon="9.155027705390973"><ele>59.400000000000006</ele><time>2026-04-24T09:45:24.997Z</time></trkpt><trkpt lat="45.085556372003886" lon="9.154940917775361"><ele>59.6</ele><time>2026-04-24T09:45:25.997Z</time></trkpt><trkpt lat="45.08546542860287" lon="9.15485442797486"><ele>59.8</ele><time>2026-04-24T09:45:26.997Z</time></trkpt><trkpt lat="45.08537462426398" lon="9.154761506575687"><ele>60.0</ele><time>2026-04-24T09:45:27.997Z</time></trkpt><trkpt lat="45.08528379060989" lon="9.154665620176182"><ele>60.25</ele><time>2026-04-24T09:45:28.997Z</time></trkpt><trkpt lat="45.085193918221066" lon="9.15456825146448"><ele>60.5</ele><time>2026-04-24T09:45:29.997Z</time></trkpt><trkpt lat="45.085104586427356" lon="9.154467943233467"><ele>60.75</ele><time>2026-04-24T09:45:30.997Z</time></trkpt><trkpt lat="45.08501310306833" lon="9.154374316895849"><ele>61.0</ele><time>2026-04-24T09:45:31.997Z</time></trkpt><trkpt lat="45.08492261720368" lon="9.154279560764758"><ele>61.4</ele><time>2026-04-24T09:45:32.997Z</time></trkpt><trkpt lat="45.08483701813871" lon="9.15417793776701"><ele>61.8</ele><time>2026-04-24T09:45:33.997Z</time></trkpt><trkpt lat="45.08475346848515" lon="9.15407298335756"><ele>62.199999999999996</ele><time>2026-04-24T09:45:34.997Z</time></trkpt><trkpt lat="45.08466896340363" lon="9.153969566546445"><ele>62.599999999999994</ele><time>2026-04-24T09:45:35.997Z</time></trkpt><trkpt lat="45.084585954778234" lon="9.153860439923553"><ele>63.0</ele><time>2026-04-24T09:45:36.997Z</time></trkpt><trkpt lat="45.08450472518513" lon="9.153744665989372"><ele>63.25</ele><time>2026-04-24T09:45:37.997Z</time></trkpt><trkpt lat="45.08442105555711" lon="9.153628704205694"><ele>63.5</ele><time>2026-04-24T09:45:38.997Z</time></trkpt><trkpt lat="45.08433957418592" lon="9.15350671390718"><ele>63.75</ele><time>2026-04-24T09:45:39.997Z</time></trkpt><trkpt lat="45.084254838397754" lon="9.153382749731152"><ele>64.0</ele><time>2026-04-24T09:45:40.996Z</time></trkpt><trkpt lat="45.08416621094212" lon="9.153257488636958"><ele>64.0</ele><time>2026-04-24T09:45:41.996Z</time></trkpt><trkpt lat="45.08407850651201" lon="9.153134087462027"><ele>64.0</ele><time>2026-04-24T09:45:42.996Z</time></trkpt><trkpt lat="45.083995294320914" lon="9.153017016396163"><ele>64.0</ele><time>2026-04-24T09:45:43.996Z</time></trkpt><trkpt lat="45.083914326441565" lon="9.152904813062554"><ele>64.0</ele><time>2026-04-24T09:45:44.996Z</time></trkpt><trkpt lat="45.0838371319595" lon="9.152793580787485"><ele>64.0</ele><time>2026-04-24T09:45:45.996Z</time></trkpt><trkpt lat="45.083760454986525" lon="9.152684083099338"><ele>64.0</ele><time>2026-04-24T09:45:46.996Z</time></trkpt><trkpt lat="45.0836814023157" lon="9.15257710042234"><ele>64.0</ele><time>2026-04-24T09:45:47.996Z</time></trkpt><trkpt lat="45.0836002034152" lon="9.152471153385141"><ele>64.0</ele><time>2026-04-24T09:45:48.996Z</time></trkpt><trkpt lat="45.08352511064521" lon="9.152352137511283"><ele>64.0</ele><time>2026-04-24T09:45:49.996Z</time></trkpt><trkpt lat="45.083442249592686" lon="9.152235729886531"><ele>63.75</ele><time>2026-04-24T09:45:50.996Z</time></trkpt><trkpt lat="45.08335299464338" lon="9.152129951388918"><ele>63.5</ele><time>2026-04-24T09:45:51.996Z</time></trkpt><trkpt lat="45.08326480625331" lon="9.152023950332172"><ele>63.25</ele><time>2026-04-24T09:45:52.996Z</time></trkpt><trkpt lat="45.08316923655559" lon="9.151931735066979"><ele>63.0</ele><time>2026-04-24T09:45:53.996Z</time></trkpt><trkpt lat="45.08306734018806" lon="9.151855532906431"><ele>63.0</ele><time>2026-04-24T09:45:54.996Z</time></trkpt><trkpt lat="45.0829634110529" lon="9.151788131410074"><ele>63.0</ele><time>2026-04-24T09:45:55.996Z</time></trkpt><trkpt lat="45.08285834126069" lon="9.151726533250741"><ele>63.0</ele><time>2026-04-24T09:45:56.996Z</time></trkpt><trkpt lat="45.08274977868448" lon="9.151679101050155"><ele>63.0</ele><time>2026-04-24T09:45:57.996Z</time></trkpt><trkpt lat="45.08263907747294" lon="9.151640267196132"><ele>63.0</ele><time>2026-04-24T09:45:58.996Z</time></trkpt><trkpt lat="45.08252913310025" lon="9.15159052547951"><ele>63.0</ele><time>2026-04-24T09:45:59.996Z</time></trkpt><trkpt lat="45.08242084271823" lon="9.151535158744213"><ele>63.0</ele><time>2026-04-24T09:46:00.996Z</time></trkpt><trkpt lat="45.08230750061268" lon="9.151484974454089"><ele>63.0</ele><time>2026-04-24T09:46:01.996Z</time></trkpt><trkpt lat="45.082188359935785" lon="9.151432529972487"><ele>62.5</ele><time>2026-04-24T09:46:02.996Z</time></trkpt><trkpt lat="45.082064584466664" lon="9.151383797831611"><ele>62.0</ele><time>2026-04-24T09:46:03.996Z</time></trkpt><trkpt lat="45.081940779001435" lon="9.151327951384488"><ele>61.5</ele><time>2026-04-24T09:46:04.996Z</time></trkpt><trkpt lat="45.081814695627465" lon="9.151271065047078"><ele>61.0</ele><time>2026-04-24T09:46:05.996Z</time></trkpt><trkpt lat="45.08168691190429" lon="9.151217159948672"><ele>61.25</ele><time>2026-04-24T09:46:06.996Z</time></trkpt><trkpt lat="45.081556968310394" lon="9.151160645912048"><ele>61.5</ele><time>2026-04-24T09:46:07.996Z</time></trkpt><trkpt lat="45.0814245703991" lon="9.151100282331797"><ele>61.75</ele><time>2026-04-24T09:46:08.996Z</time></trkpt><trkpt lat="45.08128985706285" lon="9.151038607275984"><ele>62.0</ele><time>2026-04-24T09:46:09.996Z</time></trkpt><trkpt lat="45.08115479620297" lon="9.150972151848835"><ele>62.0</ele><time>2026-04-24T09:46:10.996Z</time></trkpt><trkpt lat="45.081018245159" lon="9.150909852656543"><ele>62.0</ele><time>2026-04-24T09:46:11.996Z</time></trkpt><trkpt lat="45.08088130821793" lon="9.150846358593558"><ele>62.0</ele><time>2026-04-24T09:46:12.996Z</time></trkpt><trkpt lat="45.08074147320701" lon="9.150784256669866"><ele>62.0</ele><time>2026-04-24T09:46:13.996Z</time></trkpt><trkpt lat="45.080599733397456" lon="9.150720320215576"><ele>62.0</ele><time>2026-04-24T09:46:14.996Z</time></trkpt><trkpt lat="45.08046157353786" lon="9.15065485457305"><ele>62.0</ele><time>2026-04-24T09:46:15.996Z</time></trkpt><trkpt lat="45.0803343131987" lon="9.1505977160096"><ele>62.0</ele><time>2026-04-24T09:46:16.996Z</time></trkpt><trkpt lat="45.08022415357831" lon="9.150556070966859"><ele>62.0</ele><time>2026-04-24T09:46:17.996Z</time></trkpt><trkpt lat="45.08013503315053" lon="9.150519989357798"><ele>62.00000000000001</ele><time>2026-04-24T09:46:18.996Z</time></trkpt><trkpt lat="45.080065500221814" lon="9.15049480379854"><ele>62.0</ele><time>2026-04-24T09:46:19.996Z</time></trkpt><trkpt lat="45.07998967438767" lon="9.150460025366328"><ele>62.0</ele><time>2026-04-24T09:46:21.996Z</time></trkpt><trkpt lat="45.079921987544004" lon="9.150446805528286"><ele>62.0</ele><time>2026-04-24T09:47:07.995Z</time></trkpt><trkpt lat="45.07983555222958" lon="9.150395724170624"><ele>62.00000000000001</ele><time>2026-04-24T09:47:09.995Z</time></trkpt><trkpt lat="45.07973908695052" lon="9.150352832887553"><ele>62.0</ele><time>2026-04-24T09:47:10.995Z</time></trkpt><trkpt lat="45.079608117950336" lon="9.15030563616333"><ele>61.333333333333336</ele><time>2026-04-24T09:47:11.995Z</time></trkpt><trkpt lat="45.07947151654762" lon="9.150248564044505"><ele>60.66666666666667</ele><time>2026-04-24T09:47:12.995Z</time></trkpt><trkpt lat="45.07932069389221" lon="9.150182732419681"><ele>60.0</ele><time>2026-04-24T09:47:13.995Z</time></trkpt><trkpt lat="45.07914953052765" lon="9.15011117079085"><ele>60.33333333333333</ele><time>2026-04-24T09:47:14.995Z</time></trkpt><trkpt lat="45.07896973580325" lon="9.150005598723503"><ele>60.666666666666664</ele><time>2026-04-24T09:47:15.995Z</time></trkpt><trkpt lat="45.07877654227181" lon="9.149915812614347"><ele>61.0</ele><time>2026-04-24T09:47:16.995Z</time></trkpt><trkpt lat="45.07857634314256" lon="9.149822419929716"><ele>61.0</ele><time>2026-04-24T09:47:17.995Z</time></trkpt><trkpt lat="45.07838133728994" lon="9.149731449853837"><ele>61.0</ele><time>2026-04-24T09:47:18.995Z</time></trkpt><trkpt lat="45.07818304821377" lon="9.149640650952051"><ele>61.0</ele><time>2026-04-24T09:47:19.995Z</time></trkpt><trkpt lat="45.07799232592637" lon="9.14955482781137"><ele>61.33333333333333</ele><time>2026-04-24T09:47:20.995Z</time></trkpt><trkpt lat="45.07780094241174" lon="9.149467462152105"><ele>61.66666666666667</ele><time>2026-04-24T09:47:21.995Z</time></trkpt><trkpt lat="45.07761957549443" lon="9.149383021744976"><ele>62.0</ele><time>2026-04-24T09:47:22.995Z</time></trkpt><trkpt lat="45.07743643811365" lon="9.149318373098165"><ele>63.0</ele><time>2026-04-24T09:47:23.995Z</time></trkpt><trkpt lat="45.077273354086635" lon="9.149221122085432"><ele>64.0</ele><time>2026-04-24T09:47:24.995Z</time></trkpt><trkpt lat="45.0771059501422" lon="9.149139209856626"><ele>65.0</ele><time>2026-04-24T09:47:25.995Z</time></trkpt><trkpt lat="45.076940832762865" lon="9.149054712866366"><ele>64.0</ele><time>2026-04-24T09:47:26.995Z</time></trkpt><trkpt lat="45.07678667332544" lon="9.148975157117569"><ele>63.0</ele><time>2026-04-24T09:47:27.995Z</time></trkpt><trkpt lat="45.07663876394992" lon="9.148898826734259"><ele>62.0</ele><time>2026-04-24T09:47:28.995Z</time></trkpt><trkpt lat="45.0765062897154" lon="9.148830409322942"><ele>62.0</ele><time>2026-04-24T09:47:29.995Z</time></trkpt><trkpt lat="45.076358049606064" lon="9.148752863260029"><ele>62.0</ele><time>2026-04-24T09:47:30.995Z</time></trkpt><trkpt lat="45.07620338574472" lon="9.148673799824191"><ele>62.0</ele><time>2026-04-24T09:47:31.995Z</time></trkpt><trkpt lat="45.076058079747874" lon="9.148625508122281"><ele>62.0</ele><time>2026-04-24T09:47:32.995Z</time></trkpt><trkpt lat="45.07590784374463" lon="9.148528855359007"><ele>62.0</ele><time>2026-04-24T09:47:33.995Z</time></trkpt><trkpt lat="45.07576235517779" lon="9.148453801950406"><ele>62.0</ele><time>2026-04-24T09:47:34.995Z</time></trkpt><trkpt lat="45.07560739428692" lon="9.148369327156056"><ele>62.333333333333336</ele><time>2026-04-24T09:47:35.995Z</time></trkpt><trkpt lat="45.07546170121096" lon="9.14829344075595"><ele>62.66666666666667</ele><time>2026-04-24T09:47:36.995Z</time></trkpt><trkpt lat="45.07530674498303" lon="9.148226370512855"><ele>63.0</ele><time>2026-04-24T09:47:37.995Z</time></trkpt><trkpt lat="45.07516316806752" lon="9.14819183202826"><ele>63.0</ele><time>2026-04-24T09:47:38.995Z</time></trkpt><trkpt lat="45.07501282409793" lon="9.148190093639924"><ele>63.0</ele><time>2026-04-24T09:47:39.995Z</time></trkpt><trkpt lat="45.074845707940305" lon="9.148196180373752"><ele>63.0</ele><time>2026-04-24T09:47:40.995Z</time></trkpt><trkpt lat="45.074677445615386" lon="9.148171321173052"><ele>62.33333333333333</ele><time>2026-04-24T09:47:41.995Z</time></trkpt><trkpt lat="45.07450794187998" lon="9.148141178049265"><ele>61.666666666666664</ele><time>2026-04-24T09:47:42.995Z</time></trkpt><trkpt lat="45.07433875887963" lon="9.148117362852442"><ele>61.0</ele><time>2026-04-24T09:47:43.995Z</time></trkpt><trkpt lat="45.07419417676575" lon="9.148076832669235"><ele>61.666666666666664</ele><time>2026-04-24T09:47:44.995Z</time></trkpt><trkpt lat="45.074042334092404" lon="9.14805466086521"><ele>62.33333333333333</ele><time>2026-04-24T09:47:45.995Z</time></trkpt><trkpt lat="45.07389410659401" lon="9.148034201168283"><ele>63.0</ele><time>2026-04-24T09:47:46.995Z</time></trkpt><trkpt lat="45.07374439783248" lon="9.148014780371568"><ele>63.0</ele><time>2026-04-24T09:47:47.995Z</time></trkpt><trkpt lat="45.073590150062444" lon="9.147996174131139"><ele>63.0</ele><time>2026-04-24T09:47:48.995Z</time></trkpt><trkpt lat="45.07346160108544" lon="9.147980968246472"><ele>63.0</ele><time>2026-04-24T09:47:49.995Z</time></trkpt><trkpt lat="45.0733157284365" lon="9.147964097914096"><ele>63.0</ele><time>2026-04-24T09:47:50.995Z</time></trkpt><trkpt lat="45.073188490280685" lon="9.147949382689731"><ele>63.2</ele><time>2026-04-24T09:47:51.995Z</time></trkpt><trkpt lat="45.07307690094263" lon="9.147936477247802"><ele>63.4</ele><time>2026-04-24T09:47:52.995Z</time></trkpt><trkpt lat="45.07296313467472" lon="9.147919222224155"><ele>63.60000000000001</ele><time>2026-04-24T09:47:53.995Z</time></trkpt><trkpt lat="45.07287888713154" lon="9.147897919664874"><ele>63.800000000000004</ele><time>2026-04-24T09:47:54.995Z</time></trkpt><trkpt lat="45.07281482847985" lon="9.147826419208858"><ele>64.0</ele><time>2026-04-24T09:47:56.995Z</time></trkpt><trkpt lat="45.07282537404122" lon="9.14765324666589"><ele>64.0</ele><time>2026-04-24T09:47:59.995Z</time></trkpt><trkpt lat="45.072870115558295" lon="9.147503660369484"><ele>64.0</ele><time>2026-04-24T09:48:00.995Z</time></trkpt><trkpt lat="45.07291483235693" lon="9.147332557669754"><ele>64.0</ele><time>2026-04-24T09:48:01.995Z</time></trkpt><trkpt lat="45.072953389953035" lon="9.14717267150676"><ele>64.0</ele><time>2026-04-24T09:48:02.995Z</time></trkpt><trkpt lat="45.0729899430299" lon="9.146997787966408"><ele>64.0</ele><time>2026-04-24T09:48:03.995Z</time></trkpt><trkpt lat="45.07302785993296" lon="9.146812624250643"><ele>64.0</ele><time>2026-04-24T09:48:04.995Z</time></trkpt><trkpt lat="45.07306817462757" lon="9.146608901762797"><ele>64.0</ele><time>2026-04-24T09:48:05.995Z</time></trkpt><trkpt lat="45.07311025580218" lon="9.146392124387056"><ele>64.0</ele><time>2026-04-24T09:48:06.995Z</time></trkpt><trkpt lat="45.07314495158765" lon="9.146185084885692"><ele>63.666666666666664</ele><time>2026-04-24T09:48:07.998Z</time></trkpt><trkpt lat="45.07318622887408" lon="9.14595741687492"><ele>63.33333333333333</ele><time>2026-04-24T09:48:08.998Z</time></trkpt><trkpt lat="45.073218675928636" lon="9.145740165997404"><ele>63.0</ele><time>2026-04-24T09:48:09.998Z</time></trkpt><trkpt lat="45.07326760563389" lon="9.14551372723511"><ele>63.33333333333333</ele><time>2026-04-24T09:48:10.998Z</time></trkpt><trkpt lat="45.07330289540595" lon="9.145296791009681"><ele>63.666666666666664</ele><time>2026-04-24T09:48:11.998Z</time></trkpt><trkpt lat="45.07333122648342" lon="9.145064977175537"><ele>64.0</ele><time>2026-04-24T09:48:12.998Z</time></trkpt><trkpt lat="45.073367249060304" lon="9.144835398666029"><ele>64.0</ele><time>2026-04-24T09:48:13.998Z</time></trkpt><trkpt lat="45.073405184406134" lon="9.144624444550647"><ele>64.0</ele><time>2026-04-24T09:48:14.998Z</time></trkpt><trkpt lat="45.07344988111497" lon="9.144423345848567"><ele>64.0</ele><time>2026-04-24T09:48:15.998Z</time></trkpt><trkpt lat="45.07349765108149" lon="9.144221961536298"><ele>64.25</ele><time>2026-04-24T09:48:16.998Z</time></trkpt><trkpt lat="45.0735372431868" lon="9.144031522567838"><ele>64.5</ele><time>2026-04-24T09:48:17.998Z</time></trkpt><trkpt lat="45.0735922028159" lon="9.143850300705477"><ele>64.75</ele><time>2026-04-24T09:48:18.998Z</time></trkpt><trkpt lat="45.073620782294505" lon="9.143683691460753"><ele>65.0</ele><time>2026-04-24T09:48:19.998Z</time></trkpt><trkpt lat="45.073641792262926" lon="9.14352737215181"><ele>65.0</ele><time>2026-04-24T09:48:20.998Z</time></trkpt><trkpt lat="45.07365798296568" lon="9.143394462682595"><ele>65.0</ele><time>2026-04-24T09:48:21.998Z</time></trkpt><trkpt lat="45.07369339593542" lon="9.143269462691404"><ele>65.0</ele><time>2026-04-24T09:48:22.998Z</time></trkpt><trkpt lat="45.07371297242624" lon="9.143122725214859"><ele>65.0</ele><time>2026-04-24T09:48:23.999Z</time></trkpt><trkpt lat="45.073737150396354" lon="9.142986479945963"><ele>65.0</ele><time>2026-04-24T09:48:24.999Z</time></trkpt><trkpt lat="45.0737622727444" lon="9.142868640271203"><ele>65.0</ele><time>2026-04-24T09:48:25.999Z</time></trkpt><trkpt lat="45.07379313220293" lon="9.142723890067455"><ele>65.0</ele><time>2026-04-24T09:48:26.999Z</time></trkpt><trkpt lat="45.07382675576315" lon="9.142566174756682"><ele>65.0</ele><time>2026-04-24T09:48:27.999Z</time></trkpt><trkpt lat="45.07385923359989" lon="9.14240362345551"><ele>65.0</ele><time>2026-04-24T09:48:28.999Z</time></trkpt><trkpt lat="45.07391949275474" lon="9.142246543497945"><ele>64.5</ele><time>2026-04-24T09:48:29.999Z</time></trkpt><trkpt lat="45.07396524841404" lon="9.142082326399962"><ele>64.0</ele><time>2026-04-24T09:48:30.999Z</time></trkpt><trkpt lat="45.07397825914833" lon="9.1418633163701"><ele>63.5</ele><time>2026-04-24T09:48:31.999Z</time></trkpt><trkpt lat="45.074022945047766" lon="9.14166945653292"><ele>63.0</ele><time>2026-04-24T09:48:32.999Z</time></trkpt><trkpt lat="45.07406071174778" lon="9.14148456827701"><ele>63.0</ele><time>2026-04-24T09:48:33.999Z</time></trkpt><trkpt lat="45.07410214667067" lon="9.141294604499432"><ele>63.0</ele><time>2026-04-24T09:48:34.999Z</time></trkpt><trkpt lat="45.07413887704221" lon="9.141126482846776"><ele>63.0</ele><time>2026-04-24T09:48:35.999Z</time></trkpt><trkpt lat="45.07417700345874" lon="9.14095326861241"><ele>63.0</ele><time>2026-04-24T09:48:36.999Z</time></trkpt><trkpt lat="45.074202462402326" lon="9.140774690793501"><ele>64.0</ele><time>2026-04-24T09:48:37.999Z</time></trkpt><trkpt lat="45.07424438658537" lon="9.14059587897377"><ele>65.0</ele><time>2026-04-24T09:48:38.999Z</time></trkpt><trkpt lat="45.074292583944505" lon="9.140429428388424"><ele>66.0</ele><time>2026-04-24T09:48:39.999Z</time></trkpt><trkpt lat="45.07433469596406" lon="9.1402416087991"><ele>67.0</ele><time>2026-04-24T09:48:40.999Z</time></trkpt><trkpt lat="45.074366341795425" lon="9.140110390555815"><ele>67.0</ele><time>2026-04-24T09:48:41.999Z</time></trkpt><trkpt lat="45.07438352099605" lon="9.13996621396477"><ele>67.0</ele><time>2026-04-24T09:48:42.999Z</time></trkpt><trkpt lat="45.074420861802295" lon="9.1398218334657"><ele>67.0</ele><time>2026-04-24T09:48:43.999Z</time></trkpt><trkpt lat="45.07444088109996" lon="9.139724972224197"><ele>67.0</ele><time>2026-04-24T09:48:44.999Z</time></trkpt><trkpt lat="45.07449579251284" lon="9.139635940776706"><ele>67.0</ele><time>2026-04-24T09:48:45.999Z</time></trkpt><trkpt lat="45.07451566351867" lon="9.13954116108664"><ele>67.0</ele><time>2026-04-24T09:48:46.999Z</time></trkpt><trkpt lat="45.07455273647419" lon="9.139433699805378"><ele>66.8</ele><time>2026-04-24T09:48:48.999Z</time></trkpt><trkpt lat="45.07454693843538" lon="9.139682222151622"><ele>66.6</ele><time>2026-04-24T09:48:49.999Z</time></trkpt><trkpt lat="45.07462529210055" lon="9.139701777974016"><ele>66.39999999999999</ele><time>2026-04-24T09:48:51.999Z</time></trkpt><trkpt lat="45.07470710211474" lon="9.139722196372158"><ele>66.2</ele><time>2026-04-24T09:48:52.999Z</time></trkpt><trkpt lat="45.07479728606873" lon="9.139744704791468"><ele>66.0</ele><time>2026-04-24T09:48:53.999Z</time></trkpt><trkpt lat="45.074881792011695" lon="9.139765796045097"><ele>66.0</ele><time>2026-04-24T09:48:54.999Z</time></trkpt><trkpt lat="45.07497040072962" lon="9.139787911424754"><ele>66.0</ele><time>2026-04-24T09:48:55.999Z</time></trkpt><trkpt lat="45.075064357064406" lon="9.139795105497258"><ele>66.0</ele><time>2026-04-24T09:48:56.999Z</time></trkpt><trkpt lat="45.075174938335614" lon="9.139846555870895"><ele>66.0</ele><time>2026-04-24T09:48:57.999Z</time></trkpt><trkpt lat="45.075282316693055" lon="9.139831909077492"><ele>66.0</ele><time>2026-04-24T09:48:58.999Z</time></trkpt><trkpt lat="45.07541047543698" lon="9.139839598509836"><ele>66.0</ele><time>2026-04-24T09:48:59.999Z</time></trkpt><trkpt lat="45.0755460710961" lon="9.139875559122265"><ele>66.0</ele><time>2026-04-24T09:49:00.999Z</time></trkpt><trkpt lat="45.075689801356454" lon="9.139967432507179"><ele>66.0</ele><time>2026-04-24T09:49:01.999Z</time></trkpt><trkpt lat="45.07580438760533" lon="9.13999322709812"><ele>66.0</ele><time>2026-04-24T09:49:02.999Z</time></trkpt><trkpt lat="45.075921203481464" lon="9.140018386954376"><ele>65.75</ele><time>2026-04-24T09:49:03.999Z</time></trkpt><trkpt lat="45.0760237758995" lon="9.140046090712918"><ele>65.5</ele><time>2026-04-24T09:49:04.999Z</time></trkpt><trkpt lat="45.07613195764683" lon="9.140077723691263"><ele>65.25</ele><time>2026-04-24T09:49:05.999Z</time></trkpt><trkpt lat="45.076258209789174" lon="9.140035947878006"><ele>65.0</ele><time>2026-04-24T09:49:06.999Z</time></trkpt><trkpt lat="45.07637399819528" lon="9.13998485594944"><ele>65.0</ele><time>2026-04-24T09:49:07.999Z</time></trkpt><trkpt lat="45.076500188781246" lon="9.139930480970387"><ele>65.0</ele><time>2026-04-24T09:49:08.999Z</time></trkpt><trkpt lat="45.07662854813088" lon="9.139869400674616"><ele>65.0</ele><time>2026-04-24T09:49:09.999Z</time></trkpt><trkpt lat="45.076739719248415" lon="9.139778746084843"><ele>65.0</ele><time>2026-04-24T09:49:10.999Z</time></trkpt><trkpt lat="45.07685206074679" lon="9.13973514258404"><ele>65.0</ele><time>2026-04-24T09:49:11.999Z</time></trkpt><trkpt lat="45.07694326746309" lon="9.139659029119155"><ele>65.0</ele><time>2026-04-24T09:49:12.999Z</time></trkpt><trkpt lat="45.0770237611979" lon="9.139633281475978"><ele>65.0</ele><time>2026-04-24T09:49:13.999Z</time></trkpt><trkpt lat="45.07713106807632" lon="9.139567443101932"><ele>65.0</ele><time>2026-04-24T09:49:15.999Z</time></trkpt><trkpt lat="45.07725387232087" lon="9.13948980637577"><ele>65.0</ele><time>2026-04-24T09:49:17.999Z</time></trkpt><trkpt lat="45.07734629532037" lon="9.139431134914634"><ele>65.25</ele><time>2026-04-24T09:49:18.999Z</time></trkpt><trkpt lat="45.07743664065236" lon="9.139359600435114"><ele>65.5</ele><time>2026-04-24T09:49:19.999Z</time></trkpt><trkpt lat="45.07754193968549" lon="9.139344615467015"><ele>65.75</ele><time>2026-04-24T09:49:20.999Z</time></trkpt><trkpt lat="45.07763836433831" lon="9.139215033706883"><ele>66.0</ele><time>2026-04-24T09:49:21.999Z</time></trkpt><trkpt lat="45.07769452707808" lon="9.13908245605183"><ele>65.75</ele><time>2026-04-24T09:49:22.999Z</time></trkpt><trkpt lat="45.07773415662528" lon="9.13892729969103"><ele>65.5</ele><time>2026-04-24T09:49:23.999Z</time></trkpt><trkpt lat="45.07775560273948" lon="9.138770525208724"><ele>65.25</ele><time>2026-04-24T09:49:24.999Z</time></trkpt><trkpt lat="45.077768686718855" lon="9.138618063550602"><ele>65.0</ele><time>2026-04-24T09:49:25.999Z</time></trkpt><trkpt lat="45.07778456018594" lon="9.138456430625236"><ele>65.0</ele><time>2026-04-24T09:49:26.999Z</time></trkpt><trkpt lat="45.077747202127426" lon="9.13829119909122"><ele>65.0</ele><time>2026-04-24T09:49:27.999Z</time></trkpt><trkpt lat="45.077760005392825" lon="9.138137561044319"><ele>65.0</ele><time>2026-04-24T09:49:28.999Z</time></trkpt><trkpt lat="45.0777790100123" lon="9.138002952489337"><ele>65.0</ele><time>2026-04-24T09:49:29.999Z</time></trkpt><trkpt lat="45.07780058281032" lon="9.13784918203251"><ele>65.0</ele><time>2026-04-24T09:49:30.999Z</time></trkpt><trkpt lat="45.07781954638918" lon="9.137690301255768"><ele>65.0</ele><time>2026-04-24T09:49:31.999Z</time></trkpt><trkpt lat="45.077837654998206" lon="9.137541557262178"><ele>65.0</ele><time>2026-04-24T09:49:32.999Z</time></trkpt><trkpt lat="45.0778806005609" lon="9.137384703682335"><ele>65.0</ele><time>2026-04-24T09:49:33.999Z</time></trkpt><trkpt lat="45.07790807968967" lon="9.137234984537157"><ele>65.0</ele><time>2026-04-24T09:49:34.999Z</time></trkpt><trkpt lat="45.077918502481964" lon="9.13710045566257"><ele>65.0</ele><time>2026-04-24T09:49:35.999Z</time></trkpt><trkpt lat="45.07793198617815" lon="9.136966610447676"><ele>65.0</ele><time>2026-04-24T09:49:36.999Z</time></trkpt><trkpt lat="45.077939337098876" lon="9.136845581581541"><ele>65.0</ele><time>2026-04-24T09:49:37.999Z</time></trkpt><trkpt lat="45.077943363355985" lon="9.13673250642017"><ele>65.0</ele><time>2026-04-24T09:49:38.999Z</time></trkpt><trkpt lat="45.07794691429883" lon="9.136620543076011"><ele>65.0</ele><time>2026-04-24T09:49:39.999Z</time></trkpt><trkpt lat="45.077956790785926" lon="9.136517959031899"><ele>65.0</ele><time>2026-04-24T09:49:40.999Z</time></trkpt><trkpt lat="45.07795407437485" lon="9.13642563426699"><ele>65.0</ele><time>2026-04-24T09:49:41.999Z</time></trkpt><trkpt lat="45.0779474508382" lon="9.136275368517838"><ele>65.33333333333334</ele><time>2026-04-24T09:49:43.999Z</time></trkpt><trkpt lat="45.07795039966806" lon="9.136183272349111"><ele>65.66666666666667</ele><time>2026-04-24T09:49:44.999Z</time></trkpt><trkpt lat="45.07795015405712" lon="9.136079400228082"><ele>66.0</ele><time>2026-04-24T09:49:45.999Z</time></trkpt><trkpt lat="45.07797345630428" lon="9.135969886088152"><ele>66.33333333333333</ele><time>2026-04-24T09:49:46.999Z</time></trkpt><trkpt lat="45.0780224688227" lon="9.13582980606124"><ele>66.66666666666666</ele><time>2026-04-24T09:49:47.999Z</time></trkpt><trkpt lat="45.07805300610197" lon="9.135715204172906"><ele>67.0</ele><time>2026-04-24T09:49:48.999Z</time></trkpt><trkpt lat="45.07807267624318" lon="9.135581508118301"><ele>67.0</ele><time>2026-04-24T09:49:49.999Z</time></trkpt><trkpt lat="45.078087572288986" lon="9.135470357701614"><ele>67.0</ele><time>2026-04-24T09:49:50.999Z</time></trkpt><trkpt lat="45.078113363419135" lon="9.13534255484678"><ele>67.0</ele><time>2026-04-24T09:49:51.999Z</time></trkpt><trkpt lat="45.078136451568255" lon="9.135220988065834"><ele>67.0</ele><time>2026-04-24T09:49:52.999Z</time></trkpt><trkpt lat="45.07815395559543" lon="9.135089708293542"><ele>67.0</ele><time>2026-04-24T09:49:53.999Z</time></trkpt><trkpt lat="45.0781854499898" lon="9.134961949670398"><ele>67.0</ele><time>2026-04-24T09:49:54.999Z</time></trkpt><trkpt lat="45.07820563865167" lon="9.13483222530954"><ele>67.0</ele><time>2026-04-24T09:49:55.999Z</time></trkpt><trkpt lat="45.07820349017948" lon="9.134698122830208"><ele>67.0</ele><time>2026-04-24T09:49:56.999Z</time></trkpt><trkpt lat="45.07822437685847" lon="9.134560382708422"><ele>67.0</ele><time>2026-04-24T09:49:57.999Z</time></trkpt><trkpt lat="45.07824396426707" lon="9.13443257650965"><ele>67.0</ele><time>2026-04-24T09:49:58.999Z</time></trkpt><trkpt lat="45.07829221151017" lon="9.134352891501205"><ele>67.2</ele><time>2026-04-24T09:49:59.999Z</time></trkpt><trkpt lat="45.078308119541376" lon="9.134253116104302"><ele>67.4</ele><time>2026-04-24T09:50:00.999Z</time></trkpt><trkpt lat="45.07832145100458" lon="9.134101479185096"><ele>67.6</ele><time>2026-04-24T09:50:02.999Z</time></trkpt><trkpt lat="45.078366240660664" lon="9.133946428777127"><ele>67.8</ele><time>2026-04-24T09:50:04.999Z</time></trkpt><trkpt lat="45.078386408795595" lon="9.133850527646798"><ele>68.0</ele><time>2026-04-24T09:50:05.999Z</time></trkpt><trkpt lat="45.078399405372075" lon="9.133732720831219"><ele>68.0</ele><time>2026-04-24T09:50:06.999Z</time></trkpt><trkpt lat="45.07841854266793" lon="9.133587928254663"><ele>68.0</ele><time>2026-04-24T09:50:07.999Z</time></trkpt><trkpt lat="45.078427330718526" lon="9.133467922797843"><ele>68.0</ele><time>2026-04-24T09:50:08.999Z</time></trkpt><trkpt lat="45.07844337758945" lon="9.133324848876404"><ele>68.0</ele><time>2026-04-24T09:50:09.999Z</time></trkpt><trkpt lat="45.07846887417825" lon="9.133199648533042"><ele>68.0</ele><time>2026-04-24T09:50:10.999Z</time></trkpt><trkpt lat="45.078490649145245" lon="9.133060916013715"><ele>68.0</ele><time>2026-04-24T09:50:11.999Z</time></trkpt><trkpt lat="45.078528388311405" lon="9.132935841866324"><ele>68.0</ele><time>2026-04-24T09:50:12.999Z</time></trkpt><trkpt lat="45.078539478414285" lon="9.132791158703553"><ele>68.0</ele><time>2026-04-24T09:50:13.998Z</time></trkpt><trkpt lat="45.07856115535396" lon="9.132679619806451"><ele>68.0</ele><time>2026-04-24T09:50:14.998Z</time></trkpt><trkpt lat="45.07859071206911" lon="9.13257343725507"><ele>68.0</ele><time>2026-04-24T09:50:15.998Z</time></trkpt><trkpt lat="45.07859590361599" lon="9.132427951638565"><ele>68.2</ele><time>2026-04-24T09:50:16.998Z</time></trkpt><trkpt lat="45.0786144504121" lon="9.13230578827336"><ele>68.4</ele><time>2026-04-24T09:50:17.998Z</time></trkpt><trkpt lat="45.078635401915555" lon="9.132167785759236"><ele>68.60000000000001</ele><time>2026-04-24T09:50:18.998Z</time></trkpt><trkpt lat="45.07865495657134" lon="9.132038984691949"><ele>68.8</ele><time>2026-04-24T09:50:19.998Z</time></trkpt><trkpt lat="45.078674904809056" lon="9.131899414463152"><ele>69.0</ele><time>2026-04-24T09:50:20.998Z</time></trkpt><trkpt lat="45.078704488105444" lon="9.131770300388023"><ele>69.0</ele><time>2026-04-24T09:50:21.998Z</time></trkpt><trkpt lat="45.078725658353825" lon="9.131631139873514"><ele>69.0</ele><time>2026-04-24T09:50:22.998Z</time></trkpt><trkpt lat="45.07874715727887" lon="9.131490431912393"><ele>69.0</ele><time>2026-04-24T09:50:23.998Z</time></trkpt><trkpt lat="45.07870454703844" lon="9.131331050209027"><ele>69.0</ele><time>2026-04-24T09:50:24.998Z</time></trkpt><trkpt lat="45.07872005303504" lon="9.13119414475689"><ele>69.0</ele><time>2026-04-24T09:50:25.998Z</time></trkpt><trkpt lat="45.07874123738652" lon="9.131064749726301"><ele>69.0</ele><time>2026-04-24T09:50:26.998Z</time></trkpt><trkpt lat="45.07875996142955" lon="9.130941666983167"><ele>69.0</ele><time>2026-04-24T09:50:27.998Z</time></trkpt><trkpt lat="45.078778026962766" lon="9.130829175371456"><ele>69.0</ele><time>2026-04-24T09:50:28.998Z</time></trkpt><trkpt lat="45.07879734720776" lon="9.130725232337374"><ele>69.0</ele><time>2026-04-24T09:50:29.998Z</time></trkpt><trkpt lat="45.07881509971366" lon="9.130628072934433"><ele>69.0</ele><time>2026-04-24T09:50:30.998Z</time></trkpt><trkpt lat="45.07884138553423" lon="9.130456350177312"><ele>69.0</ele><time>2026-04-24T09:50:32.998Z</time></trkpt><trkpt lat="45.07885782624335" lon="9.130366321137105"><ele>69.0</ele><time>2026-04-24T09:50:33.998Z</time></trkpt><trkpt lat="45.078879498325755" lon="9.130273479263526"><ele>69.0</ele><time>2026-04-24T09:50:34.998Z</time></trkpt><trkpt lat="45.078897146975855" lon="9.130179653033816"><ele>69.0</ele><time>2026-04-24T09:50:35.998Z</time></trkpt><trkpt lat="45.07891814481289" lon="9.130082607600162"><ele>69.0</ele><time>2026-04-24T09:50:36.998Z</time></trkpt><trkpt lat="45.07893650753254" lon="9.129976581171595"><ele>69.0</ele><time>2026-04-24T09:50:37.998Z</time></trkpt><trkpt lat="45.07896146235423" lon="9.129859296552864"><ele>69.0</ele><time>2026-04-24T09:50:38.998Z</time></trkpt><trkpt lat="45.078981542852304" lon="9.129738246939306"><ele>69.0</ele><time>2026-04-24T09:50:39.998Z</time></trkpt><trkpt lat="45.07899611617506" lon="9.129614795424105"><ele>69.0</ele><time>2026-04-24T09:50:40.998Z</time></trkpt><trkpt lat="45.07901769223072" lon="9.129493457820951"><ele>69.0</ele><time>2026-04-24T09:50:41.998Z</time></trkpt><trkpt lat="45.0790357284487" lon="9.129372979394482"><ele>69.0</ele><time>2026-04-24T09:50:42.998Z</time></trkpt><trkpt lat="45.07904715397072" lon="9.12926125281069"><ele>69.0</ele><time>2026-04-24T09:50:43.998Z</time></trkpt><trkpt lat="45.07906119568153" lon="9.129169388057525"><ele>69.0</ele><time>2026-04-24T09:50:44.998Z</time></trkpt><trkpt lat="45.0790831421593" lon="9.129034434375972"><ele>68.83333333333333</ele><time>2026-04-24T09:50:46.998Z</time></trkpt><trkpt lat="45.07911996276875" lon="9.12889764039177"><ele>68.66666666666667</ele><time>2026-04-24T09:50:48.998Z</time></trkpt><trkpt lat="45.07912660452763" lon="9.12880590676936"><ele>68.5</ele><time>2026-04-24T09:50:49.998Z</time></trkpt><trkpt lat="45.07913683184169" lon="9.128702161663941"><ele>68.33333333333334</ele><time>2026-04-24T09:50:50.998Z</time></trkpt><trkpt lat="45.07914705946516" lon="9.128581925648518"><ele>68.16666666666667</ele><time>2026-04-24T09:50:51.998Z</time></trkpt><trkpt lat="45.07916914664471" lon="9.128446413204058"><ele>68.0</ele><time>2026-04-24T09:50:52.998Z</time></trkpt><trkpt lat="45.07918298185709" lon="9.128308223467423"><ele>67.8</ele><time>2026-04-24T09:50:53.998Z</time></trkpt><trkpt lat="45.079211219006375" lon="9.128169360887513"><ele>67.6</ele><time>2026-04-24T09:50:54.998Z</time></trkpt><trkpt lat="45.07923711372215" lon="9.128032403800544"><ele>67.4</ele><time>2026-04-24T09:50:55.998Z</time></trkpt><trkpt lat="45.07926074677778" lon="9.127889911246339"><ele>67.2</ele><time>2026-04-24T09:50:56.998Z</time></trkpt><trkpt lat="45.07928472904064" lon="9.127747671758984"><ele>67.0</ele><time>2026-04-24T09:50:57.998Z</time></trkpt><trkpt lat="45.07930283104613" lon="9.127608536109845"><ele>67.0</ele><time>2026-04-24T09:50:58.998Z</time></trkpt><trkpt lat="45.07932977177702" lon="9.127471972780523"><ele>67.0</ele><time>2026-04-24T09:50:59.998Z</time></trkpt><trkpt lat="45.079352655888265" lon="9.127337874258442"><ele>67.0</ele><time>2026-04-24T09:51:00.998Z</time></trkpt><trkpt lat="45.07938073443176" lon="9.127211687296112"><ele>67.0</ele><time>2026-04-24T09:51:01.998Z</time></trkpt><trkpt lat="45.07940523457549" lon="9.127087363846108"><ele>67.0</ele><time>2026-04-24T09:51:02.998Z</time></trkpt><trkpt lat="45.07942255655728" lon="9.126959021486421"><ele>67.0</ele><time>2026-04-24T09:51:03.998Z</time></trkpt><trkpt lat="45.07944429042076" lon="9.126829242526322"><ele>67.0</ele><time>2026-04-24T09:51:04.998Z</time></trkpt><trkpt lat="45.07946779439372" lon="9.126695515359781"><ele>67.0</ele><time>2026-04-24T09:51:05.998Z</time></trkpt><trkpt lat="45.0794870388617" lon="9.126555613364129"><ele>67.0</ele><time>2026-04-24T09:51:06.998Z</time></trkpt><trkpt lat="45.07950966099716" lon="9.126416063152623"><ele>67.0</ele><time>2026-04-24T09:51:07.998Z</time></trkpt><trkpt lat="45.07952762917736" lon="9.12627392382695"><ele>67.0</ele><time>2026-04-24T09:51:08.998Z</time></trkpt><trkpt lat="45.07955205814325" lon="9.126133675085175"><ele>67.0</ele><time>2026-04-24T09:51:09.998Z</time></trkpt><trkpt lat="45.079573902014715" lon="9.1259908342789"><ele>67.0</ele><time>2026-04-24T09:51:10.998Z</time></trkpt><trkpt lat="45.07959830038261" lon="9.125847763684897"><ele>67.0</ele><time>2026-04-24T09:51:11.998Z</time></trkpt><trkpt lat="45.07962561538424" lon="9.125707575422018"><ele>67.0</ele><time>2026-04-24T09:51:12.998Z</time></trkpt><trkpt lat="45.07964763530848" lon="9.12556495769003"><ele>66.8</ele><time>2026-04-24T09:51:13.998Z</time></trkpt><trkpt lat="45.07967499687069" lon="9.125422859607967"><ele>66.6</ele><time>2026-04-24T09:51:14.998Z</time></trkpt><trkpt lat="45.07969138889569" lon="9.125278433323768"><ele>66.39999999999999</ele><time>2026-04-24T09:51:15.998Z</time></trkpt><trkpt lat="45.07971225524965" lon="9.125142504268624"><ele>66.2</ele><time>2026-04-24T09:51:16.998Z</time></trkpt><trkpt lat="45.079729695403145" lon="9.125011437333496"><ele>66.0</ele><time>2026-04-24T09:51:17.998Z</time></trkpt><trkpt lat="45.07974510671073" lon="9.124887038869131"><ele>66.0</ele><time>2026-04-24T09:51:18.998Z</time></trkpt><trkpt lat="45.07976099143457" lon="9.124771068061149"><ele>66.0</ele><time>2026-04-24T09:51:19.998Z</time></trkpt><trkpt lat="45.07977457764489" lon="9.124658124463924"><ele>66.0</ele><time>2026-04-24T09:51:20.998Z</time></trkpt><trkpt lat="45.07977902068842" lon="9.124546539941168"><ele>66.0</ele><time>2026-04-24T09:51:21.998Z</time></trkpt><trkpt lat="45.07979333259596" lon="9.12444338132366"><ele>66.0</ele><time>2026-04-24T09:51:22.998Z</time></trkpt><trkpt lat="45.07980749170325" lon="9.124349559291128"><ele>66.0</ele><time>2026-04-24T09:51:23.998Z</time></trkpt><trkpt lat="45.07982568165737" lon="9.124262577328697"><ele>66.0</ele><time>2026-04-24T09:51:24.998Z</time></trkpt><trkpt lat="45.0798397158132" lon="9.124175218241385"><ele>66.0</ele><time>2026-04-24T09:51:25.998Z</time></trkpt><trkpt lat="45.079859654392116" lon="9.12408716433353"><ele>66.0</ele><time>2026-04-24T09:51:26.998Z</time></trkpt><trkpt lat="45.079887074262146" lon="9.123993045154505"><ele>66.0</ele><time>2026-04-24T09:51:27.998Z</time></trkpt><trkpt lat="45.07993249939768" lon="9.123904199049107"><ele>66.0</ele><time>2026-04-24T09:51:28.998Z</time></trkpt><trkpt lat="45.07997514660232" lon="9.123810470067562"><ele>66.0</ele><time>2026-04-24T09:51:29.998Z</time></trkpt><trkpt lat="45.08001468008617" lon="9.12371064344715"><ele>66.0</ele><time>2026-04-24T09:51:30.998Z</time></trkpt><trkpt lat="45.08006671622469" lon="9.123616223707426"><ele>66.0</ele><time>2026-04-24T09:51:31.998Z</time></trkpt><trkpt lat="45.08013576283912" lon="9.123526042442899"><ele>66.0</ele><time>2026-04-24T09:51:32.998Z</time></trkpt><trkpt lat="45.08020964859878" lon="9.123432719796337"><ele>66.0</ele><time>2026-04-24T09:51:33.998Z</time></trkpt><trkpt lat="45.080282027240706" lon="9.123355235224533"><ele>66.0</ele><time>2026-04-24T09:51:34.998Z</time></trkpt><trkpt lat="45.08034341495931" lon="9.12328635876252"><ele>66.0</ele><time>2026-04-24T09:51:35.998Z</time></trkpt><trkpt lat="45.08042827934606" lon="9.12319114182558"><ele>66.0</ele><time>2026-04-24T09:51:37.998Z</time></trkpt><trkpt lat="45.08045929603598" lon="9.123038338560061"><ele>66.0</ele><time>2026-04-24T09:51:40.998Z</time></trkpt><trkpt lat="45.08038968007296" lon="9.122974647325213"><ele>66.0</ele><time>2026-04-24T09:51:42.998Z</time></trkpt><trkpt lat="45.08028261881515" lon="9.12288814567119"><ele>66.0</ele><time>2026-04-24T09:51:44.998Z</time></trkpt><trkpt lat="45.080200929235794" lon="9.122825164275488"><ele>66.0</ele><time>2026-04-24T09:51:46.998Z</time></trkpt><trkpt lat="45.080177684955814" lon="9.122733279804823"><ele>66.0</ele><time>2026-04-24T09:51:48.998Z</time></trkpt><trkpt lat="45.08019161168813" lon="9.122639745374421"><ele>66.0</ele><time>2026-04-24T09:51:58.998Z</time></trkpt><trkpt lat="45.080106939078306" lon="9.122540803779325"><ele>66.0</ele><time>2026-04-24T09:52:09.997Z</time></trkpt><trkpt lat="45.07999832730853" lon="9.12255933053207"><ele>66.0</ele><time>2026-04-24T09:52:11.997Z</time></trkpt><trkpt lat="45.07987890578253" lon="9.122590181849045"><ele>66.0</ele><time>2026-04-24T09:52:13.997Z</time></trkpt><trkpt lat="45.07981471605841" lon="9.12257039702754"><ele>66.16666666666667</ele><time>2026-04-24T09:52:14.997Z</time></trkpt><trkpt lat="45.07975810919035" lon="9.122515758697224"><ele>66.33333333333333</ele><time>2026-04-24T09:52:15.997Z</time></trkpt><trkpt lat="45.0796907708608" lon="9.12246917326925"><ele>66.5</ele><time>2026-04-24T09:52:16.997Z</time></trkpt><trkpt lat="45.0796137142744" lon="9.122411690706704"><ele>66.66666666666666</ele><time>2026-04-24T09:52:17.997Z</time></trkpt><trkpt lat="45.07952192633514" lon="9.122343534689007"><ele>66.83333333333333</ele><time>2026-04-24T09:52:18.997Z</time></trkpt><trkpt lat="45.07942278316454" lon="9.122274455067089"><ele>67.0</ele><time>2026-04-24T09:52:19.997Z</time></trkpt><trkpt lat="45.07932201062543" lon="9.122204293362977"><ele>66.8</ele><time>2026-04-24T09:52:20.997Z</time></trkpt><trkpt lat="45.07922187882031" lon="9.122134577738823"><ele>66.6</ele><time>2026-04-24T09:52:21.997Z</time></trkpt><trkpt lat="45.079121674304496" lon="9.122064811455202"><ele>66.39999999999999</ele><time>2026-04-24T09:52:22.997Z</time></trkpt><trkpt lat="45.07902068080364" lon="9.121994495893148"><ele>66.2</ele><time>2026-04-24T09:52:23.997Z</time></trkpt><trkpt lat="45.07891405507249" lon="9.121943529071567"><ele>66.0</ele><time>2026-04-24T09:52:24.997Z</time></trkpt><trkpt lat="45.078815642092394" lon="9.121873267263032"><ele>66.0</ele><time>2026-04-24T09:52:25.997Z</time></trkpt><trkpt lat="45.07871789421133" lon="9.12179937772862"><ele>66.0</ele><time>2026-04-24T09:52:26.997Z</time></trkpt><trkpt lat="45.07861708758729" lon="9.121728822814868"><ele>66.0</ele><time>2026-04-24T09:52:27.997Z</time></trkpt><trkpt lat="45.078514845435265" lon="9.121665537915677"><ele>66.0</ele><time>2026-04-24T09:52:28.997Z</time></trkpt><trkpt lat="45.078415438654986" lon="9.121594625321878"><ele>66.0</ele><time>2026-04-24T09:52:29.997Z</time></trkpt><trkpt lat="45.07832298598896" lon="9.121504577197587"><ele>66.0</ele><time>2026-04-24T09:52:30.997Z</time></trkpt><trkpt lat="45.07821527358468" lon="9.121453052490336"><ele>66.0</ele><time>2026-04-24T09:52:31.997Z</time></trkpt><trkpt lat="45.078124934953706" lon="9.12136490360739"><ele>66.0</ele><time>2026-04-24T09:52:32.997Z</time></trkpt><trkpt lat="45.07802795180784" lon="9.121296504255898"><ele>66.0</ele><time>2026-04-24T09:52:33.997Z</time></trkpt><trkpt lat="45.0779251993313" lon="9.121239340868216"><ele>66.0</ele><time>2026-04-24T09:52:34.997Z</time></trkpt><trkpt lat="45.07782524319502" lon="9.121166029128872"><ele>66.0</ele><time>2026-04-24T09:52:35.997Z</time></trkpt><trkpt lat="45.077720976124155" lon="9.12108599580964"><ele>66.0</ele><time>2026-04-24T09:52:36.997Z</time></trkpt><trkpt lat="45.0776130157883" lon="9.121012955667492"><ele>66.0</ele><time>2026-04-24T09:52:37.997Z</time></trkpt><trkpt lat="45.07750512851999" lon="9.120934895856738"><ele>66.0</ele><time>2026-04-24T09:52:38.997Z</time></trkpt><trkpt lat="45.07739295449856" lon="9.120857289080112"><ele>66.0</ele><time>2026-04-24T09:52:39.997Z</time></trkpt><trkpt lat="45.07728055023461" lon="9.120773063034214"><ele>66.0</ele><time>2026-04-24T09:52:40.997Z</time></trkpt><trkpt lat="45.07716048329715" lon="9.120702523239329"><ele>66.0</ele><time>2026-04-24T09:52:41.997Z</time></trkpt><trkpt lat="45.077044686245856" lon="9.12062263084234"><ele>66.0</ele><time>2026-04-24T09:52:42.997Z</time></trkpt><trkpt lat="45.07692621873147" lon="9.120536735072433"><ele>65.75</ele><time>2026-04-24T09:52:43.997Z</time></trkpt><trkpt lat="45.07680818351849" lon="9.12045661707984"><ele>65.5</ele><time>2026-04-24T09:52:44.997Z</time></trkpt><trkpt lat="45.076692154405876" lon="9.120365582842423"><ele>65.25</ele><time>2026-04-24T09:52:45.997Z</time></trkpt><trkpt lat="45.0765744815913" lon="9.12027065700466"><ele>65.0</ele><time>2026-04-24T09:52:46.997Z</time></trkpt><trkpt lat="45.07645319269726" lon="9.120175970804638"><ele>65.0</ele><time>2026-04-24T09:52:47.997Z</time></trkpt><trkpt lat="45.076324537849" lon="9.12008959208671"><ele>65.0</ele><time>2026-04-24T09:52:48.997Z</time></trkpt><trkpt lat="45.07618980163615" lon="9.120018168051288"><ele>65.0</ele><time>2026-04-24T09:52:49.997Z</time></trkpt><trkpt lat="45.076063994756815" lon="9.119918058762815"><ele>65.0</ele><time>2026-04-24T09:52:50.997Z</time></trkpt><trkpt lat="45.075928358138356" lon="9.119851019003008"><ele>65.0</ele><time>2026-04-24T09:52:51.997Z</time></trkpt><trkpt lat="45.07579065377527" lon="9.119796382467722"><ele>65.0</ele><time>2026-04-24T09:52:52.997Z</time></trkpt><trkpt lat="45.07565665684383" lon="9.119748539235774"><ele>65.0</ele><time>2026-04-24T09:52:53.997Z</time></trkpt><trkpt lat="45.07551848114326" lon="9.11970869007007"><ele>65.0</ele><time>2026-04-24T09:52:54.997Z</time></trkpt><trkpt lat="45.07539619745412" lon="9.11959800849459"><ele>65.0</ele><time>2026-04-24T09:52:55.997Z</time></trkpt><trkpt lat="45.07527890458095" lon="9.11947375841556"><ele>65.0</ele><time>2026-04-24T09:52:56.997Z</time></trkpt><trkpt lat="45.07517035028937" lon="9.119336650579307"><ele>65.0</ele><time>2026-04-24T09:52:57.997Z</time></trkpt><trkpt lat="45.075065795520665" lon="9.119196548340495"><ele>65.0</ele><time>2026-04-24T09:52:58.997Z</time></trkpt><trkpt lat="45.07496589941103" lon="9.119057827953041"><ele>65.5</ele><time>2026-04-24T09:52:59.997Z</time></trkpt><trkpt lat="45.07486994121208" lon="9.118924423549132"><ele>66.0</ele><time>2026-04-24T09:53:00.997Z</time></trkpt><trkpt lat="45.07477443068715" lon="9.11879571519497"><ele>66.5</ele><time>2026-04-24T09:53:01.997Z</time></trkpt><trkpt lat="45.074678449992845" lon="9.118673067745057"><ele>67.0</ele><time>2026-04-24T09:53:02.997Z</time></trkpt><trkpt lat="45.0745821699807" lon="9.118560232855721"><ele>67.0</ele><time>2026-04-24T09:53:03.997Z</time></trkpt><trkpt lat="45.07449972252005" lon="9.118444115109764"><ele>67.0</ele><time>2026-04-24T09:53:04.997Z</time></trkpt><trkpt lat="45.07442588748158" lon="9.118330408654355"><ele>67.0</ele><time>2026-04-24T09:53:05.997Z</time></trkpt><trkpt lat="45.07436333376078" lon="9.118210540002526"><ele>67.0</ele><time>2026-04-24T09:53:06.997Z</time></trkpt><trkpt lat="45.07430450131404" lon="9.118088148306645"><ele>67.0</ele><time>2026-04-24T09:53:07.997Z</time></trkpt><trkpt lat="45.074248521505446" lon="9.117962811689011"><ele>66.75</ele><time>2026-04-24T09:53:08.997Z</time></trkpt><trkpt lat="45.0741864636068" lon="9.117846196100945"><ele>66.5</ele><time>2026-04-24T09:53:09.997Z</time></trkpt><trkpt lat="45.074112189437244" lon="9.117711160689591"><ele>66.25</ele><time>2026-04-24T09:53:10.997Z</time></trkpt><trkpt lat="45.074030223815825" lon="9.11754271974657"><ele>66.0</ele><time>2026-04-24T09:53:11.997Z</time></trkpt><trkpt lat="45.07394430383927" lon="9.117374533724812"><ele>66.0</ele><time>2026-04-24T09:53:12.997Z</time></trkpt><trkpt lat="45.07386055920051" lon="9.11721067301988"><ele>66.0</ele><time>2026-04-24T09:53:13.997Z</time></trkpt><trkpt lat="45.07377933018071" lon="9.11705307157099"><ele>66.0</ele><time>2026-04-24T09:53:14.997Z</time></trkpt><trkpt lat="45.07370000374169" lon="9.11689016974056"><ele>66.0</ele><time>2026-04-24T09:53:15.997Z</time></trkpt><trkpt lat="45.073628380745866" lon="9.11672780079059"><ele>66.0</ele><time>2026-04-24T09:53:16.997Z</time></trkpt><trkpt lat="45.073563337622225" lon="9.116575491590835"><ele>66.0</ele><time>2026-04-24T09:53:17.997Z</time></trkpt><trkpt lat="45.07350845929211" lon="9.116438479549684"><ele>66.0</ele><time>2026-04-24T09:53:18.997Z</time></trkpt><trkpt lat="45.07346047628699" lon="9.116322034490343"><ele>66.0</ele><time>2026-04-24T09:53:19.997Z</time></trkpt><trkpt lat="45.07341837880444" lon="9.116234562329971"><ele>66.0</ele><time>2026-04-24T09:53:20.997Z</time></trkpt><trkpt lat="45.07339181685697" lon="9.116150592776675"><ele>66.33333333333333</ele><time>2026-04-24T09:53:21.997Z</time></trkpt><trkpt lat="45.073328746286876" lon="9.116004643030138"><ele>66.66666666666667</ele><time>2026-04-24T09:53:23.997Z</time></trkpt><trkpt lat="45.07329063266867" lon="9.115933547989755"><ele>67.0</ele><time>2026-04-24T09:53:24.997Z</time></trkpt><trkpt lat="45.073249439834065" lon="9.115860965270633"><ele>67.33333333333334</ele><time>2026-04-24T09:53:25.997Z</time></trkpt><trkpt lat="45.07321241092456" lon="9.115773476699287"><ele>67.66666666666667</ele><time>2026-04-24T09:53:26.997Z</time></trkpt><trkpt lat="45.073171582185346" lon="9.11566337560959"><ele>68.0</ele><time>2026-04-24T09:53:27.997Z</time></trkpt><trkpt lat="45.0731331007541" lon="9.115519127177311"><ele>68.0</ele><time>2026-04-24T09:53:28.997Z</time></trkpt><trkpt lat="45.073082505719285" lon="9.11536923627565"><ele>68.0</ele><time>2026-04-24T09:53:29.997Z</time></trkpt><trkpt lat="45.073020779007216" lon="9.115227234476132"><ele>68.0</ele><time>2026-04-24T09:53:30.997Z</time></trkpt><trkpt lat="45.07297208267108" lon="9.115072959104053"><ele>68.0</ele><time>2026-04-24T09:53:31.997Z</time></trkpt><trkpt lat="45.07291792758961" lon="9.114929919309326"><ele>67.6</ele><time>2026-04-24T09:53:32.997Z</time></trkpt><trkpt lat="45.07287014805835" lon="9.114797380136368"><ele>67.19999999999999</ele><time>2026-04-24T09:53:33.997Z</time></trkpt><trkpt lat="45.0728224002634" lon="9.114677810971408"><ele>66.8</ele><time>2026-04-24T09:53:34.997Z</time></trkpt><trkpt lat="45.072784828321666" lon="9.114555395625526"><ele>66.39999999999999</ele><time>2026-04-24T09:53:35.997Z</time></trkpt><trkpt lat="45.07277653119191" lon="9.11442745046331"><ele>66.0</ele><time>2026-04-24T09:53:36.997Z</time></trkpt><trkpt lat="45.07279724648012" lon="9.114290710791337"><ele>66.0</ele><time>2026-04-24T09:53:37.997Z</time></trkpt><trkpt lat="45.07283406517277" lon="9.11414200358987"><ele>66.0</ele><time>2026-04-24T09:53:38.997Z</time></trkpt><trkpt lat="45.0728575396956" lon="9.113973805059118"><ele>66.0</ele><time>2026-04-24T09:53:39.997Z</time></trkpt><trkpt lat="45.07290206529843" lon="9.113815487797106"><ele>66.0</ele><time>2026-04-24T09:53:40.997Z</time></trkpt><trkpt lat="45.07294533161938" lon="9.113646703658889"><ele>66.0</ele><time>2026-04-24T09:53:41.997Z</time></trkpt><trkpt lat="45.07301031164467" lon="9.113494851886136"><ele>66.0</ele><time>2026-04-24T09:53:42.997Z</time></trkpt><trkpt lat="45.073044287557025" lon="9.113327618309066"><ele>66.0</ele><time>2026-04-24T09:53:43.997Z</time></trkpt><trkpt lat="45.07309321473224" lon="9.113172069897319"><ele>66.0</ele><time>2026-04-24T09:53:44.997Z</time></trkpt><trkpt lat="45.0731450639896" lon="9.113003327423288"><ele>66.0</ele><time>2026-04-24T09:53:45.997Z</time></trkpt><trkpt lat="45.07312672417003" lon="9.11281976827364"><ele>66.0</ele><time>2026-04-24T09:53:46.997Z</time></trkpt><trkpt lat="45.07309613650009" lon="9.112634649486438"><ele>66.0</ele><time>2026-04-24T09:53:47.997Z</time></trkpt><trkpt lat="45.07305947821783" lon="9.112434445977293"><ele>66.0</ele><time>2026-04-24T09:53:48.997Z</time></trkpt><trkpt lat="45.07301185677499" lon="9.112226774525581"><ele>65.66666666666667</ele><time>2026-04-24T09:53:49.997Z</time></trkpt><trkpt lat="45.07296941007382" lon="9.112000949764806"><ele>65.33333333333334</ele><time>2026-04-24T09:53:50.997Z</time></trkpt><trkpt lat="45.07292147365864" lon="9.11176214203256"><ele>65.0</ele><time>2026-04-24T09:53:51.997Z</time></trkpt><trkpt lat="45.07286931258162" lon="9.111504651558288"><ele>64.66666666666667</ele><time>2026-04-24T09:53:52.997Z</time></trkpt><trkpt lat="45.07281542993632" lon="9.11123788125706"><ele>64.33333333333333</ele><time>2026-04-24T09:53:53.997Z</time></trkpt><trkpt lat="45.072757997863235" lon="9.110983390443417"><ele>64.0</ele><time>2026-04-24T09:53:54.997Z</time></trkpt><trkpt lat="45.07268841845241" lon="9.110733396949334"><ele>63.666666666666664</ele><time>2026-04-24T09:53:55.997Z</time></trkpt><trkpt lat="45.07261563564908" lon="9.110492340475698"><ele>63.33333333333333</ele><time>2026-04-24T09:53:56.997Z</time></trkpt><trkpt lat="45.072553931541286" lon="9.110252770685266"><ele>63.0</ele><time>2026-04-24T09:53:57.996Z</time></trkpt><trkpt lat="45.07249271990998" lon="9.110026127623424"><ele>63.0</ele><time>2026-04-24T09:53:58.996Z</time></trkpt><trkpt lat="45.0724461584346" lon="9.109782597462248"><ele>63.0</ele><time>2026-04-24T09:53:59.996Z</time></trkpt><trkpt lat="45.07241137965184" lon="9.10953938906867"><ele>63.0</ele><time>2026-04-24T09:54:00.996Z</time></trkpt><trkpt lat="45.072382867008486" lon="9.109306818577911"><ele>63.33333333333333</ele><time>2026-04-24T09:54:01.996Z</time></trkpt><trkpt lat="45.0723598442635" lon="9.109068586720133"><ele>63.666666666666664</ele><time>2026-04-24T09:54:02.996Z</time></trkpt><trkpt lat="45.072345959563414" lon="9.108834296469585"><ele>64.0</ele><time>2026-04-24T09:54:03.996Z</time></trkpt><trkpt lat="45.0723425192039" lon="9.108568502609737"><ele>64.0</ele><time>2026-04-24T09:54:04.996Z</time></trkpt><trkpt lat="45.07234088809544" lon="9.10830359454571"><ele>64.0</ele><time>2026-04-24T09:54:05.996Z</time></trkpt><trkpt lat="45.0723240687049" lon="9.108035770204353"><ele>64.0</ele><time>2026-04-24T09:54:06.996Z</time></trkpt><trkpt lat="45.07231441197733" lon="9.10777261979027"><ele>64.33333333333333</ele><time>2026-04-24T09:54:07.996Z</time></trkpt><trkpt lat="45.072287276055164" lon="9.10751789632654"><ele>64.66666666666667</ele><time>2026-04-24T09:54:08.996Z</time></trkpt><trkpt lat="45.07225120910742" lon="9.107272674681685"><ele>65.0</ele><time>2026-04-24T09:54:09.996Z</time></trkpt><trkpt lat="45.07223682417378" lon="9.10701331701025"><ele>64.33333333333334</ele><time>2026-04-24T09:54:10.996Z</time></trkpt><trkpt lat="45.07223765937872" lon="9.106768090181482"><ele>63.66666666666667</ele><time>2026-04-24T09:54:11.996Z</time></trkpt><trkpt lat="45.07226749677942" lon="9.106516421649008"><ele>63.0</ele><time>2026-04-24T09:54:12.996Z</time></trkpt><trkpt lat="45.07228628562727" lon="9.10628894948413"><ele>62.66666666666667</ele><time>2026-04-24T09:54:13.996Z</time></trkpt><trkpt lat="45.07229927727822" lon="9.106051951698618"><ele>62.333333333333336</ele><time>2026-04-24T09:54:14.996Z</time></trkpt><trkpt lat="45.07228524184011" lon="9.105828160768553"><ele>62.0</ele><time>2026-04-24T09:54:15.996Z</time></trkpt><trkpt lat="45.072277721439555" lon="9.105608072075716"><ele>61.66666666666667</ele><time>2026-04-24T09:54:16.996Z</time></trkpt><trkpt lat="45.07228260613224" lon="9.105386390460641"><ele>61.33333333333333</ele><time>2026-04-24T09:54:17.996Z</time></trkpt><trkpt lat="45.07233065074784" lon="9.105172852050561"><ele>61.0</ele><time>2026-04-24T09:54:18.996Z</time></trkpt><trkpt lat="45.07236612414328" lon="9.104979392083397"><ele>61.0</ele><time>2026-04-24T09:54:19.997Z</time></trkpt><trkpt lat="45.07240472584417" lon="9.104767088981605"><ele>61.0</ele><time>2026-04-24T09:54:20.997Z</time></trkpt><trkpt lat="45.072439863600906" lon="9.10457040059821"><ele>61.0</ele><time>2026-04-24T09:54:21.997Z</time></trkpt><trkpt lat="45.07247185051018" lon="9.10438187422757"><ele>61.0</ele><time>2026-04-24T09:54:22.997Z</time></trkpt><trkpt lat="45.07249824126817" lon="9.104179135539008"><ele>61.4</ele><time>2026-04-24T09:54:23.997Z</time></trkpt><trkpt lat="45.07251530764135" lon="9.104008356625934"><ele>61.8</ele><time>2026-04-24T09:54:24.997Z</time></trkpt><trkpt lat="45.072523896167894" lon="9.103845583831612"><ele>62.199999999999996</ele><time>2026-04-24T09:54:25.997Z</time></trkpt><trkpt lat="45.07253492018749" lon="9.103709387253277"><ele>62.599999999999994</ele><time>2026-04-24T09:54:26.997Z</time></trkpt><trkpt lat="45.07254615207591" lon="9.103583035015001"><ele>63.0</ele><time>2026-04-24T09:54:27.997Z</time></trkpt><trkpt lat="45.072554086572936" lon="9.10349377679727"><ele>63.0</ele><time>2026-04-24T09:54:28.997Z</time></trkpt><trkpt lat="45.072584325435514" lon="9.1034020903162"><ele>63.0</ele><time>2026-04-24T09:54:41.997Z</time></trkpt><trkpt lat="45.07251834435964" lon="9.103369388571641"><ele>63.0</ele><time>2026-04-24T09:54:42.997Z</time></trkpt><trkpt lat="45.072430374505146" lon="9.103325790622383"><ele>63.0</ele><time>2026-04-24T09:54:43.997Z</time></trkpt><trkpt lat="45.07231985797215" lon="9.103270649827962"><ele>63.0</ele><time>2026-04-24T09:54:44.997Z</time></trkpt><trkpt lat="45.0721908297272" lon="9.103206102169795"><ele>62.5</ele><time>2026-04-24T09:54:45.997Z</time></trkpt><trkpt lat="45.07205295330818" lon="9.103137128154215"><ele>62.0</ele><time>2026-04-24T09:54:46.997Z</time></trkpt><trkpt lat="45.07191139265633" lon="9.103066310879912"><ele>61.5</ele><time>2026-04-24T09:54:47.997Z</time></trkpt><trkpt lat="45.07176740283763" lon="9.103005411049624"><ele>61.0</ele><time>2026-04-24T09:54:48.997Z</time></trkpt><trkpt lat="45.07161976362614" lon="9.102920420652833"><ele>62.33333333333333</ele><time>2026-04-24T09:54:49.997Z</time></trkpt><trkpt lat="45.07145955251413" lon="9.102840273482382"><ele>63.66666666666667</ele><time>2026-04-24T09:54:50.997Z</time></trkpt><trkpt lat="45.07127540209912" lon="9.102810875594315"><ele>65.0</ele><time>2026-04-24T09:54:51.997Z</time></trkpt><trkpt lat="45.07112943886983" lon="9.102728753436791"><ele>65.0</ele><time>2026-04-24T09:54:52.997Z</time></trkpt><trkpt lat="45.070970705828806" lon="9.102657784004574"><ele>65.0</ele><time>2026-04-24T09:54:53.997Z</time></trkpt><trkpt lat="45.07083024062123" lon="9.102552284264178"><ele>65.0</ele><time>2026-04-24T09:54:54.997Z</time></trkpt><trkpt lat="45.0706998707565" lon="9.102476665121058"><ele>65.0</ele><time>2026-04-24T09:54:55.997Z</time></trkpt><trkpt lat="45.07058082107712" lon="9.102401106022961"><ele>65.0</ele><time>2026-04-24T09:54:56.997Z</time></trkpt><trkpt lat="45.07047236333045" lon="9.102325082826606"><ele>65.0</ele><time>2026-04-24T09:54:57.997Z</time></trkpt><trkpt lat="45.07038551786765" lon="9.102231696339622"><ele>65.0</ele><time>2026-04-24T09:54:58.997Z</time></trkpt><trkpt lat="45.07035906724571" lon="9.102058411073372"><ele>65.0</ele><time>2026-04-24T09:54:59.997Z</time></trkpt><trkpt lat="45.0702750882732" lon="9.10194843992109"><ele>65.0</ele><time>2026-04-24T09:55:00.997Z</time></trkpt><trkpt lat="45.07015819083406" lon="9.101930006042581"><ele>65.0</ele><time>2026-04-24T09:55:01.997Z</time></trkpt><trkpt lat="45.070062032586186" lon="9.101892495147306"><ele>65.0</ele><time>2026-04-24T09:55:02.997Z</time></trkpt><trkpt lat="45.06993890532116" lon="9.101963844085956"><ele>65.0</ele><time>2026-04-24T09:55:03.997Z</time></trkpt><trkpt lat="45.069810100235166" lon="9.101994708515242"><ele>65.0</ele><time>2026-04-24T09:55:04.997Z</time></trkpt><trkpt lat="45.069670172376014" lon="9.101946523260029"><ele>65.0</ele><time>2026-04-24T09:55:05.997Z</time></trkpt><trkpt lat="45.069516263083415" lon="9.101869909770338"><ele>65.0</ele><time>2026-04-24T09:55:06.997Z</time></trkpt><trkpt lat="45.06935607623801" lon="9.101810652246163"><ele>65.0</ele><time>2026-04-24T09:55:07.997Z</time></trkpt><trkpt lat="45.06918870655048" lon="9.101706793721673"><ele>65.0</ele><time>2026-04-24T09:55:08.997Z</time></trkpt><trkpt lat="45.069018531697886" lon="9.101622050339888"><ele>65.0</ele><time>2026-04-24T09:55:09.997Z</time></trkpt><trkpt lat="45.06882737343566" lon="9.101526857659081"><ele>65.66666666666667</ele><time>2026-04-24T09:55:10.997Z</time></trkpt><trkpt lat="45.068640152574616" lon="9.10143362572469"><ele>66.33333333333333</ele><time>2026-04-24T09:55:11.997Z</time></trkpt><trkpt lat="45.0684386285848" lon="9.101333271142071"><ele>67.0</ele><time>2026-04-24T09:55:13.001Z</time></trkpt><trkpt lat="45.0682331592206" lon="9.101230951855772"><ele>67.33333333333333</ele><time>2026-04-24T09:55:14.001Z</time></trkpt><trkpt lat="45.068038319562675" lon="9.101133145779173"><ele>67.66666666666667</ele><time>2026-04-24T09:55:15.001Z</time></trkpt><trkpt lat="45.067834430261584" lon="9.101029854898803"><ele>68.0</ele><time>2026-04-24T09:55:16.001Z</time></trkpt><trkpt lat="45.06763269798986" lon="9.100927656770326"><ele>67.0</ele><time>2026-04-24T09:55:17.001Z</time></trkpt><trkpt lat="45.06742624366188" lon="9.100820951992905"><ele>66.0</ele><time>2026-04-24T09:55:18.001Z</time></trkpt><trkpt lat="45.06722825575578" lon="9.100710828982127"><ele>65.0</ele><time>2026-04-24T09:55:19.001Z</time></trkpt><trkpt lat="45.06702593706085" lon="9.10058705918121"><ele>65.0</ele><time>2026-04-24T09:55:20.001Z</time></trkpt><trkpt lat="45.0668271208706" lon="9.100458436033518"><ele>65.0</ele><time>2026-04-24T09:55:21.001Z</time></trkpt><trkpt lat="45.066640219407525" lon="9.10032075301399"><ele>65.0</ele><time>2026-04-24T09:55:22.001Z</time></trkpt><trkpt lat="45.06645606280262" lon="9.100177394216969"><ele>64.66666666666667</ele><time>2026-04-24T09:55:23.001Z</time></trkpt><trkpt lat="45.06628373931375" lon="9.10004060127181"><ele>64.33333333333333</ele><time>2026-04-24T09:55:24.001Z</time></trkpt><trkpt lat="45.0660959636996" lon="9.099889687022904"><ele>64.0</ele><time>2026-04-24T09:55:25.001Z</time></trkpt><trkpt lat="45.06590858506302" lon="9.099736757846706"><ele>64.33333333333333</ele><time>2026-04-24T09:55:26.001Z</time></trkpt><trkpt lat="45.06572253989962" lon="9.099584856310855"><ele>64.66666666666667</ele><time>2026-04-24T09:55:27.001Z</time></trkpt><trkpt lat="45.06552942865689" lon="9.099426204526793"><ele>65.0</ele><time>2026-04-24T09:55:28.001Z</time></trkpt><trkpt lat="45.06532581037312" lon="9.099278961635918"><ele>65.0</ele><time>2026-04-24T09:55:29.001Z</time></trkpt><trkpt lat="45.06514026730374" lon="9.099104855258817"><ele>65.0</ele><time>2026-04-24T09:55:30.001Z</time></trkpt><trkpt lat="45.064937135343" lon="9.098937119280844"><ele>65.5</ele><time>2026-04-24T09:55:31.001Z</time></trkpt><trkpt lat="45.06473721780759" lon="9.098773992441094"><ele>66.0</ele><time>2026-04-24T09:55:32Z</time></trkpt><trkpt lat="45.06452966381731" lon="9.098605894606461"><ele>66.0</ele><time>2026-04-24T09:55:33Z</time></trkpt><trkpt lat="45.06432771942518" lon="9.098442339982459"><ele>66.0</ele><time>2026-04-24T09:55:34Z</time></trkpt><trkpt lat="45.06411729332499" lon="9.09827464349648"><ele>66.5</ele><time>2026-04-24T09:55:35Z</time></trkpt><trkpt lat="45.063913257303945" lon="9.098137531346003"><ele>67.0</ele><time>2026-04-24T09:55:36Z</time></trkpt><trkpt lat="45.06371318880373" lon="9.097976322503106"><ele>67.0</ele><time>2026-04-24T09:55:37Z</time></trkpt><trkpt lat="45.063513371429934" lon="9.097824609279842"><ele>67.0</ele><time>2026-04-24T09:55:38Z</time></trkpt><trkpt lat="45.06330447801371" lon="9.09770015579807"><ele>67.0</ele><time>2026-04-24T09:55:39Z</time></trkpt><trkpt lat="45.06309218315129" lon="9.097594892225974"><ele>67.0</ele><time>2026-04-24T09:55:40Z</time></trkpt><trkpt lat="45.06286132450642" lon="9.097498926773623"><ele>67.0</ele><time>2026-04-24T09:55:41Z</time></trkpt><trkpt lat="45.06261460746709" lon="9.09739466447546"><ele>67.0</ele><time>2026-04-24T09:55:42Z</time></trkpt><trkpt lat="45.062384759586514" lon="9.097272672246865"><ele>67.0</ele><time>2026-04-24T09:55:43Z</time></trkpt><trkpt lat="45.06215743229013" lon="9.097163477515883"><ele>67.0</ele><time>2026-04-24T09:55:44Z</time></trkpt><trkpt lat="45.06192829944414" lon="9.097053415469635"><ele>67.0</ele><time>2026-04-24T09:55:45Z</time></trkpt><trkpt lat="45.061702519291465" lon="9.09694496385438"><ele>67.0</ele><time>2026-04-24T09:55:46Z</time></trkpt><trkpt lat="45.061498411568174" lon="9.096846922542564"><ele>67.0</ele><time>2026-04-24T09:55:47Z</time></trkpt><trkpt lat="45.06128478209395" lon="9.096744307366718"><ele>67.0</ele><time>2026-04-24T09:55:48Z</time></trkpt><trkpt lat="45.06107939620988" lon="9.0966455751586"><ele>67.0</ele><time>2026-04-24T09:55:49Z</time></trkpt><trkpt lat="45.06086593439005" lon="9.096542373396687"><ele>67.0</ele><time>2026-04-24T09:55:50Z</time></trkpt><trkpt lat="45.06066139101869" lon="9.096443483302046"><ele>67.0</ele><time>2026-04-24T09:55:51Z</time></trkpt><trkpt lat="45.060432438949434" lon="9.09633279258211"><ele>67.0</ele><time>2026-04-24T09:55:52Z</time></trkpt><trkpt lat="45.06019379330754" lon="9.096217415143276"><ele>67.0</ele><time>2026-04-24T09:55:53Z</time></trkpt><trkpt lat="45.059990955441634" lon="9.096119351412144"><ele>66.66666666666666</ele><time>2026-04-24T09:55:54Z</time></trkpt><trkpt lat="45.05977863861995" lon="9.096016908118147"><ele>66.33333333333333</ele><time>2026-04-24T09:55:55Z</time></trkpt><trkpt lat="45.0595749270297" lon="9.095918749455773"><ele>66.0</ele><time>2026-04-24T09:55:56Z</time></trkpt><trkpt lat="45.05936880942434" lon="9.095819431447941"><ele>66.0</ele><time>2026-04-24T09:55:57Z</time></trkpt><trkpt lat="45.05915584276224" lon="9.09571681317754"><ele>66.0</ele><time>2026-04-24T09:55:58Z</time></trkpt><trkpt lat="45.05894206900509" lon="9.095613805996573"><ele>66.5</ele><time>2026-04-24T09:55:59Z</time></trkpt><trkpt lat="45.05870980849424" lon="9.095500957205427"><ele>67.0</ele><time>2026-04-24T09:56:00Z</time></trkpt><trkpt lat="45.058485396797465" lon="9.095391538512654"><ele>66.66666666666666</ele><time>2026-04-24T09:56:01Z</time></trkpt><trkpt lat="45.058261930838775" lon="9.0953293472435"><ele>66.33333333333333</ele><time>2026-04-24T09:56:02Z</time></trkpt><trkpt lat="45.05806227467504" lon="9.095239081071133"><ele>66.0</ele><time>2026-04-24T09:56:03Z</time></trkpt><trkpt lat="45.05786305346585" lon="9.095178604258365"><ele>66.0</ele><time>2026-04-24T09:56:04Z</time></trkpt><trkpt lat="45.05767589633293" lon="9.095111839917024"><ele>66.0</ele><time>2026-04-24T09:56:05Z</time></trkpt><trkpt lat="45.05749296530814" lon="9.095017941677778"><ele>66.0</ele><time>2026-04-24T09:56:06Z</time></trkpt><trkpt lat="45.05729914586514" lon="9.094820747980831"><ele>66.5</ele><time>2026-04-24T09:56:07Z</time></trkpt><trkpt lat="45.05708433953079" lon="9.094717994654822"><ele>67.0</ele><time>2026-04-24T09:56:08Z</time></trkpt><trkpt lat="45.05687264530929" lon="9.09461672946676"><ele>67.0</ele><time>2026-04-24T09:56:09Z</time></trkpt><trkpt lat="45.056679475255585" lon="9.094524326518517"><ele>67.0</ele><time>2026-04-24T09:56:10Z</time></trkpt><trkpt lat="45.056489785433406" lon="9.094433190176854"><ele>67.0</ele><time>2026-04-24T09:56:11Z</time></trkpt><trkpt lat="45.056284467966215" lon="9.094333766377005"><ele>67.0</ele><time>2026-04-24T09:56:12Z</time></trkpt><trkpt lat="45.056090332577966" lon="9.09423975666599"><ele>67.0</ele><time>2026-04-24T09:56:13Z</time></trkpt><trkpt lat="45.055894906365644" lon="9.094145122477682"><ele>67.0</ele><time>2026-04-24T09:56:14Z</time></trkpt><trkpt lat="45.055689411080735" lon="9.094045612155364"><ele>67.0</ele><time>2026-04-24T09:56:15Z</time></trkpt><trkpt lat="45.05548596229587" lon="9.093947102328267"><ele>67.0</ele><time>2026-04-24T09:56:16Z</time></trkpt><trkpt lat="45.055280196896454" lon="9.093847475422884"><ele>67.0</ele><time>2026-04-24T09:56:17Z</time></trkpt><trkpt lat="45.05508808830428" lon="9.093754463247041"><ele>67.33333333333333</ele><time>2026-04-24T09:56:18Z</time></trkpt><trkpt lat="45.054895480758326" lon="9.093661515173105"><ele>67.66666666666667</ele><time>2026-04-24T09:56:19Z</time></trkpt><trkpt lat="45.05470649392841" lon="9.093571778264813"><ele>68.0</ele><time>2026-04-24T09:56:20Z</time></trkpt><trkpt lat="45.05452725284027" lon="9.093486669028996"><ele>68.0</ele><time>2026-04-24T09:56:21Z</time></trkpt><trkpt lat="45.05431862843678" lon="9.093387607547644"><ele>68.0</ele><time>2026-04-24T09:56:22Z</time></trkpt><trkpt lat="45.05409815010817" lon="9.093282917522421"><ele>68.0</ele><time>2026-04-24T09:56:23Z</time></trkpt><trkpt lat="45.05389995221697" lon="9.093188806967058"><ele>68.0</ele><time>2026-04-24T09:56:24Z</time></trkpt><trkpt lat="45.053695310167136" lon="9.09309163648108"><ele>68.0</ele><time>2026-04-24T09:56:25Z</time></trkpt><trkpt lat="45.05348961481197" lon="9.092993400624003"><ele>68.0</ele><time>2026-04-24T09:56:26Z</time></trkpt><trkpt lat="45.05329073817818" lon="9.092897698478739"><ele>68.0</ele><time>2026-04-24T09:56:27Z</time></trkpt><trkpt lat="45.05309479771909" lon="9.092803409319982"><ele>68.0</ele><time>2026-04-24T09:56:28Z</time></trkpt><trkpt lat="45.05290573981277" lon="9.092712432115729"><ele>68.0</ele><time>2026-04-24T09:56:29Z</time></trkpt><trkpt lat="45.05271243021104" lon="9.092619542161039"><ele>68.0</ele><time>2026-04-24T09:56:30Z</time></trkpt><trkpt lat="45.052513244368846" lon="9.09252417691896"><ele>68.0</ele><time>2026-04-24T09:56:31Z</time></trkpt><trkpt lat="45.05229320032289" lon="9.092418825192201"><ele>68.0</ele><time>2026-04-24T09:56:32Z</time></trkpt><trkpt lat="45.052103980112435" lon="9.092328526930574"><ele>68.0</ele><time>2026-04-24T09:56:33Z</time></trkpt><trkpt lat="45.05190973854661" lon="9.092236219198398"><ele>68.0</ele><time>2026-04-24T09:56:34Z</time></trkpt><trkpt lat="45.05171237095934" lon="9.09214242593838"><ele>68.0</ele><time>2026-04-24T09:56:35Z</time></trkpt><trkpt lat="45.05151979674871" lon="9.092050910595043"><ele>68.0</ele><time>2026-04-24T09:56:36Z</time></trkpt><trkpt lat="45.051326121721196" lon="9.091958872018745"><ele>68.0</ele><time>2026-04-24T09:56:37Z</time></trkpt><trkpt lat="45.05112208778989" lon="9.091861145989665"><ele>68.0</ele><time>2026-04-24T09:56:38Z</time></trkpt><trkpt lat="45.0509154415032" lon="9.09176183158476"><ele>68.0</ele><time>2026-04-24T09:56:39Z</time></trkpt><trkpt lat="45.05072511292144" lon="9.09167035940129"><ele>68.0</ele><time>2026-04-24T09:56:40Z</time></trkpt><trkpt lat="45.05052252469573" lon="9.09157299529165"><ele>68.33333333333334</ele><time>2026-04-24T09:56:41Z</time></trkpt><trkpt lat="45.050335087594235" lon="9.091482912832072"><ele>68.66666666666667</ele><time>2026-04-24T09:56:42Z</time></trkpt><trkpt lat="45.05014878895813" lon="9.091394108042916"><ele>69.0</ele><time>2026-04-24T09:56:43Z</time></trkpt><trkpt lat="45.049958627385344" lon="9.091303075725246"><ele>69.0</ele><time>2026-04-24T09:56:44Z</time></trkpt><trkpt lat="45.04977433507383" lon="9.091214885205552"><ele>69.0</ele><time>2026-04-24T09:56:45Z</time></trkpt><trkpt lat="45.04958381198071" lon="9.09112400103338"><ele>69.0</ele><time>2026-04-24T09:56:46Z</time></trkpt><trkpt lat="45.049392038379075" lon="9.091032520398317"><ele>69.0</ele><time>2026-04-24T09:56:47Z</time></trkpt><trkpt lat="45.049215033180424" lon="9.09094808462672"><ele>69.0</ele><time>2026-04-24T09:56:48Z</time></trkpt><trkpt lat="45.04902714265919" lon="9.090858456361355"><ele>69.0</ele><time>2026-04-24T09:56:49Z</time></trkpt><trkpt lat="45.04880606249999" lon="9.09075283819026"><ele>68.66666666666667</ele><time>2026-04-24T09:56:50Z</time></trkpt><trkpt lat="45.0486068294292" lon="9.090656429310108"><ele>68.33333333333334</ele><time>2026-04-24T09:56:51Z</time></trkpt><trkpt lat="45.04841373098239" lon="9.090562988975178"><ele>68.0</ele><time>2026-04-24T09:56:52Z</time></trkpt><trkpt lat="45.048232896386445" lon="9.090475483225571"><ele>69.0</ele><time>2026-04-24T09:56:53Z</time></trkpt><trkpt lat="45.048063995267846" lon="9.090393752111044"><ele>70.0</ele><time>2026-04-24T09:56:54Z</time></trkpt><trkpt lat="45.0478531849974" lon="9.090291740959527"><ele>71.0</ele><time>2026-04-24T09:56:55Z</time></trkpt><trkpt lat="45.04767089454462" lon="9.090203529859666"><ele>71.0</ele><time>2026-04-24T09:56:56Z</time></trkpt><trkpt lat="45.04747769869841" lon="9.090110744242944"><ele>71.0</ele><time>2026-04-24T09:56:57Z</time></trkpt><trkpt lat="45.04727656763094" lon="9.090013998142803"><ele>71.0</ele><time>2026-04-24T09:56:58Z</time></trkpt><trkpt lat="45.047087546804335" lon="9.089923077300018"><ele>70.66666666666667</ele><time>2026-04-24T09:56:59Z</time></trkpt><trkpt lat="45.04689771004523" lon="9.089831763940548"><ele>70.33333333333333</ele><time>2026-04-24T09:57:00Z</time></trkpt><trkpt lat="45.0466940715297" lon="9.089733811701265"><ele>70.0</ele><time>2026-04-24T09:57:01Z</time></trkpt><trkpt lat="45.046507877347445" lon="9.08964425052629"><ele>70.0</ele><time>2026-04-24T09:57:02Z</time></trkpt><trkpt lat="45.046321641967744" lon="9.08955466926965"><ele>70.0</ele><time>2026-04-24T09:57:03Z</time></trkpt><trkpt lat="45.046129328652775" lon="9.089462164726635"><ele>70.0</ele><time>2026-04-24T09:57:04Z</time></trkpt><trkpt lat="45.04592840587525" lon="9.0893655188852"><ele>70.0</ele><time>2026-04-24T09:57:05Z</time></trkpt><trkpt lat="45.045744750731345" lon="9.089277179099616"><ele>70.0</ele><time>2026-04-24T09:57:06Z</time></trkpt><trkpt lat="45.04555661413876" lon="9.089186683107487"><ele>70.0</ele><time>2026-04-24T09:57:07Z</time></trkpt><trkpt lat="45.045362639665484" lon="9.089093379663911"><ele>69.66666666666666</ele><time>2026-04-24T09:57:08Z</time></trkpt><trkpt lat="45.04517446694672" lon="9.089002967730666"><ele>69.33333333333333</ele><time>2026-04-24T09:57:09Z</time></trkpt><trkpt lat="45.044989919933386" lon="9.088914929575353"><ele>69.0</ele><time>2026-04-24T09:57:10Z</time></trkpt><trkpt lat="45.04480643805706" lon="9.088827399451631"><ele>69.0</ele><time>2026-04-24T09:57:11Z</time></trkpt><trkpt lat="45.0446062153802" lon="9.088731883251196"><ele>69.0</ele><time>2026-04-24T09:57:11.999Z</time></trkpt><trkpt lat="45.044365636380135" lon="9.088828754293832"><ele>69.0</ele><time>2026-04-24T09:57:12.999Z</time></trkpt><trkpt lat="45.04416781455057" lon="9.088742974417364"><ele>69.0</ele><time>2026-04-24T09:57:13.999Z</time></trkpt><trkpt lat="45.043996558757534" lon="9.088590468025208"><ele>69.0</ele><time>2026-04-24T09:57:14.999Z</time></trkpt><trkpt lat="45.04386682885344" lon="9.088344411515916"><ele>69.33333333333333</ele><time>2026-04-24T09:57:15.999Z</time></trkpt><trkpt lat="45.04369620494128" lon="9.088240615012726"><ele>69.66666666666666</ele><time>2026-04-24T09:57:16.999Z</time></trkpt><trkpt lat="45.0435248247239" lon="9.088128179605949"><ele>70.0</ele><time>2026-04-24T09:57:17.999Z</time></trkpt><trkpt lat="45.0433510135494" lon="9.088008592367427"><ele>69.66666666666666</ele><time>2026-04-24T09:57:18.999Z</time></trkpt><trkpt lat="45.043174436305186" lon="9.087878175562865"><ele>69.33333333333333</ele><time>2026-04-24T09:57:19.999Z</time></trkpt><trkpt lat="45.04300311842293" lon="9.087739696346063"><ele>69.0</ele><time>2026-04-24T09:57:20.999Z</time></trkpt><trkpt lat="45.04282250286236" lon="9.087585327800966"><ele>69.0</ele><time>2026-04-24T09:57:21.999Z</time></trkpt><trkpt lat="45.04265144752663" lon="9.087431961008265"><ele>69.0</ele><time>2026-04-24T09:57:22.999Z</time></trkpt><trkpt lat="45.04247697746536" lon="9.087272720041094"><ele>69.0</ele><time>2026-04-24T09:57:23.999Z</time></trkpt><trkpt lat="45.042307716282764" lon="9.08712038140065"><ele>69.66666666666667</ele><time>2026-04-24T09:57:24.999Z</time></trkpt><trkpt lat="45.04215011489612" lon="9.086978536788735"><ele>70.33333333333334</ele><time>2026-04-24T09:57:25.999Z</time></trkpt><trkpt lat="45.04198444195995" lon="9.086829427673983"><ele>71.0</ele><time>2026-04-24T09:57:26.999Z</time></trkpt><trkpt lat="45.04182269448779" lon="9.086683851503759"><ele>71.0</ele><time>2026-04-24T09:57:27.999Z</time></trkpt><trkpt lat="45.04166383038724" lon="9.086540870546973"><ele>71.0</ele><time>2026-04-24T09:57:28.999Z</time></trkpt><trkpt lat="45.04149728904095" lon="9.086390979742195"><ele>71.0</ele><time>2026-04-24T09:57:29.999Z</time></trkpt><trkpt lat="45.04133168778564" lon="9.086242024895222"><ele>72.0</ele><time>2026-04-24T09:57:30.999Z</time></trkpt><trkpt lat="45.041162279719984" lon="9.086089673785679"><ele>73.0</ele><time>2026-04-24T09:57:31.999Z</time></trkpt><trkpt lat="45.04098877007252" lon="9.085933633989173"><ele>74.0</ele><time>2026-04-24T09:57:32.999Z</time></trkpt><trkpt lat="45.040819805428576" lon="9.085781681673993"><ele>72.5</ele><time>2026-04-24T09:57:33.999Z</time></trkpt><trkpt lat="45.040638524396506" lon="9.085618508167109"><ele>71.0</ele><time>2026-04-24T09:57:34.999Z</time></trkpt><trkpt lat="45.04043903256202" lon="9.085438628858078"><ele>71.0</ele><time>2026-04-24T09:57:35.999Z</time></trkpt><trkpt lat="45.04026232047853" lon="9.085279289878839"><ele>71.0</ele><time>2026-04-24T09:57:36.999Z</time></trkpt><trkpt lat="45.040088538315196" lon="9.085122592800706"><ele>71.0</ele><time>2026-04-24T09:57:37.999Z</time></trkpt><trkpt lat="45.03991767865495" lon="9.084968532553049"><ele>71.0</ele><time>2026-04-24T09:57:38.999Z</time></trkpt><trkpt lat="45.03974260161812" lon="9.084810667924232"><ele>71.0</ele><time>2026-04-24T09:57:39.999Z</time></trkpt><trkpt lat="45.039570256991816" lon="9.084655267012144"><ele>71.0</ele><time>2026-04-24T09:57:40.999Z</time></trkpt><trkpt lat="45.03940107754018" lon="9.084502720166546"><ele>71.0</ele><time>2026-04-24T09:57:41.999Z</time></trkpt><trkpt lat="45.039236104748" lon="9.084353966259084"><ele>71.0</ele><time>2026-04-24T09:57:42.999Z</time></trkpt><trkpt lat="45.03906698406023" lon="9.084201472301562"><ele>71.0</ele><time>2026-04-24T09:57:43.999Z</time></trkpt><trkpt lat="45.03889750501062" lon="9.08404865523538"><ele>71.33333333333334</ele><time>2026-04-24T09:57:44.999Z</time></trkpt><trkpt lat="45.038723936924676" lon="9.083892151186452"><ele>71.66666666666667</ele><time>2026-04-24T09:57:45.999Z</time></trkpt><trkpt lat="45.038548810921476" lon="9.083734627198355"><ele>72.0</ele><time>2026-04-24T09:57:46.999Z</time></trkpt><trkpt lat="45.03836596663536" lon="9.083569290978732"><ele>72.0</ele><time>2026-04-24T09:57:47.999Z</time></trkpt><trkpt lat="45.038156439822146" lon="9.083486243455518"><ele>72.0</ele><time>2026-04-24T09:57:48.999Z</time></trkpt><trkpt lat="45.03796525605985" lon="9.083331531767076"><ele>72.0</ele><time>2026-04-24T09:57:49.999Z</time></trkpt><trkpt lat="45.0377948499759" lon="9.083141839653956"><ele>72.0</ele><time>2026-04-24T09:57:50.999Z</time></trkpt><trkpt lat="45.037620086567564" lon="9.082992457530002"><ele>72.0</ele><time>2026-04-24T09:57:51.999Z</time></trkpt><trkpt lat="45.037477991596134" lon="9.082772648627227"><ele>72.0</ele><time>2026-04-24T09:57:52.999Z</time></trkpt><trkpt lat="45.037309810657284" lon="9.082621466711764"><ele>72.33333333333333</ele><time>2026-04-24T09:57:53.999Z</time></trkpt><trkpt lat="45.03714679744918" lon="9.082474930258467"><ele>72.66666666666666</ele><time>2026-04-24T09:57:54.999Z</time></trkpt><trkpt lat="45.03698214155576" lon="9.082327354054128"><ele>73.0</ele><time>2026-04-24T09:57:55.999Z</time></trkpt><trkpt lat="45.036819986253796" lon="9.082183839434565"><ele>73.0</ele><time>2026-04-24T09:57:56.999Z</time></trkpt><trkpt lat="45.036640208615296" lon="9.082027810720579"><ele>73.0</ele><time>2026-04-24T09:57:57.999Z</time></trkpt><trkpt lat="45.036475696317154" lon="9.081893618625193"><ele>73.0</ele><time>2026-04-24T09:57:58.999Z</time></trkpt><trkpt lat="45.03630732693717" lon="9.08176811723083"><ele>73.0</ele><time>2026-04-24T09:57:59.999Z</time></trkpt><trkpt lat="45.036128937481315" lon="9.08164550719654"><ele>73.0</ele><time>2026-04-24T09:58:00.999Z</time></trkpt><trkpt lat="45.03594602318418" lon="9.081534947052507"><ele>73.0</ele><time>2026-04-24T09:58:01.999Z</time></trkpt><trkpt lat="45.035762135414124" lon="9.081424764208096"><ele>73.0</ele><time>2026-04-24T09:58:02.999Z</time></trkpt><trkpt lat="45.03556241076948" lon="9.081306748554255"><ele>73.0</ele><time>2026-04-24T09:58:03.999Z</time></trkpt><trkpt lat="45.035374646865236" lon="9.08119608101664"><ele>73.0</ele><time>2026-04-24T09:58:04.999Z</time></trkpt><trkpt lat="45.035153275213325" lon="9.081144930885912"><ele>73.33333333333333</ele><time>2026-04-24T09:58:05.999Z</time></trkpt><trkpt lat="45.03496166121106" lon="9.081042231334676"><ele>73.66666666666667</ele><time>2026-04-24T09:58:06.999Z</time></trkpt><trkpt lat="45.034766830215055" lon="9.080932239527765"><ele>74.0</ele><time>2026-04-24T09:58:07.999Z</time></trkpt><trkpt lat="45.0346089182893" lon="9.080745221879942"><ele>74.0</ele><time>2026-04-24T09:58:08.999Z</time></trkpt><trkpt lat="45.03443200970835" lon="9.08064115719682"><ele>74.0</ele><time>2026-04-24T09:58:09.999Z</time></trkpt><trkpt lat="45.034256433825064" lon="9.080537265914566"><ele>74.0</ele><time>2026-04-24T09:58:10.999Z</time></trkpt><trkpt lat="45.03407985629152" lon="9.080432781671762"><ele>74.0</ele><time>2026-04-24T09:58:11.999Z</time></trkpt><trkpt lat="45.03390876744407" lon="9.08033154525503"><ele>74.0</ele><time>2026-04-24T09:58:12.999Z</time></trkpt><trkpt lat="45.03374040645513" lon="9.080231784694693"><ele>74.0</ele><time>2026-04-24T09:58:13.999Z</time></trkpt><trkpt lat="45.0335868720139" lon="9.080140252508482"><ele>74.0</ele><time>2026-04-24T09:58:14.999Z</time></trkpt><trkpt lat="45.033437389456196" lon="9.080051135824668"><ele>74.0</ele><time>2026-04-24T09:58:15.999Z</time></trkpt><trkpt lat="45.03330385119752" lon="9.079972897734631"><ele>74.0</ele><time>2026-04-24T09:58:16.999Z</time></trkpt><trkpt lat="45.03319236977243" lon="9.079881700618875"><ele>74.0</ele><time>2026-04-24T09:58:17.999Z</time></trkpt><trkpt lat="45.033084008966604" lon="9.079782221059205"><ele>74.0</ele><time>2026-04-24T09:58:18.999Z</time></trkpt><trkpt lat="45.03299064247317" lon="9.079690599052379"><ele>74.0</ele><time>2026-04-24T09:58:19.999Z</time></trkpt><trkpt lat="45.03292343852807" lon="9.079604851867783"><ele>74.0</ele><time>2026-04-24T09:58:20.999Z</time></trkpt><trkpt lat="45.03289104302347" lon="9.079407312124752"><ele>74.0</ele><time>2026-04-24T09:58:22.999Z</time></trkpt><trkpt lat="45.03285398676299" lon="9.079270758045094"><ele>74.0</ele><time>2026-04-24T09:58:23.999Z</time></trkpt><trkpt lat="45.032802426774815" lon="9.079167125748262"><ele>74.0</ele><time>2026-04-24T09:58:24.999Z</time></trkpt><trkpt lat="45.03271693508763" lon="9.079099200523595"><ele>74.0</ele><time>2026-04-24T09:58:25.999Z</time></trkpt><trkpt lat="45.03262098957211" lon="9.079076154093146"><ele>74.0</ele><time>2026-04-24T09:58:26.999Z</time></trkpt><trkpt lat="45.03251495201188" lon="9.07910790303458"><ele>74.0</ele><time>2026-04-24T09:58:27.999Z</time></trkpt><trkpt lat="45.03242110485098" lon="9.079213240023055"><ele>74.25</ele><time>2026-04-24T09:58:28.999Z</time></trkpt><trkpt lat="45.0322975878516" lon="9.07922428174249"><ele>74.5</ele><time>2026-04-24T09:58:29.999Z</time></trkpt><trkpt lat="45.032166493847384" lon="9.079225978663434"><ele>74.75</ele><time>2026-04-24T09:58:30.999Z</time></trkpt><trkpt lat="45.03203765606803" lon="9.07918849460597"><ele>75.0</ele><time>2026-04-24T09:58:31.999Z</time></trkpt><trkpt lat="45.031895754031744" lon="9.07913117095081"><ele>74.66666666666667</ele><time>2026-04-24T09:58:32.999Z</time></trkpt><trkpt lat="45.03173534329312" lon="9.079081703624253"><ele>74.33333333333334</ele><time>2026-04-24T09:58:33.999Z</time></trkpt><trkpt lat="45.03155821769647" lon="9.079055441890192"><ele>74.0</ele><time>2026-04-24T09:58:34.999Z</time></trkpt><trkpt lat="45.03139456459241" lon="9.079007227696055"><ele>74.66666666666667</ele><time>2026-04-24T09:58:35.999Z</time></trkpt><trkpt lat="45.03120977339894" lon="9.07896917445293"><ele>75.33333333333333</ele><time>2026-04-24T09:58:36.999Z</time></trkpt><trkpt lat="45.031035944704215" lon="9.078911670616032"><ele>76.0</ele><time>2026-04-24T09:58:37.999Z</time></trkpt><trkpt lat="45.03085395639268" lon="9.078863178429081"><ele>76.66666666666666</ele><time>2026-04-24T09:58:38.999Z</time></trkpt><trkpt lat="45.030672893587074" lon="9.078814932517192"><ele>77.33333333333333</ele><time>2026-04-24T09:58:39.999Z</time></trkpt><trkpt lat="45.03049449161972" lon="9.078766045449072"><ele>78.0</ele><time>2026-04-24T09:58:40.999Z</time></trkpt><trkpt lat="45.03029562521192" lon="9.078710878157649"><ele>78.0</ele><time>2026-04-24T09:58:41.999Z</time></trkpt><trkpt lat="45.0301066532121" lon="9.078657403334589"><ele>78.0</ele><time>2026-04-24T09:58:42.999Z</time></trkpt><trkpt lat="45.029930424040145" lon="9.07859805506139"><ele>78.0</ele><time>2026-04-24T09:58:43.999Z</time></trkpt><trkpt lat="45.02976984731388" lon="9.078542436693844"><ele>78.33333333333333</ele><time>2026-04-24T09:58:44.999Z</time></trkpt><trkpt lat="45.02960405910167" lon="9.078482026317541"><ele>78.66666666666666</ele><time>2026-04-24T09:58:45.999Z</time></trkpt><trkpt lat="45.029444641156026" lon="9.078423936984946"><ele>79.0</ele><time>2026-04-24T09:58:46.999Z</time></trkpt><trkpt lat="45.02926504992735" lon="9.078358497120139"><ele>77.66666666666666</ele><time>2026-04-24T09:58:47.999Z</time></trkpt><trkpt lat="45.02909904579245" lon="9.07829940908664"><ele>76.33333333333333</ele><time>2026-04-24T09:58:48.999Z</time></trkpt><trkpt lat="45.02890430323587" lon="9.07823052225964"><ele>75.0</ele><time>2026-04-24T09:58:49.999Z</time></trkpt><trkpt lat="45.028729961594046" lon="9.078166594284088"><ele>74.66666666666667</ele><time>2026-04-24T09:58:50.999Z</time></trkpt><trkpt lat="45.028547204378874" lon="9.078158055124334"><ele>74.33333333333334</ele><time>2026-04-24T09:58:51.999Z</time></trkpt><trkpt lat="45.028364678925165" lon="9.078097750981378"><ele>74.0</ele><time>2026-04-24T09:58:52.999Z</time></trkpt><trkpt lat="45.02818479559108" lon="9.078030673704529"><ele>74.66666666666667</ele><time>2026-04-24T09:58:53.999Z</time></trkpt><trkpt lat="45.02803182082193" lon="9.077951945824163"><ele>75.33333333333333</ele><time>2026-04-24T09:58:54.999Z</time></trkpt><trkpt lat="45.02785206577487" lon="9.077871520400787"><ele>76.0</ele><time>2026-04-24T09:58:55.999Z</time></trkpt><trkpt lat="45.02765920609082" lon="9.077823102444967"><ele>76.0</ele><time>2026-04-24T09:58:56.999Z</time></trkpt><trkpt lat="45.02747925394953" lon="9.077741569664026"><ele>76.0</ele><time>2026-04-24T09:58:57.999Z</time></trkpt><trkpt lat="45.02729689140686" lon="9.077721234640604"><ele>76.0</ele><time>2026-04-24T09:58:58.999Z</time></trkpt><trkpt lat="45.02708184102592" lon="9.077677330415074"><ele>76.0</ele><time>2026-04-24T09:58:59.999Z</time></trkpt><trkpt lat="45.02687067366152" lon="9.07766852239974"><ele>76.0</ele><time>2026-04-24T09:59:00.998Z</time></trkpt><trkpt lat="45.02667204894091" lon="9.077683899891023"><ele>76.0</ele><time>2026-04-24T09:59:01.998Z</time></trkpt><trkpt lat="45.026482078453434" lon="9.077685606303554"><ele>76.0</ele><time>2026-04-24T09:59:02.998Z</time></trkpt><trkpt lat="45.026279102225516" lon="9.077686333384156"><ele>76.0</ele><time>2026-04-24T09:59:03.998Z</time></trkpt><trkpt lat="45.026104484688936" lon="9.077684537140694"><ele>76.0</ele><time>2026-04-24T09:59:04.998Z</time></trkpt><trkpt lat="45.025912852849906" lon="9.077694115276309"><ele>76.0</ele><time>2026-04-24T09:59:05.998Z</time></trkpt><trkpt lat="45.0257192017381" lon="9.077676783611466"><ele>76.0</ele><time>2026-04-24T09:59:06.998Z</time></trkpt><trkpt lat="45.02551920081494" lon="9.07767950993252"><ele>76.0</ele><time>2026-04-24T09:59:07.998Z</time></trkpt><trkpt lat="45.025337964169545" lon="9.077605495627205"><ele>76.0</ele><time>2026-04-24T09:59:08.998Z</time></trkpt><trkpt lat="45.02515684310635" lon="9.07754108323209"><ele>76.0</ele><time>2026-04-24T09:59:09.998Z</time></trkpt><trkpt lat="45.024983894915586" lon="9.077477645586423"><ele>76.0</ele><time>2026-04-24T09:59:10.998Z</time></trkpt><trkpt lat="45.02480387347002" lon="9.077409102294299"><ele>76.0</ele><time>2026-04-24T09:59:11.998Z</time></trkpt><trkpt lat="45.02463048165191" lon="9.077345337143587"><ele>76.0</ele><time>2026-04-24T09:59:12.998Z</time></trkpt><trkpt lat="45.02446534511322" lon="9.077286620731204"><ele>76.0</ele><time>2026-04-24T09:59:13.998Z</time></trkpt><trkpt lat="45.024284508760765" lon="9.077240291499235"><ele>75.66666666666666</ele><time>2026-04-24T09:59:14.998Z</time></trkpt><trkpt lat="45.02410883001361" lon="9.077172896557524"><ele>75.33333333333333</ele><time>2026-04-24T09:59:15.998Z</time></trkpt><trkpt lat="45.02392299559005" lon="9.077107246669115"><ele>75.0</ele><time>2026-04-24T09:59:16.998Z</time></trkpt><trkpt lat="45.02371331118503" lon="9.077046531644564"><ele>75.0</ele><time>2026-04-24T09:59:17.998Z</time></trkpt><trkpt lat="45.02351468316733" lon="9.077009359991354"><ele>75.0</ele><time>2026-04-24T09:59:18.998Z</time></trkpt><trkpt lat="45.02332026797762" lon="9.07701796355551"><ele>75.0</ele><time>2026-04-24T09:59:19.998Z</time></trkpt><trkpt lat="45.02312792255852" lon="9.077006130619894"><ele>75.33333333333333</ele><time>2026-04-24T09:59:20.998Z</time></trkpt><trkpt lat="45.02294568678037" lon="9.077011772744715"><ele>75.66666666666666</ele><time>2026-04-24T09:59:21.998Z</time></trkpt><trkpt lat="45.02276031610586" lon="9.07698963458979"><ele>76.0</ele><time>2026-04-24T09:59:22.998Z</time></trkpt><trkpt lat="45.022565338182524" lon="9.076991722858248"><ele>76.0</ele><time>2026-04-24T09:59:23.998Z</time></trkpt><trkpt lat="45.022373435097265" lon="9.076985252444402"><ele>76.0</ele><time>2026-04-24T09:59:24.998Z</time></trkpt><trkpt lat="45.0221542604657" lon="9.076919367068628"><ele>76.0</ele><time>2026-04-24T09:59:25.998Z</time></trkpt><trkpt lat="45.02194759817041" lon="9.076868421703397"><ele>76.0</ele><time>2026-04-24T09:59:26.998Z</time></trkpt><trkpt lat="45.021745326831436" lon="9.07685744029076"><ele>76.0</ele><time>2026-04-24T09:59:27.998Z</time></trkpt><trkpt lat="45.02153717695371" lon="9.076854136127485"><ele>76.0</ele><time>2026-04-24T09:59:28.998Z</time></trkpt><trkpt lat="45.02133067843933" lon="9.076832403879125"><ele>76.66666666666666</ele><time>2026-04-24T09:59:29.998Z</time></trkpt><trkpt lat="45.02112259163835" lon="9.076771376461409"><ele>77.33333333333333</ele><time>2026-04-24T09:59:30.998Z</time></trkpt><trkpt lat="45.020911030579725" lon="9.076726208450934"><ele>78.0</ele><time>2026-04-24T09:59:31.998Z</time></trkpt><trkpt lat="45.02070152401617" lon="9.076643940424198"><ele>78.0</ele><time>2026-04-24T09:59:32.998Z</time></trkpt><trkpt lat="45.02050308150519" lon="9.076582835853939"><ele>78.0</ele><time>2026-04-24T09:59:33.998Z</time></trkpt><trkpt lat="45.02029354869258" lon="9.076516336547735"><ele>78.0</ele><time>2026-04-24T09:59:34.998Z</time></trkpt><trkpt lat="45.02009301582932" lon="9.07645269347527"><ele>77.66666666666667</ele><time>2026-04-24T09:59:35.998Z</time></trkpt><trkpt lat="45.01989766459104" lon="9.076390011148922"><ele>77.33333333333334</ele><time>2026-04-24T09:59:36.998Z</time></trkpt><trkpt lat="45.01968480597651" lon="9.0763212108758"><ele>77.0</ele><time>2026-04-24T09:59:37.998Z</time></trkpt><trkpt lat="45.01948369881151" lon="9.07625620898992"><ele>77.0</ele><time>2026-04-24T09:59:38.998Z</time></trkpt><trkpt lat="45.01928215987457" lon="9.07619106756847"><ele>77.0</ele><time>2026-04-24T09:59:39.998Z</time></trkpt><trkpt lat="45.01907668049869" lon="9.07612490911256"><ele>77.0</ele><time>2026-04-24T09:59:40.998Z</time></trkpt><trkpt lat="45.01887892734265" lon="9.076059965490254"><ele>76.66666666666667</ele><time>2026-04-24T09:59:41.998Z</time></trkpt><trkpt lat="45.01868007251077" lon="9.075994660068364"><ele>76.33333333333333</ele><time>2026-04-24T09:59:42.998Z</time></trkpt><trkpt lat="45.018485246766815" lon="9.075930700430797"><ele>76.0</ele><time>2026-04-24T09:59:43.998Z</time></trkpt><trkpt lat="45.01827558526799" lon="9.075862551936133"><ele>76.66666666666666</ele><time>2026-04-24T09:59:44.998Z</time></trkpt><trkpt lat="45.018067718235066" lon="9.075795775200639"><ele>77.33333333333333</ele><time>2026-04-24T09:59:45.998Z</time></trkpt><trkpt lat="45.01786048092991" lon="9.075731091910287"><ele>78.0</ele><time>2026-04-24T09:59:46.998Z</time></trkpt><trkpt lat="45.017656514831565" lon="9.075667429560061"><ele>78.33333333333333</ele><time>2026-04-24T09:59:47.998Z</time></trkpt><trkpt lat="45.01744381152582" lon="9.075601479278316"><ele>78.66666666666666</ele><time>2026-04-24T09:59:48.998Z</time></trkpt><trkpt lat="45.017239625686884" lon="9.075538772852585"><ele>79.0</ele><time>2026-04-24T09:59:49.998Z</time></trkpt><trkpt lat="45.017037892946334" lon="9.075476818140844"><ele>79.0</ele><time>2026-04-24T09:59:50.998Z</time></trkpt><trkpt lat="45.01683532815463" lon="9.075418265602535"><ele>79.0</ele><time>2026-04-24T09:59:51.998Z</time></trkpt><trkpt lat="45.01663471479418" lon="9.07536134665588"><ele>79.0</ele><time>2026-04-24T09:59:52.998Z</time></trkpt><trkpt lat="45.016439312809844" lon="9.075306491354674"><ele>78.66666666666666</ele><time>2026-04-24T09:59:53.998Z</time></trkpt><trkpt lat="45.016240182142724" lon="9.075251267149762"><ele>78.33333333333333</ele><time>2026-04-24T09:59:54.998Z</time></trkpt><trkpt lat="45.01603088427878" lon="9.075193223269979"><ele>78.0</ele><time>2026-04-24T09:59:55.998Z</time></trkpt><trkpt lat="45.015830828203725" lon="9.075142604045022"><ele>78.0</ele><time>2026-04-24T09:59:56.998Z</time></trkpt><trkpt lat="45.01562615433602" lon="9.075080982959063"><ele>78.0</ele><time>2026-04-24T09:59:57.998Z</time></trkpt><trkpt lat="45.0154189705744" lon="9.075017812861738"><ele>78.0</ele><time>2026-04-24T09:59:58.998Z</time></trkpt><trkpt lat="45.01526127519982" lon="9.07496821365618"><ele>78.33333333333333</ele><time>2026-04-24T09:59:59.998Z</time></trkpt><trkpt lat="45.015042323418996" lon="9.07491796932255"><ele>78.66666666666666</ele><time>2026-04-24T10:00:00.998Z</time></trkpt><trkpt lat="45.01482406490275" lon="9.074849840517855"><ele>79.0</ele><time>2026-04-24T10:00:01.998Z</time></trkpt><trkpt lat="45.014612086885066" lon="9.074785847076686"><ele>79.0</ele><time>2026-04-24T10:00:02.998Z</time></trkpt><trkpt lat="45.014400555459254" lon="9.07471880026223"><ele>79.0</ele><time>2026-04-24T10:00:03.998Z</time></trkpt><trkpt lat="45.01419560756449" lon="9.074651491028744"><ele>79.0</ele><time>2026-04-24T10:00:04.998Z</time></trkpt><trkpt lat="45.013998867861986" lon="9.074604572049484"><ele>79.0</ele><time>2026-04-24T10:00:05.998Z</time></trkpt><trkpt lat="45.01380032664841" lon="9.07454928739328"><ele>79.0</ele><time>2026-04-24T10:00:06.998Z</time></trkpt><trkpt lat="45.01357251060477" lon="9.074520727572907"><ele>79.0</ele><time>2026-04-24T10:00:07.998Z</time></trkpt><trkpt lat="45.013361825185285" lon="9.074464823357694"><ele>79.33333333333333</ele><time>2026-04-24T10:00:08.998Z</time></trkpt><trkpt lat="45.013142324140304" lon="9.074383367675468"><ele>79.66666666666667</ele><time>2026-04-24T10:00:09.998Z</time></trkpt><trkpt lat="45.01293586171188" lon="9.074321924944634"><ele>80.0</ele><time>2026-04-24T10:00:10.998Z</time></trkpt><trkpt lat="45.01272597540064" lon="9.074288808077544"><ele>80.0</ele><time>2026-04-24T10:00:11.998Z</time></trkpt><trkpt lat="45.01252484752702" lon="9.074209963565215"><ele>80.0</ele><time>2026-04-24T10:00:12.998Z</time></trkpt><trkpt lat="45.01233086229816" lon="9.074165814568113"><ele>80.0</ele><time>2026-04-24T10:00:13.998Z</time></trkpt><trkpt lat="45.01212522785098" lon="9.074096747496474"><ele>80.33333333333334</ele><time>2026-04-24T10:00:14.998Z</time></trkpt><trkpt lat="45.011940843183616" lon="9.074032874074888"><ele>80.66666666666667</ele><time>2026-04-24T10:00:15.998Z</time></trkpt><trkpt lat="45.01172405651438" lon="9.073986109919229"><ele>81.0</ele><time>2026-04-24T10:00:16.998Z</time></trkpt><trkpt lat="45.011509106806386" lon="9.073946687901419"><ele>81.0</ele><time>2026-04-24T10:00:17.998Z</time></trkpt><trkpt lat="45.01128521711203" lon="9.07393604554606"><ele>81.0</ele><time>2026-04-24T10:00:18.998Z</time></trkpt><trkpt lat="45.011091674331226" lon="9.073791608477178"><ele>81.0</ele><time>2026-04-24T10:00:19.998Z</time></trkpt><trkpt lat="45.01089851393315" lon="9.073736572866201"><ele>81.0</ele><time>2026-04-24T10:00:20.998Z</time></trkpt><trkpt lat="45.01070289149051" lon="9.073680833877228"><ele>81.0</ele><time>2026-04-24T10:00:21.998Z</time></trkpt><trkpt lat="45.01051007907631" lon="9.073624102459014"><ele>81.0</ele><time>2026-04-24T10:00:22.998Z</time></trkpt><trkpt lat="45.01032880900322" lon="9.073568621781659"><ele>81.0</ele><time>2026-04-24T10:00:23.998Z</time></trkpt><trkpt lat="45.01013314218277" lon="9.073504498724088"><ele>81.0</ele><time>2026-04-24T10:00:24.998Z</time></trkpt><trkpt lat="45.00994806704656" lon="9.073425778698944"><ele>81.0</ele><time>2026-04-24T10:00:25.998Z</time></trkpt><trkpt lat="45.009763683108595" lon="9.073320971463412"><ele>80.66666666666667</ele><time>2026-04-24T10:00:26.998Z</time></trkpt><trkpt lat="45.00958304572114" lon="9.073222733000382"><ele>80.33333333333334</ele><time>2026-04-24T10:00:27.998Z</time></trkpt><trkpt lat="45.00939650098554" lon="9.07312128190927"><ele>80.0</ele><time>2026-04-24T10:00:28.998Z</time></trkpt><trkpt lat="45.0092150003501" lon="9.073021754077075"><ele>80.33333333333334</ele><time>2026-04-24T10:00:29.998Z</time></trkpt><trkpt lat="45.00903224252461" lon="9.072910441591898"><ele>80.66666666666667</ele><time>2026-04-24T10:00:30.998Z</time></trkpt><trkpt lat="45.00886895305829" lon="9.072802443799844"><ele>81.0</ele><time>2026-04-24T10:00:31.998Z</time></trkpt><trkpt lat="45.00871058508657" lon="9.072678355533284"><ele>81.0</ele><time>2026-04-24T10:00:32.998Z</time></trkpt><trkpt lat="45.008570696250636" lon="9.0725393762398"><ele>81.0</ele><time>2026-04-24T10:00:33.998Z</time></trkpt><trkpt lat="45.00843946376254" lon="9.072376141775461"><ele>81.0</ele><time>2026-04-24T10:00:34.998Z</time></trkpt><trkpt lat="45.00830012088785" lon="9.072177729282645"><ele>81.33333333333333</ele><time>2026-04-24T10:00:35.998Z</time></trkpt><trkpt lat="45.008152394756216" lon="9.071973072573709"><ele>81.66666666666666</ele><time>2026-04-24T10:00:36.998Z</time></trkpt><trkpt lat="45.00801169003566" lon="9.07177814309851"><ele>82.0</ele><time>2026-04-24T10:00:37.998Z</time></trkpt><trkpt lat="45.0078697296016" lon="9.071579800246502"><ele>82.0</ele><time>2026-04-24T10:00:38.998Z</time></trkpt><trkpt lat="45.00773113074522" lon="9.071386134045794"><ele>82.0</ele><time>2026-04-24T10:00:39.998Z</time></trkpt><trkpt lat="45.00759002645632" lon="9.071188016497223"><ele>82.0</ele><time>2026-04-24T10:00:40.998Z</time></trkpt><trkpt lat="45.00744478350071" lon="9.070985942005052"><ele>82.0</ele><time>2026-04-24T10:00:41.998Z</time></trkpt><trkpt lat="45.00729177023152" lon="9.070780037414394"><ele>82.0</ele><time>2026-04-24T10:00:42.998Z</time></trkpt><trkpt lat="45.00713211134018" lon="9.070588044058088"><ele>82.0</ele><time>2026-04-24T10:00:43.998Z</time></trkpt><trkpt lat="45.00696546827546" lon="9.070414261009796"><ele>81.66666666666666</ele><time>2026-04-24T10:00:44.998Z</time></trkpt><trkpt lat="45.00681637532873" lon="9.070241451593345"><ele>81.33333333333333</ele><time>2026-04-24T10:00:45.998Z</time></trkpt><trkpt lat="45.00662530966605" lon="9.07009632978706"><ele>81.0</ele><time>2026-04-24T10:00:46.998Z</time></trkpt><trkpt lat="45.006418576418106" lon="9.069983672351611"><ele>81.66666666666667</ele><time>2026-04-24T10:00:47.998Z</time></trkpt><trkpt lat="45.0062106149356" lon="9.069899714937165"><ele>82.33333333333334</ele><time>2026-04-24T10:00:48.998Z</time></trkpt><trkpt lat="45.006000343700315" lon="9.069855160694658"><ele>83.0</ele><time>2026-04-24T10:00:49.998Z</time></trkpt><trkpt lat="45.0057985181195" lon="9.069828871968415"><ele>83.33333333333334</ele><time>2026-04-24T10:00:50.997Z</time></trkpt><trkpt lat="45.00559991624583" lon="9.069798048348872"><ele>83.66666666666667</ele><time>2026-04-24T10:00:51.997Z</time></trkpt><trkpt lat="45.00538978255104" lon="9.06976857539081"><ele>84.0</ele><time>2026-04-24T10:00:52.997Z</time></trkpt><trkpt lat="45.00519536859522" lon="9.06973737023124"><ele>84.0</ele><time>2026-04-24T10:00:53.997Z</time></trkpt><trkpt lat="45.00500010743442" lon="9.069698948262268"><ele>84.0</ele><time>2026-04-24T10:00:54.997Z</time></trkpt><trkpt lat="45.004831418372085" lon="9.06970997648514"><ele>84.0</ele><time>2026-04-24T10:00:55.997Z</time></trkpt><trkpt lat="45.0046392339589" lon="9.069661688806386"><ele>83.66666666666667</ele><time>2026-04-24T10:00:56.997Z</time></trkpt><trkpt lat="45.00443985090827" lon="9.06964632422068"><ele>83.33333333333334</ele><time>2026-04-24T10:00:57.997Z</time></trkpt><trkpt lat="45.004231918398226" lon="9.069612944239857"><ele>83.0</ele><time>2026-04-24T10:00:58.997Z</time></trkpt><trkpt lat="45.004031646343265" lon="9.069559667921382"><ele>82.66666666666667</ele><time>2026-04-24T10:00:59.997Z</time></trkpt><trkpt lat="45.00382753542311" lon="9.069506777355173"><ele>82.33333333333333</ele><time>2026-04-24T10:01:00.997Z</time></trkpt><trkpt lat="45.00362735788922" lon="9.069457317747775"><ele>82.0</ele><time>2026-04-24T10:01:01.997Z</time></trkpt><trkpt lat="45.00342932290411" lon="9.069419683019849"><ele>82.0</ele><time>2026-04-24T10:01:02.997Z</time></trkpt><trkpt lat="45.00324145640803" lon="9.069390379590876"><ele>82.0</ele><time>2026-04-24T10:01:03.997Z</time></trkpt><trkpt lat="45.00307178771533" lon="9.06936910165169"><ele>82.0</ele><time>2026-04-24T10:01:04.997Z</time></trkpt><trkpt lat="45.00290995458853" lon="9.069358103390723"><ele>82.0</ele><time>2026-04-24T10:01:05.997Z</time></trkpt><trkpt lat="45.0027610095292" lon="9.069357640648645"><ele>82.0</ele><time>2026-04-24T10:01:06.997Z</time></trkpt><trkpt lat="45.00261270632926" lon="9.069355182259615"><ele>82.0</ele><time>2026-04-24T10:01:07.997Z</time></trkpt><trkpt lat="45.002491540843685" lon="9.069334654111145"><ele>82.0</ele><time>2026-04-24T10:01:08.997Z</time></trkpt><trkpt lat="45.002401035367335" lon="9.069294938182708"><ele>82.33333333333333</ele><time>2026-04-24T10:01:09.997Z</time></trkpt><trkpt lat="45.00231370510109" lon="9.069258938992693"><ele>82.66666666666666</ele><time>2026-04-24T10:01:10.997Z</time></trkpt><trkpt lat="45.002227306039444" lon="9.069228589761195"><ele>83.0</ele><time>2026-04-24T10:01:11.997Z</time></trkpt><trkpt lat="45.002179248641646" lon="9.069152837745817"><ele>83.33333333333333</ele><time>2026-04-24T10:01:12.997Z</time></trkpt><trkpt lat="45.00212584511179" lon="9.069069861546195"><ele>83.66666666666667</ele><time>2026-04-24T10:01:13.997Z</time></trkpt><trkpt lat="45.00205503275851" lon="9.06903944320079"><ele>84.0</ele><time>2026-04-24T10:01:14.997Z</time></trkpt><trkpt lat="45.001991363866416" lon="9.069082559012962"><ele>84.0</ele><time>2026-04-24T10:01:15.997Z</time></trkpt><trkpt lat="45.001924839357244" lon="9.069201929458975"><ele>84.0</ele><time>2026-04-24T10:01:16.997Z</time></trkpt><trkpt lat="45.00186130002173" lon="9.069281007440058"><ele>84.0</ele><time>2026-04-24T10:01:17.997Z</time></trkpt><trkpt lat="45.00175926388726" lon="9.069235781439783"><ele>84.0</ele><time>2026-04-24T10:01:18.997Z</time></trkpt><trkpt lat="45.001661934595504" lon="9.06921570280892"><ele>84.0</ele><time>2026-04-24T10:01:19.997Z</time></trkpt><trkpt lat="45.00156923501237" lon="9.069201582728708"><ele>83.75</ele><time>2026-04-24T10:01:20.997Z</time></trkpt><trkpt lat="45.00145059471458" lon="9.069184638787055"><ele>83.5</ele><time>2026-04-24T10:01:21.997Z</time></trkpt><trkpt lat="45.00132367062865" lon="9.069166511737748"><ele>83.25</ele><time>2026-04-24T10:01:22.997Z</time></trkpt><trkpt lat="45.00120055403297" lon="9.069154083606476"><ele>83.0</ele><time>2026-04-24T10:01:23.997Z</time></trkpt><trkpt lat="45.00105491604987" lon="9.069136729085356"><ele>82.66666666666667</ele><time>2026-04-24T10:01:24.997Z</time></trkpt><trkpt lat="45.00089614378797" lon="9.069107194529222"><ele>82.33333333333333</ele><time>2026-04-24T10:01:25.997Z</time></trkpt><trkpt lat="45.000747403324915" lon="9.069074648266293"><ele>82.0</ele><time>2026-04-24T10:01:26.997Z</time></trkpt><trkpt lat="45.00060516013722" lon="9.069058996898242"><ele>81.75</ele><time>2026-04-24T10:01:27.997Z</time></trkpt><trkpt lat="45.00045412932129" lon="9.069041615488915"><ele>81.5</ele><time>2026-04-24T10:01:28.997Z</time></trkpt><trkpt lat="45.00031249982144" lon="9.069025118617233"><ele>81.25</ele><time>2026-04-24T10:01:29.997Z</time></trkpt><trkpt lat="45.000171461851586" lon="9.068975816688647"><ele>81.0</ele><time>2026-04-24T10:01:30.997Z</time></trkpt><trkpt lat="45.00003414025085" lon="9.06895549071312"><ele>81.0</ele><time>2026-04-24T10:01:31.997Z</time></trkpt><trkpt lat="44.99987645239374" lon="9.068955867376191"><ele>81.0</ele><time>2026-04-24T10:01:32.997Z</time></trkpt><trkpt lat="44.99972681546003" lon="9.068938456222567"><ele>81.0</ele><time>2026-04-24T10:01:33.997Z</time></trkpt><trkpt lat="44.999582491573015" lon="9.068928710512441"><ele>81.0</ele><time>2026-04-24T10:01:34.997Z</time></trkpt><trkpt lat="44.99943624730834" lon="9.068908481335908"><ele>81.0</ele><time>2026-04-24T10:01:35.997Z</time></trkpt><trkpt lat="44.99929237068593" lon="9.068871335942084"><ele>81.0</ele><time>2026-04-24T10:01:36.997Z</time></trkpt><trkpt lat="44.999149524066695" lon="9.068853657675767"><ele>81.0</ele><time>2026-04-24T10:01:37.997Z</time></trkpt><trkpt lat="44.99901843366524" lon="9.068836526385606"><ele>81.75</ele><time>2026-04-24T10:01:38.997Z</time></trkpt><trkpt lat="44.99887578555844" lon="9.068819566242164"><ele>82.5</ele><time>2026-04-24T10:01:39.997Z</time></trkpt><trkpt lat="44.99873578452723" lon="9.06878848828138"><ele>83.25</ele><time>2026-04-24T10:01:40.997Z</time></trkpt><trkpt lat="44.9986036916186" lon="9.06878064424782"><ele>84.0</ele><time>2026-04-24T10:01:41.997Z</time></trkpt><trkpt lat="44.998477788935055" lon="9.068762260749397"><ele>84.0</ele><time>2026-04-24T10:01:42.997Z</time></trkpt><trkpt lat="44.9983478732288" lon="9.068738332588685"><ele>84.0</ele><time>2026-04-24T10:01:43.997Z</time></trkpt><trkpt lat="44.99823971806451" lon="9.068712810829366"><ele>84.0</ele><time>2026-04-24T10:01:44.997Z</time></trkpt><trkpt lat="44.998140178970075" lon="9.068687911836074"><ele>84.0</ele><time>2026-04-24T10:01:45.997Z</time></trkpt><trkpt lat="44.99803561228114" lon="9.06865208442584"><ele>84.0</ele><time>2026-04-24T10:01:46.997Z</time></trkpt><trkpt lat="44.997924997300885" lon="9.068641155599709"><ele>84.80000000000001</ele><time>2026-04-24T10:01:47.997Z</time></trkpt><trkpt lat="44.997827145751366" lon="9.068601398318977"><ele>85.60000000000001</ele><time>2026-04-24T10:01:48.997Z</time></trkpt><trkpt lat="44.997726642076984" lon="9.068574232318275"><ele>86.4</ele><time>2026-04-24T10:01:49.997Z</time></trkpt><trkpt lat="44.997623876788396" lon="9.068553794443488"><ele>87.2</ele><time>2026-04-24T10:01:50.997Z</time></trkpt><trkpt lat="44.9975360442653" lon="9.068540420941066"><ele>88.0</ele><time>2026-04-24T10:01:51.997Z</time></trkpt><trkpt lat="44.997469919762985" lon="9.068515616427415"><ele>88.2</ele><time>2026-04-24T10:01:52.997Z</time></trkpt><trkpt lat="44.99736828825173" lon="9.068476517140155"><ele>88.4</ele><time>2026-04-24T10:01:54.997Z</time></trkpt><trkpt lat="44.99728735317252" lon="9.068366517936294"><ele>88.60000000000001</ele><time>2026-04-24T10:01:56.997Z</time></trkpt><trkpt lat="44.99722249855117" lon="9.068297578215036"><ele>88.80000000000001</ele><time>2026-04-24T10:01:57.997Z</time></trkpt><trkpt lat="44.9971337343255" lon="9.068296160388032"><ele>89.0</ele><time>2026-04-24T10:01:58.997Z</time></trkpt><trkpt lat="44.997028501966135" lon="9.068316754294198"><ele>89.0</ele><time>2026-04-24T10:01:59.997Z</time></trkpt><trkpt lat="44.99694055947745" lon="9.068400337856186"><ele>89.0</ele><time>2026-04-24T10:02:00.997Z</time></trkpt><trkpt lat="44.99683997140745" lon="9.068430956865813"><ele>89.0</ele><time>2026-04-24T10:02:01.997Z</time></trkpt><trkpt lat="44.99673312432273" lon="9.068395683325667"><ele>89.0</ele><time>2026-04-24T10:02:02.997Z</time></trkpt><trkpt lat="44.99661920506784" lon="9.068305090721923"><ele>89.0</ele><time>2026-04-24T10:02:03.997Z</time></trkpt><trkpt lat="44.996482647143075" lon="9.06823904120751"><ele>89.0</ele><time>2026-04-24T10:02:04.997Z</time></trkpt><trkpt lat="44.99634033331544" lon="9.068181348006577"><ele>89.0</ele><time>2026-04-24T10:02:05.997Z</time></trkpt><trkpt lat="44.99619559387059" lon="9.068091499303153"><ele>89.0</ele><time>2026-04-24T10:02:06.997Z</time></trkpt><trkpt lat="44.99603861110034" lon="9.068039149931518"><ele>89.0</ele><time>2026-04-24T10:02:07.997Z</time></trkpt><trkpt lat="44.99589432280211" lon="9.067960008444372"><ele>89.0</ele><time>2026-04-24T10:02:08.997Z</time></trkpt><trkpt lat="44.99573667561916" lon="9.06788442506677"><ele>89.0</ele><time>2026-04-24T10:02:09.997Z</time></trkpt><trkpt lat="44.99557919934531" lon="9.067809289419648"><ele>89.66666666666667</ele><time>2026-04-24T10:02:10.997Z</time></trkpt><trkpt lat="44.99541265034782" lon="9.06773010677455"><ele>90.33333333333333</ele><time>2026-04-24T10:02:11.997Z</time></trkpt><trkpt lat="44.995241876471404" lon="9.067648665932056"><ele>91.0</ele><time>2026-04-24T10:02:12.997Z</time></trkpt><trkpt lat="44.99506227390719" lon="9.067573190068583"><ele>91.66666666666666</ele><time>2026-04-24T10:02:13.997Z</time></trkpt><trkpt lat="44.99489809642603" lon="9.067471458571019"><ele>92.33333333333333</ele><time>2026-04-24T10:02:14.997Z</time></trkpt><trkpt lat="44.99473481106655" lon="9.067378720794347"><ele>93.0</ele><time>2026-04-24T10:02:15.997Z</time></trkpt><trkpt lat="44.99456353195942" lon="9.06731103501322"><ele>93.0</ele><time>2026-04-24T10:02:16.997Z</time></trkpt><trkpt lat="44.994395700427575" lon="9.067228899031907"><ele>93.0</ele><time>2026-04-24T10:02:17.997Z</time></trkpt><trkpt lat="44.9942344308875" lon="9.067153370399481"><ele>93.0</ele><time>2026-04-24T10:02:19Z</time></trkpt><trkpt lat="44.99408428005168" lon="9.067079072691646"><ele>93.5</ele><time>2026-04-24T10:02:20Z</time></trkpt><trkpt lat="44.99393433380042" lon="9.067008699573865"><ele>94.0</ele><time>2026-04-24T10:02:21Z</time></trkpt><trkpt lat="44.99380249252739" lon="9.066986831796456"><ele>94.5</ele><time>2026-04-24T10:02:22Z</time></trkpt><trkpt lat="44.993690419230305" lon="9.066922992781528"><ele>95.0</ele><time>2026-04-24T10:02:23Z</time></trkpt><trkpt lat="44.993599442539434" lon="9.066856599423941"><ele>95.0</ele><time>2026-04-24T10:02:24Z</time></trkpt><trkpt lat="44.99351579816628" lon="9.0667536762633"><ele>95.0</ele><time>2026-04-24T10:02:25Z</time></trkpt><trkpt lat="44.993480387721824" lon="9.066623077557987"><ele>95.0</ele><time>2026-04-24T10:02:26Z</time></trkpt><trkpt lat="44.993387962842995" lon="9.066615901207177"><ele>95.0</ele><time>2026-04-24T10:02:27Z</time></trkpt><trkpt lat="44.993306129644" lon="9.066601197205621"><ele>95.0</ele><time>2026-04-24T10:02:28Z</time></trkpt><trkpt lat="44.99320388816636" lon="9.066644239911401"><ele>95.0</ele><time>2026-04-24T10:02:29Z</time></trkpt><trkpt lat="44.99310547005338" lon="9.066649708581291"><ele>95.0</ele><time>2026-04-24T10:02:30Z</time></trkpt><trkpt lat="44.99299720105476" lon="9.066615307024284"><ele>95.0</ele><time>2026-04-24T10:02:31Z</time></trkpt><trkpt lat="44.99287732063814" lon="9.06656599462706"><ele>95.0</ele><time>2026-04-24T10:02:32Z</time></trkpt><trkpt lat="44.99273420728215" lon="9.06649838389147"><ele>95.0</ele><time>2026-04-24T10:02:33Z</time></trkpt><trkpt lat="44.99258566843028" lon="9.06643735261283"><ele>95.0</ele><time>2026-04-24T10:02:34Z</time></trkpt><trkpt lat="44.992428878014344" lon="9.066359014450578"><ele>95.0</ele><time>2026-04-24T10:02:35Z</time></trkpt><trkpt lat="44.99226887396156" lon="9.066292592684828"><ele>95.0</ele><time>2026-04-24T10:02:36Z</time></trkpt><trkpt lat="44.99210788073551" lon="9.066225760288233"><ele>95.0</ele><time>2026-04-24T10:02:37Z</time></trkpt><trkpt lat="44.99194054184915" lon="9.0661562936469"><ele>95.0</ele><time>2026-04-24T10:02:38Z</time></trkpt><trkpt lat="44.9917705244938" lon="9.066076296165022"><ele>96.0</ele><time>2026-04-24T10:02:39Z</time></trkpt><trkpt lat="44.991591780112984" lon="9.065981405024848"><ele>97.0</ele><time>2026-04-24T10:02:40Z</time></trkpt><trkpt lat="44.99139502577335" lon="9.065935727042552"><ele>98.0</ele><time>2026-04-24T10:02:41Z</time></trkpt><trkpt lat="44.991211390167905" lon="9.06586223820913"><ele>98.0</ele><time>2026-04-24T10:02:42Z</time></trkpt><trkpt lat="44.99102406580114" lon="9.065774917266157"><ele>98.0</ele><time>2026-04-24T10:02:43Z</time></trkpt><trkpt lat="44.990836422961046" lon="9.065697100216331"><ele>98.0</ele><time>2026-04-24T10:02:44Z</time></trkpt><trkpt lat="44.990635889045386" lon="9.065627200851596"><ele>98.0</ele><time>2026-04-24T10:02:45Z</time></trkpt><trkpt lat="44.99043580782586" lon="9.065539833183252"><ele>98.0</ele><time>2026-04-24T10:02:46Z</time></trkpt><trkpt lat="44.99023915909512" lon="9.065472857075754"><ele>98.0</ele><time>2026-04-24T10:02:47Z</time></trkpt><trkpt lat="44.9900398044417" lon="9.065380961757512"><ele>98.66666666666666</ele><time>2026-04-24T10:02:48Z</time></trkpt><trkpt lat="44.98984778773733" lon="9.065275767944058"><ele>99.33333333333334</ele><time>2026-04-24T10:02:49Z</time></trkpt><trkpt lat="44.98965946115081" lon="9.065205595366656"><ele>100.0</ele><time>2026-04-24T10:02:50Z</time></trkpt><trkpt lat="44.98946766853183" lon="9.065120246245517"><ele>100.0</ele><time>2026-04-24T10:02:51Z</time></trkpt><trkpt lat="44.98926819666092" lon="9.06506757326298"><ele>100.0</ele><time>2026-04-24T10:02:52Z</time></trkpt><trkpt lat="44.9890705167457" lon="9.064974445242978"><ele>100.0</ele><time>2026-04-24T10:02:53Z</time></trkpt><trkpt lat="44.988870049189906" lon="9.064897880939053"><ele>99.66666666666667</ele><time>2026-04-24T10:02:54Z</time></trkpt><trkpt lat="44.98865729556081" lon="9.064784777759975"><ele>99.33333333333334</ele><time>2026-04-24T10:02:55Z</time></trkpt><trkpt lat="44.98845063299317" lon="9.064716579860669"><ele>99.0</ele><time>2026-04-24T10:02:56Z</time></trkpt><trkpt lat="44.98825934075949" lon="9.064610507742653"><ele>99.0</ele><time>2026-04-24T10:02:57Z</time></trkpt><trkpt lat="44.988050927205876" lon="9.06453750208334"><ele>99.0</ele><time>2026-04-24T10:02:58Z</time></trkpt><trkpt lat="44.98784785311906" lon="9.064447445246403"><ele>99.0</ele><time>2026-04-24T10:02:59Z</time></trkpt><trkpt lat="44.98764695291544" lon="9.064352799298053"><ele>100.0</ele><time>2026-04-24T10:03:00Z</time></trkpt><trkpt lat="44.98743344551601" lon="9.064284756771343"><ele>101.0</ele><time>2026-04-24T10:03:01Z</time></trkpt><trkpt lat="44.98723826245342" lon="9.064188512709245"><ele>102.0</ele><time>2026-04-24T10:03:02Z</time></trkpt><trkpt lat="44.987030444805725" lon="9.064118878818888"><ele>101.66666666666666</ele><time>2026-04-24T10:03:03Z</time></trkpt><trkpt lat="44.98681995678791" lon="9.064061804617099"><ele>101.33333333333333</ele><time>2026-04-24T10:03:04Z</time></trkpt><trkpt lat="44.986608636235566" lon="9.06400068063765"><ele>101.0</ele><time>2026-04-24T10:03:05Z</time></trkpt><trkpt lat="44.98638939681759" lon="9.0639589336305"><ele>101.0</ele><time>2026-04-24T10:03:06Z</time></trkpt><trkpt lat="44.986162671962006" lon="9.06393993931856"><ele>101.0</ele><time>2026-04-24T10:03:07Z</time></trkpt><trkpt lat="44.985959734073745" lon="9.063888076856834"><ele>101.0</ele><time>2026-04-24T10:03:08Z</time></trkpt><trkpt lat="44.985751018179826" lon="9.063830782382896"><ele>101.66666666666666</ele><time>2026-04-24T10:03:09Z</time></trkpt><trkpt lat="44.98552142511449" lon="9.063812917797993"><ele>102.33333333333334</ele><time>2026-04-24T10:03:10Z</time></trkpt><trkpt lat="44.98531296742808" lon="9.06377994556919"><ele>103.0</ele><time>2026-04-24T10:03:11Z</time></trkpt><trkpt lat="44.98508945246182" lon="9.063767464359534"><ele>103.33333333333334</ele><time>2026-04-24T10:03:12Z</time></trkpt><trkpt lat="44.98486791509158" lon="9.063771589081874"><ele>103.66666666666666</ele><time>2026-04-24T10:03:13Z</time></trkpt><trkpt lat="44.984651323741" lon="9.063757491453769"><ele>104.0</ele><time>2026-04-24T10:03:14Z</time></trkpt><trkpt lat="44.98443804262407" lon="9.063748569135713"><ele>104.0</ele><time>2026-04-24T10:03:15Z</time></trkpt><trkpt lat="44.984215080394726" lon="9.063754685309334"><ele>104.0</ele><time>2026-04-24T10:03:16Z</time></trkpt><trkpt lat="44.984035257633764" lon="9.063692251246211"><ele>104.0</ele><time>2026-04-24T10:03:17Z</time></trkpt><trkpt lat="44.983848187189665" lon="9.063675906894536"><ele>104.0</ele><time>2026-04-24T10:03:18Z</time></trkpt><trkpt lat="44.98365700203464" lon="9.063622959642554"><ele>104.0</ele><time>2026-04-24T10:03:19Z</time></trkpt><trkpt lat="44.983482122219606" lon="9.063588218208922"><ele>104.0</ele><time>2026-04-24T10:03:20Z</time></trkpt><trkpt lat="44.98328984892529" lon="9.063550688047727"><ele>104.33333333333333</ele><time>2026-04-24T10:03:21Z</time></trkpt><trkpt lat="44.98310203413239" lon="9.06348897289973"><ele>104.66666666666666</ele><time>2026-04-24T10:03:22Z</time></trkpt><trkpt lat="44.98292081022101" lon="9.063426345018948"><ele>105.0</ele><time>2026-04-24T10:03:23Z</time></trkpt><trkpt lat="44.982728773394165" lon="9.063385679640342"><ele>105.0</ele><time>2026-04-24T10:03:24Z</time></trkpt><trkpt lat="44.9825523108832" lon="9.063342262457114"><ele>105.0</ele><time>2026-04-24T10:03:25Z</time></trkpt><trkpt lat="44.98238150735997" lon="9.063304572067455"><ele>105.0</ele><time>2026-04-24T10:03:26Z</time></trkpt><trkpt lat="44.982201585341066" lon="9.063258940298102"><ele>106.0</ele><time>2026-04-24T10:03:27Z</time></trkpt><trkpt lat="44.98203805174063" lon="9.063216170394718"><ele>107.0</ele><time>2026-04-24T10:03:28Z</time></trkpt><trkpt lat="44.98188272536278" lon="9.063172916487387"><ele>108.0</ele><time>2026-04-24T10:03:29Z</time></trkpt><trkpt lat="44.981736896855985" lon="9.063150608634983"><ele>107.75</ele><time>2026-04-24T10:03:30Z</time></trkpt><trkpt lat="44.98162427057795" lon="9.063079294869215"><ele>107.5</ele><time>2026-04-24T10:03:31Z</time></trkpt><trkpt lat="44.98149647139076" lon="9.063077132938508"><ele>107.25</ele><time>2026-04-24T10:03:32Z</time></trkpt><trkpt lat="44.98139353576014" lon="9.063039460758459"><ele>107.0</ele><time>2026-04-24T10:03:33Z</time></trkpt><trkpt lat="44.981292650226756" lon="9.063028469824197"><ele>107.0</ele><time>2026-04-24T10:03:34Z</time></trkpt><trkpt lat="44.98118908309861" lon="9.063000426250975"><ele>106.99999999999999</ele><time>2026-04-24T10:03:35Z</time></trkpt><trkpt lat="44.98107970649551" lon="9.062966234750359"><ele>106.99999999999999</ele><time>2026-04-24T10:03:36Z</time></trkpt><trkpt lat="44.98099194730359" lon="9.062934961925325"><ele>107.0</ele><time>2026-04-24T10:03:36.999Z</time></trkpt><trkpt lat="44.980900576108624" lon="9.062923565259853"><ele>107.0</ele><time>2026-04-24T10:03:37.999Z</time></trkpt><trkpt lat="44.9808093543884" lon="9.062887798435831"><ele>107.19999999999999</ele><time>2026-04-24T10:03:38.999Z</time></trkpt><trkpt lat="44.98074343424943" lon="9.06280662703454"><ele>107.39999999999999</ele><time>2026-04-24T10:03:39.999Z</time></trkpt><trkpt lat="44.98068782349787" lon="9.062711843883786"><ele>107.60000000000001</ele><time>2026-04-24T10:03:40.999Z</time></trkpt><trkpt lat="44.980594439727504" lon="9.062723076797464"><ele>107.80000000000001</ele><time>2026-04-24T10:03:41.999Z</time></trkpt><trkpt lat="44.98051295417462" lon="9.062760213150165"><ele>108.0</ele><time>2026-04-24T10:03:42.999Z</time></trkpt><trkpt lat="44.98040678417572" lon="9.06278678275545"><ele>108.0</ele><time>2026-04-24T10:03:43.999Z</time></trkpt><trkpt lat="44.980260586278625" lon="9.062777471219121"><ele>108.0</ele><time>2026-04-24T10:03:45.999Z</time></trkpt><trkpt lat="44.98016081810174" lon="9.062755679256005"><ele>108.0</ele><time>2026-04-24T10:03:46.999Z</time></trkpt><trkpt lat="44.98003133477498" lon="9.062703080895005"><ele>108.0</ele><time>2026-04-24T10:03:47.999Z</time></trkpt><trkpt lat="44.979879922942736" lon="9.062653321792983"><ele>108.33333333333334</ele><time>2026-04-24T10:03:48.999Z</time></trkpt><trkpt lat="44.9797085638267" lon="9.062645526627492"><ele>108.66666666666667</ele><time>2026-04-24T10:03:49.999Z</time></trkpt><trkpt lat="44.9795465329141" lon="9.062585321534918"><ele>109.0</ele><time>2026-04-24T10:03:50.999Z</time></trkpt><trkpt lat="44.979384750467396" lon="9.062562777914737"><ele>109.0</ele><time>2026-04-24T10:03:51.999Z</time></trkpt><trkpt lat="44.97920075278241" lon="9.062506213057734"><ele>109.0</ele><time>2026-04-24T10:03:52.999Z</time></trkpt><trkpt lat="44.97902757693873" lon="9.062453689938193"><ele>109.0</ele><time>2026-04-24T10:03:53.999Z</time></trkpt><trkpt lat="44.978845858729784" lon="9.062405355717825"><ele>109.66666666666667</ele><time>2026-04-24T10:03:54.999Z</time></trkpt><trkpt lat="44.97867194025533" lon="9.062357874797772"><ele>110.33333333333334</ele><time>2026-04-24T10:03:55.999Z</time></trkpt><trkpt lat="44.978503694054844" lon="9.062304209176071"><ele>111.0</ele><time>2026-04-24T10:03:56.999Z</time></trkpt><trkpt lat="44.97833642683917" lon="9.06226077885909"><ele>111.66666666666666</ele><time>2026-04-24T10:03:57.999Z</time></trkpt><trkpt lat="44.97817052512031" lon="9.062239478382029"><ele>112.33333333333333</ele><time>2026-04-24T10:03:58.999Z</time></trkpt><trkpt lat="44.978021243130776" lon="9.062206012465463"><ele>113.0</ele><time>2026-04-24T10:03:59.999Z</time></trkpt><trkpt lat="44.97786560289441" lon="9.062181978714298"><ele>113.0</ele><time>2026-04-24T10:04:00.999Z</time></trkpt><trkpt lat="44.97772215220276" lon="9.062133590304343"><ele>113.0</ele><time>2026-04-24T10:04:01.999Z</time></trkpt><trkpt lat="44.977569842022774" lon="9.062104927605548"><ele>113.0</ele><time>2026-04-24T10:04:02.999Z</time></trkpt><trkpt lat="44.9774230680445" lon="9.062047999725843"><ele>112.66666666666666</ele><time>2026-04-24T10:04:03.999Z</time></trkpt><trkpt lat="44.97727264776673" lon="9.06199698126099"><ele>112.33333333333334</ele><time>2026-04-24T10:04:04.999Z</time></trkpt><trkpt lat="44.97713953376669" lon="9.06191578301926"><ele>112.0</ele><time>2026-04-24T10:04:05.999Z</time></trkpt><trkpt lat="44.97696832292731" lon="9.061863977345052"><ele>112.0</ele><time>2026-04-24T10:04:06.999Z</time></trkpt><trkpt lat="44.97679501963467" lon="9.0618411962907"><ele>112.0</ele><time>2026-04-24T10:04:07.999Z</time></trkpt><trkpt lat="44.9766394423552" lon="9.061811941733703"><ele>112.0</ele><time>2026-04-24T10:04:08.999Z</time></trkpt><trkpt lat="44.97645432439813" lon="9.06177949609107"><ele>112.0</ele><time>2026-04-24T10:04:09.999Z</time></trkpt><trkpt lat="44.97627624644666" lon="9.06173595460791"><ele>112.0</ele><time>2026-04-24T10:04:10.999Z</time></trkpt><trkpt lat="44.97607835687298" lon="9.061732515913919"><ele>112.0</ele><time>2026-04-24T10:04:11.999Z</time></trkpt><trkpt lat="44.97591490593363" lon="9.061681333971663"><ele>112.66666666666667</ele><time>2026-04-24T10:04:12.999Z</time></trkpt><trkpt lat="44.97573831032553" lon="9.061636077056543"><ele>113.33333333333334</ele><time>2026-04-24T10:04:13.999Z</time></trkpt><trkpt lat="44.97554607904905" lon="9.061623677080075"><ele>114.0</ele><time>2026-04-24T10:04:14.999Z</time></trkpt><trkpt lat="44.975349485653446" lon="9.061584485222195"><ele>114.0</ele><time>2026-04-24T10:04:15.999Z</time></trkpt><trkpt lat="44.97515248646704" lon="9.061572869693208"><ele>114.0</ele><time>2026-04-24T10:04:16.999Z</time></trkpt><trkpt lat="44.97495947648316" lon="9.061564181046556"><ele>114.0</ele><time>2026-04-24T10:04:17.999Z</time></trkpt><trkpt lat="44.974775794390034" lon="9.061549730431624"><ele>114.33333333333334</ele><time>2026-04-24T10:04:18.999Z</time></trkpt><trkpt lat="44.97459317163495" lon="9.06151614166528"><ele>114.66666666666667</ele><time>2026-04-24T10:04:19.999Z</time></trkpt><trkpt lat="44.97440135253056" lon="9.06148155306782"><ele>115.0</ele><time>2026-04-24T10:04:20.999Z</time></trkpt><trkpt lat="44.974195645807605" lon="9.061452237232022"><ele>115.0</ele><time>2026-04-24T10:04:21.999Z</time></trkpt><trkpt lat="44.9739894021268" lon="9.061421790654531"><ele>115.0</ele><time>2026-04-24T10:04:22.999Z</time></trkpt><trkpt lat="44.97380774610713" lon="9.061375274600211"><ele>115.0</ele><time>2026-04-24T10:04:23.999Z</time></trkpt><trkpt lat="44.97362511437534" lon="9.061354119203372"><ele>115.0</ele><time>2026-04-24T10:04:24.999Z</time></trkpt><trkpt lat="44.973442647870066" lon="9.061326514817972"><ele>115.0</ele><time>2026-04-24T10:04:25.999Z</time></trkpt><trkpt lat="44.97325154134259" lon="9.0612912278807"><ele>115.0</ele><time>2026-04-24T10:04:26.999Z</time></trkpt><trkpt lat="44.97306282769284" lon="9.061267875502436"><ele>116.0</ele><time>2026-04-24T10:04:27.999Z</time></trkpt><trkpt lat="44.97287383653752" lon="9.061223460023317"><ele>117.0</ele><time>2026-04-24T10:04:28.999Z</time></trkpt><trkpt lat="44.97267277964056" lon="9.061202099745662"><ele>118.0</ele><time>2026-04-24T10:04:29.999Z</time></trkpt><trkpt lat="44.972476955184995" lon="9.061168146213516"><ele>118.0</ele><time>2026-04-24T10:04:30.999Z</time></trkpt><trkpt lat="44.9722716301409" lon="9.061143860512372"><ele>118.0</ele><time>2026-04-24T10:04:31.999Z</time></trkpt><trkpt lat="44.97207196462367" lon="9.061115946443191"><ele>118.0</ele><time>2026-04-24T10:04:32.999Z</time></trkpt><trkpt lat="44.9718760872206" lon="9.06107742391867"><ele>118.33333333333334</ele><time>2026-04-24T10:04:33.999Z</time></trkpt><trkpt lat="44.97166722917866" lon="9.061057794823675"><ele>118.66666666666666</ele><time>2026-04-24T10:04:34.999Z</time></trkpt><trkpt lat="44.971467883118" lon="9.061022261044924"><ele>119.0</ele><time>2026-04-24T10:04:35.999Z</time></trkpt><trkpt lat="44.97127167598196" lon="9.06099594824317"><ele>119.0</ele><time>2026-04-24T10:04:36.999Z</time></trkpt><trkpt lat="44.97109267800159" lon="9.060943979330562"><ele>119.0</ele><time>2026-04-24T10:04:37.999Z</time></trkpt><trkpt lat="44.97090559442575" lon="9.060896776349708"><ele>119.0</ele><time>2026-04-24T10:04:38.999Z</time></trkpt><trkpt lat="44.97071682563312" lon="9.06087853855472"><ele>120.0</ele><time>2026-04-24T10:04:39.999Z</time></trkpt><trkpt lat="44.970516285780036" lon="9.060857403214076"><ele>121.0</ele><time>2026-04-24T10:04:40.999Z</time></trkpt><trkpt lat="44.9703380553047" lon="9.060846476853918"><ele>122.0</ele><time>2026-04-24T10:04:41.999Z</time></trkpt><trkpt lat="44.97016347352656" lon="9.060802642480468"><ele>122.75</ele><time>2026-04-24T10:04:42.999Z</time></trkpt><trkpt lat="44.970009208721656" lon="9.060768811875318"><ele>123.5</ele><time>2026-04-24T10:04:43.999Z</time></trkpt><trkpt lat="44.96986062455348" lon="9.060754800543506"><ele>124.25</ele><time>2026-04-24T10:04:44.999Z</time></trkpt><trkpt lat="44.969736430773175" lon="9.060720468128173"><ele>125.0</ele><time>2026-04-24T10:04:45.999Z</time></trkpt><trkpt lat="44.969616062706734" lon="9.060691274499941"><ele>125.0</ele><time>2026-04-24T10:04:46.999Z</time></trkpt><trkpt lat="44.96950538028568" lon="9.060661310305079"><ele>125.0</ele><time>2026-04-24T10:04:47.999Z</time></trkpt><trkpt lat="44.96939970952835" lon="9.060631023913308"><ele>125.0</ele><time>2026-04-24T10:04:48.999Z</time></trkpt><trkpt lat="44.96929630889107" lon="9.060613569692084"><ele>125.0</ele><time>2026-04-24T10:04:49.999Z</time></trkpt><trkpt lat="44.96918287603496" lon="9.06061687798938"><ele>125.0</ele><time>2026-04-24T10:04:50.999Z</time></trkpt><trkpt lat="44.969086338645326" lon="9.060586087606799"><ele>124.4</ele><time>2026-04-24T10:04:51.999Z</time></trkpt><trkpt lat="44.96900150758654" lon="9.060516240628267"><ele>123.8</ele><time>2026-04-24T10:04:52.999Z</time></trkpt><trkpt lat="44.96893483989627" lon="9.060442157616714"><ele>123.19999999999999</ele><time>2026-04-24T10:04:53.999Z</time></trkpt><trkpt lat="44.968890595103694" lon="9.060360315182391"><ele>122.6</ele><time>2026-04-24T10:04:54.999Z</time></trkpt><trkpt lat="44.96882700537335" lon="9.060247022705347"><ele>122.0</ele><time>2026-04-24T10:04:55.999Z</time></trkpt><trkpt lat="44.968805228759486" lon="9.06010894340085"><ele>122.0</ele><time>2026-04-24T10:04:56.999Z</time></trkpt><trkpt lat="44.96870509919291" lon="9.060013196508237"><ele>122.0</ele><time>2026-04-24T10:04:57.999Z</time></trkpt><trkpt lat="44.96859545565092" lon="9.05990883706157"><ele>122.0</ele><time>2026-04-24T10:04:58.999Z</time></trkpt><trkpt lat="44.968488674090544" lon="9.05979281900587"><ele>122.0</ele><time>2026-04-24T10:04:59.999Z</time></trkpt><trkpt lat="44.96840043378756" lon="9.059633119938002"><ele>123.66666666666666</ele><time>2026-04-24T10:05:00.999Z</time></trkpt><trkpt lat="44.96835582317985" lon="9.059427007130973"><ele>125.33333333333334</ele><time>2026-04-24T10:05:01.999Z</time></trkpt><trkpt lat="44.96829631258759" lon="9.059191005500445"><ele>127.0</ele><time>2026-04-24T10:05:02.999Z</time></trkpt><trkpt lat="44.96822963379895" lon="9.058930390903777"><ele>127.0</ele><time>2026-04-24T10:05:03.999Z</time></trkpt><trkpt lat="44.96815680744782" lon="9.058681431000213"><ele>127.0</ele><time>2026-04-24T10:05:04.999Z</time></trkpt><trkpt lat="44.968096379216206" lon="9.058413390225649"><ele>127.0</ele><time>2026-04-24T10:05:05.999Z</time></trkpt><trkpt lat="44.968008153254964" lon="9.058150942367249"><ele>127.0</ele><time>2026-04-24T10:05:06.999Z</time></trkpt><trkpt lat="44.96791806605734" lon="9.057865894399479"><ele>127.0</ele><time>2026-04-24T10:05:07.999Z</time></trkpt><trkpt lat="44.9678557989196" lon="9.057575070823605"><ele>127.0</ele><time>2026-04-24T10:05:08.999Z</time></trkpt><trkpt lat="44.96777375712377" lon="9.057272843659252"><ele>127.0</ele><time>2026-04-24T10:05:09.999Z</time></trkpt><trkpt lat="44.9676980633387" lon="9.056994001403567"><ele>127.0</ele><time>2026-04-24T10:05:10.999Z</time></trkpt><trkpt lat="44.96763627174821" lon="9.056766372376837"><ele>127.0</ele><time>2026-04-24T10:05:11.999Z</time></trkpt><trkpt lat="44.967564274927334" lon="9.05650114902136"><ele>128.0</ele><time>2026-04-24T10:05:12.999Z</time></trkpt><trkpt lat="44.967491563812324" lon="9.056235218729173"><ele>129.0</ele><time>2026-04-24T10:05:13.999Z</time></trkpt><trkpt lat="44.96742545352551" lon="9.05599509887466"><ele>130.0</ele><time>2026-04-24T10:05:14.999Z</time></trkpt><trkpt lat="44.96733343215461" lon="9.055719777646845"><ele>130.0</ele><time>2026-04-24T10:05:15.999Z</time></trkpt><trkpt lat="44.96727658719749" lon="9.055454509683491"><ele>130.0</ele><time>2026-04-24T10:05:16.999Z</time></trkpt><trkpt lat="44.96720954543819" lon="9.05520928287274"><ele>130.0</ele><time>2026-04-24T10:05:17.999Z</time></trkpt><trkpt lat="44.96714920413893" lon="9.054986949181043"><ele>129.66666666666669</ele><time>2026-04-24T10:05:18.999Z</time></trkpt><trkpt lat="44.96708739682713" lon="9.054723282450995"><ele>129.33333333333334</ele><time>2026-04-24T10:05:19.999Z</time></trkpt><trkpt lat="44.96701926514008" lon="9.054486456547608"><ele>129.0</ele><time>2026-04-24T10:05:20.999Z</time></trkpt><trkpt lat="44.966953396759074" lon="9.054220383303573"><ele>128.66666666666666</ele><time>2026-04-24T10:05:21.999Z</time></trkpt><trkpt lat="44.96686772339482" lon="9.053963955884024"><ele>128.33333333333331</ele><time>2026-04-24T10:05:22.999Z</time></trkpt><trkpt lat="44.966796483668965" lon="9.053690478745986"><ele>128.0</ele><time>2026-04-24T10:05:23.999Z</time></trkpt><trkpt lat="44.96672370996872" lon="9.053423082296403"><ele>127.66666666666666</ele><time>2026-04-24T10:05:24.999Z</time></trkpt><trkpt lat="44.96664954864997" lon="9.053150587206433"><ele>127.33333333333334</ele><time>2026-04-24T10:05:25.999Z</time></trkpt><trkpt lat="44.96657395904626" lon="9.052872844176555"><ele>127.0</ele><time>2026-04-24T10:05:26.999Z</time></trkpt><trkpt lat="44.96650174512512" lon="9.052607674302312"><ele>127.0</ele><time>2026-04-24T10:05:27.999Z</time></trkpt><trkpt lat="44.96642636004049" lon="9.05233056709393"><ele>127.0</ele><time>2026-04-24T10:05:28.999Z</time></trkpt><trkpt lat="44.96635446131258" lon="9.05206407136307"><ele>127.0</ele><time>2026-04-24T10:05:29.999Z</time></trkpt><trkpt lat="44.966285514829025" lon="9.051803557238326"><ele>126.66666666666667</ele><time>2026-04-24T10:05:30.999Z</time></trkpt><trkpt lat="44.96620958086886" lon="9.051534077379365"><ele>126.33333333333334</ele><time>2026-04-24T10:05:31.999Z</time></trkpt><trkpt lat="44.9661247534079" lon="9.051271341660437"><ele>126.0</ele><time>2026-04-24T10:05:32.999Z</time></trkpt><trkpt lat="44.96601867318603" lon="9.051031841090273"><ele>126.0</ele><time>2026-04-24T10:05:33.999Z</time></trkpt><trkpt lat="44.96594079534642" lon="9.050780435918693"><ele>126.0</ele><time>2026-04-24T10:05:34.998Z</time></trkpt><trkpt lat="44.96582940534499" lon="9.050583649724054"><ele>126.0</ele><time>2026-04-24T10:05:35.998Z</time></trkpt><trkpt lat="44.965732345769915" lon="9.050343042115152"><ele>127.0</ele><time>2026-04-24T10:05:36.998Z</time></trkpt><trkpt lat="44.96560732351152" lon="9.05010005486663"><ele>128.0</ele><time>2026-04-24T10:05:37.998Z</time></trkpt><trkpt lat="44.96546487048523" lon="9.049867493062584"><ele>129.0</ele><time>2026-04-24T10:05:38.998Z</time></trkpt><trkpt lat="44.96531961674061" lon="9.049633984802332"><ele>129.0</ele><time>2026-04-24T10:05:39.998Z</time></trkpt><trkpt lat="44.96519517255148" lon="9.04937239899491"><ele>129.0</ele><time>2026-04-24T10:05:40.998Z</time></trkpt><trkpt lat="44.96506555059315" lon="9.049130161868407"><ele>129.0</ele><time>2026-04-24T10:05:41.998Z</time></trkpt><trkpt lat="44.96493389388828" lon="9.048884122139093"><ele>129.33333333333334</ele><time>2026-04-24T10:05:42.998Z</time></trkpt><trkpt lat="44.964801644985904" lon="9.048636887495487"><ele>129.66666666666669</ele><time>2026-04-24T10:05:43.998Z</time></trkpt><trkpt lat="44.96466357187142" lon="9.048377585719056"><ele>130.0</ele><time>2026-04-24T10:05:44.998Z</time></trkpt><trkpt lat="44.96452554223891" lon="9.048117383306513"><ele>129.0</ele><time>2026-04-24T10:05:45.998Z</time></trkpt><trkpt lat="44.964385622601895" lon="9.047852849285071"><ele>128.0</ele><time>2026-04-24T10:05:46.998Z</time></trkpt><trkpt lat="44.96424263817498" lon="9.047582520985866"><ele>127.66666666666666</ele><time>2026-04-24T10:05:47.998Z</time></trkpt><trkpt lat="44.96410839670915" lon="9.047328241453936"><ele>127.33333333333334</ele><time>2026-04-24T10:05:48.998Z</time></trkpt><trkpt lat="44.96397945425863" lon="9.047083993335855"><ele>127.0</ele><time>2026-04-24T10:05:49.998Z</time></trkpt><trkpt lat="44.96384829794537" lon="9.046835551714361"><ele>127.33333333333334</ele><time>2026-04-24T10:05:50.998Z</time></trkpt><trkpt lat="44.96371574166653" lon="9.04658445814375"><ele>127.66666666666666</ele><time>2026-04-24T10:05:51.998Z</time></trkpt><trkpt lat="44.963584114696886" lon="9.046335124940704"><ele>128.0</ele><time>2026-04-24T10:05:52.998Z</time></trkpt><trkpt lat="44.9634569045946" lon="9.046094158315954"><ele>128.0</ele><time>2026-04-24T10:05:53.998Z</time></trkpt><trkpt lat="44.963325036646246" lon="9.045844368678694"><ele>128.0</ele><time>2026-04-24T10:05:54.998Z</time></trkpt><trkpt lat="44.9631933400197" lon="9.045594342779204"><ele>128.0</ele><time>2026-04-24T10:05:55.998Z</time></trkpt><trkpt lat="44.963063260912975" lon="9.045346556739359"><ele>128.0</ele><time>2026-04-24T10:05:56.998Z</time></trkpt><trkpt lat="44.962920043933735" lon="9.045084693346835"><ele>128.0</ele><time>2026-04-24T10:05:57.998Z</time></trkpt><trkpt lat="44.9627784568714" lon="9.044837901337296"><ele>127.66666666666666</ele><time>2026-04-24T10:05:58.998Z</time></trkpt><trkpt lat="44.96262442705753" lon="9.044611589856691"><ele>127.33333333333334</ele><time>2026-04-24T10:05:59.998Z</time></trkpt><trkpt lat="44.96248016639153" lon="9.044417323269185"><ele>127.0</ele><time>2026-04-24T10:06:00.998Z</time></trkpt><trkpt lat="44.96233230557424" lon="9.044216560215622"><ele>128.0</ele><time>2026-04-24T10:06:01.998Z</time></trkpt><trkpt lat="44.96213291882073" lon="9.044067435512392"><ele>129.0</ele><time>2026-04-24T10:06:02.998Z</time></trkpt><trkpt lat="44.96192643273746" lon="9.043928526275986"><ele>129.0</ele><time>2026-04-24T10:06:03.998Z</time></trkpt><trkpt lat="44.961736059802355" lon="9.043774592570145"><ele>129.0</ele><time>2026-04-24T10:06:04.998Z</time></trkpt><trkpt lat="44.96155813300631" lon="9.043592738549723"><ele>129.0</ele><time>2026-04-24T10:06:05.998Z</time></trkpt><trkpt lat="44.96137290360192" lon="9.043424901602753"><ele>129.0</ele><time>2026-04-24T10:06:06.998Z</time></trkpt><trkpt lat="44.961184477457195" lon="9.04325393552438"><ele>129.0</ele><time>2026-04-24T10:06:07.998Z</time></trkpt><trkpt lat="44.96101085602844" lon="9.04309640231975"><ele>129.0</ele><time>2026-04-24T10:06:08.998Z</time></trkpt><trkpt lat="44.96082998714439" lon="9.04293229329425"><ele>129.5</ele><time>2026-04-24T10:06:09.998Z</time></trkpt><trkpt lat="44.960649481670586" lon="9.042768743964638"><ele>130.0</ele><time>2026-04-24T10:06:10.998Z</time></trkpt><trkpt lat="44.96045150619997" lon="9.042589436021306"><ele>130.66666666666669</ele><time>2026-04-24T10:06:11.998Z</time></trkpt><trkpt lat="44.96025804888569" lon="9.042413984948084"><ele>131.33333333333334</ele><time>2026-04-24T10:06:12.998Z</time></trkpt><trkpt lat="44.960074466131395" lon="9.042246916723666"><ele>132.0</ele><time>2026-04-24T10:06:13.998Z</time></trkpt><trkpt lat="44.959858512260254" lon="9.042156053920326"><ele>132.5</ele><time>2026-04-24T10:06:14.998Z</time></trkpt><trkpt lat="44.95968119899078" lon="9.041960680774059"><ele>133.0</ele><time>2026-04-24T10:06:15.998Z</time></trkpt><trkpt lat="44.95949047013542" lon="9.041790960215229"><ele>133.5</ele><time>2026-04-24T10:06:16.998Z</time></trkpt><trkpt lat="44.95932784359178" lon="9.041567698126393"><ele>134.0</ele><time>2026-04-24T10:06:17.998Z</time></trkpt><trkpt lat="44.95912858992443" lon="9.04138663963328"><ele>134.33333333333331</ele><time>2026-04-24T10:06:18.998Z</time></trkpt><trkpt lat="44.958948943454075" lon="9.041223398120554"><ele>134.66666666666666</ele><time>2026-04-24T10:06:19.998Z</time></trkpt><trkpt lat="44.95875399750617" lon="9.041046253888185"><ele>135.0</ele><time>2026-04-24T10:06:20.998Z</time></trkpt><trkpt lat="44.95857255760027" lon="9.04088138240528"><ele>135.0</ele><time>2026-04-24T10:06:21.998Z</time></trkpt><trkpt lat="44.9583919876197" lon="9.040717301504495"><ele>135.0</ele><time>2026-04-24T10:06:22.998Z</time></trkpt><trkpt lat="44.95820332698968" lon="9.040545868763955"><ele>135.0</ele><time>2026-04-24T10:06:23.998Z</time></trkpt><trkpt lat="44.95801907308702" lon="9.040376369576483"><ele>135.66666666666666</ele><time>2026-04-24T10:06:24.998Z</time></trkpt><trkpt lat="44.95784816262401" lon="9.040200883434414"><ele>136.33333333333331</ele><time>2026-04-24T10:06:25.998Z</time></trkpt><trkpt lat="44.957675852371494" lon="9.039994605193863"><ele>137.0</ele><time>2026-04-24T10:06:26.998Z</time></trkpt><trkpt lat="44.957523163798285" lon="9.03977180655601"><ele>137.0</ele><time>2026-04-24T10:06:27.998Z</time></trkpt><trkpt lat="44.95738612325087" lon="9.039521758352732"><ele>137.0</ele><time>2026-04-24T10:06:28.998Z</time></trkpt><trkpt lat="44.957258390093976" lon="9.039257848817899"><ele>137.66666666666666</ele><time>2026-04-24T10:06:29.998Z</time></trkpt><trkpt lat="44.95714395892088" lon="9.038998416052618"><ele>138.33333333333334</ele><time>2026-04-24T10:06:30.998Z</time></trkpt><trkpt lat="44.95703157379205" lon="9.038735547679396"><ele>139.0</ele><time>2026-04-24T10:06:31.998Z</time></trkpt><trkpt lat="44.956915905221145" lon="9.038462466682661"><ele>139.0</ele><time>2026-04-24T10:06:32.998Z</time></trkpt><trkpt lat="44.956808698182854" lon="9.038211054052084"><ele>139.0</ele><time>2026-04-24T10:06:33.998Z</time></trkpt><trkpt lat="44.95669983392317" lon="9.037964720313687"><ele>139.0</ele><time>2026-04-24T10:06:34.998Z</time></trkpt><trkpt lat="44.95659041508137" lon="9.037720049286118"><ele>139.66666666666669</ele><time>2026-04-24T10:06:35.998Z</time></trkpt><trkpt lat="44.95646768150522" lon="9.037500355551439"><ele>140.33333333333334</ele><time>2026-04-24T10:06:36.998Z</time></trkpt><trkpt lat="44.956328036823244" lon="9.037279484992283"><ele>141.0</ele><time>2026-04-24T10:06:37.998Z</time></trkpt><trkpt lat="44.9561507316354" lon="9.037073999771755"><ele>141.5</ele><time>2026-04-24T10:06:38.998Z</time></trkpt><trkpt lat="44.95596616317867" lon="9.036873159917741"><ele>142.0</ele><time>2026-04-24T10:06:39.998Z</time></trkpt><trkpt lat="44.9557815324199" lon="9.036677970633118"><ele>142.66666666666669</ele><time>2026-04-24T10:06:40.998Z</time></trkpt><trkpt lat="44.95561930907957" lon="9.036460668703981"><ele>143.33333333333334</ele><time>2026-04-24T10:06:41.998Z</time></trkpt><trkpt lat="44.95546373075114" lon="9.03625587549969"><ele>144.0</ele><time>2026-04-24T10:06:42.998Z</time></trkpt><trkpt lat="44.95529759202699" lon="9.036059897812915"><ele>144.0</ele><time>2026-04-24T10:06:43.998Z</time></trkpt><trkpt lat="44.95514066038136" lon="9.035861518609714"><ele>144.0</ele><time>2026-04-24T10:06:44.998Z</time></trkpt><trkpt lat="44.95498263772012" lon="9.035660700224556"><ele>144.0</ele><time>2026-04-24T10:06:45.998Z</time></trkpt><trkpt lat="44.954823612186644" lon="9.035458494679219"><ele>144.0</ele><time>2026-04-24T10:06:46.998Z</time></trkpt><trkpt lat="44.95467310996266" lon="9.03526712687881"><ele>144.0</ele><time>2026-04-24T10:06:47.998Z</time></trkpt><trkpt lat="44.95453772492788" lon="9.03509536834827"><ele>144.0</ele><time>2026-04-24T10:06:48.998Z</time></trkpt><trkpt lat="44.954411505310965" lon="9.034935517756448"><ele>144.0</ele><time>2026-04-24T10:06:49.998Z</time></trkpt><trkpt lat="44.95428983801234" lon="9.034781432470508"><ele>144.0</ele><time>2026-04-24T10:06:50.998Z</time></trkpt><trkpt lat="44.95416955896514" lon="9.034629973111304"><ele>144.0</ele><time>2026-04-24T10:06:51.998Z</time></trkpt><trkpt lat="44.954067169697936" lon="9.034502422398646"><ele>144.2</ele><time>2026-04-24T10:06:52.998Z</time></trkpt><trkpt lat="44.953980923008736" lon="9.034394981288395"><ele>144.4</ele><time>2026-04-24T10:06:53.998Z</time></trkpt><trkpt lat="44.95389706538045" lon="9.034289274324784"><ele>144.6</ele><time>2026-04-24T10:06:54.998Z</time></trkpt><trkpt lat="44.95382004608345" lon="9.034189636554148"><ele>144.8</ele><time>2026-04-24T10:06:55.998Z</time></trkpt><trkpt lat="44.95375742876236" lon="9.034098059647482"><ele>145.0</ele><time>2026-04-24T10:06:56.998Z</time></trkpt><trkpt lat="44.95371338242587" lon="9.03401211635275"><ele>145.0</ele><time>2026-04-24T10:06:57.998Z</time></trkpt><trkpt lat="44.95366781312028" lon="9.033900514469053"><ele>145.0</ele><time>2026-04-24T10:06:59.998Z</time></trkpt><trkpt lat="44.953640197394215" lon="9.033757359917281"><ele>145.0</ele><time>2026-04-24T10:07:01.998Z</time></trkpt><trkpt lat="44.95356484889481" lon="9.03368631728174"><ele>145.0</ele><time>2026-04-24T10:07:02.998Z</time></trkpt><trkpt lat="44.95349506180302" lon="9.033641283119195"><ele>145.0</ele><time>2026-04-24T10:07:03.998Z</time></trkpt><trkpt lat="44.95339970255766" lon="9.033570354200016"><ele>144.75</ele><time>2026-04-24T10:07:04.998Z</time></trkpt><trkpt lat="44.9533011908465" lon="9.033499428075379"><ele>144.5</ele><time>2026-04-24T10:07:05.998Z</time></trkpt><trkpt lat="44.953191287924206" lon="9.033380262622158"><ele>144.25</ele><time>2026-04-24T10:07:06.998Z</time></trkpt><trkpt lat="44.95306635971511" lon="9.03323542283524"><ele>144.0</ele><time>2026-04-24T10:07:07.998Z</time></trkpt><trkpt lat="44.95292614615056" lon="9.033079648261348"><ele>143.66666666666666</ele><time>2026-04-24T10:07:08.998Z</time></trkpt><trkpt lat="44.95280188874861" lon="9.032896988783651"><ele>143.33333333333331</ele><time>2026-04-24T10:07:09.998Z</time></trkpt><trkpt lat="44.95266011851656" lon="9.03271932850936"><ele>143.0</ele><time>2026-04-24T10:07:10.998Z</time></trkpt><trkpt lat="44.95251331271335" lon="9.032535359359427"><ele>144.0</ele><time>2026-04-24T10:07:11.998Z</time></trkpt><trkpt lat="44.95232656345772" lon="9.032299053252036"><ele>145.0</ele><time>2026-04-24T10:07:12.998Z</time></trkpt><trkpt lat="44.952130280865376" lon="9.032049890963673"><ele>145.0</ele><time>2026-04-24T10:07:13.998Z</time></trkpt><trkpt lat="44.951922255042284" lon="9.03178554455629"><ele>145.0</ele><time>2026-04-24T10:07:14.998Z</time></trkpt><trkpt lat="44.951714868825306" lon="9.031521998416798"><ele>145.0</ele><time>2026-04-24T10:07:15.998Z</time></trkpt><trkpt lat="44.951525500410646" lon="9.031281350019443"><ele>145.0</ele><time>2026-04-24T10:07:16.998Z</time></trkpt><trkpt lat="44.95134982632833" lon="9.031058103988865"><ele>145.0</ele><time>2026-04-24T10:07:17.998Z</time></trkpt><trkpt lat="44.951197886342705" lon="9.030865019601864"><ele>145.0</ele><time>2026-04-24T10:07:18.998Z</time></trkpt><trkpt lat="44.951047633158964" lon="9.030674141506406"><ele>145.0</ele><time>2026-04-24T10:07:19.998Z</time></trkpt><trkpt lat="44.95090297283141" lon="9.030489797463005"><ele>145.0</ele><time>2026-04-24T10:07:20.998Z</time></trkpt><trkpt lat="44.950759450641215" lon="9.030306168876521"><ele>145.0</ele><time>2026-04-24T10:07:21.998Z</time></trkpt><trkpt lat="44.950618927441326" lon="9.030126377253525"><ele>145.0</ele><time>2026-04-24T10:07:22.998Z</time></trkpt><trkpt lat="44.95046563854697" lon="9.029930252386213"><ele>143.5</ele><time>2026-04-24T10:07:23.998Z</time></trkpt><trkpt lat="44.95027978749726" lon="9.029703840066107"><ele>142.0</ele><time>2026-04-24T10:07:24.998Z</time></trkpt><trkpt lat="44.95008490616009" lon="9.029501829008671"><ele>142.0</ele><time>2026-04-24T10:07:25.998Z</time></trkpt><trkpt lat="44.94991510115894" lon="9.029327630613553"><ele>142.0</ele><time>2026-04-24T10:07:26.998Z</time></trkpt><trkpt lat="44.94970602988098" lon="9.02912349067643"><ele>142.0</ele><time>2026-04-24T10:07:27.998Z</time></trkpt><trkpt lat="44.94947713793586" lon="9.02901260208641"><ele>142.0</ele><time>2026-04-24T10:07:28.998Z</time></trkpt><trkpt lat="44.949234040651895" lon="9.028952054208458"><ele>143.0</ele><time>2026-04-24T10:07:29.998Z</time></trkpt><trkpt lat="44.94897063593876" lon="9.028846702117372"><ele>144.0</ele><time>2026-04-24T10:07:30.998Z</time></trkpt><trkpt lat="44.948705414981255" lon="9.028747954111324"><ele>144.0</ele><time>2026-04-24T10:07:31.998Z</time></trkpt><trkpt lat="44.948440691077685" lon="9.02865682583579"><ele>144.0</ele><time>2026-04-24T10:07:32.997Z</time></trkpt><trkpt lat="44.948178553738245" lon="9.028558297627502"><ele>144.0</ele><time>2026-04-24T10:07:33.997Z</time></trkpt><trkpt lat="44.947912557720805" lon="9.02846066887552"><ele>144.0</ele><time>2026-04-24T10:07:34.997Z</time></trkpt><trkpt lat="44.947666563790975" lon="9.028360305083194"><ele>142.5</ele><time>2026-04-24T10:07:35.997Z</time></trkpt><trkpt lat="44.947413620013634" lon="9.028229529967081"><ele>141.0</ele><time>2026-04-24T10:07:36.997Z</time></trkpt><trkpt lat="44.94714718788552" lon="9.028114000430145"><ele>141.0</ele><time>2026-04-24T10:07:37.997Z</time></trkpt><trkpt lat="44.94687670891966" lon="9.028012982631285"><ele>141.0</ele><time>2026-04-24T10:07:38.997Z</time></trkpt><trkpt lat="44.9466293371349" lon="9.027889082284657"><ele>142.0</ele><time>2026-04-24T10:07:39.997Z</time></trkpt><trkpt lat="44.946377894397834" lon="9.027757431040326"><ele>143.0</ele><time>2026-04-24T10:07:40.997Z</time></trkpt><trkpt lat="44.94613361485464" lon="9.027669504388017"><ele>143.0</ele><time>2026-04-24T10:07:41.997Z</time></trkpt><trkpt lat="44.94590488250926" lon="9.027565890071669"><ele>143.0</ele><time>2026-04-24T10:07:42.997Z</time></trkpt><trkpt lat="44.94568389955161" lon="9.027453647436326"><ele>143.0</ele><time>2026-04-24T10:07:43.997Z</time></trkpt><trkpt lat="44.945432657006336" lon="9.027375408503625"><ele>143.0</ele><time>2026-04-24T10:07:44.997Z</time></trkpt><trkpt lat="44.945202256610415" lon="9.027280720237544"><ele>142.0</ele><time>2026-04-24T10:07:45.997Z</time></trkpt><trkpt lat="44.9449645986923" lon="9.027176392731397"><ele>141.0</ele><time>2026-04-24T10:07:46.997Z</time></trkpt><trkpt lat="44.94473353777621" lon="9.027077956579095"><ele>141.0</ele><time>2026-04-24T10:07:47.997Z</time></trkpt><trkpt lat="44.94450100652329" lon="9.0269895049678"><ele>141.0</ele><time>2026-04-24T10:07:48.997Z</time></trkpt><trkpt lat="44.944258919737635" lon="9.026936119681697"><ele>142.5</ele><time>2026-04-24T10:07:49.997Z</time></trkpt><trkpt lat="44.94404239510683" lon="9.026855970906324"><ele>144.0</ele><time>2026-04-24T10:07:50.997Z</time></trkpt><trkpt lat="44.94379511579823" lon="9.026829157247576"><ele>144.0</ele><time>2026-04-24T10:07:51.997Z</time></trkpt><trkpt lat="44.94355602283899" lon="9.026778718901348"><ele>144.0</ele><time>2026-04-24T10:07:52.997Z</time></trkpt><trkpt lat="44.94331322054073" lon="9.026712780804221"><ele>145.5</ele><time>2026-04-24T10:07:53.997Z</time></trkpt><trkpt lat="44.943069170275415" lon="9.026644953053642"><ele>147.0</ele><time>2026-04-24T10:07:54.997Z</time></trkpt><trkpt lat="44.94280538991565" lon="9.026590476750647"><ele>144.0</ele><time>2026-04-24T10:07:55.997Z</time></trkpt><trkpt lat="44.94257191018689" lon="9.026508173706654"><ele>141.0</ele><time>2026-04-24T10:07:56.997Z</time></trkpt><trkpt lat="44.94231557455894" lon="9.026444047549374"><ele>140.5</ele><time>2026-04-24T10:07:57.997Z</time></trkpt><trkpt lat="44.94206257887716" lon="9.026386776132378"><ele>140.0</ele><time>2026-04-24T10:07:58.997Z</time></trkpt><trkpt lat="44.94183366066954" lon="9.02631616391814"><ele>141.0</ele><time>2026-04-24T10:07:59.997Z</time></trkpt><trkpt lat="44.94161127704554" lon="9.02625578424523"><ele>142.0</ele><time>2026-04-24T10:08:00.997Z</time></trkpt><trkpt lat="44.941385961300774" lon="9.026227620029246"><ele>142.0</ele><time>2026-04-24T10:08:01.997Z</time></trkpt><trkpt lat="44.941192812802136" lon="9.026141051987725"><ele>142.0</ele><time>2026-04-24T10:08:02.997Z</time></trkpt><trkpt lat="44.94102934422285" lon="9.025980959640329"><ele>142.0</ele><time>2026-04-24T10:08:03.997Z</time></trkpt><trkpt lat="44.94085964390678" lon="9.025862411290046"><ele>141.33333333333334</ele><time>2026-04-24T10:08:04.997Z</time></trkpt><trkpt lat="44.94068408810133" lon="9.025739045524315"><ele>140.66666666666666</ele><time>2026-04-24T10:08:05.997Z</time></trkpt><trkpt lat="44.940506595943155" lon="9.02561366974817"><ele>140.0</ele><time>2026-04-24T10:08:06.997Z</time></trkpt><trkpt lat="44.940313308244335" lon="9.025476680778516"><ele>140.0</ele><time>2026-04-24T10:08:07.997Z</time></trkpt><trkpt lat="44.94011234852955" lon="9.025334052798133"><ele>140.0</ele><time>2026-04-24T10:08:08.997Z</time></trkpt><trkpt lat="44.93992465824631" lon="9.02519857836579"><ele>140.0</ele><time>2026-04-24T10:08:09.997Z</time></trkpt><trkpt lat="44.93973427659953" lon="9.025052135934756"><ele>139.66666666666666</ele><time>2026-04-24T10:08:10.997Z</time></trkpt><trkpt lat="44.93955925860927" lon="9.02488091131843"><ele>139.33333333333334</ele><time>2026-04-24T10:08:11.997Z</time></trkpt><trkpt lat="44.939340712702396" lon="9.024785362441548"><ele>139.0</ele><time>2026-04-24T10:08:12.997Z</time></trkpt><trkpt lat="44.939170748960755" lon="9.024580953207682"><ele>139.33333333333334</ele><time>2026-04-24T10:08:13.997Z</time></trkpt><trkpt lat="44.939012583293184" lon="9.024373472985182"><ele>139.66666666666666</ele><time>2026-04-24T10:08:14.997Z</time></trkpt><trkpt lat="44.93885498272285" lon="9.024161631502665"><ele>140.0</ele><time>2026-04-24T10:08:15.997Z</time></trkpt><trkpt lat="44.93873083098467" lon="9.023896796708819"><ele>140.0</ele><time>2026-04-24T10:08:16.997Z</time></trkpt><trkpt lat="44.93855517096036" lon="9.023692276201434"><ele>140.0</ele><time>2026-04-24T10:08:17.997Z</time></trkpt><trkpt lat="44.93837442376902" lon="9.023503647651086"><ele>140.0</ele><time>2026-04-24T10:08:18.997Z</time></trkpt><trkpt lat="44.9381878707025" lon="9.023337527337958"><ele>140.0</ele><time>2026-04-24T10:08:19.997Z</time></trkpt><trkpt lat="44.9380078858548" lon="9.023158043897567"><ele>140.0</ele><time>2026-04-24T10:08:20.997Z</time></trkpt><trkpt lat="44.93779190766441" lon="9.023019217846235"><ele>140.0</ele><time>2026-04-24T10:08:21.997Z</time></trkpt><trkpt lat="44.93758119388973" lon="9.022862966872708"><ele>140.0</ele><time>2026-04-24T10:08:22.997Z</time></trkpt><trkpt lat="44.93739480259104" lon="9.022722103230857"><ele>140.0</ele><time>2026-04-24T10:08:23.997Z</time></trkpt><trkpt lat="44.93720414812788" lon="9.02260825965759"><ele>139.66666666666666</ele><time>2026-04-24T10:08:24.997Z</time></trkpt><trkpt lat="44.93698619108768" lon="9.022552469877724"><ele>139.33333333333334</ele><time>2026-04-24T10:08:25.997Z</time></trkpt><trkpt lat="44.93680525288944" lon="9.022458642707807"><ele>139.0</ele><time>2026-04-24T10:08:26.997Z</time></trkpt><trkpt lat="44.93659974757049" lon="9.022430271711368"><ele>139.0</ele><time>2026-04-24T10:08:27.997Z</time></trkpt><trkpt lat="44.93639900453573" lon="9.022373293786604"><ele>139.0</ele><time>2026-04-24T10:08:28.997Z</time></trkpt><trkpt lat="44.93619348710639" lon="9.022350674542661"><ele>139.0</ele><time>2026-04-24T10:08:29.997Z</time></trkpt><trkpt lat="44.93599021040906" lon="9.022307626515817"><ele>141.0</ele><time>2026-04-24T10:08:30.997Z</time></trkpt><trkpt lat="44.9357986332235" lon="9.022293432362515"><ele>143.0</ele><time>2026-04-24T10:08:31.997Z</time></trkpt><trkpt lat="44.93561196061066" lon="9.022255442161747"><ele>145.0</ele><time>2026-04-24T10:08:32.997Z</time></trkpt><trkpt lat="44.9353998996867" lon="9.022205961332608"><ele>145.0</ele><time>2026-04-24T10:08:33.997Z</time></trkpt><trkpt lat="44.9352034072237" lon="9.02213506008603"><ele>145.0</ele><time>2026-04-24T10:08:34.997Z</time></trkpt><trkpt lat="44.93502235980756" lon="9.022049343872819"><ele>145.0</ele><time>2026-04-24T10:08:35.997Z</time></trkpt><trkpt lat="44.93482949910933" lon="9.022015780547909"><ele>145.66666666666669</ele><time>2026-04-24T10:08:36.997Z</time></trkpt><trkpt lat="44.934661788699835" lon="9.02198782086237"><ele>146.33333333333334</ele><time>2026-04-24T10:08:37.997Z</time></trkpt><trkpt lat="44.93451304832971" lon="9.021949774431965"><ele>147.0</ele><time>2026-04-24T10:08:38.997Z</time></trkpt><trkpt lat="44.93437265391902" lon="9.021934684240897"><ele>147.0</ele><time>2026-04-24T10:08:39.997Z</time></trkpt><trkpt lat="44.934248618005824" lon="9.021876444938155"><ele>147.0</ele><time>2026-04-24T10:08:40.997Z</time></trkpt><trkpt lat="44.93412819884632" lon="9.02187709313985"><ele>147.0</ele><time>2026-04-24T10:08:41.997Z</time></trkpt><trkpt lat="44.934005394765286" lon="9.021844107527386"><ele>147.0</ele><time>2026-04-24T10:08:42.997Z</time></trkpt><trkpt lat="44.93388764785756" lon="9.021797853602303"><ele>147.0</ele><time>2026-04-24T10:08:43.997Z</time></trkpt><trkpt lat="44.93377736909464" lon="9.021754533266026"><ele>147.0</ele><time>2026-04-24T10:08:44.997Z</time></trkpt><trkpt lat="44.93366272669334" lon="9.021725413360288"><ele>147.0</ele><time>2026-04-24T10:08:45.997Z</time></trkpt><trkpt lat="44.93358950277178" lon="9.021633799476879"><ele>147.0</ele><time>2026-04-24T10:08:46.997Z</time></trkpt><trkpt lat="44.933481472847284" lon="9.02157644849545"><ele>147.0</ele><time>2026-04-24T10:08:47.997Z</time></trkpt><trkpt lat="44.93335690768774" lon="9.021536373166034"><ele>146.75</ele><time>2026-04-24T10:08:48.997Z</time></trkpt><trkpt lat="44.93320976280792" lon="9.02150889647768"><ele>146.5</ele><time>2026-04-24T10:08:49.997Z</time></trkpt><trkpt lat="44.933112482930774" lon="9.021440989802947"><ele>146.25</ele><time>2026-04-24T10:08:50.997Z</time></trkpt><trkpt lat="44.933002284254385" lon="9.021424559462124"><ele>146.0</ele><time>2026-04-24T10:08:51.997Z</time></trkpt><trkpt lat="44.93287662698813" lon="9.021371045098828"><ele>146.0</ele><time>2026-04-24T10:08:52.997Z</time></trkpt><trkpt lat="44.93275075578379" lon="9.02133092678031"><ele>146.0</ele><time>2026-04-24T10:08:53.997Z</time></trkpt><trkpt lat="44.93263896323612" lon="9.021264308776594"><ele>146.0</ele><time>2026-04-24T10:08:54.997Z</time></trkpt><trkpt lat="44.932535086674875" lon="9.021195130872899"><ele>146.0</ele><time>2026-04-24T10:08:55.997Z</time></trkpt><trkpt lat="44.93240574023647" lon="9.021174359019797"><ele>146.75</ele><time>2026-04-24T10:08:56.997Z</time></trkpt><trkpt lat="44.93229418076625" lon="9.021153778397116"><ele>147.5</ele><time>2026-04-24T10:08:57.997Z</time></trkpt><trkpt lat="44.93215486308383" lon="9.021132488180836"><ele>148.25</ele><time>2026-04-24T10:08:58.997Z</time></trkpt><trkpt lat="44.93203595805514" lon="9.021094517976183"><ele>149.0</ele><time>2026-04-24T10:08:59.997Z</time></trkpt><trkpt lat="44.931925732008956" lon="9.021033568669225"><ele>149.0</ele><time>2026-04-24T10:09:00.997Z</time></trkpt><trkpt lat="44.931799603165416" lon="9.02098563902317"><ele>149.0</ele><time>2026-04-24T10:09:01.997Z</time></trkpt><trkpt lat="44.9316923766972" lon="9.020957857364442"><ele>149.0</ele><time>2026-04-24T10:09:02.997Z</time></trkpt><trkpt lat="44.93158954409304" lon="9.02090533474666"><ele>149.0</ele><time>2026-04-24T10:09:03.997Z</time></trkpt><trkpt lat="44.93147704393504" lon="9.020861954270762"><ele>148.8</ele><time>2026-04-24T10:09:04.997Z</time></trkpt><trkpt lat="44.93136942845391" lon="9.020834404091895"><ele>148.60000000000002</ele><time>2026-04-24T10:09:05.997Z</time></trkpt><trkpt lat="44.931253197177135" lon="9.020774592710172"><ele>148.4</ele><time>2026-04-24T10:09:06.997Z</time></trkpt><trkpt lat="44.93115651971887" lon="9.020736557057598"><ele>148.20000000000002</ele><time>2026-04-24T10:09:07.997Z</time></trkpt><trkpt lat="44.931055590405286" lon="9.020696848587168"><ele>148.0</ele><time>2026-04-24T10:09:08.997Z</time></trkpt><trkpt lat="44.93094927357012" lon="9.020655020573285"><ele>148.4</ele><time>2026-04-24T10:09:09.997Z</time></trkpt><trkpt lat="44.930847548904794" lon="9.020615150668467"><ele>148.8</ele><time>2026-04-24T10:09:10.997Z</time></trkpt><trkpt lat="44.93073131791963" lon="9.020568625019207"><ele>149.2</ele><time>2026-04-24T10:09:11.997Z</time></trkpt><trkpt lat="44.93064007771674" lon="9.020527857991242"><ele>149.6</ele><time>2026-04-24T10:09:12.997Z</time></trkpt><trkpt lat="44.93055711852507" lon="9.020479619679056"><ele>150.0</ele><time>2026-04-24T10:09:13.997Z</time></trkpt><trkpt lat="44.93048198912747" lon="9.020445997431743"><ele>150.0</ele><time>2026-04-24T10:09:14.997Z</time></trkpt><trkpt lat="44.9304128773434" lon="9.020363551342461"><ele>150.0</ele><time>2026-04-24T10:09:15.997Z</time></trkpt><trkpt lat="44.9303429449374" lon="9.020283967695692"><ele>150.0</ele><time>2026-04-24T10:09:16.997Z</time></trkpt><trkpt lat="44.930231201535484" lon="9.020268513321389"><ele>150.0</ele><time>2026-04-24T10:09:17.997Z</time></trkpt><trkpt lat="44.93015799813018" lon="9.02019323960551"><ele>150.0</ele><time>2026-04-24T10:09:19.997Z</time></trkpt><trkpt lat="44.93010504329247" lon="9.020112019512403"><ele>150.33333333333334</ele><time>2026-04-24T10:09:23.997Z</time></trkpt><trkpt lat="44.930055631276645" lon="9.020024255290803"><ele>150.66666666666666</ele><time>2026-04-24T10:09:25.999Z</time></trkpt><trkpt lat="44.92993791877659" lon="9.019986757951552"><ele>151.0</ele><time>2026-04-24T10:09:27.999Z</time></trkpt><trkpt lat="44.92989453362385" lon="9.020062164930318"><ele>151.33333333333331</ele><time>2026-04-24T10:09:28.999Z</time></trkpt><trkpt lat="44.92988005551906" lon="9.020162252937084"><ele>151.66666666666666</ele><time>2026-04-24T10:09:30.999Z</time></trkpt><trkpt lat="44.92983456760654" lon="9.020252552055807"><ele>152.0</ele><time>2026-04-24T10:09:32Z</time></trkpt><trkpt lat="44.929773668191814" lon="9.020325673560565"><ele>152.0</ele><time>2026-04-24T10:09:33Z</time></trkpt><trkpt lat="44.929699771188766" lon="9.020415020603943"><ele>152.0</ele><time>2026-04-24T10:09:34Z</time></trkpt><trkpt lat="44.92963192263588" lon="9.020499527429346"><ele>152.0</ele><time>2026-04-24T10:09:35Z</time></trkpt><trkpt lat="44.929568991497334" lon="9.020566895095321"><ele>152.0</ele><time>2026-04-24T10:09:36Z</time></trkpt><trkpt lat="44.92949241800428" lon="9.020661548750759"><ele>152.0</ele><time>2026-04-24T10:09:37Z</time></trkpt><trkpt lat="44.9294150194031" lon="9.020784709768758"><ele>152.2</ele><time>2026-04-24T10:09:38Z</time></trkpt><trkpt lat="44.92933815505461" lon="9.020875112317066"><ele>152.39999999999998</ele><time>2026-04-24T10:09:39Z</time></trkpt><trkpt lat="44.92926601429714" lon="9.020942937934942"><ele>152.60000000000002</ele><time>2026-04-24T10:09:40Z</time></trkpt><trkpt lat="44.92920379497404" lon="9.021035663649952"><ele>152.8</ele><time>2026-04-24T10:09:41Z</time></trkpt><trkpt lat="44.929134396653026" lon="9.021128120189717"><ele>153.0</ele><time>2026-04-24T10:09:42Z</time></trkpt><trkpt lat="44.92905609288751" lon="9.021220773280586"><ele>153.25</ele><time>2026-04-24T10:09:43Z</time></trkpt><trkpt lat="44.92897605300727" lon="9.021318052851917"><ele>153.5</ele><time>2026-04-24T10:09:44Z</time></trkpt><trkpt lat="44.92887956368413" lon="9.02141772504619"><ele>153.75</ele><time>2026-04-24T10:09:45Z</time></trkpt><trkpt lat="44.928785367285386" lon="9.021512978488435"><ele>154.0</ele><time>2026-04-24T10:09:46Z</time></trkpt><trkpt lat="44.9286721462344" lon="9.02162159066628"><ele>154.25</ele><time>2026-04-24T10:09:47Z</time></trkpt><trkpt lat="44.9285759330337" lon="9.021756033807318"><ele>154.5</ele><time>2026-04-24T10:09:48Z</time></trkpt><trkpt lat="44.928473078042316" lon="9.021891685250237"><ele>154.75</ele><time>2026-04-24T10:09:49Z</time></trkpt><trkpt lat="44.928380567969626" lon="9.022032031651277"><ele>155.0</ele><time>2026-04-24T10:09:50Z</time></trkpt><trkpt lat="44.9282934411469" lon="9.02214615599781"><ele>155.0</ele><time>2026-04-24T10:09:51Z</time></trkpt><trkpt lat="44.92817850071175" lon="9.022278652908803"><ele>155.0</ele><time>2026-04-24T10:09:52Z</time></trkpt><trkpt lat="44.928073640251704" lon="9.022407910376543"><ele>155.0</ele><time>2026-04-24T10:09:53Z</time></trkpt><trkpt lat="44.927964468461056" lon="9.02254223892651"><ele>155.0</ele><time>2026-04-24T10:09:54Z</time></trkpt><trkpt lat="44.92786752302533" lon="9.022661523595838"><ele>155.0</ele><time>2026-04-24T10:09:55Z</time></trkpt><trkpt lat="44.927747914639" lon="9.022808778652015"><ele>155.0</ele><time>2026-04-24T10:09:56Z</time></trkpt><trkpt lat="44.92765173416044" lon="9.02292746887153"><ele>155.0</ele><time>2026-04-24T10:09:57Z</time></trkpt><trkpt lat="44.92755531635163" lon="9.023046451831672"><ele>155.0</ele><time>2026-04-24T10:09:58Z</time></trkpt><trkpt lat="44.927448090342935" lon="9.023165070052213"><ele>155.0</ele><time>2026-04-24T10:09:59Z</time></trkpt><trkpt lat="44.92733743728303" lon="9.02327917860617"><ele>155.0</ele><time>2026-04-24T10:10:00Z</time></trkpt><trkpt lat="44.927237402216676" lon="9.023404107403435"><ele>155.0</ele><time>2026-04-24T10:10:01Z</time></trkpt><trkpt lat="44.92714734148297" lon="9.02351173527084"><ele>155.0</ele><time>2026-04-24T10:10:02Z</time></trkpt><trkpt lat="44.92704031704672" lon="9.023644839440971"><ele>155.25</ele><time>2026-04-24T10:10:03Z</time></trkpt><trkpt lat="44.92693485156396" lon="9.023776866191858"><ele>155.5</ele><time>2026-04-24T10:10:04Z</time></trkpt><trkpt lat="44.92684245277841" lon="9.023892184915892"><ele>155.75</ele><time>2026-04-24T10:10:05Z</time></trkpt><trkpt lat="44.92674481199077" lon="9.024041806316061"><ele>156.0</ele><time>2026-04-24T10:10:06Z</time></trkpt><trkpt lat="44.92663811462041" lon="9.02416697120055"><ele>156.25</ele><time>2026-04-24T10:10:07Z</time></trkpt><trkpt lat="44.92653477619622" lon="9.024290734496546"><ele>156.5</ele><time>2026-04-24T10:10:08Z</time></trkpt><trkpt lat="44.92641483891581" lon="9.024427254846259"><ele>156.75</ele><time>2026-04-24T10:10:09Z</time></trkpt><trkpt lat="44.92630707381973" lon="9.024569546187191"><ele>157.0</ele><time>2026-04-24T10:10:10Z</time></trkpt><trkpt lat="44.9262233977915" lon="9.024695064064963"><ele>157.0</ele><time>2026-04-24T10:10:11Z</time></trkpt><trkpt lat="44.926106660468875" lon="9.02482403808944"><ele>157.0</ele><time>2026-04-24T10:10:12Z</time></trkpt><trkpt lat="44.92599344866439" lon="9.024972587554489"><ele>157.0</ele><time>2026-04-24T10:10:13Z</time></trkpt><trkpt lat="44.92589307373424" lon="9.02509153111492"><ele>157.0</ele><time>2026-04-24T10:10:14Z</time></trkpt><trkpt lat="44.92580127437288" lon="9.025215865255955"><ele>157.0</ele><time>2026-04-24T10:10:15Z</time></trkpt><trkpt lat="44.92571246035814" lon="9.025345799398737"><ele>157.0</ele><time>2026-04-24T10:10:16Z</time></trkpt><trkpt lat="44.9256012523862" lon="9.025451353416466"><ele>157.0</ele><time>2026-04-24T10:10:17Z</time></trkpt><trkpt lat="44.92548832927833" lon="9.02559769893017"><ele>157.0</ele><time>2026-04-24T10:10:18Z</time></trkpt><trkpt lat="44.925382451626504" lon="9.02573613310704"><ele>157.0</ele><time>2026-04-24T10:10:19Z</time></trkpt><trkpt lat="44.92525893718077" lon="9.025882019541331"><ele>157.0</ele><time>2026-04-24T10:10:20Z</time></trkpt><trkpt lat="44.92514023472091" lon="9.026029175897268"><ele>157.0</ele><time>2026-04-24T10:10:21Z</time></trkpt><trkpt lat="44.92502713904849" lon="9.02617304136884"><ele>157.0</ele><time>2026-04-24T10:10:21.999Z</time></trkpt><trkpt lat="44.92490426107347" lon="9.02630547863006"><ele>157.0</ele><time>2026-04-24T10:10:22.999Z</time></trkpt><trkpt lat="44.92477905115939" lon="9.026453392939498"><ele>157.0</ele><time>2026-04-24T10:10:23.999Z</time></trkpt><trkpt lat="44.92466586505276" lon="9.026607404489154"><ele>157.33333333333334</ele><time>2026-04-24T10:10:24.999Z</time></trkpt><trkpt lat="44.92453891246163" lon="9.026747759305108"><ele>157.66666666666666</ele><time>2026-04-24T10:10:25.999Z</time></trkpt><trkpt lat="44.92440306115689" lon="9.026895636175345"><ele>158.0</ele><time>2026-04-24T10:10:26.999Z</time></trkpt><trkpt lat="44.924292407874084" lon="9.027047793119609"><ele>158.0</ele><time>2026-04-24T10:10:27.999Z</time></trkpt><trkpt lat="44.924179420734006" lon="9.027201637089803"><ele>158.0</ele><time>2026-04-24T10:10:28.999Z</time></trkpt><trkpt lat="44.92406523126168" lon="9.027360082257207"><ele>158.0</ele><time>2026-04-24T10:10:29.999Z</time></trkpt><trkpt lat="44.92394801370911" lon="9.027503505949701"><ele>158.33333333333331</ele><time>2026-04-24T10:10:30.999Z</time></trkpt><trkpt lat="44.923827212184584" lon="9.027643365760445"><ele>158.66666666666666</ele><time>2026-04-24T10:10:31.999Z</time></trkpt><trkpt lat="44.92370406599413" lon="9.027784288232631"><ele>159.0</ele><time>2026-04-24T10:10:32.999Z</time></trkpt><trkpt lat="44.92359795033237" lon="9.027935171107467"><ele>159.0</ele><time>2026-04-24T10:10:33.999Z</time></trkpt><trkpt lat="44.923484359286206" lon="9.02807915136248"><ele>159.0</ele><time>2026-04-24T10:10:34.999Z</time></trkpt><trkpt lat="44.923366472562805" lon="9.02820928378585"><ele>159.0</ele><time>2026-04-24T10:10:35.999Z</time></trkpt><trkpt lat="44.92325528694326" lon="9.028370634003771"><ele>159.75</ele><time>2026-04-24T10:10:36.999Z</time></trkpt><trkpt lat="44.923129244449704" lon="9.028509492258507"><ele>160.5</ele><time>2026-04-24T10:10:37.999Z</time></trkpt><trkpt lat="44.923026670365275" lon="9.028643704267067"><ele>161.25</ele><time>2026-04-24T10:10:38.999Z</time></trkpt><trkpt lat="44.9229205119547" lon="9.028764679594076"><ele>162.0</ele><time>2026-04-24T10:10:39.999Z</time></trkpt><trkpt lat="44.922812249035836" lon="9.02890446784779"><ele>162.0</ele><time>2026-04-24T10:10:40.999Z</time></trkpt><trkpt lat="44.92269793258542" lon="9.029038450826542"><ele>162.0</ele><time>2026-04-24T10:10:41.999Z</time></trkpt><trkpt lat="44.92258088805323" lon="9.0291569315448"><ele>162.0</ele><time>2026-04-24T10:10:42.999Z</time></trkpt><trkpt lat="44.92246893154637" lon="9.02926695030036"><ele>162.0</ele><time>2026-04-24T10:10:43.999Z</time></trkpt><trkpt lat="44.922367443282646" lon="9.029405495357508"><ele>162.33333333333334</ele><time>2026-04-24T10:10:44.999Z</time></trkpt><trkpt lat="44.92224475394374" lon="9.029544203606012"><ele>162.66666666666669</ele><time>2026-04-24T10:10:45.999Z</time></trkpt><trkpt lat="44.92213763906975" lon="9.02968069694954"><ele>163.0</ele><time>2026-04-24T10:10:46.999Z</time></trkpt><trkpt lat="44.92201540750885" lon="9.02981599406124"><ele>163.0</ele><time>2026-04-24T10:10:47.999Z</time></trkpt><trkpt lat="44.92189874029514" lon="9.029945510239425"><ele>163.0</ele><time>2026-04-24T10:10:48.999Z</time></trkpt><trkpt lat="44.9217948795091" lon="9.030062354370848"><ele>163.0</ele><time>2026-04-24T10:10:49.999Z</time></trkpt><trkpt lat="44.92168689740124" lon="9.030195637919118"><ele>163.0</ele><time>2026-04-24T10:10:50.999Z</time></trkpt><trkpt lat="44.92158414998253" lon="9.030334884345123"><ele>163.0</ele><time>2026-04-24T10:10:51.999Z</time></trkpt><trkpt lat="44.921503887097884" lon="9.030429624396296"><ele>163.0</ele><time>2026-04-24T10:10:52.999Z</time></trkpt><trkpt lat="44.92140812561644" lon="9.030507452815995"><ele>163.0</ele><time>2026-04-24T10:10:53.999Z</time></trkpt><trkpt lat="44.92131574687331" lon="9.030597860423795"><ele>163.0</ele><time>2026-04-24T10:10:54.999Z</time></trkpt><trkpt lat="44.92123306627271" lon="9.030685607250907"><ele>163.0</ele><time>2026-04-24T10:10:55.999Z</time></trkpt><trkpt lat="44.92115471190397" lon="9.03079593509341"><ele>163.60000000000002</ele><time>2026-04-24T10:10:56.999Z</time></trkpt><trkpt lat="44.921068441352" lon="9.030886927118937"><ele>164.20000000000002</ele><time>2026-04-24T10:10:57.999Z</time></trkpt><trkpt lat="44.92100908023943" lon="9.030986154595595"><ele>164.8</ele><time>2026-04-24T10:10:58.999Z</time></trkpt><trkpt lat="44.92092492817954" lon="9.03106817841849"><ele>165.4</ele><time>2026-04-24T10:10:59.999Z</time></trkpt><trkpt lat="44.92084575305584" lon="9.031125913446893"><ele>166.0</ele><time>2026-04-24T10:11:00.999Z</time></trkpt><trkpt lat="44.92078404698177" lon="9.031180517863726"><ele>166.16666666666669</ele><time>2026-04-24T10:11:01.999Z</time></trkpt><trkpt lat="44.92069983180544" lon="9.031166839337116"><ele>166.33333333333334</ele><time>2026-04-24T10:11:03.999Z</time></trkpt><trkpt lat="44.920619052063" lon="9.031176248802858"><ele>166.5</ele><time>2026-04-24T10:11:04.999Z</time></trkpt><trkpt lat="44.9205508911006" lon="9.03119946739606"><ele>166.66666666666666</ele><time>2026-04-24T10:11:05.999Z</time></trkpt><trkpt lat="44.92050544069872" lon="9.03128211117743"><ele>166.83333333333331</ele><time>2026-04-24T10:11:06.999Z</time></trkpt><trkpt lat="44.92049218038148" lon="9.031388524109914"><ele>167.0</ele><time>2026-04-24T10:11:07.999Z</time></trkpt><trkpt lat="44.920513319165245" lon="9.031519497920728"><ele>167.5</ele><time>2026-04-24T10:11:08.999Z</time></trkpt><trkpt lat="44.920474308136555" lon="9.031650343594782"><ele>168.0</ele><time>2026-04-24T10:11:09.999Z</time></trkpt><trkpt lat="44.92041455591751" lon="9.031787433504219"><ele>168.5</ele><time>2026-04-24T10:11:10.999Z</time></trkpt><trkpt lat="44.92034001836535" lon="9.0319126585194"><ele>169.0</ele><time>2026-04-24T10:11:11.999Z</time></trkpt><trkpt lat="44.92022964597157" lon="9.032077056192534"><ele>169.0</ele><time>2026-04-24T10:11:12.999Z</time></trkpt><trkpt lat="44.920130486959614" lon="9.032255605244874"><ele>169.0</ele><time>2026-04-24T10:11:13.999Z</time></trkpt><trkpt lat="44.92002235737215" lon="9.03244304605971"><ele>169.0</ele><time>2026-04-24T10:11:14.999Z</time></trkpt><trkpt lat="44.91993607704923" lon="9.032652395627023"><ele>169.33333333333334</ele><time>2026-04-24T10:11:15.999Z</time></trkpt><trkpt lat="44.91983625799044" lon="9.032885372428998"><ele>169.66666666666666</ele><time>2026-04-24T10:11:16.999Z</time></trkpt><trkpt lat="44.91973202470487" lon="9.033120401068588"><ele>170.0</ele><time>2026-04-24T10:11:17.999Z</time></trkpt><trkpt lat="44.91958979156912" lon="9.033318044711054"><ele>171.0</ele><time>2026-04-24T10:11:18.999Z</time></trkpt><trkpt lat="44.919499989741425" lon="9.03356198295808"><ele>172.0</ele><time>2026-04-24T10:11:19.999Z</time></trkpt><trkpt lat="44.9194106777882" lon="9.033781769169202"><ele>173.0</ele><time>2026-04-24T10:11:20.999Z</time></trkpt><trkpt lat="44.919332236567" lon="9.034004857337012"><ele>173.0</ele><time>2026-04-24T10:11:21.999Z</time></trkpt><trkpt lat="44.91922279720538" lon="9.034207292652722"><ele>173.0</ele><time>2026-04-24T10:11:22.999Z</time></trkpt><trkpt lat="44.91915030820059" lon="9.034386665655413"><ele>173.0</ele><time>2026-04-24T10:11:23.999Z</time></trkpt><trkpt lat="44.919071171022324" lon="9.034573356651022"><ele>173.0</ele><time>2026-04-24T10:11:24.999Z</time></trkpt><trkpt lat="44.918993181697594" lon="9.034748165480448"><ele>173.0</ele><time>2026-04-24T10:11:25.999Z</time></trkpt><trkpt lat="44.91892602042937" lon="9.034926937302604"><ele>173.0</ele><time>2026-04-24T10:11:26.999Z</time></trkpt><trkpt lat="44.91885072925068" lon="9.03509941954723"><ele>173.0</ele><time>2026-04-24T10:11:27.999Z</time></trkpt><trkpt lat="44.918765170714245" lon="9.035264419166039"><ele>174.5</ele><time>2026-04-24T10:11:28.999Z</time></trkpt><trkpt lat="44.91869839733828" lon="9.035439259954961"><ele>176.0</ele><time>2026-04-24T10:11:29.999Z</time></trkpt><trkpt lat="44.918637676457415" lon="9.035586126519913"><ele>177.5</ele><time>2026-04-24T10:11:30.999Z</time></trkpt><trkpt lat="44.918558615011065" lon="9.035732229505012"><ele>179.0</ele><time>2026-04-24T10:11:31.999Z</time></trkpt><trkpt lat="44.91849579063816" lon="9.035886040893988"><ele>179.0</ele><time>2026-04-24T10:11:32.999Z</time></trkpt><trkpt lat="44.91841924307194" lon="9.036038034145118"><ele>179.0</ele><time>2026-04-24T10:11:33.999Z</time></trkpt><trkpt lat="44.91834708327856" lon="9.036201836200183"><ele>179.0</ele><time>2026-04-24T10:11:34.999Z</time></trkpt><trkpt lat="44.91828383357798" lon="9.036385412842229"><ele>179.0</ele><time>2026-04-24T10:11:35.999Z</time></trkpt><trkpt lat="44.91820209681024" lon="9.036528614429793"><ele>180.0</ele><time>2026-04-24T10:11:36.999Z</time></trkpt><trkpt lat="44.91813886183456" lon="9.03670951782196"><ele>181.0</ele><time>2026-04-24T10:11:37.999Z</time></trkpt><trkpt lat="44.91805407017929" lon="9.036857187272734"><ele>182.0</ele><time>2026-04-24T10:11:38.999Z</time></trkpt><trkpt lat="44.91797792335527" lon="9.03702776356418"><ele>183.0</ele><time>2026-04-24T10:11:39.999Z</time></trkpt><trkpt lat="44.917905528613225" lon="9.037207791883219"><ele>183.0</ele><time>2026-04-24T10:11:40.999Z</time></trkpt><trkpt lat="44.91782326593051" lon="9.03738171386459"><ele>183.0</ele><time>2026-04-24T10:11:41.999Z</time></trkpt><trkpt lat="44.91772426694679" lon="9.037564194794001"><ele>183.0</ele><time>2026-04-24T10:11:42.999Z</time></trkpt><trkpt lat="44.91763587507727" lon="9.037744349607266"><ele>183.0</ele><time>2026-04-24T10:11:43.999Z</time></trkpt><trkpt lat="44.91754630119122" lon="9.03792320602559"><ele>183.0</ele><time>2026-04-24T10:11:44.999Z</time></trkpt><trkpt lat="44.9174555275493" lon="9.038087177386199"><ele>183.0</ele><time>2026-04-24T10:11:45.999Z</time></trkpt><trkpt lat="44.9173291902716" lon="9.038241154868368"><ele>183.66666666666666</ele><time>2026-04-24T10:11:46.999Z</time></trkpt><trkpt lat="44.91718107166325" lon="9.03835411641409"><ele>184.33333333333331</ele><time>2026-04-24T10:11:47.999Z</time></trkpt><trkpt lat="44.917054935683986" lon="9.038489434830392"><ele>185.0</ele><time>2026-04-24T10:11:48.999Z</time></trkpt><trkpt lat="44.916946179746276" lon="9.038614339620905"><ele>185.0</ele><time>2026-04-24T10:11:49.999Z</time></trkpt><trkpt lat="44.91682087302723" lon="9.03876717014192"><ele>185.0</ele><time>2026-04-24T10:11:50.999Z</time></trkpt><trkpt lat="44.916680185924406" lon="9.038891845206308"><ele>185.0</ele><time>2026-04-24T10:11:51.999Z</time></trkpt><trkpt lat="44.91655357548808" lon="9.039016112105703"><ele>184.66666666666666</ele><time>2026-04-24T10:11:52.999Z</time></trkpt><trkpt lat="44.91642837182773" lon="9.039138998257817"><ele>184.33333333333334</ele><time>2026-04-24T10:11:53.999Z</time></trkpt><trkpt lat="44.916299629908536" lon="9.039265866631501"><ele>184.0</ele><time>2026-04-24T10:11:54.999Z</time></trkpt><trkpt lat="44.91616522033065" lon="9.039380346553386"><ele>184.0</ele><time>2026-04-24T10:11:55.999Z</time></trkpt><trkpt lat="44.916054183192706" lon="9.039510906649305"><ele>184.0</ele><time>2026-04-24T10:11:56.999Z</time></trkpt><trkpt lat="44.9159201365185" lon="9.039623553793541"><ele>184.0</ele><time>2026-04-24T10:11:57.999Z</time></trkpt><trkpt lat="44.915795864017625" lon="9.039748726685898"><ele>183.5</ele><time>2026-04-24T10:11:58.999Z</time></trkpt><trkpt lat="44.91568226307015" lon="9.039872204967514"><ele>183.0</ele><time>2026-04-24T10:11:59.999Z</time></trkpt><trkpt lat="44.9155799947721" lon="9.039976334395964"><ele>182.5</ele><time>2026-04-24T10:12:00.999Z</time></trkpt><trkpt lat="44.91546892997768" lon="9.040098404173275"><ele>182.0</ele><time>2026-04-24T10:12:01.999Z</time></trkpt><trkpt lat="44.91537385758713" lon="9.040195880414982"><ele>182.0</ele><time>2026-04-24T10:12:02.999Z</time></trkpt><trkpt lat="44.91526762770204" lon="9.040301935252797"><ele>182.0</ele><time>2026-04-24T10:12:03.999Z</time></trkpt><trkpt lat="44.91515192565614" lon="9.040416298560062"><ele>182.0</ele><time>2026-04-24T10:12:04.999Z</time></trkpt><trkpt lat="44.915024587485156" lon="9.040534636891442"><ele>182.0</ele><time>2026-04-24T10:12:05.999Z</time></trkpt><trkpt lat="44.91490966581141" lon="9.04062508951573"><ele>182.0</ele><time>2026-04-24T10:12:06.999Z</time></trkpt><trkpt lat="44.914804934941266" lon="9.040745877881749"><ele>182.0</ele><time>2026-04-24T10:12:07.999Z</time></trkpt><trkpt lat="44.914691061522575" lon="9.040834288119456"><ele>182.0</ele><time>2026-04-24T10:12:08.999Z</time></trkpt><trkpt lat="44.914591517112726" lon="9.040951694116425"><ele>182.0</ele><time>2026-04-24T10:12:09.999Z</time></trkpt><trkpt lat="44.914464265841374" lon="9.041051482877608"><ele>182.0</ele><time>2026-04-24T10:12:10.999Z</time></trkpt><trkpt lat="44.914345655229084" lon="9.041158020230622"><ele>182.0</ele><time>2026-04-24T10:12:11.999Z</time></trkpt><trkpt lat="44.91422652432072" lon="9.041271483802962"><ele>182.0</ele><time>2026-04-24T10:12:12.999Z</time></trkpt><trkpt lat="44.91412831652906" lon="9.041405983724498"><ele>182.0</ele><time>2026-04-24T10:12:13.999Z</time></trkpt><trkpt lat="44.91398926881725" lon="9.04152763229278"><ele>183.66666666666666</ele><time>2026-04-24T10:12:14.999Z</time></trkpt><trkpt lat="44.91386946521916" lon="9.041649232338381"><ele>185.33333333333334</ele><time>2026-04-24T10:12:15.999Z</time></trkpt><trkpt lat="44.91374088639043" lon="9.041763797738618"><ele>187.0</ele><time>2026-04-24T10:12:16.999Z</time></trkpt><trkpt lat="44.91360929105516" lon="9.04189916687296"><ele>187.0</ele><time>2026-04-24T10:12:17.999Z</time></trkpt><trkpt lat="44.91348786779612" lon="9.042028744448682"><ele>187.0</ele><time>2026-04-24T10:12:18.999Z</time></trkpt><trkpt lat="44.913363610202076" lon="9.042151968790382"><ele>187.0</ele><time>2026-04-24T10:12:19.999Z</time></trkpt><trkpt lat="44.91322771082074" lon="9.042296423852079"><ele>186.66666666666669</ele><time>2026-04-24T10:12:20.999Z</time></trkpt><trkpt lat="44.9130958597591" lon="9.04240227895286"><ele>186.33333333333334</ele><time>2026-04-24T10:12:21.999Z</time></trkpt><trkpt lat="44.91297153604125" lon="9.042519735663927"><ele>186.0</ele><time>2026-04-24T10:12:22.999Z</time></trkpt><trkpt lat="44.91283085352647" lon="9.042644876361589"><ele>186.0</ele><time>2026-04-24T10:12:23.999Z</time></trkpt><trkpt lat="44.91271301029566" lon="9.042759548187565"><ele>186.0</ele><time>2026-04-24T10:12:24.999Z</time></trkpt><trkpt lat="44.91257246121501" lon="9.042897267023278"><ele>186.0</ele><time>2026-04-24T10:12:25.999Z</time></trkpt><trkpt lat="44.912445100806835" lon="9.043027929015166"><ele>186.0</ele><time>2026-04-24T10:12:26.999Z</time></trkpt><trkpt lat="44.91230500015474" lon="9.043153675410744"><ele>186.0</ele><time>2026-04-24T10:12:27.999Z</time></trkpt><trkpt lat="44.9121730686206" lon="9.04329500715239"><ele>186.0</ele><time>2026-04-24T10:12:28.999Z</time></trkpt><trkpt lat="44.91203704317095" lon="9.043439356281144"><ele>186.66666666666666</ele><time>2026-04-24T10:12:29.999Z</time></trkpt><trkpt lat="44.91191955096081" lon="9.043578929586591"><ele>187.33333333333331</ele><time>2026-04-24T10:12:30.998Z</time></trkpt><trkpt lat="44.9117849562262" lon="9.043681892690612"><ele>188.0</ele><time>2026-04-24T10:12:31.998Z</time></trkpt><trkpt lat="44.91166218211082" lon="9.04380153362141"><ele>188.0</ele><time>2026-04-24T10:12:32.998Z</time></trkpt><trkpt lat="44.9115349196122" lon="9.043937872852906"><ele>188.0</ele><time>2026-04-24T10:12:33.998Z</time></trkpt><trkpt lat="44.91139728652191" lon="9.044064949256043"><ele>188.0</ele><time>2026-04-24T10:12:34.998Z</time></trkpt><trkpt lat="44.91126589045241" lon="9.044184325120105"><ele>189.33333333333331</ele><time>2026-04-24T10:12:35.998Z</time></trkpt><trkpt lat="44.91113441541964" lon="9.044294999386691"><ele>190.66666666666666</ele><time>2026-04-24T10:12:36.998Z</time></trkpt><trkpt lat="44.911000019362085" lon="9.044424520616252"><ele>192.0</ele><time>2026-04-24T10:12:37.998Z</time></trkpt><trkpt lat="44.91087331904003" lon="9.044547581556388"><ele>192.0</ele><time>2026-04-24T10:12:38.998Z</time></trkpt><trkpt lat="44.9107408700971" lon="9.044666055952453"><ele>192.0</ele><time>2026-04-24T10:12:39.998Z</time></trkpt><trkpt lat="44.91060617364696" lon="9.044795228793134"><ele>192.0</ele><time>2026-04-24T10:12:40.998Z</time></trkpt><trkpt lat="44.91047299321903" lon="9.044927643665092"><ele>193.0</ele><time>2026-04-24T10:12:41.998Z</time></trkpt><trkpt lat="44.910340958836194" lon="9.045055517394859"><ele>194.0</ele><time>2026-04-24T10:12:42.998Z</time></trkpt><trkpt lat="44.91020127170932" lon="9.045196841374555"><ele>195.0</ele><time>2026-04-24T10:12:43.998Z</time></trkpt><trkpt lat="44.910054002745134" lon="9.045308942891461"><ele>193.0</ele><time>2026-04-24T10:12:44.998Z</time></trkpt><trkpt lat="44.90992490805839" lon="9.045427116186701"><ele>191.0</ele><time>2026-04-24T10:12:45.998Z</time></trkpt><trkpt lat="44.90978409827527" lon="9.045537846747902"><ele>189.0</ele><time>2026-04-24T10:12:46.998Z</time></trkpt><trkpt lat="44.90965403965197" lon="9.045684721703733"><ele>189.33333333333334</ele><time>2026-04-24T10:12:47.998Z</time></trkpt><trkpt lat="44.90951653529975" lon="9.045828381728924"><ele>189.66666666666669</ele><time>2026-04-24T10:12:48.998Z</time></trkpt><trkpt lat="44.90937648036021" lon="9.04597964459877"><ele>190.0</ele><time>2026-04-24T10:12:49.998Z</time></trkpt><trkpt lat="44.90924081191287" lon="9.046131199552066"><ele>190.0</ele><time>2026-04-24T10:12:50.998Z</time></trkpt><trkpt lat="44.90910523638857" lon="9.046260405973607"><ele>190.0</ele><time>2026-04-24T10:12:51.998Z</time></trkpt><trkpt lat="44.9089731952684" lon="9.046417211479804"><ele>190.0</ele><time>2026-04-24T10:12:52.998Z</time></trkpt><trkpt lat="44.908838968134994" lon="9.046548419604067"><ele>190.0</ele><time>2026-04-24T10:12:53.998Z</time></trkpt><trkpt lat="44.908686537908196" lon="9.04668507484251"><ele>190.0</ele><time>2026-04-24T10:12:54.998Z</time></trkpt><trkpt lat="44.90853416093589" lon="9.04683541833218"><ele>190.0</ele><time>2026-04-24T10:12:55.998Z</time></trkpt><trkpt lat="44.90837938106147" lon="9.04698764966434"><ele>190.0</ele><time>2026-04-24T10:12:56.998Z</time></trkpt><trkpt lat="44.908224177386934" lon="9.047138188932623"><ele>190.0</ele><time>2026-04-24T10:12:57.998Z</time></trkpt><trkpt lat="44.90807393034147" lon="9.047299942753641"><ele>190.0</ele><time>2026-04-24T10:12:58.998Z</time></trkpt><trkpt lat="44.90790921900842" lon="9.047470153872416"><ele>189.66666666666669</ele><time>2026-04-24T10:12:59.998Z</time></trkpt><trkpt lat="44.907743162084046" lon="9.047646393907383"><ele>189.33333333333334</ele><time>2026-04-24T10:13:00.998Z</time></trkpt><trkpt lat="44.907550719389356" lon="9.047823636265289"><ele>189.0</ele><time>2026-04-24T10:13:01.998Z</time></trkpt><trkpt lat="44.90737865085074" lon="9.048018324613242"><ele>189.0</ele><time>2026-04-24T10:13:02.998Z</time></trkpt><trkpt lat="44.907196200382515" lon="9.048171538602903"><ele>189.0</ele><time>2026-04-24T10:13:03.998Z</time></trkpt><trkpt lat="44.90702103700211" lon="9.048323537213475"><ele>189.0</ele><time>2026-04-24T10:13:04.998Z</time></trkpt><trkpt lat="44.90685345144415" lon="9.048474483167421"><ele>188.0</ele><time>2026-04-24T10:13:05.998Z</time></trkpt><trkpt lat="44.90670534767535" lon="9.048641480683724"><ele>187.0</ele><time>2026-04-24T10:13:06.998Z</time></trkpt><trkpt lat="44.90655357128234" lon="9.048812231177171"><ele>186.0</ele><time>2026-04-24T10:13:07.998Z</time></trkpt><trkpt lat="44.9064156346807" lon="9.048958534640308"><ele>186.0</ele><time>2026-04-24T10:13:08.998Z</time></trkpt><trkpt lat="44.90625869947372" lon="9.049112688866805"><ele>186.0</ele><time>2026-04-24T10:13:09.998Z</time></trkpt><trkpt lat="44.90610441916119" lon="9.049260844157052"><ele>186.0</ele><time>2026-04-24T10:13:10.998Z</time></trkpt><trkpt lat="44.90594161603173" lon="9.049414293493678"><ele>186.0</ele><time>2026-04-24T10:13:11.998Z</time></trkpt><trkpt lat="44.90577450151176" lon="9.049523203561785"><ele>186.0</ele><time>2026-04-24T10:13:12.998Z</time></trkpt><trkpt lat="44.90560054481494" lon="9.04963786655434"><ele>186.0</ele><time>2026-04-24T10:13:13.998Z</time></trkpt><trkpt lat="44.905431169726036" lon="9.049739142508017"><ele>186.0</ele><time>2026-04-24T10:13:14.998Z</time></trkpt><trkpt lat="44.90528111508349" lon="9.049828219407965"><ele>186.0</ele><time>2026-04-24T10:13:15.998Z</time></trkpt><trkpt lat="44.90513338670673" lon="9.049915915439513"><ele>186.0</ele><time>2026-04-24T10:13:16.998Z</time></trkpt><trkpt lat="44.904981785660254" lon="9.050005910334418"><ele>187.33333333333334</ele><time>2026-04-24T10:13:17.998Z</time></trkpt><trkpt lat="44.90484563401281" lon="9.050086733914299"><ele>188.66666666666669</ele><time>2026-04-24T10:13:18.998Z</time></trkpt><trkpt lat="44.90468624398326" lon="9.050181352955052"><ele>190.0</ele><time>2026-04-24T10:13:19.998Z</time></trkpt><trkpt lat="44.90453616586926" lon="9.05027082516098"><ele>190.0</ele><time>2026-04-24T10:13:20.998Z</time></trkpt><trkpt lat="44.90437619359125" lon="9.050367285982444"><ele>190.0</ele><time>2026-04-24T10:13:21.998Z</time></trkpt><trkpt lat="44.90421152982653" lon="9.05046611072874"><ele>190.0</ele><time>2026-04-24T10:13:22.998Z</time></trkpt><trkpt lat="44.90402890468971" lon="9.05057530853416"><ele>189.0</ele><time>2026-04-24T10:13:23.998Z</time></trkpt><trkpt lat="44.90384562482109" lon="9.050684845771439"><ele>188.0</ele><time>2026-04-24T10:13:24.998Z</time></trkpt><trkpt lat="44.90365520619006" lon="9.050798374960449"><ele>187.0</ele><time>2026-04-24T10:13:25.998Z</time></trkpt><trkpt lat="44.903457824332" lon="9.050916055687086"><ele>187.66666666666669</ele><time>2026-04-24T10:13:26.998Z</time></trkpt><trkpt lat="44.90327736434297" lon="9.051023647440504"><ele>188.33333333333334</ele><time>2026-04-24T10:13:27.998Z</time></trkpt><trkpt lat="44.90310429819435" lon="9.051128690839045"><ele>189.0</ele><time>2026-04-24T10:13:28.998Z</time></trkpt><trkpt lat="44.902930055608934" lon="9.0512424565547"><ele>189.0</ele><time>2026-04-24T10:13:29.998Z</time></trkpt><trkpt lat="44.902752306971166" lon="9.05133174612543"><ele>189.0</ele><time>2026-04-24T10:13:30.998Z</time></trkpt><trkpt lat="44.90258311517168" lon="9.051422827533427"><ele>189.0</ele><time>2026-04-24T10:13:31.998Z</time></trkpt><trkpt lat="44.902428364747514" lon="9.051528613138396"><ele>189.66666666666666</ele><time>2026-04-24T10:13:32.998Z</time></trkpt><trkpt lat="44.90227423931915" lon="9.051625557305353"><ele>190.33333333333331</ele><time>2026-04-24T10:13:33.998Z</time></trkpt><trkpt lat="44.90212037006041" lon="9.051710512095369"><ele>191.0</ele><time>2026-04-24T10:13:34.998Z</time></trkpt><trkpt lat="44.90196535954714" lon="9.05180799119445"><ele>191.0</ele><time>2026-04-24T10:13:35.998Z</time></trkpt><trkpt lat="44.90182803522084" lon="9.051880036185592"><ele>191.0</ele><time>2026-04-24T10:13:36.998Z</time></trkpt><trkpt lat="44.901681874682616" lon="9.051962017894581"><ele>191.0</ele><time>2026-04-24T10:13:37.998Z</time></trkpt><trkpt lat="44.901535134019035" lon="9.052046426781828"><ele>190.0</ele><time>2026-04-24T10:13:38.998Z</time></trkpt><trkpt lat="44.901397317972204" lon="9.052142492167977"><ele>189.0</ele><time>2026-04-24T10:13:39.998Z</time></trkpt><trkpt lat="44.90126091491423" lon="9.052223472493655"><ele>188.0</ele><time>2026-04-24T10:13:40.998Z</time></trkpt><trkpt lat="44.90111606952749" lon="9.052332168853004"><ele>188.0</ele><time>2026-04-24T10:13:41.998Z</time></trkpt><trkpt lat="44.90096738532772" lon="9.052433795783"><ele>188.0</ele><time>2026-04-24T10:13:42.998Z</time></trkpt><trkpt lat="44.900828817075514" lon="9.05249225536077"><ele>188.0</ele><time>2026-04-24T10:13:43.998Z</time></trkpt><trkpt lat="44.900695451252915" lon="9.052567527731858"><ele>187.75</ele><time>2026-04-24T10:13:44.998Z</time></trkpt><trkpt lat="44.90056860547089" lon="9.052646233826394"><ele>187.5</ele><time>2026-04-24T10:13:45.998Z</time></trkpt><trkpt lat="44.900448551968964" lon="9.052730113192618"><ele>187.25</ele><time>2026-04-24T10:13:46.998Z</time></trkpt><trkpt lat="44.900334433324495" lon="9.052794464755872"><ele>187.0</ele><time>2026-04-24T10:13:47.998Z</time></trkpt><trkpt lat="44.9002292868388" lon="9.0528764342204"><ele>187.0</ele><time>2026-04-24T10:13:48.998Z</time></trkpt><trkpt lat="44.900129344172264" lon="9.052932206455711"><ele>187.0</ele><time>2026-04-24T10:13:49.998Z</time></trkpt><trkpt lat="44.900035397282615" lon="9.052964615102676"><ele>187.0</ele><time>2026-04-24T10:13:50.998Z</time></trkpt><trkpt lat="44.89995045919694" lon="9.053000660969802"><ele>187.0</ele><time>2026-04-24T10:13:51.998Z</time></trkpt><trkpt lat="44.8998696299649" lon="9.053025732325093"><ele>187.0</ele><time>2026-04-24T10:13:52.998Z</time></trkpt><trkpt lat="44.899783936383436" lon="9.053043869596609"><ele>187.0</ele><time>2026-04-24T10:13:53.998Z</time></trkpt><trkpt lat="44.89969933981918" lon="9.053033783793365"><ele>187.0</ele><time>2026-04-24T10:13:54.998Z</time></trkpt><trkpt lat="44.89962936808217" lon="9.053030265373387"><ele>187.0</ele><time>2026-04-24T10:13:55.998Z</time></trkpt><trkpt lat="44.89950797378247" lon="9.053024458733095"><ele>187.0</ele><time>2026-04-24T10:13:57.998Z</time></trkpt><trkpt lat="44.89941170997528" lon="9.052992170051988"><ele>187.0</ele><time>2026-04-24T10:13:58.998Z</time></trkpt><trkpt lat="44.899350680086314" lon="9.053027250150121"><ele>187.0</ele><time>2026-04-24T10:13:59.998Z</time></trkpt><trkpt lat="44.899276507546695" lon="9.053200899171859"><ele>187.0</ele><time>2026-04-24T10:14:01.998Z</time></trkpt><trkpt lat="44.899234365846034" lon="9.053281040783721"><ele>187.0</ele><time>2026-04-24T10:14:02.998Z</time></trkpt><trkpt lat="44.89919683364761" lon="9.05335995261034"><ele>187.0</ele><time>2026-04-24T10:14:03.998Z</time></trkpt><trkpt lat="44.8991404659812" lon="9.053441844204285"><ele>187.0</ele><time>2026-04-24T10:14:04.998Z</time></trkpt><trkpt lat="44.89907435643463" lon="9.053512863989855"><ele>187.0</ele><time>2026-04-24T10:14:05.998Z</time></trkpt><trkpt lat="44.89899905866188" lon="9.053565441516735"><ele>187.0</ele><time>2026-04-24T10:14:06.998Z</time></trkpt><trkpt lat="44.89893093930239" lon="9.053636474105287"><ele>187.39999999999998</ele><time>2026-04-24T10:14:07.998Z</time></trkpt><trkpt lat="44.898839103302606" lon="9.053683421157766"><ele>187.79999999999998</ele><time>2026-04-24T10:14:08.998Z</time></trkpt><trkpt lat="44.89876923736509" lon="9.053726348779081"><ele>188.2</ele><time>2026-04-24T10:14:09.998Z</time></trkpt><trkpt lat="44.89865355609228" lon="9.053797279780325"><ele>188.6</ele><time>2026-04-24T10:14:10.998Z</time></trkpt><trkpt lat="44.89856541391202" lon="9.053850746548145"><ele>189.0</ele><time>2026-04-24T10:14:11.998Z</time></trkpt><trkpt lat="44.89848655727499" lon="9.053918218012118"><ele>188.79999999999998</ele><time>2026-04-24T10:14:12.998Z</time></trkpt><trkpt lat="44.89839545068472" lon="9.05397117951219"><ele>188.6</ele><time>2026-04-24T10:14:13.998Z</time></trkpt><trkpt lat="44.89829652621652" lon="9.054012167502695"><ele>188.4</ele><time>2026-04-24T10:14:14.998Z</time></trkpt><trkpt lat="44.89819778821354" lon="9.054070807095437"><ele>188.2</ele><time>2026-04-24T10:14:15.998Z</time></trkpt><trkpt lat="44.8980997293511" lon="9.054129043358424"><ele>188.0</ele><time>2026-04-24T10:14:16.998Z</time></trkpt><trkpt lat="44.89800599396517" lon="9.054184850623178"><ele>188.4</ele><time>2026-04-24T10:14:17.998Z</time></trkpt><trkpt lat="44.89789948800232" lon="9.054249597683915"><ele>188.8</ele><time>2026-04-24T10:14:18.998Z</time></trkpt><trkpt lat="44.89780996287572" lon="9.054328699613114"><ele>189.2</ele><time>2026-04-24T10:14:19.998Z</time></trkpt><trkpt lat="44.897709620445546" lon="9.054383355474117"><ele>189.6</ele><time>2026-04-24T10:14:20.998Z</time></trkpt><trkpt lat="44.8976172042711" lon="9.054428120645992"><ele>190.0</ele><time>2026-04-24T10:14:21.998Z</time></trkpt><trkpt lat="44.89752891318671" lon="9.054455900486184"><ele>190.0</ele><time>2026-04-24T10:14:22.998Z</time></trkpt><trkpt lat="44.897459316375404" lon="9.054522984971225"><ele>190.0</ele><time>2026-04-24T10:14:23.998Z</time></trkpt><trkpt lat="44.89736045219113" lon="9.054579681770733"><ele>190.0</ele><time>2026-04-24T10:14:24.998Z</time></trkpt><trkpt lat="44.89726688632143" lon="9.0546349353758"><ele>190.0</ele><time>2026-04-24T10:14:25.998Z</time></trkpt><trkpt lat="44.897163893097456" lon="9.054715442751334"><ele>190.0</ele><time>2026-04-24T10:14:26.998Z</time></trkpt><trkpt lat="44.897079259331264" lon="9.054786669917874"><ele>190.0</ele><time>2026-04-24T10:14:27.998Z</time></trkpt><trkpt lat="44.89702567210751" lon="9.054878112935203"><ele>190.0</ele><time>2026-04-24T10:14:28.998Z</time></trkpt><trkpt lat="44.89694707319401" lon="9.054960888630584"><ele>190.0</ele><time>2026-04-24T10:14:29.998Z</time></trkpt><trkpt lat="44.896876700870735" lon="9.055033462189142"><ele>190.0</ele><time>2026-04-24T10:14:30.998Z</time></trkpt><trkpt lat="44.89682056873554" lon="9.05513764399715"><ele>190.0</ele><time>2026-04-24T10:14:31.998Z</time></trkpt><trkpt lat="44.89675995464379" lon="9.055220069428469"><ele>190.0</ele><time>2026-04-24T10:14:32.998Z</time></trkpt><trkpt lat="44.896700423646806" lon="9.05528123830964"><ele>191.2</ele><time>2026-04-24T10:14:33.998Z</time></trkpt><trkpt lat="44.89665299867775" lon="9.055340958278482"><ele>192.4</ele><time>2026-04-24T10:14:34.998Z</time></trkpt><trkpt lat="44.896597506741905" lon="9.055413533566242"><ele>193.60000000000002</ele><time>2026-04-24T10:14:35.998Z</time></trkpt><trkpt lat="44.89652394468528" lon="9.05550660799809"><ele>194.8</ele><time>2026-04-24T10:14:37.997Z</time></trkpt><trkpt lat="44.896442831597795" lon="9.055637701477671"><ele>196.0</ele><time>2026-04-24T10:14:39.997Z</time></trkpt><trkpt lat="44.896337934970454" lon="9.055746804065137"><ele>196.28571428571428</ele><time>2026-04-24T10:14:41.997Z</time></trkpt><trkpt lat="44.89629076489012" lon="9.055813949848204"><ele>196.57142857142856</ele><time>2026-04-24T10:14:42.997Z</time></trkpt><trkpt lat="44.89624159754341" lon="9.05589329863976"><ele>196.85714285714286</ele><time>2026-04-24T10:14:43.997Z</time></trkpt><trkpt lat="44.896206362350014" lon="9.055969258961133"><ele>197.14285714285714</ele><time>2026-04-24T10:14:44.997Z</time></trkpt><trkpt lat="44.89616664660861" lon="9.056043600034219"><ele>197.42857142857142</ele><time>2026-04-24T10:14:45.997Z</time></trkpt><trkpt lat="44.896105014298236" lon="9.056099804435712"><ele>197.71428571428572</ele><time>2026-04-24T10:14:46.997Z</time></trkpt><trkpt lat="44.896055883812096" lon="9.056170865934245"><ele>198.0</ele><time>2026-04-24T10:14:47.997Z</time></trkpt><trkpt lat="44.896000678121595" lon="9.056254888057719"><ele>198.0</ele><time>2026-04-24T10:14:48.997Z</time></trkpt><trkpt lat="44.89595328662246" lon="9.056331074544028"><ele>198.0</ele><time>2026-04-24T10:14:49.997Z</time></trkpt><trkpt lat="44.89589878675781" lon="9.05641976378976"><ele>198.0</ele><time>2026-04-24T10:14:50.997Z</time></trkpt><trkpt lat="44.89584352362126" lon="9.05653101737788"><ele>198.0</ele><time>2026-04-24T10:14:51.997Z</time></trkpt><trkpt lat="44.89577750124216" lon="9.056615839115297"><ele>198.0</ele><time>2026-04-24T10:14:52.997Z</time></trkpt><trkpt lat="44.89577397791916" lon="9.056738133518026"><ele>198.0</ele><time>2026-04-24T10:14:53.997Z</time></trkpt><trkpt lat="44.895732865744634" lon="9.056850906722174"><ele>198.2</ele><time>2026-04-24T10:14:54.997Z</time></trkpt><trkpt lat="44.89569408604488" lon="9.056960881186408"><ele>198.4</ele><time>2026-04-24T10:14:55.997Z</time></trkpt><trkpt lat="44.895656380994446" lon="9.057084589653705"><ele>198.6</ele><time>2026-04-24T10:14:56.997Z</time></trkpt><trkpt lat="44.8956177886795" lon="9.057211209216142"><ele>198.79999999999998</ele><time>2026-04-24T10:14:57.997Z</time></trkpt><trkpt lat="44.89558009186494" lon="9.057334890676866"><ele>199.0</ele><time>2026-04-24T10:14:58.997Z</time></trkpt><trkpt lat="44.89555565723955" lon="9.057451939437456"><ele>199.2</ele><time>2026-04-24T10:14:59.997Z</time></trkpt><trkpt lat="44.89551485656261" lon="9.057548924810847"><ele>199.39999999999998</ele><time>2026-04-24T10:15:00.997Z</time></trkpt><trkpt lat="44.895475036334126" lon="9.057676887204433"><ele>199.6</ele><time>2026-04-24T10:15:01.997Z</time></trkpt><trkpt lat="44.8954421694782" lon="9.057782935629382"><ele>199.8</ele><time>2026-04-24T10:15:02.997Z</time></trkpt><trkpt lat="44.895403958199196" lon="9.057906228781533"><ele>200.0</ele><time>2026-04-24T10:15:03.997Z</time></trkpt><trkpt lat="44.895357506733795" lon="9.058052144908531"><ele>200.0</ele><time>2026-04-24T10:15:04.997Z</time></trkpt><trkpt lat="44.8953136502563" lon="9.058190782598968"><ele>200.0</ele><time>2026-04-24T10:15:05.997Z</time></trkpt><trkpt lat="44.89526243885337" lon="9.058330536852681"><ele>200.0</ele><time>2026-04-24T10:15:06.997Z</time></trkpt><trkpt lat="44.89521723127227" lon="9.058463680838948"><ele>200.0</ele><time>2026-04-24T10:15:07.997Z</time></trkpt><trkpt lat="44.89516027399948" lon="9.058614447867514"><ele>200.0</ele><time>2026-04-24T10:15:08.997Z</time></trkpt><trkpt lat="44.89514048461775" lon="9.058735672649123"><ele>200.0</ele><time>2026-04-24T10:15:09.997Z</time></trkpt><trkpt lat="44.89510918848093" lon="9.058871081693832"><ele>200.0</ele><time>2026-04-24T10:15:10.997Z</time></trkpt><trkpt lat="44.895049924565456" lon="9.058993683544927"><ele>200.0</ele><time>2026-04-24T10:15:11.997Z</time></trkpt><trkpt lat="44.89499432259194" lon="9.059113246332805"><ele>200.0</ele><time>2026-04-24T10:15:12.997Z</time></trkpt><trkpt lat="44.89493755927614" lon="9.059254034396629"><ele>200.0</ele><time>2026-04-24T10:15:13.997Z</time></trkpt><trkpt lat="44.89488892964556" lon="9.059390641937185"><ele>200.0</ele><time>2026-04-24T10:15:14.997Z</time></trkpt><trkpt lat="44.894851875683614" lon="9.059533174456163"><ele>200.0</ele><time>2026-04-24T10:15:15.997Z</time></trkpt><trkpt lat="44.89480149167153" lon="9.059689757806247"><ele>200.0</ele><time>2026-04-24T10:15:16.997Z</time></trkpt><trkpt lat="44.8947279233892" lon="9.059776594835064"><ele>200.0</ele><time>2026-04-24T10:15:17.997Z</time></trkpt><trkpt lat="44.89465868622102" lon="9.059823517406613"><ele>200.0</ele><time>2026-04-24T10:15:18.997Z</time></trkpt><trkpt lat="44.89458694312835" lon="9.059849377227199"><ele>200.0</ele><time>2026-04-24T10:15:19.997Z</time></trkpt><trkpt lat="44.89445123978049" lon="9.059889140519337"><ele>200.0</ele><time>2026-04-24T10:15:20.997Z</time></trkpt><trkpt lat="44.89426642291984" lon="9.059936032555198"><ele>200.0</ele><time>2026-04-24T10:15:21.997Z</time></trkpt><trkpt lat="44.89411675106515" lon="9.059973327235134"><ele>199.33333333333334</ele><time>2026-04-24T10:15:22.997Z</time></trkpt><trkpt lat="44.89394616295308" lon="9.060015441155103"><ele>198.66666666666669</ele><time>2026-04-24T10:15:23.997Z</time></trkpt><trkpt lat="44.89380641758956" lon="9.060050910202643"><ele>198.0</ele><time>2026-04-24T10:15:24.997Z</time></trkpt><trkpt lat="44.893637162932066" lon="9.060093627287282"><ele>198.0</ele><time>2026-04-24T10:15:25.997Z</time></trkpt><trkpt lat="44.89345836710126" lon="9.060139080855702"><ele>198.0</ele><time>2026-04-24T10:15:26.997Z</time></trkpt><trkpt lat="44.89329130605857" lon="9.06018155118029"><ele>198.0</ele><time>2026-04-24T10:15:27.997Z</time></trkpt><trkpt lat="44.89309960473604" lon="9.060234554787744"><ele>197.33333333333331</ele><time>2026-04-24T10:15:28.997Z</time></trkpt><trkpt lat="44.89292027739124" lon="9.060242365945806"><ele>196.66666666666666</ele><time>2026-04-24T10:15:29.997Z</time></trkpt><trkpt lat="44.892740761519924" lon="9.060273125838156"><ele>196.0</ele><time>2026-04-24T10:15:30.997Z</time></trkpt><trkpt lat="44.89257331966593" lon="9.060321766203941"><ele>194.66666666666666</ele><time>2026-04-24T10:15:31.997Z</time></trkpt><trkpt lat="44.89240869493349" lon="9.060357954720526"><ele>193.33333333333331</ele><time>2026-04-24T10:15:32.997Z</time></trkpt><trkpt lat="44.89225495563847" lon="9.060397003913257"><ele>192.0</ele><time>2026-04-24T10:15:33.997Z</time></trkpt><trkpt lat="44.892097103080324" lon="9.060464023951223"><ele>192.0</ele><time>2026-04-24T10:15:34.997Z</time></trkpt><trkpt lat="44.89194730525388" lon="9.06051061263578"><ele>192.0</ele><time>2026-04-24T10:15:35.997Z</time></trkpt><trkpt lat="44.89179605614894" lon="9.060553153126484"><ele>192.0</ele><time>2026-04-24T10:15:36.997Z</time></trkpt><trkpt lat="44.89165453416081" lon="9.06057650567086"><ele>192.66666666666669</ele><time>2026-04-24T10:15:37.997Z</time></trkpt><trkpt lat="44.89149857644411" lon="9.060601603285255"><ele>193.33333333333334</ele><time>2026-04-24T10:15:38.997Z</time></trkpt><trkpt lat="44.891352330712984" lon="9.06061752263854"><ele>194.0</ele><time>2026-04-24T10:15:39.997Z</time></trkpt><trkpt lat="44.891178625613094" lon="9.060585933617146"><ele>194.0</ele><time>2026-04-24T10:15:40.997Z</time></trkpt><trkpt lat="44.89098511391241" lon="9.060607585192237"><ele>194.0</ele><time>2026-04-24T10:15:41.997Z</time></trkpt><trkpt lat="44.89078441578332" lon="9.060567201202286"><ele>194.0</ele><time>2026-04-24T10:15:42.997Z</time></trkpt><trkpt lat="44.89057496136967" lon="9.060536678114318"><ele>195.33333333333334</ele><time>2026-04-24T10:15:43.997Z</time></trkpt><trkpt lat="44.89036841013965" lon="9.060509248620626"><ele>196.66666666666669</ele><time>2026-04-24T10:15:44.997Z</time></trkpt><trkpt lat="44.89019804881271" lon="9.060473023551282"><ele>198.0</ele><time>2026-04-24T10:15:45.997Z</time></trkpt><trkpt lat="44.88998460212311" lon="9.060441935431284"><ele>198.0</ele><time>2026-04-24T10:15:46.997Z</time></trkpt><trkpt lat="44.889773070359986" lon="9.060429443649772"><ele>198.0</ele><time>2026-04-24T10:15:47.997Z</time></trkpt><trkpt lat="44.889557502315185" lon="9.060415584468108"><ele>198.0</ele><time>2026-04-24T10:15:48.997Z</time></trkpt><trkpt lat="44.88933202390063" lon="9.060411212093097"><ele>199.33333333333331</ele><time>2026-04-24T10:15:49.997Z</time></trkpt><trkpt lat="44.889123928712294" lon="9.060421224559095"><ele>200.66666666666666</ele><time>2026-04-24T10:15:50.997Z</time></trkpt><trkpt lat="44.88892912004336" lon="9.06043356277884"><ele>202.0</ele><time>2026-04-24T10:15:51.997Z</time></trkpt><trkpt lat="44.88874426832401" lon="9.060437099584654"><ele>202.0</ele><time>2026-04-24T10:15:52.997Z</time></trkpt><trkpt lat="44.88856581660809" lon="9.060441461725294"><ele>202.0</ele><time>2026-04-24T10:15:53.997Z</time></trkpt><trkpt lat="44.8883970493498" lon="9.060382716926863"><ele>202.0</ele><time>2026-04-24T10:15:54.997Z</time></trkpt><trkpt lat="44.88824211952547" lon="9.060323857326193"><ele>201.66666666666666</ele><time>2026-04-24T10:15:55.997Z</time></trkpt><trkpt lat="44.888083699039065" lon="9.060259062592543"><ele>201.33333333333331</ele><time>2026-04-24T10:15:56.997Z</time></trkpt><trkpt lat="44.88790166794151" lon="9.060181794651555"><ele>201.0</ele><time>2026-04-24T10:15:57.997Z</time></trkpt><trkpt lat="44.887723491188865" lon="9.060128852096774"><ele>200.33333333333331</ele><time>2026-04-24T10:15:58.997Z</time></trkpt><trkpt lat="44.88754973182566" lon="9.06003006672198"><ele>199.66666666666666</ele><time>2026-04-24T10:15:59.997Z</time></trkpt><trkpt lat="44.88736239302013" lon="9.05995120379182"><ele>199.0</ele><time>2026-04-24T10:16:00.997Z</time></trkpt><trkpt lat="44.887174354270314" lon="9.059876953794834"><ele>199.0</ele><time>2026-04-24T10:16:01.997Z</time></trkpt><trkpt lat="44.88696820397224" lon="9.059774415409384"><ele>199.0</ele><time>2026-04-24T10:16:02.997Z</time></trkpt><trkpt lat="44.88676808769603" lon="9.059712452700248"><ele>199.0</ele><time>2026-04-24T10:16:03.997Z</time></trkpt><trkpt lat="44.886561625530206" lon="9.059609929692389"><ele>200.66666666666666</ele><time>2026-04-24T10:16:04.997Z</time></trkpt><trkpt lat="44.886369813539794" lon="9.059527822427437"><ele>202.33333333333331</ele><time>2026-04-24T10:16:05.997Z</time></trkpt><trkpt lat="44.88616729461115" lon="9.059471077392596"><ele>204.0</ele><time>2026-04-24T10:16:06.997Z</time></trkpt><trkpt lat="44.885980367128106" lon="9.059377146076773"><ele>206.0</ele><time>2026-04-24T10:16:07.997Z</time></trkpt><trkpt lat="44.88577657266082" lon="9.059291452533264"><ele>208.0</ele><time>2026-04-24T10:16:08.997Z</time></trkpt><trkpt lat="44.88558829837287" lon="9.05921178435865"><ele>210.0</ele><time>2026-04-24T10:16:09.997Z</time></trkpt><trkpt lat="44.885401053468165" lon="9.059132551720701"><ele>209.66666666666669</ele><time>2026-04-24T10:16:10.997Z</time></trkpt><trkpt lat="44.88519575332108" lon="9.059045678997071"><ele>209.33333333333334</ele><time>2026-04-24T10:16:11.997Z</time></trkpt><trkpt lat="44.88500438586039" lon="9.05896470190288"><ele>209.0</ele><time>2026-04-24T10:16:12.997Z</time></trkpt><trkpt lat="44.884819848983085" lon="9.058887021204132"><ele>209.0</ele><time>2026-04-24T10:16:13.997Z</time></trkpt><trkpt lat="44.88463344731037" lon="9.058818895554559"><ele>209.0</ele><time>2026-04-24T10:16:14.997Z</time></trkpt><trkpt lat="44.8844466727251" lon="9.05878943662915"><ele>209.0</ele><time>2026-04-24T10:16:15.997Z</time></trkpt><trkpt lat="44.88428788614902" lon="9.058745222800395"><ele>209.66666666666669</ele><time>2026-04-24T10:16:16.997Z</time></trkpt><trkpt lat="44.884149007584384" lon="9.058822576057358"><ele>210.33333333333331</ele><time>2026-04-24T10:16:17.997Z</time></trkpt><trkpt lat="44.88400511669828" lon="9.058905210058956"><ele>211.0</ele><time>2026-04-24T10:16:18.997Z</time></trkpt><trkpt lat="44.88383372498428" lon="9.058999668877481"><ele>210.33333333333331</ele><time>2026-04-24T10:16:19.997Z</time></trkpt><trkpt lat="44.88369645825832" lon="9.059128456791202"><ele>209.66666666666669</ele><time>2026-04-24T10:16:20.997Z</time></trkpt><trkpt lat="44.8835395673668" lon="9.05926041298936"><ele>209.0</ele><time>2026-04-24T10:16:21.997Z</time></trkpt><trkpt lat="44.88336854191122" lon="9.059364378876651"><ele>209.0</ele><time>2026-04-24T10:16:22.997Z</time></trkpt><trkpt lat="44.883204310384706" lon="9.059486942198097"><ele>209.0</ele><time>2026-04-24T10:16:23.997Z</time></trkpt><trkpt lat="44.88303607840124" lon="9.059580337523814"><ele>209.0</ele><time>2026-04-24T10:16:24.997Z</time></trkpt><trkpt lat="44.88285584325768" lon="9.059662959583836"><ele>209.0</ele><time>2026-04-24T10:16:25.997Z</time></trkpt><trkpt lat="44.88270215014562" lon="9.059761703295182"><ele>209.0</ele><time>2026-04-24T10:16:26.997Z</time></trkpt><trkpt lat="44.8825420593412" lon="9.059849466811741"><ele>209.0</ele><time>2026-04-24T10:16:27.997Z</time></trkpt><trkpt lat="44.88237848534384" lon="9.059976378615902"><ele>210.66666666666669</ele><time>2026-04-24T10:16:28.997Z</time></trkpt><trkpt lat="44.882233911162096" lon="9.060093539555277"><ele>212.33333333333331</ele><time>2026-04-24T10:16:29.997Z</time></trkpt><trkpt lat="44.882061351158896" lon="9.060199110360294"><ele>214.0</ele><time>2026-04-24T10:16:31Z</time></trkpt><trkpt lat="44.88190057843163" lon="9.060291255393533"><ele>212.66666666666666</ele><time>2026-04-24T10:16:32Z</time></trkpt><trkpt lat="44.881761953764126" lon="9.060402421350236"><ele>211.33333333333331</ele><time>2026-04-24T10:16:33Z</time></trkpt><trkpt lat="44.88160986954084" lon="9.060500727336029"><ele>210.0</ele><time>2026-04-24T10:16:34Z</time></trkpt><trkpt lat="44.88147672390205" lon="9.060583103450002"><ele>210.0</ele><time>2026-04-24T10:16:35Z</time></trkpt><trkpt lat="44.881347184481" lon="9.060686711537848"><ele>210.0</ele><time>2026-04-24T10:16:36Z</time></trkpt><trkpt lat="44.881240459974386" lon="9.060823308036301"><ele>210.0</ele><time>2026-04-24T10:16:37Z</time></trkpt><trkpt lat="44.88115777357335" lon="9.060993772867887"><ele>210.0</ele><time>2026-04-24T10:16:38Z</time></trkpt><trkpt lat="44.88108863547998" lon="9.061183962265526"><ele>210.5</ele><time>2026-04-24T10:16:39Z</time></trkpt><trkpt lat="44.88098591581198" lon="9.061351343976375"><ele>211.0</ele><time>2026-04-24T10:16:40Z</time></trkpt><trkpt lat="44.88089465713048" lon="9.061496516004917"><ele>211.5</ele><time>2026-04-24T10:16:41Z</time></trkpt><trkpt lat="44.88080172690588" lon="9.061648339254704"><ele>212.0</ele><time>2026-04-24T10:16:42Z</time></trkpt><trkpt lat="44.88070365599476" lon="9.061798939942523"><ele>213.0</ele><time>2026-04-24T10:16:43Z</time></trkpt><trkpt lat="44.88060125368106" lon="9.061930917688723"><ele>214.0</ele><time>2026-04-24T10:16:44Z</time></trkpt><trkpt lat="44.88051202939638" lon="9.062084637671834"><ele>215.0</ele><time>2026-04-24T10:16:45Z</time></trkpt><trkpt lat="44.88042816789903" lon="9.062216522564675"><ele>216.0</ele><time>2026-04-24T10:16:46Z</time></trkpt><trkpt lat="44.88034561111356" lon="9.06235419737633"><ele>216.25</ele><time>2026-04-24T10:16:47Z</time></trkpt><trkpt lat="44.880243436339065" lon="9.06249792081284"><ele>216.5</ele><time>2026-04-24T10:16:48Z</time></trkpt><trkpt lat="44.88015472026044" lon="9.06265999556717"><ele>216.75</ele><time>2026-04-24T10:16:49Z</time></trkpt><trkpt lat="44.88004555711805" lon="9.062785037163666"><ele>217.0</ele><time>2026-04-24T10:16:50Z</time></trkpt><trkpt lat="44.879943353611786" lon="9.062947738533428"><ele>216.5</ele><time>2026-04-24T10:16:51Z</time></trkpt><trkpt lat="44.87983735863452" lon="9.063092512950789"><ele>216.0</ele><time>2026-04-24T10:16:52Z</time></trkpt><trkpt lat="44.87972813215884" lon="9.063231507859957"><ele>215.5</ele><time>2026-04-24T10:16:53Z</time></trkpt><trkpt lat="44.87960056574982" lon="9.063333493958542"><ele>215.0</ele><time>2026-04-24T10:16:54Z</time></trkpt><trkpt lat="44.87946172134814" lon="9.063401584118045"><ele>216.0</ele><time>2026-04-24T10:16:55Z</time></trkpt><trkpt lat="44.87932478875418" lon="9.063455529178588"><ele>217.0</ele><time>2026-04-24T10:16:56Z</time></trkpt><trkpt lat="44.87915473716754" lon="9.063512275912126"><ele>218.0</ele><time>2026-04-24T10:16:57Z</time></trkpt><trkpt lat="44.87900395520293" lon="9.063561988358847"><ele>218.0</ele><time>2026-04-24T10:16:58Z</time></trkpt><trkpt lat="44.878850352315666" lon="9.063622982080522"><ele>218.0</ele><time>2026-04-24T10:16:59Z</time></trkpt><trkpt lat="44.878704646829334" lon="9.063675239122654"><ele>218.0</ele><time>2026-04-24T10:17:00Z</time></trkpt><trkpt lat="44.87854440460175" lon="9.063741599270275"><ele>216.66666666666669</ele><time>2026-04-24T10:17:00.999Z</time></trkpt><trkpt lat="44.878376256510585" lon="9.063786575925294"><ele>215.33333333333331</ele><time>2026-04-24T10:17:01.999Z</time></trkpt><trkpt lat="44.87821188350319" lon="9.063841171013076"><ele>214.0</ele><time>2026-04-24T10:17:02.999Z</time></trkpt><trkpt lat="44.87803657950508" lon="9.063897614345516"><ele>214.0</ele><time>2026-04-24T10:17:03.999Z</time></trkpt><trkpt lat="44.87787364989231" lon="9.0639653925171"><ele>214.0</ele><time>2026-04-24T10:17:04.999Z</time></trkpt><trkpt lat="44.87770330280857" lon="9.064027363651189"><ele>214.0</ele><time>2026-04-24T10:17:05.999Z</time></trkpt><trkpt lat="44.87753732504001" lon="9.064078401915635"><ele>217.0</ele><time>2026-04-24T10:17:06.999Z</time></trkpt><trkpt lat="44.87736924493492" lon="9.064138234420732"><ele>220.0</ele><time>2026-04-24T10:17:07.999Z</time></trkpt><trkpt lat="44.877200636899715" lon="9.064198254829124"><ele>223.0</ele><time>2026-04-24T10:17:08.999Z</time></trkpt><trkpt lat="44.87703606968906" lon="9.064256836828145"><ele>223.0</ele><time>2026-04-24T10:17:09.999Z</time></trkpt><trkpt lat="44.87685805991627" lon="9.064320204038209"><ele>223.0</ele><time>2026-04-24T10:17:10.999Z</time></trkpt><trkpt lat="44.87668327166764" lon="9.06438242442836"><ele>223.0</ele><time>2026-04-24T10:17:11.999Z</time></trkpt><trkpt lat="44.87648094110693" lon="9.06445290382692"><ele>220.5</ele><time>2026-04-24T10:17:12.999Z</time></trkpt><trkpt lat="44.87625407376037" lon="9.06453309277836"><ele>218.0</ele><time>2026-04-24T10:17:13.999Z</time></trkpt><trkpt lat="44.87601709620569" lon="9.064616857207813"><ele>216.5</ele><time>2026-04-24T10:17:14.999Z</time></trkpt><trkpt lat="44.875787208893875" lon="9.064697536805555"><ele>215.0</ele><time>2026-04-24T10:17:15.999Z</time></trkpt><trkpt lat="44.87553918460523" lon="9.064784664645183"><ele>215.0</ele><time>2026-04-24T10:17:16.999Z</time></trkpt><trkpt lat="44.87530039869914" lon="9.064868547195914"><ele>215.0</ele><time>2026-04-24T10:17:17.999Z</time></trkpt><trkpt lat="44.87507215781596" lon="9.0649502512611"><ele>217.66666666666669</ele><time>2026-04-24T10:17:18.999Z</time></trkpt><trkpt lat="44.87486668582037" lon="9.065064769633766"><ele>220.33333333333331</ele><time>2026-04-24T10:17:19.999Z</time></trkpt><trkpt lat="44.87467345469508" lon="9.065135881297085"><ele>223.0</ele><time>2026-04-24T10:17:20.999Z</time></trkpt><trkpt lat="44.874512464066626" lon="9.06526979561255"><ele>223.0</ele><time>2026-04-24T10:17:21.999Z</time></trkpt><trkpt lat="44.874360935897215" lon="9.06545758875389"><ele>223.0</ele><time>2026-04-24T10:17:22.999Z</time></trkpt><trkpt lat="44.87420831241789" lon="9.065684269097128"><ele>223.0</ele><time>2026-04-24T10:17:23.999Z</time></trkpt><trkpt lat="44.874047388488215" lon="9.065872321901923"><ele>224.66666666666666</ele><time>2026-04-24T10:17:24.999Z</time></trkpt><trkpt lat="44.87389875465638" lon="9.066097580189822"><ele>226.33333333333331</ele><time>2026-04-24T10:17:25.999Z</time></trkpt><trkpt lat="44.873743964625646" lon="9.066311335462464"><ele>228.0</ele><time>2026-04-24T10:17:26.999Z</time></trkpt><trkpt lat="44.873589425313526" lon="9.066520772823019"><ele>228.0</ele><time>2026-04-24T10:17:27.999Z</time></trkpt><trkpt lat="44.87342535766196" lon="9.066713154065605"><ele>228.0</ele><time>2026-04-24T10:17:28.999Z</time></trkpt><trkpt lat="44.873277416602136" lon="9.066898593317632"><ele>228.0</ele><time>2026-04-24T10:17:29.999Z</time></trkpt><trkpt lat="44.87311809364669" lon="9.067067004625585"><ele>228.0</ele><time>2026-04-24T10:17:30.999Z</time></trkpt><trkpt lat="44.87295261727578" lon="9.067228814265219"><ele>228.0</ele><time>2026-04-24T10:17:31.999Z</time></trkpt><trkpt lat="44.87276026724726" lon="9.067403031113319"><ele>228.0</ele><time>2026-04-24T10:17:32.999Z</time></trkpt><trkpt lat="44.87257143220687" lon="9.067536958392397"><ele>228.33333333333331</ele><time>2026-04-24T10:17:33.999Z</time></trkpt><trkpt lat="44.8723790100299" lon="9.067611713018513"><ele>228.66666666666666</ele><time>2026-04-24T10:17:34.999Z</time></trkpt><trkpt lat="44.872175223552226" lon="9.067653091588035"><ele>229.0</ele><time>2026-04-24T10:17:35.999Z</time></trkpt><trkpt lat="44.87196110248787" lon="9.067695506358078"><ele>228.66666666666666</ele><time>2026-04-24T10:17:36.999Z</time></trkpt><trkpt lat="44.871741393175185" lon="9.067713696107488"><ele>228.33333333333331</ele><time>2026-04-24T10:17:37.999Z</time></trkpt><trkpt lat="44.87154195414316" lon="9.067741212148094"><ele>228.0</ele><time>2026-04-24T10:17:38.999Z</time></trkpt><trkpt lat="44.87133513941153" lon="9.067791893715258"><ele>228.0</ele><time>2026-04-24T10:17:39.999Z</time></trkpt><trkpt lat="44.87115412830099" lon="9.067877205940755"><ele>228.0</ele><time>2026-04-24T10:17:40.999Z</time></trkpt><trkpt lat="44.87096610436899" lon="9.067943968912145"><ele>228.0</ele><time>2026-04-24T10:17:41.999Z</time></trkpt><trkpt lat="44.87080472254113" lon="9.068078767147501"><ele>231.0</ele><time>2026-04-24T10:17:42.999Z</time></trkpt><trkpt lat="44.87067058203258" lon="9.068309590772992"><ele>234.0</ele><time>2026-04-24T10:17:43.999Z</time></trkpt><trkpt lat="44.870537199014464" lon="9.06852571548569"><ele>237.0</ele><time>2026-04-24T10:17:44.999Z</time></trkpt><trkpt lat="44.870409489557524" lon="9.068743514418774"><ele>237.0</ele><time>2026-04-24T10:17:45.999Z</time></trkpt><trkpt lat="44.87028581190835" lon="9.068968308102967"><ele>237.0</ele><time>2026-04-24T10:17:46.999Z</time></trkpt><trkpt lat="44.87017834007197" lon="9.069197855959862"><ele>237.0</ele><time>2026-04-24T10:17:47.999Z</time></trkpt><trkpt lat="44.870106510498836" lon="9.069396058203592"><ele>237.0</ele><time>2026-04-24T10:17:48.999Z</time></trkpt><trkpt lat="44.870056625996966" lon="9.06963498639442"><ele>237.0</ele><time>2026-04-24T10:17:49.999Z</time></trkpt><trkpt lat="44.87002554321023" lon="9.069899190114256"><ele>237.0</ele><time>2026-04-24T10:17:50.999Z</time></trkpt><trkpt lat="44.86998496499715" lon="9.070142676518955"><ele>237.0</ele><time>2026-04-24T10:17:51.999Z</time></trkpt><trkpt lat="44.869903443990935" lon="9.070358064031375"><ele>237.0</ele><time>2026-04-24T10:17:52.999Z</time></trkpt><trkpt lat="44.86977636689261" lon="9.070537126509713"><ele>237.0</ele><time>2026-04-24T10:17:53.999Z</time></trkpt><trkpt lat="44.86963346205154" lon="9.070679733562233"><ele>236.33333333333331</ele><time>2026-04-24T10:17:54.999Z</time></trkpt><trkpt lat="44.86946143478287" lon="9.070799992706702"><ele>235.66666666666666</ele><time>2026-04-24T10:17:55.999Z</time></trkpt><trkpt lat="44.869279665300034" lon="9.070866133171117"><ele>235.0</ele><time>2026-04-24T10:17:56.999Z</time></trkpt><trkpt lat="44.86907386084379" lon="9.070906574851174"><ele>235.0</ele><time>2026-04-24T10:17:57.999Z</time></trkpt><trkpt lat="44.86888189155399" lon="9.070939836239706"><ele>235.0</ele><time>2026-04-24T10:17:59Z</time></trkpt><trkpt lat="44.86869188440229" lon="9.070970833295906"><ele>235.0</ele><time>2026-04-24T10:18:00Z</time></trkpt><trkpt lat="44.86850549002311" lon="9.071001270558224"><ele>233.66666666666666</ele><time>2026-04-24T10:18:01Z</time></trkpt><trkpt lat="44.86832665878504" lon="9.071030472798958"><ele>232.33333333333331</ele><time>2026-04-24T10:18:02Z</time></trkpt><trkpt lat="44.86815153551573" lon="9.07105906955159"><ele>231.0</ele><time>2026-04-24T10:18:03Z</time></trkpt><trkpt lat="44.86795825596869" lon="9.071090631163639"><ele>231.0</ele><time>2026-04-24T10:18:04Z</time></trkpt><trkpt lat="44.86778700060556" lon="9.071118596289617"><ele>231.0</ele><time>2026-04-24T10:18:05Z</time></trkpt><trkpt lat="44.8676095343005" lon="9.07114739074475"><ele>231.0</ele><time>2026-04-24T10:18:06Z</time></trkpt><trkpt lat="44.86743615062556" lon="9.07117510675859"><ele>230.33333333333331</ele><time>2026-04-24T10:18:07Z</time></trkpt><trkpt lat="44.8672601760346" lon="9.071203236872076"><ele>229.66666666666666</ele><time>2026-04-24T10:18:08Z</time></trkpt><trkpt lat="44.86708921329375" lon="9.07123056590754"><ele>229.0</ele><time>2026-04-24T10:18:09Z</time></trkpt><trkpt lat="44.86691433206473" lon="9.071258521291712"><ele>230.0</ele><time>2026-04-24T10:18:10Z</time></trkpt><trkpt lat="44.86675134561911" lon="9.07128609903503"><ele>231.0</ele><time>2026-04-24T10:18:11Z</time></trkpt><trkpt lat="44.86657721549404" lon="9.071316897306412"><ele>232.0</ele><time>2026-04-24T10:18:12Z</time></trkpt><trkpt lat="44.86640896465872" lon="9.071346157468687"><ele>232.0</ele><time>2026-04-24T10:18:13Z</time></trkpt><trkpt lat="44.866246120750496" lon="9.0713929589898"><ele>232.0</ele><time>2026-04-24T10:18:14Z</time></trkpt><trkpt lat="44.86607660436488" lon="9.071425108967691"><ele>232.0</ele><time>2026-04-24T10:18:15Z</time></trkpt><trkpt lat="44.86590463104305" lon="9.071432497706603"><ele>232.0</ele><time>2026-04-24T10:18:16Z</time></trkpt><trkpt lat="44.86573287965397" lon="9.07148505965351"><ele>232.0</ele><time>2026-04-24T10:18:17Z</time></trkpt><trkpt lat="44.86556498207247" lon="9.071509445547829"><ele>232.0</ele><time>2026-04-24T10:18:18Z</time></trkpt><trkpt lat="44.865395915777206" lon="9.071536744115365"><ele>232.0</ele><time>2026-04-24T10:18:19Z</time></trkpt><trkpt lat="44.86519948858628" lon="9.071530271600622"><ele>232.0</ele><time>2026-04-24T10:18:20Z</time></trkpt><trkpt lat="44.86502601750147" lon="9.071565903813937"><ele>232.0</ele><time>2026-04-24T10:18:21Z</time></trkpt><trkpt lat="44.864856273272885" lon="9.071621474754783"><ele>232.0</ele><time>2026-04-24T10:18:22Z</time></trkpt><trkpt lat="44.86466827761809" lon="9.071634889354522"><ele>232.0</ele><time>2026-04-24T10:18:23Z</time></trkpt><trkpt lat="44.86450879538358" lon="9.071660806145138"><ele>232.0</ele><time>2026-04-24T10:18:24Z</time></trkpt><trkpt lat="44.864334795060834" lon="9.071689082211442"><ele>231.66666666666666</ele><time>2026-04-24T10:18:25Z</time></trkpt><trkpt lat="44.86415375650153" lon="9.071718502001298"><ele>231.33333333333331</ele><time>2026-04-24T10:18:26Z</time></trkpt><trkpt lat="44.86397592460301" lon="9.071747400721733"><ele>231.0</ele><time>2026-04-24T10:18:27Z</time></trkpt><trkpt lat="44.863784965843855" lon="9.071805214062284"><ele>231.0</ele><time>2026-04-24T10:18:28Z</time></trkpt><trkpt lat="44.86361475832285" lon="9.07183142671853"><ele>231.0</ele><time>2026-04-24T10:18:29Z</time></trkpt><trkpt lat="44.8634305069448" lon="9.071887670440553"><ele>231.0</ele><time>2026-04-24T10:18:30Z</time></trkpt><trkpt lat="44.863263968982274" lon="9.071939047787366"><ele>231.0</ele><time>2026-04-24T10:18:31Z</time></trkpt><trkpt lat="44.863093090424165" lon="9.072058564190945"><ele>231.0</ele><time>2026-04-24T10:18:32Z</time></trkpt><trkpt lat="44.86294640589372" lon="9.072230302030462"><ele>231.0</ele><time>2026-04-24T10:18:33Z</time></trkpt><trkpt lat="44.86278928168901" lon="9.072388885107072"><ele>232.66666666666669</ele><time>2026-04-24T10:18:34Z</time></trkpt><trkpt lat="44.86267004464526" lon="9.072577639434433"><ele>234.33333333333334</ele><time>2026-04-24T10:18:35Z</time></trkpt><trkpt lat="44.8625771522827" lon="9.07280288154697"><ele>236.0</ele><time>2026-04-24T10:18:36Z</time></trkpt><trkpt lat="44.86248446148282" lon="9.073031123468839"><ele>236.33333333333334</ele><time>2026-04-24T10:18:37Z</time></trkpt><trkpt lat="44.86239806070284" lon="9.07325406624053"><ele>236.66666666666669</ele><time>2026-04-24T10:18:38Z</time></trkpt><trkpt lat="44.86231515174056" lon="9.07348723115039"><ele>237.0</ele><time>2026-04-24T10:18:39Z</time></trkpt><trkpt lat="44.862272361252494" lon="9.073743143236877"><ele>238.66666666666669</ele><time>2026-04-24T10:18:40Z</time></trkpt><trkpt lat="44.86221757175516" lon="9.074014376494299"><ele>240.33333333333334</ele><time>2026-04-24T10:18:41Z</time></trkpt><trkpt lat="44.86217211452872" lon="9.074311288367719"><ele>242.0</ele><time>2026-04-24T10:18:42Z</time></trkpt><trkpt lat="44.86214972722069" lon="9.074618242308127"><ele>246.5</ele><time>2026-04-24T10:18:43Z</time></trkpt><trkpt lat="44.862093622809425" lon="9.074922331166063"><ele>251.0</ele><time>2026-04-24T10:18:44Z</time></trkpt><trkpt lat="44.86205113434891" lon="9.075240100679283"><ele>254.0</ele><time>2026-04-24T10:18:45Z</time></trkpt><trkpt lat="44.86201161786008" lon="9.075558346772967"><ele>257.0</ele><time>2026-04-24T10:18:46Z</time></trkpt><trkpt lat="44.861970221004384" lon="9.075879727265326"><ele>258.6666666666667</ele><time>2026-04-24T10:18:47Z</time></trkpt><trkpt lat="44.861893302265884" lon="9.076145042433701"><ele>260.3333333333333</ele><time>2026-04-24T10:18:48Z</time></trkpt><trkpt lat="44.861854244731475" lon="9.07640261445852"><ele>262.0</ele><time>2026-04-24T10:18:49Z</time></trkpt><trkpt lat="44.86178633105012" lon="9.07668058021125"><ele>256.66666666666663</ele><time>2026-04-24T10:18:50Z</time></trkpt><trkpt lat="44.86168191787482" lon="9.076974136822384"><ele>251.33333333333331</ele><time>2026-04-24T10:18:51Z</time></trkpt><trkpt lat="44.861607042371716" lon="9.077230930184854"><ele>246.0</ele><time>2026-04-24T10:18:52Z</time></trkpt><trkpt lat="44.86153023346624" lon="9.077522614564113"><ele>246.0</ele><time>2026-04-24T10:18:53Z</time></trkpt><trkpt lat="44.86139519775576" lon="9.077794212345983"><ele>246.0</ele><time>2026-04-24T10:18:53.999Z</time></trkpt><trkpt lat="44.861230896387035" lon="9.078033496654527"><ele>246.0</ele><time>2026-04-24T10:18:54.999Z</time></trkpt><trkpt lat="44.86106045553679" lon="9.078267909870652"><ele>246.0</ele><time>2026-04-24T10:18:55.999Z</time></trkpt><trkpt lat="44.86089687692122" lon="9.078511207922677"><ele>245.0</ele><time>2026-04-24T10:18:56.999Z</time></trkpt><trkpt lat="44.86073052588691" lon="9.07871611246013"><ele>244.0</ele><time>2026-04-24T10:18:57.999Z</time></trkpt><trkpt lat="44.86057121166889" lon="9.078925915131645"><ele>243.0</ele><time>2026-04-24T10:18:58.999Z</time></trkpt><trkpt lat="44.860412232323156" lon="9.079124284965017"><ele>244.0</ele><time>2026-04-24T10:18:59.999Z</time></trkpt><trkpt lat="44.86028874144597" lon="9.079341628237202"><ele>245.0</ele><time>2026-04-24T10:19:00.999Z</time></trkpt><trkpt lat="44.860179229621856" lon="9.07957834379194"><ele>246.0</ele><time>2026-04-24T10:19:01.999Z</time></trkpt><trkpt lat="44.860061370741285" lon="9.079817963322641"><ele>247.0</ele><time>2026-04-24T10:19:02.999Z</time></trkpt><trkpt lat="44.85992417954914" lon="9.080060706650048"><ele>248.0</ele><time>2026-04-24T10:19:03.999Z</time></trkpt><trkpt lat="44.85986479470905" lon="9.080344648035279"><ele>249.0</ele><time>2026-04-24T10:19:04.999Z</time></trkpt><trkpt lat="44.85984306535914" lon="9.08063567231973"><ele>250.66666666666669</ele><time>2026-04-24T10:19:05.999Z</time></trkpt><trkpt lat="44.859794731263925" lon="9.080904094789979"><ele>252.33333333333334</ele><time>2026-04-24T10:19:06.999Z</time></trkpt><trkpt lat="44.8597068193664" lon="9.081145996757039"><ele>254.0</ele><time>2026-04-24T10:19:07.999Z</time></trkpt><trkpt lat="44.85958132028674" lon="9.081367764502847"><ele>254.0</ele><time>2026-04-24T10:19:08.999Z</time></trkpt><trkpt lat="44.859417630389636" lon="9.081562324379997"><ele>254.0</ele><time>2026-04-24T10:19:09.999Z</time></trkpt><trkpt lat="44.859250848344615" lon="9.081750203078878"><ele>254.0</ele><time>2026-04-24T10:19:10.999Z</time></trkpt><trkpt lat="44.85906750018056" lon="9.081905536786666"><ele>252.66666666666669</ele><time>2026-04-24T10:19:11.999Z</time></trkpt><trkpt lat="44.85890991876175" lon="9.082082075361143"><ele>251.33333333333331</ele><time>2026-04-24T10:19:12.999Z</time></trkpt><trkpt lat="44.85874621606418" lon="9.082243611169838"><ele>250.0</ele><time>2026-04-24T10:19:13.999Z</time></trkpt><trkpt lat="44.85855985669723" lon="9.082403693641893"><ele>251.33333333333331</ele><time>2026-04-24T10:19:14.999Z</time></trkpt><trkpt lat="44.85838614644535" lon="9.082554706397845"><ele>252.66666666666669</ele><time>2026-04-24T10:19:15.999Z</time></trkpt><trkpt lat="44.858229557592495" lon="9.082720724808734"><ele>254.0</ele><time>2026-04-24T10:19:16.999Z</time></trkpt><trkpt lat="44.858073119575785" lon="9.082883023761681"><ele>254.0</ele><time>2026-04-24T10:19:17.999Z</time></trkpt><trkpt lat="44.857913135530616" lon="9.083045559095586"><ele>254.0</ele><time>2026-04-24T10:19:18.999Z</time></trkpt><trkpt lat="44.857752248142006" lon="9.083193651173866"><ele>254.0</ele><time>2026-04-24T10:19:19.999Z</time></trkpt><trkpt lat="44.857603763275144" lon="9.08332449154703"><ele>255.66666666666669</ele><time>2026-04-24T10:19:20.999Z</time></trkpt><trkpt lat="44.85747019821908" lon="9.083461263576948"><ele>257.3333333333333</ele><time>2026-04-24T10:19:21.999Z</time></trkpt><trkpt lat="44.85733307103709" lon="9.083595118889226"><ele>259.0</ele><time>2026-04-24T10:19:22.999Z</time></trkpt><trkpt lat="44.85723069845102" lon="9.083715650018947"><ele>259.0</ele><time>2026-04-24T10:19:23.999Z</time></trkpt><trkpt lat="44.85710445812288" lon="9.083814770657987"><ele>259.0</ele><time>2026-04-24T10:19:24.999Z</time></trkpt><trkpt lat="44.85698479595213" lon="9.083903258932988"><ele>259.0</ele><time>2026-04-24T10:19:25.999Z</time></trkpt><trkpt lat="44.85689140432908" lon="9.08399333158416"><ele>259.0</ele><time>2026-04-24T10:19:26.999Z</time></trkpt><trkpt lat="44.85681243067721" lon="9.0840686502626"><ele>258.2</ele><time>2026-04-24T10:19:27.999Z</time></trkpt><trkpt lat="44.85672698579745" lon="9.084146408505191"><ele>257.4</ele><time>2026-04-24T10:19:28.999Z</time></trkpt><trkpt lat="44.85664961749587" lon="9.084243209570086"><ele>256.6</ele><time>2026-04-24T10:19:29.999Z</time></trkpt><trkpt lat="44.85657963644443" lon="9.084358595665218"><ele>255.8</ele><time>2026-04-24T10:19:30.999Z</time></trkpt><trkpt lat="44.85652973093179" lon="9.084505886595037"><ele>255.0</ele><time>2026-04-24T10:19:31.999Z</time></trkpt><trkpt lat="44.85648393568836" lon="9.08462026175469"><ele>255.0</ele><time>2026-04-24T10:19:32.999Z</time></trkpt><trkpt lat="44.85646612944454" lon="9.084769261217279"><ele>255.0</ele><time>2026-04-24T10:19:33.999Z</time></trkpt><trkpt lat="44.856436612946005" lon="9.084945440582747"><ele>255.0</ele><time>2026-04-24T10:19:34.999Z</time></trkpt><trkpt lat="44.8564198318918" lon="9.085134373563136"><ele>255.0</ele><time>2026-04-24T10:19:35.999Z</time></trkpt><trkpt lat="44.85640992626265" lon="9.085363862786211"><ele>256.0</ele><time>2026-04-24T10:19:36.999Z</time></trkpt><trkpt lat="44.856382942782716" lon="9.08557992986848"><ele>257.0</ele><time>2026-04-24T10:19:37.999Z</time></trkpt><trkpt lat="44.85640760255213" lon="9.085838719878245"><ele>258.0</ele><time>2026-04-24T10:19:38.999Z</time></trkpt><trkpt lat="44.856378297087005" lon="9.086071903760896"><ele>259.0</ele><time>2026-04-24T10:19:39.999Z</time></trkpt><trkpt lat="44.85634127633977" lon="9.086306044859626"><ele>260.0</ele><time>2026-04-24T10:19:40.999Z</time></trkpt><trkpt lat="44.856316663572656" lon="9.086549092289351"><ele>261.0</ele><time>2026-04-24T10:19:41.999Z</time></trkpt><trkpt lat="44.85629764633894" lon="9.08677327623489"><ele>262.0</ele><time>2026-04-24T10:19:42.999Z</time></trkpt><trkpt lat="44.85627749313539" lon="9.087027955384208"><ele>263.0</ele><time>2026-04-24T10:19:43.999Z</time></trkpt><trkpt lat="44.85625417065525" lon="9.087258977722666"><ele>264.0</ele><time>2026-04-24T10:19:44.999Z</time></trkpt><trkpt lat="44.856229120137066" lon="9.087504203021481"><ele>265.3333333333333</ele><time>2026-04-24T10:19:45.999Z</time></trkpt><trkpt lat="44.85620461874958" lon="9.087726727004538"><ele>266.66666666666663</ele><time>2026-04-24T10:19:46.999Z</time></trkpt><trkpt lat="44.856177120700465" lon="9.087985053409408"><ele>268.0</ele><time>2026-04-24T10:19:47.999Z</time></trkpt><trkpt lat="44.856156743064474" lon="9.088241710903054"><ele>267.3333333333333</ele><time>2026-04-24T10:19:48.999Z</time></trkpt><trkpt lat="44.856153709040406" lon="9.088481292320866"><ele>266.6666666666667</ele><time>2026-04-24T10:19:49.999Z</time></trkpt><trkpt lat="44.85611777408933" lon="9.088692158028193"><ele>266.0</ele><time>2026-04-24T10:19:50.999Z</time></trkpt><trkpt lat="44.8561103621283" lon="9.088935519218555"><ele>267.6666666666667</ele><time>2026-04-24T10:19:51.999Z</time></trkpt><trkpt lat="44.85607274695995" lon="9.08916600769523"><ele>269.3333333333333</ele><time>2026-04-24T10:19:52.999Z</time></trkpt><trkpt lat="44.85604016966119" lon="9.089378979852585"><ele>271.0</ele><time>2026-04-24T10:19:53.999Z</time></trkpt><trkpt lat="44.855975546880046" lon="9.089574540764554"><ele>268.66666666666663</ele><time>2026-04-24T10:19:54.999Z</time></trkpt><trkpt lat="44.855891018993965" lon="9.089788637431955"><ele>266.3333333333333</ele><time>2026-04-24T10:19:55.999Z</time></trkpt><trkpt lat="44.85578682259437" lon="9.0899986938371"><ele>264.0</ele><time>2026-04-24T10:19:56.999Z</time></trkpt><trkpt lat="44.85567678465342" lon="9.090180967684903"><ele>264.0</ele><time>2026-04-24T10:19:57.999Z</time></trkpt><trkpt lat="44.85555111727487" lon="9.090370899286512"><ele>264.0</ele><time>2026-04-24T10:19:58.999Z</time></trkpt><trkpt lat="44.85543386867309" lon="9.090565783855835"><ele>264.0</ele><time>2026-04-24T10:19:59.999Z</time></trkpt><trkpt lat="44.855302206549524" lon="9.090724934311801"><ele>264.0</ele><time>2026-04-24T10:20:00.999Z</time></trkpt><trkpt lat="44.85518041945431" lon="9.090900060535017"><ele>264.0</ele><time>2026-04-24T10:20:01.999Z</time></trkpt><trkpt lat="44.85507354227082" lon="9.09109962565278"><ele>264.0</ele><time>2026-04-24T10:20:02.999Z</time></trkpt><trkpt lat="44.855016236027524" lon="9.091301036395976"><ele>263.3333333333333</ele><time>2026-04-24T10:20:03.999Z</time></trkpt><trkpt lat="44.85493477358612" lon="9.091528919157708"><ele>262.66666666666663</ele><time>2026-04-24T10:20:04.999Z</time></trkpt><trkpt lat="44.85489144675011" lon="9.091730743980488"><ele>262.0</ele><time>2026-04-24T10:20:05.999Z</time></trkpt><trkpt lat="44.85490999658124" lon="9.091990901424117"><ele>262.0</ele><time>2026-04-24T10:20:06.999Z</time></trkpt><trkpt lat="44.854925541419895" lon="9.09225159620251"><ele>262.0</ele><time>2026-04-24T10:20:07.999Z</time></trkpt><trkpt lat="44.85492295228408" lon="9.0924950612112"><ele>262.0</ele><time>2026-04-24T10:20:08.999Z</time></trkpt><trkpt lat="44.85493170761507" lon="9.092744607447996"><ele>262.66666666666663</ele><time>2026-04-24T10:20:09.999Z</time></trkpt><trkpt lat="44.85492803872312" lon="9.092999709783559"><ele>263.3333333333333</ele><time>2026-04-24T10:20:10.999Z</time></trkpt><trkpt lat="44.85492334337401" lon="9.093253527549498"><ele>264.0</ele><time>2026-04-24T10:20:11.999Z</time></trkpt><trkpt lat="44.854903079573766" lon="9.093516529353646"><ele>264.3333333333333</ele><time>2026-04-24T10:20:12.999Z</time></trkpt><trkpt lat="44.85489511928402" lon="9.093772988815058"><ele>264.66666666666663</ele><time>2026-04-24T10:20:13.999Z</time></trkpt><trkpt lat="44.85488487187042" lon="9.094035413320988"><ele>265.0</ele><time>2026-04-24T10:20:14.999Z</time></trkpt><trkpt lat="44.85486268968428" lon="9.09427951835565"><ele>265.0</ele><time>2026-04-24T10:20:15.999Z</time></trkpt><trkpt lat="44.85481151595109" lon="9.094505104861764"><ele>265.0</ele><time>2026-04-24T10:20:16.999Z</time></trkpt><trkpt lat="44.85473113989635" lon="9.094706871854472"><ele>265.0</ele><time>2026-04-24T10:20:17.999Z</time></trkpt><trkpt lat="44.854618459177146" lon="9.094886069350178"><ele>265.66666666666663</ele><time>2026-04-24T10:20:18.999Z</time></trkpt><trkpt lat="44.854519734544226" lon="9.095109703195469"><ele>266.3333333333333</ele><time>2026-04-24T10:20:19.999Z</time></trkpt><trkpt lat="44.85435781285093" lon="9.095233893717962"><ele>267.0</ele><time>2026-04-24T10:20:20.999Z</time></trkpt><trkpt lat="44.854194074259055" lon="9.095333328116283"><ele>265.6666666666667</ele><time>2026-04-24T10:20:21.999Z</time></trkpt><trkpt lat="44.854035685543764" lon="9.095437576878275"><ele>264.33333333333337</ele><time>2026-04-24T10:20:22.999Z</time></trkpt><trkpt lat="44.85384875958337" lon="9.095500349501403"><ele>263.0</ele><time>2026-04-24T10:20:23.999Z</time></trkpt><trkpt lat="44.8537044256489" lon="9.095606739258882"><ele>263.0</ele><time>2026-04-24T10:20:24.999Z</time></trkpt><trkpt lat="44.85353967280606" lon="9.095726260920928"><ele>263.0</ele><time>2026-04-24T10:20:25.999Z</time></trkpt><trkpt lat="44.85338355323499" lon="9.095840160112425"><ele>263.0</ele><time>2026-04-24T10:20:26.999Z</time></trkpt><trkpt lat="44.853232258616785" lon="9.095953512184579"><ele>264.0</ele><time>2026-04-24T10:20:27.999Z</time></trkpt><trkpt lat="44.85308044559954" lon="9.096066611498475"><ele>265.0</ele><time>2026-04-24T10:20:28.999Z</time></trkpt><trkpt lat="44.85294280804759" lon="9.096168115208362"><ele>266.0</ele><time>2026-04-24T10:20:29.999Z</time></trkpt><trkpt lat="44.85280742805016" lon="9.096267955711088"><ele>266.0</ele><time>2026-04-24T10:20:30.999Z</time></trkpt><trkpt lat="44.85267410980575" lon="9.096366303609207"><ele>266.0</ele><time>2026-04-24T10:20:31.999Z</time></trkpt><trkpt lat="44.85254157448245" lon="9.096469125454504"><ele>266.0</ele><time>2026-04-24T10:20:32.999Z</time></trkpt><trkpt lat="44.85239370812616" lon="9.096561362982499"><ele>265.75</ele><time>2026-04-24T10:20:33.999Z</time></trkpt><trkpt lat="44.85225336127665" lon="9.096650966290884"><ele>265.5</ele><time>2026-04-24T10:20:34.999Z</time></trkpt><trkpt lat="44.85215564442237" lon="9.096754221551624"><ele>265.25</ele><time>2026-04-24T10:20:35.999Z</time></trkpt><trkpt lat="44.85203202726519" lon="9.09685220384464"><ele>265.0</ele><time>2026-04-24T10:20:36.999Z</time></trkpt><trkpt lat="44.85191012131368" lon="9.09692422585794"><ele>265.0</ele><time>2026-04-24T10:20:37.999Z</time></trkpt><trkpt lat="44.85182869404269" lon="9.097009924114571"><ele>265.0</ele><time>2026-04-24T10:20:38.999Z</time></trkpt><trkpt lat="44.85168592240426" lon="9.09709838844195"><ele>265.0</ele><time>2026-04-24T10:20:39.999Z</time></trkpt><trkpt lat="44.85158569585246" lon="9.097173878119873"><ele>265.0</ele><time>2026-04-24T10:20:40.999Z</time></trkpt><trkpt lat="44.85145258325487" lon="9.097221380770046"><ele>265.0</ele><time>2026-04-24T10:20:41.999Z</time></trkpt><trkpt lat="44.85135452410975" lon="9.097306889252389"><ele>265.0</ele><time>2026-04-24T10:20:42.999Z</time></trkpt><trkpt lat="44.85123635524389" lon="9.097393706265096"><ele>265.0</ele><time>2026-04-24T10:20:43.999Z</time></trkpt><trkpt lat="44.85113763426359" lon="9.097499662443353"><ele>265.0</ele><time>2026-04-24T10:20:44.999Z</time></trkpt><trkpt lat="44.85102452020922" lon="9.097602079327181"><ele>265.25</ele><time>2026-04-24T10:20:45.999Z</time></trkpt><trkpt lat="44.85092027098304" lon="9.097683889904383"><ele>265.5</ele><time>2026-04-24T10:20:46.999Z</time></trkpt><trkpt lat="44.8508154018533" lon="9.09775604794605"><ele>265.75</ele><time>2026-04-24T10:20:47.999Z</time></trkpt><trkpt lat="44.85068778674257" lon="9.09783418220232"><ele>266.0</ele><time>2026-04-24T10:20:48.999Z</time></trkpt><trkpt lat="44.85060707259046" lon="9.097910547022922"><ele>266.0</ele><time>2026-04-24T10:20:49.999Z</time></trkpt><trkpt lat="44.8504777507694" lon="9.097990097568454"><ele>266.0</ele><time>2026-04-24T10:20:50.999Z</time></trkpt><trkpt lat="44.85034164089608" lon="9.0980911249625"><ele>266.0</ele><time>2026-04-24T10:20:51.999Z</time></trkpt><trkpt lat="44.85022130741662" lon="9.098166445912609"><ele>266.0</ele><time>2026-04-24T10:20:52.998Z</time></trkpt><trkpt lat="44.85009229708533" lon="9.098271245185671"><ele>266.5</ele><time>2026-04-24T10:20:53.998Z</time></trkpt><trkpt lat="44.849972975360224" lon="9.098340476216263"><ele>267.0</ele><time>2026-04-24T10:20:54.998Z</time></trkpt><trkpt lat="44.84986087449131" lon="9.098428828385483"><ele>267.5</ele><time>2026-04-24T10:20:55.998Z</time></trkpt><trkpt lat="44.84973850947712" lon="9.098498894344484"><ele>268.0</ele><time>2026-04-24T10:20:56.998Z</time></trkpt><trkpt lat="44.84960166923514" lon="9.098588167680273"><ele>268.0</ele><time>2026-04-24T10:20:57.998Z</time></trkpt><trkpt lat="44.8494981087955" lon="9.098713126906205"><ele>268.0</ele><time>2026-04-24T10:20:58.998Z</time></trkpt><trkpt lat="44.849372569343885" lon="9.098812615556415"><ele>268.0</ele><time>2026-04-24T10:20:59.998Z</time></trkpt><trkpt lat="44.849263466465736" lon="9.09894114271145"><ele>268.0</ele><time>2026-04-24T10:21:00.998Z</time></trkpt><trkpt lat="44.849126907433025" lon="9.09907993161818"><ele>269.3333333333333</ele><time>2026-04-24T10:21:01.998Z</time></trkpt><trkpt lat="44.84897902174419" lon="9.09923639132765"><ele>270.6666666666667</ele><time>2026-04-24T10:21:02.998Z</time></trkpt><trkpt lat="44.84883931267349" lon="9.099418855217403"><ele>272.0</ele><time>2026-04-24T10:21:03.998Z</time></trkpt><trkpt lat="44.84871032532892" lon="9.09958902160218"><ele>272.0</ele><time>2026-04-24T10:21:04.998Z</time></trkpt><trkpt lat="44.84859269155609" lon="9.099776313873965"><ele>272.0</ele><time>2026-04-24T10:21:05.998Z</time></trkpt><trkpt lat="44.848450688017884" lon="9.099964723269878"><ele>272.0</ele><time>2026-04-24T10:21:06.998Z</time></trkpt><trkpt lat="44.848314614444995" lon="9.10015773970932"><ele>271.33333333333337</ele><time>2026-04-24T10:21:07.998Z</time></trkpt><trkpt lat="44.84816849872494" lon="9.100353216422649"><ele>270.6666666666667</ele><time>2026-04-24T10:21:08.998Z</time></trkpt><trkpt lat="44.84803672051119" lon="9.100536058158887"><ele>270.0</ele><time>2026-04-24T10:21:09.998Z</time></trkpt><trkpt lat="44.84788422351174" lon="9.100727981440347"><ele>270.3333333333333</ele><time>2026-04-24T10:21:10.998Z</time></trkpt><trkpt lat="44.84773608824053" lon="9.1009259633569"><ele>270.66666666666663</ele><time>2026-04-24T10:21:11.998Z</time></trkpt><trkpt lat="44.84757548053347" lon="9.101136160011178"><ele>271.0</ele><time>2026-04-24T10:21:12.998Z</time></trkpt><trkpt lat="44.847425362105895" lon="9.10131933774549"><ele>271.0</ele><time>2026-04-24T10:21:13.998Z</time></trkpt><trkpt lat="44.84728199954806" lon="9.101511690951584"><ele>271.0</ele><time>2026-04-24T10:21:14.998Z</time></trkpt><trkpt lat="44.84714224774867" lon="9.101705102465807"><ele>271.0</ele><time>2026-04-24T10:21:15.998Z</time></trkpt><trkpt lat="44.846997572641015" lon="9.10189568871876"><ele>272.0</ele><time>2026-04-24T10:21:16.998Z</time></trkpt><trkpt lat="44.84686399639719" lon="9.102095103495422"><ele>273.0</ele><time>2026-04-24T10:21:17.998Z</time></trkpt><trkpt lat="44.84671835062215" lon="9.102280135285048"><ele>274.0</ele><time>2026-04-24T10:21:18.998Z</time></trkpt><trkpt lat="44.84656190503769" lon="9.10246273811138"><ele>275.3333333333333</ele><time>2026-04-24T10:21:19.998Z</time></trkpt><trkpt lat="44.846407132325055" lon="9.102663451168407"><ele>276.6666666666667</ele><time>2026-04-24T10:21:20.998Z</time></trkpt><trkpt lat="44.846253345826334" lon="9.1028682368459"><ele>278.0</ele><time>2026-04-24T10:21:21.998Z</time></trkpt><trkpt lat="44.84609580069977" lon="9.10306819433891"><ele>277.33333333333337</ele><time>2026-04-24T10:21:22.998Z</time></trkpt><trkpt lat="44.84594353566202" lon="9.103283215988041"><ele>276.6666666666667</ele><time>2026-04-24T10:21:23.998Z</time></trkpt><trkpt lat="44.84579424937977" lon="9.103476197719836"><ele>276.0</ele><time>2026-04-24T10:21:24.998Z</time></trkpt><trkpt lat="44.84565079147992" lon="9.103671005935174"><ele>276.0</ele><time>2026-04-24T10:21:25.998Z</time></trkpt><trkpt lat="44.845530701228405" lon="9.103857863735625"><ele>276.0</ele><time>2026-04-24T10:21:26.998Z</time></trkpt><trkpt lat="44.84538038140401" lon="9.10402749984149"><ele>276.0</ele><time>2026-04-24T10:21:27.998Z</time></trkpt><trkpt lat="44.84525887204983" lon="9.104199467793128"><ele>277.0</ele><time>2026-04-24T10:21:28.998Z</time></trkpt><trkpt lat="44.84513296732047" lon="9.104376717018448"><ele>278.0</ele><time>2026-04-24T10:21:29.998Z</time></trkpt><trkpt lat="44.84499514635204" lon="9.104543048675016"><ele>279.0</ele><time>2026-04-24T10:21:30.998Z</time></trkpt><trkpt lat="44.84484389356255" lon="9.104704302934719"><ele>279.0</ele><time>2026-04-24T10:21:31.998Z</time></trkpt><trkpt lat="44.84470815024796" lon="9.104881440144492"><ele>279.0</ele><time>2026-04-24T10:21:32.998Z</time></trkpt><trkpt lat="44.84459814370024" lon="9.105062628817635"><ele>279.0</ele><time>2026-04-24T10:21:33.998Z</time></trkpt><trkpt lat="44.844456903690826" lon="9.105227457221531"><ele>279.6666666666667</ele><time>2026-04-24T10:21:34.998Z</time></trkpt><trkpt lat="44.844304941993904" lon="9.105396843309457"><ele>280.33333333333337</ele><time>2026-04-24T10:21:35.998Z</time></trkpt><trkpt lat="44.844183095438765" lon="9.105566483697869"><ele>281.0</ele><time>2026-04-24T10:21:36.998Z</time></trkpt><trkpt lat="44.844085287797554" lon="9.105755989376084"><ele>281.6666666666667</ele><time>2026-04-24T10:21:37.998Z</time></trkpt><trkpt lat="44.843922309134754" lon="9.10590300227125"><ele>282.3333333333333</ele><time>2026-04-24T10:21:38.998Z</time></trkpt><trkpt lat="44.84379053966503" lon="9.106075225008022"><ele>283.0</ele><time>2026-04-24T10:21:39.998Z</time></trkpt><trkpt lat="44.8436637209415" lon="9.106241539346714"><ele>283.0</ele><time>2026-04-24T10:21:40.998Z</time></trkpt><trkpt lat="44.843525112770095" lon="9.106417587203904"><ele>283.0</ele><time>2026-04-24T10:21:41.998Z</time></trkpt><trkpt lat="44.843388407506225" lon="9.106568513423891"><ele>283.0</ele><time>2026-04-24T10:21:42.998Z</time></trkpt><trkpt lat="44.84328788314612" lon="9.106730574048163"><ele>283.3333333333333</ele><time>2026-04-24T10:21:43.998Z</time></trkpt><trkpt lat="44.84314054108953" lon="9.106896127155837"><ele>283.6666666666667</ele><time>2026-04-24T10:21:44.998Z</time></trkpt><trkpt lat="44.843025072950915" lon="9.107078808245529"><ele>284.0</ele><time>2026-04-24T10:21:45.998Z</time></trkpt><trkpt lat="44.84291411081379" lon="9.107224693679058"><ele>284.0</ele><time>2026-04-24T10:21:46.998Z</time></trkpt><trkpt lat="44.84280398046876" lon="9.107395116065902"><ele>284.0</ele><time>2026-04-24T10:21:47.998Z</time></trkpt><trkpt lat="44.84270938820489" lon="9.107543914144054"><ele>284.0</ele><time>2026-04-24T10:21:48.998Z</time></trkpt><trkpt lat="44.84259490344993" lon="9.107654073210517"><ele>284.0</ele><time>2026-04-24T10:21:49.998Z</time></trkpt><trkpt lat="44.84246821031295" lon="9.107795647844082"><ele>283.75</ele><time>2026-04-24T10:21:50.998Z</time></trkpt><trkpt lat="44.84235425581214" lon="9.107938807975328"><ele>283.5</ele><time>2026-04-24T10:21:51.998Z</time></trkpt><trkpt lat="44.842257961524496" lon="9.108079698567753"><ele>283.25</ele><time>2026-04-24T10:21:52.998Z</time></trkpt><trkpt lat="44.84215756298672" lon="9.108202638765343"><ele>283.0</ele><time>2026-04-24T10:21:53.998Z</time></trkpt><trkpt lat="44.84205228866619" lon="9.108367056197732"><ele>283.5</ele><time>2026-04-24T10:21:54.998Z</time></trkpt><trkpt lat="44.84197277997056" lon="9.1084881158079"><ele>284.0</ele><time>2026-04-24T10:21:55.998Z</time></trkpt><trkpt lat="44.84187055593459" lon="9.108619882844327"><ele>284.5</ele><time>2026-04-24T10:21:56.998Z</time></trkpt><trkpt lat="44.84175558397951" lon="9.108735267791076"><ele>285.0</ele><time>2026-04-24T10:21:57.998Z</time></trkpt><trkpt lat="44.841670766740755" lon="9.108854168569485"><ele>285.0</ele><time>2026-04-24T10:21:58.998Z</time></trkpt><trkpt lat="44.84156338794881" lon="9.108956033046866"><ele>285.0</ele><time>2026-04-24T10:21:59.998Z</time></trkpt><trkpt lat="44.841474926622354" lon="9.109077441353568"><ele>285.0</ele><time>2026-04-24T10:22:00.998Z</time></trkpt><trkpt lat="44.84134357337814" lon="9.109210626376159"><ele>285.0</ele><time>2026-04-24T10:22:01.998Z</time></trkpt><trkpt lat="44.84123614267382" lon="9.109300301121191"><ele>285.6666666666667</ele><time>2026-04-24T10:22:02.998Z</time></trkpt><trkpt lat="44.84111896915609" lon="9.109424901550648"><ele>286.33333333333337</ele><time>2026-04-24T10:22:03.998Z</time></trkpt><trkpt lat="44.84097568576847" lon="9.109510178152288"><ele>287.0</ele><time>2026-04-24T10:22:04.998Z</time></trkpt><trkpt lat="44.84083466385801" lon="9.109595480611896"><ele>287.0</ele><time>2026-04-24T10:22:05.998Z</time></trkpt><trkpt lat="44.840696047911536" lon="9.10967932769043"><ele>287.0</ele><time>2026-04-24T10:22:06.998Z</time></trkpt><trkpt lat="44.840560789499406" lon="9.109731656518916"><ele>287.0</ele><time>2026-04-24T10:22:07.998Z</time></trkpt><trkpt lat="44.84044891207449" lon="9.10982881868752"><ele>287.0</ele><time>2026-04-24T10:22:08.998Z</time></trkpt><trkpt lat="44.84031002565542" lon="9.109912875077226"><ele>287.0</ele><time>2026-04-24T10:22:09.998Z</time></trkpt><trkpt lat="44.84016765170925" lon="9.109999567210767"><ele>287.0</ele><time>2026-04-24T10:22:10.998Z</time></trkpt><trkpt lat="44.84001754947635" lon="9.11009093327226"><ele>287.0</ele><time>2026-04-24T10:22:11.998Z</time></trkpt><trkpt lat="44.83985761567977" lon="9.110188283653589"><ele>287.0</ele><time>2026-04-24T10:22:12.998Z</time></trkpt><trkpt lat="44.83968378611957" lon="9.110294092467822"><ele>287.0</ele><time>2026-04-24T10:22:13.998Z</time></trkpt><trkpt lat="44.83950858839319" lon="9.110400198345262"><ele>287.0</ele><time>2026-04-24T10:22:14.998Z</time></trkpt><trkpt lat="44.83932766806811" lon="9.110509675781026"><ele>287.0</ele><time>2026-04-24T10:22:15.998Z</time></trkpt><trkpt lat="44.83914873709454" lon="9.1106179493715"><ele>287.0</ele><time>2026-04-24T10:22:16.998Z</time></trkpt><trkpt lat="44.838956051442516" lon="9.110734546096463"><ele>287.0</ele><time>2026-04-24T10:22:17.998Z</time></trkpt><trkpt lat="44.838765595385254" lon="9.110849793729"><ele>287.0</ele><time>2026-04-24T10:22:18.998Z</time></trkpt><trkpt lat="44.83856333533885" lon="9.110972184096324"><ele>287.0</ele><time>2026-04-24T10:22:19.998Z</time></trkpt><trkpt lat="44.838350041360115" lon="9.111101251190952"><ele>287.0</ele><time>2026-04-24T10:22:20.998Z</time></trkpt><trkpt lat="44.83816304532151" lon="9.111215069979455"><ele>287.0</ele><time>2026-04-24T10:22:21.998Z</time></trkpt><trkpt lat="44.83798359039667" lon="9.111321178091284"><ele>287.0</ele><time>2026-04-24T10:22:22.998Z</time></trkpt><trkpt lat="44.83778675054713" lon="9.111439359518778"><ele>286.6666666666667</ele><time>2026-04-24T10:22:23.998Z</time></trkpt><trkpt lat="44.83760605917908" lon="9.111547869306841"><ele>286.3333333333333</ele><time>2026-04-24T10:22:24.998Z</time></trkpt><trkpt lat="44.83743120738915" lon="9.111674124263804"><ele>286.0</ele><time>2026-04-24T10:22:25.998Z</time></trkpt><trkpt lat="44.83725571003555" lon="9.111763220465473"><ele>287.3333333333333</ele><time>2026-04-24T10:22:26.998Z</time></trkpt><trkpt lat="44.83707167671291" lon="9.111881880598228"><ele>288.6666666666667</ele><time>2026-04-24T10:22:27.998Z</time></trkpt><trkpt lat="44.836915182113856" lon="9.111960169247851"><ele>290.0</ele><time>2026-04-24T10:22:28.998Z</time></trkpt><trkpt lat="44.83678096853458" lon="9.112056858396846"><ele>290.0</ele><time>2026-04-24T10:22:29.998Z</time></trkpt><trkpt lat="44.83664125735951" lon="9.112127252047598"><ele>290.0</ele><time>2026-04-24T10:22:30.998Z</time></trkpt><trkpt lat="44.8365000475159" lon="9.11224276967993"><ele>290.0</ele><time>2026-04-24T10:22:31.998Z</time></trkpt><trkpt lat="44.83639873134766" lon="9.112395947230286"><ele>291.0</ele><time>2026-04-24T10:22:32.998Z</time></trkpt><trkpt lat="44.836275254976435" lon="9.112591862982443"><ele>292.0</ele><time>2026-04-24T10:22:33.998Z</time></trkpt><trkpt lat="44.83618017993061" lon="9.112838381635825"><ele>293.0</ele><time>2026-04-24T10:22:34.998Z</time></trkpt><trkpt lat="44.83611335645962" lon="9.113108389081654"><ele>293.33333333333337</ele><time>2026-04-24T10:22:35.998Z</time></trkpt><trkpt lat="44.83604581046098" lon="9.113377403350924"><ele>293.6666666666667</ele><time>2026-04-24T10:22:36.998Z</time></trkpt><trkpt lat="44.83593630971171" lon="9.113646194055903"><ele>294.0</ele><time>2026-04-24T10:22:37.998Z</time></trkpt><trkpt lat="44.83584668147904" lon="9.113902608559721"><ele>293.0</ele><time>2026-04-24T10:22:38.998Z</time></trkpt><trkpt lat="44.835763365333186" lon="9.114140602521761"><ele>292.0</ele><time>2026-04-24T10:22:39.998Z</time></trkpt><trkpt lat="44.835678601455456" lon="9.114382237514574"><ele>291.0</ele><time>2026-04-24T10:22:40.998Z</time></trkpt><trkpt lat="44.83558808659267" lon="9.114638249487157"><ele>291.3333333333333</ele><time>2026-04-24T10:22:41.998Z</time></trkpt><trkpt lat="44.83548820673466" lon="9.114908663239705"><ele>291.66666666666663</ele><time>2026-04-24T10:22:42.998Z</time></trkpt><trkpt lat="44.835369755458" lon="9.115136348399218"><ele>292.0</ele><time>2026-04-24T10:22:43.998Z</time></trkpt><trkpt lat="44.835233014081155" lon="9.115356904851183"><ele>292.0</ele><time>2026-04-24T10:22:44.998Z</time></trkpt><trkpt lat="44.83509221783068" lon="9.115582323017474"><ele>292.0</ele><time>2026-04-24T10:22:45.998Z</time></trkpt><trkpt lat="44.834948610787606" lon="9.115812241273098"><ele>292.0</ele><time>2026-04-24T10:22:46.998Z</time></trkpt><trkpt lat="44.83481161420712" lon="9.11603157615743"><ele>294.3333333333333</ele><time>2026-04-24T10:22:47.998Z</time></trkpt><trkpt lat="44.83467175517956" lon="9.116254529539695"><ele>296.6666666666667</ele><time>2026-04-24T10:22:48.998Z</time></trkpt><trkpt lat="44.83452426458378" lon="9.116486106292788"><ele>299.0</ele><time>2026-04-24T10:22:49.998Z</time></trkpt><trkpt lat="44.83437059441958" lon="9.116705957579953"><ele>298.33333333333337</ele><time>2026-04-24T10:22:50.998Z</time></trkpt><trkpt lat="44.83420414194451" lon="9.116889929994159"><ele>297.6666666666667</ele><time>2026-04-24T10:22:51.997Z</time></trkpt><trkpt lat="44.83402254424022" lon="9.117022804042723"><ele>297.0</ele><time>2026-04-24T10:22:52.997Z</time></trkpt><trkpt lat="44.833815472657044" lon="9.117158383770255"><ele>297.0</ele><time>2026-04-24T10:22:53.997Z</time></trkpt><trkpt lat="44.8336268020298" lon="9.117279373299235"><ele>297.0</ele><time>2026-04-24T10:22:54.997Z</time></trkpt><trkpt lat="44.833423594735336" lon="9.117409021135025"><ele>297.0</ele><time>2026-04-24T10:22:55.997Z</time></trkpt><trkpt lat="44.833224591063136" lon="9.117537116686792"><ele>297.3333333333333</ele><time>2026-04-24T10:22:56.997Z</time></trkpt><trkpt lat="44.833028448343754" lon="9.11766389212319"><ele>297.66666666666663</ele><time>2026-04-24T10:22:57.997Z</time></trkpt><trkpt lat="44.83283606583107" lon="9.117801587855817"><ele>298.0</ele><time>2026-04-24T10:22:58.997Z</time></trkpt><trkpt lat="44.83263758151244" lon="9.117936177209502"><ele>298.0</ele><time>2026-04-24T10:22:59.997Z</time></trkpt><trkpt lat="44.83243311648132" lon="9.11805413392979"><ele>298.0</ele><time>2026-04-24T10:23:00.997Z</time></trkpt><trkpt lat="44.83224464635173" lon="9.118151119283413"><ele>298.0</ele><time>2026-04-24T10:23:01.997Z</time></trkpt><trkpt lat="44.83205038786645" lon="9.118263018739945"><ele>298.0</ele><time>2026-04-24T10:23:02.997Z</time></trkpt><trkpt lat="44.83185392694386" lon="9.118274932000505"><ele>298.0</ele><time>2026-04-24T10:23:03.997Z</time></trkpt><trkpt lat="44.83166328822486" lon="9.118272239138035"><ele>298.0</ele><time>2026-04-24T10:23:04.997Z</time></trkpt><trkpt lat="44.83146259633797" lon="9.118262063125416"><ele>298.0</ele><time>2026-04-24T10:23:05.997Z</time></trkpt><trkpt lat="44.83126808426438" lon="9.11828553704004"><ele>298.0</ele><time>2026-04-24T10:23:06.997Z</time></trkpt><trkpt lat="44.83107558166854" lon="9.11829517194636"><ele>298.0</ele><time>2026-04-24T10:23:07.997Z</time></trkpt><trkpt lat="44.83089767824935" lon="9.11840452069495"><ele>299.66666666666663</ele><time>2026-04-24T10:23:08.997Z</time></trkpt><trkpt lat="44.830747440551235" lon="9.118526127618997"><ele>301.3333333333333</ele><time>2026-04-24T10:23:09.997Z</time></trkpt><trkpt lat="44.83060812792266" lon="9.118696586632026"><ele>303.0</ele><time>2026-04-24T10:23:10.997Z</time></trkpt><trkpt lat="44.830488093231985" lon="9.118897400540188"><ele>304.0</ele><time>2026-04-24T10:23:11.997Z</time></trkpt><trkpt lat="44.83039748879943" lon="9.119102337023524"><ele>305.0</ele><time>2026-04-24T10:23:12.997Z</time></trkpt><trkpt lat="44.830316954672604" lon="9.119329227919799"><ele>306.0</ele><time>2026-04-24T10:23:13.997Z</time></trkpt><trkpt lat="44.83023246034059" lon="9.119527989317644"><ele>306.0</ele><time>2026-04-24T10:23:14.997Z</time></trkpt><trkpt lat="44.83014518454279" lon="9.119724228999115"><ele>306.0</ele><time>2026-04-24T10:23:15.997Z</time></trkpt><trkpt lat="44.830067715254756" lon="9.119933499690228"><ele>306.0</ele><time>2026-04-24T10:23:16.997Z</time></trkpt><trkpt lat="44.82996170044025" lon="9.120092574312514"><ele>306.0</ele><time>2026-04-24T10:23:17.997Z</time></trkpt><trkpt lat="44.82984701929685" lon="9.120210305607198"><ele>306.0</ele><time>2026-04-24T10:23:18.997Z</time></trkpt><trkpt lat="44.829734808035525" lon="9.120306492748423"><ele>306.0</ele><time>2026-04-24T10:23:19.997Z</time></trkpt><trkpt lat="44.829615480758285" lon="9.120381624203786"><ele>306.0</ele><time>2026-04-24T10:23:20.997Z</time></trkpt><trkpt lat="44.829498478312836" lon="9.120440144781142"><ele>306.0</ele><time>2026-04-24T10:23:21.997Z</time></trkpt><trkpt lat="44.829372499072704" lon="9.120492205958524"><ele>306.0</ele><time>2026-04-24T10:23:22.997Z</time></trkpt><trkpt lat="44.82926115752184" lon="9.12053507561084"><ele>306.0</ele><time>2026-04-24T10:23:23.997Z</time></trkpt><trkpt lat="44.829163151566064" lon="9.120587820846993"><ele>306.0</ele><time>2026-04-24T10:23:24.997Z</time></trkpt><trkpt lat="44.82904848569982" lon="9.120616960316976"><ele>305.40000000000003</ele><time>2026-04-24T10:23:25.997Z</time></trkpt><trkpt lat="44.82894389622805" lon="9.120657230256548"><ele>304.8</ele><time>2026-04-24T10:23:26.997Z</time></trkpt><trkpt lat="44.8288506264475" lon="9.120693141748067"><ele>304.20000000000005</ele><time>2026-04-24T10:23:27.997Z</time></trkpt><trkpt lat="44.82875990134727" lon="9.120728073517022"><ele>303.6</ele><time>2026-04-24T10:23:28.997Z</time></trkpt><trkpt lat="44.8286788165762" lon="9.120781274437428"><ele>303.0</ele><time>2026-04-24T10:23:29.997Z</time></trkpt><trkpt lat="44.8285846494398" lon="9.120810484750754"><ele>304.25</ele><time>2026-04-24T10:23:30.997Z</time></trkpt><trkpt lat="44.828472906788754" lon="9.12085341006605"><ele>305.5</ele><time>2026-04-24T10:23:31.997Z</time></trkpt><trkpt lat="44.82836532607036" lon="9.120878724009529"><ele>306.75</ele><time>2026-04-24T10:23:32.997Z</time></trkpt><trkpt lat="44.82825891207446" lon="9.120935821832578"><ele>308.0</ele><time>2026-04-24T10:23:33.997Z</time></trkpt><trkpt lat="44.82814378536494" lon="9.120976472560526"><ele>308.0</ele><time>2026-04-24T10:23:34.997Z</time></trkpt><trkpt lat="44.82803071505624" lon="9.12100837918543"><ele>308.0</ele><time>2026-04-24T10:23:35.997Z</time></trkpt><trkpt lat="44.82791238715556" lon="9.121054634764818"><ele>308.0</ele><time>2026-04-24T10:23:37Z</time></trkpt><trkpt lat="44.82779798402911" lon="9.121088518610012"><ele>308.0</ele><time>2026-04-24T10:23:38Z</time></trkpt><trkpt lat="44.82767858035778" lon="9.121138856929788"><ele>306.8</ele><time>2026-04-24T10:23:39Z</time></trkpt><trkpt lat="44.82756852596877" lon="9.121187091247428"><ele>305.6</ele><time>2026-04-24T10:23:40Z</time></trkpt><trkpt lat="44.82747663999894" lon="9.121292717364318"><ele>304.4</ele><time>2026-04-24T10:23:41Z</time></trkpt><trkpt lat="44.827384358271146" lon="9.121362165257265"><ele>303.2</ele><time>2026-04-24T10:23:42Z</time></trkpt><trkpt lat="44.82732022027617" lon="9.121412137662182"><ele>302.0</ele><time>2026-04-24T10:23:43Z</time></trkpt><trkpt lat="44.82726221579788" lon="9.121471621548082"><ele>302.0</ele><time>2026-04-24T10:23:44Z</time></trkpt><trkpt lat="44.82718409640256" lon="9.12153845449548"><ele>302.0</ele><time>2026-04-24T10:23:46Z</time></trkpt><trkpt lat="44.82710149936775" lon="9.121633989244216"><ele>302.0</ele><time>2026-04-24T10:23:48Z</time></trkpt><trkpt lat="44.82699620986925" lon="9.121710584027142"><ele>302.0</ele><time>2026-04-24T10:23:50Z</time></trkpt><trkpt lat="44.82690186392005" lon="9.121802867990368"><ele>302.0</ele><time>2026-04-24T10:23:51Z</time></trkpt><trkpt lat="44.82681104931821" lon="9.121936798677325"><ele>303.25</ele><time>2026-04-24T10:23:52Z</time></trkpt><trkpt lat="44.82671990449173" lon="9.122035521575926"><ele>304.5</ele><time>2026-04-24T10:23:53Z</time></trkpt><trkpt lat="44.82664581101369" lon="9.122142030164765"><ele>305.75</ele><time>2026-04-24T10:23:54Z</time></trkpt><trkpt lat="44.82655314567786" lon="9.122232576369566"><ele>307.0</ele><time>2026-04-24T10:23:55Z</time></trkpt><trkpt lat="44.826444430089815" lon="9.122374005853343"><ele>308.75</ele><time>2026-04-24T10:23:56Z</time></trkpt><trkpt lat="44.82630824911233" lon="9.122488436969673"><ele>310.5</ele><time>2026-04-24T10:23:57Z</time></trkpt><trkpt lat="44.82621451880971" lon="9.122625515487494"><ele>312.25</ele><time>2026-04-24T10:23:58Z</time></trkpt><trkpt lat="44.826114314616305" lon="9.122743917958593"><ele>314.0</ele><time>2026-04-24T10:23:59Z</time></trkpt><trkpt lat="44.82603105208889" lon="9.122874223123338"><ele>312.5</ele><time>2026-04-24T10:24:00Z</time></trkpt><trkpt lat="44.82594817527632" lon="9.123018677363802"><ele>311.0</ele><time>2026-04-24T10:24:01Z</time></trkpt><trkpt lat="44.82587651258931" lon="9.12315595534929"><ele>309.5</ele><time>2026-04-24T10:24:02Z</time></trkpt><trkpt lat="44.82581706206092" lon="9.123285043383667"><ele>308.0</ele><time>2026-04-24T10:24:03Z</time></trkpt><trkpt lat="44.82574065768471" lon="9.12340701414157"><ele>308.0</ele><time>2026-04-24T10:24:04Z</time></trkpt><trkpt lat="44.825679200454815" lon="9.123526980435521"><ele>308.0</ele><time>2026-04-24T10:24:05Z</time></trkpt><trkpt lat="44.82560521776742" lon="9.123652860184892"><ele>308.0</ele><time>2026-04-24T10:24:06Z</time></trkpt><trkpt lat="44.82556169277793" lon="9.123793753472258"><ele>308.0</ele><time>2026-04-24T10:24:07Z</time></trkpt><trkpt lat="44.8254735208533" lon="9.12391676308465"><ele>308.5</ele><time>2026-04-24T10:24:08Z</time></trkpt><trkpt lat="44.82540373174198" lon="9.124072799935687"><ele>309.0</ele><time>2026-04-24T10:24:09Z</time></trkpt><trkpt lat="44.825306539159754" lon="9.124225140951124"><ele>309.5</ele><time>2026-04-24T10:24:10Z</time></trkpt><trkpt lat="44.82522547580097" lon="9.124367557904822"><ele>310.0</ele><time>2026-04-24T10:24:11Z</time></trkpt><trkpt lat="44.82514934011415" lon="9.124505034964482"><ele>310.0</ele><time>2026-04-24T10:24:12Z</time></trkpt><trkpt lat="44.82507688788145" lon="9.124634704222673"><ele>310.0</ele><time>2026-04-24T10:24:13Z</time></trkpt><trkpt lat="44.824996737319566" lon="9.124755623866736"><ele>310.0</ele><time>2026-04-24T10:24:14Z</time></trkpt><trkpt lat="44.82494403383841" lon="9.12488357917097"><ele>310.0</ele><time>2026-04-24T10:24:15Z</time></trkpt><trkpt lat="44.82484973380237" lon="9.125038076018223"><ele>310.0</ele><time>2026-04-24T10:24:16Z</time></trkpt><trkpt lat="44.8247635284385" lon="9.125182122796913"><ele>310.0</ele><time>2026-04-24T10:24:17Z</time></trkpt><trkpt lat="44.82467641390485" lon="9.125336741916401"><ele>310.0</ele><time>2026-04-24T10:24:18Z</time></trkpt><trkpt lat="44.824600197023834" lon="9.125491016744691"><ele>310.0</ele><time>2026-04-24T10:24:19Z</time></trkpt><trkpt lat="44.824528693802186" lon="9.125621184908574"><ele>310.0</ele><time>2026-04-24T10:24:20Z</time></trkpt><trkpt lat="44.82445850656555" lon="9.125743364612678"><ele>310.0</ele><time>2026-04-24T10:24:21Z</time></trkpt><trkpt lat="44.82437640572246" lon="9.12588763547643"><ele>310.0</ele><time>2026-04-24T10:24:22Z</time></trkpt><trkpt lat="44.824303899873506" lon="9.126042140521358"><ele>310.0</ele><time>2026-04-24T10:24:23Z</time></trkpt><trkpt lat="44.824223138807355" lon="9.126187580078549"><ele>310.0</ele><time>2026-04-24T10:24:24Z</time></trkpt><trkpt lat="44.82416956072787" lon="9.126288998381881"><ele>310.0</ele><time>2026-04-24T10:24:25Z</time></trkpt><trkpt lat="44.82407787708336" lon="9.126420789259114"><ele>310.0</ele><time>2026-04-24T10:24:26Z</time></trkpt><trkpt lat="44.82399520782964" lon="9.126515567850678"><ele>310.0</ele><time>2026-04-24T10:24:27Z</time></trkpt><trkpt lat="44.82396183960558" lon="9.126615097679261"><ele>310.0</ele><time>2026-04-24T10:24:28Z</time></trkpt><trkpt lat="44.82390466426537" lon="9.126692528263625"><ele>310.2</ele><time>2026-04-24T10:24:29Z</time></trkpt><trkpt lat="44.82387134693969" lon="9.126782374856488"><ele>310.4</ele><time>2026-04-24T10:24:30Z</time></trkpt><trkpt lat="44.8238014919722" lon="9.126901925962962"><ele>310.6</ele><time>2026-04-24T10:24:31Z</time></trkpt><trkpt lat="44.823718539521025" lon="9.126984963148159"><ele>310.8</ele><time>2026-04-24T10:24:32Z</time></trkpt><trkpt lat="44.82365233167253" lon="9.127123307743169"><ele>311.0</ele><time>2026-04-24T10:24:33Z</time></trkpt><trkpt lat="44.82356897638078" lon="9.127260765781818"><ele>311.0</ele><time>2026-04-24T10:24:34Z</time></trkpt><trkpt lat="44.8235418783513" lon="9.127377477307878"><ele>311.0</ele><time>2026-04-24T10:24:35Z</time></trkpt><trkpt lat="44.82346802038087" lon="9.12754252772685"><ele>311.0</ele><time>2026-04-24T10:24:36Z</time></trkpt><trkpt lat="44.82337711248987" lon="9.127697250179272"><ele>311.0</ele><time>2026-04-24T10:24:37Z</time></trkpt><trkpt lat="44.8233054214216" lon="9.127850526373715"><ele>311.33333333333337</ele><time>2026-04-24T10:24:38Z</time></trkpt><trkpt lat="44.8231856079306" lon="9.127997964255748"><ele>311.6666666666667</ele><time>2026-04-24T10:24:39Z</time></trkpt><trkpt lat="44.82308951636246" lon="9.128192397398909"><ele>312.0</ele><time>2026-04-24T10:24:40Z</time></trkpt><trkpt lat="44.82299031639195" lon="9.128400535280306"><ele>312.3333333333333</ele><time>2026-04-24T10:24:41Z</time></trkpt><trkpt lat="44.822898697764344" lon="9.12863149840272"><ele>312.66666666666663</ele><time>2026-04-24T10:24:42Z</time></trkpt><trkpt lat="44.822830911130104" lon="9.128856553529483"><ele>313.0</ele><time>2026-04-24T10:24:43Z</time></trkpt><trkpt lat="44.82277861788709" lon="9.129083017635255"><ele>315.0</ele><time>2026-04-24T10:24:44Z</time></trkpt><trkpt lat="44.82271742435114" lon="9.129316541998673"><ele>317.0</ele><time>2026-04-24T10:24:45Z</time></trkpt><trkpt lat="44.82269354001444" lon="9.12954973986172"><ele>319.0</ele><time>2026-04-24T10:24:46Z</time></trkpt><trkpt lat="44.82265412917661" lon="9.129779294418828"><ele>319.0</ele><time>2026-04-24T10:24:47Z</time></trkpt><trkpt lat="44.82261354104734" lon="9.130031550378455"><ele>319.0</ele><time>2026-04-24T10:24:48Z</time></trkpt><trkpt lat="44.82261820087452" lon="9.13027783496151"><ele>319.0</ele><time>2026-04-24T10:24:49Z</time></trkpt><trkpt lat="44.82262385815724" lon="9.13050864498943"><ele>318.66666666666663</ele><time>2026-04-24T10:24:50Z</time></trkpt><trkpt lat="44.82263416773045" lon="9.130733155683213"><ele>318.3333333333333</ele><time>2026-04-24T10:24:51Z</time></trkpt><trkpt lat="44.822657596744726" lon="9.130968376108843"><ele>318.0</ele><time>2026-04-24T10:24:52Z</time></trkpt><trkpt lat="44.82265653614384" lon="9.131185248995676"><ele>321.3333333333333</ele><time>2026-04-24T10:24:53Z</time></trkpt><trkpt lat="44.82266542270878" lon="9.131415784108667"><ele>324.66666666666663</ele><time>2026-04-24T10:24:54Z</time></trkpt><trkpt lat="44.822687271745124" lon="9.131660897160698"><ele>328.0</ele><time>2026-04-24T10:24:55Z</time></trkpt><trkpt lat="44.82269119163115" lon="9.131898463006587"><ele>328.0</ele><time>2026-04-24T10:24:56Z</time></trkpt><trkpt lat="44.822690556456585" lon="9.132138156092118"><ele>328.0</ele><time>2026-04-24T10:24:57Z</time></trkpt><trkpt lat="44.822721913868534" lon="9.132388453589574"><ele>328.0</ele><time>2026-04-24T10:24:58Z</time></trkpt><trkpt lat="44.822726116336895" lon="9.132649530080666"><ele>328.0</ele><time>2026-04-24T10:24:59Z</time></trkpt><trkpt lat="44.82273514563732" lon="9.132919743985882"><ele>328.0</ele><time>2026-04-24T10:25:00Z</time></trkpt><trkpt lat="44.8227461403471" lon="9.133187148229876"><ele>328.0</ele><time>2026-04-24T10:25:01Z</time></trkpt><trkpt lat="44.82276019932478" lon="9.133423852783094"><ele>328.0</ele><time>2026-04-24T10:25:02Z</time></trkpt><trkpt lat="44.822802796157056" lon="9.133680541053886"><ele>328.0</ele><time>2026-04-24T10:25:03Z</time></trkpt><trkpt lat="44.82285140943581" lon="9.13390953318954"><ele>328.0</ele><time>2026-04-24T10:25:04Z</time></trkpt><trkpt lat="44.82288975079367" lon="9.1341500606058"><ele>328.0</ele><time>2026-04-24T10:25:05Z</time></trkpt><trkpt lat="44.82294444973909" lon="9.134366599404295"><ele>328.0</ele><time>2026-04-24T10:25:06Z</time></trkpt><trkpt lat="44.82301635832186" lon="9.13459787948039"><ele>328.0</ele><time>2026-04-24T10:25:07Z</time></trkpt><trkpt lat="44.82309833653956" lon="9.134822519694763"><ele>328.0</ele><time>2026-04-24T10:25:08Z</time></trkpt><trkpt lat="44.82317416755244" lon="9.135042216935247"><ele>328.0</ele><time>2026-04-24T10:25:09Z</time></trkpt><trkpt lat="44.82326291232655" lon="9.135264410198948"><ele>328.0</ele><time>2026-04-24T10:25:10Z</time></trkpt><trkpt lat="44.82334448823931" lon="9.135487591166099"><ele>328.0</ele><time>2026-04-24T10:25:11Z</time></trkpt><trkpt lat="44.82344430215789" lon="9.13570494268494"><ele>328.0</ele><time>2026-04-24T10:25:12Z</time></trkpt><trkpt lat="44.823516957038414" lon="9.13593199880534"><ele>328.0</ele><time>2026-04-24T10:25:13Z</time></trkpt><trkpt lat="44.823574848856744" lon="9.136152246709281"><ele>331.0</ele><time>2026-04-24T10:25:14Z</time></trkpt><trkpt lat="44.82362124642542" lon="9.136364889586217"><ele>334.0</ele><time>2026-04-24T10:25:15Z</time></trkpt><trkpt lat="44.82365561855246" lon="9.136591540223478"><ele>337.0</ele><time>2026-04-24T10:25:16Z</time></trkpt><trkpt lat="44.82367738006758" lon="9.136788702035137"><ele>337.0</ele><time>2026-04-24T10:25:17Z</time></trkpt><trkpt lat="44.82369032248087" lon="9.137014459000268"><ele>337.0</ele><time>2026-04-24T10:25:18Z</time></trkpt><trkpt lat="44.823693367079976" lon="9.137275463516783"><ele>337.0</ele><time>2026-04-24T10:25:19Z</time></trkpt><trkpt lat="44.82367959761258" lon="9.13755525747127"><ele>336.66666666666663</ele><time>2026-04-24T10:25:20Z</time></trkpt><trkpt lat="44.8236597376542" lon="9.137835573965774"><ele>336.3333333333333</ele><time>2026-04-24T10:25:21Z</time></trkpt><trkpt lat="44.8236330854071" lon="9.138172229231866"><ele>336.0</ele><time>2026-04-24T10:25:22Z</time></trkpt><trkpt lat="44.82360808894855" lon="9.138520537271098"><ele>336.0</ele><time>2026-04-24T10:25:23Z</time></trkpt><trkpt lat="44.8235846317277" lon="9.138849372896395"><ele>336.0</ele><time>2026-04-24T10:25:24Z</time></trkpt><trkpt lat="44.82355999446448" lon="9.139178863422003"><ele>338.5</ele><time>2026-04-24T10:25:25Z</time></trkpt><trkpt lat="44.82353838606886" lon="9.139502242269527"><ele>341.0</ele><time>2026-04-24T10:25:26Z</time></trkpt><trkpt lat="44.82353421706228" lon="9.139826227969655"><ele>341.0</ele><time>2026-04-24T10:25:27Z</time></trkpt><trkpt lat="44.823521503701095" lon="9.140159132249138"><ele>341.0</ele><time>2026-04-24T10:25:28Z</time></trkpt><trkpt lat="44.823537638366595" lon="9.140515636077156"><ele>341.5</ele><time>2026-04-24T10:25:29Z</time></trkpt><trkpt lat="44.82356475416515" lon="9.140870613611897"><ele>342.0</ele><time>2026-04-24T10:25:29.999Z</time></trkpt><trkpt lat="44.823605309589176" lon="9.141247042640384"><ele>341.5</ele><time>2026-04-24T10:25:30.999Z</time></trkpt><trkpt lat="44.82364723022781" lon="9.141621401028102"><ele>341.0</ele><time>2026-04-24T10:25:31.999Z</time></trkpt><trkpt lat="44.823681320228076" lon="9.141975811784897"><ele>341.0</ele><time>2026-04-24T10:25:32.999Z</time></trkpt><trkpt lat="44.8237213681995" lon="9.142316383717677"><ele>341.0</ele><time>2026-04-24T10:25:33.999Z</time></trkpt><trkpt lat="44.82376434556393" lon="9.142649981663137"><ele>339.5</ele><time>2026-04-24T10:25:34.999Z</time></trkpt><trkpt lat="44.823815031302914" lon="9.142997016842926"><ele>338.0</ele><time>2026-04-24T10:25:35.999Z</time></trkpt><trkpt lat="44.823827031416926" lon="9.143341763892105"><ele>337.0</ele><time>2026-04-24T10:25:36.999Z</time></trkpt><trkpt lat="44.823868241564824" lon="9.143695120591802"><ele>336.0</ele><time>2026-04-24T10:25:37.999Z</time></trkpt><trkpt lat="44.82389264282171" lon="9.144048931796497"><ele>335.5</ele><time>2026-04-24T10:25:38.999Z</time></trkpt><trkpt lat="44.82390843843513" lon="9.144397664086437"><ele>335.0</ele><time>2026-04-24T10:25:39.999Z</time></trkpt><trkpt lat="44.82391750287832" lon="9.144757259548841"><ele>336.0</ele><time>2026-04-24T10:25:40.999Z</time></trkpt><trkpt lat="44.82391959934572" lon="9.14507327224605"><ele>337.0</ele><time>2026-04-24T10:25:41.999Z</time></trkpt><trkpt lat="44.8239260631728" lon="9.145443872252784"><ele>340.0</ele><time>2026-04-24T10:25:42.999Z</time></trkpt><trkpt lat="44.82390582123116" lon="9.145801713951135"><ele>343.0</ele><time>2026-04-24T10:25:43.999Z</time></trkpt><trkpt lat="44.823875062767314" lon="9.146150424086553"><ele>343.0</ele><time>2026-04-24T10:25:44.999Z</time></trkpt><trkpt lat="44.82384587060185" lon="9.14647080836429"><ele>343.0</ele><time>2026-04-24T10:25:45.999Z</time></trkpt><trkpt lat="44.82381201935375" lon="9.146811595149495"><ele>343.0</ele><time>2026-04-24T10:25:46.999Z</time></trkpt><trkpt lat="44.823779201961166" lon="9.147136141583129"><ele>343.0</ele><time>2026-04-24T10:25:47.999Z</time></trkpt><trkpt lat="44.82374574266043" lon="9.147467036113818"><ele>343.0</ele><time>2026-04-24T10:25:48.999Z</time></trkpt><trkpt lat="44.82371085213117" lon="9.147812084729841"><ele>343.0</ele><time>2026-04-24T10:25:49.999Z</time></trkpt><trkpt lat="44.823677541849776" lon="9.148148358018927"><ele>342.5</ele><time>2026-04-24T10:25:50.999Z</time></trkpt><trkpt lat="44.82365375082524" lon="9.148494824367159"><ele>342.0</ele><time>2026-04-24T10:25:51.999Z</time></trkpt><trkpt lat="44.82361298919379" lon="9.148830144442288"><ele>343.0</ele><time>2026-04-24T10:25:52.999Z</time></trkpt><trkpt lat="44.82356429692058" lon="9.14918172742091"><ele>344.0</ele><time>2026-04-24T10:25:53.999Z</time></trkpt><trkpt lat="44.82352975803944" lon="9.149525210444063"><ele>344.0</ele><time>2026-04-24T10:25:54.999Z</time></trkpt><trkpt lat="44.823504691145324" lon="9.149873880445996"><ele>344.0</ele><time>2026-04-24T10:25:55.999Z</time></trkpt><trkpt lat="44.8234655173494" lon="9.150213531996"><ele>342.0</ele><time>2026-04-24T10:25:56.999Z</time></trkpt><trkpt lat="44.82344387353366" lon="9.150572945423379"><ele>340.0</ele><time>2026-04-24T10:25:57.999Z</time></trkpt><trkpt lat="44.823419380285955" lon="9.150927542487729"><ele>340.0</ele><time>2026-04-24T10:25:58.999Z</time></trkpt><trkpt lat="44.82340706394372" lon="9.151291564767234"><ele>340.0</ele><time>2026-04-24T10:25:59.999Z</time></trkpt><trkpt lat="44.823428311108266" lon="9.151628790819368"><ele>340.3333333333333</ele><time>2026-04-24T10:26:00.999Z</time></trkpt><trkpt lat="44.82344900652301" lon="9.151949735577205"><ele>340.6666666666667</ele><time>2026-04-24T10:26:01.999Z</time></trkpt><trkpt lat="44.82344340474925" lon="9.152261066711807"><ele>341.0</ele><time>2026-04-24T10:26:02.999Z</time></trkpt><trkpt lat="44.82343089329306" lon="9.15259405297273"><ele>342.33333333333337</ele><time>2026-04-24T10:26:03.999Z</time></trkpt><trkpt lat="44.82341922362773" lon="9.152919439409185"><ele>343.6666666666667</ele><time>2026-04-24T10:26:04.999Z</time></trkpt><trkpt lat="44.82340485495896" lon="9.153206383157125"><ele>345.0</ele><time>2026-04-24T10:26:05.999Z</time></trkpt><trkpt lat="44.82341011691729" lon="9.153510430319168"><ele>345.0</ele><time>2026-04-24T10:26:06.999Z</time></trkpt><trkpt lat="44.82340159318755" lon="9.153821383796782"><ele>345.0</ele><time>2026-04-24T10:26:07.999Z</time></trkpt><trkpt lat="44.82338640471502" lon="9.154108814846142"><ele>345.0</ele><time>2026-04-24T10:26:08.999Z</time></trkpt><trkpt lat="44.82337941994019" lon="9.154395984307879"><ele>346.6666666666667</ele><time>2026-04-24T10:26:09.999Z</time></trkpt><trkpt lat="44.82337258199149" lon="9.154669433631481"><ele>348.33333333333337</ele><time>2026-04-24T10:26:10.999Z</time></trkpt><trkpt lat="44.8233652687634" lon="9.154932977637968"><ele>350.0</ele><time>2026-04-24T10:26:11.999Z</time></trkpt><trkpt lat="44.823358616375664" lon="9.155158220560622"><ele>350.75</ele><time>2026-04-24T10:26:12.999Z</time></trkpt><trkpt lat="44.82335312375808" lon="9.155369726819872"><ele>351.5</ele><time>2026-04-24T10:26:13.999Z</time></trkpt><trkpt lat="44.82334689970611" lon="9.155568637279492"><ele>352.25</ele><time>2026-04-24T10:26:14.999Z</time></trkpt><trkpt lat="44.82334043948496" lon="9.155790283253584"><ele>353.0</ele><time>2026-04-24T10:26:15.999Z</time></trkpt><trkpt lat="44.823334253933666" lon="9.156015286582303"><ele>353.5</ele><time>2026-04-24T10:26:16.999Z</time></trkpt><trkpt lat="44.823326568973854" lon="9.156229873043998"><ele>354.0</ele><time>2026-04-24T10:26:17.999Z</time></trkpt><trkpt lat="44.8233399686207" lon="9.156435946240851"><ele>354.5</ele><time>2026-04-24T10:26:18.999Z</time></trkpt><trkpt lat="44.823374641296176" lon="9.15661046781389"><ele>355.0</ele><time>2026-04-24T10:26:19.999Z</time></trkpt><trkpt lat="44.82340624448109" lon="9.156784163759168"><ele>355.0</ele><time>2026-04-24T10:26:20.999Z</time></trkpt><trkpt lat="44.823521867369266" lon="9.156941263624159"><ele>355.0</ele><time>2026-04-24T10:26:21.999Z</time></trkpt><trkpt lat="44.823668238557836" lon="9.157090219597942"><ele>355.0</ele><time>2026-04-24T10:26:22.999Z</time></trkpt><trkpt lat="44.823840715383824" lon="9.157226402731023"><ele>354.66666666666663</ele><time>2026-04-24T10:26:23.999Z</time></trkpt><trkpt lat="44.82399653156346" lon="9.157369365146506"><ele>354.3333333333333</ele><time>2026-04-24T10:26:24.999Z</time></trkpt><trkpt lat="44.82414611997139" lon="9.157516593552248"><ele>354.0</ele><time>2026-04-24T10:26:25.999Z</time></trkpt><trkpt lat="44.82430627814078" lon="9.157611920463886"><ele>355.0</ele><time>2026-04-24T10:26:26.999Z</time></trkpt><trkpt lat="44.824459829131044" lon="9.157732793835768"><ele>356.0</ele><time>2026-04-24T10:26:27.999Z</time></trkpt><trkpt lat="44.824567164937044" lon="9.157918365449847"><ele>357.0</ele><time>2026-04-24T10:26:28.999Z</time></trkpt><trkpt lat="44.824633243892336" lon="9.15812147824172"><ele>356.3333333333333</ele><time>2026-04-24T10:26:29.999Z</time></trkpt><trkpt lat="44.82466952073787" lon="9.158285685959028"><ele>355.66666666666663</ele><time>2026-04-24T10:26:30.999Z</time></trkpt><trkpt lat="44.824712305077426" lon="9.158518736252875"><ele>355.0</ele><time>2026-04-24T10:26:31.999Z</time></trkpt><trkpt lat="44.82476204647396" lon="9.158823274321456"><ele>354.66666666666663</ele><time>2026-04-24T10:26:32.999Z</time></trkpt><trkpt lat="44.82481907578991" lon="9.15912044037909"><ele>354.3333333333333</ele><time>2026-04-24T10:26:33.999Z</time></trkpt><trkpt lat="44.8248609973388" lon="9.159417742097148"><ele>354.0</ele><time>2026-04-24T10:26:34.999Z</time></trkpt><trkpt lat="44.82490782206465" lon="9.159698624550456"><ele>354.0</ele><time>2026-04-24T10:26:35.999Z</time></trkpt><trkpt lat="44.82495716385143" lon="9.159999739097497"><ele>354.0</ele><time>2026-04-24T10:26:36.999Z</time></trkpt><trkpt lat="44.825004607171955" lon="9.160313023617862"><ele>354.0</ele><time>2026-04-24T10:26:37.999Z</time></trkpt><trkpt lat="44.82504040608254" lon="9.160629055389744"><ele>354.5</ele><time>2026-04-24T10:26:38.999Z</time></trkpt><trkpt lat="44.82505428766014" lon="9.160943473711392"><ele>355.0</ele><time>2026-04-24T10:26:39.999Z</time></trkpt><trkpt lat="44.82506613802191" lon="9.161324698500664"><ele>356.5</ele><time>2026-04-24T10:26:40.999Z</time></trkpt><trkpt lat="44.82507569898814" lon="9.161680211765777"><ele>358.0</ele><time>2026-04-24T10:26:41.999Z</time></trkpt><trkpt lat="44.82508420027261" lon="9.162032517512209"><ele>358.5</ele><time>2026-04-24T10:26:42.999Z</time></trkpt><trkpt lat="44.82509268162667" lon="9.162383997447112"><ele>359.0</ele><time>2026-04-24T10:26:43.999Z</time></trkpt><trkpt lat="44.82510151025157" lon="9.16274081975988"><ele>359.0</ele><time>2026-04-24T10:26:44.999Z</time></trkpt><trkpt lat="44.82510882107599" lon="9.163080975227208"><ele>359.0</ele><time>2026-04-24T10:26:45.999Z</time></trkpt><trkpt lat="44.82510475394511" lon="9.163411461550899"><ele>358.5</ele><time>2026-04-24T10:26:46.999Z</time></trkpt><trkpt lat="44.825071137617584" lon="9.163746252026044"><ele>358.0</ele><time>2026-04-24T10:26:47.999Z</time></trkpt><trkpt lat="44.825013043984285" lon="9.164038520199265"><ele>358.0</ele><time>2026-04-24T10:26:48.999Z</time></trkpt><trkpt lat="44.8249233435825" lon="9.164382937720466"><ele>358.0</ele><time>2026-04-24T10:26:49.999Z</time></trkpt><trkpt lat="44.824841431651514" lon="9.164697450380029"><ele>359.5</ele><time>2026-04-24T10:26:50.999Z</time></trkpt><trkpt lat="44.82476296454378" lon="9.165000831459976"><ele>361.0</ele><time>2026-04-24T10:26:51.999Z</time></trkpt><trkpt lat="44.82470304052586" lon="9.165319395887602"><ele>361.0</ele><time>2026-04-24T10:26:52.999Z</time></trkpt><trkpt lat="44.82466312276602" lon="9.1656503063289"><ele>361.0</ele><time>2026-04-24T10:26:53.999Z</time></trkpt><trkpt lat="44.82463590710243" lon="9.165982042701172"><ele>363.0</ele><time>2026-04-24T10:26:54.999Z</time></trkpt><trkpt lat="44.82461576698354" lon="9.166324400791972"><ele>365.0</ele><time>2026-04-24T10:26:55.999Z</time></trkpt><trkpt lat="44.82460317536829" lon="9.166656950899778"><ele>366.5</ele><time>2026-04-24T10:26:56.999Z</time></trkpt><trkpt lat="44.82458566520044" lon="9.166982336920848"><ele>368.0</ele><time>2026-04-24T10:26:57.999Z</time></trkpt><trkpt lat="44.82459768600022" lon="9.167321223799455"><ele>367.0</ele><time>2026-04-24T10:26:58.999Z</time></trkpt><trkpt lat="44.82462372883753" lon="9.167647275228807"><ele>366.0</ele><time>2026-04-24T10:26:59.999Z</time></trkpt><trkpt lat="44.824676890117146" lon="9.167965849218453"><ele>366.0</ele><time>2026-04-24T10:27:00.999Z</time></trkpt><trkpt lat="44.82471035805148" lon="9.168308465443026"><ele>366.0</ele><time>2026-04-24T10:27:01.999Z</time></trkpt><trkpt lat="44.82472491952172" lon="9.168632689315096"><ele>366.0</ele><time>2026-04-24T10:27:02.999Z</time></trkpt><trkpt lat="44.82472903049283" lon="9.168952908848048"><ele>366.0</ele><time>2026-04-24T10:27:03.999Z</time></trkpt><trkpt lat="44.82472709332465" lon="9.169280382413978"><ele>367.6666666666667</ele><time>2026-04-24T10:27:04.999Z</time></trkpt><trkpt lat="44.82473177937394" lon="9.1695934568344"><ele>369.33333333333337</ele><time>2026-04-24T10:27:05.999Z</time></trkpt><trkpt lat="44.82473881504943" lon="9.169890616811559"><ele>371.0</ele><time>2026-04-24T10:27:06.999Z</time></trkpt><trkpt lat="44.824725805834824" lon="9.170210279077125"><ele>371.0</ele><time>2026-04-24T10:27:07.999Z</time></trkpt><trkpt lat="44.82472457331954" lon="9.170529570976878"><ele>371.0</ele><time>2026-04-24T10:27:08.999Z</time></trkpt><trkpt lat="44.82473777554467" lon="9.170846959653563"><ele>371.0</ele><time>2026-04-24T10:27:09.999Z</time></trkpt><trkpt lat="44.824724521720555" lon="9.171162384818171"><ele>371.0</ele><time>2026-04-24T10:27:10.999Z</time></trkpt><trkpt lat="44.8247135889311" lon="9.171484360690686"><ele>371.6666666666667</ele><time>2026-04-24T10:27:11.999Z</time></trkpt><trkpt lat="44.82471388615848" lon="9.171804048172785"><ele>372.3333333333333</ele><time>2026-04-24T10:27:12.999Z</time></trkpt><trkpt lat="44.82472458385649" lon="9.172104333061066"><ele>373.0</ele><time>2026-04-24T10:27:13.999Z</time></trkpt><trkpt lat="44.82472449577588" lon="9.17241496506964"><ele>374.0</ele><time>2026-04-24T10:27:14.999Z</time></trkpt><trkpt lat="44.824732890024386" lon="9.172740483713527"><ele>375.0</ele><time>2026-04-24T10:27:15.999Z</time></trkpt><trkpt lat="44.82478028890222" lon="9.173059718122786"><ele>376.0</ele><time>2026-04-24T10:27:16.999Z</time></trkpt><trkpt lat="44.824760761151325" lon="9.173382790660586"><ele>377.0</ele><time>2026-04-24T10:27:17.999Z</time></trkpt><trkpt lat="44.82477293590577" lon="9.173697140460574"><ele>377.0</ele><time>2026-04-24T10:27:18.999Z</time></trkpt><trkpt lat="44.82477504251776" lon="9.174012457643666"><ele>377.0</ele><time>2026-04-24T10:27:19.999Z</time></trkpt><trkpt lat="44.82475792594684" lon="9.17431395545092"><ele>377.0</ele><time>2026-04-24T10:27:20.999Z</time></trkpt><trkpt lat="44.824751612075964" lon="9.174623297111284"><ele>378.0</ele><time>2026-04-24T10:27:21.999Z</time></trkpt><trkpt lat="44.82474568098161" lon="9.174933952139368"><ele>379.0</ele><time>2026-04-24T10:27:22.999Z</time></trkpt><trkpt lat="44.82474743230586" lon="9.175253139852964"><ele>380.0</ele><time>2026-04-24T10:27:23.999Z</time></trkpt><trkpt lat="44.82475874496035" lon="9.17555969371672"><ele>380.6666666666667</ele><time>2026-04-24T10:27:24.999Z</time></trkpt><trkpt lat="44.824750957798706" lon="9.175843026184582"><ele>381.3333333333333</ele><time>2026-04-24T10:27:25.999Z</time></trkpt><trkpt lat="44.82476433467748" lon="9.176135146113138"><ele>382.0</ele><time>2026-04-24T10:27:26.998Z</time></trkpt><trkpt lat="44.82476455242435" lon="9.176428232014857"><ele>382.0</ele><time>2026-04-24T10:27:27.998Z</time></trkpt><trkpt lat="44.82475898147004" lon="9.176709024887437"><ele>382.0</ele><time>2026-04-24T10:27:28.998Z</time></trkpt><trkpt lat="44.824766758781315" lon="9.176970686747756"><ele>382.0</ele><time>2026-04-24T10:27:29.998Z</time></trkpt><trkpt lat="44.82475908398551" lon="9.177220865674705"><ele>381.3333333333333</ele><time>2026-04-24T10:27:30.998Z</time></trkpt><trkpt lat="44.82476088714726" lon="9.177476376365508"><ele>380.6666666666667</ele><time>2026-04-24T10:27:31.998Z</time></trkpt><trkpt lat="44.82476253862541" lon="9.177710392173319"><ele>380.0</ele><time>2026-04-24T10:27:32.998Z</time></trkpt><trkpt lat="44.82477735845647" lon="9.177964805907786"><ele>380.0</ele><time>2026-04-24T10:27:33.998Z</time></trkpt><trkpt lat="44.824766516240665" lon="9.17820041377537"><ele>380.0</ele><time>2026-04-24T10:27:34.998Z</time></trkpt><trkpt lat="44.82477143805146" lon="9.17842027770526"><ele>380.0</ele><time>2026-04-24T10:27:35.998Z</time></trkpt><trkpt lat="44.82476943518628" lon="9.178648926788709"><ele>380.0</ele><time>2026-04-24T10:27:36.998Z</time></trkpt><trkpt lat="44.82474606641744" lon="9.17890735723059"><ele>380.0</ele><time>2026-04-24T10:27:37.998Z</time></trkpt><trkpt lat="44.824759471273225" lon="9.179167413886605"><ele>380.0</ele><time>2026-04-24T10:27:38.998Z</time></trkpt><trkpt lat="44.82475425806586" lon="9.179443460212157"><ele>380.33333333333337</ele><time>2026-04-24T10:27:39.998Z</time></trkpt><trkpt lat="44.82480035063716" lon="9.179693707192149"><ele>380.6666666666667</ele><time>2026-04-24T10:27:40.998Z</time></trkpt><trkpt lat="44.82477793602925" lon="9.180003418753266"><ele>381.0</ele><time>2026-04-24T10:27:41.998Z</time></trkpt><trkpt lat="44.824802042442975" lon="9.180295417395056"><ele>381.6666666666667</ele><time>2026-04-24T10:27:42.998Z</time></trkpt><trkpt lat="44.82480352366212" lon="9.180576736448197"><ele>382.33333333333337</ele><time>2026-04-24T10:27:43.998Z</time></trkpt><trkpt lat="44.82481395244626" lon="9.180850746862625"><ele>383.0</ele><time>2026-04-24T10:27:44.998Z</time></trkpt><trkpt lat="44.82482272498495" lon="9.18109811568459"><ele>383.6666666666667</ele><time>2026-04-24T10:27:45.998Z</time></trkpt><trkpt lat="44.824799149849284" lon="9.181324479416922"><ele>384.33333333333337</ele><time>2026-04-24T10:27:46.998Z</time></trkpt><trkpt lat="44.824801172050805" lon="9.181534986211863"><ele>385.0</ele><time>2026-04-24T10:27:47.998Z</time></trkpt><trkpt lat="44.82481405853714" lon="9.181742347677641"><ele>385.75</ele><time>2026-04-24T10:27:48.998Z</time></trkpt><trkpt lat="44.82485297061595" lon="9.181948590215626"><ele>386.5</ele><time>2026-04-24T10:27:49.998Z</time></trkpt><trkpt lat="44.824887782256845" lon="9.182142831067258"><ele>387.25</ele><time>2026-04-24T10:27:50.998Z</time></trkpt><trkpt lat="44.82490337720703" lon="9.182351579074263"><ele>388.0</ele><time>2026-04-24T10:27:51.998Z</time></trkpt><trkpt lat="44.82490733960493" lon="9.182557533394974"><ele>388.0</ele><time>2026-04-24T10:27:52.998Z</time></trkpt><trkpt lat="44.82492596371802" lon="9.18275008225855"><ele>388.0</ele><time>2026-04-24T10:27:53.998Z</time></trkpt><trkpt lat="44.82491865773005" lon="9.18294553659944"><ele>388.0</ele><time>2026-04-24T10:27:54.998Z</time></trkpt><trkpt lat="44.82490566024439" lon="9.183155422632591"><ele>388.0</ele><time>2026-04-24T10:27:55.998Z</time></trkpt><trkpt lat="44.82489084216396" lon="9.183343469627712"><ele>387.6666666666667</ele><time>2026-04-24T10:27:56.998Z</time></trkpt><trkpt lat="44.82486724033656" lon="9.183549190187536"><ele>387.33333333333337</ele><time>2026-04-24T10:27:57.998Z</time></trkpt><trkpt lat="44.824846585376015" lon="9.183752648231302"><ele>387.0</ele><time>2026-04-24T10:27:58.998Z</time></trkpt><trkpt lat="44.82484918585142" lon="9.183981587801632"><ele>388.0</ele><time>2026-04-24T10:27:59.998Z</time></trkpt><trkpt lat="44.82485167980366" lon="9.18419869198373"><ele>389.0</ele><time>2026-04-24T10:28:00.998Z</time></trkpt><trkpt lat="44.824837375152946" lon="9.1844335900152"><ele>390.0</ele><time>2026-04-24T10:28:01.998Z</time></trkpt><trkpt lat="44.82482314804717" lon="9.184643308342519"><ele>390.0</ele><time>2026-04-24T10:28:02.998Z</time></trkpt><trkpt lat="44.824844116589006" lon="9.184836678889893"><ele>390.0</ele><time>2026-04-24T10:28:03.998Z</time></trkpt><trkpt lat="44.824835209828116" lon="9.185041314470746"><ele>390.0</ele><time>2026-04-24T10:28:04.998Z</time></trkpt><trkpt lat="44.82481718773831" lon="9.185250417184099"><ele>390.0</ele><time>2026-04-24T10:28:05.998Z</time></trkpt><trkpt lat="44.82479611390077" lon="9.185478323613978"><ele>391.0</ele><time>2026-04-24T10:28:06.998Z</time></trkpt><trkpt lat="44.82477783535299" lon="9.185681500129196"><ele>392.0</ele><time>2026-04-24T10:28:07.998Z</time></trkpt><trkpt lat="44.82475205650216" lon="9.185911611870688"><ele>393.0</ele><time>2026-04-24T10:28:08.998Z</time></trkpt><trkpt lat="44.82473544462607" lon="9.186142867978864"><ele>393.0</ele><time>2026-04-24T10:28:09.998Z</time></trkpt><trkpt lat="44.82472250698116" lon="9.186374940731255"><ele>393.0</ele><time>2026-04-24T10:28:10.998Z</time></trkpt><trkpt lat="44.82468856628712" lon="9.18658091961609"><ele>393.0</ele><time>2026-04-24T10:28:11.998Z</time></trkpt><trkpt lat="44.82466795330011" lon="9.186817035644568"><ele>394.0</ele><time>2026-04-24T10:28:12.998Z</time></trkpt><trkpt lat="44.82464681822515" lon="9.18705542283632"><ele>395.0</ele><time>2026-04-24T10:28:13.998Z</time></trkpt><trkpt lat="44.824642205332594" lon="9.18728726668364"><ele>396.0</ele><time>2026-04-24T10:28:14.998Z</time></trkpt><trkpt lat="44.82461366176798" lon="9.18752050727466"><ele>396.5</ele><time>2026-04-24T10:28:15.998Z</time></trkpt><trkpt lat="44.82458700318765" lon="9.187711612697191"><ele>397.0</ele><time>2026-04-24T10:28:16.998Z</time></trkpt><trkpt lat="44.824574084043306" lon="9.187927107644645"><ele>397.5</ele><time>2026-04-24T10:28:17.998Z</time></trkpt><trkpt lat="44.824552068843396" lon="9.188132568496416"><ele>398.0</ele><time>2026-04-24T10:28:18.998Z</time></trkpt><trkpt lat="44.82454082072381" lon="9.188316255009735"><ele>399.0</ele><time>2026-04-24T10:28:19.998Z</time></trkpt><trkpt lat="44.82454362645274" lon="9.188511648724788"><ele>400.0</ele><time>2026-04-24T10:28:20.998Z</time></trkpt><trkpt lat="44.82452971094068" lon="9.188686267792303"><ele>401.0</ele><time>2026-04-24T10:28:21.998Z</time></trkpt><trkpt lat="44.82449561364584" lon="9.188883213783816"><ele>402.0</ele><time>2026-04-24T10:28:22.998Z</time></trkpt><trkpt lat="44.82444399221426" lon="9.189078292230867"><ele>402.25</ele><time>2026-04-24T10:28:23.998Z</time></trkpt><trkpt lat="44.82441373184015" lon="9.189219660313263"><ele>402.5</ele><time>2026-04-24T10:28:24.998Z</time></trkpt><trkpt lat="44.82433830533859" lon="9.189410477691313"><ele>402.75</ele><time>2026-04-24T10:28:25.998Z</time></trkpt><trkpt lat="44.82427589563528" lon="9.189553869802157"><ele>403.0</ele><time>2026-04-24T10:28:26.998Z</time></trkpt><trkpt lat="44.82422350348954" lon="9.189694003462828"><ele>402.50000000000006</ele><time>2026-04-24T10:28:27.998Z</time></trkpt><trkpt lat="44.8241687792874" lon="9.18977887702962"><ele>402.0</ele><time>2026-04-24T10:28:28.998Z</time></trkpt><trkpt lat="44.82410582590137" lon="9.189844385071773"><ele>401.5</ele><time>2026-04-24T10:28:29.998Z</time></trkpt><trkpt lat="44.8240459640145" lon="9.18992277268844"><ele>401.0</ele><time>2026-04-24T10:28:30.998Z</time></trkpt><trkpt lat="44.823995614740674" lon="9.19002002905131"><ele>400.50000000000006</ele><time>2026-04-24T10:28:31.998Z</time></trkpt><trkpt lat="44.82395188183782" lon="9.190134900562478"><ele>400.0</ele><time>2026-04-24T10:28:32.998Z</time></trkpt><trkpt lat="44.82395964543069" lon="9.190284282252158"><ele>400.0</ele><time>2026-04-24T10:28:33.998Z</time></trkpt><trkpt lat="44.823887268822006" lon="9.190453210949027"><ele>400.0</ele><time>2026-04-24T10:28:34.998Z</time></trkpt><trkpt lat="44.823836088395225" lon="9.190629436726168"><ele>400.0</ele><time>2026-04-24T10:28:35.998Z</time></trkpt><trkpt lat="44.8237913935965" lon="9.190805629600757"><ele>400.0</ele><time>2026-04-24T10:28:36.998Z</time></trkpt><trkpt lat="44.823750173499334" lon="9.190978312866433"><ele>400.75</ele><time>2026-04-24T10:28:37.998Z</time></trkpt><trkpt lat="44.82371117878977" lon="9.191150977969555"><ele>401.5</ele><time>2026-04-24T10:28:38.998Z</time></trkpt><trkpt lat="44.82367524330133" lon="9.191311803639477"><ele>402.25</ele><time>2026-04-24T10:28:39.998Z</time></trkpt><trkpt lat="44.82367993002769" lon="9.191470640394103"><ele>403.0</ele><time>2026-04-24T10:28:40.998Z</time></trkpt><trkpt lat="44.82361288254825" lon="9.191636593445828"><ele>403.5</ele><time>2026-04-24T10:28:41.998Z</time></trkpt><trkpt lat="44.82360490104378" lon="9.191797393313513"><ele>404.0</ele><time>2026-04-24T10:28:42.998Z</time></trkpt><trkpt lat="44.823582032953865" lon="9.191967821564857"><ele>404.5</ele><time>2026-04-24T10:28:43.998Z</time></trkpt><trkpt lat="44.82352315695062" lon="9.19210591886053"><ele>405.0</ele><time>2026-04-24T10:28:44.998Z</time></trkpt><trkpt lat="44.82349481178286" lon="9.192297740757564"><ele>404.75</ele><time>2026-04-24T10:28:45.998Z</time></trkpt><trkpt lat="44.82346491376951" lon="9.192473651863493"><ele>404.5</ele><time>2026-04-24T10:28:46.998Z</time></trkpt><trkpt lat="44.82342716653209" lon="9.19266016040886"><ele>404.25</ele><time>2026-04-24T10:28:47.998Z</time></trkpt><trkpt lat="44.82338795397539" lon="9.192840437565165"><ele>404.0</ele><time>2026-04-24T10:28:48.998Z</time></trkpt><trkpt lat="44.823353394165395" lon="9.19300691694845"><ele>404.0</ele><time>2026-04-24T10:28:49.998Z</time></trkpt><trkpt lat="44.82332160953381" lon="9.19316480304706"><ele>404.0</ele><time>2026-04-24T10:28:50.998Z</time></trkpt><trkpt lat="44.82329645723664" lon="9.193291646050177"><ele>404.0</ele><time>2026-04-24T10:28:51.998Z</time></trkpt><trkpt lat="44.823269121135525" lon="9.193433285513661"><ele>404.0</ele><time>2026-04-24T10:28:52.998Z</time></trkpt><trkpt lat="44.82324472238165" lon="9.193537355460958"><ele>404.0</ele><time>2026-04-24T10:28:53.998Z</time></trkpt><trkpt lat="44.82321598875656" lon="9.193651866953717"><ele>404.3333333333333</ele><time>2026-04-24T10:28:54.998Z</time></trkpt><trkpt lat="44.82321624719378" lon="9.193766677163257"><ele>404.66666666666663</ele><time>2026-04-24T10:28:55.998Z</time></trkpt><trkpt lat="44.82319828303937" lon="9.193857702997413"><ele>405.0</ele><time>2026-04-24T10:28:56.998Z</time></trkpt><trkpt lat="44.82313419984258" lon="9.19392397859397"><ele>405.33333333333337</ele><time>2026-04-24T10:28:59.998Z</time></trkpt><trkpt lat="44.82304327170882" lon="9.193923224177256"><ele>405.6666666666667</ele><time>2026-04-24T10:29:00.998Z</time></trkpt><trkpt lat="44.82294081662725" lon="9.193890285158473"><ele>406.0</ele><time>2026-04-24T10:29:01.998Z</time></trkpt><trkpt lat="44.822839389259826" lon="9.19386500821534"><ele>406.00000000000006</ele><time>2026-04-24T10:29:02.998Z</time></trkpt><trkpt lat="44.82274117892862" lon="9.193806006081312"><ele>406.0</ele><time>2026-04-24T10:29:03.998Z</time></trkpt><trkpt lat="44.822666316726014" lon="9.1937966678357"><ele>406.0</ele><time>2026-04-24T10:29:04.998Z</time></trkpt><trkpt lat="44.82261355077366" lon="9.193717150632335"><ele>406.0</ele><time>2026-04-24T10:29:05.998Z</time></trkpt><trkpt lat="44.822536699662685" lon="9.193683712097467"><ele>406.00000000000006</ele><time>2026-04-24T10:29:06.998Z</time></trkpt><trkpt lat="44.82245264797206" lon="9.193704002636284"><ele>406.0</ele><time>2026-04-24T10:29:07.998Z</time></trkpt><trkpt lat="44.82237282016242" lon="9.193741048471404"><ele>405.0</ele><time>2026-04-24T10:29:08.998Z</time></trkpt><trkpt lat="44.82230473566337" lon="9.193774415881327"><ele>404.0</ele><time>2026-04-24T10:29:09.998Z</time></trkpt><trkpt lat="44.82227917813262" lon="9.193893136651218"><ele>403.0</ele><time>2026-04-24T10:29:10.998Z</time></trkpt><trkpt lat="44.82225655485256" lon="9.194112425272245"><ele>402.0</ele><time>2026-04-24T10:29:12.998Z</time></trkpt><trkpt lat="44.82226755683251" lon="9.194264604032938"><ele>401.0</ele><time>2026-04-24T10:29:13.998Z</time></trkpt><trkpt lat="44.82225913653618" lon="9.194378221355587"><ele>401.0</ele><time>2026-04-24T10:29:14.998Z</time></trkpt><trkpt lat="44.822252202253324" lon="9.194481437528882"><ele>401.0</ele><time>2026-04-24T10:29:15.998Z</time></trkpt><trkpt lat="44.82223041456139" lon="9.194581532490197"><ele>401.0</ele><time>2026-04-24T10:29:16.998Z</time></trkpt><trkpt lat="44.822205628857134" lon="9.194690746119555"><ele>401.0</ele><time>2026-04-24T10:29:17.998Z</time></trkpt><trkpt lat="44.82217999948551" lon="9.19481129770128"><ele>401.0</ele><time>2026-04-24T10:29:18.998Z</time></trkpt><trkpt lat="44.82217825189167" lon="9.195003640733532"><ele>401.3333333333333</ele><time>2026-04-24T10:29:20.998Z</time></trkpt><trkpt lat="44.82215672554162" lon="9.195124161071874"><ele>401.66666666666663</ele><time>2026-04-24T10:29:21.998Z</time></trkpt><trkpt lat="44.8221433451588" lon="9.195261444602346"><ele>402.0</ele><time>2026-04-24T10:29:22.997Z</time></trkpt><trkpt lat="44.82212324970527" lon="9.195374736652965"><ele>402.33333333333337</ele><time>2026-04-24T10:29:23.997Z</time></trkpt><trkpt lat="44.822112257816144" lon="9.195488434292"><ele>402.6666666666667</ele><time>2026-04-24T10:29:24.997Z</time></trkpt><trkpt lat="44.822099830133915" lon="9.195580425713334"><ele>403.0</ele><time>2026-04-24T10:29:25.997Z</time></trkpt><trkpt lat="44.82207623583052" lon="9.19573743007653"><ele>403.59999999999997</ele><time>2026-04-24T10:29:27.997Z</time></trkpt><trkpt lat="44.82205819174789" lon="9.195880854499723"><ele>404.2</ele><time>2026-04-24T10:29:29.997Z</time></trkpt><trkpt lat="44.82204479052822" lon="9.195987374892809"><ele>404.8</ele><time>2026-04-24T10:29:30.997Z</time></trkpt><trkpt lat="44.82202954539283" lon="9.196114351195602"><ele>405.4</ele><time>2026-04-24T10:29:31.997Z</time></trkpt><trkpt lat="44.82200684609214" lon="9.196303698711464"><ele>406.0</ele><time>2026-04-24T10:29:33.997Z</time></trkpt><trkpt lat="44.82199526314374" lon="9.196401018200374"><ele>406.0</ele><time>2026-04-24T10:29:34.997Z</time></trkpt><trkpt lat="44.821984933590535" lon="9.196489335465976"><ele>406.0</ele><time>2026-04-24T10:29:35.997Z</time></trkpt><trkpt lat="44.82197712936759" lon="9.196693381382252"><ele>406.0</ele><time>2026-04-24T10:29:37.997Z</time></trkpt><trkpt lat="44.82194671733711" lon="9.196821416526841"><ele>406.0</ele><time>2026-04-24T10:29:39.997Z</time></trkpt><trkpt lat="44.82191731932673" lon="9.196996254909202"><ele>406.0</ele><time>2026-04-24T10:29:41.997Z</time></trkpt><trkpt lat="44.82191416616115" lon="9.197107870634543"><ele>406.1666666666667</ele><time>2026-04-24T10:29:43.997Z</time></trkpt><trkpt lat="44.821910757996264" lon="9.197257513758128"><ele>406.33333333333337</ele><time>2026-04-24T10:29:45.997Z</time></trkpt><trkpt lat="44.8218728579168" lon="9.197345018252518"><ele>406.5</ele><time>2026-04-24T10:29:46.997Z</time></trkpt><trkpt lat="44.82186516047625" lon="9.197469118810481"><ele>406.66666666666663</ele><time>2026-04-24T10:29:49.997Z</time></trkpt><trkpt lat="44.82186134264951" lon="9.197571750639545"><ele>406.8333333333333</ele><time>2026-04-24T10:29:51.997Z</time></trkpt><trkpt lat="44.8218485630774" lon="9.19768660973414"><ele>407.0</ele><time>2026-04-24T10:29:53.997Z</time></trkpt><trkpt lat="44.821834100710774" lon="9.197815755928124"><ele>407.16666666666663</ele><time>2026-04-24T10:29:56.997Z</time></trkpt><trkpt lat="44.82183456023446" lon="9.197951965275381"><ele>407.3333333333333</ele><time>2026-04-24T10:29:58.997Z</time></trkpt><trkpt lat="44.82180670724751" lon="9.198056530064052"><ele>407.5</ele><time>2026-04-24T10:30:00.997Z</time></trkpt><trkpt lat="44.82179387482106" lon="9.198170368911036"><ele>407.66666666666663</ele><time>2026-04-24T10:30:02.997Z</time></trkpt><trkpt lat="44.82179119898346" lon="9.198259070227099"><ele>407.8333333333333</ele><time>2026-04-24T10:30:03.997Z</time></trkpt><trkpt lat="44.821763809353186" lon="9.198356239787687"><ele>408.0</ele><time>2026-04-24T10:30:04.997Z</time></trkpt><trkpt lat="44.821776355934894" lon="9.198505065844419"><ele>407.59999999999997</ele><time>2026-04-24T10:30:06.997Z</time></trkpt><trkpt lat="44.82175348835033" lon="9.19865014019705"><ele>407.2</ele><time>2026-04-24T10:30:08.997Z</time></trkpt><trkpt lat="44.8217337100633" lon="9.198761265374863"><ele>406.8</ele><time>2026-04-24T10:30:10.997Z</time></trkpt><trkpt lat="44.82173051754651" lon="9.198869570160678"><ele>406.4</ele><time>2026-04-24T10:30:12.997Z</time></trkpt><trkpt lat="44.82170928625878" lon="9.198999922084404"><ele>406.0</ele><time>2026-04-24T10:30:14.997Z</time></trkpt><trkpt lat="44.82167297409967" lon="9.199157398548833"><ele>406.00000000000006</ele><time>2026-04-24T10:30:16.997Z</time></trkpt><trkpt lat="44.82165966804617" lon="9.199271649354129"><ele>406.0</ele><time>2026-04-24T10:30:18.997Z</time></trkpt><trkpt lat="44.821643369399816" lon="9.199386509118487"><ele>406.0</ele><time>2026-04-24T10:30:21.997Z</time></trkpt><trkpt lat="44.82161612740141" lon="9.199477660618992"><ele>406.0</ele><time>2026-04-24T10:30:23.997Z</time></trkpt><trkpt lat="44.8215979198944" lon="9.199600250947459"><ele>406.00000000000006</ele><time>2026-04-24T10:30:25.997Z</time></trkpt><trkpt lat="44.82159047721635" lon="9.199727708793745"><ele>406.0</ele><time>2026-04-24T10:30:27.997Z</time></trkpt><trkpt lat="44.82161666148537" lon="9.199852068699983"><ele>406.50000000000006</ele><time>2026-04-24T10:30:29.997Z</time></trkpt><trkpt lat="44.821693613412165" lon="9.199941309075658"><ele>407.0</ele><time>2026-04-24T10:30:31.997Z</time></trkpt><trkpt lat="44.821775605451414" lon="9.200010064137954"><ele>407.5</ele><time>2026-04-24T10:30:33.997Z</time></trkpt><trkpt lat="44.82184899838756" lon="9.200061551543328"><ele>408.0</ele><time>2026-04-24T10:30:35.997Z</time></trkpt><trkpt lat="44.82190958658305" lon="9.200110512678114"><ele>408.50000000000006</ele><time>2026-04-24T10:30:37.997Z</time></trkpt><trkpt lat="44.82197192688093" lon="9.200166946553988"><ele>409.0</ele><time>2026-04-24T10:30:39.997Z</time></trkpt><trkpt lat="44.82202818933419" lon="9.20020740207563"><ele>409.0</ele><time>2026-04-24T10:30:41.997Z</time></trkpt><trkpt lat="44.822090024297765" lon="9.200238031800135"><ele>409.0</ele><time>2026-04-24T10:30:46.001Z</time></trkpt><trkpt lat="44.821868175836435" lon="9.200498252799596"><ele>409.0</ele><time>2026-04-24T10:31:35Z</time></trkpt><trkpt lat="44.82180440759174" lon="9.200448192331072"><ele>409.0</ele><time>2026-04-24T10:31:38Z</time></trkpt><trkpt lat="44.82175009361578" lon="9.200401833150526"><ele>409.0</ele><time>2026-04-24T10:31:40Z</time></trkpt><trkpt lat="44.821695773128056" lon="9.200353376823381"><ele>409.0</ele><time>2026-04-24T10:31:42Z</time></trkpt><trkpt lat="44.82163177831933" lon="9.20029628968843"><ele>409.0</ele><time>2026-04-24T10:31:45Z</time></trkpt><trkpt lat="44.821568047272216" lon="9.200239437839631"><ele>409.0</ele><time>2026-04-24T10:31:49Z</time></trkpt><trkpt lat="44.821571027285046" lon="9.199835657671601"><ele>409.0</ele><time>2026-04-24T10:34:49.998Z</time></trkpt><trkpt lat="44.82155355756289" lon="9.200190010786116"><ele>409.0</ele><time>2026-04-24T10:34:52.998Z</time></trkpt><trkpt lat="44.821671355523115" lon="9.19995427495813"><ele>409.0</ele><time>2026-04-24T10:34:58.998Z</time></trkpt><trkpt lat="44.821745675748986" lon="9.199975350333524"><ele>409.0</ele><time>2026-04-24T10:35:06.998Z</time></trkpt><trkpt lat="44.82180596359993" lon="9.200025585893096"><ele>409.0</ele><time>2026-04-24T10:35:10.998Z</time></trkpt><trkpt lat="44.82187230208466" lon="9.200040778179797"><ele>409.0</ele><time>2026-04-24T10:35:15.998Z</time></trkpt><trkpt lat="44.82193575917531" lon="9.200041458111851"><ele>409.0</ele><time>2026-04-24T10:35:21.998Z</time></trkpt><trkpt lat="44.82199223410921" lon="9.200088565906999"><ele>409.0</ele><time>2026-04-24T10:35:25.997Z</time></trkpt><trkpt lat="44.82205338611305" lon="9.200159163078732"><ele>409.0</ele><time>2026-04-24T10:35:30.997Z</time></trkpt><trkpt lat="44.822137237209596" lon="9.200078784284281"><ele>409.4285714285714</ele><time>2026-04-24T10:35:45.997Z</time></trkpt><trkpt lat="44.82216449832125" lon="9.199984746601038"><ele>409.8571428571429</ele><time>2026-04-24T10:35:54.997Z</time></trkpt><trkpt lat="44.82217621460817" lon="9.199896622518564"><ele>410.2857142857143</ele><time>2026-04-24T10:36:07.997Z</time></trkpt><trkpt lat="44.8220950448984" lon="9.199866362506965"><ele>410.71428571428567</ele><time>2026-04-24T10:36:19.997Z</time></trkpt><trkpt lat="44.822053021894796" lon="9.199774618547892"><ele>411.1428571428571</ele><time>2026-04-24T10:36:32.997Z</time></trkpt><trkpt lat="44.82201405867995" lon="9.199703703426318"><ele>411.57142857142856</ele><time>2026-04-24T10:36:38.997Z</time></trkpt><trkpt lat="44.821953275642585" lon="9.199660922185416"><ele>412.0</ele><time>2026-04-24T10:36:43.997Z</time></trkpt><trkpt lat="44.82189147235083" lon="9.199634548338848"><ele>412.00000000000006</ele><time>2026-04-24T10:36:51.997Z</time></trkpt><trkpt lat="44.82187876790669" lon="9.199545663457085"><ele>412.0</ele><time>2026-04-24T10:37:07.996Z</time></trkpt><trkpt lat="44.821873117169645" lon="9.199448191686997"><ele>412.0</ele><time>2026-04-24T10:37:12.996Z</time></trkpt><trkpt lat="44.82188401822187" lon="9.199343752766055"><ele>412.0</ele><time>2026-04-24T10:37:16.996Z</time></trkpt><trkpt lat="44.82190343030929" lon="9.199248401086194"><ele>412.00000000000006</ele><time>2026-04-24T10:37:23.996Z</time></trkpt><trkpt lat="44.82191198328018" lon="9.199140778225058"><ele>412.0</ele><time>2026-04-24T10:37:29.996Z</time></trkpt><trkpt lat="44.82196050901749" lon="9.199004762670775"><ele>411.71428571428567</ele><time>2026-04-24T10:38:22Z</time></trkpt><trkpt lat="44.82198174479843" lon="9.198907937610343"><ele>411.42857142857144</ele><time>2026-04-24T10:38:29.999Z</time></trkpt><trkpt lat="44.82202439116869" lon="9.19881765619259"><ele>411.1428571428571</ele><time>2026-04-24T10:38:39.999Z</time></trkpt><trkpt lat="44.82204633423036" lon="9.198730724436619"><ele>410.85714285714283</ele><time>2026-04-24T10:38:51.999Z</time></trkpt><trkpt lat="44.82206911860174" lon="9.198639849463788"><ele>410.57142857142856</ele><time>2026-04-24T10:38:55.999Z</time></trkpt><trkpt lat="44.82210971686033" lon="9.198558770189315"><ele>410.2857142857143</ele><time>2026-04-24T10:39:00.999Z</time></trkpt><trkpt lat="44.822120721202225" lon="9.198457409882918"><ele>410.0</ele><time>2026-04-24T10:39:05.999Z</time></trkpt><trkpt lat="44.82214906415792" lon="9.198357282030814"><ele>410.0</ele><time>2026-04-24T10:39:11.999Z</time></trkpt><trkpt lat="44.82218683364504" lon="9.198270988115162"><ele>410.0</ele><time>2026-04-24T10:39:16.999Z</time></trkpt><trkpt lat="44.822211873972584" lon="9.198173674165515"><ele>410.0</ele><time>2026-04-24T10:39:21.999Z</time></trkpt><trkpt lat="44.822190187867434" lon="9.198077457163198"><ele>410.0</ele><time>2026-04-24T10:39:39.999Z</time></trkpt><trkpt lat="44.82219225539398" lon="9.197976870319263"><ele>410.0</ele><time>2026-04-24T10:39:44.999Z</time></trkpt><trkpt lat="44.82226549965305" lon="9.198009222205377"><ele>410.0</ele><time>2026-04-24T10:39:53.999Z</time></trkpt><trkpt lat="44.822327322372786" lon="9.198032603614982"><ele>410.0</ele><time>2026-04-24T10:39:57.999Z</time></trkpt><trkpt lat="44.82241541747587" lon="9.198074979941817"><ele>409.7142857142857</ele><time>2026-04-24T10:40:15.998Z</time></trkpt><trkpt lat="44.82247492463461" lon="9.198114200013142"><ele>409.4285714285714</ele><time>2026-04-24T10:40:26.998Z</time></trkpt><trkpt lat="44.822542049358354" lon="9.198149397523501"><ele>409.1428571428571</ele><time>2026-04-24T10:40:36.998Z</time></trkpt><trkpt lat="44.822630777752465" lon="9.198125687912384"><ele>408.8571428571429</ele><time>2026-04-24T10:40:53.998Z</time></trkpt><trkpt lat="44.82267313698637" lon="9.198047255798878"><ele>408.57142857142856</ele><time>2026-04-24T10:41:00.998Z</time></trkpt><trkpt lat="44.82271093599457" lon="9.197962361188795"><ele>408.2857142857143</ele><time>2026-04-24T10:41:06.998Z</time></trkpt><trkpt lat="44.82275366359939" lon="9.197889708666322"><ele>408.0</ele><time>2026-04-24T10:41:20.998Z</time></trkpt><trkpt lat="44.82275924743469" lon="9.197786897017247"><ele>409.57142857142856</ele><time>2026-04-24T10:41:26.998Z</time></trkpt><trkpt lat="44.82277952723955" lon="9.197695973390681"><ele>411.14285714285717</ele><time>2026-04-24T10:41:32.998Z</time></trkpt><trkpt lat="44.822796304099604" lon="9.19759754980307"><ele>412.71428571428567</ele><time>2026-04-24T10:41:38.998Z</time></trkpt><trkpt lat="44.82282744858897" lon="9.197513023554627"><ele>414.2857142857143</ele><time>2026-04-24T10:41:45.998Z</time></trkpt><trkpt lat="44.82289160913967" lon="9.197519383890144"><ele>415.85714285714283</ele><time>2026-04-24T10:42:08.997Z</time></trkpt><trkpt lat="44.822981170677565" lon="9.197541359308207"><ele>417.4285714285714</ele><time>2026-04-24T10:42:15.997Z</time></trkpt><trkpt lat="44.822988295575946" lon="9.197630841975178"><ele>419.0</ele><time>2026-04-24T10:42:20.997Z</time></trkpt><trkpt lat="44.82293065447582" lon="9.197733363221372"><ele>418.99999999999994</ele><time>2026-04-24T10:42:28.997Z</time></trkpt><trkpt lat="44.8229232130733" lon="9.197830361285218"><ele>419.0</ele><time>2026-04-24T10:42:39.998Z</time></trkpt><trkpt lat="44.82290801408983" lon="9.197934073178317"><ele>419.0</ele><time>2026-04-24T10:42:45.998Z</time></trkpt><trkpt lat="44.82288790357518" lon="9.198027939412466"><ele>419.0</ele><time>2026-04-24T10:42:51.998Z</time></trkpt><trkpt lat="44.82287459260283" lon="9.19813155762952"><ele>419.0</ele><time>2026-04-24T10:42:58.998Z</time></trkpt><trkpt lat="44.82286805282155" lon="9.198230867692153"><ele>418.99999999999994</ele><time>2026-04-24T10:43:02.998Z</time></trkpt><trkpt lat="44.822882094474565" lon="9.198320043503154"><ele>419.0</ele><time>2026-04-24T10:43:08.998Z</time></trkpt><trkpt lat="44.822895982033025" lon="9.19842674126317"><ele>418.99999999999994</ele><time>2026-04-24T10:43:13.998Z</time></trkpt><trkpt lat="44.82291954662441" lon="9.19852707820025"><ele>419.0</ele><time>2026-04-24T10:43:19.998Z</time></trkpt><trkpt lat="44.822939607659485" lon="9.19861696036746"><ele>419.0</ele><time>2026-04-24T10:43:26.998Z</time></trkpt><trkpt lat="44.82304378791952" lon="9.198616645401179"><ele>419.0</ele><time>2026-04-24T10:48:32.998Z</time></trkpt><trkpt lat="44.82307147940693" lon="9.198535454782672"><ele>418.99999999999994</ele><time>2026-04-24T10:49:15.997Z</time></trkpt><trkpt lat="44.82311473032073" lon="9.19846405374536"><ele>419.0</ele><time>2026-04-24T10:49:24.997Z</time></trkpt><trkpt lat="44.82319222705645" lon="9.198429396414664"><ele>418.99999999999994</ele><time>2026-04-24T10:49:40.997Z</time></trkpt><trkpt lat="44.823146234472" lon="9.198502469057503"><ele>419.0</ele><time>2026-04-24T10:49:54.996Z</time></trkpt><trkpt lat="44.82308753699067" lon="9.198565533723107"><ele>419.0</ele><time>2026-04-24T10:50:02.996Z</time></trkpt><trkpt lat="44.82302260736487" lon="9.198601642458044"><ele>419.0</ele><time>2026-04-24T10:50:16.996Z</time></trkpt><trkpt lat="44.82295184214451" lon="9.198642075770564"><ele>418.99999999999994</ele><time>2026-04-24T10:50:38.996Z</time></trkpt><trkpt lat="44.822926725322276" lon="9.198750684288894"><ele>419.0</ele><time>2026-04-24T10:50:49.995Z</time></trkpt><trkpt lat="44.8229452388508" lon="9.198874786868476"><ele>418.99999999999994</ele><time>2026-04-24T10:50:54.995Z</time></trkpt><trkpt lat="44.822966288418314" lon="9.198965678032033"><ele>419.0</ele><time>2026-04-24T10:50:57.995Z</time></trkpt><trkpt lat="44.82299083137606" lon="9.199168697574304"><ele>419.0</ele><time>2026-04-24T10:51:04.995Z</time></trkpt><trkpt lat="44.82300530100602" lon="9.199259155153571"><ele>419.0</ele><time>2026-04-24T10:51:07.995Z</time></trkpt><trkpt lat="44.822976827072324" lon="9.199357955443837"><ele>418.99999999999994</ele><time>2026-04-24T10:51:11.995Z</time></trkpt><trkpt lat="44.822948826950466" lon="9.199464455661223"><ele>419.0</ele><time>2026-04-24T10:51:16.995Z</time></trkpt><trkpt lat="44.822932873913906" lon="9.199579358625243"><ele>419.0</ele><time>2026-04-24T10:51:21.995Z</time></trkpt><trkpt lat="44.82292245637825" lon="9.199669016366515"><ele>419.0</ele><time>2026-04-24T10:51:24.995Z</time></trkpt><trkpt lat="44.822752636583466" lon="9.19956035004735"><ele>419.0</ele><time>2026-04-24T10:51:28.995Z</time></trkpt><trkpt lat="44.822643811426865" lon="9.19935977238984"><ele>419.0</ele><time>2026-04-24T10:51:36.995Z</time></trkpt><trkpt lat="44.82261828291078" lon="9.1992762539283"><ele>417.8333333333333</ele><time>2026-04-24T10:51:39.995Z</time></trkpt><trkpt lat="44.82258837603706" lon="9.19916529628929"><ele>416.66666666666663</ele><time>2026-04-24T10:51:43.995Z</time></trkpt><trkpt lat="44.822521168858216" lon="9.199116439469174"><ele>415.5</ele><time>2026-04-24T10:51:47.995Z</time></trkpt><trkpt lat="44.82245158212977" lon="9.199165765830276"><ele>414.33333333333337</ele><time>2026-04-24T10:51:50.994Z</time></trkpt><trkpt lat="44.8223687673632" lon="9.199167673770386"><ele>413.1666666666667</ele><time>2026-04-24T10:51:57.994Z</time></trkpt><trkpt lat="44.82229872811709" lon="9.199174644824998"><ele>412.0</ele><time>2026-04-24T10:52:10Z</time></trkpt><trkpt lat="44.82222172924824" lon="9.199170831604015"><ele>411.99999999999994</ele><time>2026-04-24T10:52:15Z</time></trkpt><trkpt lat="44.8221566300417" lon="9.199149404895394"><ele>412.0</ele><time>2026-04-24T10:52:19Z</time></trkpt><trkpt lat="44.82211917898201" lon="9.199249604004851"><ele>412.0</ele><time>2026-04-24T10:52:27Z</time></trkpt><trkpt lat="44.82208198620979" lon="9.199326595268499"><ele>412.0</ele><time>2026-04-24T10:52:32Z</time></trkpt><trkpt lat="44.82206022951789" lon="9.199410025757524"><ele>412.0</ele><time>2026-04-24T10:52:35Z</time></trkpt><trkpt lat="44.82202888055828" lon="9.19950727673794"><ele>411.99999999999994</ele><time>2026-04-24T10:52:38Z</time></trkpt><trkpt lat="44.82197039266488" lon="9.199580552200795"><ele>412.0</ele><time>2026-04-24T10:52:41Z</time></trkpt><trkpt lat="44.821961006025234" lon="9.199691655227783"><ele>412.0</ele><time>2026-04-24T10:52:43Z</time></trkpt><trkpt lat="44.822014743871385" lon="9.199642800918873"><ele>412.0</ele><time>2026-04-24T10:53:03.999Z</time></trkpt><trkpt lat="44.82237582520691" lon="9.199613706994574"><ele>412.0</ele><time>2026-04-24T10:53:16.999Z</time></trkpt><trkpt lat="44.822483842937" lon="9.199568308769482"><ele>414.33333333333337</ele><time>2026-04-24T10:53:18.999Z</time></trkpt><trkpt lat="44.82274282830518" lon="9.199540126634592"><ele>416.66666666666663</ele><time>2026-04-24T10:53:22.999Z</time></trkpt><trkpt lat="44.82279924023631" lon="9.199469896214204"><ele>419.0</ele><time>2026-04-24T10:53:23.999Z</time></trkpt><trkpt lat="44.82292407209534" lon="9.199400837401713"><ele>419.0</ele><time>2026-04-24T10:53:25.999Z</time></trkpt><trkpt lat="44.823028454202976" lon="9.199354417079793"><ele>419.0</ele><time>2026-04-24T10:53:27.999Z</time></trkpt><trkpt lat="44.823145189129754" lon="9.19922546906739"><ele>419.0</ele><time>2026-04-24T10:53:28.999Z</time></trkpt><trkpt lat="44.82321052686794" lon="9.199189494468222"><ele>419.0</ele><time>2026-04-24T10:53:29.999Z</time></trkpt><trkpt lat="44.8232707595914" lon="9.199140472069809"><ele>419.0</ele><time>2026-04-24T10:53:30.999Z</time></trkpt><trkpt lat="44.8233255432243" lon="9.199065047682117"><ele>419.0</ele><time>2026-04-24T10:53:33.999Z</time></trkpt><trkpt lat="44.82342598875269" lon="9.198992775995569"><ele>419.0</ele><time>2026-04-24T10:53:35.999Z</time></trkpt><trkpt lat="44.82349759667837" lon="9.19897064039282"><ele>419.0</ele><time>2026-04-24T10:53:37.999Z</time></trkpt><trkpt lat="44.8237123507283" lon="9.19893327787052"><ele>419.0</ele><time>2026-04-24T10:53:42.999Z</time></trkpt><trkpt lat="44.82378951075448" lon="9.198890369728026"><ele>420.2</ele><time>2026-04-24T10:53:43.999Z</time></trkpt><trkpt lat="44.82386173614762" lon="9.198876207540211"><ele>421.4</ele><time>2026-04-24T10:53:44.999Z</time></trkpt><trkpt lat="44.82390267643522" lon="9.198794152114491"><ele>422.6</ele><time>2026-04-24T10:53:46.999Z</time></trkpt><trkpt lat="44.82399240078288" lon="9.198679606413206"><ele>423.8</ele><time>2026-04-24T10:53:48.999Z</time></trkpt><trkpt lat="44.82412945096123" lon="9.198573890677766"><ele>425.0</ele><time>2026-04-24T10:53:49.999Z</time></trkpt><trkpt lat="44.82413396903238" lon="9.198475959035607"><ele>425.0</ele><time>2026-04-24T10:53:50.999Z</time></trkpt><trkpt lat="44.82407889300829" lon="9.198362423562186"><ele>425.0</ele><time>2026-04-24T10:53:52.999Z</time></trkpt><trkpt lat="44.82410933671086" lon="9.198155521422136"><ele>425.0</ele><time>2026-04-24T10:53:54.999Z</time></trkpt><trkpt lat="44.82413782734873" lon="9.198065674591028"><ele>425.0</ele><time>2026-04-24T10:53:55.999Z</time></trkpt><trkpt lat="44.82416730404075" lon="9.197966741598893"><ele>425.0</ele><time>2026-04-24T10:53:56.999Z</time></trkpt><trkpt lat="44.824180310167804" lon="9.197840249129408"><ele>424.8333333333333</ele><time>2026-04-24T10:53:57.999Z</time></trkpt><trkpt lat="44.82423348628199" lon="9.197750485124935"><ele>424.66666666666663</ele><time>2026-04-24T10:53:58.999Z</time></trkpt><trkpt lat="44.824264045138136" lon="9.197665480316928"><ele>424.5</ele><time>2026-04-24T10:53:59.999Z</time></trkpt><trkpt lat="44.82427292603572" lon="9.197539349796763"><ele>424.33333333333337</ele><time>2026-04-24T10:54:01.998Z</time></trkpt><trkpt lat="44.82430333812971" lon="9.197454626107875"><ele>424.1666666666667</ele><time>2026-04-24T10:54:02.998Z</time></trkpt><trkpt lat="44.82435844573201" lon="9.197277154633507"><ele>424.0</ele><time>2026-04-24T10:54:04.998Z</time></trkpt><trkpt lat="44.82433197288582" lon="9.197134862817096"><ele>424.00000000000006</ele><time>2026-04-24T10:54:06.998Z</time></trkpt><trkpt lat="44.82434805797244" lon="9.196974747409474"><ele>424.0</ele><time>2026-04-24T10:54:08.998Z</time></trkpt><trkpt lat="44.8244218866719" lon="9.196892181249899"><ele>424.0</ele><time>2026-04-24T10:54:09.998Z</time></trkpt><trkpt lat="44.824427935243754" lon="9.196770526339552"><ele>424.0</ele><time>2026-04-24T10:54:10.998Z</time></trkpt><trkpt lat="44.82445085977354" lon="9.196673598200084"><ele>424.00000000000006</ele><time>2026-04-24T10:54:11.998Z</time></trkpt><trkpt lat="44.8244827155407" lon="9.196578499396761"><ele>424.0</ele><time>2026-04-24T10:54:12.998Z</time></trkpt><trkpt lat="44.82448734162917" lon="9.196458432355515"><ele>423.4</ele><time>2026-04-24T10:54:13.998Z</time></trkpt><trkpt lat="44.824488922629605" lon="9.196354166675153"><ele>422.79999999999995</ele><time>2026-04-24T10:54:14.998Z</time></trkpt><trkpt lat="44.824484617883876" lon="9.19626519178442"><ele>422.20000000000005</ele><time>2026-04-24T10:54:15.998Z</time></trkpt><trkpt lat="44.82445495679281" lon="9.196080167776511"><ele>421.6</ele><time>2026-04-24T10:54:17.998Z</time></trkpt><trkpt lat="44.82441376067239" lon="9.195975339645083"><ele>421.0</ele><time>2026-04-24T10:54:18.998Z</time></trkpt><trkpt lat="44.824444141301086" lon="9.195789854002193"><ele>421.0</ele><time>2026-04-24T10:54:20.998Z</time></trkpt><trkpt lat="44.82442070519714" lon="9.195698658462224"><ele>421.0</ele><time>2026-04-24T10:54:21.998Z</time></trkpt><trkpt lat="44.824327525855445" lon="9.195789923741819"><ele>421.0</ele><time>2026-04-24T10:54:25.998Z</time></trkpt><trkpt lat="44.8242618307743" lon="9.195844239208881"><ele>421.0</ele><time>2026-04-24T10:54:27.998Z</time></trkpt><trkpt lat="44.82446532198333" lon="9.195761124489952"><ele>421.0</ele><time>2026-04-24T10:54:28.998Z</time></trkpt><trkpt lat="44.82461212703548" lon="9.19575738476479"><ele>421.0</ele><time>2026-04-24T10:54:39.998Z</time></trkpt><trkpt lat="44.82472342019386" lon="9.195686974371824"><ele>421.0</ele><time>2026-04-24T10:54:47.998Z</time></trkpt><trkpt lat="44.824776504374135" lon="9.195629836065914"><ele>421.0</ele><time>2026-04-24T10:54:51.998Z</time></trkpt><trkpt lat="44.824831718134085" lon="9.19557965513145"><ele>421.0</ele><time>2026-04-24T10:54:56.998Z</time></trkpt><trkpt lat="44.824895897592064" lon="9.195561574901694"><ele>421.5</ele><time>2026-04-24T10:55:02.998Z</time></trkpt><trkpt lat="44.8249830069663" lon="9.195548501070252"><ele>422.0</ele><time>2026-04-24T10:55:05.997Z</time></trkpt><trkpt lat="44.82515374295992" lon="9.195569929340051"><ele>422.5</ele><time>2026-04-24T10:55:09.997Z</time></trkpt><trkpt lat="44.825221446749104" lon="9.195583277355361"><ele>423.0</ele><time>2026-04-24T10:55:12.997Z</time></trkpt><trkpt lat="44.82532326150862" lon="9.195754609552889"><ele>422.59999999999997</ele><time>2026-04-24T10:55:23.997Z</time></trkpt><trkpt lat="44.825284944510436" lon="9.19586475853374"><ele>422.2</ele><time>2026-04-24T10:55:26.997Z</time></trkpt><trkpt lat="44.82517980685627" lon="9.195939710226138"><ele>421.8</ele><time>2026-04-24T10:55:28.997Z</time></trkpt><trkpt lat="44.82509526448545" lon="9.196039295885495"><ele>421.4</ele><time>2026-04-24T10:55:29.997Z</time></trkpt><trkpt lat="44.825002915459585" lon="9.196114979801262"><ele>421.0</ele><time>2026-04-24T10:55:30.997Z</time></trkpt><trkpt lat="44.82488536157676" lon="9.19618620354253"><ele>421.00000000000006</ele><time>2026-04-24T10:55:31.997Z</time></trkpt><trkpt lat="44.824811087495206" lon="9.196251964804013"><ele>421.0</ele><time>2026-04-24T10:55:32.997Z</time></trkpt><trkpt lat="44.824747589703385" lon="9.196293510655588"><ele>421.0</ele><time>2026-04-24T10:55:33.997Z</time></trkpt><trkpt lat="44.82466603448333" lon="9.196327301261563"><ele>421.0</ele><time>2026-04-24T10:55:34.997Z</time></trkpt><trkpt lat="44.82459640291009" lon="9.196364769554554"><ele>421.00000000000006</ele><time>2026-04-24T10:55:35.997Z</time></trkpt><trkpt lat="44.82452747070357" lon="9.19639980289974"><ele>421.0</ele><time>2026-04-24T10:55:36.997Z</time></trkpt><trkpt lat="44.82441426534703" lon="9.196590920482379"><ele>421.0</ele><time>2026-04-24T10:55:38.997Z</time></trkpt><trkpt lat="44.82439573201846" lon="9.196493900980624"><ele>421.0</ele><time>2026-04-24T10:55:44.997Z</time></trkpt><trkpt lat="44.824336125018405" lon="9.196585128148646"><ele>421.0</ele><time>2026-04-24T10:56:08.996Z</time></trkpt><trkpt lat="44.824224841169645" lon="9.196558363492272"><ele>421.0</ele><time>2026-04-24T10:56:10.996Z</time></trkpt><trkpt lat="44.82412918346564" lon="9.196657020288788"><ele>421.0</ele><time>2026-04-24T10:56:12.996Z</time></trkpt><trkpt lat="44.82409058082871" lon="9.19675912605219"><ele>420.28571428571433</ele><time>2026-04-24T10:56:13.996Z</time></trkpt><trkpt lat="44.824004944912836" lon="9.196738328600386"><ele>419.57142857142856</ele><time>2026-04-24T10:56:14.996Z</time></trkpt><trkpt lat="44.824044647838996" lon="9.196820190434993"><ele>418.8571428571429</ele><time>2026-04-24T10:56:22.996Z</time></trkpt><trkpt lat="44.82400654325879" lon="9.196905383249705"><ele>418.14285714285717</ele><time>2026-04-24T10:56:27.996Z</time></trkpt><trkpt lat="44.82395103126125" lon="9.19695210559124"><ele>417.42857142857144</ele><time>2026-04-24T10:56:38.996Z</time></trkpt><trkpt lat="44.82390811180182" lon="9.19702029576615"><ele>416.7142857142857</ele><time>2026-04-24T10:56:51.996Z</time></trkpt><trkpt lat="44.82386932518006" lon="9.197101836074188"><ele>416.0</ele><time>2026-04-24T10:56:59.996Z</time></trkpt><trkpt lat="44.82381294614432" lon="9.19715569307355"><ele>416.0</ele><time>2026-04-24T10:57:38.995Z</time></trkpt><trkpt lat="44.823786363353456" lon="9.197263658342075"><ele>416.0</ele><time>2026-04-24T10:57:49.995Z</time></trkpt><trkpt lat="44.823729406596314" lon="9.197331148996975"><ele>416.0</ele><time>2026-04-24T10:57:58.995Z</time></trkpt><trkpt lat="44.82367044298693" lon="9.197368919888545"><ele>416.0</ele><time>2026-04-24T10:58:01.995Z</time></trkpt><trkpt lat="44.82359483279885" lon="9.197389525461984"><ele>416.0</ele><time>2026-04-24T10:58:04.995Z</time></trkpt><trkpt lat="44.82358367918122" lon="9.197481086039609"><ele>416.0</ele><time>2026-04-24T10:58:08.995Z</time></trkpt><trkpt lat="44.82354842544133" lon="9.197577852292035"><ele>416.0</ele><time>2026-04-24T10:58:11.995Z</time></trkpt><trkpt lat="44.82358361216219" lon="9.197667676908393"><ele>416.49999999999994</ele><time>2026-04-24T10:58:25.994Z</time></trkpt><trkpt lat="44.823551656743646" lon="9.197783778184508"><ele>417.0</ele><time>2026-04-24T10:58:31.994Z</time></trkpt><trkpt lat="44.82351715063411" lon="9.197870489712473"><ele>417.5</ele><time>2026-04-24T10:58:34.994Z</time></trkpt><trkpt lat="44.823467519832874" lon="9.197961676638961"><ele>418.0</ele><time>2026-04-24T10:58:37.994Z</time></trkpt><trkpt lat="44.82340741624619" lon="9.198033069815942"><ele>418.49999999999994</ele><time>2026-04-24T10:58:42.994Z</time></trkpt><trkpt lat="44.82334121651507" lon="9.198043658835678"><ele>419.0</ele><time>2026-04-24T10:58:56.994Z</time></trkpt><trkpt lat="44.823308562165195" lon="9.198128960939565"><ele>418.99999999999994</ele><time>2026-04-24T10:59:14Z</time></trkpt><trkpt lat="44.82326885304068" lon="9.19819985902869"><ele>419.0</ele><time>2026-04-24T10:59:18Z</time></trkpt><trkpt lat="44.82322900504736" lon="9.198269433279576"><ele>419.0</ele><time>2026-04-24T10:59:22Z</time></trkpt><trkpt lat="44.82318083349805" lon="9.198334290265239"><ele>419.0</ele><time>2026-04-24T10:59:27Z</time></trkpt><trkpt lat="44.82315117704153" lon="9.198413209982652"><ele>419.0</ele><time>2026-04-24T10:59:31Z</time></trkpt><trkpt lat="44.823093077225" lon="9.198449914257637"><ele>418.99999999999994</ele><time>2026-04-24T10:59:37.999Z</time></trkpt><trkpt lat="44.82304561011227" lon="9.198518425039172"><ele>419.0</ele><time>2026-04-24T10:59:59.999Z</time></trkpt><trkpt lat="44.82297724545206" lon="9.198546078510365"><ele>419.0</ele><time>2026-04-24T11:00:10.999Z</time></trkpt></trkseg><trkseg><trkpt lat="44.82160059284345" lon="9.199950646564512"><ele>409.00000000000006</ele><time>2026-04-24T12:35:58.982Z</time></trkpt><trkpt lat="44.82162854879482" lon="9.20005507700763"><ele>409.0</ele><time>2026-04-24T12:36:02.986Z</time></trkpt><trkpt lat="44.821682631426135" lon="9.200127856713095"><ele>409.0</ele><time>2026-04-24T12:36:04.988Z</time></trkpt><trkpt lat="44.82177170091372" lon="9.20017638774224"><ele>409.0</ele><time>2026-04-24T12:36:06.989Z</time></trkpt><trkpt lat="44.82182850162514" lon="9.200216178076698"><ele>409.00000000000006</ele><time>2026-04-24T12:36:08.99Z</time></trkpt><trkpt lat="44.82190945014835" lon="9.20026637311212"><ele>409.0</ele><time>2026-04-24T12:36:14.993Z</time></trkpt><trkpt lat="44.82198259899518" lon="9.20029091450292"><ele>410.0</ele><time>2026-04-24T12:36:16.994Z</time></trkpt><trkpt lat="44.82208630320761" lon="9.20033966845435"><ele>411.0</ele><time>2026-04-24T12:36:18.995Z</time></trkpt><trkpt lat="44.82215171339528" lon="9.200383244642742"><ele>412.0</ele><time>2026-04-24T12:36:19.995Z</time></trkpt><trkpt lat="44.82226570988055" lon="9.20045548213586"><ele>413.0</ele><time>2026-04-24T12:36:21.996Z</time></trkpt><trkpt lat="44.82235895938638" lon="9.200535758425755"><ele>414.0</ele><time>2026-04-24T12:36:23.996Z</time></trkpt><trkpt lat="44.82243066704449" lon="9.200568066143365"><ele>414.0</ele><time>2026-04-24T12:36:25.997Z</time></trkpt><trkpt lat="44.82251767725548" lon="9.20063664421882"><ele>414.0</ele><time>2026-04-24T12:36:27.997Z</time></trkpt><trkpt lat="44.82260886224569" lon="9.200718126391623"><ele>414.0</ele><time>2026-04-24T12:36:29.997Z</time></trkpt><trkpt lat="44.82267751891209" lon="9.200797225755894"><ele>414.0</ele><time>2026-04-24T12:36:31.998Z</time></trkpt><trkpt lat="44.82269909437124" lon="9.200933861905575"><ele>414.0</ele><time>2026-04-24T12:36:33.998Z</time></trkpt><trkpt lat="44.8226556171105" lon="9.201101590848847"><ele>414.6</ele><time>2026-04-24T12:36:35.998Z</time></trkpt><trkpt lat="44.82263043669782" lon="9.201195645872465"><ele>415.2</ele><time>2026-04-24T12:36:36.998Z</time></trkpt><trkpt lat="44.82260033370492" lon="9.201304683688894"><ele>415.8</ele><time>2026-04-24T12:36:37.998Z</time></trkpt><trkpt lat="44.82257161098389" lon="9.201429270113831"><ele>416.40000000000003</ele><time>2026-04-24T12:36:38.998Z</time></trkpt><trkpt lat="44.82255691642342" lon="9.201578418689406"><ele>417.0</ele><time>2026-04-24T12:36:39.999Z</time></trkpt><trkpt lat="44.82254031737156" lon="9.20171113308411"><ele>417.6</ele><time>2026-04-24T12:36:40.999Z</time></trkpt><trkpt lat="44.82251783858171" lon="9.201828585602199"><ele>418.20000000000005</ele><time>2026-04-24T12:36:41.999Z</time></trkpt><trkpt lat="44.82248798976311" lon="9.201966187787418"><ele>418.8</ele><time>2026-04-24T12:36:42.999Z</time></trkpt><trkpt lat="44.82245630788224" lon="9.202107294094425"><ele>419.4</ele><time>2026-04-24T12:36:43.999Z</time></trkpt><trkpt lat="44.82242506191229" lon="9.202238582413576"><ele>420.0</ele><time>2026-04-24T12:36:44.999Z</time></trkpt><trkpt lat="44.82239496479037" lon="9.202369297855814"><ele>420.6</ele><time>2026-04-24T12:36:45.999Z</time></trkpt><trkpt lat="44.822357461614835" lon="9.202508814020678"><ele>421.2</ele><time>2026-04-24T12:36:46.999Z</time></trkpt><trkpt lat="44.8223247647723" lon="9.202642214648174"><ele>421.79999999999995</ele><time>2026-04-24T12:36:47.999Z</time></trkpt><trkpt lat="44.82228489060687" lon="9.202789776066814"><ele>422.4</ele><time>2026-04-24T12:36:48.999Z</time></trkpt><trkpt lat="44.82223987640095" lon="9.202937169149543"><ele>423.0</ele><time>2026-04-24T12:36:49.999Z</time></trkpt><trkpt lat="44.822195298240565" lon="9.203096987084155"><ele>423.0</ele><time>2026-04-24T12:36:50.999Z</time></trkpt><trkpt lat="44.82214979770773" lon="9.203254710211173"><ele>423.0</ele><time>2026-04-24T12:36:51.999Z</time></trkpt><trkpt lat="44.82211807981353" lon="9.203417010143216"><ele>423.0</ele><time>2026-04-24T12:36:52.999Z</time></trkpt><trkpt lat="44.82208367728331" lon="9.203584637502443"><ele>423.0</ele><time>2026-04-24T12:36:53.999Z</time></trkpt><trkpt lat="44.82203856228785" lon="9.203765370449632"><ele>423.0</ele><time>2026-04-24T12:36:54.999Z</time></trkpt><trkpt lat="44.821996424540465" lon="9.203942552839766"><ele>423.0</ele><time>2026-04-24T12:36:55.999Z</time></trkpt><trkpt lat="44.82194876394677" lon="9.204130024714608"><ele>423.0</ele><time>2026-04-24T12:36:56.999Z</time></trkpt><trkpt lat="44.82189947731255" lon="9.204324158038158"><ele>423.0</ele><time>2026-04-24T12:36:57.999Z</time></trkpt><trkpt lat="44.82185275191921" lon="9.204510129379344"><ele>423.0</ele><time>2026-04-24T12:36:58.999Z</time></trkpt><trkpt lat="44.82180562581698" lon="9.204690265545068"><ele>423.0</ele><time>2026-04-24T12:36:59.999Z</time></trkpt><trkpt lat="44.821751435537124" lon="9.20488268681387"><ele>423.0</ele><time>2026-04-24T12:37:00.999Z</time></trkpt><trkpt lat="44.821693238751905" lon="9.205073790134094"><ele>423.0</ele><time>2026-04-24T12:37:01.999Z</time></trkpt><trkpt lat="44.82163286248229" lon="9.205245722126097"><ele>424.25</ele><time>2026-04-24T12:37:03Z</time></trkpt><trkpt lat="44.821547663628365" lon="9.205399414642383"><ele>425.5</ele><time>2026-04-24T12:37:04Z</time></trkpt><trkpt lat="44.82146606084862" lon="9.20557057744888"><ele>426.75</ele><time>2026-04-24T12:37:05Z</time></trkpt><trkpt lat="44.82137297533097" lon="9.20571764974413"><ele>428.0</ele><time>2026-04-24T12:37:06Z</time></trkpt><trkpt lat="44.82126281725366" lon="9.2058547617311"><ele>427.5</ele><time>2026-04-24T12:37:07Z</time></trkpt><trkpt lat="44.82115202890172" lon="9.20599406169349"><ele>427.0</ele><time>2026-04-24T12:37:08Z</time></trkpt><trkpt lat="44.821043888125" lon="9.206133884086173"><ele>426.5</ele><time>2026-04-24T12:37:09Z</time></trkpt><trkpt lat="44.8209424035103" lon="9.206283535194771"><ele>426.0</ele><time>2026-04-24T12:37:10Z</time></trkpt><trkpt lat="44.82084040023113" lon="9.20643024835473"><ele>428.0</ele><time>2026-04-24T12:37:11Z</time></trkpt><trkpt lat="44.82073998568378" lon="9.206583426745619"><ele>430.0</ele><time>2026-04-24T12:37:12Z</time></trkpt><trkpt lat="44.82063813885169" lon="9.206743918767312"><ele>432.0</ele><time>2026-04-24T12:37:13Z</time></trkpt><trkpt lat="44.82053425633536" lon="9.20689440877886"><ele>432.0</ele><time>2026-04-24T12:37:14Z</time></trkpt><trkpt lat="44.82043113994338" lon="9.207044168285607"><ele>432.0</ele><time>2026-04-24T12:37:15Z</time></trkpt><trkpt lat="44.820330780795445" lon="9.20719924047842"><ele>432.0</ele><time>2026-04-24T12:37:16Z</time></trkpt><trkpt lat="44.82022563415565" lon="9.207349826610091"><ele>432.0</ele><time>2026-04-24T12:37:17Z</time></trkpt><trkpt lat="44.82012463721486" lon="9.207500117994439"><ele>432.75</ele><time>2026-04-24T12:37:18Z</time></trkpt><trkpt lat="44.82002527307341" lon="9.207654305079217"><ele>433.5</ele><time>2026-04-24T12:37:19Z</time></trkpt><trkpt lat="44.81992060630452" lon="9.207806358018816"><ele>434.25</ele><time>2026-04-24T12:37:20Z</time></trkpt><trkpt lat="44.81981689502723" lon="9.207955792747265"><ele>435.0</ele><time>2026-04-24T12:37:21Z</time></trkpt><trkpt lat="44.81971764156818" lon="9.208101232387136"><ele>436.25</ele><time>2026-04-24T12:37:22Z</time></trkpt><trkpt lat="44.819621740926195" lon="9.2082491703755"><ele>437.5</ele><time>2026-04-24T12:37:23Z</time></trkpt><trkpt lat="44.81952407062875" lon="9.208392028733188"><ele>438.75</ele><time>2026-04-24T12:37:24Z</time></trkpt><trkpt lat="44.819428018541146" lon="9.208535795708867"><ele>440.0</ele><time>2026-04-24T12:37:25Z</time></trkpt><trkpt lat="44.81933357077042" lon="9.208679192731807"><ele>439.75</ele><time>2026-04-24T12:37:26Z</time></trkpt><trkpt lat="44.81923700737233" lon="9.208817943081682"><ele>439.5</ele><time>2026-04-24T12:37:27Z</time></trkpt><trkpt lat="44.81914363734638" lon="9.208958200417662"><ele>439.25</ele><time>2026-04-24T12:37:28Z</time></trkpt><trkpt lat="44.81906379671649" lon="9.209105245643872"><ele>439.0</ele><time>2026-04-24T12:37:29Z</time></trkpt><trkpt lat="44.81900373186445" lon="9.209264212404937"><ele>439.0</ele><time>2026-04-24T12:37:30Z</time></trkpt><trkpt lat="44.81896829827075" lon="9.209441486705778"><ele>439.0</ele><time>2026-04-24T12:37:31Z</time></trkpt><trkpt lat="44.818968059608636" lon="9.20962725811398"><ele>439.0</ele><time>2026-04-24T12:37:32Z</time></trkpt><trkpt lat="44.81898598200934" lon="9.209817839575358"><ele>439.0</ele><time>2026-04-24T12:37:33Z</time></trkpt><trkpt lat="44.81902484461079" lon="9.210010225277543"><ele>440.33333333333337</ele><time>2026-04-24T12:37:34Z</time></trkpt><trkpt lat="44.81907455679051" lon="9.210203628879073"><ele>441.66666666666663</ele><time>2026-04-24T12:37:35Z</time></trkpt><trkpt lat="44.81912516620363" lon="9.210403792507728"><ele>443.0</ele><time>2026-04-24T12:37:36Z</time></trkpt><trkpt lat="44.8191757225638" lon="9.21060909787397"><ele>442.0</ele><time>2026-04-24T12:37:37Z</time></trkpt><trkpt lat="44.81922934008653" lon="9.21081684881933"><ele>441.0</ele><time>2026-04-24T12:37:38Z</time></trkpt><trkpt lat="44.81928299426032" lon="9.211029109403684"><ele>440.0</ele><time>2026-04-24T12:37:39Z</time></trkpt><trkpt lat="44.81933331341284" lon="9.211242074826515"><ele>448.0</ele><time>2026-04-24T12:37:40Z</time></trkpt><trkpt lat="44.81938230083057" lon="9.211446593208237"><ele>456.0</ele><time>2026-04-24T12:37:41Z</time></trkpt><trkpt lat="44.81943307877216" lon="9.211658586883333"><ele>464.0</ele><time>2026-04-24T12:37:42Z</time></trkpt><trkpt lat="44.819483091588815" lon="9.211867386222387"><ele>464.0</ele><time>2026-04-24T12:37:43Z</time></trkpt><trkpt lat="44.81953203546216" lon="9.212071722813352"><ele>464.0</ele><time>2026-04-24T12:37:44Z</time></trkpt><trkpt lat="44.81957878730767" lon="9.212266907867464"><ele>464.0</ele><time>2026-04-24T12:37:45Z</time></trkpt><trkpt lat="44.8196237021954" lon="9.212461505325209"><ele>464.0</ele><time>2026-04-24T12:37:46Z</time></trkpt><trkpt lat="44.81965358325149" lon="9.212624983196834"><ele>462.79999999999995</ele><time>2026-04-24T12:37:47Z</time></trkpt><trkpt lat="44.81966202122096" lon="9.212765063120955"><ele>461.59999999999997</ele><time>2026-04-24T12:37:48Z</time></trkpt><trkpt lat="44.819647346713396" lon="9.212911318801751"><ele>460.4</ele><time>2026-04-24T12:37:49Z</time></trkpt><trkpt lat="44.81960598942917" lon="9.213016363738461"><ele>459.2</ele><time>2026-04-24T12:37:50Z</time></trkpt><trkpt lat="44.81951652673184" lon="9.213162622910819"><ele>458.0</ele><time>2026-04-24T12:37:51Z</time></trkpt><trkpt lat="44.819426132048775" lon="9.21323550781521"><ele>454.0</ele><time>2026-04-24T12:37:52Z</time></trkpt><trkpt lat="44.81929360325514" lon="9.213349186757009"><ele>450.0</ele><time>2026-04-24T12:37:53Z</time></trkpt><trkpt lat="44.819160976595775" lon="9.213470023579607"><ele>446.0</ele><time>2026-04-24T12:37:54Z</time></trkpt><trkpt lat="44.81904467391171" lon="9.213599894594154"><ele>446.0</ele><time>2026-04-24T12:37:55Z</time></trkpt><trkpt lat="44.81893451585023" lon="9.213676792472956"><ele>446.0</ele><time>2026-04-24T12:37:56Z</time></trkpt><trkpt lat="44.81884681548728" lon="9.213770570072606"><ele>446.0</ele><time>2026-04-24T12:37:57Z</time></trkpt><trkpt lat="44.818820243026984" lon="9.213917537191831"><ele>446.0</ele><time>2026-04-24T12:37:58Z</time></trkpt><trkpt lat="44.818810394153516" lon="9.214068388203282"><ele>446.0</ele><time>2026-04-24T12:37:59Z</time></trkpt><trkpt lat="44.818808050102966" lon="9.214221015812939"><ele>447.75</ele><time>2026-04-24T12:38:00Z</time></trkpt><trkpt lat="44.818856994559454" lon="9.214403846470416"><ele>449.5</ele><time>2026-04-24T12:38:01Z</time></trkpt><trkpt lat="44.81885296551397" lon="9.214572303324266"><ele>451.25</ele><time>2026-04-24T12:38:02Z</time></trkpt><trkpt lat="44.81879079041533" lon="9.214710975740994"><ele>453.0</ele><time>2026-04-24T12:38:03Z</time></trkpt><trkpt lat="44.81869573118412" lon="9.214787301704746"><ele>455.25</ele><time>2026-04-24T12:38:04Z</time></trkpt><trkpt lat="44.81858624539162" lon="9.2148554861473"><ele>457.5</ele><time>2026-04-24T12:38:05Z</time></trkpt><trkpt lat="44.81846442526621" lon="9.21491641859166"><ele>459.75</ele><time>2026-04-24T12:38:06Z</time></trkpt><trkpt lat="44.81833064903358" lon="9.214908615966747"><ele>462.0</ele><time>2026-04-24T12:38:07Z</time></trkpt><trkpt lat="44.8182177344941" lon="9.214834434456765"><ele>461.0</ele><time>2026-04-24T12:38:08Z</time></trkpt><trkpt lat="44.81809078784575" lon="9.214737380546968"><ele>460.0</ele><time>2026-04-24T12:38:09Z</time></trkpt><trkpt lat="44.81796207878381" lon="9.214634336143698"><ele>459.0</ele><time>2026-04-24T12:38:10Z</time></trkpt><trkpt lat="44.8178432554953" lon="9.214520495704209"><ele>458.0</ele><time>2026-04-24T12:38:11Z</time></trkpt><trkpt lat="44.81770134678453" lon="9.214451919052076"><ele>459.25</ele><time>2026-04-24T12:38:12Z</time></trkpt><trkpt lat="44.81756594611201" lon="9.21436251779192"><ele>460.5</ele><time>2026-04-24T12:38:13Z</time></trkpt><trkpt lat="44.81742080626408" lon="9.214367890537467"><ele>461.75</ele><time>2026-04-24T12:38:14Z</time></trkpt><trkpt lat="44.817302937267186" lon="9.21443646719435"><ele>463.0</ele><time>2026-04-24T12:38:15Z</time></trkpt><trkpt lat="44.81719029966925" lon="9.214526112495856"><ele>463.0</ele><time>2026-04-24T12:38:16Z</time></trkpt><trkpt lat="44.817076087202835" lon="9.214589128630514"><ele>462.99999999999994</ele><time>2026-04-24T12:38:17Z</time></trkpt><trkpt lat="44.81696980800172" lon="9.214632746134338"><ele>462.99999999999994</ele><time>2026-04-24T12:38:18Z</time></trkpt><trkpt lat="44.81688739222202" lon="9.214733006048629"><ele>463.0</ele><time>2026-04-24T12:38:19Z</time></trkpt><trkpt lat="44.81684331240761" lon="9.214848389291635"><ele>463.0</ele><time>2026-04-24T12:38:20Z</time></trkpt><trkpt lat="44.81680260670902" lon="9.214990828610777"><ele>465.4</ele><time>2026-04-24T12:38:21Z</time></trkpt><trkpt lat="44.81685809930182" lon="9.215094224290064"><ele>467.79999999999995</ele><time>2026-04-24T12:38:22Z</time></trkpt><trkpt lat="44.81693636737295" lon="9.215166282481889"><ele>470.2</ele><time>2026-04-24T12:38:23Z</time></trkpt><trkpt lat="44.81703348474673" lon="9.215196665728367"><ele>472.6</ele><time>2026-04-24T12:38:24Z</time></trkpt><trkpt lat="44.81713498984287" lon="9.215156889610121"><ele>475.0</ele><time>2026-04-24T12:38:25Z</time></trkpt><trkpt lat="44.817249629393196" lon="9.215106411855373"><ele>475.0</ele><time>2026-04-24T12:38:26Z</time></trkpt><trkpt lat="44.817360293761205" lon="9.21513318197832"><ele>475.0</ele><time>2026-04-24T12:38:27Z</time></trkpt><trkpt lat="44.817436676667384" lon="9.215224150426605"><ele>475.0</ele><time>2026-04-24T12:38:28Z</time></trkpt><trkpt lat="44.81749875519895" lon="9.215324426874743"><ele>475.0</ele><time>2026-04-24T12:38:29Z</time></trkpt><trkpt lat="44.81757364385649" lon="9.21543959749459"><ele>475.0</ele><time>2026-04-24T12:38:30Z</time></trkpt><trkpt lat="44.81766348768545" lon="9.215593793968312"><ele>475.75</ele><time>2026-04-24T12:38:31Z</time></trkpt><trkpt lat="44.81774772429304" lon="9.215738797004962"><ele>476.5</ele><time>2026-04-24T12:38:32Z</time></trkpt><trkpt lat="44.81782449074444" lon="9.21588417693806"><ele>477.25</ele><time>2026-04-24T12:38:33Z</time></trkpt><trkpt lat="44.81788548029844" lon="9.216030181295004"><ele>478.0</ele><time>2026-04-24T12:38:34Z</time></trkpt><trkpt lat="44.817897857149596" lon="9.216140571529088"><ele>478.0</ele><time>2026-04-24T12:38:35Z</time></trkpt><trkpt lat="44.81788782743725" lon="9.216293941114653"><ele>478.0</ele><time>2026-04-24T12:38:36Z</time></trkpt><trkpt lat="44.81788678988032" lon="9.216493080799127"><ele>478.0</ele><time>2026-04-24T12:38:37Z</time></trkpt><trkpt lat="44.81793361422328" lon="9.216683834892034"><ele>478.0</ele><time>2026-04-24T12:38:38Z</time></trkpt><trkpt lat="44.81799195782553" lon="9.216871277211313"><ele>480.75</ele><time>2026-04-24T12:38:39Z</time></trkpt><trkpt lat="44.8180422929141" lon="9.217053746209046"><ele>483.5</ele><time>2026-04-24T12:38:40Z</time></trkpt><trkpt lat="44.81812586290373" lon="9.217198461990229"><ele>486.25</ele><time>2026-04-24T12:38:41Z</time></trkpt><trkpt lat="44.81821519294718" lon="9.217315335770003"><ele>489.0</ele><time>2026-04-24T12:38:42Z</time></trkpt><trkpt lat="44.81831872960653" lon="9.217398297790355"><ele>491.0</ele><time>2026-04-24T12:38:43Z</time></trkpt><trkpt lat="44.81840821408202" lon="9.217455586291564"><ele>493.0</ele><time>2026-04-24T12:38:44Z</time></trkpt><trkpt lat="44.81847773246698" lon="9.217557746223074"><ele>495.0</ele><time>2026-04-24T12:38:45Z</time></trkpt><trkpt lat="44.81847263631733" lon="9.217648848538603"><ele>497.0</ele><time>2026-04-24T12:38:46Z</time></trkpt><trkpt lat="44.81844415223954" lon="9.217753655001967"><ele>499.0</ele><time>2026-04-24T12:38:47Z</time></trkpt><trkpt lat="44.81837362003116" lon="9.21786558640508"><ele>501.0</ele><time>2026-04-24T12:38:48Z</time></trkpt><trkpt lat="44.818281116061506" lon="9.217941801649875"><ele>501.0</ele><time>2026-04-24T12:38:49Z</time></trkpt><trkpt lat="44.81816271098824" lon="9.217874480683834"><ele>501.0</ele><time>2026-04-24T12:38:50Z</time></trkpt><trkpt lat="44.81806455243116" lon="9.217768763352641"><ele>501.0</ele><time>2026-04-24T12:38:51Z</time></trkpt><trkpt lat="44.81796871574563" lon="9.217630048220782"><ele>501.0</ele><time>2026-04-24T12:38:52Z</time></trkpt><trkpt lat="44.81785751808441" lon="9.217494103054367"><ele>501.0</ele><time>2026-04-24T12:38:53Z</time></trkpt><trkpt lat="44.81777746148879" lon="9.217345561684903"><ele>501.0</ele><time>2026-04-24T12:38:54Z</time></trkpt><trkpt lat="44.81767140506583" lon="9.217234716831422"><ele>501.0</ele><time>2026-04-24T12:38:55Z</time></trkpt><trkpt lat="44.81757830693472" lon="9.21710509470971"><ele>501.0</ele><time>2026-04-24T12:38:56Z</time></trkpt><trkpt lat="44.81746312219962" lon="9.21711726986097"><ele>499.75</ele><time>2026-04-24T12:38:57Z</time></trkpt><trkpt lat="44.817351123277355" lon="9.217175010661201"><ele>498.5</ele><time>2026-04-24T12:38:58Z</time></trkpt><trkpt lat="44.81724001568407" lon="9.21729703255712"><ele>497.25</ele><time>2026-04-24T12:38:59Z</time></trkpt><trkpt lat="44.81711311304811" lon="9.217390256970019"><ele>496.0</ele><time>2026-04-24T12:39:00Z</time></trkpt><trkpt lat="44.8169882553667" lon="9.217478401683032"><ele>498.33333333333337</ele><time>2026-04-24T12:39:01Z</time></trkpt><trkpt lat="44.81688693521999" lon="9.217617882287643"><ele>500.66666666666663</ele><time>2026-04-24T12:39:02Z</time></trkpt><trkpt lat="44.816774702634035" lon="9.217738469858133"><ele>503.0</ele><time>2026-04-24T12:39:03Z</time></trkpt><trkpt lat="44.81667559732627" lon="9.217941543952872"><ele>503.0</ele><time>2026-04-24T12:39:04Z</time></trkpt><trkpt lat="44.81658678453895" lon="9.218128134518377"><ele>503.0</ele><time>2026-04-24T12:39:05Z</time></trkpt><trkpt lat="44.816490681921884" lon="9.218310663545733"><ele>503.0</ele><time>2026-04-24T12:39:06Z</time></trkpt><trkpt lat="44.81639127927943" lon="9.218483043612949"><ele>505.79999999999995</ele><time>2026-04-24T12:39:07Z</time></trkpt><trkpt lat="44.8162873003554" lon="9.218636647441757"><ele>508.59999999999997</ele><time>2026-04-24T12:39:08Z</time></trkpt><trkpt lat="44.816219160018" lon="9.218772928228185"><ele>511.40000000000003</ele><time>2026-04-24T12:39:09Z</time></trkpt><trkpt lat="44.816196883053834" lon="9.21887228754775"><ele>514.2</ele><time>2026-04-24T12:39:10Z</time></trkpt><trkpt lat="44.8162095701636" lon="9.218960126096464"><ele>517.0</ele><time>2026-04-24T12:39:11Z</time></trkpt><trkpt lat="44.81622258560915" lon="9.21906596126675"><ele>520.25</ele><time>2026-04-24T12:39:12Z</time></trkpt><trkpt lat="44.81630511067611" lon="9.219117088181768"><ele>523.5</ele><time>2026-04-24T12:39:13Z</time></trkpt><trkpt lat="44.81644414843461" lon="9.21911311108724"><ele>526.75</ele><time>2026-04-24T12:39:14Z</time></trkpt><trkpt lat="44.81654824571537" lon="9.219060904598408"><ele>530.0</ele><time>2026-04-24T12:39:15Z</time></trkpt><trkpt lat="44.816663474047786" lon="9.218987750791987"><ele>527.25</ele><time>2026-04-24T12:39:16Z</time></trkpt><trkpt lat="44.816776247743896" lon="9.218909772794731"><ele>524.5</ele><time>2026-04-24T12:39:17Z</time></trkpt><trkpt lat="44.81688606287771" lon="9.218833840452778"><ele>521.75</ele><time>2026-04-24T12:39:18Z</time></trkpt><trkpt lat="44.816999952376385" lon="9.21875602232217"><ele>519.0</ele><time>2026-04-24T12:39:19Z</time></trkpt><trkpt lat="44.817103142830035" lon="9.218704583680903"><ele>519.0</ele><time>2026-04-24T12:39:20Z</time></trkpt><trkpt lat="44.81721279961977" lon="9.218719456926765"><ele>519.0</ele><time>2026-04-24T12:39:21Z</time></trkpt><trkpt lat="44.817276180811504" lon="9.218783593404481"><ele>519.0</ele><time>2026-04-24T12:39:22Z</time></trkpt><trkpt lat="44.8173055886369" lon="9.218954998480928"><ele>519.0</ele><time>2026-04-24T12:39:24Z</time></trkpt><trkpt lat="44.81725925982926" lon="9.219095819150581"><ele>519.0</ele><time>2026-04-24T12:39:25Z</time></trkpt><trkpt lat="44.81717445053341" lon="9.219249290535128"><ele>520.75</ele><time>2026-04-24T12:39:26Z</time></trkpt><trkpt lat="44.81707657085715" lon="9.21941046800576"><ele>522.5</ele><time>2026-04-24T12:39:27Z</time></trkpt><trkpt lat="44.81697778371597" lon="9.219554399975904"><ele>524.25</ele><time>2026-04-24T12:39:28Z</time></trkpt><trkpt lat="44.816866131356846" lon="9.219680933850604"><ele>526.0</ele><time>2026-04-24T12:39:29Z</time></trkpt><trkpt lat="44.81672623478527" lon="9.219793764738624"><ele>529.25</ele><time>2026-04-24T12:39:30Z</time></trkpt><trkpt lat="44.81663146870008" lon="9.21987288266868"><ele>532.5</ele><time>2026-04-24T12:39:31Z</time></trkpt><trkpt lat="44.81653868656093" lon="9.22002328938731"><ele>535.75</ele><time>2026-04-24T12:39:32Z</time></trkpt><trkpt lat="44.81646017224722" lon="9.220161901587431"><ele>539.0</ele><time>2026-04-24T12:39:33Z</time></trkpt><trkpt lat="44.816379634444075" lon="9.220308608061178"><ele>539.0</ele><time>2026-04-24T12:39:34Z</time></trkpt><trkpt lat="44.81629429967083" lon="9.220440813050335"><ele>539.0</ele><time>2026-04-24T12:39:35Z</time></trkpt><trkpt lat="44.81620197302366" lon="9.220569880812457"><ele>539.0</ele><time>2026-04-24T12:39:36Z</time></trkpt><trkpt lat="44.81611391262726" lon="9.220702950239218"><ele>539.0</ele><time>2026-04-24T12:39:37Z</time></trkpt><trkpt lat="44.815984988634476" lon="9.220800390871478"><ele>540.5</ele><time>2026-04-24T12:39:38Z</time></trkpt><trkpt lat="44.815886152555436" lon="9.2209130668934"><ele>542.0</ele><time>2026-04-24T12:39:39Z</time></trkpt><trkpt lat="44.815813099905355" lon="9.221056755980323"><ele>543.5</ele><time>2026-04-24T12:39:40Z</time></trkpt><trkpt lat="44.81572323972541" lon="9.221175960941999"><ele>545.0</ele><time>2026-04-24T12:39:41Z</time></trkpt><trkpt lat="44.81567085272294" lon="9.221314493091429"><ele>545.0</ele><time>2026-04-24T12:39:42Z</time></trkpt><trkpt lat="44.81561670356239" lon="9.221471449766373"><ele>545.0</ele><time>2026-04-24T12:39:43Z</time></trkpt><trkpt lat="44.8155775565246" lon="9.221653775002414"><ele>545.0</ele><time>2026-04-24T12:39:44Z</time></trkpt><trkpt lat="44.81551665308401" lon="9.221815498884238"><ele>545.0</ele><time>2026-04-24T12:39:45Z</time></trkpt><trkpt lat="44.815448177494915" lon="9.221955652962306"><ele>547.2</ele><time>2026-04-24T12:39:46Z</time></trkpt><trkpt lat="44.81539165661821" lon="9.222099736578082"><ele>549.4</ele><time>2026-04-24T12:39:47Z</time></trkpt><trkpt lat="44.81536924768464" lon="9.222248867324915"><ele>551.6</ele><time>2026-04-24T12:39:48Z</time></trkpt><trkpt lat="44.81539108186371" lon="9.222395222905211"><ele>553.8</ele><time>2026-04-24T12:39:49Z</time></trkpt><trkpt lat="44.8153443297655" lon="9.22254292871499"><ele>556.0</ele><time>2026-04-24T12:39:50Z</time></trkpt><trkpt lat="44.81526221556514" lon="9.222637803727368"><ele>556.2</ele><time>2026-04-24T12:39:51Z</time></trkpt><trkpt lat="44.81517157150016" lon="9.222696960110621"><ele>556.4000000000001</ele><time>2026-04-24T12:39:52Z</time></trkpt><trkpt lat="44.81508971920028" lon="9.22273946446"><ele>556.6</ele><time>2026-04-24T12:39:53Z</time></trkpt><trkpt lat="44.81500078957072" lon="9.22284906460828"><ele>556.8000000000001</ele><time>2026-04-24T12:39:54Z</time></trkpt><trkpt lat="44.814952320463796" lon="9.222997160713609"><ele>557.0</ele><time>2026-04-24T12:39:55Z</time></trkpt><trkpt lat="44.81492599359402" lon="9.223144967144439"><ele>560.25</ele><time>2026-04-24T12:39:56Z</time></trkpt><trkpt lat="44.81486345425361" lon="9.223262694626131"><ele>563.5</ele><time>2026-04-24T12:39:57Z</time></trkpt><trkpt lat="44.81477330244761" lon="9.223337618458315"><ele>566.75</ele><time>2026-04-24T12:39:57.999Z</time></trkpt><trkpt lat="44.814665460848246" lon="9.223424155489797"><ele>570.0</ele><time>2026-04-24T12:39:58.999Z</time></trkpt><trkpt lat="44.81458163510543" lon="9.223572843194306"><ele>570.0</ele><time>2026-04-24T12:39:59.999Z</time></trkpt><trkpt lat="44.814502205608214" lon="9.223730996787515"><ele>570.0</ele><time>2026-04-24T12:40:00.999Z</time></trkpt><trkpt lat="44.81444571601574" lon="9.223886408846822"><ele>570.0</ele><time>2026-04-24T12:40:01.999Z</time></trkpt><trkpt lat="44.81440622397974" lon="9.22404321983326"><ele>570.0</ele><time>2026-04-24T12:40:02.999Z</time></trkpt><trkpt lat="44.81436961848715" lon="9.224179850564743"><ele>569.6</ele><time>2026-04-24T12:40:03.999Z</time></trkpt><trkpt lat="44.81431239543207" lon="9.224302981934374"><ele>569.2</ele><time>2026-04-24T12:40:04.999Z</time></trkpt><trkpt lat="44.81427249540084" lon="9.22444799734553"><ele>568.8</ele><time>2026-04-24T12:40:05.999Z</time></trkpt><trkpt lat="44.81421099816781" lon="9.224572678212"><ele>568.4</ele><time>2026-04-24T12:40:06.999Z</time></trkpt><trkpt lat="44.814183153264864" lon="9.224715261377787"><ele>568.0</ele><time>2026-04-24T12:40:07.999Z</time></trkpt><trkpt lat="44.8141638642254" lon="9.224857927425871"><ele>571.0</ele><time>2026-04-24T12:40:08.999Z</time></trkpt><trkpt lat="44.81414410542063" lon="9.22502019047249"><ele>574.0</ele><time>2026-04-24T12:40:09.999Z</time></trkpt><trkpt lat="44.81410599926013" lon="9.225176258809201"><ele>577.0</ele><time>2026-04-24T12:40:10.999Z</time></trkpt><trkpt lat="44.8140273045475" lon="9.22530487303196"><ele>580.0</ele><time>2026-04-24T12:40:11.999Z</time></trkpt><trkpt lat="44.81395875737169" lon="9.225433863252837"><ele>580.0</ele><time>2026-04-24T12:40:12.999Z</time></trkpt><trkpt lat="44.813882714895605" lon="9.225550548383172"><ele>580.0</ele><time>2026-04-24T12:40:13.999Z</time></trkpt><trkpt lat="44.813780805954266" lon="9.225657467150134"><ele>580.0</ele><time>2026-04-24T12:40:14.999Z</time></trkpt><trkpt lat="44.81365152374378" lon="9.225733136039478"><ele>580.0</ele><time>2026-04-24T12:40:15.999Z</time></trkpt><trkpt lat="44.813535309929094" lon="9.225841295794641"><ele>581.0</ele><time>2026-04-24T12:40:16.999Z</time></trkpt><trkpt lat="44.81339539218528" lon="9.225904852947798"><ele>582.0</ele><time>2026-04-24T12:40:17.999Z</time></trkpt><trkpt lat="44.8132662849636" lon="9.225976291308967"><ele>583.0</ele><time>2026-04-24T12:40:18.999Z</time></trkpt><trkpt lat="44.81314202769156" lon="9.226049903191875"><ele>584.0</ele><time>2026-04-24T12:40:19.999Z</time></trkpt><trkpt lat="44.81303265465073" lon="9.22611609256172"><ele>584.0</ele><time>2026-04-24T12:40:20.999Z</time></trkpt><trkpt lat="44.812957935009464" lon="9.226255645860695"><ele>584.0</ele><time>2026-04-24T12:40:21.999Z</time></trkpt><trkpt lat="44.812905800740495" lon="9.22644340458314"><ele>584.0</ele><time>2026-04-24T12:40:22.999Z</time></trkpt><trkpt lat="44.81284546675887" lon="9.226658895054653"><ele>584.0</ele><time>2026-04-24T12:40:23.999Z</time></trkpt><trkpt lat="44.812749260779846" lon="9.22685208874579"><ele>583.3333333333333</ele><time>2026-04-24T12:40:24.999Z</time></trkpt><trkpt lat="44.812636425920346" lon="9.22705142803607"><ele>582.6666666666666</ele><time>2026-04-24T12:40:25.999Z</time></trkpt><trkpt lat="44.81251070464333" lon="9.227262255662597"><ele>582.0</ele><time>2026-04-24T12:40:26.999Z</time></trkpt><trkpt lat="44.81237768746676" lon="9.227469175655694"><ele>586.3333333333334</ele><time>2026-04-24T12:40:27.999Z</time></trkpt><trkpt lat="44.81224845656492" lon="9.227664902422745"><ele>590.6666666666667</ele><time>2026-04-24T12:40:28.999Z</time></trkpt><trkpt lat="44.81214391468315" lon="9.227845011709025"><ele>595.0</ele><time>2026-04-24T12:40:29.999Z</time></trkpt><trkpt lat="44.81207028435001" lon="9.22803305484121"><ele>596.6666666666667</ele><time>2026-04-24T12:40:30.999Z</time></trkpt><trkpt lat="44.81202370507052" lon="9.228256221921944"><ele>598.3333333333334</ele><time>2026-04-24T12:40:31.999Z</time></trkpt><trkpt lat="44.81204036679783" lon="9.228479975616892"><ele>600.0</ele><time>2026-04-24T12:40:32.999Z</time></trkpt><trkpt lat="44.812072910811594" lon="9.2287391441862"><ele>600.0</ele><time>2026-04-24T12:40:33.999Z</time></trkpt><trkpt lat="44.81210362725233" lon="9.228970380342727"><ele>600.0</ele><time>2026-04-24T12:40:34.999Z</time></trkpt><trkpt lat="44.812125835322114" lon="9.22921604704"><ele>600.0</ele><time>2026-04-24T12:40:35.999Z</time></trkpt><trkpt lat="44.81213555778706" lon="9.229496263501643"><ele>602.0</ele><time>2026-04-24T12:40:36.999Z</time></trkpt><trkpt lat="44.81206389405484" lon="9.229761755855627"><ele>604.0</ele><time>2026-04-24T12:40:37.999Z</time></trkpt><trkpt lat="44.811971785325255" lon="9.23001269586303"><ele>606.0</ele><time>2026-04-24T12:40:38.999Z</time></trkpt><trkpt lat="44.811885620222334" lon="9.230262756206036"><ele>606.0</ele><time>2026-04-24T12:40:39.999Z</time></trkpt><trkpt lat="44.81180924565947" lon="9.230504099683563"><ele>606.0</ele><time>2026-04-24T12:40:40.999Z</time></trkpt><trkpt lat="44.811754133439756" lon="9.230744614878484"><ele>606.0</ele><time>2026-04-24T12:40:41.999Z</time></trkpt><trkpt lat="44.81172166836703" lon="9.231017854002673"><ele>606.0</ele><time>2026-04-24T12:40:42.999Z</time></trkpt><trkpt lat="44.811767615113204" lon="9.231287207353795"><ele>606.0</ele><time>2026-04-24T12:40:43.999Z</time></trkpt><trkpt lat="44.81181625221341" lon="9.231519921125425"><ele>606.0</ele><time>2026-04-24T12:40:44.999Z</time></trkpt><trkpt lat="44.811828276227104" lon="9.231723520041749"><ele>607.5</ele><time>2026-04-24T12:40:45.999Z</time></trkpt><trkpt lat="44.811779492953946" lon="9.231857082803"><ele>609.0</ele><time>2026-04-24T12:40:46.999Z</time></trkpt><trkpt lat="44.81168844809712" lon="9.231948227896481"><ele>610.5</ele><time>2026-04-24T12:40:47.999Z</time></trkpt><trkpt lat="44.81160715698797" lon="9.232059389403679"><ele>612.0</ele><time>2026-04-24T12:40:48.999Z</time></trkpt><trkpt lat="44.811530053698604" lon="9.23222165606283"><ele>613.25</ele><time>2026-04-24T12:40:49.999Z</time></trkpt><trkpt lat="44.811501720427415" lon="9.232408895399447"><ele>614.5</ele><time>2026-04-24T12:40:50.999Z</time></trkpt><trkpt lat="44.811501835407476" lon="9.232615192937468"><ele>615.75</ele><time>2026-04-24T12:40:51.999Z</time></trkpt><trkpt lat="44.811529375995356" lon="9.232799025464766"><ele>617.0</ele><time>2026-04-24T12:40:52.999Z</time></trkpt><trkpt lat="44.811528009345885" lon="9.232965874914443"><ele>617.0</ele><time>2026-04-24T12:40:53.999Z</time></trkpt><trkpt lat="44.811477920364375" lon="9.233115917092059"><ele>617.0</ele><time>2026-04-24T12:40:54.999Z</time></trkpt><trkpt lat="44.81136773630638" lon="9.233220356655636"><ele>617.0</ele><time>2026-04-24T12:40:55.999Z</time></trkpt><trkpt lat="44.811239330873214" lon="9.233327607581984"><ele>617.0</ele><time>2026-04-24T12:40:56.999Z</time></trkpt><trkpt lat="44.81109404038093" lon="9.233472575040215"><ele>616.3333333333333</ele><time>2026-04-24T12:40:57.999Z</time></trkpt><trkpt lat="44.81095414475079" lon="9.233612128194068"><ele>615.6666666666666</ele><time>2026-04-24T12:40:58.999Z</time></trkpt><trkpt lat="44.81081639484918" lon="9.233780121447705"><ele>615.0</ele><time>2026-04-24T12:40:59.999Z</time></trkpt><trkpt lat="44.81066745704544" lon="9.233937910138254"><ele>619.3333333333334</ele><time>2026-04-24T12:41:00.999Z</time></trkpt><trkpt lat="44.81052655011358" lon="9.234077283547576"><ele>623.6666666666667</ele><time>2026-04-24T12:41:01.999Z</time></trkpt><trkpt lat="44.81039667441868" lon="9.234229151352979"><ele>628.0</ele><time>2026-04-24T12:41:02.999Z</time></trkpt><trkpt lat="44.81027772547224" lon="9.234392974141604"><ele>628.0</ele><time>2026-04-24T12:41:03.999Z</time></trkpt><trkpt lat="44.81019366100253" lon="9.234589393653701"><ele>628.0</ele><time>2026-04-24T12:41:04.999Z</time></trkpt><trkpt lat="44.810139731465924" lon="9.23475209779227"><ele>628.0</ele><time>2026-04-24T12:41:05.999Z</time></trkpt><trkpt lat="44.81007547040083" lon="9.234932578174798"><ele>628.0</ele><time>2026-04-24T12:41:06.999Z</time></trkpt><trkpt lat="44.81003910658223" lon="9.235088806701505"><ele>628.0</ele><time>2026-04-24T12:41:07.999Z</time></trkpt><trkpt lat="44.809932833736674" lon="9.23516848565996"><ele>628.0</ele><time>2026-04-24T12:41:08.999Z</time></trkpt><trkpt lat="44.80980948462862" lon="9.235245964471089"><ele>628.0</ele><time>2026-04-24T12:41:09.999Z</time></trkpt><trkpt lat="44.80971199137478" lon="9.235351916925024"><ele>628.0</ele><time>2026-04-24T12:41:10.999Z</time></trkpt><trkpt lat="44.809651561309714" lon="9.235499440432124"><ele>628.0</ele><time>2026-04-24T12:41:11.999Z</time></trkpt><trkpt lat="44.80958173679159" lon="9.235632502070477"><ele>628.0</ele><time>2026-04-24T12:41:12.999Z</time></trkpt><trkpt lat="44.80959143264534" lon="9.235826168774986"><ele>628.0</ele><time>2026-04-24T12:41:13.999Z</time></trkpt><trkpt lat="44.80961467613364" lon="9.236047065257447"><ele>628.0</ele><time>2026-04-24T12:41:14.999Z</time></trkpt><trkpt lat="44.80966137310694" lon="9.23628402006669"><ele>632.5</ele><time>2026-04-24T12:41:15.999Z</time></trkpt><trkpt lat="44.809660221583336" lon="9.236502904985272"><ele>637.0</ele><time>2026-04-24T12:41:16.999Z</time></trkpt><trkpt lat="44.809625142955355" lon="9.236710428349934"><ele>641.5</ele><time>2026-04-24T12:41:17.999Z</time></trkpt><trkpt lat="44.80963558912102" lon="9.236899914314577"><ele>646.0</ele><time>2026-04-24T12:41:18.999Z</time></trkpt><trkpt lat="44.80962961251133" lon="9.23708498900527"><ele>646.0</ele><time>2026-04-24T12:41:19.999Z</time></trkpt><trkpt lat="44.80961822594986" lon="9.237248644750153"><ele>646.0</ele><time>2026-04-24T12:41:20.999Z</time></trkpt><trkpt lat="44.80963488027082" lon="9.237396373577502"><ele>646.0</ele><time>2026-04-24T12:41:21.999Z</time></trkpt><trkpt lat="44.80966158098394" lon="9.23761561563738"><ele>646.0</ele><time>2026-04-24T12:41:22.999Z</time></trkpt><trkpt lat="44.80969849047078" lon="9.237800240738919"><ele>646.0</ele><time>2026-04-24T12:41:23.999Z</time></trkpt><trkpt lat="44.809722972578676" lon="9.237985019447288"><ele>646.0</ele><time>2026-04-24T12:41:24.999Z</time></trkpt><trkpt lat="44.8097438277091" lon="9.238155348136477"><ele>646.0</ele><time>2026-04-24T12:41:25.999Z</time></trkpt><trkpt lat="44.80974472609382" lon="9.238343257534014"><ele>646.0</ele><time>2026-04-24T12:41:26.999Z</time></trkpt><trkpt lat="44.80974887266031" lon="9.238501108724742"><ele>646.0</ele><time>2026-04-24T12:41:27.999Z</time></trkpt><trkpt lat="44.809723935260365" lon="9.238648591233378"><ele>646.0</ele><time>2026-04-24T12:41:28.999Z</time></trkpt><trkpt lat="44.809706397101074" lon="9.238806486966741"><ele>646.0</ele><time>2026-04-24T12:41:29.999Z</time></trkpt><trkpt lat="44.80972433826225" lon="9.238949210080772"><ele>646.0</ele><time>2026-04-24T12:41:30.999Z</time></trkpt><trkpt lat="44.80980644535983" lon="9.239043032325773"><ele>646.0</ele><time>2026-04-24T12:41:31.999Z</time></trkpt><trkpt lat="44.80988720592444" lon="9.239125984788497"><ele>646.75</ele><time>2026-04-24T12:41:32.999Z</time></trkpt><trkpt lat="44.810022812888384" lon="9.239200335813875"><ele>647.5</ele><time>2026-04-24T12:41:33.999Z</time></trkpt><trkpt lat="44.81011073136106" lon="9.239365941657155"><ele>648.25</ele><time>2026-04-24T12:41:34.999Z</time></trkpt><trkpt lat="44.81016760428712" lon="9.239558803503135"><ele>649.0</ele><time>2026-04-24T12:41:35.999Z</time></trkpt><trkpt lat="44.810179439027806" lon="9.239780959266612"><ele>649.0</ele><time>2026-04-24T12:41:36.999Z</time></trkpt><trkpt lat="44.810155283711154" lon="9.239993791525084"><ele>649.0</ele><time>2026-04-24T12:41:37.999Z</time></trkpt><trkpt lat="44.810125185464486" lon="9.240219907262789"><ele>649.0</ele><time>2026-04-24T12:41:38.999Z</time></trkpt><trkpt lat="44.81009619357917" lon="9.240437711246807"><ele>648.6666666666667</ele><time>2026-04-24T12:41:39.999Z</time></trkpt><trkpt lat="44.810067695458336" lon="9.240657765615891"><ele>648.3333333333334</ele><time>2026-04-24T12:41:40.999Z</time></trkpt><trkpt lat="44.810058321319474" lon="9.240892147077277"><ele>648.0</ele><time>2026-04-24T12:41:41.999Z</time></trkpt><trkpt lat="44.8100574368689" lon="9.24109503206109"><ele>648.0</ele><time>2026-04-24T12:41:42.999Z</time></trkpt><trkpt lat="44.81008249927454" lon="9.241295830130754"><ele>648.0</ele><time>2026-04-24T12:41:43.999Z</time></trkpt><trkpt lat="44.81014629250387" lon="9.241493295927715"><ele>648.0</ele><time>2026-04-24T12:41:44.999Z</time></trkpt><trkpt lat="44.81025695738268" lon="9.241634300560385"><ele>648.0</ele><time>2026-04-24T12:41:45.999Z</time></trkpt><trkpt lat="44.81035606393225" lon="9.241744989549447"><ele>649.5</ele><time>2026-04-24T12:41:46.999Z</time></trkpt><trkpt lat="44.81041018718142" lon="9.24191935785029"><ele>651.0</ele><time>2026-04-24T12:41:47.999Z</time></trkpt><trkpt lat="44.81046539922076" lon="9.242096892449"><ele>652.5</ele><time>2026-04-24T12:41:48.999Z</time></trkpt><trkpt lat="44.81052915032671" lon="9.242253318188453"><ele>654.0</ele><time>2026-04-24T12:41:49.999Z</time></trkpt><trkpt lat="44.81063128572732" lon="9.242372062515928"><ele>654.0</ele><time>2026-04-24T12:41:50.999Z</time></trkpt><trkpt lat="44.81076151558493" lon="9.242487771078299"><ele>654.0</ele><time>2026-04-24T12:41:51.999Z</time></trkpt><trkpt lat="44.8108694027062" lon="9.242610734621953"><ele>654.0</ele><time>2026-04-24T12:41:52.999Z</time></trkpt><trkpt lat="44.8109374319015" lon="9.242770136842948"><ele>654.0</ele><time>2026-04-24T12:41:53.999Z</time></trkpt><trkpt lat="44.810994563511244" lon="9.242960340363402"><ele>660.6666666666666</ele><time>2026-04-24T12:41:54.999Z</time></trkpt><trkpt lat="44.81101885162093" lon="9.243135372412201"><ele>667.3333333333333</ele><time>2026-04-24T12:41:55.999Z</time></trkpt><trkpt lat="44.811034264500975" lon="9.243381007155556"><ele>674.0</ele><time>2026-04-24T12:41:56.999Z</time></trkpt><trkpt lat="44.811049527948576" lon="9.243623778946738"><ele>674.0</ele><time>2026-04-24T12:41:57.999Z</time></trkpt><trkpt lat="44.81106555371173" lon="9.243864732271966"><ele>674.0</ele><time>2026-04-24T12:41:58.999Z</time></trkpt><trkpt lat="44.811081279820506" lon="9.244101180188682"><ele>674.0</ele><time>2026-04-24T12:41:59.999Z</time></trkpt><trkpt lat="44.81109752664664" lon="9.244345457246283"><ele>673.5</ele><time>2026-04-24T12:42:00.999Z</time></trkpt><trkpt lat="44.81111110306928" lon="9.244534383825064"><ele>673.0</ele><time>2026-04-24T12:42:01.999Z</time></trkpt><trkpt lat="44.811135856945256" lon="9.244751531957526"><ele>672.5</ele><time>2026-04-24T12:42:02.999Z</time></trkpt><trkpt lat="44.8111854447856" lon="9.244933110579337"><ele>672.0</ele><time>2026-04-24T12:42:03.999Z</time></trkpt><trkpt lat="44.81127913116887" lon="9.245084406470859"><ele>670.3333333333334</ele><time>2026-04-24T12:42:04.999Z</time></trkpt><trkpt lat="44.81136117048076" lon="9.245258036898091"><ele>668.6666666666667</ele><time>2026-04-24T12:42:05.999Z</time></trkpt><trkpt lat="44.811448907150634" lon="9.245425635294431"><ele>667.0</ele><time>2026-04-24T12:42:06.999Z</time></trkpt><trkpt lat="44.81151809755068" lon="9.24562000234281"><ele>664.6666666666667</ele><time>2026-04-24T12:42:07.999Z</time></trkpt><trkpt lat="44.81159324401686" lon="9.245822573190829"><ele>662.3333333333334</ele><time>2026-04-24T12:42:08.999Z</time></trkpt><trkpt lat="44.81165295319201" lon="9.246040044471856"><ele>660.0</ele><time>2026-04-24T12:42:09.999Z</time></trkpt><trkpt lat="44.81173625438438" lon="9.24624103397913"><ele>663.0</ele><time>2026-04-24T12:42:10.999Z</time></trkpt><trkpt lat="44.81182943184411" lon="9.246410089167533"><ele>666.0</ele><time>2026-04-24T12:42:11.999Z</time></trkpt><trkpt lat="44.81191389696614" lon="9.246573421068282"><ele>669.0</ele><time>2026-04-24T12:42:12.999Z</time></trkpt><trkpt lat="44.81201502431369" lon="9.246650824226448"><ele>672.0</ele><time>2026-04-24T12:42:13.999Z</time></trkpt><trkpt lat="44.812125653146644" lon="9.2466843049676"><ele>672.0</ele><time>2026-04-24T12:42:14.999Z</time></trkpt><trkpt lat="44.81218238002928" lon="9.246732950669932"><ele>672.0</ele><time>2026-04-24T12:42:15.999Z</time></trkpt><trkpt lat="44.81221531832345" lon="9.246889365438513"><ele>672.0</ele><time>2026-04-24T12:42:17.999Z</time></trkpt><trkpt lat="44.812182482572716" lon="9.247036935334707"><ele>672.0</ele><time>2026-04-24T12:42:18.999Z</time></trkpt><trkpt lat="44.81213773873947" lon="9.247235007756723"><ele>672.0</ele><time>2026-04-24T12:42:19.999Z</time></trkpt><trkpt lat="44.812104073535366" lon="9.247426690731894"><ele>672.25</ele><time>2026-04-24T12:42:20.999Z</time></trkpt><trkpt lat="44.81208347479006" lon="9.247620851786508"><ele>672.5</ele><time>2026-04-24T12:42:21.999Z</time></trkpt><trkpt lat="44.81209740832119" lon="9.247837939282727"><ele>672.75</ele><time>2026-04-24T12:42:22.999Z</time></trkpt><trkpt lat="44.81212434680881" lon="9.248046828172917"><ele>673.0</ele><time>2026-04-24T12:42:23.999Z</time></trkpt><trkpt lat="44.81215497695188" lon="9.248256679992657"><ele>673.75</ele><time>2026-04-24T12:42:24.999Z</time></trkpt><trkpt lat="44.81218592890237" lon="9.248456862078969"><ele>674.5</ele><time>2026-04-24T12:42:25.999Z</time></trkpt><trkpt lat="44.812216903204934" lon="9.248660931936586"><ele>675.25</ele><time>2026-04-24T12:42:26.999Z</time></trkpt><trkpt lat="44.812233473573315" lon="9.248864121422061"><ele>676.0</ele><time>2026-04-24T12:42:27.999Z</time></trkpt><trkpt lat="44.81224835917809" lon="9.249037655884013"><ele>676.0</ele><time>2026-04-24T12:42:28.999Z</time></trkpt><trkpt lat="44.81227105666861" lon="9.249223357937634"><ele>676.0</ele><time>2026-04-24T12:42:29.999Z</time></trkpt><trkpt lat="44.8123039923727" lon="9.24940500164563"><ele>676.0</ele><time>2026-04-24T12:42:30.999Z</time></trkpt><trkpt lat="44.81234824375621" lon="9.249605478902712"><ele>676.0</ele><time>2026-04-24T12:42:31.999Z</time></trkpt><trkpt lat="44.81239805976527" lon="9.249806395740054"><ele>675.4</ele><time>2026-04-24T12:42:32.999Z</time></trkpt><trkpt lat="44.812443137929925" lon="9.249987991498196"><ele>674.8</ele><time>2026-04-24T12:42:33.999Z</time></trkpt><trkpt lat="44.81247660486147" lon="9.250143440157954"><ele>674.1999999999999</ele><time>2026-04-24T12:42:35.006Z</time></trkpt><trkpt lat="44.81248358832502" lon="9.250239326779457"><ele>673.5999999999999</ele><time>2026-04-24T12:42:36.006Z</time></trkpt><trkpt lat="44.81244203001752" lon="9.250343455645872"><ele>673.0</ele><time>2026-04-24T12:42:38.006Z</time></trkpt><trkpt lat="44.81238347538643" lon="9.25040307647123"><ele>673.0</ele><time>2026-04-24T12:42:40.005Z</time></trkpt><trkpt lat="44.812259436576525" lon="9.250309702994093"><ele>673.0</ele><time>2026-04-24T12:42:41.005Z</time></trkpt><trkpt lat="44.81210893310321" lon="9.250197641668434"><ele>673.0</ele><time>2026-04-24T12:42:42.005Z</time></trkpt><trkpt lat="44.81192882776701" lon="9.250207953884985"><ele>669.6666666666667</ele><time>2026-04-24T12:42:43.004Z</time></trkpt><trkpt lat="44.81177011637876" lon="9.250197682673097"><ele>666.3333333333334</ele><time>2026-04-24T12:42:44.004Z</time></trkpt><trkpt lat="44.81160996127007" lon="9.250273980616848"><ele>663.0</ele><time>2026-04-24T12:42:45.004Z</time></trkpt><trkpt lat="44.81145133458438" lon="9.250375568353428"><ele>663.0</ele><time>2026-04-24T12:42:46.004Z</time></trkpt><trkpt lat="44.81129794053106" lon="9.250475249672792"><ele>663.0</ele><time>2026-04-24T12:42:47.003Z</time></trkpt><trkpt lat="44.81114578787447" lon="9.250606935835826"><ele>663.0</ele><time>2026-04-24T12:42:48.003Z</time></trkpt><trkpt lat="44.810997055487206" lon="9.250742042435899"><ele>664.6666666666666</ele><time>2026-04-24T12:42:49.003Z</time></trkpt><trkpt lat="44.81089253978212" lon="9.250951030029233"><ele>666.3333333333333</ele><time>2026-04-24T12:42:50.003Z</time></trkpt><trkpt lat="44.81078927017724" lon="9.251112792917354"><ele>668.0</ele><time>2026-04-24T12:42:51.003Z</time></trkpt><trkpt lat="44.81068954780662" lon="9.251271612664949"><ele>668.0</ele><time>2026-04-24T12:42:52.002Z</time></trkpt><trkpt lat="44.81059775217459" lon="9.25141799509138"><ele>668.0</ele><time>2026-04-24T12:42:53.002Z</time></trkpt><trkpt lat="44.810523240786544" lon="9.251578229316655"><ele>668.0</ele><time>2026-04-24T12:42:54.002Z</time></trkpt><trkpt lat="44.81050833607142" lon="9.251751172465303"><ele>668.0</ele><time>2026-04-24T12:42:55.002Z</time></trkpt><trkpt lat="44.81054187235862" lon="9.251914372118806"><ele>670.0</ele><time>2026-04-24T12:42:56.002Z</time></trkpt><trkpt lat="44.81058572080738" lon="9.252115303689163"><ele>672.0</ele><time>2026-04-24T12:42:57.002Z</time></trkpt><trkpt lat="44.81067342501328" lon="9.252302905767433"><ele>674.0</ele><time>2026-04-24T12:42:58.002Z</time></trkpt><trkpt lat="44.81073273466659" lon="9.2525548605925"><ele>674.0</ele><time>2026-04-24T12:42:59.002Z</time></trkpt><trkpt lat="44.81078740757528" lon="9.252783232062539"><ele>674.0</ele><time>2026-04-24T12:43:00.001Z</time></trkpt><trkpt lat="44.81085497274184" lon="9.253019190937685"><ele>674.0</ele><time>2026-04-24T12:43:01.001Z</time></trkpt><trkpt lat="44.81092713464021" lon="9.253224610040077"><ele>672.3333333333333</ele><time>2026-04-24T12:43:02.001Z</time></trkpt><trkpt lat="44.81098309537677" lon="9.253457097432749"><ele>670.6666666666666</ele><time>2026-04-24T12:43:03.001Z</time></trkpt><trkpt lat="44.811092625464454" lon="9.253620264870289"><ele>669.0</ele><time>2026-04-24T12:43:04.001Z</time></trkpt><trkpt lat="44.81119235559092" lon="9.253808136764324"><ele>671.6666666666666</ele><time>2026-04-24T12:43:05.001Z</time></trkpt><trkpt lat="44.81129229945284" lon="9.253986247646738"><ele>674.3333333333333</ele><time>2026-04-24T12:43:06.001Z</time></trkpt><trkpt lat="44.81142834333676" lon="9.25414016227761"><ele>677.0</ele><time>2026-04-24T12:43:07.001Z</time></trkpt><trkpt lat="44.811521128953316" lon="9.254344571779125"><ele>677.0</ele><time>2026-04-24T12:43:08.001Z</time></trkpt><trkpt lat="44.81157798688256" lon="9.254566774559903"><ele>677.0</ele><time>2026-04-24T12:43:09.001Z</time></trkpt><trkpt lat="44.81163478720916" lon="9.254784009681003"><ele>677.0</ele><time>2026-04-24T12:43:10.001Z</time></trkpt><trkpt lat="44.811692158912415" lon="9.255004078960512"><ele>675.3333333333333</ele><time>2026-04-24T12:43:11.001Z</time></trkpt><trkpt lat="44.811756806284194" lon="9.255225605138044"><ele>673.6666666666666</ele><time>2026-04-24T12:43:12.001Z</time></trkpt><trkpt lat="44.811804711713485" lon="9.255466065652557"><ele>672.0</ele><time>2026-04-24T12:43:13Z</time></trkpt><trkpt lat="44.81182854448212" lon="9.255688827498627"><ele>679.0</ele><time>2026-04-24T12:43:14Z</time></trkpt><trkpt lat="44.81183682920412" lon="9.255895249931076"><ele>686.0</ele><time>2026-04-24T12:43:15Z</time></trkpt><trkpt lat="44.81183511324241" lon="9.256105996577006"><ele>693.0</ele><time>2026-04-24T12:43:16Z</time></trkpt><trkpt lat="44.81182972209151" lon="9.256332555468093"><ele>689.0</ele><time>2026-04-24T12:43:17Z</time></trkpt><trkpt lat="44.811820458874955" lon="9.256525415476657"><ele>685.0</ele><time>2026-04-24T12:43:18Z</time></trkpt><trkpt lat="44.811804951786726" lon="9.25671647983094"><ele>681.0</ele><time>2026-04-24T12:43:19Z</time></trkpt><trkpt lat="44.811770436356404" lon="9.256881427813042"><ele>677.0</ele><time>2026-04-24T12:43:20Z</time></trkpt><trkpt lat="44.8117344447924" lon="9.256961370108773"><ele>677.0</ele><time>2026-04-24T12:43:21Z</time></trkpt><trkpt lat="44.8116740363848" lon="9.25703926147405"><ele>677.0</ele><time>2026-04-24T12:43:22Z</time></trkpt><trkpt lat="44.81156088478842" lon="9.25712374079063"><ele>677.0</ele><time>2026-04-24T12:43:23Z</time></trkpt><trkpt lat="44.8114279839632" lon="9.257203597875707"><ele>677.0</ele><time>2026-04-24T12:43:24Z</time></trkpt><trkpt lat="44.81133979433345" lon="9.257329181177708"><ele>678.25</ele><time>2026-04-24T12:43:25Z</time></trkpt><trkpt lat="44.81129159635755" lon="9.257526896180217"><ele>679.5</ele><time>2026-04-24T12:43:26Z</time></trkpt><trkpt lat="44.81128281118959" lon="9.257695407222302"><ele>680.75</ele><time>2026-04-24T12:43:27Z</time></trkpt><trkpt lat="44.81127999398321" lon="9.25788207039089"><ele>682.0</ele><time>2026-04-24T12:43:28Z</time></trkpt><trkpt lat="44.81126651669009" lon="9.258065843307264"><ele>682.75</ele><time>2026-04-24T12:43:29Z</time></trkpt><trkpt lat="44.81123670201671" lon="9.258248079193839"><ele>683.5</ele><time>2026-04-24T12:43:30Z</time></trkpt><trkpt lat="44.81123407428655" lon="9.258470634474161"><ele>684.25</ele><time>2026-04-24T12:43:31Z</time></trkpt><trkpt lat="44.81121173723088" lon="9.258663704940952"><ele>685.0</ele><time>2026-04-24T12:43:32Z</time></trkpt><trkpt lat="44.811225597482775" lon="9.258795510687914"><ele>686.8</ele><time>2026-04-24T12:43:33Z</time></trkpt><trkpt lat="44.81122425609168" lon="9.258972440577908"><ele>688.6</ele><time>2026-04-24T12:43:34Z</time></trkpt><trkpt lat="44.8112035924345" lon="9.259120722509056"><ele>690.4000000000001</ele><time>2026-04-24T12:43:35Z</time></trkpt><trkpt lat="44.811160017807424" lon="9.259228671790321"><ele>692.2</ele><time>2026-04-24T12:43:36Z</time></trkpt><trkpt lat="44.81107941832985" lon="9.25934071395391"><ele>694.0</ele><time>2026-04-24T12:43:37Z</time></trkpt><trkpt lat="44.810976811483656" lon="9.259435771397484"><ele>689.0</ele><time>2026-04-24T12:43:38Z</time></trkpt><trkpt lat="44.810860851688744" lon="9.259501181975322"><ele>684.0</ele><time>2026-04-24T12:43:39Z</time></trkpt><trkpt lat="44.81072765444072" lon="9.25954663273999"><ele>679.0</ele><time>2026-04-24T12:43:40Z</time></trkpt><trkpt lat="44.81058048887994" lon="9.259587862033621"><ele>674.0</ele><time>2026-04-24T12:43:41Z</time></trkpt><trkpt lat="44.81040802028243" lon="9.259673151937697"><ele>674.0</ele><time>2026-04-24T12:43:42Z</time></trkpt><trkpt lat="44.81026290834179" lon="9.259779949573106"><ele>674.0</ele><time>2026-04-24T12:43:43Z</time></trkpt><trkpt lat="44.81012200704007" lon="9.259887888286881"><ele>674.0</ele><time>2026-04-24T12:43:44Z</time></trkpt><trkpt lat="44.80999517764455" lon="9.259984029398233"><ele>675.25</ele><time>2026-04-24T12:43:45Z</time></trkpt><trkpt lat="44.80986457014676" lon="9.260080892914232"><ele>676.5</ele><time>2026-04-24T12:43:46Z</time></trkpt><trkpt lat="44.809730093031625" lon="9.26018073136113"><ele>677.75</ele><time>2026-04-24T12:43:47Z</time></trkpt><trkpt lat="44.80960168623631" lon="9.2602672353637"><ele>679.0</ele><time>2026-04-24T12:43:48Z</time></trkpt><trkpt lat="44.809494015611776" lon="9.26032567074462"><ele>679.0</ele><time>2026-04-24T12:43:49Z</time></trkpt><trkpt lat="44.809394981037784" lon="9.260348671777319"><ele>679.0</ele><time>2026-04-24T12:43:50Z</time></trkpt><trkpt lat="44.8092927046188" lon="9.260345972906997"><ele>679.0</ele><time>2026-04-24T12:43:51Z</time></trkpt><trkpt lat="44.80918051554753" lon="9.260291561444733"><ele>679.0</ele><time>2026-04-24T12:43:52Z</time></trkpt><trkpt lat="44.80906811443215" lon="9.260253339090236"><ele>679.0</ele><time>2026-04-24T12:43:53Z</time></trkpt><trkpt lat="44.80896774842897" lon="9.26025934931388"><ele>680.25</ele><time>2026-04-24T12:43:54Z</time></trkpt><trkpt lat="44.80885640464924" lon="9.260315703227269"><ele>681.5</ele><time>2026-04-24T12:43:55Z</time></trkpt><trkpt lat="44.808790829751956" lon="9.260430799885354"><ele>682.75</ele><time>2026-04-24T12:43:56Z</time></trkpt><trkpt lat="44.808728956386005" lon="9.26057111960247"><ele>684.0</ele><time>2026-04-24T12:43:56.999Z</time></trkpt><trkpt lat="44.80871352055606" lon="9.26073760195421"><ele>684.0</ele><time>2026-04-24T12:43:57.999Z</time></trkpt><trkpt lat="44.80874620006455" lon="9.260904347109792"><ele>684.0</ele><time>2026-04-24T12:43:58.999Z</time></trkpt><trkpt lat="44.808791374608965" lon="9.261091552664158"><ele>684.0</ele><time>2026-04-24T12:43:59.999Z</time></trkpt><trkpt lat="44.8088267443048" lon="9.2613041802067"><ele>684.0</ele><time>2026-04-24T12:44:00.999Z</time></trkpt><trkpt lat="44.8088579123583" lon="9.261513334122036"><ele>683.6666666666666</ele><time>2026-04-24T12:44:01.999Z</time></trkpt><trkpt lat="44.80889328398314" lon="9.26171880985451"><ele>683.3333333333333</ele><time>2026-04-24T12:44:02.999Z</time></trkpt><trkpt lat="44.808961487241525" lon="9.261905918235215"><ele>683.0</ele><time>2026-04-24T12:44:03.999Z</time></trkpt><trkpt lat="44.80901647325574" lon="9.262111114530345"><ele>680.0</ele><time>2026-04-24T12:44:04.999Z</time></trkpt><trkpt lat="44.809100757139035" lon="9.262318277955977"><ele>677.0</ele><time>2026-04-24T12:44:05.999Z</time></trkpt><trkpt lat="44.809185434118035" lon="9.262541437369249"><ele>674.0</ele><time>2026-04-24T12:44:06.999Z</time></trkpt><trkpt lat="44.80930696976821" lon="9.262729377992024"><ele>678.6666666666666</ele><time>2026-04-24T12:44:07.999Z</time></trkpt><trkpt lat="44.809409527794095" lon="9.262925600868034"><ele>683.3333333333334</ele><time>2026-04-24T12:44:08.999Z</time></trkpt><trkpt lat="44.809544366927" lon="9.263070960071103"><ele>688.0</ele><time>2026-04-24T12:44:09.999Z</time></trkpt><trkpt lat="44.809677540470645" lon="9.263188531373228"><ele>688.0</ele><time>2026-04-24T12:44:10.999Z</time></trkpt><trkpt lat="44.80980543855792" lon="9.263310094603584"><ele>688.0</ele><time>2026-04-24T12:44:11.999Z</time></trkpt><trkpt lat="44.809941537683244" lon="9.263398131346896"><ele>688.0</ele><time>2026-04-24T12:44:12.999Z</time></trkpt><trkpt lat="44.810049101034636" lon="9.263486821386252"><ele>688.0</ele><time>2026-04-24T12:44:13.999Z</time></trkpt><trkpt lat="44.81013202460137" lon="9.263633581056807"><ele>690.5</ele><time>2026-04-24T12:44:14.999Z</time></trkpt><trkpt lat="44.81018054635725" lon="9.263761565345144"><ele>693.0</ele><time>2026-04-24T12:44:15.999Z</time></trkpt><trkpt lat="44.81020713398765" lon="9.263889461423608"><ele>695.5</ele><time>2026-04-24T12:44:16.999Z</time></trkpt><trkpt lat="44.81024897260541" lon="9.264073655582829"><ele>698.0</ele><time>2026-04-24T12:44:17.999Z</time></trkpt><trkpt lat="44.810316457651744" lon="9.264258566806134"><ele>698.0</ele><time>2026-04-24T12:44:18.999Z</time></trkpt><trkpt lat="44.810403051250866" lon="9.264424213034411"><ele>698.0</ele><time>2026-04-24T12:44:19.999Z</time></trkpt><trkpt lat="44.810501105848424" lon="9.264564626088957"><ele>698.0</ele><time>2026-04-24T12:44:20.999Z</time></trkpt><trkpt lat="44.81061182540202" lon="9.264697642785094"><ele>698.0</ele><time>2026-04-24T12:44:21.999Z</time></trkpt><trkpt lat="44.8107284609761" lon="9.264830009711945"><ele>695.5</ele><time>2026-04-24T12:44:22.999Z</time></trkpt><trkpt lat="44.81083783489077" lon="9.264963156023278"><ele>693.0</ele><time>2026-04-24T12:44:23.999Z</time></trkpt><trkpt lat="44.81096011355507" lon="9.265102101446447"><ele>690.5</ele><time>2026-04-24T12:44:24.999Z</time></trkpt><trkpt lat="44.81106397961161" lon="9.26523247687391"><ele>688.0</ele><time>2026-04-24T12:44:25.999Z</time></trkpt><trkpt lat="44.81116462059869" lon="9.265331869691671"><ele>689.8</ele><time>2026-04-24T12:44:26.999Z</time></trkpt><trkpt lat="44.81123838944393" lon="9.265408487425793"><ele>691.5999999999999</ele><time>2026-04-24T12:44:27.999Z</time></trkpt><trkpt lat="44.8112820194303" lon="9.265478479482093"><ele>693.4000000000001</ele><time>2026-04-24T12:44:28.999Z</time></trkpt><trkpt lat="44.81128663895735" lon="9.265671341480408"><ele>695.2</ele><time>2026-04-24T12:44:30.999Z</time></trkpt><trkpt lat="44.811241365697136" lon="9.265835854791808"><ele>697.0</ele><time>2026-04-24T12:44:31.999Z</time></trkpt><trkpt lat="44.811158126538736" lon="9.26602510233566"><ele>697.0</ele><time>2026-04-24T12:44:32.999Z</time></trkpt><trkpt lat="44.81106804631216" lon="9.266225044615279"><ele>697.0</ele><time>2026-04-24T12:44:33.999Z</time></trkpt><trkpt lat="44.81098053350263" lon="9.266419288220751"><ele>697.0</ele><time>2026-04-24T12:44:34.999Z</time></trkpt><trkpt lat="44.810892635882176" lon="9.266602005754967"><ele>695.3333333333334</ele><time>2026-04-24T12:44:35.999Z</time></trkpt><trkpt lat="44.810819613755754" lon="9.266790973175933"><ele>693.6666666666666</ele><time>2026-04-24T12:44:36.999Z</time></trkpt><trkpt lat="44.81074137714384" lon="9.266971200187884"><ele>692.0</ele><time>2026-04-24T12:44:37.999Z</time></trkpt><trkpt lat="44.81064296125052" lon="9.267129682717568"><ele>692.0</ele><time>2026-04-24T12:44:38.999Z</time></trkpt><trkpt lat="44.81053662870959" lon="9.26726867430975"><ele>692.0</ele><time>2026-04-24T12:44:39.999Z</time></trkpt><trkpt lat="44.81043806384985" lon="9.267390563475876"><ele>692.0</ele><time>2026-04-24T12:44:40.999Z</time></trkpt><trkpt lat="44.810331533712116" lon="9.26754428989495"><ele>692.0</ele><time>2026-04-24T12:44:41.999Z</time></trkpt><trkpt lat="44.81021149841188" lon="9.267673163055747"><ele>691.0</ele><time>2026-04-24T12:44:42.999Z</time></trkpt><trkpt lat="44.8101141401047" lon="9.267841658974879"><ele>690.0</ele><time>2026-04-24T12:44:43.999Z</time></trkpt><trkpt lat="44.8100171882734" lon="9.268015171657373"><ele>689.0</ele><time>2026-04-24T12:44:44.999Z</time></trkpt><trkpt lat="44.80994476532713" lon="9.268188083729644"><ele>691.5</ele><time>2026-04-24T12:44:45.999Z</time></trkpt><trkpt lat="44.80986836592252" lon="9.268342658186368"><ele>694.0</ele><time>2026-04-24T12:44:46.999Z</time></trkpt><trkpt lat="44.80977980874059" lon="9.268475075136838"><ele>696.5</ele><time>2026-04-24T12:44:47.999Z</time></trkpt><trkpt lat="44.80968608302254" lon="9.268622139271747"><ele>699.0</ele><time>2026-04-24T12:44:48.999Z</time></trkpt><trkpt lat="44.80960354858105" lon="9.268762004842525"><ele>699.0</ele><time>2026-04-24T12:44:49.999Z</time></trkpt><trkpt lat="44.80952035949419" lon="9.268940313720359"><ele>699.0</ele><time>2026-04-24T12:44:50.999Z</time></trkpt><trkpt lat="44.80943401873374" lon="9.269101457748196"><ele>699.0</ele><time>2026-04-24T12:44:51.999Z</time></trkpt><trkpt lat="44.809394836590656" lon="9.269274880822184"><ele>699.0</ele><time>2026-04-24T12:44:52.999Z</time></trkpt><trkpt lat="44.80936856930095" lon="9.269464886626318"><ele>702.0</ele><time>2026-04-24T12:44:53.999Z</time></trkpt><trkpt lat="44.80933950176361" lon="9.269679513327429"><ele>705.0</ele><time>2026-04-24T12:44:54.999Z</time></trkpt><trkpt lat="44.809306330801626" lon="9.269892514157476"><ele>708.0</ele><time>2026-04-24T12:44:55.999Z</time></trkpt><trkpt lat="44.80925102034329" lon="9.270075433854972"><ele>708.0</ele><time>2026-04-24T12:44:56.999Z</time></trkpt><trkpt lat="44.809190482143485" lon="9.270265297389292"><ele>708.0</ele><time>2026-04-24T12:44:57.999Z</time></trkpt><trkpt lat="44.80913758043661" lon="9.270448471561085"><ele>708.0</ele><time>2026-04-24T12:44:58.999Z</time></trkpt><trkpt lat="44.809041905095505" lon="9.270623337876442"><ele>708.0</ele><time>2026-04-24T12:44:59.999Z</time></trkpt><trkpt lat="44.80894356056202" lon="9.27078513676634"><ele>710.0</ele><time>2026-04-24T12:45:00.999Z</time></trkpt><trkpt lat="44.80887962003678" lon="9.270908996740273"><ele>712.0</ele><time>2026-04-24T12:45:01.999Z</time></trkpt><trkpt lat="44.8088282675464" lon="9.271042074468577"><ele>714.0</ele><time>2026-04-24T12:45:02.999Z</time></trkpt><trkpt lat="44.80882659198598" lon="9.271151257312598"><ele>716.0</ele><time>2026-04-24T12:45:03.999Z</time></trkpt><trkpt lat="44.80883332068832" lon="9.271275468011444"><ele>718.0</ele><time>2026-04-24T12:45:04.999Z</time></trkpt><trkpt lat="44.80888503587714" lon="9.271373157875617"><ele>718.0</ele><time>2026-04-24T12:45:05.999Z</time></trkpt><trkpt lat="44.80896558321986" lon="9.271399378304888"><ele>718.0</ele><time>2026-04-24T12:45:06.999Z</time></trkpt><trkpt lat="44.809059953318375" lon="9.271432152956127"><ele>718.0</ele><time>2026-04-24T12:45:07.999Z</time></trkpt><trkpt lat="44.80919412593349" lon="9.271331832985979"><ele>718.0</ele><time>2026-04-24T12:45:08.999Z</time></trkpt><trkpt lat="44.8092632927954" lon="9.271209433020136"><ele>718.0</ele><time>2026-04-24T12:45:09.999Z</time></trkpt><trkpt lat="44.80933940092562" lon="9.271085429241186"><ele>720.0</ele><time>2026-04-24T12:45:10.999Z</time></trkpt><trkpt lat="44.80942356293808" lon="9.27095953812446"><ele>722.0</ele><time>2026-04-24T12:45:11.999Z</time></trkpt><trkpt lat="44.809536165614105" lon="9.270825631469135"><ele>724.0</ele><time>2026-04-24T12:45:12.999Z</time></trkpt><trkpt lat="44.809638790381506" lon="9.270682106479063"><ele>726.0</ele><time>2026-04-24T12:45:13.999Z</time></trkpt><trkpt lat="44.809726095983805" lon="9.270542673207702"><ele>726.0</ele><time>2026-04-24T12:45:14.999Z</time></trkpt><trkpt lat="44.80981919007504" lon="9.27041961126834"><ele>726.0</ele><time>2026-04-24T12:45:15.999Z</time></trkpt><trkpt lat="44.80987666290407" lon="9.270252305203027"><ele>726.0</ele><time>2026-04-24T12:45:16.999Z</time></trkpt><trkpt lat="44.80995691899378" lon="9.270146442171045"><ele>726.0</ele><time>2026-04-24T12:45:17.999Z</time></trkpt><trkpt lat="44.810030032146074" lon="9.2700880696554"><ele>726.0</ele><time>2026-04-24T12:45:18.999Z</time></trkpt><trkpt lat="44.810096091649406" lon="9.270149356153457"><ele>726.0</ele><time>2026-04-24T12:45:20.999Z</time></trkpt><trkpt lat="44.810117093483335" lon="9.270248170588626"><ele>726.0</ele><time>2026-04-24T12:45:23.999Z</time></trkpt><trkpt lat="44.810089405772885" lon="9.270485940774508"><ele>726.0</ele><time>2026-04-24T12:45:24.999Z</time></trkpt><trkpt lat="44.80994578834571" lon="9.27064935869507"><ele>729.3333333333334</ele><time>2026-04-24T12:45:25.999Z</time></trkpt><trkpt lat="44.80984366527625" lon="9.270893857810533"><ele>732.6666666666667</ele><time>2026-04-24T12:45:26.999Z</time></trkpt><trkpt lat="44.809795968401" lon="9.271116091616411"><ele>736.0</ele><time>2026-04-24T12:45:27.999Z</time></trkpt><trkpt lat="44.80978945421263" lon="9.271344314995845"><ele>738.3333333333334</ele><time>2026-04-24T12:45:28.999Z</time></trkpt><trkpt lat="44.809796695980786" lon="9.271583214794479"><ele>740.6666666666666</ele><time>2026-04-24T12:45:29.999Z</time></trkpt><trkpt lat="44.809819341253764" lon="9.271850247517515"><ele>743.0</ele><time>2026-04-24T12:45:30.999Z</time></trkpt><trkpt lat="44.80987128658754" lon="9.272118790815954"><ele>743.0</ele><time>2026-04-24T12:45:31.999Z</time></trkpt><trkpt lat="44.80989990987235" lon="9.27239678144416"><ele>743.0</ele><time>2026-04-24T12:45:32.999Z</time></trkpt><trkpt lat="44.80992986463916" lon="9.272672757351442"><ele>743.0</ele><time>2026-04-24T12:45:33.999Z</time></trkpt><trkpt lat="44.80995921118681" lon="9.272928911196864"><ele>743.5</ele><time>2026-04-24T12:45:34.999Z</time></trkpt><trkpt lat="44.80997285839987" lon="9.273158136801147"><ele>744.0</ele><time>2026-04-24T12:45:35.999Z</time></trkpt><trkpt lat="44.809983904514894" lon="9.273342082044497"><ele>744.5</ele><time>2026-04-24T12:45:36.999Z</time></trkpt><trkpt lat="44.80999531037917" lon="9.27346840554897"><ele>745.0</ele><time>2026-04-24T12:45:37.998Z</time></trkpt><trkpt lat="44.8100867345516" lon="9.27358063321731"><ele>748.8</ele><time>2026-04-24T12:45:39.998Z</time></trkpt><trkpt lat="44.81020894290306" lon="9.273482726484328"><ele>752.6</ele><time>2026-04-24T12:45:41.998Z</time></trkpt><trkpt lat="44.81023847690922" lon="9.273369428712787"><ele>756.4000000000001</ele><time>2026-04-24T12:45:42.998Z</time></trkpt><trkpt lat="44.810246127582005" lon="9.273223384555015"><ele>760.2</ele><time>2026-04-24T12:45:43.998Z</time></trkpt><trkpt lat="44.81027623297598" lon="9.27307443432136"><ele>764.0</ele><time>2026-04-24T12:45:44.998Z</time></trkpt><trkpt lat="44.81031494732461" lon="9.272972409850196"><ele>764.0</ele><time>2026-04-24T12:45:45.998Z</time></trkpt><trkpt lat="44.81037957176402" lon="9.272882984935642"><ele>764.0</ele><time>2026-04-24T12:45:46.998Z</time></trkpt><trkpt lat="44.810490462929465" lon="9.272756454733651"><ele>764.0</ele><time>2026-04-24T12:45:47.998Z</time></trkpt><trkpt lat="44.81059744024706" lon="9.272634195678592"><ele>764.0</ele><time>2026-04-24T12:45:48.998Z</time></trkpt><trkpt lat="44.810683002577825" lon="9.27246435437916"><ele>762.6666666666666</ele><time>2026-04-24T12:45:49.998Z</time></trkpt><trkpt lat="44.810763814886045" lon="9.27227290490586"><ele>761.3333333333334</ele><time>2026-04-24T12:45:50.998Z</time></trkpt><trkpt lat="44.81081899202797" lon="9.27205016724122"><ele>760.0</ele><time>2026-04-24T12:45:51.998Z</time></trkpt><trkpt lat="44.810862566348206" lon="9.271831285487812"><ele>760.0</ele><time>2026-04-24T12:45:52.998Z</time></trkpt><trkpt lat="44.81095388946894" lon="9.271652458306232"><ele>760.0</ele><time>2026-04-24T12:45:53.998Z</time></trkpt><trkpt lat="44.81105330234497" lon="9.271475542408682"><ele>760.0</ele><time>2026-04-24T12:45:54.998Z</time></trkpt><trkpt lat="44.81117463748121" lon="9.271302405234552"><ele>762.3333333333334</ele><time>2026-04-24T12:45:55.998Z</time></trkpt><trkpt lat="44.81130508436711" lon="9.271136286221502"><ele>764.6666666666666</ele><time>2026-04-24T12:45:56.998Z</time></trkpt><trkpt lat="44.81142910137179" lon="9.270988270227416"><ele>767.0</ele><time>2026-04-24T12:45:57.998Z</time></trkpt><trkpt lat="44.8115359518976" lon="9.270862855452991"><ele>767.0</ele><time>2026-04-24T12:45:58.998Z</time></trkpt><trkpt lat="44.81163732257317" lon="9.270745298433143"><ele>767.0</ele><time>2026-04-24T12:45:59.998Z</time></trkpt><trkpt lat="44.81172637429006" lon="9.27066208246021"><ele>767.0</ele><time>2026-04-24T12:46:00.998Z</time></trkpt><trkpt lat="44.81181245013269" lon="9.27063090734513"><ele>767.0</ele><time>2026-04-24T12:46:01.998Z</time></trkpt><trkpt lat="44.81186962892536" lon="9.2706725056574"><ele>767.0</ele><time>2026-04-24T12:46:02.998Z</time></trkpt><trkpt lat="44.81186594592142" lon="9.270769701201734"><ele>767.0</ele><time>2026-04-24T12:46:03.998Z</time></trkpt><trkpt lat="44.81185358869815" lon="9.270930850308233"><ele>767.0</ele><time>2026-04-24T12:46:05.998Z</time></trkpt><trkpt lat="44.81178169515022" lon="9.271122231900527"><ele>767.0</ele><time>2026-04-24T12:46:06.998Z</time></trkpt><trkpt lat="44.81171821970876" lon="9.271367156335735"><ele>769.6666666666666</ele><time>2026-04-24T12:46:07.998Z</time></trkpt><trkpt lat="44.81167296856581" lon="9.2716644806176"><ele>772.3333333333333</ele><time>2026-04-24T12:46:08.998Z</time></trkpt><trkpt lat="44.81166590445029" lon="9.271982911007301"><ele>775.0</ele><time>2026-04-24T12:46:09.998Z</time></trkpt><trkpt lat="44.81163228888759" lon="9.272336616902958"><ele>778.0</ele><time>2026-04-24T12:46:10.998Z</time></trkpt><trkpt lat="44.81161911365589" lon="9.272701980135098"><ele>781.0</ele><time>2026-04-24T12:46:11.998Z</time></trkpt><trkpt lat="44.811584156843736" lon="9.273074191680177"><ele>783.0</ele><time>2026-04-24T12:46:12.998Z</time></trkpt><trkpt lat="44.811564104658125" lon="9.273444738509873"><ele>785.0</ele><time>2026-04-24T12:46:13.998Z</time></trkpt><trkpt lat="44.811564271606436" lon="9.273769650492344"><ele>787.3333333333334</ele><time>2026-04-24T12:46:14.998Z</time></trkpt><trkpt lat="44.81156905849553" lon="9.274086210439473"><ele>789.6666666666667</ele><time>2026-04-24T12:46:15.998Z</time></trkpt><trkpt lat="44.811569544267755" lon="9.274363641954114"><ele>792.0</ele><time>2026-04-24T12:46:16.998Z</time></trkpt><trkpt lat="44.81157124073555" lon="9.274593437057815"><ele>793.25</ele><time>2026-04-24T12:46:17.998Z</time></trkpt><trkpt lat="44.81158495938712" lon="9.274793309046336"><ele>794.5</ele><time>2026-04-24T12:46:18.998Z</time></trkpt><trkpt lat="44.81162366151572" lon="9.274954879542156"><ele>795.75</ele><time>2026-04-24T12:46:19.998Z</time></trkpt><trkpt lat="44.81167010099545" lon="9.275079513947171"><ele>797.0</ele><time>2026-04-24T12:46:20.998Z</time></trkpt><trkpt lat="44.81178271579749" lon="9.275161862788078"><ele>797.2</ele><time>2026-04-24T12:46:21.998Z</time></trkpt><trkpt lat="44.81184204597481" lon="9.275296667274791"><ele>797.4000000000001</ele><time>2026-04-24T12:46:22.998Z</time></trkpt><trkpt lat="44.811846165560766" lon="9.275398145384449"><ele>797.5999999999999</ele><time>2026-04-24T12:46:23.998Z</time></trkpt><trkpt lat="44.811838620720586" lon="9.275524596763427"><ele>797.8</ele><time>2026-04-24T12:46:24.998Z</time></trkpt><trkpt lat="44.81180790505622" lon="9.275681407410177"><ele>798.0</ele><time>2026-04-24T12:46:25.998Z</time></trkpt><trkpt lat="44.81176675220979" lon="9.275846925691098"><ele>798.0</ele><time>2026-04-24T12:46:26.998Z</time></trkpt><trkpt lat="44.811727466784866" lon="9.276006200435344"><ele>798.0</ele><time>2026-04-24T12:46:27.998Z</time></trkpt><trkpt lat="44.81170517409729" lon="9.276225827483712"><ele>798.0</ele><time>2026-04-24T12:46:28.998Z</time></trkpt><trkpt lat="44.811757378728586" lon="9.27643455208181"><ele>798.0</ele><time>2026-04-24T12:46:29.998Z</time></trkpt><trkpt lat="44.81181693222627" lon="9.276609119576586"><ele>808.0</ele><time>2026-04-24T12:46:30.998Z</time></trkpt><trkpt lat="44.81186261885598" lon="9.276795998194755"><ele>818.0</ele><time>2026-04-24T12:46:31.998Z</time></trkpt><trkpt lat="44.81189726127977" lon="9.277008749525386"><ele>828.0</ele><time>2026-04-24T12:46:32.998Z</time></trkpt><trkpt lat="44.81191713655361" lon="9.27723178000273"><ele>829.0</ele><time>2026-04-24T12:46:33.998Z</time></trkpt><trkpt lat="44.811930156428" lon="9.27746922872273"><ele>830.0</ele><time>2026-04-24T12:46:34.998Z</time></trkpt><trkpt lat="44.81194040037885" lon="9.277710430366009"><ele>831.0</ele><time>2026-04-24T12:46:35.998Z</time></trkpt><trkpt lat="44.81195062020582" lon="9.277951063998948"><ele>833.0</ele><time>2026-04-24T12:46:36.998Z</time></trkpt><trkpt lat="44.81196780808115" lon="9.27817953913754"><ele>835.0</ele><time>2026-04-24T12:46:37.998Z</time></trkpt><trkpt lat="44.812004046142235" lon="9.278374565657664"><ele>837.0</ele><time>2026-04-24T12:46:38.998Z</time></trkpt><trkpt lat="44.812073360436514" lon="9.27855776542048"><ele>837.0</ele><time>2026-04-24T12:46:39.998Z</time></trkpt><trkpt lat="44.81214835907433" lon="9.278727225636212"><ele>837.0</ele><time>2026-04-24T12:46:40.998Z</time></trkpt><trkpt lat="44.81219776965931" lon="9.278897205531258"><ele>837.0</ele><time>2026-04-24T12:46:41.998Z</time></trkpt><trkpt lat="44.81222363461871" lon="9.279038377535095"><ele>837.0</ele><time>2026-04-24T12:46:42.998Z</time></trkpt><trkpt lat="44.812199650460514" lon="9.279161561972971"><ele>838.0</ele><time>2026-04-24T12:46:43.998Z</time></trkpt><trkpt lat="44.81214681889499" lon="9.279319984559905"><ele>839.0</ele><time>2026-04-24T12:46:44.998Z</time></trkpt><trkpt lat="44.812093387321816" lon="9.279528952027743"><ele>840.0</ele><time>2026-04-24T12:46:45.998Z</time></trkpt><trkpt lat="44.81209651213132" lon="9.279736067051557"><ele>841.0</ele><time>2026-04-24T12:46:46.998Z</time></trkpt><trkpt lat="44.81211080892385" lon="9.27997086289372"><ele>842.3333333333333</ele><time>2026-04-24T12:46:47.998Z</time></trkpt><trkpt lat="44.81215370021757" lon="9.280192295083971"><ele>843.6666666666667</ele><time>2026-04-24T12:46:48.998Z</time></trkpt><trkpt lat="44.81222124150673" lon="9.280401525420942"><ele>845.0</ele><time>2026-04-24T12:46:49.998Z</time></trkpt><trkpt lat="44.812280089458106" lon="9.280632725777375"><ele>845.0</ele><time>2026-04-24T12:46:50.998Z</time></trkpt><trkpt lat="44.81233194407237" lon="9.280866632983422"><ele>845.0</ele><time>2026-04-24T12:46:51.998Z</time></trkpt><trkpt lat="44.812400934976175" lon="9.281091054741943"><ele>845.0</ele><time>2026-04-24T12:46:52.998Z</time></trkpt><trkpt lat="44.81246966795925" lon="9.281306393755854"><ele>842.75</ele><time>2026-04-24T12:46:53.998Z</time></trkpt><trkpt lat="44.81251950473247" lon="9.281529170812055"><ele>840.5</ele><time>2026-04-24T12:46:54.998Z</time></trkpt><trkpt lat="44.812553563021055" lon="9.28172753545287"><ele>838.25</ele><time>2026-04-24T12:46:55.998Z</time></trkpt><trkpt lat="44.812580235408014" lon="9.281894937936105"><ele>836.0</ele><time>2026-04-24T12:46:56.998Z</time></trkpt><trkpt lat="44.81261927389526" lon="9.28206011918619"><ele>840.5999999999999</ele><time>2026-04-24T12:46:57.998Z</time></trkpt><trkpt lat="44.81266296755113" lon="9.282188164664701"><ele>845.2</ele><time>2026-04-24T12:46:58.998Z</time></trkpt><trkpt lat="44.812730655815265" lon="9.282214601293436"><ele>849.8000000000001</ele><time>2026-04-24T12:46:59.998Z</time></trkpt><trkpt lat="44.81282336511787" lon="9.282263311577681"><ele>854.4000000000001</ele><time>2026-04-24T12:47:00.998Z</time></trkpt><trkpt lat="44.812983995311036" lon="9.282290576892649"><ele>859.0</ele><time>2026-04-24T12:47:01.998Z</time></trkpt><trkpt lat="44.81313458013439" lon="9.282347303172418"><ele>859.0</ele><time>2026-04-24T12:47:02.998Z</time></trkpt><trkpt lat="44.813263888463595" lon="9.282419840295672"><ele>859.0</ele><time>2026-04-24T12:47:03.998Z</time></trkpt><trkpt lat="44.81340577527475" lon="9.282421100754432"><ele>859.0</ele><time>2026-04-24T12:47:04.998Z</time></trkpt><trkpt lat="44.81353786435959" lon="9.282371216170919"><ele>859.0</ele><time>2026-04-24T12:47:05.998Z</time></trkpt><trkpt lat="44.81365763835848" lon="9.28234171957272"><ele>861.2</ele><time>2026-04-24T12:47:06.998Z</time></trkpt><trkpt lat="44.813780915650646" lon="9.28234871321147"><ele>863.4000000000001</ele><time>2026-04-24T12:47:07.998Z</time></trkpt><trkpt lat="44.81390465117681" lon="9.282378312730879"><ele>865.6</ele><time>2026-04-24T12:47:08.998Z</time></trkpt><trkpt lat="44.81399812810369" lon="9.282408105845851"><ele>867.8</ele><time>2026-04-24T12:47:09.998Z</time></trkpt><trkpt lat="44.81405251277799" lon="9.28247396486401"><ele>870.0</ele><time>2026-04-24T12:47:10.998Z</time></trkpt><trkpt lat="44.81409490385913" lon="9.282617552957293"><ele>870.0</ele><time>2026-04-24T12:47:12.998Z</time></trkpt><trkpt lat="44.8140561407742" lon="9.28270786726648"><ele>870.0</ele><time>2026-04-24T12:47:13.998Z</time></trkpt><trkpt lat="44.81397192508826" lon="9.28272558979146"><ele>870.0</ele><time>2026-04-24T12:47:14.998Z</time></trkpt><trkpt lat="44.81384415878957" lon="9.282716025963131"><ele>870.0</ele><time>2026-04-24T12:47:15.998Z</time></trkpt><trkpt lat="44.81366680062461" lon="9.282798754636763"><ele>870.0</ele><time>2026-04-24T12:47:16.998Z</time></trkpt><trkpt lat="44.813512631899" lon="9.282884508433503"><ele>870.0</ele><time>2026-04-24T12:47:17.998Z</time></trkpt><trkpt lat="44.813374968183645" lon="9.282939088046883"><ele>870.0</ele><time>2026-04-24T12:47:18.998Z</time></trkpt><trkpt lat="44.81324290163567" lon="9.282989471001834"><ele>870.0</ele><time>2026-04-24T12:47:19.998Z</time></trkpt><trkpt lat="44.81313159824681" lon="9.283084907833342"><ele>873.75</ele><time>2026-04-24T12:47:20.998Z</time></trkpt><trkpt lat="44.81303230734479" lon="9.283215120860842"><ele>877.5</ele><time>2026-04-24T12:47:21.998Z</time></trkpt><trkpt lat="44.8129769060735" lon="9.283396445673961"><ele>881.25</ele><time>2026-04-24T12:47:22.998Z</time></trkpt><trkpt lat="44.812887401836285" lon="9.28355195223814"><ele>885.0</ele><time>2026-04-24T12:47:23.998Z</time></trkpt><trkpt lat="44.81278659864863" lon="9.283710675857987"><ele>885.0</ele><time>2026-04-24T12:47:24.998Z</time></trkpt><trkpt lat="44.81270496077334" lon="9.283892352104818"><ele>885.0</ele><time>2026-04-24T12:47:25.998Z</time></trkpt><trkpt lat="44.812623905277164" lon="9.284066207214059"><ele>885.0</ele><time>2026-04-24T12:47:26.998Z</time></trkpt><trkpt lat="44.81255618322426" lon="9.284259272208917"><ele>882.5</ele><time>2026-04-24T12:47:27.998Z</time></trkpt><trkpt lat="44.81248799896449" lon="9.284460888854689"><ele>880.0</ele><time>2026-04-24T12:47:28.998Z</time></trkpt><trkpt lat="44.81240247349221" lon="9.284620644433858"><ele>877.5</ele><time>2026-04-24T12:47:29.998Z</time></trkpt><trkpt lat="44.812334563233605" lon="9.284770271212594"><ele>875.0</ele><time>2026-04-24T12:47:30.998Z</time></trkpt><trkpt lat="44.81226503952449" lon="9.284924428524466"><ele>879.0</ele><time>2026-04-24T12:47:31.998Z</time></trkpt><trkpt lat="44.81220196417624" lon="9.285067470431356"><ele>883.0</ele><time>2026-04-24T12:47:32.998Z</time></trkpt><trkpt lat="44.812130819577156" lon="9.285179850926713"><ele>887.0</ele><time>2026-04-24T12:47:33.998Z</time></trkpt><trkpt lat="44.81202269064435" lon="9.285213304826494"><ele>891.0</ele><time>2026-04-24T12:47:34.998Z</time></trkpt><trkpt lat="44.811937025288245" lon="9.285269893899585"><ele>895.0</ele><time>2026-04-24T12:47:35.998Z</time></trkpt><trkpt lat="44.81186127010592" lon="9.285349983757554"><ele>894.0</ele><time>2026-04-24T12:47:36.998Z</time></trkpt><trkpt lat="44.81181443053283" lon="9.285454791610965"><ele>893.0</ele><time>2026-04-24T12:47:37.998Z</time></trkpt><trkpt lat="44.811823094312025" lon="9.285601729772717"><ele>892.0</ele><time>2026-04-24T12:47:38.998Z</time></trkpt><trkpt lat="44.811828577655184" lon="9.285754288930871"><ele>891.0</ele><time>2026-04-24T12:47:39.998Z</time></trkpt><trkpt lat="44.81184969844328" lon="9.28591932554403"><ele>890.0</ele><time>2026-04-24T12:47:40.998Z</time></trkpt><trkpt lat="44.81189073896808" lon="9.286113734231328"><ele>896.25</ele><time>2026-04-24T12:47:41.998Z</time></trkpt><trkpt lat="44.81187601089068" lon="9.286308713975501"><ele>902.5</ele><time>2026-04-24T12:47:42.998Z</time></trkpt><trkpt lat="44.81188768599311" lon="9.28647632182385"><ele>908.75</ele><time>2026-04-24T12:47:43.997Z</time></trkpt><trkpt lat="44.811950460419794" lon="9.286634994548104"><ele>915.0</ele><time>2026-04-24T12:47:44.997Z</time></trkpt><trkpt lat="44.8120173272373" lon="9.286768482802733"><ele>916.75</ele><time>2026-04-24T12:47:45.997Z</time></trkpt><trkpt lat="44.81207497741745" lon="9.286944724054095"><ele>918.5</ele><time>2026-04-24T12:47:46.997Z</time></trkpt><trkpt lat="44.81211501420763" lon="9.28712468756617"><ele>920.25</ele><time>2026-04-24T12:47:47.997Z</time></trkpt><trkpt lat="44.812167637953245" lon="9.287310117121326"><ele>922.0</ele><time>2026-04-24T12:47:48.997Z</time></trkpt><trkpt lat="44.81223312210754" lon="9.28744705060424"><ele>921.9999999999999</ele><time>2026-04-24T12:47:49.997Z</time></trkpt><trkpt lat="44.81230071821523" lon="9.287548268135827"><ele>922.0</ele><time>2026-04-24T12:47:50.997Z</time></trkpt><trkpt lat="44.81237060617641" lon="9.28763603920387"><ele>922.0</ele><time>2026-04-24T12:47:51.997Z</time></trkpt><trkpt lat="44.8123974314053" lon="9.287728805298473"><ele>922.0</ele><time>2026-04-24T12:47:52.997Z</time></trkpt><trkpt lat="44.81240612980049" lon="9.287830758023848"><ele>921.9999999999999</ele><time>2026-04-24T12:47:53.997Z</time></trkpt><trkpt lat="44.81237243955756" lon="9.28795165280687"><ele>922.0</ele><time>2026-04-24T12:47:54.997Z</time></trkpt><trkpt lat="44.81231071550023" lon="9.287987454615159"><ele>922.0</ele><time>2026-04-24T12:47:55.997Z</time></trkpt><trkpt lat="44.81226320487202" lon="9.287922512431315"><ele>922.0</ele><time>2026-04-24T12:47:56.997Z</time></trkpt><trkpt lat="44.8122008992785" lon="9.287817008925437"><ele>922.0</ele><time>2026-04-24T12:47:57.997Z</time></trkpt><trkpt lat="44.8121089637962" lon="9.287639506580339"><ele>922.0</ele><time>2026-04-24T12:47:58.997Z</time></trkpt><trkpt lat="44.811993675583956" lon="9.287488263594868"><ele>922.0</ele><time>2026-04-24T12:47:59.997Z</time></trkpt><trkpt lat="44.81188059442284" lon="9.28733107504323"><ele>922.0</ele><time>2026-04-24T12:48:00.997Z</time></trkpt><trkpt lat="44.811804180330746" lon="9.287158394211104"><ele>922.0</ele><time>2026-04-24T12:48:01.997Z</time></trkpt><trkpt lat="44.81173163578542" lon="9.286969561318399"><ele>917.0</ele><time>2026-04-24T12:48:02.997Z</time></trkpt><trkpt lat="44.81163365198567" lon="9.28683556568795"><ele>912.0</ele><time>2026-04-24T12:48:03.997Z</time></trkpt><trkpt lat="44.811512787895026" lon="9.286738222242066"><ele>907.0</ele><time>2026-04-24T12:48:04.997Z</time></trkpt><trkpt lat="44.81137926619826" lon="9.286672708654299"><ele>902.0</ele><time>2026-04-24T12:48:05.997Z</time></trkpt><trkpt lat="44.81126590502472" lon="9.286626276338906"><ele>902.0</ele><time>2026-04-24T12:48:06.997Z</time></trkpt><trkpt lat="44.811152458463354" lon="9.28661819807713"><ele>902.0</ele><time>2026-04-24T12:48:07.997Z</time></trkpt><trkpt lat="44.81105013521947" lon="9.286678130210666"><ele>902.0</ele><time>2026-04-24T12:48:08.997Z</time></trkpt><trkpt lat="44.810948141118594" lon="9.286776741947715"><ele>902.0</ele><time>2026-04-24T12:48:09.997Z</time></trkpt><trkpt lat="44.81085685448046" lon="9.286935257324862"><ele>902.6666666666667</ele><time>2026-04-24T12:48:10.997Z</time></trkpt><trkpt lat="44.81076614744956" lon="9.287101180744132"><ele>903.3333333333333</ele><time>2026-04-24T12:48:11.997Z</time></trkpt><trkpt lat="44.81063876157902" lon="9.287224047012293"><ele>904.0</ele><time>2026-04-24T12:48:12.997Z</time></trkpt><trkpt lat="44.81051499101054" lon="9.287341828246314"><ele>906.0</ele><time>2026-04-24T12:48:13.997Z</time></trkpt><trkpt lat="44.81037326997996" lon="9.287441968785506"><ele>908.0</ele><time>2026-04-24T12:48:14.997Z</time></trkpt><trkpt lat="44.81023908716309" lon="9.287541064606348"><ele>910.0</ele><time>2026-04-24T12:48:15.997Z</time></trkpt><trkpt lat="44.81010172776285" lon="9.28766515860334"><ele>910.0</ele><time>2026-04-24T12:48:16.997Z</time></trkpt><trkpt lat="44.8099716391355" lon="9.287790018813348"><ele>910.0</ele><time>2026-04-24T12:48:17.997Z</time></trkpt><trkpt lat="44.80984272099524" lon="9.287924128989733"><ele>910.0</ele><time>2026-04-24T12:48:18.997Z</time></trkpt><trkpt lat="44.80971268719686" lon="9.28806679280316"><ele>918.6666666666666</ele><time>2026-04-24T12:48:19.997Z</time></trkpt><trkpt lat="44.809601629832635" lon="9.288218507880185"><ele>927.3333333333333</ele><time>2026-04-24T12:48:20.997Z</time></trkpt><trkpt lat="44.809495117636374" lon="9.288373320245794"><ele>936.0</ele><time>2026-04-24T12:48:21.997Z</time></trkpt><trkpt lat="44.80941623019055" lon="9.288541122146851"><ele>936.0</ele><time>2026-04-24T12:48:22.997Z</time></trkpt><trkpt lat="44.80934013772451" lon="9.288683692135432"><ele>936.0</ele><time>2026-04-24T12:48:23.997Z</time></trkpt><trkpt lat="44.809264228780975" lon="9.288820722032934"><ele>936.0</ele><time>2026-04-24T12:48:24.997Z</time></trkpt><trkpt lat="44.809202911815596" lon="9.288949400955488"><ele>936.0</ele><time>2026-04-24T12:48:25.997Z</time></trkpt><trkpt lat="44.809157673081096" lon="9.28910681500631"><ele>935.5999999999999</ele><time>2026-04-24T12:48:26.997Z</time></trkpt><trkpt lat="44.809132470351486" lon="9.289277495919162"><ele>935.1999999999999</ele><time>2026-04-24T12:48:27.997Z</time></trkpt><trkpt lat="44.809118394020096" lon="9.289439260739753"><ele>934.8000000000001</ele><time>2026-04-24T12:48:28.997Z</time></trkpt><trkpt lat="44.809120887269025" lon="9.289577858953658"><ele>934.4000000000001</ele><time>2026-04-24T12:48:29.997Z</time></trkpt><trkpt lat="44.809115039285025" lon="9.289698679876391"><ele>934.0</ele><time>2026-04-24T12:48:30.997Z</time></trkpt><trkpt lat="44.809161967915074" lon="9.289838704890283"><ele>934.0</ele><time>2026-04-24T12:48:31.997Z</time></trkpt><trkpt lat="44.80919218933999" lon="9.289927252516422"><ele>934.0000000000001</ele><time>2026-04-24T12:48:32.997Z</time></trkpt><trkpt lat="44.80927196692298" lon="9.28996188979613"><ele>934.0000000000001</ele><time>2026-04-24T12:48:33.997Z</time></trkpt><trkpt lat="44.809402585229584" lon="9.28993597741739"><ele>934.0</ele><time>2026-04-24T12:48:34.997Z</time></trkpt><trkpt lat="44.80947358442624" lon="9.289769359801923"><ele>934.0</ele><time>2026-04-24T12:48:35.997Z</time></trkpt><trkpt lat="44.80948254526304" lon="9.289592023954917"><ele>937.6</ele><time>2026-04-24T12:48:36.997Z</time></trkpt><trkpt lat="44.80946573334316" lon="9.28943778791772"><ele>941.2</ele><time>2026-04-24T12:48:37.997Z</time></trkpt><trkpt lat="44.80947075647904" lon="9.289292614341909"><ele>944.8000000000001</ele><time>2026-04-24T12:48:38.997Z</time></trkpt><trkpt lat="44.80951033684673" lon="9.289180741971169"><ele>948.4000000000001</ele><time>2026-04-24T12:48:39.997Z</time></trkpt><trkpt lat="44.809568338932415" lon="9.289109206205957"><ele>952.0</ele><time>2026-04-24T12:48:40.997Z</time></trkpt><trkpt lat="44.809661916032724" lon="9.28899424439811"><ele>948.0</ele><time>2026-04-24T12:48:41.997Z</time></trkpt><trkpt lat="44.809764900240566" lon="9.288874824622976"><ele>944.0</ele><time>2026-04-24T12:48:42.997Z</time></trkpt><trkpt lat="44.80988202591544" lon="9.288747354571042"><ele>940.0</ele><time>2026-04-24T12:48:43.997Z</time></trkpt><trkpt lat="44.80999541611827" lon="9.288601700962431"><ele>936.0</ele><time>2026-04-24T12:48:44.997Z</time></trkpt><trkpt lat="44.81012846650891" lon="9.288496795247477"><ele>938.8</ele><time>2026-04-24T12:48:45.997Z</time></trkpt><trkpt lat="44.81025455219211" lon="9.288393284298305"><ele>941.5999999999999</ele><time>2026-04-24T12:48:46.997Z</time></trkpt><trkpt lat="44.8103656946423" lon="9.28831880034884"><ele>944.4</ele><time>2026-04-24T12:48:47.997Z</time></trkpt><trkpt lat="44.810447476838014" lon="9.288278097837928"><ele>947.2</ele><time>2026-04-24T12:48:48.997Z</time></trkpt><trkpt lat="44.81051925630391" lon="9.288245977981923"><ele>950.0</ele><time>2026-04-24T12:48:49.997Z</time></trkpt><trkpt lat="44.810645949432754" lon="9.288195242198636"><ele>950.0</ele><time>2026-04-24T12:48:51.997Z</time></trkpt><trkpt lat="44.81071425019281" lon="9.288246038626834"><ele>950.0</ele><time>2026-04-24T12:48:52.997Z</time></trkpt><trkpt lat="44.81080599353844" lon="9.288317775414859"><ele>950.0</ele><time>2026-04-24T12:48:53.997Z</time></trkpt><trkpt lat="44.81087077760247" lon="9.288444810227947"><ele>950.0</ele><time>2026-04-24T12:48:54.997Z</time></trkpt><trkpt lat="44.810932779050454" lon="9.28853169180017"><ele>950.0</ele><time>2026-04-24T12:48:55.997Z</time></trkpt><trkpt lat="44.81095057865669" lon="9.288643870903725"><ele>950.0</ele><time>2026-04-24T12:48:56.997Z</time></trkpt><trkpt lat="44.81096235962909" lon="9.288739132423732"><ele>950.0</ele><time>2026-04-24T12:48:57.997Z</time></trkpt><trkpt lat="44.810844277557315" lon="9.288765058576136"><ele>950.0</ele><time>2026-04-24T12:49:00.997Z</time></trkpt><trkpt lat="44.81073311348148" lon="9.288759611247755"><ele>950.0</ele><time>2026-04-24T12:49:01.997Z</time></trkpt><trkpt lat="44.810627740078196" lon="9.288717686692127"><ele>950.0</ele><time>2026-04-24T12:49:02.997Z</time></trkpt><trkpt lat="44.81046809552991" lon="9.288756321013"><ele>950.0</ele><time>2026-04-24T12:49:03.997Z</time></trkpt><trkpt lat="44.81033865750395" lon="9.288891653671742"><ele>950.0</ele><time>2026-04-24T12:49:04.997Z</time></trkpt><trkpt lat="44.810246230499196" lon="9.289059127380707"><ele>950.0</ele><time>2026-04-24T12:49:05.997Z</time></trkpt><trkpt lat="44.81016541500114" lon="9.289252800376282"><ele>950.5</ele><time>2026-04-24T12:49:06.997Z</time></trkpt><trkpt lat="44.81011106134502" lon="9.289428005313042"><ele>951.0</ele><time>2026-04-24T12:49:07.997Z</time></trkpt><trkpt lat="44.81005947359453" lon="9.289607672183914"><ele>951.5</ele><time>2026-04-24T12:49:08.997Z</time></trkpt><trkpt lat="44.81002818383747" lon="9.289792142455209"><ele>952.0</ele><time>2026-04-24T12:49:09.997Z</time></trkpt><trkpt lat="44.81001831078666" lon="9.289963506411913"><ele>954.5</ele><time>2026-04-24T12:49:10.997Z</time></trkpt><trkpt lat="44.809980696967386" lon="9.290113723175825"><ele>957.0</ele><time>2026-04-24T12:49:11.997Z</time></trkpt><trkpt lat="44.809937740549" lon="9.290256242255838"><ele>959.5</ele><time>2026-04-24T12:49:12.997Z</time></trkpt><trkpt lat="44.80986812205739" lon="9.290375469707026"><ele>962.0</ele><time>2026-04-24T12:49:13.997Z</time></trkpt><trkpt lat="44.809833464992955" lon="9.290539163103087"><ele>964.0</ele><time>2026-04-24T12:49:14.997Z</time></trkpt><trkpt lat="44.80986800832627" lon="9.29068489847706"><ele>966.0</ele><time>2026-04-24T12:49:15.997Z</time></trkpt><trkpt lat="44.809943348978685" lon="9.29078248874072"><ele>968.0</ele><time>2026-04-24T12:49:16.997Z</time></trkpt><trkpt lat="44.8100165334371" lon="9.290861518876937"><ele>970.0</ele><time>2026-04-24T12:49:17.997Z</time></trkpt><trkpt lat="44.8100846769423" lon="9.29092468873689"><ele>972.0</ele><time>2026-04-24T12:49:18.997Z</time></trkpt><trkpt lat="44.81012453864057" lon="9.291011182352248"><ele>972.0</ele><time>2026-04-24T12:49:19.997Z</time></trkpt><trkpt lat="44.810136404696635" lon="9.291110242353136"><ele>972.0</ele><time>2026-04-24T12:49:20.997Z</time></trkpt><trkpt lat="44.810072559665294" lon="9.291176844348294"><ele>972.0</ele><time>2026-04-24T12:49:21.997Z</time></trkpt><trkpt lat="44.80997837234697" lon="9.291254284926362"><ele>972.0</ele><time>2026-04-24T12:49:22.997Z</time></trkpt><trkpt lat="44.809865256578334" lon="9.291378106808526"><ele>972.0</ele><time>2026-04-24T12:49:23.997Z</time></trkpt><trkpt lat="44.809782640254" lon="9.291537895644442"><ele>973.5</ele><time>2026-04-24T12:49:24.997Z</time></trkpt><trkpt lat="44.80972411227135" lon="9.291715855985178"><ele>975.0</ele><time>2026-04-24T12:49:25.997Z</time></trkpt><trkpt lat="44.80972597047534" lon="9.29191986654628"><ele>976.5</ele><time>2026-04-24T12:49:26.997Z</time></trkpt><trkpt lat="44.809731827730545" lon="9.292149564773242"><ele>978.0</ele><time>2026-04-24T12:49:27.997Z</time></trkpt><trkpt lat="44.809725914551876" lon="9.292396749742068"><ele>981.6666666666667</ele><time>2026-04-24T12:49:28.997Z</time></trkpt><trkpt lat="44.80971321745381" lon="9.29264588725911"><ele>985.3333333333334</ele><time>2026-04-24T12:49:29.997Z</time></trkpt><trkpt lat="44.80969729861367" lon="9.292899113047888"><ele>989.0</ele><time>2026-04-24T12:49:30.997Z</time></trkpt><trkpt lat="44.80968606337388" lon="9.29316701840472"><ele>992.0</ele><time>2026-04-24T12:49:31.997Z</time></trkpt><trkpt lat="44.80969266835911" lon="9.293398451241739"><ele>995.0</ele><time>2026-04-24T12:49:32.997Z</time></trkpt><trkpt lat="44.809690670582384" lon="9.293593145450377"><ele>998.0</ele><time>2026-04-24T12:49:33.997Z</time></trkpt><trkpt lat="44.809686678719295" lon="9.293757949403693"><ele>1001.0</ele><time>2026-04-24T12:49:34.997Z</time></trkpt><trkpt lat="44.809682801426824" lon="9.293909623810196"><ele>1003.1999999999999</ele><time>2026-04-24T12:49:35.997Z</time></trkpt><trkpt lat="44.80968033017723" lon="9.294032029483548"><ele>1005.3999999999999</ele><time>2026-04-24T12:49:36.997Z</time></trkpt><trkpt lat="44.80967432169851" lon="9.29418026248044"><ele>1007.6</ele><time>2026-04-24T12:49:37.996Z</time></trkpt><trkpt lat="44.809619448956866" lon="9.29429600646791"><ele>1009.8</ele><time>2026-04-24T12:49:38.996Z</time></trkpt><trkpt lat="44.8095342319487" lon="9.294368123241867"><ele>1012.0</ele><time>2026-04-24T12:49:40.004Z</time></trkpt><trkpt lat="44.80942566850483" lon="9.294409395766364"><ele>1012.3333333333333</ele><time>2026-04-24T12:49:41.004Z</time></trkpt><trkpt lat="44.80928002209893" lon="9.294498893828058"><ele>1012.6666666666667</ele><time>2026-04-24T12:49:42.004Z</time></trkpt><trkpt lat="44.80914955873516" lon="9.29464080778486"><ele>1013.0</ele><time>2026-04-24T12:49:43.004Z</time></trkpt><trkpt lat="44.80905295516218" lon="9.294760984094"><ele>1013.0</ele><time>2026-04-24T12:49:44.004Z</time></trkpt><trkpt lat="44.80892472012722" lon="9.294836129978304"><ele>1013.0</ele><time>2026-04-24T12:49:45.004Z</time></trkpt><trkpt lat="44.80879444923457" lon="9.294859484620487"><ele>1013.0</ele><time>2026-04-24T12:49:46.003Z</time></trkpt><trkpt lat="44.80866685322249" lon="9.294881824595869"><ele>1013.0</ele><time>2026-04-24T12:49:47.003Z</time></trkpt><trkpt lat="44.80853843588408" lon="9.294919906625886"><ele>1008.25</ele><time>2026-04-24T12:49:48.003Z</time></trkpt><trkpt lat="44.80842298253015" lon="9.295073256157863"><ele>1003.5</ele><time>2026-04-24T12:49:49.003Z</time></trkpt><trkpt lat="44.80838320280537" lon="9.2952360987025"><ele>998.75</ele><time>2026-04-24T12:49:50.003Z</time></trkpt><trkpt lat="44.80836072882725" lon="9.295395873929627"><ele>994.0</ele><time>2026-04-24T12:49:51.003Z</time></trkpt><trkpt lat="44.808375337120445" lon="9.295573878826323"><ele>997.0</ele><time>2026-04-24T12:49:52.002Z</time></trkpt><trkpt lat="44.80840212718564" lon="9.295761573047772"><ele>1000.0</ele><time>2026-04-24T12:49:53.002Z</time></trkpt><trkpt lat="44.80843339217872" lon="9.295948831982075"><ele>1003.0</ele><time>2026-04-24T12:49:54.002Z</time></trkpt><trkpt lat="44.808455806897044" lon="9.29613661046836"><ele>1006.0</ele><time>2026-04-24T12:49:55.002Z</time></trkpt><trkpt lat="44.8085490419766" lon="9.296288863394722"><ele>1013.0</ele><time>2026-04-24T12:49:56.002Z</time></trkpt><trkpt lat="44.80861015256042" lon="9.296474417629003"><ele>1020.0</ele><time>2026-04-24T12:49:57.002Z</time></trkpt><trkpt lat="44.808643750120254" lon="9.29662399722771"><ele>1027.0</ele><time>2026-04-24T12:49:58.002Z</time></trkpt><trkpt lat="44.80864924929722" lon="9.296768086764322"><ele>1034.0</ele><time>2026-04-24T12:49:59.001Z</time></trkpt><trkpt lat="44.80863128871567" lon="9.296970224316365"><ele>1034.0</ele><time>2026-04-24T12:50:00.001Z</time></trkpt><trkpt lat="44.80862134225624" lon="9.29715336057888"><ele>1034.0</ele><time>2026-04-24T12:50:01.001Z</time></trkpt><trkpt lat="44.8086126536058" lon="9.297330288397717"><ele>1034.0</ele><time>2026-04-24T12:50:02.001Z</time></trkpt><trkpt lat="44.808568308051186" lon="9.297454480440827"><ele>1034.0</ele><time>2026-04-24T12:50:03.001Z</time></trkpt><trkpt lat="44.80848861986435" lon="9.297541929493716"><ele>1031.6000000000001</ele><time>2026-04-24T12:50:04.001Z</time></trkpt><trkpt lat="44.8083779692405" lon="9.297581058684132"><ele>1029.2</ele><time>2026-04-24T12:50:05.001Z</time></trkpt><trkpt lat="44.80828515384653" lon="9.297615008449357"><ele>1026.8000000000002</ele><time>2026-04-24T12:50:06.001Z</time></trkpt><trkpt lat="44.80818085896154" lon="9.297673799086791"><ele>1024.4</ele><time>2026-04-24T12:50:07.001Z</time></trkpt><trkpt lat="44.80809586087966" lon="9.297776447408857"><ele>1022.0</ele><time>2026-04-24T12:50:08.001Z</time></trkpt><trkpt lat="44.80806884771842" lon="9.297952251823753"><ele>1026.0</ele><time>2026-04-24T12:50:09.001Z</time></trkpt><trkpt lat="44.80803970316533" lon="9.298120622698029"><ele>1030.0</ele><time>2026-04-24T12:50:10Z</time></trkpt><trkpt lat="44.808005585556934" lon="9.29829305818081"><ele>1034.0</ele><time>2026-04-24T12:50:11Z</time></trkpt><trkpt lat="44.80796370521558" lon="9.298457416425581"><ele>1038.0</ele><time>2026-04-24T12:50:12Z</time></trkpt><trkpt lat="44.80789779202228" lon="9.298663657061233"><ele>1038.0</ele><time>2026-04-24T12:50:13Z</time></trkpt><trkpt lat="44.807830247866306" lon="9.298877228754607"><ele>1038.0</ele><time>2026-04-24T12:50:14Z</time></trkpt><trkpt lat="44.80775540581766" lon="9.299082452504322"><ele>1038.0</ele><time>2026-04-24T12:50:15Z</time></trkpt><trkpt lat="44.807665663070416" lon="9.299232738299589"><ele>1038.25</ele><time>2026-04-24T12:50:16Z</time></trkpt><trkpt lat="44.80758021757651" lon="9.29937631260096"><ele>1038.5</ele><time>2026-04-24T12:50:17Z</time></trkpt><trkpt lat="44.80748366980464" lon="9.299498849400452"><ele>1038.75</ele><time>2026-04-24T12:50:18Z</time></trkpt><trkpt lat="44.8074396463536" lon="9.299653691922709"><ele>1039.0</ele><time>2026-04-24T12:50:19Z</time></trkpt><trkpt lat="44.80742508698912" lon="9.299818904213573"><ele>1039.0</ele><time>2026-04-24T12:50:20Z</time></trkpt><trkpt lat="44.80743771658877" lon="9.299982366042865"><ele>1039.0</ele><time>2026-04-24T12:50:21Z</time></trkpt><trkpt lat="44.80744431158661" lon="9.300148044493158"><ele>1039.0</ele><time>2026-04-24T12:50:22Z</time></trkpt><trkpt lat="44.80741601682706" lon="9.300297101313683"><ele>1039.0</ele><time>2026-04-24T12:50:23Z</time></trkpt><trkpt lat="44.80733894205197" lon="9.30038438560486"><ele>1039.0</ele><time>2026-04-24T12:50:24Z</time></trkpt><trkpt lat="44.807264001558714" lon="9.300506087013312"><ele>1043.25</ele><time>2026-04-24T12:50:25Z</time></trkpt><trkpt lat="44.807205237555344" lon="9.300614566543768"><ele>1047.5</ele><time>2026-04-24T12:50:26Z</time></trkpt><trkpt lat="44.80716337526276" lon="9.300764903820491"><ele>1051.75</ele><time>2026-04-24T12:50:27Z</time></trkpt><trkpt lat="44.807182137127754" lon="9.300925354488568"><ele>1056.0</ele><time>2026-04-24T12:50:28Z</time></trkpt><trkpt lat="44.807215360656244" lon="9.301124475483707"><ele>1056.0</ele><time>2026-04-24T12:50:29Z</time></trkpt><trkpt lat="44.8071891137832" lon="9.30132494419301"><ele>1056.0</ele><time>2026-04-24T12:50:30Z</time></trkpt><trkpt lat="44.80715667507298" lon="9.301504564981187"><ele>1056.0</ele><time>2026-04-24T12:50:31Z</time></trkpt><trkpt lat="44.80712029247404" lon="9.301699726811563"><ele>1056.0</ele><time>2026-04-24T12:50:32Z</time></trkpt><trkpt lat="44.807083787428475" lon="9.301879591590819"><ele>1054.75</ele><time>2026-04-24T12:50:32.999Z</time></trkpt><trkpt lat="44.80702223750544" lon="9.302029046472585"><ele>1053.5</ele><time>2026-04-24T12:50:33.999Z</time></trkpt><trkpt lat="44.80693989197273" lon="9.30217336042109"><ele>1052.25</ele><time>2026-04-24T12:50:34.999Z</time></trkpt><trkpt lat="44.80684006852561" lon="9.302342373090504"><ele>1051.0</ele><time>2026-04-24T12:50:35.999Z</time></trkpt><trkpt lat="44.806742044835055" lon="9.30251480071025"><ele>1051.0</ele><time>2026-04-24T12:50:36.999Z</time></trkpt><trkpt lat="44.806697027267454" lon="9.302730818523653"><ele>1051.0</ele><time>2026-04-24T12:50:37.999Z</time></trkpt><trkpt lat="44.806605943590164" lon="9.302912260795038"><ele>1051.0</ele><time>2026-04-24T12:50:38.999Z</time></trkpt><trkpt lat="44.80656758739397" lon="9.303114525241227"><ele>1054.75</ele><time>2026-04-24T12:50:39.999Z</time></trkpt><trkpt lat="44.80653016198109" lon="9.303310386956733"><ele>1058.5</ele><time>2026-04-24T12:50:40.999Z</time></trkpt><trkpt lat="44.80648538916981" lon="9.303478558959085"><ele>1062.25</ele><time>2026-04-24T12:50:41.999Z</time></trkpt><trkpt lat="44.806405293973405" lon="9.30354332926318"><ele>1066.0</ele><time>2026-04-24T12:50:42.999Z</time></trkpt><trkpt lat="44.806317088767265" lon="9.30368049070775"><ele>1066.0</ele><time>2026-04-24T12:50:43.999Z</time></trkpt><trkpt lat="44.806269695137395" lon="9.303875191552622"><ele>1066.0</ele><time>2026-04-24T12:50:44.999Z</time></trkpt><trkpt lat="44.80617888256443" lon="9.30403068125277"><ele>1066.0</ele><time>2026-04-24T12:50:45.999Z</time></trkpt><trkpt lat="44.806127021712356" lon="9.304216584273288"><ele>1066.0</ele><time>2026-04-24T12:50:46.999Z</time></trkpt><trkpt lat="44.806063297386316" lon="9.304393201922917"><ele>1066.0</ele><time>2026-04-24T12:50:47.999Z</time></trkpt><trkpt lat="44.806013412092405" lon="9.304600622979788"><ele>1066.0</ele><time>2026-04-24T12:50:48.999Z</time></trkpt><trkpt lat="44.80598349880401" lon="9.304823245545547"><ele>1066.0</ele><time>2026-04-24T12:50:49.999Z</time></trkpt><trkpt lat="44.80591454920108" lon="9.3050498948399"><ele>1066.0</ele><time>2026-04-24T12:50:50.999Z</time></trkpt><trkpt lat="44.80584459701767" lon="9.305248541787623"><ele>1066.0</ele><time>2026-04-24T12:50:51.999Z</time></trkpt><trkpt lat="44.805769232447005" lon="9.305436641157186"><ele>1066.0</ele><time>2026-04-24T12:50:52.999Z</time></trkpt><trkpt lat="44.80567307432766" lon="9.305656839528197"><ele>1072.0</ele><time>2026-04-24T12:50:53.999Z</time></trkpt><trkpt lat="44.805613728765" lon="9.305884699131145"><ele>1078.0</ele><time>2026-04-24T12:50:54.999Z</time></trkpt><trkpt lat="44.80556970098205" lon="9.30610342003839"><ele>1084.0</ele><time>2026-04-24T12:50:55.999Z</time></trkpt><trkpt lat="44.805537962688156" lon="9.306311086851478"><ele>1087.0</ele><time>2026-04-24T12:50:56.999Z</time></trkpt><trkpt lat="44.80544427547742" lon="9.306470670373155"><ele>1090.0</ele><time>2026-04-24T12:50:57.999Z</time></trkpt><trkpt lat="44.80534111992749" lon="9.306631524387715"><ele>1093.0</ele><time>2026-04-24T12:50:58.999Z</time></trkpt><trkpt lat="44.8052217547644" lon="9.306803112042417"><ele>1089.0</ele><time>2026-04-24T12:50:59.999Z</time></trkpt><trkpt lat="44.805108122206086" lon="9.30698370951917"><ele>1085.0</ele><time>2026-04-24T12:51:00.999Z</time></trkpt><trkpt lat="44.804990746279316" lon="9.307186876322167"><ele>1081.0</ele><time>2026-04-24T12:51:01.999Z</time></trkpt><trkpt lat="44.80488276075985" lon="9.307386749385449"><ele>1081.0</ele><time>2026-04-24T12:51:02.999Z</time></trkpt><trkpt lat="44.80477145549198" lon="9.307596455789033"><ele>1081.0</ele><time>2026-04-24T12:51:03.999Z</time></trkpt><trkpt lat="44.80467198131747" lon="9.307801953113945"><ele>1081.0</ele><time>2026-04-24T12:51:04.999Z</time></trkpt><trkpt lat="44.804544249452555" lon="9.308002701810068"><ele>1078.0</ele><time>2026-04-24T12:51:05.999Z</time></trkpt><trkpt lat="44.80443788666165" lon="9.308200884806935"><ele>1075.0</ele><time>2026-04-24T12:51:06.999Z</time></trkpt><trkpt lat="44.80430867514227" lon="9.308380216646594"><ele>1072.0</ele><time>2026-04-24T12:51:07.999Z</time></trkpt><trkpt lat="44.80420648023699" lon="9.308512406588958"><ele>1072.0</ele><time>2026-04-24T12:51:08.999Z</time></trkpt><trkpt lat="44.80407879917836" lon="9.308669343150443"><ele>1072.0</ele><time>2026-04-24T12:51:09.999Z</time></trkpt><trkpt lat="44.803959393888874" lon="9.308845158848074"><ele>1072.0</ele><time>2026-04-24T12:51:10.999Z</time></trkpt><trkpt lat="44.80384238956616" lon="9.30901560938827"><ele>1075.6666666666665</ele><time>2026-04-24T12:51:11.999Z</time></trkpt><trkpt lat="44.803774923091105" lon="9.309240194662003"><ele>1079.3333333333333</ele><time>2026-04-24T12:51:12.999Z</time></trkpt><trkpt lat="44.80370185243532" lon="9.309495685046928"><ele>1083.0</ele><time>2026-04-24T12:51:13.999Z</time></trkpt><trkpt lat="44.803667824298266" lon="9.309766355277374"><ele>1082.6666666666667</ele><time>2026-04-24T12:51:14.999Z</time></trkpt><trkpt lat="44.803637067474526" lon="9.30999398616044"><ele>1082.3333333333335</ele><time>2026-04-24T12:51:15.999Z</time></trkpt><trkpt lat="44.80355655713577" lon="9.3102071964629"><ele>1082.0</ele><time>2026-04-24T12:51:16.999Z</time></trkpt><trkpt lat="44.80347010978918" lon="9.31040588795945"><ele>1085.6666666666667</ele><time>2026-04-24T12:51:17.999Z</time></trkpt><trkpt lat="44.80338295115473" lon="9.31059319634114"><ele>1089.3333333333333</ele><time>2026-04-24T12:51:18.998Z</time></trkpt><trkpt lat="44.80329797842001" lon="9.310769489007482"><ele>1093.0</ele><time>2026-04-24T12:51:19.998Z</time></trkpt><trkpt lat="44.8032057348419" lon="9.310949746644813"><ele>1093.0</ele><time>2026-04-24T12:51:20.998Z</time></trkpt><trkpt lat="44.80310402472772" lon="9.311108968676598"><ele>1093.0</ele><time>2026-04-24T12:51:21.998Z</time></trkpt><trkpt lat="44.80299104095943" lon="9.311206558055769"><ele>1093.0</ele><time>2026-04-24T12:51:22.998Z</time></trkpt><trkpt lat="44.80289700921364" lon="9.311266593378729"><ele>1093.0</ele><time>2026-04-24T12:51:23.998Z</time></trkpt><trkpt lat="44.80282368972757" lon="9.311307927634628"><ele>1093.0</ele><time>2026-04-24T12:51:24.998Z</time></trkpt><trkpt lat="44.80274525765642" lon="9.311345555418681"><ele>1093.0</ele><time>2026-04-24T12:51:27.998Z</time></trkpt><trkpt lat="44.80281074702123" lon="9.311316314206376"><ele>1093.0</ele><time>2026-04-24T12:51:41.998Z</time></trkpt><trkpt lat="44.80271683823343" lon="9.31141201958556"><ele>1093.0</ele><time>2026-04-24T12:56:36.994Z</time></trkpt><trkpt lat="44.80264671460182" lon="9.311530659255114"><ele>1093.0</ele><time>2026-04-24T12:56:38.994Z</time></trkpt><trkpt lat="44.802603088014386" lon="9.311611150449734"><ele>1093.0</ele><time>2026-04-24T12:56:39.994Z</time></trkpt><trkpt lat="44.80255532916709" lon="9.31170669084608"><ele>1092.8</ele><time>2026-04-24T12:56:40.994Z</time></trkpt><trkpt lat="44.80251338453605" lon="9.311799058760288"><ele>1092.6</ele><time>2026-04-24T12:56:41.994Z</time></trkpt><trkpt lat="44.802466888338664" lon="9.311917768544424"><ele>1092.4</ele><time>2026-04-24T12:56:42.994Z</time></trkpt><trkpt lat="44.802421276637055" lon="9.312049940072393"><ele>1092.2</ele><time>2026-04-24T12:56:43.994Z</time></trkpt><trkpt lat="44.80239050077175" lon="9.31219882374546"><ele>1092.0</ele><time>2026-04-24T12:56:44.994Z</time></trkpt><trkpt lat="44.80233828355778" lon="9.31234659828715"><ele>1093.5</ele><time>2026-04-24T12:56:45.998Z</time></trkpt><trkpt lat="44.8022815422916" lon="9.312509477547426"><ele>1095.0</ele><time>2026-04-24T12:56:46.998Z</time></trkpt><trkpt lat="44.80223178226161" lon="9.31267405911359"><ele>1096.5</ele><time>2026-04-24T12:56:47.998Z</time></trkpt><trkpt lat="44.80218086851485" lon="9.31282882038667"><ele>1098.0</ele><time>2026-04-24T12:56:48.998Z</time></trkpt><trkpt lat="44.802125410078496" lon="9.312971414277847"><ele>1098.75</ele><time>2026-04-24T12:56:49.999Z</time></trkpt><trkpt lat="44.80206300094284" lon="9.313107204479284"><ele>1099.5</ele><time>2026-04-24T12:56:50.999Z</time></trkpt><trkpt lat="44.80196014349917" lon="9.313204445022619"><ele>1100.25</ele><time>2026-04-24T12:56:51.999Z</time></trkpt><trkpt lat="44.801855309147165" lon="9.313298025420156"><ele>1101.0</ele><time>2026-04-24T12:56:52.999Z</time></trkpt><trkpt lat="44.80174176342557" lon="9.31339032530512"><ele>1101.0</ele><time>2026-04-24T12:56:53.999Z</time></trkpt><trkpt lat="44.80162943643075" lon="9.313484657050529"><ele>1101.0</ele><time>2026-04-24T12:56:54.999Z</time></trkpt><trkpt lat="44.80152925465906" lon="9.313576916798835"><ele>1101.0</ele><time>2026-04-24T12:56:55.999Z</time></trkpt><trkpt lat="44.8014291147476" lon="9.313668326209456"><ele>1101.0</ele><time>2026-04-24T12:56:56.999Z</time></trkpt><trkpt lat="44.8013214336408" lon="9.313643112347725"><ele>1101.0</ele><time>2026-04-24T12:56:57.999Z</time></trkpt><trkpt lat="44.80122505532395" lon="9.313582442441577"><ele>1101.0</ele><time>2026-04-24T12:56:58.999Z</time></trkpt><trkpt lat="44.80111886884575" lon="9.313508969696867"><ele>1101.0</ele><time>2026-04-24T12:56:59.999Z</time></trkpt><trkpt lat="44.80102221633955" lon="9.313457960717928"><ele>1101.0</ele><time>2026-04-24T12:57:00.999Z</time></trkpt><trkpt lat="44.80092317626234" lon="9.313431287170971"><ele>1101.0</ele><time>2026-04-24T12:57:01.999Z</time></trkpt><trkpt lat="44.800823784659755" lon="9.313427883622051"><ele>1102.5</ele><time>2026-04-24T12:57:03Z</time></trkpt><trkpt lat="44.80070863211145" lon="9.313449771783263"><ele>1104.0</ele><time>2026-04-24T12:57:04Z</time></trkpt><trkpt lat="44.80060763542267" lon="9.313547257463568"><ele>1105.5</ele><time>2026-04-24T12:57:05Z</time></trkpt><trkpt lat="44.80050493701461" lon="9.313652858614759"><ele>1107.0</ele><time>2026-04-24T12:57:06Z</time></trkpt><trkpt lat="44.80040612648962" lon="9.313779134777946"><ele>1106.5</ele><time>2026-04-24T12:57:07Z</time></trkpt><trkpt lat="44.800290337355975" lon="9.313948993567857"><ele>1106.0</ele><time>2026-04-24T12:57:08Z</time></trkpt><trkpt lat="44.80023905108898" lon="9.31413981455088"><ele>1105.5</ele><time>2026-04-24T12:57:09Z</time></trkpt><trkpt lat="44.8002227820767" lon="9.314313529983208"><ele>1105.0</ele><time>2026-04-24T12:57:10Z</time></trkpt><trkpt lat="44.80021389860571" lon="9.314466444827696"><ele>1105.0</ele><time>2026-04-24T12:57:11Z</time></trkpt><trkpt lat="44.80020395266863" lon="9.314624303635943"><ele>1105.0</ele><time>2026-04-24T12:57:13Z</time></trkpt><trkpt lat="44.800163423324584" lon="9.314718838917242"><ele>1105.0</ele><time>2026-04-24T12:57:14Z</time></trkpt><trkpt lat="44.80012628863754" lon="9.314803570331742"><ele>1105.0</ele><time>2026-04-24T12:57:15Z</time></trkpt><trkpt lat="44.80008818296405" lon="9.314890517551646"><ele>1105.0</ele><time>2026-04-24T12:57:16Z</time></trkpt><trkpt lat="44.79993175770144" lon="9.314984374801583"><ele>1107.2</ele><time>2026-04-24T12:57:17Z</time></trkpt><trkpt lat="44.79989522380783" lon="9.315128049080768"><ele>1109.4</ele><time>2026-04-24T12:57:18Z</time></trkpt><trkpt lat="44.799875316803025" lon="9.315275316542362"><ele>1111.6</ele><time>2026-04-24T12:57:19Z</time></trkpt><trkpt lat="44.79986500571477" lon="9.315451159593065"><ele>1113.8</ele><time>2026-04-24T12:57:20Z</time></trkpt><trkpt lat="44.799855790111764" lon="9.315596634842276"><ele>1116.0</ele><time>2026-04-24T12:57:21Z</time></trkpt><trkpt lat="44.79983826112921" lon="9.315766862908395"><ele>1116.0</ele><time>2026-04-24T12:57:22Z</time></trkpt><trkpt lat="44.79981963576939" lon="9.315916076463699"><ele>1116.0</ele><time>2026-04-24T12:57:23Z</time></trkpt><trkpt lat="44.79978992486065" lon="9.316048901537185"><ele>1116.0</ele><time>2026-04-24T12:57:24Z</time></trkpt><trkpt lat="44.799744696432406" lon="9.316189093327514"><ele>1116.0</ele><time>2026-04-24T12:57:25Z</time></trkpt><trkpt lat="44.799694877100016" lon="9.316352584324987"><ele>1116.0</ele><time>2026-04-24T12:57:26Z</time></trkpt><trkpt lat="44.799574841881" lon="9.316726125604266"><ele>1115.0</ele><time>2026-04-24T12:57:27Z</time></trkpt><trkpt lat="44.799586828609165" lon="9.316945334430464"><ele>1114.0</ele><time>2026-04-24T12:57:28Z</time></trkpt><trkpt lat="44.79963304878041" lon="9.317179409508412"><ele>1113.0</ele><time>2026-04-24T12:57:29Z</time></trkpt><trkpt lat="44.799674233189414" lon="9.317307579937182"><ele>1112.0</ele><time>2026-04-24T12:57:30Z</time></trkpt><trkpt lat="44.79971395437324" lon="9.317490512662363"><ele>1112.0</ele><time>2026-04-24T12:57:32Z</time></trkpt><trkpt lat="44.799719015119045" lon="9.317595789400691"><ele>1112.0</ele><time>2026-04-24T12:57:33Z</time></trkpt><trkpt lat="44.79971533529591" lon="9.31775582325359"><ele>1112.0</ele><time>2026-04-24T12:57:34Z</time></trkpt><trkpt lat="44.799709474133984" lon="9.317894001607204"><ele>1112.0</ele><time>2026-04-24T12:57:35Z</time></trkpt><trkpt lat="44.799734254040246" lon="9.318040509186908"><ele>1112.0</ele><time>2026-04-24T12:57:36Z</time></trkpt><trkpt lat="44.799698511425625" lon="9.31814193751461"><ele>1111.75</ele><time>2026-04-24T12:57:37Z</time></trkpt><trkpt lat="44.79969503626875" lon="9.318364921153666"><ele>1111.5</ele><time>2026-04-24T12:57:39Z</time></trkpt><trkpt lat="44.79961493992359" lon="9.31851956643755"><ele>1111.25</ele><time>2026-04-24T12:57:40Z</time></trkpt><trkpt lat="44.79953304661157" lon="9.318612377758157"><ele>1111.0</ele><time>2026-04-24T12:57:41Z</time></trkpt><trkpt lat="44.79943277274358" lon="9.318704611045357"><ele>1115.0</ele><time>2026-04-24T12:57:42Z</time></trkpt><trkpt lat="44.799321252832904" lon="9.318810730432695"><ele>1119.0</ele><time>2026-04-24T12:57:43Z</time></trkpt><trkpt lat="44.7992194979103" lon="9.3189170690849"><ele>1123.0</ele><time>2026-04-24T12:57:44Z</time></trkpt><trkpt lat="44.79911602466884" lon="9.318988985807705"><ele>1127.0</ele><time>2026-04-24T12:57:45Z</time></trkpt><trkpt lat="44.79900647945173" lon="9.319109724838368"><ele>1127.0</ele><time>2026-04-24T12:57:46Z</time></trkpt><trkpt lat="44.798951504011804" lon="9.319205991920354"><ele>1127.0</ele><time>2026-04-24T12:57:47Z</time></trkpt><trkpt lat="44.798892008018186" lon="9.319275202550628"><ele>1127.0</ele><time>2026-04-24T12:57:48Z</time></trkpt><trkpt lat="44.79889114990093" lon="9.319431143764456"><ele>1127.0</ele><time>2026-04-24T12:57:51Z</time></trkpt><trkpt lat="44.798984249331156" lon="9.319536407967234"><ele>1127.0</ele><time>2026-04-24T12:57:52.999Z</time></trkpt><trkpt lat="44.79905492363226" lon="9.31958457769005"><ele>1127.0</ele><time>2026-04-24T12:57:53.999Z</time></trkpt><trkpt lat="44.79913840432976" lon="9.319660679732836"><ele>1127.0</ele><time>2026-04-24T12:57:54.999Z</time></trkpt><trkpt lat="44.79922238855964" lon="9.319741578912588"><ele>1127.0</ele><time>2026-04-24T12:57:55.999Z</time></trkpt><trkpt lat="44.79929418930552" lon="9.319813639255228"><ele>1127.0</ele><time>2026-04-24T12:57:56.999Z</time></trkpt><trkpt lat="44.79935264421959" lon="9.319868414688044"><ele>1127.0</ele><time>2026-04-24T12:57:57.999Z</time></trkpt><trkpt lat="44.799400261106676" lon="9.319959580532478"><ele>1127.0</ele><time>2026-04-24T12:57:58.999Z</time></trkpt><trkpt lat="44.799433368492934" lon="9.320100241967468"><ele>1126.5</ele><time>2026-04-24T12:57:59.999Z</time></trkpt><trkpt lat="44.79945327225872" lon="9.32025270921379"><ele>1126.0</ele><time>2026-04-24T12:58:00.999Z</time></trkpt><trkpt lat="44.79944526411498" lon="9.320398998560394"><ele>1125.5</ele><time>2026-04-24T12:58:01.999Z</time></trkpt><trkpt lat="44.79938194490179" lon="9.320517996385469"><ele>1125.0</ele><time>2026-04-24T12:58:02.999Z</time></trkpt><trkpt lat="44.79924429846016" lon="9.320597117325022"><ele>1125.0</ele><time>2026-04-24T12:58:03.999Z</time></trkpt><trkpt lat="44.79913098215523" lon="9.320637028306253"><ele>1125.0</ele><time>2026-04-24T12:58:04.999Z</time></trkpt><trkpt lat="44.798990480627715" lon="9.320704068387315"><ele>1125.0</ele><time>2026-04-24T12:58:05.999Z</time></trkpt><trkpt lat="44.79887653902736" lon="9.320802097727947"><ele>1125.0</ele><time>2026-04-24T12:58:06.999Z</time></trkpt><trkpt lat="44.798767870610746" lon="9.320899788463295"><ele>1125.0</ele><time>2026-04-24T12:58:07.999Z</time></trkpt><trkpt lat="44.79865137897367" lon="9.32104491766384"><ele>1125.0</ele><time>2026-04-24T12:58:08.999Z</time></trkpt><trkpt lat="44.79855934151758" lon="9.321187320852081"><ele>1125.0</ele><time>2026-04-24T12:58:09.999Z</time></trkpt><trkpt lat="44.798433213775446" lon="9.321408735549106"><ele>1130.6666666666667</ele><time>2026-04-24T12:58:10.999Z</time></trkpt><trkpt lat="44.798335436610714" lon="9.321560694708277"><ele>1136.3333333333335</ele><time>2026-04-24T12:58:11.999Z</time></trkpt><trkpt lat="44.79824852691682" lon="9.321808536077134"><ele>1142.0</ele><time>2026-04-24T12:58:12.999Z</time></trkpt><trkpt lat="44.79812624174812" lon="9.321976689710308"><ele>1142.0</ele><time>2026-04-24T12:58:13.999Z</time></trkpt><trkpt lat="44.79800056234921" lon="9.322083240365203"><ele>1142.0</ele><time>2026-04-24T12:58:14.999Z</time></trkpt><trkpt lat="44.79785637676408" lon="9.322191545310263"><ele>1142.0</ele><time>2026-04-24T12:58:15.999Z</time></trkpt><trkpt lat="44.79772110480795" lon="9.322274691551462"><ele>1142.5</ele><time>2026-04-24T12:58:16.999Z</time></trkpt><trkpt lat="44.797588676123894" lon="9.322288603909584"><ele>1143.0</ele><time>2026-04-24T12:58:17.999Z</time></trkpt><trkpt lat="44.79745959074783" lon="9.322282765573215"><ele>1143.5</ele><time>2026-04-24T12:58:18.999Z</time></trkpt><trkpt lat="44.7973301642406" lon="9.322348476448852"><ele>1144.0</ele><time>2026-04-24T12:58:19.999Z</time></trkpt><trkpt lat="44.79727925069614" lon="9.322484911790106"><ele>1144.0</ele><time>2026-04-24T12:58:20.999Z</time></trkpt><trkpt lat="44.79726846047552" lon="9.322573210989189"><ele>1144.0</ele><time>2026-04-24T12:58:21.999Z</time></trkpt><trkpt lat="44.797264696801086" lon="9.32271988485972"><ele>1144.0</ele><time>2026-04-24T12:58:22.999Z</time></trkpt><trkpt lat="44.79726314392632" lon="9.322936584932847"><ele>1144.0</ele><time>2026-04-24T12:58:23.999Z</time></trkpt><trkpt lat="44.79725054973095" lon="9.323138033128027"><ele>1140.3333333333333</ele><time>2026-04-24T12:58:24.999Z</time></trkpt><trkpt lat="44.79723559748841" lon="9.323345610898281"><ele>1136.6666666666667</ele><time>2026-04-24T12:58:25.999Z</time></trkpt><trkpt lat="44.79721710541949" lon="9.323571083168817"><ele>1133.0</ele><time>2026-04-24T12:58:26.999Z</time></trkpt><trkpt lat="44.79725128033547" lon="9.32376810641278"><ele>1131.5</ele><time>2026-04-24T12:58:27.999Z</time></trkpt><trkpt lat="44.79720762933259" lon="9.323933244563122"><ele>1130.0</ele><time>2026-04-24T12:58:28.999Z</time></trkpt><trkpt lat="44.79715085181567" lon="9.324087559551733"><ele>1128.5</ele><time>2026-04-24T12:58:29.999Z</time></trkpt><trkpt lat="44.79708028809656" lon="9.32425813209405"><ele>1127.0</ele><time>2026-04-24T12:58:30.999Z</time></trkpt><trkpt lat="44.79701068815429" lon="9.324430388379133"><ele>1127.0</ele><time>2026-04-24T12:58:31.999Z</time></trkpt><trkpt lat="44.7969684000924" lon="9.324589891029015"><ele>1127.0</ele><time>2026-04-24T12:58:32.999Z</time></trkpt><trkpt lat="44.79692119729172" lon="9.324753949397325"><ele>1127.0</ele><time>2026-04-24T12:58:33.999Z</time></trkpt><trkpt lat="44.7969238577724" lon="9.32490638356688"><ele>1127.0</ele><time>2026-04-24T12:58:34.999Z</time></trkpt><trkpt lat="44.796970005860636" lon="9.325035151933289"><ele>1126.2</ele><time>2026-04-24T12:58:35.999Z</time></trkpt><trkpt lat="44.796999818245546" lon="9.32519565174077"><ele>1125.4</ele><time>2026-04-24T12:58:36.999Z</time></trkpt><trkpt lat="44.79699155872193" lon="9.325348888593352"><ele>1124.6</ele><time>2026-04-24T12:58:37.999Z</time></trkpt><trkpt lat="44.79697835405314" lon="9.325487233274254"><ele>1123.8</ele><time>2026-04-24T12:58:38.999Z</time></trkpt><trkpt lat="44.796922587436704" lon="9.325594689330023"><ele>1123.0</ele><time>2026-04-24T12:58:39.999Z</time></trkpt><trkpt lat="44.79684646857665" lon="9.325684971651738"><ele>1129.6</ele><time>2026-04-24T12:58:40.999Z</time></trkpt><trkpt lat="44.79676640968907" lon="9.325781985890346"><ele>1136.1999999999998</ele><time>2026-04-24T12:58:41.999Z</time></trkpt><trkpt lat="44.796706706640826" lon="9.325899713287026"><ele>1142.8</ele><time>2026-04-24T12:58:42.999Z</time></trkpt><trkpt lat="44.796685328871966" lon="9.326037120637622"><ele>1149.3999999999999</ele><time>2026-04-24T12:58:43.999Z</time></trkpt><trkpt lat="44.796700662727" lon="9.326168909062892"><ele>1156.0</ele><time>2026-04-24T12:58:44.999Z</time></trkpt><trkpt lat="44.79672791025416" lon="9.326306283913299"><ele>1155.8</ele><time>2026-04-24T12:58:45.999Z</time></trkpt><trkpt lat="44.79677315777101" lon="9.326431619138397"><ele>1155.6</ele><time>2026-04-24T12:58:46.999Z</time></trkpt><trkpt lat="44.79680793465555" lon="9.326554101177202"><ele>1155.4</ele><time>2026-04-24T12:58:47.999Z</time></trkpt><trkpt lat="44.796819107185684" lon="9.326701338821541"><ele>1155.2</ele><time>2026-04-24T12:58:48.999Z</time></trkpt><trkpt lat="44.796808504218625" lon="9.326834036923417"><ele>1155.0</ele><time>2026-04-24T12:58:49.999Z</time></trkpt><trkpt lat="44.79677676093743" lon="9.326963211588955"><ele>1155.0</ele><time>2026-04-24T12:58:50.999Z</time></trkpt><trkpt lat="44.79679069413349" lon="9.327102504495745"><ele>1155.0</ele><time>2026-04-24T12:58:51.999Z</time></trkpt><trkpt lat="44.79681916521003" lon="9.327222235685262"><ele>1155.0</ele><time>2026-04-24T12:58:52.999Z</time></trkpt><trkpt lat="44.79685915597573" lon="9.327317272367532"><ele>1155.0</ele><time>2026-04-24T12:58:53.999Z</time></trkpt><trkpt lat="44.796904044120126" lon="9.327413510180024"><ele>1155.0</ele><time>2026-04-24T12:58:54.999Z</time></trkpt><trkpt lat="44.79695610628841" lon="9.327526628818289"><ele>1155.0</ele><time>2026-04-24T12:58:55.999Z</time></trkpt><trkpt lat="44.79701340646441" lon="9.327637904083634"><ele>1152.0</ele><time>2026-04-24T12:58:56.999Z</time></trkpt><trkpt lat="44.79706612377508" lon="9.327752388917474"><ele>1149.0</ele><time>2026-04-24T12:58:57.999Z</time></trkpt><trkpt lat="44.797126055936566" lon="9.327873601449618"><ele>1146.0</ele><time>2026-04-24T12:58:58.999Z</time></trkpt><trkpt lat="44.79717406583189" lon="9.327967866966139"><ele>1143.0</ele><time>2026-04-24T12:58:59.999Z</time></trkpt><trkpt lat="44.797245897124604" lon="9.328101484126798"><ele>1140.0</ele><time>2026-04-24T12:59:01.998Z</time></trkpt><trkpt lat="44.797292603697684" lon="9.328206538952356"><ele>1140.0</ele><time>2026-04-24T12:59:03.998Z</time></trkpt><trkpt lat="44.79729522045065" lon="9.3283083242338"><ele>1140.0</ele><time>2026-04-24T12:59:05.998Z</time></trkpt><trkpt lat="44.79726652877713" lon="9.32838817173517"><ele>1140.0</ele><time>2026-04-24T12:59:07.998Z</time></trkpt><trkpt lat="44.79730390825466" lon="9.328485988950414"><ele>1140.0</ele><time>2026-04-24T12:59:10.998Z</time></trkpt><trkpt lat="44.79736690158025" lon="9.328467143809927"><ele>1140.0</ele><time>2026-04-24T12:59:16.998Z</time></trkpt><trkpt lat="44.7973013740928" lon="9.328420984219122"><ele>1140.0</ele><time>2026-04-24T13:00:16.997Z</time></trkpt><trkpt lat="44.79721007566748" lon="9.328425638562882"><ele>1140.0</ele><time>2026-04-24T13:01:14.997Z</time></trkpt><trkpt lat="44.79714763582543" lon="9.328404297623846"><ele>1140.0</ele><time>2026-04-24T13:01:20.996Z</time></trkpt><trkpt lat="44.79708388314819" lon="9.328377653374886"><ele>1140.0</ele><time>2026-04-24T13:01:52.996Z</time></trkpt><trkpt lat="44.79685201361162" lon="9.328384026000538"><ele>1140.0</ele><time>2026-04-24T13:02:19.996Z</time></trkpt><trkpt lat="44.79676589073082" lon="9.328377087795305"><ele>1140.0</ele><time>2026-04-24T13:02:20.996Z</time></trkpt><trkpt lat="44.796653401933234" lon="9.328358588419881"><ele>1143.75</ele><time>2026-04-24T13:02:21.996Z</time></trkpt><trkpt lat="44.79653341611963" lon="9.328350951187382"><ele>1147.5</ele><time>2026-04-24T13:02:22.995Z</time></trkpt><trkpt lat="44.796415339652384" lon="9.328365106440454"><ele>1151.25</ele><time>2026-04-24T13:02:23.995Z</time></trkpt><trkpt lat="44.79630652213283" lon="9.328406956285155"><ele>1155.0</ele><time>2026-04-24T13:02:24.995Z</time></trkpt><trkpt lat="44.79621163551803" lon="9.328486960480681"><ele>1155.0</ele><time>2026-04-24T13:02:25.995Z</time></trkpt><trkpt lat="44.796134843145374" lon="9.328598726857237"><ele>1155.0</ele><time>2026-04-24T13:02:26.995Z</time></trkpt><trkpt lat="44.79608325296062" lon="9.328696597310584"><ele>1155.0</ele><time>2026-04-24T13:02:27.995Z</time></trkpt><trkpt lat="44.79604206465951" lon="9.328795847263166"><ele>1155.0</ele><time>2026-04-24T13:02:28.995Z</time></trkpt><trkpt lat="44.79598402785773" lon="9.328914806075757"><ele>1155.0</ele><time>2026-04-24T13:02:29.995Z</time></trkpt><trkpt lat="44.79595834787924" lon="9.329016209474958"><ele>1153.4</ele><time>2026-04-24T13:02:30.995Z</time></trkpt><trkpt lat="44.795936356802045" lon="9.32913382632823"><ele>1151.8</ele><time>2026-04-24T13:02:31.995Z</time></trkpt><trkpt lat="44.79597788864826" lon="9.329274578742139"><ele>1150.2</ele><time>2026-04-24T13:02:32.995Z</time></trkpt><trkpt lat="44.79602901933623" lon="9.329326629952213"><ele>1148.6</ele><time>2026-04-24T13:02:33.995Z</time></trkpt><trkpt lat="44.796103590412535" lon="9.329327040887383"><ele>1147.0</ele><time>2026-04-24T13:02:34.995Z</time></trkpt><trkpt lat="44.79620628778187" lon="9.329242230434756"><ele>1145.5</ele><time>2026-04-24T13:02:35.995Z</time></trkpt><trkpt lat="44.796293562253894" lon="9.32911674140066"><ele>1144.0</ele><time>2026-04-24T13:02:36.995Z</time></trkpt><trkpt lat="44.796375047160254" lon="9.328965563784164"><ele>1142.5</ele><time>2026-04-24T13:02:37.995Z</time></trkpt><trkpt lat="44.79644962796197" lon="9.32883102390309"><ele>1141.0</ele><time>2026-04-24T13:02:38.995Z</time></trkpt><trkpt lat="44.79652667029832" lon="9.328773031926781"><ele>1141.0</ele><time>2026-04-24T13:02:39.995Z</time></trkpt><trkpt lat="44.796613121599464" lon="9.328789559060167"><ele>1141.0</ele><time>2026-04-24T13:02:40.995Z</time></trkpt><trkpt lat="44.796678044787114" lon="9.328844748889772"><ele>1141.0</ele><time>2026-04-24T13:02:41.995Z</time></trkpt><trkpt lat="44.79674095930523" lon="9.328935512314747"><ele>1141.0</ele><time>2026-04-24T13:02:42.995Z</time></trkpt><trkpt lat="44.7968491715577" lon="9.329069792750886"><ele>1141.0</ele><time>2026-04-24T13:02:43.995Z</time></trkpt><trkpt lat="44.79697730225213" lon="9.329229313107462"><ele>1139.6666666666665</ele><time>2026-04-24T13:02:44.995Z</time></trkpt><trkpt lat="44.797115479773105" lon="9.329396388329505"><ele>1138.3333333333333</ele><time>2026-04-24T13:02:45.995Z</time></trkpt><trkpt lat="44.797233561455315" lon="9.329505246986548"><ele>1137.0</ele><time>2026-04-24T13:02:46.995Z</time></trkpt><trkpt lat="44.79736067866692" lon="9.329572781262662"><ele>1137.0</ele><time>2026-04-24T13:02:47.995Z</time></trkpt><trkpt lat="44.797482696889865" lon="9.329644302360693"><ele>1137.0</ele><time>2026-04-24T13:02:48.995Z</time></trkpt><trkpt lat="44.797601051853455" lon="9.32975307454539"><ele>1137.0</ele><time>2026-04-24T13:02:49.995Z</time></trkpt><trkpt lat="44.79773213643449" lon="9.32986676422097"><ele>1137.0</ele><time>2026-04-24T13:02:50.995Z</time></trkpt><trkpt lat="44.79786350689477" lon="9.329986285121512"><ele>1134.75</ele><time>2026-04-24T13:02:51.995Z</time></trkpt><trkpt lat="44.798011370073304" lon="9.330060981493629"><ele>1132.5</ele><time>2026-04-24T13:02:52.995Z</time></trkpt><trkpt lat="44.79813550933728" lon="9.33014361113591"><ele>1130.25</ele><time>2026-04-24T13:02:53.995Z</time></trkpt><trkpt lat="44.79824907596227" lon="9.330261435920141"><ele>1128.0</ele><time>2026-04-24T13:02:54.995Z</time></trkpt><trkpt lat="44.79836822359941" lon="9.33039065711281"><ele>1128.0</ele><time>2026-04-24T13:02:55.995Z</time></trkpt><trkpt lat="44.798485927336834" lon="9.330545032219778"><ele>1128.0</ele><time>2026-04-24T13:02:56.995Z</time></trkpt><trkpt lat="44.79860739885161" lon="9.330723755894782"><ele>1128.0</ele><time>2026-04-24T13:02:57.995Z</time></trkpt><trkpt lat="44.798725953215836" lon="9.33091145504266"><ele>1128.3333333333333</ele><time>2026-04-24T13:02:58.995Z</time></trkpt><trkpt lat="44.79882654836274" lon="9.331100406743154"><ele>1128.6666666666665</ele><time>2026-04-24T13:02:59.995Z</time></trkpt><trkpt lat="44.79894206014072" lon="9.331329720784643"><ele>1129.0</ele><time>2026-04-24T13:03:00.995Z</time></trkpt><trkpt lat="44.79904268011247" lon="9.331561331578685"><ele>1124.6666666666665</ele><time>2026-04-24T13:03:01.995Z</time></trkpt><trkpt lat="44.79919854319184" lon="9.331729770195254"><ele>1120.3333333333333</ele><time>2026-04-24T13:03:02.995Z</time></trkpt><trkpt lat="44.79933948505793" lon="9.331880470145476"><ele>1116.0</ele><time>2026-04-24T13:03:03.995Z</time></trkpt><trkpt lat="44.79945484925711" lon="9.332008249691485"><ele>1116.0</ele><time>2026-04-24T13:03:04.995Z</time></trkpt><trkpt lat="44.799587563365286" lon="9.332157021461668"><ele>1116.0</ele><time>2026-04-24T13:03:05.995Z</time></trkpt><trkpt lat="44.79970708635481" lon="9.332290827566759"><ele>1116.0</ele><time>2026-04-24T13:03:06.995Z</time></trkpt><trkpt lat="44.79984388293243" lon="9.332359110554227"><ele>1111.3333333333333</ele><time>2026-04-24T13:03:07.995Z</time></trkpt><trkpt lat="44.80000924143828" lon="9.332433155415318"><ele>1106.6666666666665</ele><time>2026-04-24T13:03:08.995Z</time></trkpt><trkpt lat="44.8001904342305" lon="9.33246709929406"><ele>1102.0</ele><time>2026-04-24T13:03:09.995Z</time></trkpt><trkpt lat="44.800358400464944" lon="9.332537151501947"><ele>1102.0</ele><time>2026-04-24T13:03:10.995Z</time></trkpt><trkpt lat="44.80051672185091" lon="9.33258471400033"><ele>1102.0</ele><time>2026-04-24T13:03:11.995Z</time></trkpt><trkpt lat="44.80067893349056" lon="9.332672822842447"><ele>1102.0</ele><time>2026-04-24T13:03:12.995Z</time></trkpt><trkpt lat="44.8008345019687" lon="9.33279769398806"><ele>1102.0</ele><time>2026-04-24T13:03:13.995Z</time></trkpt><trkpt lat="44.80097548745744" lon="9.332903520982473"><ele>1102.0</ele><time>2026-04-24T13:03:14.995Z</time></trkpt><trkpt lat="44.80107785939163" lon="9.333015400247204"><ele>1102.0</ele><time>2026-04-24T13:03:15.995Z</time></trkpt><trkpt lat="44.801153996190976" lon="9.333160109002595"><ele>1102.0</ele><time>2026-04-24T13:03:16.995Z</time></trkpt><trkpt lat="44.801245837721034" lon="9.333324890172042"><ele>1102.25</ele><time>2026-04-24T13:03:17.995Z</time></trkpt><trkpt lat="44.801342008215904" lon="9.333498962348893"><ele>1102.5</ele><time>2026-04-24T13:03:18.995Z</time></trkpt><trkpt lat="44.80142929383234" lon="9.333634746952894"><ele>1102.75</ele><time>2026-04-24T13:03:19.995Z</time></trkpt><trkpt lat="44.80152672792868" lon="9.333805051829954"><ele>1103.0</ele><time>2026-04-24T13:03:20.995Z</time></trkpt><trkpt lat="44.801626248951344" lon="9.333897500311855"><ele>1099.0</ele><time>2026-04-24T13:03:21.995Z</time></trkpt><trkpt lat="44.80170838699569" lon="9.333976683246712"><ele>1095.0</ele><time>2026-04-24T13:03:22.995Z</time></trkpt><trkpt lat="44.8017719792529" lon="9.334080831835644"><ele>1091.0</ele><time>2026-04-24T13:03:23.995Z</time></trkpt><trkpt lat="44.801808660366085" lon="9.3342106840347"><ele>1087.0</ele><time>2026-04-24T13:03:24.995Z</time></trkpt><trkpt lat="44.80181025140999" lon="9.334399764328616"><ele>1083.0</ele><time>2026-04-24T13:03:25.995Z</time></trkpt><trkpt lat="44.801771250922" lon="9.334650074022349"><ele>1089.0</ele><time>2026-04-24T13:03:26.995Z</time></trkpt><trkpt lat="44.801815554041006" lon="9.33489563300102"><ele>1095.0</ele><time>2026-04-24T13:03:27.995Z</time></trkpt><trkpt lat="44.80188323258364" lon="9.33504940986613"><ele>1101.0</ele><time>2026-04-24T13:03:28.994Z</time></trkpt><trkpt lat="44.80197061211319" lon="9.335239027281094"><ele>1101.0</ele><time>2026-04-24T13:03:29.994Z</time></trkpt><trkpt lat="44.802065277990174" lon="9.335450069802567"><ele>1101.0</ele><time>2026-04-24T13:03:30.994Z</time></trkpt><trkpt lat="44.80216285485933" lon="9.33566277981791"><ele>1101.0</ele><time>2026-04-24T13:03:31.994Z</time></trkpt><trkpt lat="44.80226042909953" lon="9.335875799102517"><ele>1092.3333333333333</ele><time>2026-04-24T13:03:32.994Z</time></trkpt><trkpt lat="44.8023535912171" lon="9.336078787387285"><ele>1083.6666666666665</ele><time>2026-04-24T13:03:33.994Z</time></trkpt><trkpt lat="44.802458413739586" lon="9.336299400958389"><ele>1075.0</ele><time>2026-04-24T13:03:34.994Z</time></trkpt><trkpt lat="44.80258815964491" lon="9.336536933201092"><ele>1075.0</ele><time>2026-04-24T13:03:35.994Z</time></trkpt><trkpt lat="44.8027240169571" lon="9.336727317398177"><ele>1075.0</ele><time>2026-04-24T13:03:36.994Z</time></trkpt><trkpt lat="44.802869625752265" lon="9.336902818980905"><ele>1075.0</ele><time>2026-04-24T13:03:37.994Z</time></trkpt><trkpt lat="44.80301306381775" lon="9.33706665135175"><ele>1065.3333333333333</ele><time>2026-04-24T13:03:38.994Z</time></trkpt><trkpt lat="44.80315826714286" lon="9.337228805927966"><ele>1055.6666666666667</ele><time>2026-04-24T13:03:39.994Z</time></trkpt><trkpt lat="44.803301730103605" lon="9.337389960418815"><ele>1046.0</ele><time>2026-04-24T13:03:40.994Z</time></trkpt><trkpt lat="44.80342202054529" lon="9.337525321169384"><ele>1047.0</ele><time>2026-04-24T13:03:41.994Z</time></trkpt><trkpt lat="44.803535602603255" lon="9.337653133228416"><ele>1048.0</ele><time>2026-04-24T13:03:42.994Z</time></trkpt><trkpt lat="44.80364265766374" lon="9.33778161077491"><ele>1049.0</ele><time>2026-04-24T13:03:43.994Z</time></trkpt><trkpt lat="44.803714811531485" lon="9.337879149854606"><ele>1050.0</ele><time>2026-04-24T13:03:44.994Z</time></trkpt><trkpt lat="44.80378007239719" lon="9.338001035370073"><ele>1044.0</ele><time>2026-04-24T13:03:45.994Z</time></trkpt><trkpt lat="44.80383407089525" lon="9.33815848522333"><ele>1038.0</ele><time>2026-04-24T13:03:46.994Z</time></trkpt><trkpt lat="44.80384766481676" lon="9.338350022822246"><ele>1032.0</ele><time>2026-04-24T13:03:47.994Z</time></trkpt><trkpt lat="44.80381936062502" lon="9.338615526218325"><ele>1032.0</ele><time>2026-04-24T13:03:48.994Z</time></trkpt><trkpt lat="44.80375322075544" lon="9.33883517431806"><ele>1032.0</ele><time>2026-04-24T13:03:49.994Z</time></trkpt><trkpt lat="44.80368418608263" lon="9.339035047467078"><ele>1032.0</ele><time>2026-04-24T13:03:50.994Z</time></trkpt><trkpt lat="44.80360931201579" lon="9.339251033519636"><ele>1032.75</ele><time>2026-04-24T13:03:52Z</time></trkpt><trkpt lat="44.803547394196464" lon="9.339459693270358"><ele>1033.5</ele><time>2026-04-24T13:03:53Z</time></trkpt><trkpt lat="44.803477974318966" lon="9.339636182431766"><ele>1034.25</ele><time>2026-04-24T13:03:54Z</time></trkpt><trkpt lat="44.80345001882167" lon="9.339811275000399"><ele>1035.0</ele><time>2026-04-24T13:03:55Z</time></trkpt><trkpt lat="44.803438281553355" lon="9.339989994957529"><ele>1036.5</ele><time>2026-04-24T13:03:56Z</time></trkpt><trkpt lat="44.8035034638892" lon="9.340182463337625"><ele>1038.0</ele><time>2026-04-24T13:03:57Z</time></trkpt><trkpt lat="44.803593431262584" lon="9.340269122427259"><ele>1039.5</ele><time>2026-04-24T13:03:58Z</time></trkpt><trkpt lat="44.80371811724713" lon="9.340328129538854"><ele>1041.0</ele><time>2026-04-24T13:03:59Z</time></trkpt><trkpt lat="44.803861093145855" lon="9.340356899839144"><ele>1041.0</ele><time>2026-04-24T13:04:00Z</time></trkpt><trkpt lat="44.80400083505074" lon="9.34040998821219"><ele>1041.0</ele><time>2026-04-24T13:04:01Z</time></trkpt><trkpt lat="44.804111741877065" lon="9.340495541846023"><ele>1041.0</ele><time>2026-04-24T13:04:02Z</time></trkpt><trkpt lat="44.80416643652921" lon="9.340547860861667"><ele>1041.0</ele><time>2026-04-24T13:04:03Z</time></trkpt><trkpt lat="44.804240447031724" lon="9.340638628385033"><ele>1041.0</ele><time>2026-04-24T13:04:04Z</time></trkpt><trkpt lat="44.80423402462135" lon="9.340781008765342"><ele>1038.6</ele><time>2026-04-24T13:04:05Z</time></trkpt><trkpt lat="44.80424915213767" lon="9.340960714729675"><ele>1036.1999999999998</ele><time>2026-04-24T13:04:06Z</time></trkpt><trkpt lat="44.804243231194164" lon="9.34109264004772"><ele>1033.8000000000002</ele><time>2026-04-24T13:04:07Z</time></trkpt><trkpt lat="44.8042347622224" lon="9.341219814724663"><ele>1031.4</ele><time>2026-04-24T13:04:08Z</time></trkpt><trkpt lat="44.80424649824319" lon="9.341329649815545"><ele>1029.0</ele><time>2026-04-24T13:04:09Z</time></trkpt><trkpt lat="44.80427531414738" lon="9.341411805495724"><ele>1030.0</ele><time>2026-04-24T13:04:10Z</time></trkpt><trkpt lat="44.80429677002767" lon="9.341547205536214"><ele>1031.0</ele><time>2026-04-24T13:04:11Z</time></trkpt><trkpt lat="44.804302516976286" lon="9.341676129015871"><ele>1032.0</ele><time>2026-04-24T13:04:12Z</time></trkpt><trkpt lat="44.804320296146" lon="9.341812345366527"><ele>1033.0</ele><time>2026-04-24T13:04:13Z</time></trkpt><trkpt lat="44.8043597345811" lon="9.34194083069333"><ele>1034.0</ele><time>2026-04-24T13:04:14Z</time></trkpt><trkpt lat="44.80445502208443" lon="9.342019655522327"><ele>1034.0</ele><time>2026-04-24T13:04:15Z</time></trkpt><trkpt lat="44.8045687783379" lon="9.342012960909916"><ele>1034.0</ele><time>2026-04-24T13:04:16Z</time></trkpt><trkpt lat="44.80467866099047" lon="9.341996899247478"><ele>1034.0</ele><time>2026-04-24T13:04:17Z</time></trkpt><trkpt lat="44.80478571086633" lon="9.341927660206723"><ele>1034.0</ele><time>2026-04-24T13:04:18Z</time></trkpt><trkpt lat="44.8049165357111" lon="9.34184667321143"><ele>1034.0</ele><time>2026-04-24T13:04:19Z</time></trkpt><trkpt lat="44.80503246111568" lon="9.341761925379208"><ele>1034.0</ele><time>2026-04-24T13:04:20Z</time></trkpt><trkpt lat="44.80515606986838" lon="9.341664895650242"><ele>1034.0</ele><time>2026-04-24T13:04:21Z</time></trkpt><trkpt lat="44.80526279916259" lon="9.34158562920345"><ele>1034.0</ele><time>2026-04-24T13:04:22Z</time></trkpt><trkpt lat="44.80536159915748" lon="9.341516632505034"><ele>1035.0</ele><time>2026-04-24T13:04:23Z</time></trkpt><trkpt lat="44.80544946698933" lon="9.34148585750622"><ele>1036.0</ele><time>2026-04-24T13:04:24Z</time></trkpt><trkpt lat="44.805540126314426" lon="9.34146954287526"><ele>1037.0</ele><time>2026-04-24T13:04:25Z</time></trkpt><trkpt lat="44.805650338997324" lon="9.341452162346371"><ele>1038.0</ele><time>2026-04-24T13:04:26Z</time></trkpt><trkpt lat="44.80577823627571" lon="9.341430007077761"><ele>1039.0</ele><time>2026-04-24T13:04:27Z</time></trkpt><trkpt lat="44.80590580577531" lon="9.341409790597892"><ele>1035.6000000000001</ele><time>2026-04-24T13:04:28Z</time></trkpt><trkpt lat="44.80601611955412" lon="9.341386335477143"><ele>1032.2</ele><time>2026-04-24T13:04:29Z</time></trkpt><trkpt lat="44.806112042394915" lon="9.341437628978658"><ele>1028.8000000000002</ele><time>2026-04-24T13:04:30Z</time></trkpt><trkpt lat="44.806196040903245" lon="9.341479314143918"><ele>1025.4</ele><time>2026-04-24T13:04:31Z</time></trkpt><trkpt lat="44.806264236066426" lon="9.34158639192902"><ele>1022.0</ele><time>2026-04-24T13:04:32Z</time></trkpt><trkpt lat="44.806336474552474" lon="9.34170022687818"><ele>1022.0</ele><time>2026-04-24T13:04:33Z</time></trkpt><trkpt lat="44.80642070070525" lon="9.341842235945109"><ele>1022.0</ele><time>2026-04-24T13:04:34Z</time></trkpt><trkpt lat="44.806525413122415" lon="9.341978451797251"><ele>1022.0</ele><time>2026-04-24T13:04:35Z</time></trkpt><trkpt lat="44.80665036906257" lon="9.342066389181614"><ele>1022.0</ele><time>2026-04-24T13:04:36Z</time></trkpt><trkpt lat="44.806762054383384" lon="9.342156641536821"><ele>1022.25</ele><time>2026-04-24T13:04:37Z</time></trkpt><trkpt lat="44.806859800370155" lon="9.34221748136623"><ele>1022.5</ele><time>2026-04-24T13:04:38Z</time></trkpt><trkpt lat="44.80696468378753" lon="9.342261092769201"><ele>1022.75</ele><time>2026-04-24T13:04:39Z</time></trkpt><trkpt lat="44.80707295203459" lon="9.342256525195133"><ele>1023.0</ele><time>2026-04-24T13:04:40Z</time></trkpt><trkpt lat="44.807202483737434" lon="9.342219089673147"><ele>1020.75</ele><time>2026-04-24T13:04:41Z</time></trkpt><trkpt lat="44.80735251842988" lon="9.342123689475951"><ele>1018.5</ele><time>2026-04-24T13:04:42Z</time></trkpt><trkpt lat="44.80747902347331" lon="9.342035331258542"><ele>1016.25</ele><time>2026-04-24T13:04:43Z</time></trkpt><trkpt lat="44.807590001061364" lon="9.341923292638333"><ele>1014.0</ele><time>2026-04-24T13:04:44Z</time></trkpt><trkpt lat="44.80766717618696" lon="9.341761039121034"><ele>1007.5</ele><time>2026-04-24T13:04:45Z</time></trkpt><trkpt lat="44.80770605084295" lon="9.341605116835861"><ele>1001.0</ele><time>2026-04-24T13:04:46Z</time></trkpt><trkpt lat="44.80777540542572" lon="9.341464496837434"><ele>994.5</ele><time>2026-04-24T13:04:47Z</time></trkpt><trkpt lat="44.80779199142083" lon="9.341325826283368"><ele>988.0</ele><time>2026-04-24T13:04:48Z</time></trkpt><trkpt lat="44.80780977503647" lon="9.341152971206018"><ele>988.0</ele><time>2026-04-24T13:04:49Z</time></trkpt><trkpt lat="44.80782302079078" lon="9.34098783735209"><ele>988.0</ele><time>2026-04-24T13:04:49.999Z</time></trkpt><trkpt lat="44.807801579958344" lon="9.340809287834873"><ele>988.0</ele><time>2026-04-24T13:04:50.999Z</time></trkpt><trkpt lat="44.8077655552422" lon="9.34061746296379"><ele>988.0</ele><time>2026-04-24T13:04:51.999Z</time></trkpt><trkpt lat="44.80769193633829" lon="9.34044137565103"><ele>991.25</ele><time>2026-04-24T13:04:52.999Z</time></trkpt><trkpt lat="44.80761323942263" lon="9.340304112926399"><ele>994.5</ele><time>2026-04-24T13:04:53.999Z</time></trkpt><trkpt lat="44.80753263320019" lon="9.340165037756737"><ele>997.75</ele><time>2026-04-24T13:04:54.999Z</time></trkpt><trkpt lat="44.80740642156646" lon="9.340048456091408"><ele>1001.0</ele><time>2026-04-24T13:04:55.999Z</time></trkpt><trkpt lat="44.80726379742515" lon="9.339954733821594"><ele>1001.0</ele><time>2026-04-24T13:04:56.999Z</time></trkpt><trkpt lat="44.80710435690788" lon="9.339906004309798"><ele>1001.0</ele><time>2026-04-24T13:04:57.999Z</time></trkpt><trkpt lat="44.80696435189808" lon="9.339851316048575"><ele>1001.0</ele><time>2026-04-24T13:04:58.999Z</time></trkpt><trkpt lat="44.80683890666851" lon="9.339767071763319"><ele>1001.0</ele><time>2026-04-24T13:04:59.999Z</time></trkpt><trkpt lat="44.806734519729154" lon="9.339692719892167"><ele>998.5999999999999</ele><time>2026-04-24T13:05:00.999Z</time></trkpt><trkpt lat="44.80666827747714" lon="9.339584940575394"><ele>996.1999999999999</ele><time>2026-04-24T13:05:01.999Z</time></trkpt><trkpt lat="44.80664152146855" lon="9.339446031366725"><ele>993.8000000000001</ele><time>2026-04-24T13:05:02.999Z</time></trkpt><trkpt lat="44.80665480163021" lon="9.339321393859501"><ele>991.4000000000001</ele><time>2026-04-24T13:05:03.999Z</time></trkpt><trkpt lat="44.80668618685361" lon="9.339232808632097"><ele>989.0</ele><time>2026-04-24T13:05:04.999Z</time></trkpt><trkpt lat="44.806779389301305" lon="9.339132971533246"><ele>988.0</ele><time>2026-04-24T13:05:05.999Z</time></trkpt><trkpt lat="44.80690516019178" lon="9.339080424210872"><ele>987.0</ele><time>2026-04-24T13:05:06.999Z</time></trkpt><trkpt lat="44.80704475470748" lon="9.339028800047886"><ele>986.0</ele><time>2026-04-24T13:05:07.999Z</time></trkpt><trkpt lat="44.80718443511926" lon="9.338997614075561"><ele>985.0</ele><time>2026-04-24T13:05:08.999Z</time></trkpt><trkpt lat="44.80731248318313" lon="9.33897590102814"><ele>985.0</ele><time>2026-04-24T13:05:09.999Z</time></trkpt><trkpt lat="44.807422492352664" lon="9.338936265822333"><ele>985.0</ele><time>2026-04-24T13:05:10.999Z</time></trkpt><trkpt lat="44.80752682973865" lon="9.338969593770422"><ele>985.0</ele><time>2026-04-24T13:05:11.999Z</time></trkpt><trkpt lat="44.807597161061466" lon="9.339080755169972"><ele>985.0</ele><time>2026-04-24T13:05:12.999Z</time></trkpt><trkpt lat="44.80763997394998" lon="9.339170825042382"><ele>985.0</ele><time>2026-04-24T13:05:13.999Z</time></trkpt><trkpt lat="44.80768154524266" lon="9.339263111161745"><ele>982.8333333333333</ele><time>2026-04-24T13:05:14.999Z</time></trkpt><trkpt lat="44.80773651125041" lon="9.339363439820374"><ele>980.6666666666666</ele><time>2026-04-24T13:05:15.999Z</time></trkpt><trkpt lat="44.80778143575496" lon="9.339456456057329"><ele>978.5</ele><time>2026-04-24T13:05:16.999Z</time></trkpt><trkpt lat="44.807832406910855" lon="9.339530347770012"><ele>976.3333333333333</ele><time>2026-04-24T13:05:17.999Z</time></trkpt><trkpt lat="44.80790430388586" lon="9.339540659687389"><ele>974.1666666666666</ele><time>2026-04-24T13:05:18.999Z</time></trkpt><trkpt lat="44.80798476156933" lon="9.339528072092152"><ele>972.0</ele><time>2026-04-24T13:05:19.999Z</time></trkpt><trkpt lat="44.80806728680109" lon="9.33944317321755"><ele>972.0</ele><time>2026-04-24T13:05:20.999Z</time></trkpt><trkpt lat="44.8081190695516" lon="9.339249461896738"><ele>972.0</ele><time>2026-04-24T13:05:22.999Z</time></trkpt><trkpt lat="44.80813048923254" lon="9.339105048294162"><ele>972.0</ele><time>2026-04-24T13:05:23.999Z</time></trkpt><trkpt lat="44.80813308731572" lon="9.338996118425744"><ele>972.0</ele><time>2026-04-24T13:05:24.999Z</time></trkpt><trkpt lat="44.80813495123515" lon="9.338898408447495"><ele>972.0</ele><time>2026-04-24T13:05:25.999Z</time></trkpt><trkpt lat="44.80813620585246" lon="9.338781922738477"><ele>970.6</ele><time>2026-04-24T13:05:26.999Z</time></trkpt><trkpt lat="44.80813406668378" lon="9.338655268555298"><ele>969.2</ele><time>2026-04-24T13:05:27.999Z</time></trkpt><trkpt lat="44.80812825323158" lon="9.338525219662177"><ele>967.8</ele><time>2026-04-24T13:05:28.999Z</time></trkpt><trkpt lat="44.80810823087531" lon="9.338358790820042"><ele>966.4</ele><time>2026-04-24T13:05:29.999Z</time></trkpt><trkpt lat="44.808067349228224" lon="9.338223034699103"><ele>965.0</ele><time>2026-04-24T13:05:30.999Z</time></trkpt><trkpt lat="44.80800829745117" lon="9.338116019682136"><ele>965.8</ele><time>2026-04-24T13:05:31.999Z</time></trkpt><trkpt lat="44.80794664238561" lon="9.337997003603798"><ele>966.6</ele><time>2026-04-24T13:05:32.999Z</time></trkpt><trkpt lat="44.807870886997186" lon="9.337905740756021"><ele>967.4000000000001</ele><time>2026-04-24T13:05:33.999Z</time></trkpt><trkpt lat="44.807799870965184" lon="9.337794561262404"><ele>968.2</ele><time>2026-04-24T13:05:34.999Z</time></trkpt><trkpt lat="44.807730376895414" lon="9.337698677057821"><ele>969.0</ele><time>2026-04-24T13:05:35.999Z</time></trkpt><trkpt lat="44.8076563715516" lon="9.337615991889605"><ele>969.0</ele><time>2026-04-24T13:05:36.999Z</time></trkpt><trkpt lat="44.80759554191888" lon="9.337539881776939"><ele>969.0</ele><time>2026-04-24T13:05:37.999Z</time></trkpt><trkpt lat="44.8075434813244" lon="9.337467889880314"><ele>969.0</ele><time>2026-04-24T13:05:38.999Z</time></trkpt><trkpt lat="44.80745171027513" lon="9.337432098718683"><ele>969.0</ele><time>2026-04-24T13:05:39.999Z</time></trkpt><trkpt lat="44.80738918940655" lon="9.33737885121787"><ele>969.0</ele><time>2026-04-24T13:05:40.999Z</time></trkpt><trkpt lat="44.80727926096812" lon="9.337347685433548"><ele>969.0</ele><time>2026-04-24T13:05:41.999Z</time></trkpt><trkpt lat="44.807169195989076" lon="9.337332062117"><ele>969.0</ele><time>2026-04-24T13:05:42.999Z</time></trkpt><trkpt lat="44.80704570634671" lon="9.337319362861209"><ele>969.0</ele><time>2026-04-24T13:05:43.999Z</time></trkpt><trkpt lat="44.80693450078651" lon="9.337307578823944"><ele>969.0</ele><time>2026-04-24T13:05:44.999Z</time></trkpt><trkpt lat="44.80683586500875" lon="9.337288189663866"><ele>969.0</ele><time>2026-04-24T13:05:45.999Z</time></trkpt><trkpt lat="44.80671951079476" lon="9.337229069263655"><ele>966.75</ele><time>2026-04-24T13:05:46.999Z</time></trkpt><trkpt lat="44.80663367760094" lon="9.337149552307169"><ele>964.5</ele><time>2026-04-24T13:05:47.999Z</time></trkpt><trkpt lat="44.80655434311232" lon="9.337037344110334"><ele>962.25</ele><time>2026-04-24T13:05:48.999Z</time></trkpt><trkpt lat="44.80646944926763" lon="9.336900114542528"><ele>960.0</ele><time>2026-04-24T13:05:49.999Z</time></trkpt><trkpt lat="44.80639910581682" lon="9.336756728085057"><ele>960.0</ele><time>2026-04-24T13:05:50.999Z</time></trkpt><trkpt lat="44.8063484754265" lon="9.336616649576193"><ele>960.0</ele><time>2026-04-24T13:05:51.999Z</time></trkpt><trkpt lat="44.80636488573609" lon="9.33643255717814"><ele>960.0</ele><time>2026-04-24T13:05:52.999Z</time></trkpt><trkpt lat="44.80640084507239" lon="9.336264372585141"><ele>960.0</ele><time>2026-04-24T13:05:53.999Z</time></trkpt><trkpt lat="44.80646722373614" lon="9.336088709156803"><ele>960.25</ele><time>2026-04-24T13:05:54.999Z</time></trkpt><trkpt lat="44.80651878536917" lon="9.335906089371091"><ele>960.5</ele><time>2026-04-24T13:05:55.999Z</time></trkpt><trkpt lat="44.806575555733524" lon="9.335716028922606"><ele>960.75</ele><time>2026-04-24T13:05:56.999Z</time></trkpt><trkpt lat="44.80663866556235" lon="9.335550056117226"><ele>961.0</ele><time>2026-04-24T13:05:57.999Z</time></trkpt><trkpt lat="44.80668378617157" lon="9.335395065993193"><ele>960.4</ele><time>2026-04-24T13:05:58.999Z</time></trkpt><trkpt lat="44.806726254624685" lon="9.335251387867839"><ele>959.8</ele><time>2026-04-24T13:05:59.998Z</time></trkpt><trkpt lat="44.80675871654685" lon="9.335116177554353"><ele>959.1999999999999</ele><time>2026-04-24T13:06:00.998Z</time></trkpt><trkpt lat="44.8067493481895" lon="9.334993646109178"><ele>958.5999999999999</ele><time>2026-04-24T13:06:01.998Z</time></trkpt><trkpt lat="44.80671538297251" lon="9.334899298150788"><ele>958.0</ele><time>2026-04-24T13:06:02.998Z</time></trkpt><trkpt lat="44.806641342935215" lon="9.334837555998638"><ele>958.0</ele><time>2026-04-24T13:06:03.998Z</time></trkpt><trkpt lat="44.8065456495574" lon="9.334783324102906"><ele>958.0</ele><time>2026-04-24T13:06:04.998Z</time></trkpt><trkpt lat="44.80643750464115" lon="9.334741510991591"><ele>958.0</ele><time>2026-04-24T13:06:05.998Z</time></trkpt><trkpt lat="44.8063265722302" lon="9.33470497012665"><ele>958.0</ele><time>2026-04-24T13:06:06.998Z</time></trkpt><trkpt lat="44.80624009935703" lon="9.334583305166959"><ele>955.5</ele><time>2026-04-24T13:06:07.998Z</time></trkpt><trkpt lat="44.80617400386277" lon="9.334429553062298"><ele>953.0</ele><time>2026-04-24T13:06:08.998Z</time></trkpt><trkpt lat="44.80611703111566" lon="9.33426804965681"><ele>950.5</ele><time>2026-04-24T13:06:09.998Z</time></trkpt><trkpt lat="44.80608843885007" lon="9.334098412586735"><ele>948.0</ele><time>2026-04-24T13:06:10.998Z</time></trkpt><trkpt lat="44.80607464814032" lon="9.333928276251605"><ele>948.5</ele><time>2026-04-24T13:06:11.998Z</time></trkpt><trkpt lat="44.806043839083806" lon="9.333780340008598"><ele>949.0</ele><time>2026-04-24T13:06:12.998Z</time></trkpt><trkpt lat="44.80597940714814" lon="9.333658710746944"><ele>949.5</ele><time>2026-04-24T13:06:13.998Z</time></trkpt><trkpt lat="44.80588756242774" lon="9.333552929000662"><ele>950.0</ele><time>2026-04-24T13:06:14.998Z</time></trkpt><trkpt lat="44.805787262484344" lon="9.333435815432916"><ele>950.0</ele><time>2026-04-24T13:06:15.998Z</time></trkpt><trkpt lat="44.80568691926675" lon="9.333322256780924"><ele>950.0</ele><time>2026-04-24T13:06:16.998Z</time></trkpt><trkpt lat="44.80559567555519" lon="9.33322483500254"><ele>950.0</ele><time>2026-04-24T13:06:17.998Z</time></trkpt><trkpt lat="44.80552893054275" lon="9.333120112982884"><ele>950.0</ele><time>2026-04-24T13:06:18.998Z</time></trkpt><trkpt lat="44.80545252273368" lon="9.333024088302173"><ele>950.0</ele><time>2026-04-24T13:06:19.998Z</time></trkpt><trkpt lat="44.80542122661386" lon="9.33288619002785"><ele>949.5</ele><time>2026-04-24T13:06:20.998Z</time></trkpt><trkpt lat="44.80545951505369" lon="9.332766013341963"><ele>949.0</ele><time>2026-04-24T13:06:21.998Z</time></trkpt><trkpt lat="44.805464714794" lon="9.332610830468395"><ele>948.5</ele><time>2026-04-24T13:06:22.998Z</time></trkpt><trkpt lat="44.80553409216449" lon="9.332483034370119"><ele>948.0</ele><time>2026-04-24T13:06:23.998Z</time></trkpt><trkpt lat="44.80561577867234" lon="9.332310026446393"><ele>947.5</ele><time>2026-04-24T13:06:24.998Z</time></trkpt><trkpt lat="44.80563778909391" lon="9.332110115527145"><ele>947.0</ele><time>2026-04-24T13:06:25.998Z</time></trkpt><trkpt lat="44.805626788712765" lon="9.33191944682963"><ele>946.5</ele><time>2026-04-24T13:06:26.998Z</time></trkpt><trkpt lat="44.80561312938031" lon="9.331735070201747"><ele>946.0</ele><time>2026-04-24T13:06:27.998Z</time></trkpt><trkpt lat="44.80558488042479" lon="9.331572241818794"><ele>946.0</ele><time>2026-04-24T13:06:28.998Z</time></trkpt><trkpt lat="44.80557559935305" lon="9.331424243892569"><ele>945.9999999999999</ele><time>2026-04-24T13:06:29.998Z</time></trkpt><trkpt lat="44.80552889061802" lon="9.331304477579367"><ele>945.9999999999999</ele><time>2026-04-24T13:06:30.998Z</time></trkpt><trkpt lat="44.80545143465566" lon="9.331218401922673"><ele>946.0</ele><time>2026-04-24T13:06:31.998Z</time></trkpt><trkpt lat="44.805359328414006" lon="9.33112962966709"><ele>946.0</ele><time>2026-04-24T13:06:32.998Z</time></trkpt><trkpt lat="44.80525785103338" lon="9.331100864637126"><ele>944.5999999999999</ele><time>2026-04-24T13:06:33.998Z</time></trkpt><trkpt lat="44.80516338100613" lon="9.331070468165986"><ele>943.1999999999999</ele><time>2026-04-24T13:06:34.998Z</time></trkpt><trkpt lat="44.80507315759329" lon="9.331012815637326"><ele>941.8000000000001</ele><time>2026-04-24T13:06:35.998Z</time></trkpt><trkpt lat="44.8049910155886" lon="9.330920355815318"><ele>940.4000000000001</ele><time>2026-04-24T13:06:36.998Z</time></trkpt><trkpt lat="44.80491287377145" lon="9.33081610168323"><ele>939.0</ele><time>2026-04-24T13:06:37.998Z</time></trkpt><trkpt lat="44.804831530228" lon="9.330710947152562"><ele>942.5</ele><time>2026-04-24T13:06:38.998Z</time></trkpt><trkpt lat="44.8047514784309" lon="9.330588705508518"><ele>946.0</ele><time>2026-04-24T13:06:39.998Z</time></trkpt><trkpt lat="44.804662753348495" lon="9.330471015227541"><ele>949.5</ele><time>2026-04-24T13:06:40.998Z</time></trkpt><trkpt lat="44.804584071770314" lon="9.33032820242498"><ele>953.0</ele><time>2026-04-24T13:06:41.998Z</time></trkpt><trkpt lat="44.804495026447704" lon="9.330203421767674"><ele>953.0</ele><time>2026-04-24T13:06:42.998Z</time></trkpt><trkpt lat="44.804444583784495" lon="9.330019951590014"><ele>953.0</ele><time>2026-04-24T13:06:43.998Z</time></trkpt><trkpt lat="44.804400530705" lon="9.329820949936957"><ele>953.0</ele><time>2026-04-24T13:06:44.998Z</time></trkpt><trkpt lat="44.80436818468005" lon="9.329604808011277"><ele>953.0</ele><time>2026-04-24T13:06:45.998Z</time></trkpt><trkpt lat="44.80433123378542" lon="9.329381634737631"><ele>956.6666666666667</ele><time>2026-04-24T13:06:46.998Z</time></trkpt><trkpt lat="44.80429553767342" lon="9.32915924513644"><ele>960.3333333333333</ele><time>2026-04-24T13:06:47.998Z</time></trkpt><trkpt lat="44.80423572779104" lon="9.32893008233596"><ele>964.0</ele><time>2026-04-24T13:06:48.998Z</time></trkpt><trkpt lat="44.80420300945379" lon="9.328665071473468"><ele>964.6666666666666</ele><time>2026-04-24T13:06:49.998Z</time></trkpt><trkpt lat="44.804213224611" lon="9.328381597746455"><ele>965.3333333333333</ele><time>2026-04-24T13:06:50.998Z</time></trkpt><trkpt lat="44.80423805330497" lon="9.328063052120013"><ele>966.0</ele><time>2026-04-24T13:06:51.998Z</time></trkpt><trkpt lat="44.804242825252004" lon="9.32780291451222"><ele>966.3333333333333</ele><time>2026-04-24T13:06:52.998Z</time></trkpt><trkpt lat="44.804239179859884" lon="9.327520812199479"><ele>966.6666666666666</ele><time>2026-04-24T13:06:53.998Z</time></trkpt><trkpt lat="44.804242615732775" lon="9.327251221535558"><ele>967.0</ele><time>2026-04-24T13:06:54.998Z</time></trkpt><trkpt lat="44.8042696195835" lon="9.327020808262384"><ele>967.0</ele><time>2026-04-24T13:06:55.998Z</time></trkpt><trkpt lat="44.804286286759414" lon="9.326819900422292"><ele>967.0</ele><time>2026-04-24T13:06:56.998Z</time></trkpt><trkpt lat="44.804314990697506" lon="9.326662142567464"><ele>967.0</ele><time>2026-04-24T13:06:57.998Z</time></trkpt><trkpt lat="44.80435133517725" lon="9.326554855463812"><ele>967.0</ele><time>2026-04-24T13:06:58.998Z</time></trkpt><trkpt lat="44.80443736374227" lon="9.326403013284462"><ele>963.75</ele><time>2026-04-24T13:06:59.998Z</time></trkpt><trkpt lat="44.80453216946666" lon="9.326288015347759"><ele>960.5</ele><time>2026-04-24T13:07:00.998Z</time></trkpt><trkpt lat="44.804645111903774" lon="9.326147728624061"><ele>957.25</ele><time>2026-04-24T13:07:01.998Z</time></trkpt><trkpt lat="44.80475702446405" lon="9.326006561899797"><ele>954.0</ele><time>2026-04-24T13:07:02.998Z</time></trkpt><trkpt lat="44.80487032079743" lon="9.325861168561012"><ele>954.0</ele><time>2026-04-24T13:07:03.998Z</time></trkpt><trkpt lat="44.80497455187725" lon="9.325706479048137"><ele>954.0</ele><time>2026-04-24T13:07:04.998Z</time></trkpt><trkpt lat="44.80506764558746" lon="9.32555093979471"><ele>954.0</ele><time>2026-04-24T13:07:05.998Z</time></trkpt><trkpt lat="44.80515646085454" lon="9.325401049802435"><ele>954.0</ele><time>2026-04-24T13:07:06.998Z</time></trkpt><trkpt lat="44.80524792902298" lon="9.32526527144703"><ele>953.5</ele><time>2026-04-24T13:07:07.998Z</time></trkpt><trkpt lat="44.80534069865654" lon="9.325121790331353"><ele>953.0</ele><time>2026-04-24T13:07:08.998Z</time></trkpt><trkpt lat="44.805395246052385" lon="9.324955485365466"><ele>952.5</ele><time>2026-04-24T13:07:09.997Z</time></trkpt><trkpt lat="44.80542878171121" lon="9.324813299451144"><ele>952.0</ele><time>2026-04-24T13:07:10.997Z</time></trkpt><trkpt lat="44.805434040803725" lon="9.324671200621681"><ele>952.8</ele><time>2026-04-24T13:07:11.997Z</time></trkpt><trkpt lat="44.80544833462914" lon="9.324524701819609"><ele>953.6</ele><time>2026-04-24T13:07:12.997Z</time></trkpt><trkpt lat="44.80550531204072" lon="9.324449670984855"><ele>954.3999999999999</ele><time>2026-04-24T13:07:13.997Z</time></trkpt><trkpt lat="44.80556868453694" lon="9.324387599786442"><ele>955.1999999999999</ele><time>2026-04-24T13:07:14.997Z</time></trkpt><trkpt lat="44.80569066768162" lon="9.32443542342601"><ele>956.0</ele><time>2026-04-24T13:07:16.997Z</time></trkpt><trkpt lat="44.805790050259134" lon="9.324532933361695"><ele>956.0</ele><time>2026-04-24T13:07:17.997Z</time></trkpt><trkpt lat="44.80589220098248" lon="9.324584263831206"><ele>955.9999999999999</ele><time>2026-04-24T13:07:18.997Z</time></trkpt><trkpt lat="44.80599269965126" lon="9.324560795049594"><ele>955.9999999999999</ele><time>2026-04-24T13:07:19.997Z</time></trkpt><trkpt lat="44.806077212168496" lon="9.324457207036733"><ele>956.0</ele><time>2026-04-24T13:07:20.997Z</time></trkpt><trkpt lat="44.80616314021617" lon="9.324339583199475"><ele>956.0</ele><time>2026-04-24T13:07:21.997Z</time></trkpt><trkpt lat="44.80624642380134" lon="9.324203880987433"><ele>956.25</ele><time>2026-04-24T13:07:22.997Z</time></trkpt><trkpt lat="44.80632861089049" lon="9.324051804821348"><ele>956.5</ele><time>2026-04-24T13:07:23.997Z</time></trkpt><trkpt lat="44.806400504661944" lon="9.323871463493472"><ele>956.75</ele><time>2026-04-24T13:07:24.997Z</time></trkpt><trkpt lat="44.80644388253165" lon="9.323690049572626"><ele>957.0</ele><time>2026-04-24T13:07:25.997Z</time></trkpt><trkpt lat="44.806471419685344" lon="9.323531964510503"><ele>957.0</ele><time>2026-04-24T13:07:26.997Z</time></trkpt><trkpt lat="44.8065004766515" lon="9.32340475168044"><ele>957.0</ele><time>2026-04-24T13:07:27.997Z</time></trkpt><trkpt lat="44.8065580539708" lon="9.323294988349966"><ele>957.0</ele><time>2026-04-24T13:07:28.997Z</time></trkpt><trkpt lat="44.80663626155936" lon="9.323207604883741"><ele>957.0</ele><time>2026-04-24T13:07:29.997Z</time></trkpt><trkpt lat="44.80672991119857" lon="9.323141944832098"><ele>957.0</ele><time>2026-04-24T13:07:30.997Z</time></trkpt><trkpt lat="44.806818964099506" lon="9.323099667520808"><ele>956.8</ele><time>2026-04-24T13:07:31.997Z</time></trkpt><trkpt lat="44.806915960386505" lon="9.3230820351103"><ele>956.6</ele><time>2026-04-24T13:07:32.997Z</time></trkpt><trkpt lat="44.80702534897067" lon="9.323115226491117"><ele>956.3999999999999</ele><time>2026-04-24T13:07:33.997Z</time></trkpt><trkpt lat="44.80714251819432" lon="9.323172759766013"><ele>956.1999999999999</ele><time>2026-04-24T13:07:34.997Z</time></trkpt><trkpt lat="44.80725684662705" lon="9.323166338708672"><ele>956.0</ele><time>2026-04-24T13:07:35.997Z</time></trkpt><trkpt lat="44.807359051909756" lon="9.323209712218697"><ele>956.0</ele><time>2026-04-24T13:07:36.997Z</time></trkpt><trkpt lat="44.80744156307545" lon="9.323252181001537"><ele>955.9999999999999</ele><time>2026-04-24T13:07:37.997Z</time></trkpt><trkpt lat="44.80753804341606" lon="9.323313678556644"><ele>955.9999999999999</ele><time>2026-04-24T13:07:38.997Z</time></trkpt><trkpt lat="44.807618359365854" lon="9.32341712932123"><ele>956.0</ele><time>2026-04-24T13:07:39.997Z</time></trkpt><trkpt lat="44.807739748493944" lon="9.323454279898263"><ele>956.0</ele><time>2026-04-24T13:07:40.997Z</time></trkpt><trkpt lat="44.807856432462145" lon="9.3234720589688"><ele>955.5</ele><time>2026-04-24T13:07:41.997Z</time></trkpt><trkpt lat="44.8079869987125" lon="9.32350931509061"><ele>955.0</ele><time>2026-04-24T13:07:42.997Z</time></trkpt><trkpt lat="44.80810300424095" lon="9.32352428443288"><ele>954.5</ele><time>2026-04-24T13:07:43.997Z</time></trkpt><trkpt lat="44.80822377821727" lon="9.323539869147536"><ele>954.0</ele><time>2026-04-24T13:07:44.997Z</time></trkpt><trkpt lat="44.80833338333665" lon="9.323554386452628"><ele>954.0</ele><time>2026-04-24T13:07:45.997Z</time></trkpt><trkpt lat="44.80844242899386" lon="9.323537208246771"><ele>954.0000000000001</ele><time>2026-04-24T13:07:46.997Z</time></trkpt><trkpt lat="44.80854818132104" lon="9.32356586940943"><ele>954.0000000000001</ele><time>2026-04-24T13:07:47.997Z</time></trkpt><trkpt lat="44.808660878727565" lon="9.323604066926645"><ele>954.0</ele><time>2026-04-24T13:07:48.997Z</time></trkpt><trkpt lat="44.808732339750065" lon="9.323718629259428"><ele>954.0</ele><time>2026-04-24T13:07:49.997Z</time></trkpt><trkpt lat="44.80882040778918" lon="9.323860865271575"><ele>952.0</ele><time>2026-04-24T13:07:50.997Z</time></trkpt><trkpt lat="44.808898092832706" lon="9.323932572479954"><ele>950.0</ele><time>2026-04-24T13:07:51.997Z</time></trkpt><trkpt lat="44.809029849248034" lon="9.323953600828169"><ele>948.0</ele><time>2026-04-24T13:07:52.997Z</time></trkpt><trkpt lat="44.80916597554237" lon="9.323974294704282"><ele>946.0</ele><time>2026-04-24T13:07:53.997Z</time></trkpt><trkpt lat="44.80932057543954" lon="9.323978028712853"><ele>944.75</ele><time>2026-04-24T13:07:54.997Z</time></trkpt><trkpt lat="44.809467507793045" lon="9.323985308442"><ele>943.5</ele><time>2026-04-24T13:07:55.997Z</time></trkpt><trkpt lat="44.80961622987288" lon="9.324002949771522"><ele>942.25</ele><time>2026-04-24T13:07:56.997Z</time></trkpt><trkpt lat="44.80976660149075" lon="9.324029274956139"><ele>941.0</ele><time>2026-04-24T13:07:57.997Z</time></trkpt><trkpt lat="44.80990014515878" lon="9.324013872325033"><ele>941.0</ele><time>2026-04-24T13:07:58.997Z</time></trkpt><trkpt lat="44.81004887639634" lon="9.324019677398008"><ele>941.0</ele><time>2026-04-24T13:07:59.997Z</time></trkpt><trkpt lat="44.81020177331667" lon="9.324027511316636"><ele>941.0</ele><time>2026-04-24T13:08:00.997Z</time></trkpt><trkpt lat="44.81035591032384" lon="9.324064236349814"><ele>941.0</ele><time>2026-04-24T13:08:01.997Z</time></trkpt><trkpt lat="44.810509707088535" lon="9.324164524030278"><ele>941.0</ele><time>2026-04-24T13:08:02.997Z</time></trkpt><trkpt lat="44.81065587409807" lon="9.324256159772808"><ele>941.0</ele><time>2026-04-24T13:08:03.997Z</time></trkpt><trkpt lat="44.8107982951317" lon="9.32432481070623"><ele>941.0</ele><time>2026-04-24T13:08:04.997Z</time></trkpt><trkpt lat="44.810928509365304" lon="9.324403648456988"><ele>941.0</ele><time>2026-04-24T13:08:05.997Z</time></trkpt><trkpt lat="44.811038802246834" lon="9.32448164060782"><ele>941.0</ele><time>2026-04-24T13:08:06.997Z</time></trkpt><trkpt lat="44.81114246416104" lon="9.324514824509906"><ele>941.0</ele><time>2026-04-24T13:08:07.997Z</time></trkpt><trkpt lat="44.811236056617204" lon="9.324550880314376"><ele>940.8</ele><time>2026-04-24T13:08:08.997Z</time></trkpt><trkpt lat="44.81132978093173" lon="9.324537757781338"><ele>940.5999999999999</ele><time>2026-04-24T13:08:09.997Z</time></trkpt><trkpt lat="44.8114182580655" lon="9.324462833411786"><ele>940.4</ele><time>2026-04-24T13:08:10.997Z</time></trkpt><trkpt lat="44.81150813435775" lon="9.324395996989777"><ele>940.2</ele><time>2026-04-24T13:08:11.997Z</time></trkpt><trkpt lat="44.81160228140881" lon="9.324444140070778"><ele>940.0</ele><time>2026-04-24T13:08:12.997Z</time></trkpt><trkpt lat="44.81171125789277" lon="9.324502947695004"><ele>940.0</ele><time>2026-04-24T13:08:13.997Z</time></trkpt><trkpt lat="44.81182244029558" lon="9.324522236373067"><ele>940.0</ele><time>2026-04-24T13:08:14.997Z</time></trkpt><trkpt lat="44.81195457315208" lon="9.324528355092768"><ele>940.0</ele><time>2026-04-24T13:08:15.997Z</time></trkpt><trkpt lat="44.812079234817666" lon="9.324525516882117"><ele>940.0</ele><time>2026-04-24T13:08:16.997Z</time></trkpt><trkpt lat="44.812206688520725" lon="9.324452568986763"><ele>937.5</ele><time>2026-04-24T13:08:17.997Z</time></trkpt><trkpt lat="44.81233213522495" lon="9.324405053089261"><ele>935.0</ele><time>2026-04-24T13:08:18.996Z</time></trkpt><trkpt lat="44.81244633723775" lon="9.324365620151791"><ele>932.5</ele><time>2026-04-24T13:08:19.996Z</time></trkpt><trkpt lat="44.81254539580755" lon="9.324307791903655"><ele>930.0</ele><time>2026-04-24T13:08:20.996Z</time></trkpt><trkpt lat="44.81265139680321" lon="9.324283271968628"><ele>926.6666666666666</ele><time>2026-04-24T13:08:21.996Z</time></trkpt><trkpt lat="44.81275451515586" lon="9.324251058732337"><ele>923.3333333333333</ele><time>2026-04-24T13:08:22.996Z</time></trkpt><trkpt lat="44.81283442321848" lon="9.324208433740901"><ele>920.0</ele><time>2026-04-24T13:08:23.996Z</time></trkpt><trkpt lat="44.81291278253066" lon="9.324163165786677"><ele>916.6666666666666</ele><time>2026-04-24T13:08:24.996Z</time></trkpt><trkpt lat="44.81297401047051" lon="9.324120792791037"><ele>913.3333333333333</ele><time>2026-04-24T13:08:25.996Z</time></trkpt><trkpt lat="44.81304233104202" lon="9.32415055730494"><ele>910.0</ele><time>2026-04-24T13:08:27.996Z</time></trkpt><trkpt lat="44.813036124616524" lon="9.324303376431835"><ele>910.0</ele><time>2026-04-24T13:08:29.996Z</time></trkpt><trkpt lat="44.81299429256966" lon="9.324381458884124"><ele>910.0</ele><time>2026-04-24T13:08:30.996Z</time></trkpt><trkpt lat="44.812899865543514" lon="9.324439899808272"><ele>910.0</ele><time>2026-04-24T13:08:31.996Z</time></trkpt><trkpt lat="44.81279133497321" lon="9.324490634547997"><ele>910.0</ele><time>2026-04-24T13:08:32.996Z</time></trkpt><trkpt lat="44.81272083462879" lon="9.324596709220083"><ele>910.0</ele><time>2026-04-24T13:08:33.996Z</time></trkpt><trkpt lat="44.812646616509845" lon="9.32471508197739"><ele>909.25</ele><time>2026-04-24T13:08:34.996Z</time></trkpt><trkpt lat="44.812576862741395" lon="9.324825165727013"><ele>908.5</ele><time>2026-04-24T13:08:35.996Z</time></trkpt><trkpt lat="44.812500050761784" lon="9.32496214770515"><ele>907.75</ele><time>2026-04-24T13:08:36.996Z</time></trkpt><trkpt lat="44.81240667442502" lon="9.325065280297997"><ele>907.0</ele><time>2026-04-24T13:08:37.996Z</time></trkpt><trkpt lat="44.812276478522556" lon="9.325028224959832"><ele>907.0</ele><time>2026-04-24T13:08:38.996Z</time></trkpt><trkpt lat="44.81217409846309" lon="9.325019080574194"><ele>907.0</ele><time>2026-04-24T13:08:39.996Z</time></trkpt><trkpt lat="44.81207292517566" lon="9.325040812545732"><ele>907.0</ele><time>2026-04-24T13:08:40.996Z</time></trkpt><trkpt lat="44.812009652883525" lon="9.325109843208445"><ele>907.0</ele><time>2026-04-24T13:08:41.996Z</time></trkpt><trkpt lat="44.81199336890017" lon="9.325253252836351"><ele>907.0</ele><time>2026-04-24T13:08:43.996Z</time></trkpt><trkpt lat="44.812011494453515" lon="9.325390071612121"><ele>907.0</ele><time>2026-04-24T13:08:44.996Z</time></trkpt><trkpt lat="44.8120969428735" lon="9.325415305828454"><ele>907.0</ele><time>2026-04-24T13:08:45.996Z</time></trkpt><trkpt lat="44.81220813314483" lon="9.325350305985829"><ele>907.0</ele><time>2026-04-24T13:08:46.996Z</time></trkpt><trkpt lat="44.81235227392043" lon="9.325337884892946"><ele>907.0</ele><time>2026-04-24T13:08:47.996Z</time></trkpt><trkpt lat="44.812498157420436" lon="9.325350387888202"><ele>907.0</ele><time>2026-04-24T13:08:48.996Z</time></trkpt><trkpt lat="44.81262628139372" lon="9.325375676974547"><ele>907.0</ele><time>2026-04-24T13:08:49.996Z</time></trkpt><trkpt lat="44.81273141789577" lon="9.325412322433221"><ele>907.0</ele><time>2026-04-24T13:08:50.996Z</time></trkpt><trkpt lat="44.81284204743174" lon="9.32543120638645"><ele>907.0</ele><time>2026-04-24T13:08:51.996Z</time></trkpt><trkpt lat="44.8129483842235" lon="9.32542063925634"><ele>903.8</ele><time>2026-04-24T13:08:52.996Z</time></trkpt><trkpt lat="44.813028003900335" lon="9.325351251457056"><ele>900.6</ele><time>2026-04-24T13:08:53.996Z</time></trkpt><trkpt lat="44.81310715265141" lon="9.325232399930018"><ele>897.3999999999999</ele><time>2026-04-24T13:08:54.996Z</time></trkpt><trkpt lat="44.81318258749633" lon="9.325119570536511"><ele>894.1999999999999</ele><time>2026-04-24T13:08:55.996Z</time></trkpt><trkpt lat="44.813275016662224" lon="9.325023065436326"><ele>891.0</ele><time>2026-04-24T13:08:56.996Z</time></trkpt><trkpt lat="44.8133947640197" lon="9.324976056514627"><ele>888.0</ele><time>2026-04-24T13:08:57.996Z</time></trkpt><trkpt lat="44.813516926534426" lon="9.3249704198054"><ele>885.0</ele><time>2026-04-24T13:08:58.996Z</time></trkpt><trkpt lat="44.813619969937506" lon="9.324893948888562"><ele>882.0</ele><time>2026-04-24T13:08:59.996Z</time></trkpt><trkpt lat="44.81371637109063" lon="9.324818923038748"><ele>879.0</ele><time>2026-04-24T13:09:00.996Z</time></trkpt><trkpt lat="44.813803769691084" lon="9.324745599048013"><ele>884.25</ele><time>2026-04-24T13:09:01.996Z</time></trkpt><trkpt lat="44.81392410471322" lon="9.324724707414763"><ele>889.5</ele><time>2026-04-24T13:09:02.996Z</time></trkpt><trkpt lat="44.81404577686776" lon="9.324671077077179"><ele>894.75</ele><time>2026-04-24T13:09:03.996Z</time></trkpt><trkpt lat="44.81414624086376" lon="9.324606543512742"><ele>900.0</ele><time>2026-04-24T13:09:04.996Z</time></trkpt><trkpt lat="44.81425093218568" lon="9.324513962469124"><ele>898.25</ele><time>2026-04-24T13:09:05.996Z</time></trkpt><trkpt lat="44.81434005267896" lon="9.324412470214357"><ele>896.5</ele><time>2026-04-24T13:09:06.996Z</time></trkpt><trkpt lat="44.814439104554786" lon="9.324347771302316"><ele>894.75</ele><time>2026-04-24T13:09:07.996Z</time></trkpt><trkpt lat="44.81457453418617" lon="9.32436290528518"><ele>893.0</ele><time>2026-04-24T13:09:08.996Z</time></trkpt><trkpt lat="44.8147249619585" lon="9.324411575383861"><ele>893.0</ele><time>2026-04-24T13:09:09.996Z</time></trkpt><trkpt lat="44.814884461596385" lon="9.324466042066081"><ele>893.0</ele><time>2026-04-24T13:09:10.996Z</time></trkpt><trkpt lat="44.81501651460652" lon="9.32456289860523"><ele>893.0</ele><time>2026-04-24T13:09:11.996Z</time></trkpt><trkpt lat="44.81514411016907" lon="9.32468281162329"><ele>886.0</ele><time>2026-04-24T13:09:12.996Z</time></trkpt><trkpt lat="44.815299841985265" lon="9.324836438700249"><ele>879.0</ele><time>2026-04-24T13:09:13.996Z</time></trkpt><trkpt lat="44.81546048091142" lon="9.324974953701004"><ele>872.0</ele><time>2026-04-24T13:09:14.996Z</time></trkpt><trkpt lat="44.81562056721668" lon="9.325081203792449"><ele>872.0</ele><time>2026-04-24T13:09:15.996Z</time></trkpt><trkpt lat="44.81577608374513" lon="9.325179845654858"><ele>872.0</ele><time>2026-04-24T13:09:16.996Z</time></trkpt><trkpt lat="44.815924776009695" lon="9.325247071566173"><ele>872.0</ele><time>2026-04-24T13:09:17.996Z</time></trkpt><trkpt lat="44.816073853726834" lon="9.325323772040367"><ele>870.5</ele><time>2026-04-24T13:09:18.996Z</time></trkpt><trkpt lat="44.816204479920195" lon="9.32532094419789"><ele>869.0</ele><time>2026-04-24T13:09:19.996Z</time></trkpt><trkpt lat="44.81631967477245" lon="9.325322326079137"><ele>867.5</ele><time>2026-04-24T13:09:20.996Z</time></trkpt><trkpt lat="44.81642575427745" lon="9.32538788543157"><ele>866.0</ele><time>2026-04-24T13:09:21.996Z</time></trkpt><trkpt lat="44.81653390068767" lon="9.325460091657927"><ele>866.0</ele><time>2026-04-24T13:09:22.996Z</time></trkpt><trkpt lat="44.81662713305791" lon="9.325514650056329"><ele>866.0</ele><time>2026-04-24T13:09:23.996Z</time></trkpt><trkpt lat="44.81675775913376" lon="9.325512429414792"><ele>866.0</ele><time>2026-04-24T13:09:24.996Z</time></trkpt><trkpt lat="44.81690366277845" lon="9.325425691987064"><ele>866.0</ele><time>2026-04-24T13:09:25.996Z</time></trkpt><trkpt lat="44.81703817064801" lon="9.325305092970186"><ele>858.0</ele><time>2026-04-24T13:09:26.996Z</time></trkpt><trkpt lat="44.81715422012269" lon="9.325155713810071"><ele>850.0</ele><time>2026-04-24T13:09:27.996Z</time></trkpt><trkpt lat="44.81725809280259" lon="9.324973159620871"><ele>842.0</ele><time>2026-04-24T13:09:28.995Z</time></trkpt><trkpt lat="44.81734918427616" lon="9.324791408896088"><ele>841.0</ele><time>2026-04-24T13:09:29.995Z</time></trkpt><trkpt lat="44.817417672942014" lon="9.324587158958282"><ele>840.0</ele><time>2026-04-24T13:09:30.995Z</time></trkpt><trkpt lat="44.81746562612843" lon="9.324418977902669"><ele>839.0</ele><time>2026-04-24T13:09:31.995Z</time></trkpt><trkpt lat="44.81756348466944" lon="9.324280361890283"><ele>838.0</ele><time>2026-04-24T13:09:32.995Z</time></trkpt><trkpt lat="44.81769257645706" lon="9.32416457099378"><ele>838.0</ele><time>2026-04-24T13:09:33.995Z</time></trkpt><trkpt lat="44.81780440146162" lon="9.324038581432294"><ele>838.0</ele><time>2026-04-24T13:09:34.995Z</time></trkpt><trkpt lat="44.81794567306343" lon="9.323918118101885"><ele>838.0</ele><time>2026-04-24T13:09:35.995Z</time></trkpt><trkpt lat="44.81810579078489" lon="9.323849458352049"><ele>840.3333333333333</ele><time>2026-04-24T13:09:36.995Z</time></trkpt><trkpt lat="44.818271855370874" lon="9.323759857653442"><ele>842.6666666666667</ele><time>2026-04-24T13:09:37.995Z</time></trkpt><trkpt lat="44.81842967824466" lon="9.323664985229959"><ele>845.0</ele><time>2026-04-24T13:09:38.995Z</time></trkpt><trkpt lat="44.81858655966136" lon="9.32355808244644"><ele>845.0</ele><time>2026-04-24T13:09:39.995Z</time></trkpt><trkpt lat="44.818752303216634" lon="9.323488029266292"><ele>845.0</ele><time>2026-04-24T13:09:40.995Z</time></trkpt><trkpt lat="44.818897778547566" lon="9.323405109672537"><ele>845.0</ele><time>2026-04-24T13:09:41.995Z</time></trkpt><trkpt lat="44.81904428763157" lon="9.323358273152635"><ele>845.0</ele><time>2026-04-24T13:09:42.995Z</time></trkpt><trkpt lat="44.81923235216855" lon="9.323285779407522"><ele>845.0</ele><time>2026-04-24T13:09:43.995Z</time></trkpt><trkpt lat="44.81939105844576" lon="9.323278010888155"><ele>845.0</ele><time>2026-04-24T13:09:44.995Z</time></trkpt><trkpt lat="44.819529524184006" lon="9.323320700633765"><ele>845.3333333333334</ele><time>2026-04-24T13:09:45.995Z</time></trkpt><trkpt lat="44.81964758585669" lon="9.323443844529926"><ele>845.6666666666667</ele><time>2026-04-24T13:09:46.995Z</time></trkpt><trkpt lat="44.819775818525294" lon="9.323572205797513"><ele>846.0</ele><time>2026-04-24T13:09:47.995Z</time></trkpt><trkpt lat="44.8199157011256" lon="9.323680552461969"><ele>846.0</ele><time>2026-04-24T13:09:48.995Z</time></trkpt><trkpt lat="44.82006757585742" lon="9.323718037703296"><ele>846.0</ele><time>2026-04-24T13:09:49.995Z</time></trkpt><trkpt lat="44.82023635946505" lon="9.323756622504323"><ele>846.0</ele><time>2026-04-24T13:09:50.995Z</time></trkpt><trkpt lat="44.820380764705185" lon="9.323758766162124"><ele>844.5</ele><time>2026-04-24T13:09:51.995Z</time></trkpt><trkpt lat="44.820520364086185" lon="9.323740206277726"><ele>843.0</ele><time>2026-04-24T13:09:52.995Z</time></trkpt><trkpt lat="44.820648992256785" lon="9.323686344271515"><ele>841.5</ele><time>2026-04-24T13:09:53.995Z</time></trkpt><trkpt lat="44.82078317284418" lon="9.323586311558042"><ele>840.0</ele><time>2026-04-24T13:09:54.995Z</time></trkpt><trkpt lat="44.82091333920801" lon="9.323482259125575"><ele>832.3333333333333</ele><time>2026-04-24T13:09:55.995Z</time></trkpt><trkpt lat="44.821055912125146" lon="9.323378526060193"><ele>824.6666666666666</ele><time>2026-04-24T13:09:56.995Z</time></trkpt><trkpt lat="44.82120193805996" lon="9.323259244898788"><ele>817.0</ele><time>2026-04-24T13:09:57.995Z</time></trkpt><trkpt lat="44.821325429590004" lon="9.323109941867132"><ele>819.0</ele><time>2026-04-24T13:09:58.995Z</time></trkpt><trkpt lat="44.821441497702324" lon="9.322993788950901"><ele>821.0</ele><time>2026-04-24T13:09:59.995Z</time></trkpt><trkpt lat="44.82157190341351" lon="9.322872200772629"><ele>823.0</ele><time>2026-04-24T13:10:00.995Z</time></trkpt><trkpt lat="44.821705795942314" lon="9.322804601755452"><ele>825.0</ele><time>2026-04-24T13:10:01.995Z</time></trkpt><trkpt lat="44.82182932423014" lon="9.322785942262293"><ele>825.0</ele><time>2026-04-24T13:10:02.995Z</time></trkpt><trkpt lat="44.821958879498006" lon="9.322801759732936"><ele>825.0</ele><time>2026-04-24T13:10:03.995Z</time></trkpt><trkpt lat="44.822101555047546" lon="9.322886383756522"><ele>825.0</ele><time>2026-04-24T13:10:04.995Z</time></trkpt><trkpt lat="44.82224724786798" lon="9.322947426693306"><ele>825.0</ele><time>2026-04-24T13:10:05.995Z</time></trkpt><trkpt lat="44.82239550669183" lon="9.322952974882005"><ele>825.0</ele><time>2026-04-24T13:10:06.995Z</time></trkpt><trkpt lat="44.822543186302894" lon="9.322938988435563"><ele>825.0</ele><time>2026-04-24T13:10:07.995Z</time></trkpt><trkpt lat="44.82266817795231" lon="9.322915004586262"><ele>825.0</ele><time>2026-04-24T13:10:08.995Z</time></trkpt><trkpt lat="44.822771325851555" lon="9.322911902006778"><ele>825.0</ele><time>2026-04-24T13:10:09.995Z</time></trkpt><trkpt lat="44.82286124956026" lon="9.32292530684006"><ele>822.5</ele><time>2026-04-24T13:10:10.995Z</time></trkpt><trkpt lat="44.822923984448266" lon="9.323000454185971"><ele>820.0</ele><time>2026-04-24T13:10:11.995Z</time></trkpt><trkpt lat="44.82297765661256" lon="9.323072883454245"><ele>817.5</ele><time>2026-04-24T13:10:12.995Z</time></trkpt><trkpt lat="44.823038057538476" lon="9.323148627518819"><ele>815.0</ele><time>2026-04-24T13:10:13.995Z</time></trkpt><trkpt lat="44.82307858081905" lon="9.323242688989968"><ele>812.5</ele><time>2026-04-24T13:10:14.995Z</time></trkpt><trkpt lat="44.82308692838782" lon="9.323357143055906"><ele>810.0</ele><time>2026-04-24T13:10:15.995Z</time></trkpt><trkpt lat="44.823118493935624" lon="9.3234537648468"><ele>810.0</ele><time>2026-04-24T13:10:16.995Z</time></trkpt><trkpt lat="44.82311964601598" lon="9.32356993393718"><ele>810.0</ele><time>2026-04-24T13:10:17.995Z</time></trkpt><trkpt lat="44.82308187361204" lon="9.323666618417326"><ele>810.0</ele><time>2026-04-24T13:10:18.995Z</time></trkpt><trkpt lat="44.823026642428445" lon="9.323742032123446"><ele>810.0</ele><time>2026-04-24T13:10:19.995Z</time></trkpt><trkpt lat="44.822951109631" lon="9.323841539334781"><ele>810.0</ele><time>2026-04-24T13:10:20.995Z</time></trkpt><trkpt lat="44.822863232321744" lon="9.323894501638467"><ele>810.0</ele><time>2026-04-24T13:10:21.995Z</time></trkpt><trkpt lat="44.8227917210435" lon="9.323900145462396"><ele>810.0</ele><time>2026-04-24T13:10:22.995Z</time></trkpt><trkpt lat="44.822695299542445" lon="9.32384600550948"><ele>810.0</ele><time>2026-04-24T13:10:23.995Z</time></trkpt><trkpt lat="44.82260372357814" lon="9.323756479934902"><ele>810.0</ele><time>2026-04-24T13:10:24.995Z</time></trkpt><trkpt lat="44.82253228296669" lon="9.323640776928343"><ele>810.0</ele><time>2026-04-24T13:10:25.995Z</time></trkpt><trkpt lat="44.822446619115944" lon="9.323567194550295"><ele>810.0</ele><time>2026-04-24T13:10:26.995Z</time></trkpt><trkpt lat="44.82235696193763" lon="9.323518183118363"><ele>811.25</ele><time>2026-04-24T13:10:27.995Z</time></trkpt><trkpt lat="44.8222378645559" lon="9.32347888427059"><ele>812.5</ele><time>2026-04-24T13:10:28.995Z</time></trkpt><trkpt lat="44.82211317547977" lon="9.323478833933601"><ele>813.75</ele><time>2026-04-24T13:10:29.995Z</time></trkpt><trkpt lat="44.821972413991055" lon="9.323467746023182"><ele>815.0</ele><time>2026-04-24T13:10:30.995Z</time></trkpt><trkpt lat="44.82183204375691" lon="9.323503860796043"><ele>815.6666666666667</ele><time>2026-04-24T13:10:31.995Z</time></trkpt><trkpt lat="44.82167294397551" lon="9.323535136622766"><ele>816.3333333333333</ele><time>2026-04-24T13:10:32.995Z</time></trkpt><trkpt lat="44.821527851175304" lon="9.323626797643712"><ele>817.0</ele><time>2026-04-24T13:10:33.995Z</time></trkpt><trkpt lat="44.821403323202496" lon="9.323736376312658"><ele>817.0</ele><time>2026-04-24T13:10:34.995Z</time></trkpt><trkpt lat="44.821300606737964" lon="9.323856726192885"><ele>817.0</ele><time>2026-04-24T13:10:35.995Z</time></trkpt><trkpt lat="44.82120138680937" lon="9.323975985464067"><ele>817.0</ele><time>2026-04-24T13:10:36.995Z</time></trkpt><trkpt lat="44.821099700544906" lon="9.324081707390778"><ele>817.0</ele><time>2026-04-24T13:10:37.994Z</time></trkpt><trkpt lat="44.82101094747331" lon="9.324203052198035"><ele>814.75</ele><time>2026-04-24T13:10:38.994Z</time></trkpt><trkpt lat="44.82091742722988" lon="9.32429884406077"><ele>812.5</ele><time>2026-04-24T13:10:39.994Z</time></trkpt><trkpt lat="44.82080679985991" lon="9.32437403466933"><ele>810.25</ele><time>2026-04-24T13:10:40.994Z</time></trkpt><trkpt lat="44.82068438298697" lon="9.324454225918934"><ele>808.0</ele><time>2026-04-24T13:10:41.994Z</time></trkpt><trkpt lat="44.82054741869068" lon="9.324471097844244"><ele>808.0</ele><time>2026-04-24T13:10:42.994Z</time></trkpt><trkpt lat="44.82040578407044" lon="9.32450048244313"><ele>808.0</ele><time>2026-04-24T13:10:43.994Z</time></trkpt><trkpt lat="44.82027269386427" lon="9.324588737635588"><ele>808.0</ele><time>2026-04-24T13:10:44.994Z</time></trkpt><trkpt lat="44.82013779569545" lon="9.324696478167267"><ele>808.0</ele><time>2026-04-24T13:10:45.994Z</time></trkpt><trkpt lat="44.82000753682682" lon="9.324785162602186"><ele>801.0</ele><time>2026-04-24T13:10:46.994Z</time></trkpt><trkpt lat="44.81984867591135" lon="9.324858820947664"><ele>794.0</ele><time>2026-04-24T13:10:47.994Z</time></trkpt><trkpt lat="44.819682905396306" lon="9.324922067613654"><ele>787.0</ele><time>2026-04-24T13:10:48.994Z</time></trkpt><trkpt lat="44.819503910039835" lon="9.3249632510775"><ele>787.0</ele><time>2026-04-24T13:10:49.994Z</time></trkpt><trkpt lat="44.819377800235564" lon="9.325094340516232"><ele>787.0</ele><time>2026-04-24T13:10:50.994Z</time></trkpt><trkpt lat="44.81923513706039" lon="9.325225067844114"><ele>787.0</ele><time>2026-04-24T13:10:51.994Z</time></trkpt><trkpt lat="44.819114526019845" lon="9.325377661065016"><ele>785.5</ele><time>2026-04-24T13:10:52.994Z</time></trkpt><trkpt lat="44.818992319214175" lon="9.325503057238983"><ele>784.0</ele><time>2026-04-24T13:10:53.994Z</time></trkpt><trkpt lat="44.81886558414425" lon="9.325626481353325"><ele>782.5</ele><time>2026-04-24T13:10:54.994Z</time></trkpt><trkpt lat="44.81875167653694" lon="9.325724408446089"><ele>781.0</ele><time>2026-04-24T13:10:55.994Z</time></trkpt><trkpt lat="44.81869598721588" lon="9.325809680308003"><ele>781.0</ele><time>2026-04-24T13:10:56.994Z</time></trkpt><trkpt lat="44.81862701945094" lon="9.325899872143648"><ele>781.0</ele><time>2026-04-24T13:10:58.001Z</time></trkpt><trkpt lat="44.818581892181264" lon="9.325976198844346"><ele>781.0</ele><time>2026-04-24T13:10:59.001Z</time></trkpt><trkpt lat="44.818504520455015" lon="9.32609280093286"><ele>781.0</ele><time>2026-04-24T13:11:00.001Z</time></trkpt><trkpt lat="44.818514988697395" lon="9.326236930568243"><ele>781.0</ele><time>2026-04-24T13:11:01.001Z</time></trkpt><trkpt lat="44.818558273389144" lon="9.326388677096322"><ele>778.25</ele><time>2026-04-24T13:11:02.001Z</time></trkpt><trkpt lat="44.81864086105921" lon="9.326507725457764"><ele>775.5</ele><time>2026-04-24T13:11:03Z</time></trkpt><trkpt lat="44.81875563856756" lon="9.326545608132353"><ele>772.75</ele><time>2026-04-24T13:11:04Z</time></trkpt><trkpt lat="44.818886260891965" lon="9.326550192274729"><ele>770.0</ele><time>2026-04-24T13:11:05Z</time></trkpt><trkpt lat="44.81902274577081" lon="9.326575271506671"><ele>770.0</ele><time>2026-04-24T13:11:06Z</time></trkpt><trkpt lat="44.81916235057214" lon="9.326632567563495"><ele>770.0</ele><time>2026-04-24T13:11:07Z</time></trkpt><trkpt lat="44.81929114474776" lon="9.326669088588503"><ele>770.0</ele><time>2026-04-24T13:11:08Z</time></trkpt><trkpt lat="44.81943806797116" lon="9.326676253869543"><ele>770.0</ele><time>2026-04-24T13:11:09Z</time></trkpt><trkpt lat="44.8195750106686" lon="9.326706547557695"><ele>768.25</ele><time>2026-04-24T13:11:10Z</time></trkpt><trkpt lat="44.81969531499957" lon="9.326654539849502"><ele>766.5</ele><time>2026-04-24T13:11:11Z</time></trkpt><trkpt lat="44.819811069537415" lon="9.326600866043519"><ele>764.75</ele><time>2026-04-24T13:11:12Z</time></trkpt><trkpt lat="44.81993713314793" lon="9.326561586333385"><ele>763.0</ele><time>2026-04-24T13:11:13Z</time></trkpt><trkpt lat="44.820056318174515" lon="9.326522857097045"><ele>760.0</ele><time>2026-04-24T13:11:14Z</time></trkpt><trkpt lat="44.82019467439026" lon="9.326465955685883"><ele>757.0</ele><time>2026-04-24T13:11:15Z</time></trkpt><trkpt lat="44.82030863468335" lon="9.326431802827448"><ele>754.0</ele><time>2026-04-24T13:11:16Z</time></trkpt><trkpt lat="44.820415812323304" lon="9.326356384393657"><ele>751.0</ele><time>2026-04-24T13:11:17Z</time></trkpt><trkpt lat="44.82051984972601" lon="9.326261233961272"><ele>751.0</ele><time>2026-04-24T13:11:18Z</time></trkpt><trkpt lat="44.820616406393995" lon="9.326121468413795"><ele>751.0</ele><time>2026-04-24T13:11:19Z</time></trkpt><trkpt lat="44.82068742953907" lon="9.32590919717899"><ele>751.0</ele><time>2026-04-24T13:11:20Z</time></trkpt><trkpt lat="44.820825218452136" lon="9.325808795720341"><ele>751.0</ele><time>2026-04-24T13:11:21Z</time></trkpt><trkpt lat="44.820927676966654" lon="9.325742968098933"><ele>751.0</ele><time>2026-04-24T13:11:22Z</time></trkpt><trkpt lat="44.82099211642837" lon="9.325630095510155"><ele>751.0</ele><time>2026-04-24T13:11:23Z</time></trkpt><trkpt lat="44.82108617923169" lon="9.325530241501665"><ele>751.0</ele><time>2026-04-24T13:11:24Z</time></trkpt><trkpt lat="44.82122469015431" lon="9.325427188300306"><ele>753.5</ele><time>2026-04-24T13:11:25Z</time></trkpt><trkpt lat="44.82139259213206" lon="9.325438348179796"><ele>756.0</ele><time>2026-04-24T13:11:26Z</time></trkpt><trkpt lat="44.821535880745294" lon="9.325458171790427"><ele>758.5</ele><time>2026-04-24T13:11:27Z</time></trkpt><trkpt lat="44.821662135570165" lon="9.325416116417564"><ele>761.0</ele><time>2026-04-24T13:11:28Z</time></trkpt><trkpt lat="44.82178646580089" lon="9.325336762210778"><ele>761.8</ele><time>2026-04-24T13:11:29Z</time></trkpt><trkpt lat="44.821879920152504" lon="9.32521553148275"><ele>762.5999999999999</ele><time>2026-04-24T13:11:30Z</time></trkpt><trkpt lat="44.82198667668935" lon="9.325127908929705"><ele>763.4</ele><time>2026-04-24T13:11:31Z</time></trkpt><trkpt lat="44.82208164258518" lon="9.325122950442791"><ele>764.2</ele><time>2026-04-24T13:11:32Z</time></trkpt><trkpt lat="44.822161940342276" lon="9.325187150037127"><ele>765.0</ele><time>2026-04-24T13:11:33Z</time></trkpt><trkpt lat="44.82225743853494" lon="9.325293836125919"><ele>765.0</ele><time>2026-04-24T13:11:34Z</time></trkpt><trkpt lat="44.8223717745172" lon="9.325462980657779"><ele>765.0</ele><time>2026-04-24T13:11:35Z</time></trkpt><trkpt lat="44.82249608962241" lon="9.32558626853995"><ele>765.0</ele><time>2026-04-24T13:11:36Z</time></trkpt><trkpt lat="44.82261824149483" lon="9.32566388428371"><ele>763.25</ele><time>2026-04-24T13:11:37Z</time></trkpt><trkpt lat="44.822729259465575" lon="9.325641691542065"><ele>761.5</ele><time>2026-04-24T13:11:38Z</time></trkpt><trkpt lat="44.82286027091732" lon="9.325580858388383"><ele>759.75</ele><time>2026-04-24T13:11:39Z</time></trkpt><trkpt lat="44.82300247256242" lon="9.32551613101469"><ele>758.0</ele><time>2026-04-24T13:11:40Z</time></trkpt><trkpt lat="44.82314292598673" lon="9.325484778201432"><ele>758.0</ele><time>2026-04-24T13:11:41Z</time></trkpt><trkpt lat="44.82327692073267" lon="9.325477166024905"><ele>758.0</ele><time>2026-04-24T13:11:42Z</time></trkpt><trkpt lat="44.82342286677981" lon="9.325442176058122"><ele>758.0</ele><time>2026-04-24T13:11:43Z</time></trkpt><trkpt lat="44.82358320756339" lon="9.32545161816499"><ele>758.0</ele><time>2026-04-24T13:11:44Z</time></trkpt><trkpt lat="44.823732047431" lon="9.32548046127632"><ele>755.25</ele><time>2026-04-24T13:11:45Z</time></trkpt><trkpt lat="44.82384169567336" lon="9.325428390524959"><ele>752.5</ele><time>2026-04-24T13:11:45.999Z</time></trkpt><trkpt lat="44.82397070421022" lon="9.325333841702788"><ele>749.75</ele><time>2026-04-24T13:11:46.999Z</time></trkpt><trkpt lat="44.824089647646254" lon="9.325269591288372"><ele>747.0</ele><time>2026-04-24T13:11:47.999Z</time></trkpt><trkpt lat="44.82421723661529" lon="9.325242950341197"><ele>742.25</ele><time>2026-04-24T13:11:48.999Z</time></trkpt><trkpt lat="44.824349405176385" lon="9.325237027199494"><ele>737.5</ele><time>2026-04-24T13:11:49.999Z</time></trkpt><trkpt lat="44.82447995040033" lon="9.325215270368407"><ele>732.75</ele><time>2026-04-24T13:11:50.999Z</time></trkpt><trkpt lat="44.82461872634709" lon="9.325208203821392"><ele>728.0</ele><time>2026-04-24T13:11:51.999Z</time></trkpt><trkpt lat="44.824796382355814" lon="9.325174380119945"><ele>728.0</ele><time>2026-04-24T13:11:52.999Z</time></trkpt><trkpt lat="44.82494090360677" lon="9.325153920572244"><ele>728.0</ele><time>2026-04-24T13:11:53.999Z</time></trkpt><trkpt lat="44.825081145932614" lon="9.325088412318644"><ele>728.0</ele><time>2026-04-24T13:11:54.999Z</time></trkpt><trkpt lat="44.825202734643575" lon="9.32518362420804"><ele>728.0</ele><time>2026-04-24T13:11:55.999Z</time></trkpt><trkpt lat="44.82530643922236" lon="9.325261555209515"><ele>724.4</ele><time>2026-04-24T13:11:56.999Z</time></trkpt><trkpt lat="44.82540731916212" lon="9.325302664037583"><ele>720.8</ele><time>2026-04-24T13:11:57.999Z</time></trkpt><trkpt lat="44.82550798557136" lon="9.325319408711385"><ele>717.2</ele><time>2026-04-24T13:11:58.999Z</time></trkpt><trkpt lat="44.82558820097791" lon="9.325273834558248"><ele>713.6</ele><time>2026-04-24T13:11:59.999Z</time></trkpt><trkpt lat="44.825649859178064" lon="9.325152473625927"><ele>710.0</ele><time>2026-04-24T13:12:00.999Z</time></trkpt><trkpt lat="44.82570417677784" lon="9.325008224605604"><ele>710.0</ele><time>2026-04-24T13:12:01.999Z</time></trkpt><trkpt lat="44.82574185408644" lon="9.324845461817564"><ele>710.0</ele><time>2026-04-24T13:12:02.999Z</time></trkpt><trkpt lat="44.82576418602787" lon="9.324645060576072"><ele>710.0</ele><time>2026-04-24T13:12:03.999Z</time></trkpt><trkpt lat="44.8257670643033" lon="9.324412966260306"><ele>710.0</ele><time>2026-04-24T13:12:04.999Z</time></trkpt><trkpt lat="44.825753373336894" lon="9.324198271989582"><ele>710.5</ele><time>2026-04-24T13:12:05.999Z</time></trkpt><trkpt lat="44.8257551353817" lon="9.324008704815274"><ele>711.0</ele><time>2026-04-24T13:12:06.999Z</time></trkpt><trkpt lat="44.82575797034893" lon="9.323821402565379"><ele>711.5</ele><time>2026-04-24T13:12:07.999Z</time></trkpt><trkpt lat="44.82572481387418" lon="9.323690271913764"><ele>712.0</ele><time>2026-04-24T13:12:08.999Z</time></trkpt><trkpt lat="44.825722635581755" lon="9.323517048686432"><ele>713.0</ele><time>2026-04-24T13:12:09.999Z</time></trkpt><trkpt lat="44.82567271048096" lon="9.323350390278742"><ele>714.0</ele><time>2026-04-24T13:12:10.999Z</time></trkpt><trkpt lat="44.825686600368066" lon="9.323213766391378"><ele>715.0</ele><time>2026-04-24T13:12:11.999Z</time></trkpt><trkpt lat="44.825704547512736" lon="9.323070354564292"><ele>716.0</ele><time>2026-04-24T13:12:12.999Z</time></trkpt><trkpt lat="44.825765062048426" lon="9.322966546851585"><ele>717.0</ele><time>2026-04-24T13:12:13.999Z</time></trkpt><trkpt lat="44.82584830693021" lon="9.322891064677258"><ele>719.0</ele><time>2026-04-24T13:12:14.999Z</time></trkpt><trkpt lat="44.82592979166588" lon="9.322863041942053"><ele>721.0</ele><time>2026-04-24T13:12:15.999Z</time></trkpt><trkpt lat="44.82605302043157" lon="9.323021926526058"><ele>723.0</ele><time>2026-04-24T13:12:17.999Z</time></trkpt><trkpt lat="44.82610589207641" lon="9.323175101925578"><ele>725.0</ele><time>2026-04-24T13:12:18.999Z</time></trkpt><trkpt lat="44.82618707316907" lon="9.323333698412789"><ele>725.0</ele><time>2026-04-24T13:12:19.999Z</time></trkpt><trkpt lat="44.826301902900546" lon="9.323459373994357"><ele>725.0</ele><time>2026-04-24T13:12:20.999Z</time></trkpt><trkpt lat="44.82644557078757" lon="9.32356249902961"><ele>725.0</ele><time>2026-04-24T13:12:21.999Z</time></trkpt><trkpt lat="44.826590056007944" lon="9.323685455097687"><ele>725.0</ele><time>2026-04-24T13:12:22.999Z</time></trkpt><trkpt lat="44.82673897396984" lon="9.323806919504891"><ele>725.0</ele><time>2026-04-24T13:12:23.999Z</time></trkpt><trkpt lat="44.826897854503706" lon="9.323889923707785"><ele>725.0</ele><time>2026-04-24T13:12:24.999Z</time></trkpt><trkpt lat="44.827035156845234" lon="9.32404537838789"><ele>725.0</ele><time>2026-04-24T13:12:25.999Z</time></trkpt><trkpt lat="44.82713284764118" lon="9.32425345542893"><ele>725.0</ele><time>2026-04-24T13:12:26.999Z</time></trkpt><trkpt lat="44.82721327273726" lon="9.324476787633904"><ele>725.0</ele><time>2026-04-24T13:12:27.999Z</time></trkpt><trkpt lat="44.82732091751631" lon="9.324679117762628"><ele>727.0</ele><time>2026-04-24T13:12:28.999Z</time></trkpt><trkpt lat="44.82743930934765" lon="9.324860223637625"><ele>729.0</ele><time>2026-04-24T13:12:29.999Z</time></trkpt><trkpt lat="44.82753348814386" lon="9.325069495054947"><ele>731.0</ele><time>2026-04-24T13:12:30.999Z</time></trkpt><trkpt lat="44.827646083168126" lon="9.325286236083397"><ele>731.0</ele><time>2026-04-24T13:12:31.999Z</time></trkpt><trkpt lat="44.82779500289871" lon="9.325474626426983"><ele>731.0</ele><time>2026-04-24T13:12:32.999Z</time></trkpt><trkpt lat="44.82795404040634" lon="9.32561581727843"><ele>731.0</ele><time>2026-04-24T13:12:33.999Z</time></trkpt><trkpt lat="44.82811115197814" lon="9.32572027649363"><ele>728.3333333333333</ele><time>2026-04-24T13:12:34.999Z</time></trkpt><trkpt lat="44.828274298869054" lon="9.325853202793743"><ele>725.6666666666666</ele><time>2026-04-24T13:12:35.999Z</time></trkpt><trkpt lat="44.82843904482287" lon="9.32599596649779"><ele>723.0</ele><time>2026-04-24T13:12:36.999Z</time></trkpt><trkpt lat="44.82859431180429" lon="9.326128563579255"><ele>723.0</ele><time>2026-04-24T13:12:37.999Z</time></trkpt><trkpt lat="44.828725251264245" lon="9.326283620448558"><ele>723.0</ele><time>2026-04-24T13:12:38.999Z</time></trkpt><trkpt lat="44.82882548868108" lon="9.326434763075076"><ele>723.0</ele><time>2026-04-24T13:12:39.999Z</time></trkpt><trkpt lat="44.82892808312402" lon="9.326591565658244"><ele>714.5</ele><time>2026-04-24T13:12:40.999Z</time></trkpt><trkpt lat="44.82903582857876" lon="9.326754972730809"><ele>706.0</ele><time>2026-04-24T13:12:41.999Z</time></trkpt><trkpt lat="44.82912203088042" lon="9.326895170361926"><ele>697.5</ele><time>2026-04-24T13:12:42.999Z</time></trkpt><trkpt lat="44.82922679872893" lon="9.326938180899562"><ele>689.0</ele><time>2026-04-24T13:12:43.999Z</time></trkpt><trkpt lat="44.8293058871499" lon="9.326941524575087"><ele>684.75</ele><time>2026-04-24T13:12:44.999Z</time></trkpt><trkpt lat="44.82938679105481" lon="9.32690655879597"><ele>680.5</ele><time>2026-04-24T13:12:45.999Z</time></trkpt><trkpt lat="44.82945092448934" lon="9.326785931321378"><ele>676.25</ele><time>2026-04-24T13:12:46.999Z</time></trkpt><trkpt lat="44.82953926025761" lon="9.326652721535204"><ele>672.0</ele><time>2026-04-24T13:12:47.998Z</time></trkpt><trkpt lat="44.82964131214902" lon="9.326533165751604"><ele>672.0</ele><time>2026-04-24T13:12:48.998Z</time></trkpt><trkpt lat="44.82974684091115" lon="9.326419704641609"><ele>672.0</ele><time>2026-04-24T13:12:49.998Z</time></trkpt><trkpt lat="44.82988024067414" lon="9.326310740856243"><ele>672.0</ele><time>2026-04-24T13:12:50.998Z</time></trkpt><trkpt lat="44.83001888022283" lon="9.32624491001817"><ele>672.0</ele><time>2026-04-24T13:12:51.998Z</time></trkpt><trkpt lat="44.83016789348247" lon="9.326167826988211"><ele>677.0</ele><time>2026-04-24T13:12:52.998Z</time></trkpt><trkpt lat="44.83029777839189" lon="9.326050816202002"><ele>682.0</ele><time>2026-04-24T13:12:53.998Z</time></trkpt><trkpt lat="44.83044766998764" lon="9.325955424009376"><ele>687.0</ele><time>2026-04-24T13:12:54.998Z</time></trkpt><trkpt lat="44.83059740059263" lon="9.325922712995318"><ele>687.0</ele><time>2026-04-24T13:12:55.998Z</time></trkpt><trkpt lat="44.83073369405181" lon="9.325901169922771"><ele>687.0</ele><time>2026-04-24T13:12:56.998Z</time></trkpt><trkpt lat="44.83089402448113" lon="9.325887455569603"><ele>687.0</ele><time>2026-04-24T13:12:57.998Z</time></trkpt><trkpt lat="44.831042221047596" lon="9.325896400024583"><ele>687.0</ele><time>2026-04-24T13:12:58.998Z</time></trkpt><trkpt lat="44.831169106752576" lon="9.325890482000103"><ele>687.75</ele><time>2026-04-24T13:12:59.998Z</time></trkpt><trkpt lat="44.83129101463461" lon="9.325936889715079"><ele>688.5</ele><time>2026-04-24T13:13:00.998Z</time></trkpt><trkpt lat="44.831392069859795" lon="9.326060142567865"><ele>689.25</ele><time>2026-04-24T13:13:01.998Z</time></trkpt><trkpt lat="44.831532707427435" lon="9.326173551783965"><ele>690.0</ele><time>2026-04-24T13:13:02.998Z</time></trkpt><trkpt lat="44.83168196068154" lon="9.326313745617803"><ele>680.6666666666666</ele><time>2026-04-24T13:13:03.998Z</time></trkpt><trkpt lat="44.83183313339566" lon="9.326434398862558"><ele>671.3333333333333</ele><time>2026-04-24T13:13:04.998Z</time></trkpt><trkpt lat="44.831971584824345" lon="9.326492534411647"><ele>662.0</ele><time>2026-04-24T13:13:05.998Z</time></trkpt><trkpt lat="44.83212605095362" lon="9.326514615731258"><ele>662.0</ele><time>2026-04-24T13:13:06.998Z</time></trkpt><trkpt lat="44.83228222195971" lon="9.326478647097684"><ele>662.0</ele><time>2026-04-24T13:13:07.998Z</time></trkpt><trkpt lat="44.832425925830705" lon="9.32641139921429"><ele>662.0</ele><time>2026-04-24T13:13:08.998Z</time></trkpt><trkpt lat="44.832580818312586" lon="9.326398516736703"><ele>663.3333333333333</ele><time>2026-04-24T13:13:09.998Z</time></trkpt><trkpt lat="44.83274034815022" lon="9.326364194486771"><ele>664.6666666666666</ele><time>2026-04-24T13:13:10.998Z</time></trkpt><trkpt lat="44.832905267326865" lon="9.32636766850997"><ele>666.0</ele><time>2026-04-24T13:13:11.998Z</time></trkpt><trkpt lat="44.83306100123229" lon="9.32642696723576"><ele>666.0</ele><time>2026-04-24T13:13:12.998Z</time></trkpt><trkpt lat="44.83322040543939" lon="9.326532607246124"><ele>666.0</ele><time>2026-04-24T13:13:13.998Z</time></trkpt><trkpt lat="44.833368267766694" lon="9.326699450904817"><ele>666.0</ele><time>2026-04-24T13:13:14.998Z</time></trkpt><trkpt lat="44.83350879741711" lon="9.326834882482412"><ele>665.75</ele><time>2026-04-24T13:13:15.998Z</time></trkpt><trkpt lat="44.833639626346155" lon="9.326926949893622"><ele>665.5</ele><time>2026-04-24T13:13:16.998Z</time></trkpt><trkpt lat="44.83375231830109" lon="9.327038428386864"><ele>665.25</ele><time>2026-04-24T13:13:17.998Z</time></trkpt><trkpt lat="44.83387381601872" lon="9.327141616384147"><ele>665.0</ele><time>2026-04-24T13:13:18.998Z</time></trkpt><trkpt lat="44.83399384046213" lon="9.327186677008916"><ele>665.0</ele><time>2026-04-24T13:13:19.998Z</time></trkpt><trkpt lat="44.83412107138565" lon="9.327088738472533"><ele>665.0</ele><time>2026-04-24T13:13:20.998Z</time></trkpt><trkpt lat="44.83425027605125" lon="9.327052851635658"><ele>665.0</ele><time>2026-04-24T13:13:21.998Z</time></trkpt><trkpt lat="44.83434871134053" lon="9.327036283195419"><ele>665.0</ele><time>2026-04-24T13:13:22.998Z</time></trkpt><trkpt lat="44.834429769021575" lon="9.326951184899732"><ele>660.5</ele><time>2026-04-24T13:13:23.998Z</time></trkpt><trkpt lat="44.83448901772532" lon="9.326867189456213"><ele>656.0</ele><time>2026-04-24T13:13:24.998Z</time></trkpt><trkpt lat="44.83455090509666" lon="9.326753151900519"><ele>651.5</ele><time>2026-04-24T13:13:25.998Z</time></trkpt><trkpt lat="44.8345027715525" lon="9.326547292974624"><ele>647.0</ele><time>2026-04-24T13:13:26.998Z</time></trkpt><trkpt lat="44.834433065812654" lon="9.32634804410292"><ele>644.25</ele><time>2026-04-24T13:13:27.998Z</time></trkpt><trkpt lat="44.83435832013132" lon="9.326144721385155"><ele>641.5</ele><time>2026-04-24T13:13:28.998Z</time></trkpt><trkpt lat="44.834288781922126" lon="9.32594605671552"><ele>638.75</ele><time>2026-04-24T13:13:29.998Z</time></trkpt><trkpt lat="44.83421650292169" lon="9.325805413692354"><ele>636.0</ele><time>2026-04-24T13:13:30.998Z</time></trkpt><trkpt lat="44.83411319839737" lon="9.325642173939881"><ele>640.0</ele><time>2026-04-24T13:13:31.998Z</time></trkpt><trkpt lat="44.83402121577396" lon="9.325487722147445"><ele>644.0</ele><time>2026-04-24T13:13:32.998Z</time></trkpt><trkpt lat="44.833957541885546" lon="9.325332480439705"><ele>648.0</ele><time>2026-04-24T13:13:33.998Z</time></trkpt><trkpt lat="44.833894833871824" lon="9.32517979723153"><ele>652.0</ele><time>2026-04-24T13:13:34.998Z</time></trkpt><trkpt lat="44.83385538223864" lon="9.325011797167123"><ele>652.0</ele><time>2026-04-24T13:13:35.998Z</time></trkpt><trkpt lat="44.83379237745662" lon="9.324804605654391"><ele>652.0</ele><time>2026-04-24T13:13:36.998Z</time></trkpt><trkpt lat="44.83374977591891" lon="9.324585538180573"><ele>652.0</ele><time>2026-04-24T13:13:37.998Z</time></trkpt><trkpt lat="44.83373716487817" lon="9.324369014338204"><ele>648.3333333333334</ele><time>2026-04-24T13:13:38.998Z</time></trkpt><trkpt lat="44.833704932406604" lon="9.324136451238546"><ele>644.6666666666666</ele><time>2026-04-24T13:13:39.998Z</time></trkpt><trkpt lat="44.83366159578811" lon="9.32391228568641"><ele>641.0</ele><time>2026-04-24T13:13:40.998Z</time></trkpt><trkpt lat="44.833623151081625" lon="9.323679947723347"><ele>640.0</ele><time>2026-04-24T13:13:41.998Z</time></trkpt><trkpt lat="44.83356242117613" lon="9.323421722375468"><ele>639.0</ele><time>2026-04-24T13:13:42.998Z</time></trkpt><trkpt lat="44.83351732899299" lon="9.323150007642656"><ele>638.0</ele><time>2026-04-24T13:13:43.998Z</time></trkpt><trkpt lat="44.83344834054683" lon="9.322922846384582"><ele>641.5</ele><time>2026-04-24T13:13:44.998Z</time></trkpt><trkpt lat="44.833398051930914" lon="9.322692486642651"><ele>645.0</ele><time>2026-04-24T13:13:45.998Z</time></trkpt><trkpt lat="44.83335535163172" lon="9.322478183427727"><ele>648.5</ele><time>2026-04-24T13:13:46.998Z</time></trkpt><trkpt lat="44.833344145127434" lon="9.322309616443249"><ele>652.0</ele><time>2026-04-24T13:13:47.998Z</time></trkpt><trkpt lat="44.83331848739129" lon="9.322133993507972"><ele>652.0</ele><time>2026-04-24T13:13:48.998Z</time></trkpt><trkpt lat="44.83330056554708" lon="9.322016470973105"><ele>652.0</ele><time>2026-04-24T13:13:49.998Z</time></trkpt><trkpt lat="44.833355909136955" lon="9.321914201233247"><ele>652.0</ele><time>2026-04-24T13:13:50.998Z</time></trkpt><trkpt lat="44.833401523052345" lon="9.321845228832174"><ele>652.0</ele><time>2026-04-24T13:13:51.997Z</time></trkpt><trkpt lat="44.8334979145608" lon="9.321852656254528"><ele>652.0</ele><time>2026-04-24T13:13:52.997Z</time></trkpt><trkpt lat="44.83359234834925" lon="9.321960198930869"><ele>652.6666666666667</ele><time>2026-04-24T13:13:53.997Z</time></trkpt><trkpt lat="44.83370254910987" lon="9.32212560510827"><ele>653.3333333333334</ele><time>2026-04-24T13:13:54.997Z</time></trkpt><trkpt lat="44.833831654439756" lon="9.322267660635733"><ele>654.0</ele><time>2026-04-24T13:13:55.997Z</time></trkpt><trkpt lat="44.83394888007779" lon="9.322467174522497"><ele>651.3333333333334</ele><time>2026-04-24T13:13:56.997Z</time></trkpt><trkpt lat="44.83405071271952" lon="9.322688558265098"><ele>648.6666666666667</ele><time>2026-04-24T13:13:57.997Z</time></trkpt><trkpt lat="44.834147553187876" lon="9.322887246485394"><ele>646.0</ele><time>2026-04-24T13:13:58.997Z</time></trkpt><trkpt lat="44.834261550030675" lon="9.323080638773325"><ele>645.3333333333334</ele><time>2026-04-24T13:13:59.997Z</time></trkpt><trkpt lat="44.834369914996905" lon="9.323268515806818"><ele>644.6666666666666</ele><time>2026-04-24T13:14:00.997Z</time></trkpt><trkpt lat="44.83450635658411" lon="9.32343462616265"><ele>644.0</ele><time>2026-04-24T13:14:01.997Z</time></trkpt><trkpt lat="44.834628725848255" lon="9.323588468852863"><ele>644.0</ele><time>2026-04-24T13:14:02.997Z</time></trkpt><trkpt lat="44.83476491842574" lon="9.32374534581928"><ele>644.0</ele><time>2026-04-24T13:14:03.997Z</time></trkpt><trkpt lat="44.83490423959713" lon="9.323877521496694"><ele>644.0</ele><time>2026-04-24T13:14:04.997Z</time></trkpt><trkpt lat="44.83502807835998" lon="9.324010679263546"><ele>643.0</ele><time>2026-04-24T13:14:05.997Z</time></trkpt><trkpt lat="44.83513627627121" lon="9.324151437056736"><ele>642.0</ele><time>2026-04-24T13:14:06.997Z</time></trkpt><trkpt lat="44.835233970850595" lon="9.324294813986768"><ele>641.0</ele><time>2026-04-24T13:14:07.997Z</time></trkpt><trkpt lat="44.83535865831983" lon="9.324403833671076"><ele>640.0</ele><time>2026-04-24T13:14:08.997Z</time></trkpt><trkpt lat="44.835449347276395" lon="9.324561584196907"><ele>640.0</ele><time>2026-04-24T13:14:09.997Z</time></trkpt><trkpt lat="44.83554683971005" lon="9.324714855419792"><ele>640.0</ele><time>2026-04-24T13:14:10.997Z</time></trkpt><trkpt lat="44.83566312367946" lon="9.324851849043446"><ele>640.0</ele><time>2026-04-24T13:14:11.997Z</time></trkpt><trkpt lat="44.83577849188955" lon="9.324986729448254"><ele>640.0</ele><time>2026-04-24T13:14:12.997Z</time></trkpt><trkpt lat="44.8358749706169" lon="9.325171981726271"><ele>638.75</ele><time>2026-04-24T13:14:13.997Z</time></trkpt><trkpt lat="44.83598285090187" lon="9.325317546591274"><ele>637.5</ele><time>2026-04-24T13:14:14.997Z</time></trkpt><trkpt lat="44.83608887129321" lon="9.325482403404148"><ele>636.25</ele><time>2026-04-24T13:14:15.997Z</time></trkpt><trkpt lat="44.83616900642775" lon="9.325634946356818"><ele>635.0</ele><time>2026-04-24T13:14:16.997Z</time></trkpt><trkpt lat="44.83625309058244" lon="9.325805524859277"><ele>633.25</ele><time>2026-04-24T13:14:17.997Z</time></trkpt><trkpt lat="44.836323067286465" lon="9.325981927493507"><ele>631.5</ele><time>2026-04-24T13:14:18.997Z</time></trkpt><trkpt lat="44.83638144978692" lon="9.326175388174265"><ele>629.75</ele><time>2026-04-24T13:14:19.997Z</time></trkpt><trkpt lat="44.83643880003168" lon="9.32636445103161"><ele>628.0</ele><time>2026-04-24T13:14:20.997Z</time></trkpt><trkpt lat="44.8365003000075" lon="9.326545092640254"><ele>625.5</ele><time>2026-04-24T13:14:21.997Z</time></trkpt><trkpt lat="44.83653442834731" lon="9.326701383184375"><ele>623.0</ele><time>2026-04-24T13:14:22.997Z</time></trkpt><trkpt lat="44.836595854374146" lon="9.326889210611322"><ele>620.5</ele><time>2026-04-24T13:14:23.997Z</time></trkpt><trkpt lat="44.836640134339596" lon="9.3270084651427"><ele>618.0</ele><time>2026-04-24T13:14:24.997Z</time></trkpt><trkpt lat="44.836680169410386" lon="9.327212954217908"><ele>619.25</ele><time>2026-04-24T13:14:25.997Z</time></trkpt><trkpt lat="44.83676225734982" lon="9.327367914954506"><ele>620.5</ele><time>2026-04-24T13:14:26.997Z</time></trkpt><trkpt lat="44.83679096396137" lon="9.327591508000165"><ele>621.75</ele><time>2026-04-24T13:14:27.997Z</time></trkpt><trkpt lat="44.83687481269763" lon="9.327736092600578"><ele>623.0</ele><time>2026-04-24T13:14:28.997Z</time></trkpt><trkpt lat="44.83692339577649" lon="9.327934325098745"><ele>622.0</ele><time>2026-04-24T13:14:29.997Z</time></trkpt><trkpt lat="44.836975564681374" lon="9.32813453348535"><ele>621.0</ele><time>2026-04-24T13:14:30.997Z</time></trkpt><trkpt lat="44.8370213798957" lon="9.328295077512413"><ele>620.0</ele><time>2026-04-24T13:14:31.997Z</time></trkpt><trkpt lat="44.83706828649291" lon="9.32848215464876"><ele>619.0</ele><time>2026-04-24T13:14:32.997Z</time></trkpt><trkpt lat="44.83711732088486" lon="9.32864872880424"><ele>619.0</ele><time>2026-04-24T13:14:33.997Z</time></trkpt><trkpt lat="44.8371765056234" lon="9.328776751738964"><ele>619.0</ele><time>2026-04-24T13:14:34.997Z</time></trkpt><trkpt lat="44.83722857133833" lon="9.328927442306998"><ele>619.0</ele><time>2026-04-24T13:14:35.997Z</time></trkpt><trkpt lat="44.8372700230328" lon="9.329084349144157"><ele>619.0</ele><time>2026-04-24T13:14:36.997Z</time></trkpt><trkpt lat="44.83727021936232" lon="9.32929157085292"><ele>618.5</ele><time>2026-04-24T13:14:37.997Z</time></trkpt><trkpt lat="44.83730906416258" lon="9.329471267291014"><ele>618.0</ele><time>2026-04-24T13:14:38.997Z</time></trkpt><trkpt lat="44.83737372187737" lon="9.329604963601833"><ele>617.5</ele><time>2026-04-24T13:14:39.997Z</time></trkpt><trkpt lat="44.83740462066592" lon="9.329792788898656"><ele>617.0</ele><time>2026-04-24T13:14:40.997Z</time></trkpt><trkpt lat="44.83745924911822" lon="9.329949285140104"><ele>616.6</ele><time>2026-04-24T13:14:41.997Z</time></trkpt><trkpt lat="44.8375231343725" lon="9.330097830581655"><ele>616.2</ele><time>2026-04-24T13:14:42.997Z</time></trkpt><trkpt lat="44.83758512946613" lon="9.33023449359256"><ele>615.8</ele><time>2026-04-24T13:14:43.997Z</time></trkpt><trkpt lat="44.83764905550073" lon="9.330348294292913"><ele>615.4</ele><time>2026-04-24T13:14:44.997Z</time></trkpt><trkpt lat="44.83772756131773" lon="9.33044854254103"><ele>615.0</ele><time>2026-04-24T13:14:45.997Z</time></trkpt><trkpt lat="44.837828724688414" lon="9.330520314328929"><ele>609.5</ele><time>2026-04-24T13:14:46.997Z</time></trkpt><trkpt lat="44.83796509472407" lon="9.330580774602808"><ele>604.0</ele><time>2026-04-24T13:14:47.997Z</time></trkpt><trkpt lat="44.83808904773661" lon="9.330641994772941"><ele>598.5</ele><time>2026-04-24T13:14:48.997Z</time></trkpt><trkpt lat="44.83821550748106" lon="9.330733165926809"><ele>593.0</ele><time>2026-04-24T13:14:49.997Z</time></trkpt><trkpt lat="44.83833471762732" lon="9.33078400714751"><ele>593.0</ele><time>2026-04-24T13:14:50.997Z</time></trkpt><trkpt lat="44.838460678447376" lon="9.330840986245851"><ele>593.0</ele><time>2026-04-24T13:14:51.997Z</time></trkpt><trkpt lat="44.83856651948077" lon="9.330867008806415"><ele>593.0</ele><time>2026-04-24T13:14:52.997Z</time></trkpt><trkpt lat="44.83868928480699" lon="9.330913474478459"><ele>593.0</ele><time>2026-04-24T13:14:53.997Z</time></trkpt><trkpt lat="44.83879568320147" lon="9.330898852534924"><ele>591.5</ele><time>2026-04-24T13:14:54.997Z</time></trkpt><trkpt lat="44.83892469181774" lon="9.33091913390678"><ele>590.0</ele><time>2026-04-24T13:14:55.997Z</time></trkpt><trkpt lat="44.83904442586698" lon="9.330864671522916"><ele>588.5</ele><time>2026-04-24T13:14:56.996Z</time></trkpt><trkpt lat="44.839164143235294" lon="9.33085689970036"><ele>587.0</ele><time>2026-04-24T13:14:57.996Z</time></trkpt><trkpt lat="44.83928789869069" lon="9.330806426033392"><ele>587.0</ele><time>2026-04-24T13:14:58.996Z</time></trkpt><trkpt lat="44.83940496755504" lon="9.330746495925574"><ele>587.0</ele><time>2026-04-24T13:14:59.996Z</time></trkpt><trkpt lat="44.83951872911879" lon="9.330678071132485"><ele>587.0</ele><time>2026-04-24T13:15:00.996Z</time></trkpt><trkpt lat="44.83961386296763" lon="9.330606793697243"><ele>587.0</ele><time>2026-04-24T13:15:01.996Z</time></trkpt><trkpt lat="44.83972629599939" lon="9.33056082396978"><ele>590.0</ele><time>2026-04-24T13:15:02.996Z</time></trkpt><trkpt lat="44.83985819033132" lon="9.330474166877558"><ele>593.0</ele><time>2026-04-24T13:15:03.996Z</time></trkpt><trkpt lat="44.83995797480297" lon="9.330467957412019"><ele>596.0</ele><time>2026-04-24T13:15:04.996Z</time></trkpt><trkpt lat="44.84006371165563" lon="9.330533449483356"><ele>599.0</ele><time>2026-04-24T13:15:05.996Z</time></trkpt><trkpt lat="44.840149234799725" lon="9.330659116253061"><ele>600.3333333333333</ele><time>2026-04-24T13:15:06.996Z</time></trkpt><trkpt lat="44.84021977243687" lon="9.33085211313266"><ele>601.6666666666666</ele><time>2026-04-24T13:15:07.996Z</time></trkpt><trkpt lat="44.84031632765987" lon="9.33101946771709"><ele>603.0</ele><time>2026-04-24T13:15:08.996Z</time></trkpt><trkpt lat="44.84042651930872" lon="9.331176480305135"><ele>603.0</ele><time>2026-04-24T13:15:09.996Z</time></trkpt><trkpt lat="44.84053692965383" lon="9.331321610456948"><ele>603.0</ele><time>2026-04-24T13:15:10.996Z</time></trkpt><trkpt lat="44.84064985068892" lon="9.331465445702728"><ele>603.0</ele><time>2026-04-24T13:15:11.996Z</time></trkpt><trkpt lat="44.840766267787416" lon="9.331620660172806"><ele>598.75</ele><time>2026-04-24T13:15:12.996Z</time></trkpt><trkpt lat="44.84088372911584" lon="9.331724251444232"><ele>594.5</ele><time>2026-04-24T13:15:13.996Z</time></trkpt><trkpt lat="44.840993780410024" lon="9.331818426178714"><ele>590.25</ele><time>2026-04-24T13:15:14.996Z</time></trkpt><trkpt lat="44.84110515054803" lon="9.331953253548912"><ele>586.0</ele><time>2026-04-24T13:15:15.996Z</time></trkpt><trkpt lat="44.84123558739201" lon="9.332018210449665"><ele>585.0</ele><time>2026-04-24T13:15:16.996Z</time></trkpt><trkpt lat="44.84137027691426" lon="9.332070366528662"><ele>584.0</ele><time>2026-04-24T13:15:17.996Z</time></trkpt><trkpt lat="44.84153170658716" lon="9.332079591200737"><ele>583.0</ele><time>2026-04-24T13:15:18.996Z</time></trkpt><trkpt lat="44.84167962741665" lon="9.33208533511343"><ele>582.0</ele><time>2026-04-24T13:15:19.996Z</time></trkpt><trkpt lat="44.84181118118378" lon="9.332039571977544"><ele>580.75</ele><time>2026-04-24T13:15:20.996Z</time></trkpt><trkpt lat="44.84190239683291" lon="9.331890529668845"><ele>579.5</ele><time>2026-04-24T13:15:21.996Z</time></trkpt><trkpt lat="44.841991235186626" lon="9.331742530233884"><ele>578.25</ele><time>2026-04-24T13:15:22.996Z</time></trkpt><trkpt lat="44.84210472491599" lon="9.331618823721389"><ele>577.0</ele><time>2026-04-24T13:15:23.996Z</time></trkpt><trkpt lat="44.84224800351754" lon="9.331544241756573"><ele>577.0</ele><time>2026-04-24T13:15:24.996Z</time></trkpt><trkpt lat="44.84238831944016" lon="9.331502215198924"><ele>577.0</ele><time>2026-04-24T13:15:25.996Z</time></trkpt><trkpt lat="44.842534207022105" lon="9.331508818444123"><ele>577.0</ele><time>2026-04-24T13:15:26.996Z</time></trkpt><trkpt lat="44.84269268850077" lon="9.331569139840706"><ele>576.6666666666667</ele><time>2026-04-24T13:15:27.996Z</time></trkpt><trkpt lat="44.842863389188125" lon="9.331646676014184"><ele>576.3333333333334</ele><time>2026-04-24T13:15:28.996Z</time></trkpt><trkpt lat="44.84302747224179" lon="9.331689556123239"><ele>576.0</ele><time>2026-04-24T13:15:29.996Z</time></trkpt><trkpt lat="44.843185569871125" lon="9.33172059463832"><ele>576.0</ele><time>2026-04-24T13:15:30.996Z</time></trkpt><trkpt lat="44.84336381025592" lon="9.331756341073856"><ele>576.0</ele><time>2026-04-24T13:15:31.996Z</time></trkpt><trkpt lat="44.843555425968525" lon="9.331762222752127"><ele>576.0</ele><time>2026-04-24T13:15:32.996Z</time></trkpt><trkpt lat="44.84375308377107" lon="9.33172630487399"><ele>575.3333333333334</ele><time>2026-04-24T13:15:33.996Z</time></trkpt><trkpt lat="44.84394454436138" lon="9.331694180520383"><ele>574.6666666666667</ele><time>2026-04-24T13:15:34.996Z</time></trkpt><trkpt lat="44.84411722634077" lon="9.331664993025091"><ele>574.0</ele><time>2026-04-24T13:15:35.996Z</time></trkpt><trkpt lat="44.84429532972051" lon="9.331624119912062"><ele>572.3333333333334</ele><time>2026-04-24T13:15:36.996Z</time></trkpt><trkpt lat="44.84446247219611" lon="9.331521493917318"><ele>570.6666666666666</ele><time>2026-04-24T13:15:37.996Z</time></trkpt><trkpt lat="44.84464693341677" lon="9.331495776312233"><ele>569.0</ele><time>2026-04-24T13:15:38.996Z</time></trkpt><trkpt lat="44.84482348867112" lon="9.33145345982072"><ele>569.0</ele><time>2026-04-24T13:15:39.996Z</time></trkpt><trkpt lat="44.844990697113246" lon="9.331403963583831"><ele>569.0</ele><time>2026-04-24T13:15:40.996Z</time></trkpt><trkpt lat="44.84516633316725" lon="9.331336335901812"><ele>569.0</ele><time>2026-04-24T13:15:41.996Z</time></trkpt><trkpt lat="44.84532225111397" lon="9.331244805255333"><ele>569.5</ele><time>2026-04-24T13:15:42.996Z</time></trkpt><trkpt lat="44.845453673103556" lon="9.331154456735955"><ele>570.0</ele><time>2026-04-24T13:15:43.996Z</time></trkpt><trkpt lat="44.84560162839243" lon="9.331095853637368"><ele>570.5</ele><time>2026-04-24T13:15:44.996Z</time></trkpt><trkpt lat="44.84574819104395" lon="9.331078928556558"><ele>571.0</ele><time>2026-04-24T13:15:45.996Z</time></trkpt><trkpt lat="44.84587853578034" lon="9.331057623033738"><ele>570.25</ele><time>2026-04-24T13:15:46.996Z</time></trkpt><trkpt lat="44.8460104098352" lon="9.331078687469748"><ele>569.5</ele><time>2026-04-24T13:15:47.996Z</time></trkpt><trkpt lat="44.84616323500049" lon="9.331078304474477"><ele>568.75</ele><time>2026-04-24T13:15:48.996Z</time></trkpt><trkpt lat="44.84631886790055" lon="9.331063120173448"><ele>568.0</ele><time>2026-04-24T13:15:49.996Z</time></trkpt><trkpt lat="44.84648113701002" lon="9.331039472093552"><ele>568.0</ele><time>2026-04-24T13:15:50.996Z</time></trkpt><trkpt lat="44.84661881630887" lon="9.33102681842225"><ele>568.0</ele><time>2026-04-24T13:15:51.996Z</time></trkpt><trkpt lat="44.84675361248209" lon="9.331031527648646"><ele>568.0</ele><time>2026-04-24T13:15:52.996Z</time></trkpt><trkpt lat="44.84687902978679" lon="9.331073246490183"><ele>568.0</ele><time>2026-04-24T13:15:53.996Z</time></trkpt><trkpt lat="44.84700114788602" lon="9.331161919923236"><ele>568.0</ele><time>2026-04-24T13:15:54.996Z</time></trkpt><trkpt lat="44.84712029552574" lon="9.331274038559224"><ele>568.0</ele><time>2026-04-24T13:15:55.996Z</time></trkpt><trkpt lat="44.84724104555374" lon="9.331389266325559"><ele>568.0</ele><time>2026-04-24T13:15:56.996Z</time></trkpt><trkpt lat="44.847382022484645" lon="9.331490412489256"><ele>568.0</ele><time>2026-04-24T13:15:57.996Z</time></trkpt><trkpt lat="44.84751681243772" lon="9.331636681617702"><ele>566.0</ele><time>2026-04-24T13:15:58.996Z</time></trkpt><trkpt lat="44.84766906586948" lon="9.331743520847722"><ele>564.0</ele><time>2026-04-24T13:15:59.996Z</time></trkpt><trkpt lat="44.847811998577875" lon="9.331799373733407"><ele>562.0</ele><time>2026-04-24T13:16:00.995Z</time></trkpt><trkpt lat="44.84796023349512" lon="9.331808083304498"><ele>562.0</ele><time>2026-04-24T13:16:01.995Z</time></trkpt><trkpt lat="44.848120131805686" lon="9.331799507021868"><ele>562.0</ele><time>2026-04-24T13:16:02.995Z</time></trkpt><trkpt lat="44.848274848208845" lon="9.331801202307206"><ele>562.0</ele><time>2026-04-24T13:16:03.995Z</time></trkpt><trkpt lat="44.84840738351758" lon="9.331750287787738"><ele>562.0</ele><time>2026-04-24T13:16:04.995Z</time></trkpt><trkpt lat="44.8485434480699" lon="9.331687924022596"><ele>562.0</ele><time>2026-04-24T13:16:05.995Z</time></trkpt><trkpt lat="44.84867797190441" lon="9.331594595405154"><ele>562.0</ele><time>2026-04-24T13:16:06.995Z</time></trkpt><trkpt lat="44.84884138680676" lon="9.3315031524865"><ele>562.0</ele><time>2026-04-24T13:16:07.995Z</time></trkpt><trkpt lat="44.84900748950715" lon="9.331426044572064"><ele>562.0</ele><time>2026-04-24T13:16:08.995Z</time></trkpt><trkpt lat="44.84916335785907" lon="9.33131796431209"><ele>562.0</ele><time>2026-04-24T13:16:09.995Z</time></trkpt><trkpt lat="44.849339407685015" lon="9.331198810383361"><ele>563.0</ele><time>2026-04-24T13:16:10.995Z</time></trkpt><trkpt lat="44.849538234375935" lon="9.331106149396383"><ele>564.0</ele><time>2026-04-24T13:16:11.995Z</time></trkpt><trkpt lat="44.8497400429237" lon="9.331035713385383"><ele>565.0</ele><time>2026-04-24T13:16:12.995Z</time></trkpt><trkpt lat="44.8499351025424" lon="9.330965719147933"><ele>565.0</ele><time>2026-04-24T13:16:13.995Z</time></trkpt><trkpt lat="44.85012286326097" lon="9.330862710386594"><ele>565.0</ele><time>2026-04-24T13:16:14.995Z</time></trkpt><trkpt lat="44.85030661724822" lon="9.330819395140944"><ele>565.0</ele><time>2026-04-24T13:16:15.995Z</time></trkpt><trkpt lat="44.85047468424585" lon="9.330725152622579"><ele>563.6666666666667</ele><time>2026-04-24T13:16:16.995Z</time></trkpt><trkpt lat="44.85066854851694" lon="9.330685390021277"><ele>562.3333333333334</ele><time>2026-04-24T13:16:17.995Z</time></trkpt><trkpt lat="44.85083993301693" lon="9.33059729006707"><ele>561.0</ele><time>2026-04-24T13:16:18.995Z</time></trkpt><trkpt lat="44.850992188079715" lon="9.330572573745183"><ele>561.25</ele><time>2026-04-24T13:16:19.995Z</time></trkpt><trkpt lat="44.85114868651087" lon="9.330549045506105"><ele>561.5</ele><time>2026-04-24T13:16:20.995Z</time></trkpt><trkpt lat="44.85129565368729" lon="9.330476740278105"><ele>561.75</ele><time>2026-04-24T13:16:21.995Z</time></trkpt><trkpt lat="44.851421721752565" lon="9.330441249007142"><ele>562.0</ele><time>2026-04-24T13:16:22.995Z</time></trkpt><trkpt lat="44.85153282711687" lon="9.330381020183285"><ele>562.0</ele><time>2026-04-24T13:16:23.995Z</time></trkpt><trkpt lat="44.851649749209614" lon="9.330300426484632"><ele>562.0</ele><time>2026-04-24T13:16:24.995Z</time></trkpt><trkpt lat="44.851744983085005" lon="9.330194874250777"><ele>562.0</ele><time>2026-04-24T13:16:25.995Z</time></trkpt><trkpt lat="44.851801262805076" lon="9.330048268809348"><ele>562.0</ele><time>2026-04-24T13:16:26.995Z</time></trkpt><trkpt lat="44.8518317192058" lon="9.329877310704685"><ele>560.75</ele><time>2026-04-24T13:16:27.995Z</time></trkpt><trkpt lat="44.85184494130962" lon="9.329704900028256"><ele>559.5</ele><time>2026-04-24T13:16:28.995Z</time></trkpt><trkpt lat="44.851881941146395" lon="9.329580101008682"><ele>558.25</ele><time>2026-04-24T13:16:29.995Z</time></trkpt><trkpt lat="44.851946446826915" lon="9.3294572002617"><ele>557.0</ele><time>2026-04-24T13:16:30.995Z</time></trkpt><trkpt lat="44.852024083319364" lon="9.329306357754088"><ele>557.0</ele><time>2026-04-24T13:16:31.995Z</time></trkpt><trkpt lat="44.85214181920583" lon="9.32916228799536"><ele>557.0</ele><time>2026-04-24T13:16:32.995Z</time></trkpt><trkpt lat="44.85230611947742" lon="9.329120529095418"><ele>557.0</ele><time>2026-04-24T13:16:33.995Z</time></trkpt><trkpt lat="44.85246571919325" lon="9.329085279660317"><ele>555.0</ele><time>2026-04-24T13:16:34.995Z</time></trkpt><trkpt lat="44.852631939562805" lon="9.329037985497624"><ele>553.0</ele><time>2026-04-24T13:16:35.995Z</time></trkpt><trkpt lat="44.852787164663575" lon="9.329003139745474"><ele>551.0</ele><time>2026-04-24T13:16:36.995Z</time></trkpt><trkpt lat="44.85294652165796" lon="9.32899931058323"><ele>551.0</ele><time>2026-04-24T13:16:37.995Z</time></trkpt><trkpt lat="44.853106718806096" lon="9.328920696368748"><ele>551.0</ele><time>2026-04-24T13:16:38.995Z</time></trkpt><trkpt lat="44.853258117157296" lon="9.32884907771223"><ele>551.0</ele><time>2026-04-24T13:16:39.995Z</time></trkpt><trkpt lat="44.85339987050852" lon="9.328724666593324"><ele>549.3333333333333</ele><time>2026-04-24T13:16:40.995Z</time></trkpt><trkpt lat="44.85351799998782" lon="9.328558624732668"><ele>547.6666666666666</ele><time>2026-04-24T13:16:41.995Z</time></trkpt><trkpt lat="44.8536335926648" lon="9.32838082384714"><ele>546.0</ele><time>2026-04-24T13:16:42.995Z</time></trkpt><trkpt lat="44.853756746744246" lon="9.32820533072559"><ele>550.0</ele><time>2026-04-24T13:16:43.995Z</time></trkpt><trkpt lat="44.85387666894258" lon="9.328023454519792"><ele>554.0</ele><time>2026-04-24T13:16:44.995Z</time></trkpt><trkpt lat="44.85400009783601" lon="9.327833029331503"><ele>558.0</ele><time>2026-04-24T13:16:45.995Z</time></trkpt><trkpt lat="44.85411787555367" lon="9.327633128530342"><ele>558.0</ele><time>2026-04-24T13:16:46.995Z</time></trkpt><trkpt lat="44.854247711027426" lon="9.327427127052808"><ele>558.0</ele><time>2026-04-24T13:16:47.995Z</time></trkpt><trkpt lat="44.85435766802658" lon="9.327227888454237"><ele>558.0</ele><time>2026-04-24T13:16:48.995Z</time></trkpt><trkpt lat="44.85448700435328" lon="9.32704521996257"><ele>557.6666666666666</ele><time>2026-04-24T13:16:49.995Z</time></trkpt><trkpt lat="44.85463041236723" lon="9.326869735407017"><ele>557.3333333333333</ele><time>2026-04-24T13:16:50.995Z</time></trkpt><trkpt lat="44.854783888403354" lon="9.326769248163847"><ele>557.0</ele><time>2026-04-24T13:16:51.995Z</time></trkpt><trkpt lat="44.85496414649125" lon="9.326690098625553"><ele>552.3333333333333</ele><time>2026-04-24T13:16:52.995Z</time></trkpt><trkpt lat="44.85514658622972" lon="9.326584372599006"><ele>547.6666666666666</ele><time>2026-04-24T13:16:53.995Z</time></trkpt><trkpt lat="44.855306725177606" lon="9.326460720443027"><ele>543.0</ele><time>2026-04-24T13:16:54.995Z</time></trkpt><trkpt lat="44.85547802441071" lon="9.326395937856898"><ele>540.6666666666666</ele><time>2026-04-24T13:16:55.995Z</time></trkpt><trkpt lat="44.85563863718507" lon="9.32625687157476"><ele>538.3333333333333</ele><time>2026-04-24T13:16:56.995Z</time></trkpt><trkpt lat="44.85580537490895" lon="9.32615479257985"><ele>536.0</ele><time>2026-04-24T13:16:57.995Z</time></trkpt><trkpt lat="44.855962248021584" lon="9.326026069773043"><ele>536.0</ele><time>2026-04-24T13:16:58.995Z</time></trkpt><trkpt lat="44.856086566382984" lon="9.325854476620421"><ele>536.0</ele><time>2026-04-24T13:16:59.995Z</time></trkpt><trkpt lat="44.85623340418673" lon="9.32571280120287"><ele>536.0</ele><time>2026-04-24T13:17:00.995Z</time></trkpt><trkpt lat="44.8563445019985" lon="9.325566093412638"><ele>539.3333333333333</ele><time>2026-04-24T13:17:01.995Z</time></trkpt><trkpt lat="44.85643324450035" lon="9.325420370463345"><ele>542.6666666666666</ele><time>2026-04-24T13:17:02.995Z</time></trkpt><trkpt lat="44.856532607976554" lon="9.325241856008791"><ele>546.0</ele><time>2026-04-24T13:17:03.995Z</time></trkpt><trkpt lat="44.85660006784232" lon="9.325013948733558"><ele>546.0</ele><time>2026-04-24T13:17:04.995Z</time></trkpt><trkpt lat="44.85667509408487" lon="9.324810264803212"><ele>546.0</ele><time>2026-04-24T13:17:05.994Z</time></trkpt><trkpt lat="44.856651609995765" lon="9.324542267866173"><ele>546.0</ele><time>2026-04-24T13:17:06.994Z</time></trkpt><trkpt lat="44.85672651711915" lon="9.324380071830854"><ele>544.75</ele><time>2026-04-24T13:17:07.994Z</time></trkpt><trkpt lat="44.85680628764511" lon="9.324229101996092"><ele>543.5</ele><time>2026-04-24T13:17:08.994Z</time></trkpt><trkpt lat="44.85691475832882" lon="9.324107709330338"><ele>542.25</ele><time>2026-04-24T13:17:09.994Z</time></trkpt><trkpt lat="44.85702136189646" lon="9.323954004866678"><ele>541.0</ele><time>2026-04-24T13:17:10.994Z</time></trkpt><trkpt lat="44.857119548168605" lon="9.323767923227798"><ele>541.0</ele><time>2026-04-24T13:17:11.994Z</time></trkpt><trkpt lat="44.8572343773585" lon="9.323567742067077"><ele>541.0</ele><time>2026-04-24T13:17:12.994Z</time></trkpt><trkpt lat="44.857332928513856" lon="9.323346270523587"><ele>541.0</ele><time>2026-04-24T13:17:13.994Z</time></trkpt><trkpt lat="44.857439757016216" lon="9.323105228647345"><ele>543.6666666666667</ele><time>2026-04-24T13:17:14.994Z</time></trkpt><trkpt lat="44.85752793918223" lon="9.322899698292948"><ele>546.3333333333334</ele><time>2026-04-24T13:17:15.994Z</time></trkpt><trkpt lat="44.85763223688674" lon="9.322682433836794"><ele>549.0</ele><time>2026-04-24T13:17:16.994Z</time></trkpt><trkpt lat="44.85773181043392" lon="9.322466931907794"><ele>543.3333333333334</ele><time>2026-04-24T13:17:17.994Z</time></trkpt><trkpt lat="44.857832317583416" lon="9.322250531267159"><ele>537.6666666666667</ele><time>2026-04-24T13:17:18.994Z</time></trkpt><trkpt lat="44.85792382951338" lon="9.32202780942966"><ele>532.0</ele><time>2026-04-24T13:17:19.994Z</time></trkpt><trkpt lat="44.85802071698819" lon="9.321813546561053"><ele>532.0</ele><time>2026-04-24T13:17:20.994Z</time></trkpt><trkpt lat="44.85810529730397" lon="9.321588162381929"><ele>532.0</ele><time>2026-04-24T13:17:21.994Z</time></trkpt><trkpt lat="44.858155757373865" lon="9.321340972580686"><ele>532.0</ele><time>2026-04-24T13:17:22.994Z</time></trkpt><trkpt lat="44.85820075575124" lon="9.321065132455757"><ele>534.3333333333334</ele><time>2026-04-24T13:17:23.994Z</time></trkpt><trkpt lat="44.858239557814414" lon="9.320815690744952"><ele>536.6666666666666</ele><time>2026-04-24T13:17:24.994Z</time></trkpt><trkpt lat="44.85830949670705" lon="9.320569346586266"><ele>539.0</ele><time>2026-04-24T13:17:25.994Z</time></trkpt><trkpt lat="44.85835502949964" lon="9.320343481054845"><ele>540.3333333333333</ele><time>2026-04-24T13:17:26.994Z</time></trkpt><trkpt lat="44.8584243490156" lon="9.32010998978307"><ele>541.6666666666666</ele><time>2026-04-24T13:17:27.994Z</time></trkpt><trkpt lat="44.85849204069977" lon="9.319888382053314"><ele>543.0</ele><time>2026-04-24T13:17:28.994Z</time></trkpt><trkpt lat="44.85858253427431" lon="9.3197126344478"><ele>537.0</ele><time>2026-04-24T13:17:29.994Z</time></trkpt><trkpt lat="44.858679850477614" lon="9.319468252717847"><ele>531.0</ele><time>2026-04-24T13:17:30.994Z</time></trkpt><trkpt lat="44.8587852652264" lon="9.319264085335002"><ele>525.0</ele><time>2026-04-24T13:17:31.994Z</time></trkpt><trkpt lat="44.85888270684639" lon="9.31904637202935"><ele>528.0</ele><time>2026-04-24T13:17:32.994Z</time></trkpt><trkpt lat="44.85897935887805" lon="9.31880874067994"><ele>531.0</ele><time>2026-04-24T13:17:33.994Z</time></trkpt><trkpt lat="44.85905204512151" lon="9.318575271093513"><ele>534.0</ele><time>2026-04-24T13:17:34.994Z</time></trkpt><trkpt lat="44.859149999645076" lon="9.31836224219518"><ele>534.0</ele><time>2026-04-24T13:17:35.994Z</time></trkpt><trkpt lat="44.8591849011296" lon="9.31808539461061"><ele>534.0</ele><time>2026-04-24T13:17:36.994Z</time></trkpt><trkpt lat="44.859274701358046" lon="9.317872675247031"><ele>534.0</ele><time>2026-04-24T13:17:37.994Z</time></trkpt><trkpt lat="44.85938118136639" lon="9.317665778984889"><ele>530.0</ele><time>2026-04-24T13:17:38.994Z</time></trkpt><trkpt lat="44.85948188622797" lon="9.317475569266833"><ele>526.0</ele><time>2026-04-24T13:17:39.994Z</time></trkpt><trkpt lat="44.859584868242116" lon="9.317285737491392"><ele>522.0</ele><time>2026-04-24T13:17:40.994Z</time></trkpt><trkpt lat="44.85967857193869" lon="9.317112779727726"><ele>522.0</ele><time>2026-04-24T13:17:41.994Z</time></trkpt><trkpt lat="44.859764209220124" lon="9.316955255341016"><ele>522.0</ele><time>2026-04-24T13:17:42.994Z</time></trkpt><trkpt lat="44.859828835205455" lon="9.316798358715696"><ele>522.0</ele><time>2026-04-24T13:17:43.994Z</time></trkpt><trkpt lat="44.85990290437207" lon="9.316663783170076"><ele>522.0</ele><time>2026-04-24T13:17:44.994Z</time></trkpt><trkpt lat="44.85986752582048" lon="9.316531411529045"><ele>521.25</ele><time>2026-04-24T13:17:45.994Z</time></trkpt><trkpt lat="44.85977297638113" lon="9.316385415492709"><ele>520.5</ele><time>2026-04-24T13:17:47.994Z</time></trkpt><trkpt lat="44.859692505724354" lon="9.316322548159157"><ele>519.75</ele><time>2026-04-24T13:17:48.994Z</time></trkpt><trkpt lat="44.85957829026745" lon="9.316248330374712"><ele>519.0</ele><time>2026-04-24T13:17:49.994Z</time></trkpt><trkpt lat="44.85950139896139" lon="9.31615365635849"><ele>519.0</ele><time>2026-04-24T13:17:50.994Z</time></trkpt><trkpt lat="44.859390561880865" lon="9.316018996990172"><ele>519.0</ele><time>2026-04-24T13:17:51.994Z</time></trkpt><trkpt lat="44.85932392333285" lon="9.315879488387608"><ele>519.0</ele><time>2026-04-24T13:17:52.994Z</time></trkpt><trkpt lat="44.85929462852121" lon="9.315716249315923"><ele>519.0</ele><time>2026-04-24T13:17:53.994Z</time></trkpt><trkpt lat="44.85930572397916" lon="9.315573007546144"><ele>520.75</ele><time>2026-04-24T13:17:54.994Z</time></trkpt><trkpt lat="44.859349477845335" lon="9.315428659817123"><ele>522.5</ele><time>2026-04-24T13:17:55.994Z</time></trkpt><trkpt lat="44.8594166243677" lon="9.31531228666519"><ele>524.25</ele><time>2026-04-24T13:17:56.994Z</time></trkpt><trkpt lat="44.859517276448834" lon="9.315232325103185"><ele>526.0</ele><time>2026-04-24T13:17:57.994Z</time></trkpt><trkpt lat="44.85963273656073" lon="9.315177641453603"><ele>526.0</ele><time>2026-04-24T13:17:58.994Z</time></trkpt><trkpt lat="44.85977763000429" lon="9.315145847972236"><ele>526.0</ele><time>2026-04-24T13:17:59.994Z</time></trkpt><trkpt lat="44.85992794699024" lon="9.315116488253452"><ele>526.0</ele><time>2026-04-24T13:18:00.994Z</time></trkpt><trkpt lat="44.86007398805643" lon="9.31505498076572"><ele>526.25</ele><time>2026-04-24T13:18:01.994Z</time></trkpt><trkpt lat="44.86021606939313" lon="9.315008823154448"><ele>526.5</ele><time>2026-04-24T13:18:03Z</time></trkpt><trkpt lat="44.86033569803768" lon="9.314931772858408"><ele>526.75</ele><time>2026-04-24T13:18:04Z</time></trkpt><trkpt lat="44.86044256139627" lon="9.3148419075446"><ele>527.0</ele><time>2026-04-24T13:18:05Z</time></trkpt><trkpt lat="44.860549733617916" lon="9.31473496728441"><ele>527.0</ele><time>2026-04-24T13:18:06Z</time></trkpt><trkpt lat="44.86063482743365" lon="9.314586706684018"><ele>527.0</ele><time>2026-04-24T13:18:07Z</time></trkpt><trkpt lat="44.86074166746771" lon="9.31445815560113"><ele>527.0</ele><time>2026-04-24T13:18:08Z</time></trkpt><trkpt lat="44.86086512746255" lon="9.314323952974943"><ele>527.0</ele><time>2026-04-24T13:18:09Z</time></trkpt><trkpt lat="44.860991006420996" lon="9.314193679446344"><ele>526.5</ele><time>2026-04-24T13:18:10Z</time></trkpt><trkpt lat="44.86111933211943" lon="9.314109785255278"><ele>526.0</ele><time>2026-04-24T13:18:11Z</time></trkpt><trkpt lat="44.86125555704413" lon="9.31404559019579"><ele>525.5</ele><time>2026-04-24T13:18:12Z</time></trkpt><trkpt lat="44.86140547216354" lon="9.313975982471002"><ele>525.0</ele><time>2026-04-24T13:18:13Z</time></trkpt><trkpt lat="44.86157064581078" lon="9.313881469569036"><ele>525.0</ele><time>2026-04-24T13:18:14Z</time></trkpt><trkpt lat="44.86168212816094" lon="9.313734289824659"><ele>525.0</ele><time>2026-04-24T13:18:15Z</time></trkpt><trkpt lat="44.86178701165298" lon="9.313593169810297"><ele>525.0</ele><time>2026-04-24T13:18:16Z</time></trkpt><trkpt lat="44.86186069846793" lon="9.313386403236732"><ele>520.0</ele><time>2026-04-24T13:18:17Z</time></trkpt><trkpt lat="44.861887607412704" lon="9.313163288212333"><ele>515.0</ele><time>2026-04-24T13:18:18Z</time></trkpt><trkpt lat="44.86193367629745" lon="9.312946301937293"><ele>510.0</ele><time>2026-04-24T13:18:19Z</time></trkpt><trkpt lat="44.861994245785866" lon="9.312714455603901"><ele>510.0</ele><time>2026-04-24T13:18:20Z</time></trkpt><trkpt lat="44.86205992183053" lon="9.31248569290019"><ele>510.0</ele><time>2026-04-24T13:18:21Z</time></trkpt><trkpt lat="44.86210888231771" lon="9.312243062394092"><ele>510.0</ele><time>2026-04-24T13:18:22Z</time></trkpt><trkpt lat="44.86216340476398" lon="9.312003661965724"><ele>512.0</ele><time>2026-04-24T13:18:23Z</time></trkpt><trkpt lat="44.862240760465646" lon="9.31177124678465"><ele>514.0</ele><time>2026-04-24T13:18:24Z</time></trkpt><trkpt lat="44.86229712576592" lon="9.311562259727163"><ele>516.0</ele><time>2026-04-24T13:18:25Z</time></trkpt><trkpt lat="44.86234802024403" lon="9.311387649980862"><ele>516.0</ele><time>2026-04-24T13:18:26Z</time></trkpt><trkpt lat="44.86240445920689" lon="9.311202355517844"><ele>516.0</ele><time>2026-04-24T13:18:27Z</time></trkpt><trkpt lat="44.862381148631265" lon="9.311034540576626"><ele>516.0</ele><time>2026-04-24T13:18:28Z</time></trkpt><trkpt lat="44.86236132718455" lon="9.310842884799909"><ele>516.0</ele><time>2026-04-24T13:18:29Z</time></trkpt><trkpt lat="44.86232483889728" lon="9.310648831611799"><ele>517.3333333333334</ele><time>2026-04-24T13:18:30Z</time></trkpt><trkpt lat="44.862318938547" lon="9.31043570242728"><ele>518.6666666666667</ele><time>2026-04-24T13:18:31Z</time></trkpt><trkpt lat="44.86231727838471" lon="9.310186513944428"><ele>520.0</ele><time>2026-04-24T13:18:32Z</time></trkpt><trkpt lat="44.86238378569911" lon="9.309959212349586"><ele>521.3333333333334</ele><time>2026-04-24T13:18:33Z</time></trkpt><trkpt lat="44.862439159641575" lon="9.30971869810502"><ele>522.6666666666666</ele><time>2026-04-24T13:18:34Z</time></trkpt><trkpt lat="44.86248523527037" lon="9.309488570784714"><ele>524.0</ele><time>2026-04-24T13:18:35Z</time></trkpt><trkpt lat="44.86253790888076" lon="9.309247064340058"><ele>518.6666666666666</ele><time>2026-04-24T13:18:36Z</time></trkpt><trkpt lat="44.86263346872313" lon="9.309057258950581"><ele>513.3333333333334</ele><time>2026-04-24T13:18:37Z</time></trkpt><trkpt lat="44.862744840128606" lon="9.308907805581931"><ele>508.0</ele><time>2026-04-24T13:18:37.999Z</time></trkpt><trkpt lat="44.862857679540106" lon="9.308790147141636"><ele>508.0</ele><time>2026-04-24T13:18:38.999Z</time></trkpt><trkpt lat="44.8629652802363" lon="9.308655670530898"><ele>508.0</ele><time>2026-04-24T13:18:39.999Z</time></trkpt><trkpt lat="44.863032711939304" lon="9.308463681404923"><ele>508.0</ele><time>2026-04-24T13:18:40.999Z</time></trkpt><trkpt lat="44.86300452075644" lon="9.308316522565187"><ele>508.0</ele><time>2026-04-24T13:18:41.999Z</time></trkpt><trkpt lat="44.86298108744126" lon="9.308166867962083"><ele>506.5</ele><time>2026-04-24T13:18:42.999Z</time></trkpt><trkpt lat="44.86288707934918" lon="9.308049795271211"><ele>505.0</ele><time>2026-04-24T13:18:43.999Z</time></trkpt><trkpt lat="44.862791309819016" lon="9.307907355832826"><ele>503.5</ele><time>2026-04-24T13:18:44.999Z</time></trkpt><trkpt lat="44.862707734702795" lon="9.30772782401484"><ele>502.0</ele><time>2026-04-24T13:18:45.999Z</time></trkpt><trkpt lat="44.86262300269762" lon="9.307576133733601"><ele>502.25</ele><time>2026-04-24T13:18:46.999Z</time></trkpt><trkpt lat="44.86255184917806" lon="9.307417170657054"><ele>502.5</ele><time>2026-04-24T13:18:47.999Z</time></trkpt><trkpt lat="44.86253105858653" lon="9.307267905543636"><ele>502.75</ele><time>2026-04-24T13:18:48.999Z</time></trkpt><trkpt lat="44.86255540137449" lon="9.307129502911645"><ele>503.0</ele><time>2026-04-24T13:18:49.999Z</time></trkpt><trkpt lat="44.86261593451042" lon="9.306919079729841"><ele>503.0</ele><time>2026-04-24T13:18:50.999Z</time></trkpt><trkpt lat="44.862646214195294" lon="9.306685717120947"><ele>503.0</ele><time>2026-04-24T13:18:51.999Z</time></trkpt><trkpt lat="44.86258193442567" lon="9.30647778135"><ele>503.0</ele><time>2026-04-24T13:18:52.999Z</time></trkpt><trkpt lat="44.862522138006085" lon="9.306308488783724"><ele>508.5</ele><time>2026-04-24T13:18:53.999Z</time></trkpt><trkpt lat="44.862466819148366" lon="9.306133345034734"><ele>514.0</ele><time>2026-04-24T13:18:54.999Z</time></trkpt><trkpt lat="44.86243005968801" lon="9.305969038581507"><ele>519.5</ele><time>2026-04-24T13:18:55.999Z</time></trkpt><trkpt lat="44.8624408068677" lon="9.305826061482216"><ele>525.0</ele><time>2026-04-24T13:18:56.999Z</time></trkpt><trkpt lat="44.86247786524985" lon="9.305657503836043"><ele>527.0</ele><time>2026-04-24T13:18:57.999Z</time></trkpt><trkpt lat="44.862548988011035" lon="9.305449436164166"><ele>529.0</ele><time>2026-04-24T13:18:58.999Z</time></trkpt><trkpt lat="44.862642056868566" lon="9.305212674317456"><ele>531.0</ele><time>2026-04-24T13:18:59.999Z</time></trkpt><trkpt lat="44.862703463191735" lon="9.304979906693747"><ele>522.6666666666666</ele><time>2026-04-24T13:19:00.999Z</time></trkpt><trkpt lat="44.86277762962738" lon="9.304770620436239"><ele>514.3333333333333</ele><time>2026-04-24T13:19:01.999Z</time></trkpt><trkpt lat="44.86282838942364" lon="9.304548961128706"><ele>506.0</ele><time>2026-04-24T13:19:02.999Z</time></trkpt><trkpt lat="44.86283568628517" lon="9.304336069601032"><ele>506.0</ele><time>2026-04-24T13:19:03.999Z</time></trkpt><trkpt lat="44.86285893089055" lon="9.304115749694187"><ele>506.0</ele><time>2026-04-24T13:19:04.999Z</time></trkpt><trkpt lat="44.862859008252414" lon="9.303866700400988"><ele>506.0</ele><time>2026-04-24T13:19:05.999Z</time></trkpt><trkpt lat="44.862847904705866" lon="9.303650125484424"><ele>506.0</ele><time>2026-04-24T13:19:06.999Z</time></trkpt><trkpt lat="44.86287062503349" lon="9.303436016109197"><ele>506.0</ele><time>2026-04-24T13:19:07.999Z</time></trkpt><trkpt lat="44.86288061692703" lon="9.303221213508156"><ele>506.0</ele><time>2026-04-24T13:19:08.999Z</time></trkpt><trkpt lat="44.86285660394387" lon="9.303015622053255"><ele>506.0</ele><time>2026-04-24T13:19:09.999Z</time></trkpt><trkpt lat="44.86281570023918" lon="9.302821073606347"><ele>506.0</ele><time>2026-04-24T13:19:10.999Z</time></trkpt><trkpt lat="44.86278007361251" lon="9.30261418821654"><ele>506.0</ele><time>2026-04-24T13:19:11.999Z</time></trkpt><trkpt lat="44.86276853620332" lon="9.302380849225212"><ele>507.0</ele><time>2026-04-24T13:19:12.999Z</time></trkpt><trkpt lat="44.862783284370664" lon="9.302140518030384"><ele>508.0</ele><time>2026-04-24T13:19:13.999Z</time></trkpt><trkpt lat="44.86283969339719" lon="9.301939375979092"><ele>509.0</ele><time>2026-04-24T13:19:14.999Z</time></trkpt><trkpt lat="44.86291040025788" lon="9.301760851158"><ele>509.0</ele><time>2026-04-24T13:19:15.999Z</time></trkpt><trkpt lat="44.86301670345205" lon="9.301591045859675"><ele>509.0</ele><time>2026-04-24T13:19:16.999Z</time></trkpt><trkpt lat="44.86313202762922" lon="9.301432596546768"><ele>509.0</ele><time>2026-04-24T13:19:17.999Z</time></trkpt><trkpt lat="44.86324627715719" lon="9.301270436343977"><ele>513.6666666666666</ele><time>2026-04-24T13:19:18.999Z</time></trkpt><trkpt lat="44.863341277356376" lon="9.301067975073284"><ele>518.3333333333334</ele><time>2026-04-24T13:19:19.999Z</time></trkpt><trkpt lat="44.86343498726638" lon="9.30085175514992"><ele>523.0</ele><time>2026-04-24T13:19:20.999Z</time></trkpt><trkpt lat="44.86347970210728" lon="9.300623128174236"><ele>513.6666666666667</ele><time>2026-04-24T13:19:21.999Z</time></trkpt><trkpt lat="44.86352733312132" lon="9.300393554481001"><ele>504.33333333333337</ele><time>2026-04-24T13:19:22.999Z</time></trkpt><trkpt lat="44.8635854071343" lon="9.300208387635568"><ele>495.0</ele><time>2026-04-24T13:19:23.999Z</time></trkpt><trkpt lat="44.8636599591029" lon="9.300020188566027"><ele>495.0</ele><time>2026-04-24T13:19:24.999Z</time></trkpt><trkpt lat="44.8637485503207" lon="9.29978930547026"><ele>495.0</ele><time>2026-04-24T13:19:25.999Z</time></trkpt><trkpt lat="44.86380049909087" lon="9.299555444680342"><ele>495.0</ele><time>2026-04-24T13:19:26.999Z</time></trkpt><trkpt lat="44.86378814939674" lon="9.29937372300561"><ele>494.0</ele><time>2026-04-24T13:19:27.999Z</time></trkpt><trkpt lat="44.863728734549234" lon="9.299187099112872"><ele>493.0</ele><time>2026-04-24T13:19:28.999Z</time></trkpt><trkpt lat="44.86366213669981" lon="9.298990490242742"><ele>492.0</ele><time>2026-04-24T13:19:29.999Z</time></trkpt><trkpt lat="44.863609310903605" lon="9.298764781710554"><ele>490.0</ele><time>2026-04-24T13:19:30.999Z</time></trkpt><trkpt lat="44.86358980973971" lon="9.298526175740529"><ele>488.0</ele><time>2026-04-24T13:19:31.999Z</time></trkpt><trkpt lat="44.86356427239867" lon="9.29828126034424"><ele>486.0</ele><time>2026-04-24T13:19:32.999Z</time></trkpt><trkpt lat="44.86356142337465" lon="9.298015517641142"><ele>486.0</ele><time>2026-04-24T13:19:33.999Z</time></trkpt><trkpt lat="44.86359246513619" lon="9.297767691320407"><ele>486.0</ele><time>2026-04-24T13:19:34.999Z</time></trkpt><trkpt lat="44.86364609175353" lon="9.297527317107532"><ele>486.0</ele><time>2026-04-24T13:19:35.998Z</time></trkpt><trkpt lat="44.86371073149641" lon="9.29728305232198"><ele>487.0</ele><time>2026-04-24T13:19:36.998Z</time></trkpt><trkpt lat="44.86377858900781" lon="9.297037630233524"><ele>488.0</ele><time>2026-04-24T13:19:37.998Z</time></trkpt><trkpt lat="44.86384567143325" lon="9.296796023063784"><ele>489.0</ele><time>2026-04-24T13:19:38.998Z</time></trkpt><trkpt lat="44.86391212728256" lon="9.296550908830385"><ele>491.33333333333337</ele><time>2026-04-24T13:19:39.998Z</time></trkpt><trkpt lat="44.863968168453546" lon="9.296314203604355"><ele>493.6666666666667</ele><time>2026-04-24T13:19:40.998Z</time></trkpt><trkpt lat="44.864001617073924" lon="9.296105267137506"><ele>496.0</ele><time>2026-04-24T13:19:41.998Z</time></trkpt><trkpt lat="44.86402738927582" lon="9.295897204628242"><ele>496.0</ele><time>2026-04-24T13:19:42.998Z</time></trkpt><trkpt lat="44.86408349610394" lon="9.29574239951333"><ele>496.0</ele><time>2026-04-24T13:19:43.998Z</time></trkpt><trkpt lat="44.8641705873794" lon="9.29560919621911"><ele>496.0</ele><time>2026-04-24T13:19:44.998Z</time></trkpt><trkpt lat="44.864267322004224" lon="9.29551961846029"><ele>496.0</ele><time>2026-04-24T13:19:45.998Z</time></trkpt><trkpt lat="44.86437349039673" lon="9.295394819897016"><ele>489.75</ele><time>2026-04-24T13:19:46.998Z</time></trkpt><trkpt lat="44.86447743358518" lon="9.29525205698733"><ele>483.5</ele><time>2026-04-24T13:19:47.998Z</time></trkpt><trkpt lat="44.86452583632336" lon="9.295088655746355"><ele>477.25</ele><time>2026-04-24T13:19:48.998Z</time></trkpt><trkpt lat="44.86451932846941" lon="9.29493171419166"><ele>471.0</ele><time>2026-04-24T13:19:49.998Z</time></trkpt><trkpt lat="44.86449829947609" lon="9.294722597565777"><ele>471.0</ele><time>2026-04-24T13:19:50.998Z</time></trkpt><trkpt lat="44.8644978730403" lon="9.29452073269948"><ele>471.0</ele><time>2026-04-24T13:19:51.998Z</time></trkpt><trkpt lat="44.864531294937706" lon="9.294340752266764"><ele>471.0</ele><time>2026-04-24T13:19:52.998Z</time></trkpt><trkpt lat="44.86458244394241" lon="9.294201630672667"><ele>471.0</ele><time>2026-04-24T13:19:53.998Z</time></trkpt><trkpt lat="44.864645273315546" lon="9.294049211750005"><ele>470.33333333333337</ele><time>2026-04-24T13:19:54.998Z</time></trkpt><trkpt lat="44.864693862549665" lon="9.293844266902454"><ele>469.6666666666667</ele><time>2026-04-24T13:19:55.998Z</time></trkpt><trkpt lat="44.86469188261939" lon="9.293637469405043"><ele>469.0</ele><time>2026-04-24T13:19:56.998Z</time></trkpt><trkpt lat="44.8646557716268" lon="9.293408508345536"><ele>469.0</ele><time>2026-04-24T13:19:57.998Z</time></trkpt><trkpt lat="44.86463553084045" lon="9.29313759011904"><ele>469.0</ele><time>2026-04-24T13:19:58.998Z</time></trkpt><trkpt lat="44.86459440886481" lon="9.292876965992932"><ele>469.0</ele><time>2026-04-24T13:19:59.998Z</time></trkpt><trkpt lat="44.86457004345466" lon="9.292641140776409"><ele>469.5</ele><time>2026-04-24T13:20:00.998Z</time></trkpt><trkpt lat="44.86452110935241" lon="9.292436712756372"><ele>470.0</ele><time>2026-04-24T13:20:01.998Z</time></trkpt><trkpt lat="44.86450722867159" lon="9.292251601488726"><ele>470.5</ele><time>2026-04-24T13:20:02.998Z</time></trkpt><trkpt lat="44.86451769083203" lon="9.292100868040627"><ele>471.0</ele><time>2026-04-24T13:20:03.998Z</time></trkpt><trkpt lat="44.86455014969593" lon="9.292021694813592"><ele>473.25</ele><time>2026-04-24T13:20:04.998Z</time></trkpt><trkpt lat="44.864615724361094" lon="9.291967460115789"><ele>475.5</ele><time>2026-04-24T13:20:05.998Z</time></trkpt><trkpt lat="44.86467124695728" lon="9.291924192518277"><ele>477.75</ele><time>2026-04-24T13:20:06.998Z</time></trkpt><trkpt lat="44.864859163417485" lon="9.291931479900228"><ele>480.0</ele><time>2026-04-24T13:20:08.998Z</time></trkpt><trkpt lat="44.865024185963925" lon="9.292048888623004"><ele>479.66666666666663</ele><time>2026-04-24T13:20:09.998Z</time></trkpt><trkpt lat="44.86518727450683" lon="9.292148040504115"><ele>479.3333333333333</ele><time>2026-04-24T13:20:10.998Z</time></trkpt><trkpt lat="44.86533306988151" lon="9.292217337043711"><ele>479.0</ele><time>2026-04-24T13:20:11.998Z</time></trkpt><trkpt lat="44.865486597995016" lon="9.292266257624615"><ele>479.0</ele><time>2026-04-24T13:20:12.998Z</time></trkpt><trkpt lat="44.865604239926" lon="9.292300953975435"><ele>479.0</ele><time>2026-04-24T13:20:13.998Z</time></trkpt><trkpt lat="44.865722643391635" lon="9.292285595834807"><ele>479.0</ele><time>2026-04-24T13:20:14.998Z</time></trkpt><trkpt lat="44.86582280073174" lon="9.292182169241645"><ele>479.0</ele><time>2026-04-24T13:20:16.998Z</time></trkpt><trkpt lat="44.86582445745388" lon="9.2920272659135"><ele>479.0</ele><time>2026-04-24T13:20:17.998Z</time></trkpt><trkpt lat="44.865835240867426" lon="9.291805869427243"><ele>479.0</ele><time>2026-04-24T13:20:18.998Z</time></trkpt><trkpt lat="44.86581315127201" lon="9.2915019112475"><ele>479.0</ele><time>2026-04-24T13:20:19.998Z</time></trkpt><trkpt lat="44.86577045910114" lon="9.291267660971423"><ele>480.0</ele><time>2026-04-24T13:20:20.998Z</time></trkpt><trkpt lat="44.86570730716901" lon="9.291058371391262"><ele>481.0</ele><time>2026-04-24T13:20:21.998Z</time></trkpt><trkpt lat="44.865637036125825" lon="9.290906253580857"><ele>482.0</ele><time>2026-04-24T13:20:22.998Z</time></trkpt><trkpt lat="44.86552198878598" lon="9.290812337029555"><ele>483.0</ele><time>2026-04-24T13:20:23.998Z</time></trkpt><trkpt lat="44.8653833888089" lon="9.290699107446898"><ele>484.5</ele><time>2026-04-24T13:20:24.998Z</time></trkpt><trkpt lat="44.865336879210986" lon="9.290567184258839"><ele>486.0</ele><time>2026-04-24T13:20:25.998Z</time></trkpt><trkpt lat="44.865358139677745" lon="9.290462111997147"><ele>487.5</ele><time>2026-04-24T13:20:26.998Z</time></trkpt><trkpt lat="44.865491643483004" lon="9.29030288021422"><ele>489.0</ele><time>2026-04-24T13:20:28.998Z</time></trkpt><trkpt lat="44.8656505088606" lon="9.29019236328641"><ele>489.0</ele><time>2026-04-24T13:20:29.998Z</time></trkpt><trkpt lat="44.865810865758924" lon="9.290066100447456"><ele>489.0</ele><time>2026-04-24T13:20:30.998Z</time></trkpt><trkpt lat="44.86596826817027" lon="9.289943643939555"><ele>489.0</ele><time>2026-04-24T13:20:31.998Z</time></trkpt><trkpt lat="44.866112620202124" lon="9.28984080131203"><ele>489.66666666666663</ele><time>2026-04-24T13:20:32.998Z</time></trkpt><trkpt lat="44.86626796525401" lon="9.289728825272721"><ele>490.3333333333333</ele><time>2026-04-24T13:20:33.998Z</time></trkpt><trkpt lat="44.86640509899352" lon="9.28961455935153"><ele>491.0</ele><time>2026-04-24T13:20:34.998Z</time></trkpt><trkpt lat="44.86653648286682" lon="9.289470787801969"><ele>491.0</ele><time>2026-04-24T13:20:35.998Z</time></trkpt><trkpt lat="44.86666119103937" lon="9.289295436281522"><ele>491.0</ele><time>2026-04-24T13:20:36.997Z</time></trkpt><trkpt lat="44.866753901076784" lon="9.289100355974192"><ele>491.0</ele><time>2026-04-24T13:20:37.997Z</time></trkpt><trkpt lat="44.86685160270032" lon="9.288905270546765"><ele>491.75</ele><time>2026-04-24T13:20:38.997Z</time></trkpt><trkpt lat="44.86694828881381" lon="9.288731491671673"><ele>492.5</ele><time>2026-04-24T13:20:39.997Z</time></trkpt><trkpt lat="44.86703756981863" lon="9.288564369220671"><ele>493.25</ele><time>2026-04-24T13:20:40.997Z</time></trkpt><trkpt lat="44.86713027668996" lon="9.28844864483212"><ele>494.0</ele><time>2026-04-24T13:20:41.997Z</time></trkpt><trkpt lat="44.86726658706373" lon="9.288350292868754"><ele>494.0</ele><time>2026-04-24T13:20:42.997Z</time></trkpt><trkpt lat="44.86742855676448" lon="9.288334869436211"><ele>494.0</ele><time>2026-04-24T13:20:43.997Z</time></trkpt><trkpt lat="44.867575093137695" lon="9.288302898683016"><ele>494.0</ele><time>2026-04-24T13:20:44.997Z</time></trkpt><trkpt lat="44.86773118615772" lon="9.288309855125537"><ele>489.5</ele><time>2026-04-24T13:20:45.997Z</time></trkpt><trkpt lat="44.86788700305529" lon="9.288296915284981"><ele>485.0</ele><time>2026-04-24T13:20:46.997Z</time></trkpt><trkpt lat="44.868019064767694" lon="9.288282489571612"><ele>480.5</ele><time>2026-04-24T13:20:47.997Z</time></trkpt><trkpt lat="44.86813006434537" lon="9.288254170620393"><ele>476.0</ele><time>2026-04-24T13:20:48.997Z</time></trkpt><trkpt lat="44.86823918453989" lon="9.288178622086495"><ele>478.75</ele><time>2026-04-24T13:20:49.997Z</time></trkpt><trkpt lat="44.868308756652986" lon="9.288009656500458"><ele>481.5</ele><time>2026-04-24T13:20:50.997Z</time></trkpt><trkpt lat="44.868379223128315" lon="9.287859500118174"><ele>484.25</ele><time>2026-04-24T13:20:51.997Z</time></trkpt><trkpt lat="44.8684174270176" lon="9.287689340677778"><ele>487.0</ele><time>2026-04-24T13:20:52.997Z</time></trkpt><trkpt lat="44.86841478817573" lon="9.28757005793662"><ele>487.0</ele><time>2026-04-24T13:20:53.997Z</time></trkpt><trkpt lat="44.86837265033546" lon="9.287440375425772"><ele>487.00000000000006</ele><time>2026-04-24T13:20:54.997Z</time></trkpt><trkpt lat="44.86829787130539" lon="9.287310849416658"><ele>487.00000000000006</ele><time>2026-04-24T13:20:55.997Z</time></trkpt><trkpt lat="44.86820485380107" lon="9.287219457811553"><ele>487.0</ele><time>2026-04-24T13:20:56.997Z</time></trkpt><trkpt lat="44.868142118259414" lon="9.287108306848161"><ele>487.0</ele><time>2026-04-24T13:20:57.997Z</time></trkpt><trkpt lat="44.86811217150756" lon="9.286987216582089"><ele>487.0</ele><time>2026-04-24T13:20:58.997Z</time></trkpt><trkpt lat="44.868120749824804" lon="9.286878558844217"><ele>487.0</ele><time>2026-04-24T13:20:59.997Z</time></trkpt><trkpt lat="44.86814950354482" lon="9.286750243274124"><ele>487.0</ele><time>2026-04-24T13:21:00.997Z</time></trkpt><trkpt lat="44.868220774242" lon="9.286571840196864"><ele>487.0</ele><time>2026-04-24T13:21:01.997Z</time></trkpt><trkpt lat="44.86831101027509" lon="9.2863150538992"><ele>489.0</ele><time>2026-04-24T13:21:02.997Z</time></trkpt><trkpt lat="44.868362230332174" lon="9.286091783292317"><ele>491.0</ele><time>2026-04-24T13:21:03.997Z</time></trkpt><trkpt lat="44.868401507059104" lon="9.285906512377782"><ele>493.0</ele><time>2026-04-24T13:21:04.997Z</time></trkpt><trkpt lat="44.868456462443646" lon="9.285765309754659"><ele>495.0</ele><time>2026-04-24T13:21:05.997Z</time></trkpt><trkpt lat="44.868535107098104" lon="9.285654168411428"><ele>488.0</ele><time>2026-04-24T13:21:06.997Z</time></trkpt><trkpt lat="44.86866424875505" lon="9.28554521938016"><ele>481.0</ele><time>2026-04-24T13:21:07.997Z</time></trkpt><trkpt lat="44.868823924852805" lon="9.28540308861882"><ele>474.0</ele><time>2026-04-24T13:21:08.997Z</time></trkpt><trkpt lat="44.86895493951998" lon="9.285269702441196"><ele>474.0</ele><time>2026-04-24T13:21:09.997Z</time></trkpt><trkpt lat="44.86903734676823" lon="9.285070368151027"><ele>474.0</ele><time>2026-04-24T13:21:10.997Z</time></trkpt><trkpt lat="44.869031370326475" lon="9.284856322514392"><ele>474.0</ele><time>2026-04-24T13:21:11.997Z</time></trkpt><trkpt lat="44.86896624670691" lon="9.284679417605442"><ele>473.25</ele><time>2026-04-24T13:21:12.997Z</time></trkpt><trkpt lat="44.868887763702226" lon="9.284512924610546"><ele>472.5</ele><time>2026-04-24T13:21:13.997Z</time></trkpt><trkpt lat="44.86883280918995" lon="9.28434065700096"><ele>471.75</ele><time>2026-04-24T13:21:14.997Z</time></trkpt><trkpt lat="44.86876908013313" lon="9.284183703032024"><ele>471.0</ele><time>2026-04-24T13:21:15.997Z</time></trkpt><trkpt lat="44.86870847838146" lon="9.284022152440944"><ele>469.5</ele><time>2026-04-24T13:21:16.997Z</time></trkpt><trkpt lat="44.86866873540458" lon="9.283866594664268"><ele>468.0</ele><time>2026-04-24T13:21:17.997Z</time></trkpt><trkpt lat="44.86866827612076" lon="9.28369404568989"><ele>466.5</ele><time>2026-04-24T13:21:18.997Z</time></trkpt><trkpt lat="44.86869234924334" lon="9.283504159959309"><ele>465.0</ele><time>2026-04-24T13:21:19.997Z</time></trkpt><trkpt lat="44.86872688505294" lon="9.283298451907251"><ele>465.33333333333337</ele><time>2026-04-24T13:21:20.997Z</time></trkpt><trkpt lat="44.8687602773432" lon="9.283072563298877"><ele>465.6666666666667</ele><time>2026-04-24T13:21:21.997Z</time></trkpt><trkpt lat="44.86878324955211" lon="9.282847785716804"><ele>466.0</ele><time>2026-04-24T13:21:22.997Z</time></trkpt><trkpt lat="44.868823473180555" lon="9.282628048835292"><ele>466.0</ele><time>2026-04-24T13:21:23.997Z</time></trkpt><trkpt lat="44.8688597406619" lon="9.282405048658841"><ele>466.0</ele><time>2026-04-24T13:21:24.997Z</time></trkpt><trkpt lat="44.868893532165686" lon="9.282178280949173"><ele>466.0</ele><time>2026-04-24T13:21:25.997Z</time></trkpt><trkpt lat="44.868940531850264" lon="9.2819804776942"><ele>467.33333333333337</ele><time>2026-04-24T13:21:26.997Z</time></trkpt><trkpt lat="44.86899917000266" lon="9.281800257938952"><ele>468.66666666666663</ele><time>2026-04-24T13:21:27.997Z</time></trkpt><trkpt lat="44.86906637214408" lon="9.2815754640732"><ele>470.0</ele><time>2026-04-24T13:21:28.997Z</time></trkpt><trkpt lat="44.869146239955796" lon="9.281381339349041"><ele>472.0</ele><time>2026-04-24T13:21:29.997Z</time></trkpt><trkpt lat="44.86923762160343" lon="9.281182415818355"><ele>474.0</ele><time>2026-04-24T13:21:30.997Z</time></trkpt><trkpt lat="44.86931491355097" lon="9.280975471092068"><ele>476.0</ele><time>2026-04-24T13:21:31.997Z</time></trkpt><trkpt lat="44.869380203861866" lon="9.280787368741764"><ele>473.25</ele><time>2026-04-24T13:21:32.997Z</time></trkpt><trkpt lat="44.86946297762684" lon="9.280627772855768"><ele>470.5</ele><time>2026-04-24T13:21:33.997Z</time></trkpt><trkpt lat="44.86954571459448" lon="9.280483286811272"><ele>467.75</ele><time>2026-04-24T13:21:34.997Z</time></trkpt><trkpt lat="44.86963719998398" lon="9.280384542707944"><ele>465.0</ele><time>2026-04-24T13:21:35.997Z</time></trkpt><trkpt lat="44.86974457278607" lon="9.28029019374695"><ele>465.0</ele><time>2026-04-24T13:21:36.997Z</time></trkpt><trkpt lat="44.86985232475201" lon="9.280199413658956"><ele>465.0</ele><time>2026-04-24T13:21:37.996Z</time></trkpt><trkpt lat="44.86995674157318" lon="9.280102730705693"><ele>465.0</ele><time>2026-04-24T13:21:38.996Z</time></trkpt><trkpt lat="44.87005669914634" lon="9.279971476517101"><ele>465.0</ele><time>2026-04-24T13:21:39.996Z</time></trkpt><trkpt lat="44.87010793833803" lon="9.279828088798455"><ele>462.25</ele><time>2026-04-24T13:21:40.996Z</time></trkpt><trkpt lat="44.870159682146344" lon="9.279689748636006"><ele>459.5</ele><time>2026-04-24T13:21:41.996Z</time></trkpt><trkpt lat="44.870183599171895" lon="9.27950217025967"><ele>456.75</ele><time>2026-04-24T13:21:42.996Z</time></trkpt><trkpt lat="44.8701932179409" lon="9.279305628359243"><ele>454.0</ele><time>2026-04-24T13:21:43.996Z</time></trkpt><trkpt lat="44.87015969328578" lon="9.279097757836743"><ele>454.0</ele><time>2026-04-24T13:21:44.996Z</time></trkpt><trkpt lat="44.8701407327012" lon="9.278944805510088"><ele>454.0</ele><time>2026-04-24T13:21:45.996Z</time></trkpt><trkpt lat="44.87012971187753" lon="9.278772206607155"><ele>454.0</ele><time>2026-04-24T13:21:46.996Z</time></trkpt><trkpt lat="44.87016629523365" lon="9.278669348594532"><ele>454.0</ele><time>2026-04-24T13:21:47.997Z</time></trkpt><trkpt lat="44.870228775504046" lon="9.278569564774116"><ele>454.0</ele><time>2026-04-24T13:21:48.997Z</time></trkpt><trkpt lat="44.87028491099624" lon="9.278479905205298"><ele>454.33333333333337</ele><time>2026-04-24T13:21:49.997Z</time></trkpt><trkpt lat="44.87034029761096" lon="9.27839144160852"><ele>454.6666666666667</ele><time>2026-04-24T13:21:50.997Z</time></trkpt><trkpt lat="44.87037816044993" lon="9.278295726336363"><ele>455.0</ele><time>2026-04-24T13:21:51.997Z</time></trkpt><trkpt lat="44.87043252222487" lon="9.278218641118713"><ele>455.33333333333337</ele><time>2026-04-24T13:21:52.997Z</time></trkpt><trkpt lat="44.87049451300096" lon="9.278145749688177"><ele>455.6666666666667</ele><time>2026-04-24T13:21:53.997Z</time></trkpt><trkpt lat="44.870604526531274" lon="9.278108521321842"><ele>456.0</ele><time>2026-04-24T13:21:54.997Z</time></trkpt><trkpt lat="44.87065810280455" lon="9.27797156462505"><ele>456.25</ele><time>2026-04-24T13:21:55.997Z</time></trkpt><trkpt lat="44.870721198519696" lon="9.277816032064935"><ele>456.5</ele><time>2026-04-24T13:21:56.997Z</time></trkpt><trkpt lat="44.87077251329666" lon="9.277646299935729"><ele>456.75</ele><time>2026-04-24T13:21:57.997Z</time></trkpt><trkpt lat="44.87078880823835" lon="9.277444193228975"><ele>457.0</ele><time>2026-04-24T13:21:58.997Z</time></trkpt><trkpt lat="44.87080134946608" lon="9.277247118800718"><ele>457.0</ele><time>2026-04-24T13:21:59.997Z</time></trkpt><trkpt lat="44.87081643937667" lon="9.277051317234069"><ele>457.0</ele><time>2026-04-24T13:22:00.997Z</time></trkpt><trkpt lat="44.8707985905786" lon="9.276841515348542"><ele>457.0</ele><time>2026-04-24T13:22:01.997Z</time></trkpt><trkpt lat="44.87081518911612" lon="9.27665092994322"><ele>457.0</ele><time>2026-04-24T13:22:02.997Z</time></trkpt><trkpt lat="44.87082027788174" lon="9.276497637829905"><ele>458.0</ele><time>2026-04-24T13:22:03.997Z</time></trkpt><trkpt lat="44.870840971411866" lon="9.276329890092281"><ele>459.0</ele><time>2026-04-24T13:22:04.997Z</time></trkpt><trkpt lat="44.870893871663185" lon="9.276186726227085"><ele>460.0</ele><time>2026-04-24T13:22:05.997Z</time></trkpt><trkpt lat="44.87098286577923" lon="9.276044420338316"><ele>461.0</ele><time>2026-04-24T13:22:06.997Z</time></trkpt><trkpt lat="44.87109499965099" lon="9.275895757204166"><ele>458.3333333333333</ele><time>2026-04-24T13:22:07.997Z</time></trkpt><trkpt lat="44.87123027319583" lon="9.275744555152329"><ele>455.66666666666663</ele><time>2026-04-24T13:22:08.997Z</time></trkpt><trkpt lat="44.87136200057289" lon="9.275611418793865"><ele>453.0</ele><time>2026-04-24T13:22:09.997Z</time></trkpt><trkpt lat="44.87147634275735" lon="9.27547392561061"><ele>453.0</ele><time>2026-04-24T13:22:10.997Z</time></trkpt><trkpt lat="44.87159363727245" lon="9.275339860365415"><ele>453.0</ele><time>2026-04-24T13:22:11.997Z</time></trkpt><trkpt lat="44.87171088418086" lon="9.27520132612746"><ele>453.0</ele><time>2026-04-24T13:22:12.997Z</time></trkpt><trkpt lat="44.87183049143651" lon="9.275069457590526"><ele>449.75</ele><time>2026-04-24T13:22:13.997Z</time></trkpt><trkpt lat="44.87195297615849" lon="9.27493336228015"><ele>446.5</ele><time>2026-04-24T13:22:14.997Z</time></trkpt><trkpt lat="44.87202735978186" lon="9.274785558674498"><ele>443.25</ele><time>2026-04-24T13:22:15.997Z</time></trkpt><trkpt lat="44.87211916555097" lon="9.274627521288465"><ele>440.0</ele><time>2026-04-24T13:22:16.997Z</time></trkpt><trkpt lat="44.87219898507209" lon="9.274436985813638"><ele>440.0</ele><time>2026-04-24T13:22:17.997Z</time></trkpt><trkpt lat="44.872223502403244" lon="9.274224828393683"><ele>440.0</ele><time>2026-04-24T13:22:18.997Z</time></trkpt><trkpt lat="44.87226368069322" lon="9.274040043334768"><ele>440.0</ele><time>2026-04-24T13:22:19.997Z</time></trkpt><trkpt lat="44.87230988534391" lon="9.273849560071499"><ele>440.0</ele><time>2026-04-24T13:22:20.997Z</time></trkpt><trkpt lat="44.87237126540806" lon="9.273677071518893"><ele>442.0</ele><time>2026-04-24T13:22:21.997Z</time></trkpt><trkpt lat="44.87248884622313" lon="9.273592046737706"><ele>444.0</ele><time>2026-04-24T13:22:22.997Z</time></trkpt><trkpt lat="44.872598239415964" lon="9.273492884574594"><ele>446.0</ele><time>2026-04-24T13:22:23.997Z</time></trkpt><trkpt lat="44.87271132259067" lon="9.273381669751531"><ele>448.0</ele><time>2026-04-24T13:22:24.997Z</time></trkpt><trkpt lat="44.872834649758225" lon="9.273255927992354"><ele>446.5</ele><time>2026-04-24T13:22:25.997Z</time></trkpt><trkpt lat="44.87294817887428" lon="9.273127764612479"><ele>445.0</ele><time>2026-04-24T13:22:26.997Z</time></trkpt><trkpt lat="44.87306396909442" lon="9.273003090703323"><ele>443.5</ele><time>2026-04-24T13:22:27.997Z</time></trkpt><trkpt lat="44.87317720125604" lon="9.272923217059091"><ele>442.0</ele><time>2026-04-24T13:22:28.997Z</time></trkpt><trkpt lat="44.87334244050226" lon="9.27286323158563"><ele>438.6666666666667</ele><time>2026-04-24T13:22:29.997Z</time></trkpt><trkpt lat="44.87350687051609" lon="9.272844861752219"><ele>435.33333333333337</ele><time>2026-04-24T13:22:30.997Z</time></trkpt><trkpt lat="44.873684133294276" lon="9.272826930232242"><ele>432.0</ele><time>2026-04-24T13:22:31.997Z</time></trkpt><trkpt lat="44.87384856672324" lon="9.272765512363977"><ele>432.0</ele><time>2026-04-24T13:22:32.997Z</time></trkpt><trkpt lat="44.874007479644206" lon="9.27268288080983"><ele>432.0</ele><time>2026-04-24T13:22:33.997Z</time></trkpt><trkpt lat="44.87414987970611" lon="9.272615258858494"><ele>432.0</ele><time>2026-04-24T13:22:34.997Z</time></trkpt><trkpt lat="44.87427737455113" lon="9.272555288580163"><ele>429.20000000000005</ele><time>2026-04-24T13:22:35.997Z</time></trkpt><trkpt lat="44.87439930455773" lon="9.272496782523811"><ele>426.40000000000003</ele><time>2026-04-24T13:22:36.997Z</time></trkpt><trkpt lat="44.87449533608296" lon="9.272430182794778"><ele>423.6</ele><time>2026-04-24T13:22:37.997Z</time></trkpt><trkpt lat="44.87458082776659" lon="9.272336700609719"><ele>420.79999999999995</ele><time>2026-04-24T13:22:38.996Z</time></trkpt><trkpt lat="44.87463190436363" lon="9.272211692547168"><ele>418.0</ele><time>2026-04-24T13:22:39.996Z</time></trkpt><trkpt lat="44.874683932289535" lon="9.272049852634181"><ele>418.0</ele><time>2026-04-24T13:22:40.996Z</time></trkpt><trkpt lat="44.87468796419264" lon="9.271819350007837"><ele>418.0</ele><time>2026-04-24T13:22:41.996Z</time></trkpt><trkpt lat="44.8747048061484" lon="9.27165043373406"><ele>418.0</ele><time>2026-04-24T13:22:42.996Z</time></trkpt><trkpt lat="44.874748283192616" lon="9.271504159690705"><ele>418.0</ele><time>2026-04-24T13:22:43.996Z</time></trkpt><trkpt lat="44.87483656657226" lon="9.271407348906513"><ele>418.25</ele><time>2026-04-24T13:22:44.996Z</time></trkpt><trkpt lat="44.87496138497112" lon="9.271333812636838"><ele>418.5</ele><time>2026-04-24T13:22:45.996Z</time></trkpt><trkpt lat="44.87509150075174" lon="9.271244079965184"><ele>418.75</ele><time>2026-04-24T13:22:46.996Z</time></trkpt><trkpt lat="44.8752136389088" lon="9.271126472052067"><ele>419.0</ele><time>2026-04-24T13:22:47.996Z</time></trkpt><trkpt lat="44.87531119903239" lon="9.270974923000503"><ele>417.0</ele><time>2026-04-24T13:22:48.996Z</time></trkpt><trkpt lat="44.87538340323615" lon="9.27078161140918"><ele>415.0</ele><time>2026-04-24T13:22:49.996Z</time></trkpt><trkpt lat="44.8754853542016" lon="9.270632385963443"><ele>413.0</ele><time>2026-04-24T13:22:50.996Z</time></trkpt><trkpt lat="44.875585124782646" lon="9.27048533478453"><ele>411.0</ele><time>2026-04-24T13:22:51.996Z</time></trkpt><trkpt lat="44.87570722102505" lon="9.27035332373648"><ele>411.0</ele><time>2026-04-24T13:22:52.996Z</time></trkpt><trkpt lat="44.875855303547766" lon="9.270224438752464"><ele>411.0</ele><time>2026-04-24T13:22:53.996Z</time></trkpt><trkpt lat="44.876015478533596" lon="9.27011919980811"><ele>411.0</ele><time>2026-04-24T13:22:54.996Z</time></trkpt><trkpt lat="44.876170678794985" lon="9.270047984191503"><ele>409.33333333333337</ele><time>2026-04-24T13:22:55.996Z</time></trkpt><trkpt lat="44.87632814783041" lon="9.26999219653894"><ele>407.6666666666667</ele><time>2026-04-24T13:22:56.996Z</time></trkpt><trkpt lat="44.87647744680787" lon="9.269906023191231"><ele>406.0</ele><time>2026-04-24T13:22:57.996Z</time></trkpt><trkpt lat="44.8766256396716" lon="9.269762321921299"><ele>406.0</ele><time>2026-04-24T13:22:58.996Z</time></trkpt><trkpt lat="44.876756131215394" lon="9.269619898453964"><ele>406.0</ele><time>2026-04-24T13:22:59.996Z</time></trkpt><trkpt lat="44.8768679629291" lon="9.2694495058666"><ele>406.0</ele><time>2026-04-24T13:23:00.996Z</time></trkpt><trkpt lat="44.876981060754886" lon="9.269273985006278"><ele>403.6666666666667</ele><time>2026-04-24T13:23:01.996Z</time></trkpt><trkpt lat="44.87710514513378" lon="9.26912874318946"><ele>401.33333333333337</ele><time>2026-04-24T13:23:02.996Z</time></trkpt><trkpt lat="44.87722454423956" lon="9.268981611823468"><ele>399.0</ele><time>2026-04-24T13:23:03.996Z</time></trkpt><trkpt lat="44.877347138817626" lon="9.268833998174204"><ele>399.0</ele><time>2026-04-24T13:23:04.996Z</time></trkpt><trkpt lat="44.87745019953323" lon="9.268712073470361"><ele>399.0</ele><time>2026-04-24T13:23:05.996Z</time></trkpt><trkpt lat="44.87754794762496" lon="9.268576617349886"><ele>399.0</ele><time>2026-04-24T13:23:06.996Z</time></trkpt><trkpt lat="44.87768231614618" lon="9.268465307573615"><ele>399.0</ele><time>2026-04-24T13:23:07.996Z</time></trkpt><trkpt lat="44.87780968707587" lon="9.268397145964702"><ele>397.25</ele><time>2026-04-24T13:23:08.996Z</time></trkpt><trkpt lat="44.877916998515985" lon="9.268343559466857"><ele>395.5</ele><time>2026-04-24T13:23:09.996Z</time></trkpt><trkpt lat="44.87804838636584" lon="9.268301337151788"><ele>393.75</ele><time>2026-04-24T13:23:10.996Z</time></trkpt><trkpt lat="44.87818634566453" lon="9.26827219486542"><ele>392.0</ele><time>2026-04-24T13:23:11.996Z</time></trkpt><trkpt lat="44.87831848104278" lon="9.268244543737614"><ele>391.0</ele><time>2026-04-24T13:23:12.996Z</time></trkpt><trkpt lat="44.87843665837526" lon="9.268215638207417"><ele>390.0</ele><time>2026-04-24T13:23:13.996Z</time></trkpt><trkpt lat="44.87855383063559" lon="9.26818360027062"><ele>389.0</ele><time>2026-04-24T13:23:14.996Z</time></trkpt><trkpt lat="44.87864565335673" lon="9.268151647637156"><ele>388.0</ele><time>2026-04-24T13:23:15.996Z</time></trkpt><trkpt lat="44.878769699644785" lon="9.268039703449205"><ele>388.0</ele><time>2026-04-24T13:23:16.996Z</time></trkpt><trkpt lat="44.87885007703689" lon="9.267936455041"><ele>388.0</ele><time>2026-04-24T13:23:17.996Z</time></trkpt><trkpt lat="44.87892701267972" lon="9.267818415724582"><ele>388.0</ele><time>2026-04-24T13:23:18.996Z</time></trkpt><trkpt lat="44.878988801628594" lon="9.267678319236602"><ele>388.0</ele><time>2026-04-24T13:23:19.996Z</time></trkpt><trkpt lat="44.87907010400829" lon="9.267581543269724"><ele>388.0</ele><time>2026-04-24T13:23:20.996Z</time></trkpt><trkpt lat="44.87915538626311" lon="9.267495851089285"><ele>388.0</ele><time>2026-04-24T13:23:21.996Z</time></trkpt><trkpt lat="44.87924207166874" lon="9.267407071365174"><ele>388.0</ele><time>2026-04-24T13:23:22.996Z</time></trkpt><trkpt lat="44.87933060752973" lon="9.267295260146557"><ele>388.0</ele><time>2026-04-24T13:23:23.996Z</time></trkpt><trkpt lat="44.87940172902561" lon="9.267157853066806"><ele>388.0</ele><time>2026-04-24T13:23:24.996Z</time></trkpt><trkpt lat="44.87947681268314" lon="9.26702274283313"><ele>387.0</ele><time>2026-04-24T13:23:25.996Z</time></trkpt><trkpt lat="44.87955882163406" lon="9.266903788250342"><ele>386.0</ele><time>2026-04-24T13:23:26.996Z</time></trkpt><trkpt lat="44.8796386288228" lon="9.266791160359865"><ele>385.0</ele><time>2026-04-24T13:23:27.996Z</time></trkpt><trkpt lat="44.87971775952193" lon="9.266676843422763"><ele>384.0</ele><time>2026-04-24T13:23:28.996Z</time></trkpt><trkpt lat="44.87980460150873" lon="9.266546071657178"><ele>384.25</ele><time>2026-04-24T13:23:29.996Z</time></trkpt><trkpt lat="44.87988676700759" lon="9.26638963566711"><ele>384.5</ele><time>2026-04-24T13:23:30.996Z</time></trkpt><trkpt lat="44.87995440829358" lon="9.266219784303845"><ele>384.75</ele><time>2026-04-24T13:23:31.996Z</time></trkpt><trkpt lat="44.88001128499068" lon="9.266022346878168"><ele>385.0</ele><time>2026-04-24T13:23:32.996Z</time></trkpt><trkpt lat="44.880062788733945" lon="9.265845570233939"><ele>385.5</ele><time>2026-04-24T13:23:33.996Z</time></trkpt><trkpt lat="44.88011291333385" lon="9.265678373093165"><ele>386.0</ele><time>2026-04-24T13:23:34.996Z</time></trkpt><trkpt lat="44.88016052392148" lon="9.265520398066764"><ele>386.5</ele><time>2026-04-24T13:23:35.996Z</time></trkpt><trkpt lat="44.88020537500241" lon="9.265372493714157"><ele>387.0</ele><time>2026-04-24T13:23:36.996Z</time></trkpt><trkpt lat="44.8802538946824" lon="9.26523112994062"><ele>387.0</ele><time>2026-04-24T13:23:37.996Z</time></trkpt><trkpt lat="44.880313018079995" lon="9.265123874525573"><ele>387.0</ele><time>2026-04-24T13:23:38.996Z</time></trkpt><trkpt lat="44.88038960750572" lon="9.265076138829455"><ele>387.0</ele><time>2026-04-24T13:23:39.996Z</time></trkpt><trkpt lat="44.88049510996703" lon="9.265051364312821"><ele>387.0</ele><time>2026-04-24T13:23:40.995Z</time></trkpt><trkpt lat="44.8806362010036" lon="9.265033585906993"><ele>387.0</ele><time>2026-04-24T13:23:41.995Z</time></trkpt><trkpt lat="44.8807816118097" lon="9.265026286522096"><ele>385.6666666666667</ele><time>2026-04-24T13:23:42.995Z</time></trkpt><trkpt lat="44.88094255281497" lon="9.265015664005597"><ele>384.33333333333337</ele><time>2026-04-24T13:23:43.995Z</time></trkpt><trkpt lat="44.881103282388416" lon="9.265005057424155"><ele>383.0</ele><time>2026-04-24T13:23:44.995Z</time></trkpt><trkpt lat="44.881262934336974" lon="9.264987532853505"><ele>383.0</ele><time>2026-04-24T13:23:45.995Z</time></trkpt><trkpt lat="44.88139833591997" lon="9.264985583156118"><ele>383.0</ele><time>2026-04-24T13:23:46.995Z</time></trkpt><trkpt lat="44.88154955886924" lon="9.264975601703368"><ele>383.0</ele><time>2026-04-24T13:23:47.995Z</time></trkpt><trkpt lat="44.88170549464174" lon="9.264957495264884"><ele>383.0</ele><time>2026-04-24T13:23:48.995Z</time></trkpt><trkpt lat="44.881850852555104" lon="9.264930844541448"><ele>382.33333333333337</ele><time>2026-04-24T13:23:49.995Z</time></trkpt><trkpt lat="44.88200599905848" lon="9.264898459878829"><ele>381.6666666666667</ele><time>2026-04-24T13:23:50.995Z</time></trkpt><trkpt lat="44.88215439476447" lon="9.264862575173632"><ele>381.0</ele><time>2026-04-24T13:23:51.995Z</time></trkpt><trkpt lat="44.88229642971572" lon="9.264828384863112"><ele>381.0</ele><time>2026-04-24T13:23:52.995Z</time></trkpt><trkpt lat="44.882445890046526" lon="9.264792811339175"><ele>381.0</ele><time>2026-04-24T13:23:53.995Z</time></trkpt><trkpt lat="44.882592871264706" lon="9.264757827884814"><ele>381.0</ele><time>2026-04-24T13:23:54.995Z</time></trkpt><trkpt lat="44.88271482097708" lon="9.26473134760101"><ele>381.0</ele><time>2026-04-24T13:23:55.995Z</time></trkpt><trkpt lat="44.88285175713558" lon="9.264702185263905"><ele>381.5</ele><time>2026-04-24T13:23:56.995Z</time></trkpt><trkpt lat="44.88301239957673" lon="9.264667674265416"><ele>382.0</ele><time>2026-04-24T13:23:57.995Z</time></trkpt><trkpt lat="44.88312465955121" lon="9.264642550075884"><ele>382.5</ele><time>2026-04-24T13:23:58.995Z</time></trkpt><trkpt lat="44.88326296536205" lon="9.264611596655804"><ele>383.0</ele><time>2026-04-24T13:23:59.995Z</time></trkpt><trkpt lat="44.88341897310286" lon="9.264573217610083"><ele>382.0</ele><time>2026-04-24T13:24:00.995Z</time></trkpt><trkpt lat="44.8835353910688" lon="9.264555649777732"><ele>381.0</ele><time>2026-04-24T13:24:01.995Z</time></trkpt><trkpt lat="44.88365996217673" lon="9.264389234452985"><ele>380.0</ele><time>2026-04-24T13:24:02.995Z</time></trkpt><trkpt lat="44.88382013543259" lon="9.264358524734599"><ele>380.0</ele><time>2026-04-24T13:24:03.995Z</time></trkpt><trkpt lat="44.88399240941367" lon="9.264402983783834"><ele>380.0</ele><time>2026-04-24T13:24:04.995Z</time></trkpt><trkpt lat="44.884160545342645" lon="9.264430184753474"><ele>380.0</ele><time>2026-04-24T13:24:05.995Z</time></trkpt><trkpt lat="44.8843197625426" lon="9.264615006068853"><ele>381.0</ele><time>2026-04-24T13:24:06.995Z</time></trkpt><trkpt lat="44.88449242414574" lon="9.264633883462484"><ele>382.0</ele><time>2026-04-24T13:24:07.995Z</time></trkpt><trkpt lat="44.88467029391981" lon="9.264653981987468"><ele>383.0</ele><time>2026-04-24T13:24:08.995Z</time></trkpt><trkpt lat="44.88484301228667" lon="9.264672462863617"><ele>383.0</ele><time>2026-04-24T13:24:09.995Z</time></trkpt><trkpt lat="44.88502089901809" lon="9.264691569435715"><ele>383.0</ele><time>2026-04-24T13:24:10.995Z</time></trkpt><trkpt lat="44.885190928262325" lon="9.264709832046215"><ele>383.0</ele><time>2026-04-24T13:24:11.995Z</time></trkpt><trkpt lat="44.88535200833153" lon="9.264727133430124"><ele>384.33333333333337</ele><time>2026-04-24T13:24:12.995Z</time></trkpt><trkpt lat="44.88550388454728" lon="9.264743886562306"><ele>385.6666666666667</ele><time>2026-04-24T13:24:13.995Z</time></trkpt><trkpt lat="44.885663210912284" lon="9.264762275842095"><ele>387.0</ele><time>2026-04-24T13:24:14.995Z</time></trkpt><trkpt lat="44.88582101846183" lon="9.26478207405989"><ele>384.25</ele><time>2026-04-24T13:24:15.995Z</time></trkpt><trkpt lat="44.885971203070035" lon="9.264802005524743"><ele>381.5</ele><time>2026-04-24T13:24:16.995Z</time></trkpt><trkpt lat="44.8861251389387" lon="9.264823990635074"><ele>378.75</ele><time>2026-04-24T13:24:17.995Z</time></trkpt><trkpt lat="44.8862409786422" lon="9.264852891803441"><ele>376.0</ele><time>2026-04-24T13:24:18.995Z</time></trkpt><trkpt lat="44.886372020613955" lon="9.264901044296678"><ele>376.0</ele><time>2026-04-24T13:24:19.995Z</time></trkpt><trkpt lat="44.88649951956979" lon="9.264958711042814"><ele>376.0</ele><time>2026-04-24T13:24:20.995Z</time></trkpt><trkpt lat="44.886647629331655" lon="9.265030362978877"><ele>376.0</ele><time>2026-04-24T13:24:21.995Z</time></trkpt><trkpt lat="44.88678737214978" lon="9.265099349653937"><ele>376.0</ele><time>2026-04-24T13:24:22.995Z</time></trkpt><trkpt lat="44.886926105709314" lon="9.265172227149316"><ele>378.3333333333333</ele><time>2026-04-24T13:24:23.995Z</time></trkpt><trkpt lat="44.887070607032285" lon="9.265249044861378"><ele>380.6666666666667</ele><time>2026-04-24T13:24:24.995Z</time></trkpt><trkpt lat="44.88721332650419" lon="9.265326045537119"><ele>383.0</ele><time>2026-04-24T13:24:25.995Z</time></trkpt><trkpt lat="44.887361258056025" lon="9.265404341365299"><ele>383.0</ele><time>2026-04-24T13:24:26.995Z</time></trkpt><trkpt lat="44.88750587088236" lon="9.26547948468607"><ele>383.0</ele><time>2026-04-24T13:24:27.995Z</time></trkpt><trkpt lat="44.88766561514082" lon="9.265562491381122"><ele>383.0</ele><time>2026-04-24T13:24:28.995Z</time></trkpt><trkpt lat="44.887809510129905" lon="9.265643928732185"><ele>380.33333333333337</ele><time>2026-04-24T13:24:29.995Z</time></trkpt><trkpt lat="44.88795618205332" lon="9.265734598132473"><ele>377.6666666666667</ele><time>2026-04-24T13:24:30.995Z</time></trkpt><trkpt lat="44.888102719953864" lon="9.265832734094943"><ele>375.0</ele><time>2026-04-24T13:24:31.995Z</time></trkpt><trkpt lat="44.88825258060267" lon="9.26593531813808"><ele>375.0</ele><time>2026-04-24T13:24:32.995Z</time></trkpt><trkpt lat="44.88840384807316" lon="9.266041236269047"><ele>375.0</ele><time>2026-04-24T13:24:33.995Z</time></trkpt><trkpt lat="44.888549111654136" lon="9.266143174884839"><ele>375.0</ele><time>2026-04-24T13:24:34.995Z</time></trkpt><trkpt lat="44.888697317138394" lon="9.266247177787967"><ele>374.3333333333333</ele><time>2026-04-24T13:24:35.995Z</time></trkpt><trkpt lat="44.88884158370358" lon="9.266351147233651"><ele>373.66666666666663</ele><time>2026-04-24T13:24:36.995Z</time></trkpt><trkpt lat="44.88898070663201" lon="9.266456598510171"><ele>373.0</ele><time>2026-04-24T13:24:37.995Z</time></trkpt><trkpt lat="44.88914418193711" lon="9.266566215110611"><ele>373.0</ele><time>2026-04-24T13:24:38.995Z</time></trkpt><trkpt lat="44.88926515528092" lon="9.266629593873235"><ele>373.0</ele><time>2026-04-24T13:24:39.995Z</time></trkpt><trkpt lat="44.88941911445723" lon="9.266625693511509"><ele>373.0</ele><time>2026-04-24T13:24:40.995Z</time></trkpt><trkpt lat="44.889545599129264" lon="9.26655283298939"><ele>373.0</ele><time>2026-04-24T13:24:41.994Z</time></trkpt><trkpt lat="44.88964041053112" lon="9.266426604846258"><ele>373.0</ele><time>2026-04-24T13:24:42.994Z</time></trkpt><trkpt lat="44.88967701509497" lon="9.266271631637101"><ele>373.0</ele><time>2026-04-24T13:24:43.994Z</time></trkpt><trkpt lat="44.88973670418348" lon="9.266098274795734"><ele>373.0</ele><time>2026-04-24T13:24:44.994Z</time></trkpt><trkpt lat="44.88978573562961" lon="9.265969718097864"><ele>373.0</ele><time>2026-04-24T13:24:45.994Z</time></trkpt><trkpt lat="44.88985212407252" lon="9.265846413992975"><ele>373.0</ele><time>2026-04-24T13:24:46.994Z</time></trkpt><trkpt lat="44.88993358955887" lon="9.26579042208162"><ele>373.0</ele><time>2026-04-24T13:24:47.994Z</time></trkpt><trkpt lat="44.890020363234086" lon="9.265720919800845"><ele>373.0</ele><time>2026-04-24T13:24:48.994Z</time></trkpt><trkpt lat="44.89010200180597" lon="9.265656332333407"><ele>373.0</ele><time>2026-04-24T13:24:49.994Z</time></trkpt><trkpt lat="44.89017393621869" lon="9.265600338060558"><ele>373.0</ele><time>2026-04-24T13:24:50.994Z</time></trkpt><trkpt lat="44.89023345076245" lon="9.265541658430903"><ele>373.0</ele><time>2026-04-24T13:24:52.994Z</time></trkpt><trkpt lat="44.8902914419156" lon="9.265646534642158"><ele>375.0</ele><time>2026-04-24T13:24:53.994Z</time></trkpt><trkpt lat="44.890328179245884" lon="9.265771355774836"><ele>377.0</ele><time>2026-04-24T13:24:54.994Z</time></trkpt><trkpt lat="44.89036082136473" lon="9.265931143390324"><ele>379.0</ele><time>2026-04-24T13:24:55.994Z</time></trkpt><trkpt lat="44.89039019706955" lon="9.266124027389113"><ele>381.0</ele><time>2026-04-24T13:24:56.994Z</time></trkpt><trkpt lat="44.89042139301674" lon="9.266440783337275"><ele>379.6666666666667</ele><time>2026-04-24T13:24:57.994Z</time></trkpt><trkpt lat="44.89045564492035" lon="9.266735471935855"><ele>378.33333333333337</ele><time>2026-04-24T13:24:58.994Z</time></trkpt><trkpt lat="44.89049402679372" lon="9.267028244053162"><ele>377.0</ele><time>2026-04-24T13:24:59.994Z</time></trkpt><trkpt lat="44.89053147198029" lon="9.26729349330554"><ele>377.0</ele><time>2026-04-24T13:25:00.994Z</time></trkpt><trkpt lat="44.89056947532765" lon="9.267547377654576"><ele>377.0</ele><time>2026-04-24T13:25:01.994Z</time></trkpt><trkpt lat="44.89060790651352" lon="9.267803199073889"><ele>377.0</ele><time>2026-04-24T13:25:02.994Z</time></trkpt><trkpt lat="44.890643580741184" lon="9.268045735175338"><ele>376.75</ele><time>2026-04-24T13:25:03.994Z</time></trkpt><trkpt lat="44.890679448850534" lon="9.26828149347619"><ele>376.5</ele><time>2026-04-24T13:25:04.994Z</time></trkpt><trkpt lat="44.89071490511743" lon="9.268470838069183"><ele>376.25</ele><time>2026-04-24T13:25:05.994Z</time></trkpt><trkpt lat="44.890740779760385" lon="9.268653578873717"><ele>376.0</ele><time>2026-04-24T13:25:06.994Z</time></trkpt><trkpt lat="44.89079472097787" lon="9.268820889630149"><ele>376.0</ele><time>2026-04-24T13:25:08.001Z</time></trkpt><trkpt lat="44.89089138007203" lon="9.26892638244138"><ele>376.0</ele><time>2026-04-24T13:25:09.001Z</time></trkpt><trkpt lat="44.891025232069765" lon="9.269035790086702"><ele>376.0</ele><time>2026-04-24T13:25:10.001Z</time></trkpt><trkpt lat="44.89114518203188" lon="9.269203390181792"><ele>376.0</ele><time>2026-04-24T13:25:11.001Z</time></trkpt><trkpt lat="44.89129032963816" lon="9.269335914870439"><ele>374.66666666666663</ele><time>2026-04-24T13:25:12.001Z</time></trkpt><trkpt lat="44.891375766069324" lon="9.269509548044113"><ele>373.3333333333333</ele><time>2026-04-24T13:25:13.001Z</time></trkpt><trkpt lat="44.89146988218274" lon="9.26969607252119"><ele>372.0</ele><time>2026-04-24T13:25:14.001Z</time></trkpt><trkpt lat="44.89156598327258" lon="9.269860526459377"><ele>372.0</ele><time>2026-04-24T13:25:15.001Z</time></trkpt><trkpt lat="44.89164415731124" lon="9.270068936512514"><ele>372.0</ele><time>2026-04-24T13:25:16.001Z</time></trkpt><trkpt lat="44.89176779298548" lon="9.270186556083715"><ele>372.0</ele><time>2026-04-24T13:25:17.001Z</time></trkpt><trkpt lat="44.89188771321906" lon="9.270256980446273"><ele>372.0</ele><time>2026-04-24T13:25:18.001Z</time></trkpt><trkpt lat="44.89199861619067" lon="9.270331441821076"><ele>374.0</ele><time>2026-04-24T13:25:19.001Z</time></trkpt><trkpt lat="44.892042217939206" lon="9.27047592513043"><ele>376.0</ele><time>2026-04-24T13:25:20.001Z</time></trkpt><trkpt lat="44.8920812498344" lon="9.270666128120443"><ele>378.0</ele><time>2026-04-24T13:25:21.001Z</time></trkpt><trkpt lat="44.89211522476087" lon="9.270853435185233"><ele>380.0</ele><time>2026-04-24T13:25:22.001Z</time></trkpt><trkpt lat="44.89214839671062" lon="9.271025379786959"><ele>380.0</ele><time>2026-04-24T13:25:23.001Z</time></trkpt><trkpt lat="44.892175292359255" lon="9.271191084602986"><ele>380.0</ele><time>2026-04-24T13:25:24.001Z</time></trkpt><trkpt lat="44.892225766456406" lon="9.271362123256871"><ele>380.0</ele><time>2026-04-24T13:25:25.001Z</time></trkpt><trkpt lat="44.89234135526971" lon="9.27145172732413"><ele>380.0</ele><time>2026-04-24T13:25:26.001Z</time></trkpt><trkpt lat="44.89245321421864" lon="9.271556769538543"><ele>378.4</ele><time>2026-04-24T13:25:27.001Z</time></trkpt><trkpt lat="44.89253492894284" lon="9.271645287685544"><ele>376.8</ele><time>2026-04-24T13:25:28.001Z</time></trkpt><trkpt lat="44.89260498330256" lon="9.271741430510383"><ele>375.20000000000005</ele><time>2026-04-24T13:25:29.001Z</time></trkpt><trkpt lat="44.89266351973142" lon="9.271857001523712"><ele>373.6</ele><time>2026-04-24T13:25:30.001Z</time></trkpt><trkpt lat="44.89266084724805" lon="9.272049345871327"><ele>372.0</ele><time>2026-04-24T13:25:31.001Z</time></trkpt><trkpt lat="44.89264955789899" lon="9.272238798983425"><ele>371.5</ele><time>2026-04-24T13:25:32.001Z</time></trkpt><trkpt lat="44.89261884478393" lon="9.272407363237912"><ele>371.0</ele><time>2026-04-24T13:25:33Z</time></trkpt><trkpt lat="44.89258964766119" lon="9.272567769386027"><ele>370.5</ele><time>2026-04-24T13:25:34Z</time></trkpt><trkpt lat="44.892577322079354" lon="9.272734360525554"><ele>370.0</ele><time>2026-04-24T13:25:35Z</time></trkpt><trkpt lat="44.89258448443888" lon="9.272904605315196"><ele>373.3333333333333</ele><time>2026-04-24T13:25:36Z</time></trkpt><trkpt lat="44.892651079382034" lon="9.273097145379728"><ele>376.6666666666667</ele><time>2026-04-24T13:25:37Z</time></trkpt><trkpt lat="44.89275917017679" lon="9.273308075089403"><ele>380.0</ele><time>2026-04-24T13:25:38Z</time></trkpt><trkpt lat="44.89286685123567" lon="9.273525275350964"><ele>380.0</ele><time>2026-04-24T13:25:39Z</time></trkpt><trkpt lat="44.89295618647873" lon="9.27371693904641"><ele>380.0</ele><time>2026-04-24T13:25:40Z</time></trkpt><trkpt lat="44.89306570679305" lon="9.273947546507776"><ele>380.0</ele><time>2026-04-24T13:25:41Z</time></trkpt><trkpt lat="44.89317121800858" lon="9.274136084929038"><ele>377.33333333333337</ele><time>2026-04-24T13:25:42Z</time></trkpt><trkpt lat="44.893287509545445" lon="9.27432468359091"><ele>374.6666666666667</ele><time>2026-04-24T13:25:43Z</time></trkpt><trkpt lat="44.893394982332964" lon="9.274516043313968"><ele>372.0</ele><time>2026-04-24T13:25:44Z</time></trkpt><trkpt lat="44.89347905884672" lon="9.274684859134798"><ele>375.0</ele><time>2026-04-24T13:25:45Z</time></trkpt><trkpt lat="44.89357584462655" lon="9.274839614831944"><ele>378.0</ele><time>2026-04-24T13:25:46Z</time></trkpt><trkpt lat="44.893714624735715" lon="9.27492257827248"><ele>381.0</ele><time>2026-04-24T13:25:47Z</time></trkpt><trkpt lat="44.893861291358164" lon="9.275017584113757"><ele>381.0</ele><time>2026-04-24T13:25:48Z</time></trkpt><trkpt lat="44.89403839409108" lon="9.275077501073662"><ele>381.0</ele><time>2026-04-24T13:25:49Z</time></trkpt><trkpt lat="44.89422115837788" lon="9.275137820145847"><ele>381.0</ele><time>2026-04-24T13:25:50Z</time></trkpt><trkpt lat="44.89437661005157" lon="9.27518824791379"><ele>385.66666666666663</ele><time>2026-04-24T13:25:51Z</time></trkpt><trkpt lat="44.89454074543292" lon="9.275249182017054"><ele>390.3333333333333</ele><time>2026-04-24T13:25:52Z</time></trkpt><trkpt lat="44.894694565961814" lon="9.275337415359774"><ele>395.0</ele><time>2026-04-24T13:25:53Z</time></trkpt><trkpt lat="44.89484190014516" lon="9.275446939617085"><ele>395.0</ele><time>2026-04-24T13:25:54Z</time></trkpt><trkpt lat="44.894975647392314" lon="9.275563211632347"><ele>395.0</ele><time>2026-04-24T13:25:55Z</time></trkpt><trkpt lat="44.895103133711764" lon="9.275681281406492"><ele>395.0</ele><time>2026-04-24T13:25:56Z</time></trkpt><trkpt lat="44.8952229536757" lon="9.275796810338935"><ele>392.0</ele><time>2026-04-24T13:25:57Z</time></trkpt><trkpt lat="44.895282383026924" lon="9.275883895228665"><ele>389.0</ele><time>2026-04-24T13:25:58Z</time></trkpt><trkpt lat="44.89532283581561" lon="9.276054601178958"><ele>386.0</ele><time>2026-04-24T13:25:59Z</time></trkpt><trkpt lat="44.89535551698219" lon="9.276264646157868"><ele>383.0</ele><time>2026-04-24T13:26:00Z</time></trkpt><trkpt lat="44.8953782664878" lon="9.276532698587792"><ele>381.33333333333337</ele><time>2026-04-24T13:26:01Z</time></trkpt><trkpt lat="44.89539518502676" lon="9.276763742728468"><ele>379.6666666666667</ele><time>2026-04-24T13:26:02Z</time></trkpt><trkpt lat="44.895413428328695" lon="9.276999687689749"><ele>378.0</ele><time>2026-04-24T13:26:03Z</time></trkpt><trkpt lat="44.895432948172335" lon="9.277205771705697"><ele>376.25</ele><time>2026-04-24T13:26:04Z</time></trkpt><trkpt lat="44.89546232632703" lon="9.277396757556566"><ele>374.5</ele><time>2026-04-24T13:26:05Z</time></trkpt><trkpt lat="44.895548423283984" lon="9.277510868825415"><ele>372.75</ele><time>2026-04-24T13:26:06Z</time></trkpt><trkpt lat="44.8956729388752" lon="9.277564207786073"><ele>371.0</ele><time>2026-04-24T13:26:07Z</time></trkpt><trkpt lat="44.89579769501398" lon="9.277682439055097"><ele>374.0</ele><time>2026-04-24T13:26:08Z</time></trkpt><trkpt lat="44.895924055811506" lon="9.277784862290247"><ele>377.0</ele><time>2026-04-24T13:26:09Z</time></trkpt><trkpt lat="44.89606027918548" lon="9.27789527990834"><ele>380.0</ele><time>2026-04-24T13:26:10Z</time></trkpt><trkpt lat="44.89619808142908" lon="9.278006976447525"><ele>377.0</ele><time>2026-04-24T13:26:11Z</time></trkpt><trkpt lat="44.896342297743224" lon="9.278128151614112"><ele>374.0</ele><time>2026-04-24T13:26:12Z</time></trkpt><trkpt lat="44.89650649142095" lon="9.278264684451859"><ele>371.0</ele><time>2026-04-24T13:26:13Z</time></trkpt><trkpt lat="44.89667322301812" lon="9.278387012758722"><ele>374.33333333333337</ele><time>2026-04-24T13:26:14Z</time></trkpt><trkpt lat="44.896833731527806" lon="9.278499153196483"><ele>377.6666666666667</ele><time>2026-04-24T13:26:15Z</time></trkpt><trkpt lat="44.89697515320199" lon="9.278596399741959"><ele>381.0</ele><time>2026-04-24T13:26:16Z</time></trkpt><trkpt lat="44.89713107498724" lon="9.278702754428345"><ele>381.0</ele><time>2026-04-24T13:26:16.999Z</time></trkpt><trkpt lat="44.89727211112997" lon="9.278797198408705"><ele>381.0</ele><time>2026-04-24T13:26:17.999Z</time></trkpt><trkpt lat="44.89742439698687" lon="9.27889252172191"><ele>381.0</ele><time>2026-04-24T13:26:18.999Z</time></trkpt><trkpt lat="44.897567030617225" lon="9.27895977611955"><ele>378.25</ele><time>2026-04-24T13:26:19.999Z</time></trkpt><trkpt lat="44.89772425006596" lon="9.278968059555837"><ele>375.5</ele><time>2026-04-24T13:26:20.999Z</time></trkpt><trkpt lat="44.897858571046676" lon="9.2789756474688"><ele>372.75</ele><time>2026-04-24T13:26:21.999Z</time></trkpt><trkpt lat="44.89801054972965" lon="9.278980360106164"><ele>370.0</ele><time>2026-04-24T13:26:22.999Z</time></trkpt><trkpt lat="44.89815526303184" lon="9.278983173966154"><ele>370.0</ele><time>2026-04-24T13:26:23.999Z</time></trkpt><trkpt lat="44.89829480537869" lon="9.278988129768969"><ele>370.0</ele><time>2026-04-24T13:26:24.999Z</time></trkpt><trkpt lat="44.898438436537354" lon="9.278998600297273"><ele>370.0</ele><time>2026-04-24T13:26:25.999Z</time></trkpt><trkpt lat="44.898545781310915" lon="9.279036684416347"><ele>370.0</ele><time>2026-04-24T13:26:26.999Z</time></trkpt><trkpt lat="44.8986148513133" lon="9.279093965865993"><ele>371.5</ele><time>2026-04-24T13:26:27.999Z</time></trkpt><trkpt lat="44.898720554431755" lon="9.279192664886645"><ele>373.0</ele><time>2026-04-24T13:26:28.999Z</time></trkpt><trkpt lat="44.89885060815395" lon="9.27931205812663"><ele>374.5</ele><time>2026-04-24T13:26:29.999Z</time></trkpt><trkpt lat="44.89899153854704" lon="9.279402054535307"><ele>376.0</ele><time>2026-04-24T13:26:30.999Z</time></trkpt><trkpt lat="44.899120164739365" lon="9.279467914287181"><ele>376.0</ele><time>2026-04-24T13:26:31.999Z</time></trkpt><trkpt lat="44.89922427936798" lon="9.279534187213207"><ele>376.0</ele><time>2026-04-24T13:26:32.999Z</time></trkpt><trkpt lat="44.89933001540738" lon="9.279651398529776"><ele>376.0</ele><time>2026-04-24T13:26:33.999Z</time></trkpt><trkpt lat="44.899410597777425" lon="9.2797682415886"><ele>376.0</ele><time>2026-04-24T13:26:34.999Z</time></trkpt><trkpt lat="44.899476819366704" lon="9.279902137543933"><ele>377.0</ele><time>2026-04-24T13:26:35.999Z</time></trkpt><trkpt lat="44.89949231015373" lon="9.28007450059284"><ele>378.0</ele><time>2026-04-24T13:26:36.999Z</time></trkpt><trkpt lat="44.899480265941655" lon="9.280252000619347"><ele>379.0</ele><time>2026-04-24T13:26:37.999Z</time></trkpt><trkpt lat="44.899476627063855" lon="9.280444177151551"><ele>380.0</ele><time>2026-04-24T13:26:38.999Z</time></trkpt><trkpt lat="44.899477237389945" lon="9.280642348529605"><ele>380.0</ele><time>2026-04-24T13:26:39.999Z</time></trkpt><trkpt lat="44.89949118313313" lon="9.280850962312018"><ele>380.0</ele><time>2026-04-24T13:26:40.999Z</time></trkpt><trkpt lat="44.89952226291148" lon="9.281041443157198"><ele>380.0</ele><time>2026-04-24T13:26:41.999Z</time></trkpt><trkpt lat="44.89957859483932" lon="9.281202983994838"><ele>380.0</ele><time>2026-04-24T13:26:42.999Z</time></trkpt><trkpt lat="44.89966047467345" lon="9.281393272742141"><ele>378.0</ele><time>2026-04-24T13:26:43.999Z</time></trkpt><trkpt lat="44.89977106035215" lon="9.28153350560221"><ele>376.0</ele><time>2026-04-24T13:26:44.999Z</time></trkpt><trkpt lat="44.89987677205836" lon="9.281680921835479"><ele>374.0</ele><time>2026-04-24T13:26:45.999Z</time></trkpt><trkpt lat="44.89997870979348" lon="9.281825846860226"><ele>372.0</ele><time>2026-04-24T13:26:46.999Z</time></trkpt><trkpt lat="44.90010456199686" lon="9.282010839248747"><ele>374.0</ele><time>2026-04-24T13:26:47.999Z</time></trkpt><trkpt lat="44.90023592263976" lon="9.282187241923998"><ele>376.0</ele><time>2026-04-24T13:26:48.999Z</time></trkpt><trkpt lat="44.90035975456536" lon="9.282353224171082"><ele>378.0</ele><time>2026-04-24T13:26:49.999Z</time></trkpt><trkpt lat="44.900477190021384" lon="9.282504648738254"><ele>378.0</ele><time>2026-04-24T13:26:50.999Z</time></trkpt><trkpt lat="44.90059486191217" lon="9.282650086737961"><ele>378.0</ele><time>2026-04-24T13:26:51.999Z</time></trkpt><trkpt lat="44.90071045397435" lon="9.28278651018798"><ele>378.0</ele><time>2026-04-24T13:26:52.999Z</time></trkpt><trkpt lat="44.90083335362373" lon="9.282922010619108"><ele>378.25</ele><time>2026-04-24T13:26:53.999Z</time></trkpt><trkpt lat="44.9009581084754" lon="9.283053126187193"><ele>378.5</ele><time>2026-04-24T13:26:54.999Z</time></trkpt><trkpt lat="44.901083057291785" lon="9.283140993629681"><ele>378.75</ele><time>2026-04-24T13:26:55.999Z</time></trkpt><trkpt lat="44.901201550145785" lon="9.28319700346855"><ele>379.0</ele><time>2026-04-24T13:26:56.999Z</time></trkpt><trkpt lat="44.901329150364084" lon="9.28319192654317"><ele>379.0</ele><time>2026-04-24T13:26:57.999Z</time></trkpt><trkpt lat="44.90146047412709" lon="9.28317448773819"><ele>379.0</ele><time>2026-04-24T13:26:58.999Z</time></trkpt><trkpt lat="44.90158795468021" lon="9.28310133838466"><ele>379.0</ele><time>2026-04-24T13:26:59.999Z</time></trkpt><trkpt lat="44.90171054373945" lon="9.283003624772679"><ele>379.0</ele><time>2026-04-24T13:27:00.999Z</time></trkpt><trkpt lat="44.901819188503964" lon="9.2828617945664"><ele>378.5</ele><time>2026-04-24T13:27:01.999Z</time></trkpt><trkpt lat="44.90192358069668" lon="9.282723256774064"><ele>378.0</ele><time>2026-04-24T13:27:02.999Z</time></trkpt><trkpt lat="44.90202697962624" lon="9.282586294062556"><ele>377.5</ele><time>2026-04-24T13:27:03.999Z</time></trkpt><trkpt lat="44.90211736082989" lon="9.28249511116047"><ele>377.0</ele><time>2026-04-24T13:27:04.999Z</time></trkpt><trkpt lat="44.90221782512002" lon="9.28244071318741"><ele>377.0</ele><time>2026-04-24T13:27:05.999Z</time></trkpt><trkpt lat="44.9023112999212" lon="9.282426044676338"><ele>377.0</ele><time>2026-04-24T13:27:06.999Z</time></trkpt><trkpt lat="44.90237931702299" lon="9.28245149731248"><ele>377.0</ele><time>2026-04-24T13:27:07.999Z</time></trkpt><trkpt lat="44.90250862607269" lon="9.28252939094707"><ele>377.0</ele><time>2026-04-24T13:27:08.999Z</time></trkpt><trkpt lat="44.90266411873202" lon="9.282639190151926"><ele>380.6666666666667</ele><time>2026-04-24T13:27:09.999Z</time></trkpt><trkpt lat="44.90280842581285" lon="9.282745536224683"><ele>384.33333333333337</ele><time>2026-04-24T13:27:10.999Z</time></trkpt><trkpt lat="44.90294805459118" lon="9.282845927748797"><ele>388.0</ele><time>2026-04-24T13:27:11.998Z</time></trkpt><trkpt lat="44.903071357740274" lon="9.282934258599687"><ele>388.0</ele><time>2026-04-24T13:27:12.998Z</time></trkpt><trkpt lat="44.903192135854056" lon="9.283020419436536"><ele>388.0</ele><time>2026-04-24T13:27:13.998Z</time></trkpt><trkpt lat="44.90331322672767" lon="9.283107044386265"><ele>388.0</ele><time>2026-04-24T13:27:14.998Z</time></trkpt><trkpt lat="44.903406327822424" lon="9.283176786313836"><ele>388.0</ele><time>2026-04-24T13:27:15.998Z</time></trkpt><trkpt lat="44.90350343912269" lon="9.283262570984268"><ele>388.4</ele><time>2026-04-24T13:27:16.998Z</time></trkpt><trkpt lat="44.90358125971837" lon="9.283364353651988"><ele>388.79999999999995</ele><time>2026-04-24T13:27:17.998Z</time></trkpt><trkpt lat="44.90363596362336" lon="9.283432054601889"><ele>389.2</ele><time>2026-04-24T13:27:18.998Z</time></trkpt><trkpt lat="44.903654440314405" lon="9.283584650869038"><ele>389.6</ele><time>2026-04-24T13:27:19.998Z</time></trkpt><trkpt lat="44.90361593423783" lon="9.283747852215358"><ele>390.0</ele><time>2026-04-24T13:27:20.998Z</time></trkpt><trkpt lat="44.903560491139146" lon="9.283924818062752"><ele>386.0</ele><time>2026-04-24T13:27:21.998Z</time></trkpt><trkpt lat="44.90350207921054" lon="9.284092299511551"><ele>382.0</ele><time>2026-04-24T13:27:22.998Z</time></trkpt><trkpt lat="44.903433162510844" lon="9.284263151702412"><ele>378.0</ele><time>2026-04-24T13:27:23.998Z</time></trkpt><trkpt lat="44.9033539253741" lon="9.284424565137517"><ele>374.0</ele><time>2026-04-24T13:27:24.998Z</time></trkpt><trkpt lat="44.90329650288136" lon="9.284593885433608"><ele>375.25</ele><time>2026-04-24T13:27:25.998Z</time></trkpt><trkpt lat="44.90323392835632" lon="9.284778396675682"><ele>376.5</ele><time>2026-04-24T13:27:26.998Z</time></trkpt><trkpt lat="44.90317857756482" lon="9.28494162997981"><ele>377.75</ele><time>2026-04-24T13:27:27.998Z</time></trkpt><trkpt lat="44.903122757009996" lon="9.285108075513357"><ele>379.0</ele><time>2026-04-24T13:27:28.998Z</time></trkpt><trkpt lat="44.903084466408174" lon="9.285267223437046"><ele>379.0</ele><time>2026-04-24T13:27:29.998Z</time></trkpt><trkpt lat="44.90304567146713" lon="9.285427911043046"><ele>379.0</ele><time>2026-04-24T13:27:30.998Z</time></trkpt><trkpt lat="44.903020599817545" lon="9.285604462518052"><ele>379.0</ele><time>2026-04-24T13:27:31.998Z</time></trkpt><trkpt lat="44.903051403969776" lon="9.28573941456047"><ele>379.0</ele><time>2026-04-24T13:27:32.998Z</time></trkpt><trkpt lat="44.90310990680727" lon="9.285889987284131"><ele>380.25</ele><time>2026-04-24T13:27:33.998Z</time></trkpt><trkpt lat="44.90318514179567" lon="9.285988297129647"><ele>381.5</ele><time>2026-04-24T13:27:34.998Z</time></trkpt><trkpt lat="44.90327348004499" lon="9.286091537615077"><ele>382.75</ele><time>2026-04-24T13:27:35.998Z</time></trkpt><trkpt lat="44.90340000354703" lon="9.286125175624722"><ele>384.0</ele><time>2026-04-24T13:27:36.998Z</time></trkpt><trkpt lat="44.903531010656344" lon="9.286100558860188"><ele>384.0</ele><time>2026-04-24T13:27:37.998Z</time></trkpt><trkpt lat="44.9036736815749" lon="9.286098165027504"><ele>384.0</ele><time>2026-04-24T13:27:38.998Z</time></trkpt><trkpt lat="44.90380065274255" lon="9.286082134101441"><ele>384.0</ele><time>2026-04-24T13:27:39.998Z</time></trkpt><trkpt lat="44.90394010731818" lon="9.286065813305694"><ele>384.0</ele><time>2026-04-24T13:27:40.998Z</time></trkpt><trkpt lat="44.90408202001366" lon="9.28601962004242"><ele>384.0</ele><time>2026-04-24T13:27:41.998Z</time></trkpt><trkpt lat="44.904202891430096" lon="9.285908724261446"><ele>384.0</ele><time>2026-04-24T13:27:42.998Z</time></trkpt><trkpt lat="44.904357262150896" lon="9.285832932145446"><ele>384.0</ele><time>2026-04-24T13:27:43.998Z</time></trkpt><trkpt lat="44.9045058592569" lon="9.285764351249929"><ele>384.5</ele><time>2026-04-24T13:27:44.998Z</time></trkpt><trkpt lat="44.90465709398372" lon="9.285697450397148"><ele>385.0</ele><time>2026-04-24T13:27:45.998Z</time></trkpt><trkpt lat="44.90479380316141" lon="9.285692352541346"><ele>385.5</ele><time>2026-04-24T13:27:46.998Z</time></trkpt><trkpt lat="44.90491617827326" lon="9.285754861072679"><ele>386.0</ele><time>2026-04-24T13:27:47.998Z</time></trkpt><trkpt lat="44.905058161573336" lon="9.285845980100781"><ele>388.3333333333333</ele><time>2026-04-24T13:27:48.998Z</time></trkpt><trkpt lat="44.905231377707665" lon="9.285935946885653"><ele>390.66666666666663</ele><time>2026-04-24T13:27:49.998Z</time></trkpt><trkpt lat="44.90542436175298" lon="9.286020420664835"><ele>393.0</ele><time>2026-04-24T13:27:50.998Z</time></trkpt><trkpt lat="44.90561504239267" lon="9.28610491084682"><ele>393.0</ele><time>2026-04-24T13:27:51.998Z</time></trkpt><trkpt lat="44.90578859011011" lon="9.286183375734723"><ele>393.0</ele><time>2026-04-24T13:27:52.998Z</time></trkpt><trkpt lat="44.90594751991881" lon="9.286253995321497"><ele>393.0</ele><time>2026-04-24T13:27:53.998Z</time></trkpt><trkpt lat="44.906063695247695" lon="9.286304356272923"><ele>391.4</ele><time>2026-04-24T13:27:54.998Z</time></trkpt><trkpt lat="44.90617870128142" lon="9.286348817361837"><ele>389.79999999999995</ele><time>2026-04-24T13:27:55.998Z</time></trkpt><trkpt lat="44.906284733357175" lon="9.286372407208397"><ele>388.2</ele><time>2026-04-24T13:27:56.998Z</time></trkpt><trkpt lat="44.90638455604437" lon="9.286354705806827"><ele>386.6</ele><time>2026-04-24T13:27:57.998Z</time></trkpt><trkpt lat="44.90646036292093" lon="9.286307678368763"><ele>385.0</ele><time>2026-04-24T13:27:58.998Z</time></trkpt><trkpt lat="44.90638778148135" lon="9.286289728821666"><ele>385.00000000000006</ele><time>2026-04-24T13:28:17.997Z</time></trkpt><trkpt lat="44.90650864620253" lon="9.286287926852037"><ele>385.0</ele><time>2026-04-24T13:31:14.994Z</time></trkpt><trkpt lat="44.90644555989169" lon="9.286304626109205"><ele>385.0</ele><time>2026-04-24T13:31:40.994Z</time></trkpt><trkpt lat="44.90650167554365" lon="9.286355967790048"><ele>385.0</ele><time>2026-04-24T13:32:14Z</time></trkpt><trkpt lat="44.906560820819145" lon="9.286411205581663"><ele>385.00000000000006</ele><time>2026-04-24T13:32:34Z</time></trkpt><trkpt lat="44.9066210543014" lon="9.286451611468701"><ele>385.0</ele><time>2026-04-24T13:32:41Z</time></trkpt><trkpt lat="44.90667557087295" lon="9.28653434949453"><ele>381.7142857142857</ele><time>2026-04-24T13:32:48Z</time></trkpt><trkpt lat="44.906723176684544" lon="9.28659953550385"><ele>378.42857142857144</ele><time>2026-04-24T13:32:54Z</time></trkpt><trkpt lat="44.90678079243594" lon="9.28664252018184"><ele>375.1428571428571</ele><time>2026-04-24T13:32:56.999Z</time></trkpt><trkpt lat="44.90686037735098" lon="9.286654500754723"><ele>371.8571428571429</ele><time>2026-04-24T13:33:08.999Z</time></trkpt><trkpt lat="44.90692236384631" lon="9.286717788360937"><ele>368.57142857142856</ele><time>2026-04-24T13:33:14.999Z</time></trkpt><trkpt lat="44.90697959688865" lon="9.28676016849607"><ele>365.2857142857143</ele><time>2026-04-24T13:33:20.999Z</time></trkpt><trkpt lat="44.907034857874926" lon="9.286826025758094"><ele>362.0</ele><time>2026-04-24T13:33:27.999Z</time></trkpt><trkpt lat="44.907094851588816" lon="9.286870119855212"><ele>362.0</ele><time>2026-04-24T13:33:32.999Z</time></trkpt><trkpt lat="44.907158081770234" lon="9.286907190218468"><ele>362.0</ele><time>2026-04-24T13:33:37.999Z</time></trkpt><trkpt lat="44.9072232235448" lon="9.286915816327184"><ele>362.0</ele><time>2026-04-24T13:33:45.999Z</time></trkpt><trkpt lat="44.907244000539926" lon="9.287000997163993"><ele>362.0</ele><time>2026-04-24T13:34:02.998Z</time></trkpt><trkpt lat="44.90731616741195" lon="9.287048100982231"><ele>362.0</ele><time>2026-04-24T13:34:15.998Z</time></trkpt><trkpt lat="44.90644555989169" lon="9.286304626109205"><ele>362.0</ele><time>2026-04-24T13:31:40.994Z</time></trkpt><trkpt lat="44.90650167554365" lon="9.286355967790048"><ele>362.0</ele><time>2026-04-24T13:32:14Z</time></trkpt><trkpt lat="44.906560820819145" lon="9.286411205581663"><ele>362.0</ele><time>2026-04-24T13:32:34Z</time></trkpt><trkpt lat="44.9066210543014" lon="9.286451611468701"><ele>362.0</ele><time>2026-04-24T13:32:41Z</time></trkpt><trkpt lat="44.90667557087295" lon="9.28653434949453"><ele>362.0</ele><time>2026-04-24T13:32:48Z</time></trkpt><trkpt lat="44.906723176684544" lon="9.28659953550385"><ele>362.0</ele><time>2026-04-24T13:32:54Z</time></trkpt><trkpt lat="44.90678079243594" lon="9.28664252018184"><ele>362.0</ele><time>2026-04-24T13:32:56.999Z</time></trkpt><trkpt lat="44.90686037735098" lon="9.286654500754723"><ele>362.0</ele><time>2026-04-24T13:33:08.999Z</time></trkpt><trkpt lat="44.90692236384631" lon="9.286717788360937"><ele>362.0</ele><time>2026-04-24T13:33:14.999Z</time></trkpt><trkpt lat="44.90697959688865" lon="9.28676016849607"><ele>362.0</ele><time>2026-04-24T13:33:20.999Z</time></trkpt><trkpt lat="44.907034857874926" lon="9.286826025758094"><ele>362.0</ele><time>2026-04-24T13:33:27.999Z</time></trkpt><trkpt lat="44.907094851588816" lon="9.286870119855212"><ele>362.0</ele><time>2026-04-24T13:33:32.999Z</time></trkpt><trkpt lat="44.907158081770234" lon="9.286907190218468"><ele>362.0</ele><time>2026-04-24T13:33:37.999Z</time></trkpt><trkpt lat="44.9072232235448" lon="9.286915816327184"><ele>362.0</ele><time>2026-04-24T13:33:45.999Z</time></trkpt><trkpt lat="44.907244000539926" lon="9.287000997163993"><ele>362.0</ele><time>2026-04-24T13:34:02.998Z</time></trkpt><trkpt lat="44.90731616741195" lon="9.287048100982231"><ele>362.0</ele><time>2026-04-24T13:34:15.998Z</time></trkpt><trkpt lat="44.90727700760356" lon="9.287120976402392"><ele>362.0</ele><time>2026-04-24T13:34:49.998Z</time></trkpt><trkpt lat="44.90724265942656" lon="9.287211898228257"><ele>362.0</ele><time>2026-04-24T13:34:58.997Z</time></trkpt><trkpt lat="44.90719249597429" lon="9.287284154139362"><ele>362.0</ele><time>2026-04-24T13:35:05.997Z</time></trkpt><trkpt lat="44.90716126910125" lon="9.287375692648594"><ele>362.0</ele><time>2026-04-24T13:35:12.997Z</time></trkpt><trkpt lat="44.9071359857385" lon="9.2874618872762"><ele>362.0</ele><time>2026-04-24T13:35:18.997Z</time></trkpt><trkpt lat="44.907102943149155" lon="9.287548260234328"><ele>359.6666666666667</ele><time>2026-04-24T13:35:26.997Z</time></trkpt><trkpt lat="44.90708106248034" lon="9.28764104445538"><ele>357.33333333333337</ele><time>2026-04-24T13:35:32.997Z</time></trkpt><trkpt lat="44.90706065407272" lon="9.28773344721964"><ele>355.0</ele><time>2026-04-24T13:35:40.997Z</time></trkpt><trkpt lat="44.90702559119897" lon="9.287823945684542"><ele>352.6666666666667</ele><time>2026-04-24T13:35:46.997Z</time></trkpt><trkpt lat="44.90702229592834" lon="9.287927535679295"><ele>350.3333333333333</ele><time>2026-04-24T13:35:55.996Z</time></trkpt><trkpt lat="44.90700093402763" lon="9.288073584156109"><ele>348.0</ele><time>2026-04-24T13:36:50.995Z</time></trkpt><trkpt lat="44.90706494313774" lon="9.28804187685709"><ele>348.0</ele><time>2026-04-24T13:37:26.995Z</time></trkpt><trkpt lat="44.907041489556114" lon="9.287957342142185"><ele>348.0</ele><time>2026-04-24T13:38:05.994Z</time></trkpt><trkpt lat="44.907068983275934" lon="9.287858478244587"><ele>348.0</ele><time>2026-04-24T13:38:14.994Z</time></trkpt><trkpt lat="44.90708876088458" lon="9.287758863353758"><ele>348.0</ele><time>2026-04-24T13:38:21.994Z</time></trkpt><trkpt lat="44.907113305629096" lon="9.287658712200143"><ele>348.0</ele><time>2026-04-24T13:38:29.994Z</time></trkpt><trkpt lat="44.90715549132479" lon="9.287571115255988"><ele>348.0</ele><time>2026-04-24T13:38:35.994Z</time></trkpt><trkpt lat="44.90718479485511" lon="9.28747673701048"><ele>348.0</ele><time>2026-04-24T13:38:42.993Z</time></trkpt><trkpt lat="44.90720271098654" lon="9.287388722340918"><ele>348.0</ele><time>2026-04-24T13:38:47.993Z</time></trkpt><trkpt lat="44.907215637872866" lon="9.28730029221814"><ele>348.0</ele><time>2026-04-24T13:38:53.993Z</time></trkpt><trkpt lat="44.907237816597394" lon="9.287215456103906"><ele>348.0</ele><time>2026-04-24T13:38:58.993Z</time></trkpt><trkpt lat="44.9072685122191" lon="9.287136331891851"><ele>348.0</ele><time>2026-04-24T13:39:04.993Z</time></trkpt><trkpt lat="44.907273757151316" lon="9.287039605173783"><ele>348.0</ele><time>2026-04-24T13:39:11.993Z</time></trkpt><trkpt lat="44.90723578190702" lon="9.286953934619559"><ele>348.0</ele><time>2026-04-24T13:39:20Z</time></trkpt><trkpt lat="44.907174416865075" lon="9.286910031629548"><ele>348.0</ele><time>2026-04-24T13:39:25Z</time></trkpt><trkpt lat="44.9071253224179" lon="9.286853365856643"><ele>350.0</ele><time>2026-04-24T13:39:31Z</time></trkpt><trkpt lat="44.90706069848411" lon="9.286805914616075"><ele>352.0</ele><time>2026-04-24T13:39:39Z</time></trkpt><trkpt lat="44.90699570149422" lon="9.286769058250236"><ele>354.0</ele><time>2026-04-24T13:39:45Z</time></trkpt><trkpt lat="44.906928415605925" lon="9.286748458257774"><ele>356.0</ele><time>2026-04-24T13:39:51Z</time></trkpt><trkpt lat="44.906863382316786" lon="9.286702173824631"><ele>358.0</ele><time>2026-04-24T13:39:57Z</time></trkpt><trkpt lat="44.906789075216906" lon="9.286681614966643"><ele>360.0</ele><time>2026-04-24T13:40:04.999Z</time></trkpt><trkpt lat="44.906718990609" lon="9.286639780382696"><ele>362.0</ele><time>2026-04-24T13:40:10.999Z</time></trkpt><trkpt lat="44.90665005065316" lon="9.286592104891243"><ele>362.0</ele><time>2026-04-24T13:40:16.999Z</time></trkpt><trkpt lat="44.906594400304314" lon="9.286544683143337"><ele>362.0</ele><time>2026-04-24T13:40:23.999Z</time></trkpt><trkpt lat="44.906542487387576" lon="9.28648989202081"><ele>362.0</ele><time>2026-04-24T13:40:31.999Z</time></trkpt><trkpt lat="44.90647838796423" lon="9.286434901161604"><ele>362.0</ele><time>2026-04-24T13:43:21.996Z</time></trkpt><trkpt lat="44.906507414161595" lon="9.286328795176297"><ele>362.0</ele><time>2026-04-24T13:43:26.996Z</time></trkpt><trkpt lat="44.906552808553734" lon="9.286239989914858"><ele>362.0</ele><time>2026-04-24T13:43:28.996Z</time></trkpt><trkpt lat="44.90661324084789" lon="9.286128598525105"><ele>366.40000000000003</ele><time>2026-04-24T13:43:30.996Z</time></trkpt><trkpt lat="44.9066907513771" lon="9.286009084563386"><ele>370.8</ele><time>2026-04-24T13:43:32.995Z</time></trkpt><trkpt lat="44.90679788920351" lon="9.285913253545298"><ele>375.2</ele><time>2026-04-24T13:43:34.995Z</time></trkpt><trkpt lat="44.90687743616984" lon="9.285888878932962"><ele>379.6</ele><time>2026-04-24T13:43:35.995Z</time></trkpt><trkpt lat="44.906959959181385" lon="9.285900471925864"><ele>384.0</ele><time>2026-04-24T13:43:36.995Z</time></trkpt><trkpt lat="44.90705367803599" lon="9.285934843486597"><ele>384.0</ele><time>2026-04-24T13:43:37.995Z</time></trkpt><trkpt lat="44.90715258089351" lon="9.285945158704246"><ele>384.0</ele><time>2026-04-24T13:43:38.995Z</time></trkpt><trkpt lat="44.90725447119029" lon="9.285965608161089"><ele>384.0</ele><time>2026-04-24T13:43:39.995Z</time></trkpt><trkpt lat="44.90736774611974" lon="9.28597850704814"><ele>384.0</ele><time>2026-04-24T13:43:40.995Z</time></trkpt><trkpt lat="44.90748294185828" lon="9.286012489377942"><ele>384.0</ele><time>2026-04-24T13:43:41.995Z</time></trkpt><trkpt lat="44.907581943636885" lon="9.286071561933275"><ele>384.0</ele><time>2026-04-24T13:43:42.995Z</time></trkpt><trkpt lat="44.90765435401026" lon="9.286145407362765"><ele>384.0</ele><time>2026-04-24T13:43:43.995Z</time></trkpt><trkpt lat="44.90773997371045" lon="9.28623766543982"><ele>384.0</ele><time>2026-04-24T13:43:44.995Z</time></trkpt><trkpt lat="44.9078225857175" lon="9.286323987738726"><ele>384.0</ele><time>2026-04-24T13:43:45.995Z</time></trkpt><trkpt lat="44.90792205262961" lon="9.286401119373487"><ele>384.0</ele><time>2026-04-24T13:43:46.995Z</time></trkpt><trkpt lat="44.908003455690455" lon="9.286446069688392"><ele>384.0</ele><time>2026-04-24T13:43:47.995Z</time></trkpt><trkpt lat="44.90807658143914" lon="9.286452305383355"><ele>384.0</ele><time>2026-04-24T13:43:48.995Z</time></trkpt><trkpt lat="44.908153433014085" lon="9.286409732040877"><ele>384.0</ele><time>2026-04-24T13:43:49.995Z</time></trkpt><trkpt lat="44.90823029792718" lon="9.28633811367001"><ele>384.0</ele><time>2026-04-24T13:43:50.995Z</time></trkpt><trkpt lat="44.90830351153963" lon="9.286240605836673"><ele>384.0</ele><time>2026-04-24T13:43:51.995Z</time></trkpt><trkpt lat="44.9083775404548" lon="9.286130880813745"><ele>385.3333333333333</ele><time>2026-04-24T13:43:52.995Z</time></trkpt><trkpt lat="44.908441059439056" lon="9.286034776356011"><ele>386.66666666666663</ele><time>2026-04-24T13:43:53.995Z</time></trkpt><trkpt lat="44.908504976579295" lon="9.285945384234672"><ele>388.0</ele><time>2026-04-24T13:43:54.995Z</time></trkpt><trkpt lat="44.908587616116826" lon="9.285880737231816"><ele>389.3333333333333</ele><time>2026-04-24T13:43:55.995Z</time></trkpt><trkpt lat="44.90866622421145" lon="9.285826585620617"><ele>390.66666666666663</ele><time>2026-04-24T13:43:56.995Z</time></trkpt><trkpt lat="44.90874364534604" lon="9.285816886809782"><ele>392.0</ele><time>2026-04-24T13:43:57.995Z</time></trkpt><trkpt lat="44.9088112924813" lon="9.285852465691198"><ele>391.99999999999994</ele><time>2026-04-24T13:43:58.995Z</time></trkpt><trkpt lat="44.90886165380227" lon="9.285920988546778"><ele>392.0</ele><time>2026-04-24T13:43:59.995Z</time></trkpt><trkpt lat="44.90887836133704" lon="9.286035281730605"><ele>392.0</ele><time>2026-04-24T13:44:00.995Z</time></trkpt><trkpt lat="44.908872448625374" lon="9.286168560348115"><ele>392.0</ele><time>2026-04-24T13:44:01.995Z</time></trkpt><trkpt lat="44.90889145293181" lon="9.286287708077628"><ele>391.99999999999994</ele><time>2026-04-24T13:44:02.995Z</time></trkpt><trkpt lat="44.9089149450162" lon="9.286404000770311"><ele>392.0</ele><time>2026-04-24T13:44:03.995Z</time></trkpt><trkpt lat="44.90896610787945" lon="9.286497802057545"><ele>393.8333333333333</ele><time>2026-04-24T13:44:04.995Z</time></trkpt><trkpt lat="44.9090290662027" lon="9.286563592242056"><ele>395.66666666666663</ele><time>2026-04-24T13:44:05.995Z</time></trkpt><trkpt lat="44.90911004111048" lon="9.286554042136352"><ele>397.5</ele><time>2026-04-24T13:44:06.995Z</time></trkpt><trkpt lat="44.90919701726736" lon="9.286568123650886"><ele>399.33333333333337</ele><time>2026-04-24T13:44:07.995Z</time></trkpt><trkpt lat="44.90928196225869" lon="9.28659962037466"><ele>401.1666666666667</ele><time>2026-04-24T13:44:08.995Z</time></trkpt><trkpt lat="44.909346520360714" lon="9.28669170972728"><ele>403.0</ele><time>2026-04-24T13:44:09.995Z</time></trkpt><trkpt lat="44.909359966935476" lon="9.286839132298182"><ele>403.0</ele><time>2026-04-24T13:44:10.995Z</time></trkpt><trkpt lat="44.90934468777411" lon="9.287001836966045"><ele>403.0</ele><time>2026-04-24T13:44:11.995Z</time></trkpt><trkpt lat="44.909305759874016" lon="9.287153708485985"><ele>403.0</ele><time>2026-04-24T13:44:12.995Z</time></trkpt><trkpt lat="44.90927126487398" lon="9.287304341302043"><ele>403.0</ele><time>2026-04-24T13:44:13.995Z</time></trkpt><trkpt lat="44.909223954547066" lon="9.287449678957783"><ele>395.2</ele><time>2026-04-24T13:44:14.995Z</time></trkpt><trkpt lat="44.9091686072345" lon="9.287582203650011"><ele>387.4</ele><time>2026-04-24T13:44:15.995Z</time></trkpt><trkpt lat="44.9091223810755" lon="9.287706895380353"><ele>379.59999999999997</ele><time>2026-04-24T13:44:16.995Z</time></trkpt><trkpt lat="44.90911756586504" lon="9.287837860977541"><ele>371.79999999999995</ele><time>2026-04-24T13:44:17.995Z</time></trkpt><trkpt lat="44.9091160555869" lon="9.287942046058976"><ele>364.0</ele><time>2026-04-24T13:44:18.995Z</time></trkpt><trkpt lat="44.90917951951384" lon="9.288053031269415"><ele>363.0</ele><time>2026-04-24T13:44:20.995Z</time></trkpt><trkpt lat="44.909253710458074" lon="9.288142778137283"><ele>362.0</ele><time>2026-04-24T13:44:21.995Z</time></trkpt><trkpt lat="44.90941164625836" lon="9.288184743332824"><ele>361.0</ele><time>2026-04-24T13:44:22.995Z</time></trkpt><trkpt lat="44.90946812302824" lon="9.288316813463986"><ele>360.0</ele><time>2026-04-24T13:44:23.995Z</time></trkpt><trkpt lat="44.909519224289085" lon="9.288443486209989"><ele>360.0</ele><time>2026-04-24T13:44:24.995Z</time></trkpt><trkpt lat="44.90955341042717" lon="9.288550402157338"><ele>360.0</ele><time>2026-04-24T13:44:25.994Z</time></trkpt><trkpt lat="44.90958807870385" lon="9.288645638664176"><ele>360.0</ele><time>2026-04-24T13:44:26.994Z</time></trkpt><trkpt lat="44.909643549500245" lon="9.28870563226784"><ele>360.0</ele><time>2026-04-24T13:44:27.994Z</time></trkpt><trkpt lat="44.90971292576101" lon="9.288714756158262"><ele>360.0</ele><time>2026-04-24T13:44:28.994Z</time></trkpt><trkpt lat="44.90983106663513" lon="9.288770363856116"><ele>360.0</ele><time>2026-04-24T13:44:29.994Z</time></trkpt><trkpt lat="44.90993317803157" lon="9.288689460308694"><ele>360.0</ele><time>2026-04-24T13:44:30.994Z</time></trkpt><trkpt lat="44.91004623581836" lon="9.288564406401465"><ele>360.0</ele><time>2026-04-24T13:44:31.994Z</time></trkpt><trkpt lat="44.9101424165127" lon="9.288430344213278"><ele>360.0</ele><time>2026-04-24T13:44:32.994Z</time></trkpt><trkpt lat="44.91023367233316" lon="9.288299757289684"><ele>360.0</ele><time>2026-04-24T13:44:33.994Z</time></trkpt><trkpt lat="44.910318970927044" lon="9.288176206650197"><ele>362.75</ele><time>2026-04-24T13:44:34.994Z</time></trkpt><trkpt lat="44.91041830339058" lon="9.288065195110057"><ele>365.5</ele><time>2026-04-24T13:44:35.994Z</time></trkpt><trkpt lat="44.91054549489767" lon="9.28796814618028"><ele>368.25</ele><time>2026-04-24T13:44:36.994Z</time></trkpt><trkpt lat="44.9106717054587" lon="9.28787757487481"><ele>371.0</ele><time>2026-04-24T13:44:37.994Z</time></trkpt><trkpt lat="44.910794806126496" lon="9.28779929305114"><ele>365.25</ele><time>2026-04-24T13:44:38.994Z</time></trkpt><trkpt lat="44.91092056685457" lon="9.287750527707987"><ele>359.5</ele><time>2026-04-24T13:44:39.994Z</time></trkpt><trkpt lat="44.91105602742246" lon="9.287734977800755"><ele>353.75</ele><time>2026-04-24T13:44:40.994Z</time></trkpt><trkpt lat="44.91119506907151" lon="9.28768699313991"><ele>348.0</ele><time>2026-04-24T13:44:41.994Z</time></trkpt><trkpt lat="44.911337654739846" lon="9.287625934069416"><ele>348.0</ele><time>2026-04-24T13:44:42.994Z</time></trkpt><trkpt lat="44.911426276554735" lon="9.287561460249844"><ele>348.0</ele><time>2026-04-24T13:44:43.994Z</time></trkpt><trkpt lat="44.911479017725185" lon="9.287448749940568"><ele>348.0</ele><time>2026-04-24T13:44:44.994Z</time></trkpt><trkpt lat="44.911551020393055" lon="9.287413911974857"><ele>348.0</ele><time>2026-04-24T13:44:45.994Z</time></trkpt><trkpt lat="44.911749475322054" lon="9.286990015618617"><ele>351.3333333333333</ele><time>2026-04-24T13:44:47.994Z</time></trkpt><trkpt lat="44.911939905267126" lon="9.287105870261273"><ele>354.66666666666663</ele><time>2026-04-24T13:44:48.994Z</time></trkpt><trkpt lat="44.91199377068599" lon="9.287181923013195"><ele>358.0</ele><time>2026-04-24T13:44:49.994Z</time></trkpt><trkpt lat="44.912085219948366" lon="9.287549260069682"><ele>358.0</ele><time>2026-04-24T13:44:50.994Z</time></trkpt><trkpt lat="44.91188947493193" lon="9.287740048117705"><ele>358.0</ele><time>2026-04-24T13:44:51.994Z</time></trkpt><trkpt lat="44.91184841330198" lon="9.287812904277825"><ele>358.0</ele><time>2026-04-24T13:44:52.994Z</time></trkpt><trkpt lat="44.91179528460482" lon="9.287898869020534"><ele>358.0</ele><time>2026-04-24T13:44:53.994Z</time></trkpt><trkpt lat="44.9117239776613" lon="9.287981886836745"><ele>357.0</ele><time>2026-04-24T13:44:54.994Z</time></trkpt><trkpt lat="44.911654836123034" lon="9.28808211634894"><ele>356.0</ele><time>2026-04-24T13:44:55.994Z</time></trkpt><trkpt lat="44.91158312850473" lon="9.288197574613953"><ele>355.0</ele><time>2026-04-24T13:44:56.994Z</time></trkpt><trkpt lat="44.911476867883664" lon="9.288245412581572"><ele>354.0</ele><time>2026-04-24T13:44:57.994Z</time></trkpt><trkpt lat="44.91136611589253" lon="9.288317472389528"><ele>353.0</ele><time>2026-04-24T13:44:58.994Z</time></trkpt><trkpt lat="44.91125075223908" lon="9.288398258068662"><ele>353.0</ele><time>2026-04-24T13:44:59.994Z</time></trkpt><trkpt lat="44.91113207421468" lon="9.288500799206396"><ele>353.0</ele><time>2026-04-24T13:45:00.994Z</time></trkpt><trkpt lat="44.91103770359423" lon="9.288630572430751"><ele>353.0</ele><time>2026-04-24T13:45:01.994Z</time></trkpt><trkpt lat="44.9109166295653" lon="9.288712366899407"><ele>353.0</ele><time>2026-04-24T13:45:02.994Z</time></trkpt><trkpt lat="44.91081946909379" lon="9.288831254007567"><ele>351.25</ele><time>2026-04-24T13:45:03.994Z</time></trkpt><trkpt lat="44.91073509069672" lon="9.288979701783402"><ele>349.5</ele><time>2026-04-24T13:45:04.994Z</time></trkpt><trkpt lat="44.91067388478971" lon="9.28915786025478"><ele>347.75</ele><time>2026-04-24T13:45:05.994Z</time></trkpt><trkpt lat="44.91058217620653" lon="9.289314729845648"><ele>346.0</ele><time>2026-04-24T13:45:06.994Z</time></trkpt><trkpt lat="44.91049117634551" lon="9.28946887732876"><ele>346.0</ele><time>2026-04-24T13:45:07.994Z</time></trkpt><trkpt lat="44.91037761767741" lon="9.289570878975706"><ele>346.0</ele><time>2026-04-24T13:45:08.994Z</time></trkpt><trkpt lat="44.910267092385624" lon="9.289695081226846"><ele>346.0</ele><time>2026-04-24T13:45:09.994Z</time></trkpt><trkpt lat="44.91017192900138" lon="9.289839735545709"><ele>346.0</ele><time>2026-04-24T13:45:10.994Z</time></trkpt><trkpt lat="44.910079296863934" lon="9.28997211959215"><ele>341.75</ele><time>2026-04-24T13:45:11.994Z</time></trkpt><trkpt lat="44.91002381608477" lon="9.290123015932283"><ele>337.5</ele><time>2026-04-24T13:45:12.994Z</time></trkpt><trkpt lat="44.90996565877528" lon="9.290299964958983"><ele>333.25</ele><time>2026-04-24T13:45:13.994Z</time></trkpt><trkpt lat="44.90991050625265" lon="9.290472553871448"><ele>329.0</ele><time>2026-04-24T13:45:14.994Z</time></trkpt><trkpt lat="44.909864534256656" lon="9.290649794625379"><ele>329.0</ele><time>2026-04-24T13:45:15.994Z</time></trkpt><trkpt lat="44.90984854444138" lon="9.290786237929158"><ele>329.0</ele><time>2026-04-24T13:45:16.994Z</time></trkpt><trkpt lat="44.90985487460389" lon="9.290929887071496"><ele>329.0</ele><time>2026-04-24T13:45:17.994Z</time></trkpt><trkpt lat="44.909880642855846" lon="9.291107922736463"><ele>329.0</ele><time>2026-04-24T13:45:18.994Z</time></trkpt><trkpt lat="44.9099135827668" lon="9.29128678492276"><ele>329.0</ele><time>2026-04-24T13:45:19.994Z</time></trkpt><trkpt lat="44.90998235224651" lon="9.29141232376065"><ele>329.0</ele><time>2026-04-24T13:45:20.994Z</time></trkpt><trkpt lat="44.91001347334502" lon="9.29157180632395"><ele>329.0</ele><time>2026-04-24T13:45:21.993Z</time></trkpt><trkpt lat="44.910043757954405" lon="9.29172279156528"><ele>329.0</ele><time>2026-04-24T13:45:22.993Z</time></trkpt><trkpt lat="44.910086074601615" lon="9.291893808277157"><ele>330.75</ele><time>2026-04-24T13:45:23.993Z</time></trkpt><trkpt lat="44.91015577114896" lon="9.292066803303014"><ele>332.5</ele><time>2026-04-24T13:45:24.993Z</time></trkpt><trkpt lat="44.91025203128937" lon="9.292222187228983"><ele>334.25</ele><time>2026-04-24T13:45:25.993Z</time></trkpt><trkpt lat="44.910361060439406" lon="9.292355981668322"><ele>336.0</ele><time>2026-04-24T13:45:26.993Z</time></trkpt><trkpt lat="44.91046684555977" lon="9.29249555392711"><ele>336.0</ele><time>2026-04-24T13:45:27.993Z</time></trkpt><trkpt lat="44.910528330791706" lon="9.292675071770153"><ele>336.0</ele><time>2026-04-24T13:45:28.993Z</time></trkpt><trkpt lat="44.91057360664567" lon="9.292871458845733"><ele>336.0</ele><time>2026-04-24T13:45:29.993Z</time></trkpt><trkpt lat="44.91060547597825" lon="9.29306847910892"><ele>336.0</ele><time>2026-04-24T13:45:30.993Z</time></trkpt><trkpt lat="44.910635035003416" lon="9.293273326426677"><ele>333.6666666666667</ele><time>2026-04-24T13:45:31.993Z</time></trkpt><trkpt lat="44.910665802516014" lon="9.293489439907399"><ele>331.33333333333337</ele><time>2026-04-24T13:45:32.993Z</time></trkpt><trkpt lat="44.910722749911045" lon="9.293699208304979"><ele>329.0</ele><time>2026-04-24T13:45:33.993Z</time></trkpt><trkpt lat="44.9107510120598" lon="9.293907546403048"><ele>329.33333333333337</ele><time>2026-04-24T13:45:34.993Z</time></trkpt><trkpt lat="44.91079070351753" lon="9.294121707087484"><ele>329.6666666666667</ele><time>2026-04-24T13:45:35.993Z</time></trkpt><trkpt lat="44.91082229672856" lon="9.294350425245343"><ele>330.0</ele><time>2026-04-24T13:45:36.993Z</time></trkpt><trkpt lat="44.91084726902399" lon="9.294557969670256"><ele>330.0</ele><time>2026-04-24T13:45:37.993Z</time></trkpt><trkpt lat="44.91089974387741" lon="9.294739641160565"><ele>330.0</ele><time>2026-04-24T13:45:38.993Z</time></trkpt><trkpt lat="44.91090786261114" lon="9.294938862233728"><ele>330.0</ele><time>2026-04-24T13:45:39.993Z</time></trkpt><trkpt lat="44.91093032358692" lon="9.295154991503441"><ele>330.0</ele><time>2026-04-24T13:45:40.993Z</time></trkpt><trkpt lat="44.91093239026851" lon="9.29535647973783"><ele>328.75</ele><time>2026-04-24T13:45:41.993Z</time></trkpt><trkpt lat="44.91092518234015" lon="9.295559564874651"><ele>327.5</ele><time>2026-04-24T13:45:42.993Z</time></trkpt><trkpt lat="44.910930195645605" lon="9.2957580528959"><ele>326.25</ele><time>2026-04-24T13:45:43.993Z</time></trkpt><trkpt lat="44.91090681723286" lon="9.29592168565376"><ele>325.0</ele><time>2026-04-24T13:45:44.993Z</time></trkpt><trkpt lat="44.91083040842894" lon="9.296101069692437"><ele>325.0</ele><time>2026-04-24T13:45:45.993Z</time></trkpt><trkpt lat="44.91075116869151" lon="9.29623811807806"><ele>325.0</ele><time>2026-04-24T13:45:46.993Z</time></trkpt><trkpt lat="44.91068304297979" lon="9.296397474064083"><ele>325.0</ele><time>2026-04-24T13:45:47.993Z</time></trkpt><trkpt lat="44.91063364834836" lon="9.296541448973533"><ele>325.0</ele><time>2026-04-24T13:45:48.993Z</time></trkpt><trkpt lat="44.91063209697702" lon="9.296700049468686"><ele>325.0</ele><time>2026-04-24T13:45:49.993Z</time></trkpt><trkpt lat="44.91065300538001" lon="9.296869312209832"><ele>325.0</ele><time>2026-04-24T13:45:50.993Z</time></trkpt><trkpt lat="44.91066398156164" lon="9.297052696275362"><ele>325.0</ele><time>2026-04-24T13:45:51.993Z</time></trkpt><trkpt lat="44.910752858121086" lon="9.297141678370545"><ele>325.0</ele><time>2026-04-24T13:45:52.993Z</time></trkpt><trkpt lat="44.910856780094" lon="9.297230465204345"><ele>325.25</ele><time>2026-04-24T13:45:53.993Z</time></trkpt><trkpt lat="44.91097918019044" lon="9.297290074291741"><ele>325.5</ele><time>2026-04-24T13:45:54.993Z</time></trkpt><trkpt lat="44.9110764658496" lon="9.297383582006855"><ele>325.75</ele><time>2026-04-24T13:45:55.993Z</time></trkpt><trkpt lat="44.91117678192845" lon="9.29748477045163"><ele>326.0</ele><time>2026-04-24T13:45:56.993Z</time></trkpt><trkpt lat="44.91128037027454" lon="9.297564961344907"><ele>326.0</ele><time>2026-04-24T13:45:57.993Z</time></trkpt><trkpt lat="44.91138413015916" lon="9.297649113825427"><ele>326.0</ele><time>2026-04-24T13:45:58.993Z</time></trkpt><trkpt lat="44.911461739452996" lon="9.297742449122934"><ele>326.0</ele><time>2026-04-24T13:45:59.993Z</time></trkpt><trkpt lat="44.911527284155426" lon="9.297826343467147"><ele>326.0</ele><time>2026-04-24T13:46:00.993Z</time></trkpt><trkpt lat="44.91158270455463" lon="9.297869801299143"><ele>326.0</ele><time>2026-04-24T13:46:01.993Z</time></trkpt><trkpt lat="44.91164678042962" lon="9.297949010314325"><ele>326.0</ele><time>2026-04-24T13:46:03.993Z</time></trkpt><trkpt lat="44.91169647761352" lon="9.298009112167113"><ele>326.0</ele><time>2026-04-24T13:46:07.993Z</time></trkpt><trkpt lat="44.91170368667313" lon="9.29787127854022"><ele>326.0</ele><time>2026-04-24T13:46:10.993Z</time></trkpt><trkpt lat="44.91171146413028" lon="9.297729214607354"><ele>326.0</ele><time>2026-04-24T13:46:11.993Z</time></trkpt><trkpt lat="44.91166399916354" lon="9.2976417375679"><ele>326.0</ele><time>2026-04-24T13:46:12.993Z</time></trkpt><trkpt lat="44.91160183460051" lon="9.29758064268055"><ele>326.0</ele><time>2026-04-24T13:46:13.993Z</time></trkpt><trkpt lat="44.911538724611155" lon="9.297498358967667"><ele>326.0</ele><time>2026-04-24T13:46:14.993Z</time></trkpt><trkpt lat="44.91147084938921" lon="9.297406640707175"><ele>326.0</ele><time>2026-04-24T13:46:15.993Z</time></trkpt><trkpt lat="44.911393796492625" lon="9.297336951825411"><ele>326.0</ele><time>2026-04-24T13:46:16.992Z</time></trkpt><trkpt lat="44.9113458807347" lon="9.29721438476028"><ele>326.0</ele><time>2026-04-24T13:46:17.992Z</time></trkpt><trkpt lat="44.91128018728923" lon="9.297131978383055"><ele>326.0</ele><time>2026-04-24T13:46:18.992Z</time></trkpt><trkpt lat="44.91120439303561" lon="9.297020632078965"><ele>328.0</ele><time>2026-04-24T13:46:19.992Z</time></trkpt><trkpt lat="44.91116225499169" lon="9.296914266916893"><ele>330.0</ele><time>2026-04-24T13:46:20.992Z</time></trkpt><trkpt lat="44.9111159529985" lon="9.296827514761533"><ele>332.0</ele><time>2026-04-24T13:46:21.992Z</time></trkpt><trkpt lat="44.91108091795577" lon="9.296732073189816"><ele>334.0</ele><time>2026-04-24T13:46:22.992Z</time></trkpt><trkpt lat="44.91106061426074" lon="9.296601646876276"><ele>336.0</ele><time>2026-04-24T13:46:23.999Z</time></trkpt><trkpt lat="44.91108151279708" lon="9.296459124348393"><ele>338.0</ele><time>2026-04-24T13:46:24.999Z</time></trkpt><trkpt lat="44.911164490249504" lon="9.29641270588235"><ele>338.75</ele><time>2026-04-24T13:46:25.999Z</time></trkpt><trkpt lat="44.91126549351022" lon="9.296355451142404"><ele>339.5</ele><time>2026-04-24T13:46:26.999Z</time></trkpt><trkpt lat="44.911383766128814" lon="9.296298820061047"><ele>340.25</ele><time>2026-04-24T13:46:27.999Z</time></trkpt><trkpt lat="44.91150075197195" lon="9.296231675498554"><ele>341.0</ele><time>2026-04-24T13:46:28.999Z</time></trkpt><trkpt lat="44.91161530502605" lon="9.29615846547814"><ele>341.0</ele><time>2026-04-24T13:46:29.999Z</time></trkpt><trkpt lat="44.911695852410766" lon="9.29605855854484"><ele>341.0</ele><time>2026-04-24T13:46:30.999Z</time></trkpt><trkpt lat="44.91171201469465" lon="9.295960469404474"><ele>341.0</ele><time>2026-04-24T13:46:31.999Z</time></trkpt><trkpt lat="44.91164420371986" lon="9.295797108557977"><ele>341.0</ele><time>2026-04-24T13:46:32.999Z</time></trkpt><trkpt lat="44.91158206079721" lon="9.29564716831083"><ele>341.0</ele><time>2026-04-24T13:46:33.999Z</time></trkpt><trkpt lat="44.91155203259507" lon="9.295516806205747"><ele>341.0</ele><time>2026-04-24T13:46:34.999Z</time></trkpt><trkpt lat="44.9115633707325" lon="9.295411583804617"><ele>341.0</ele><time>2026-04-24T13:46:35.999Z</time></trkpt><trkpt lat="44.91167004039517" lon="9.295433619956817"><ele>341.0</ele><time>2026-04-24T13:46:37.999Z</time></trkpt><trkpt lat="44.91171590429736" lon="9.295534612637619"><ele>341.0</ele><time>2026-04-24T13:46:38.999Z</time></trkpt><trkpt lat="44.911772463113095" lon="9.295647514279501"><ele>341.0</ele><time>2026-04-24T13:46:39.999Z</time></trkpt><trkpt lat="44.91182954754249" lon="9.295771420496576"><ele>344.0</ele><time>2026-04-24T13:46:40.999Z</time></trkpt><trkpt lat="44.91189356583234" lon="9.295892622753007"><ele>347.0</ele><time>2026-04-24T13:46:41.999Z</time></trkpt><trkpt lat="44.9119542719857" lon="9.296018154522052"><ele>350.0</ele><time>2026-04-24T13:46:42.999Z</time></trkpt><trkpt lat="44.91201769151552" lon="9.296097624562856"><ele>353.0</ele><time>2026-04-24T13:46:43.999Z</time></trkpt><trkpt lat="44.91205586477464" lon="9.296207180858254"><ele>356.0</ele><time>2026-04-24T13:46:44.999Z</time></trkpt><trkpt lat="44.91214219525369" lon="9.296298832546091"><ele>356.0</ele><time>2026-04-24T13:46:45.999Z</time></trkpt><trkpt lat="44.91222141343165" lon="9.296371823303883"><ele>356.0</ele><time>2026-04-24T13:46:46.999Z</time></trkpt><trkpt lat="44.912302697858806" lon="9.296400161532704"><ele>356.0</ele><time>2026-04-24T13:46:47.999Z</time></trkpt><trkpt lat="44.912356909057294" lon="9.296339391799389"><ele>356.0</ele><time>2026-04-24T13:46:48.999Z</time></trkpt><trkpt lat="44.91239154859934" lon="9.296248954650945"><ele>356.0</ele><time>2026-04-24T13:46:49.999Z</time></trkpt><trkpt lat="44.91237847691221" lon="9.29615755367214"><ele>356.0</ele><time>2026-04-24T13:46:50.999Z</time></trkpt><trkpt lat="44.912295834595646" lon="9.29600113973561"><ele>356.0</ele><time>2026-04-24T13:46:51.999Z</time></trkpt><trkpt lat="44.91223737072169" lon="9.295876891711128"><ele>356.0</ele><time>2026-04-24T13:46:52.999Z</time></trkpt><trkpt lat="44.91218591541664" lon="9.295775631672308"><ele>356.0</ele><time>2026-04-24T13:46:53.999Z</time></trkpt><trkpt lat="44.9121373572556" lon="9.29568630743026"><ele>356.0</ele><time>2026-04-24T13:46:54.999Z</time></trkpt><trkpt lat="44.91208472591988" lon="9.29556715670219"><ele>356.0</ele><time>2026-04-24T13:46:55.999Z</time></trkpt><trkpt lat="44.91207613317521" lon="9.295452025952978"><ele>356.8</ele><time>2026-04-24T13:46:56.999Z</time></trkpt><trkpt lat="44.91204840651771" lon="9.295353195782676"><ele>357.6</ele><time>2026-04-24T13:46:57.999Z</time></trkpt><trkpt lat="44.91200366400866" lon="9.295258715565637"><ele>358.4</ele><time>2026-04-24T13:46:58.999Z</time></trkpt><trkpt lat="44.912089871175766" lon="9.2951941053671"><ele>359.2</ele><time>2026-04-24T13:47:00.999Z</time></trkpt><trkpt lat="44.91217273636998" lon="9.295278170996372"><ele>360.0</ele><time>2026-04-24T13:47:01.999Z</time></trkpt><trkpt lat="44.91223081982911" lon="9.29540291704112"><ele>360.0</ele><time>2026-04-24T13:47:02.999Z</time></trkpt><trkpt lat="44.912292070926185" lon="9.295507741635127"><ele>360.0</ele><time>2026-04-24T13:47:03.999Z</time></trkpt><trkpt lat="44.91232847767443" lon="9.295632492097276"><ele>360.0</ele><time>2026-04-24T13:47:04.999Z</time></trkpt><trkpt lat="44.912379649547354" lon="9.295714991825289"><ele>360.0</ele><time>2026-04-24T13:47:05.999Z</time></trkpt><trkpt lat="44.912429024014315" lon="9.29578796546658"><ele>360.0</ele><time>2026-04-24T13:47:06.999Z</time></trkpt><trkpt lat="44.91248430382616" lon="9.295853689186387"><ele>360.0</ele><time>2026-04-24T13:47:07.999Z</time></trkpt><trkpt lat="44.91257134809226" lon="9.295921930493032"><ele>360.6</ele><time>2026-04-24T13:47:09.999Z</time></trkpt><trkpt lat="44.91266173612542" lon="9.295960892955154"><ele>361.2</ele><time>2026-04-24T13:47:10.999Z</time></trkpt><trkpt lat="44.91276097277773" lon="9.295924864017055"><ele>361.79999999999995</ele><time>2026-04-24T13:47:11.999Z</time></trkpt><trkpt lat="44.91279022638718" lon="9.295832221530707"><ele>362.4</ele><time>2026-04-24T13:47:12.999Z</time></trkpt><trkpt lat="44.9127581422108" lon="9.295690757454429"><ele>363.0</ele><time>2026-04-24T13:47:13.999Z</time></trkpt><trkpt lat="44.91270344538056" lon="9.295579645989822"><ele>362.5</ele><time>2026-04-24T13:47:14.999Z</time></trkpt><trkpt lat="44.9126330762593" lon="9.295480825234918"><ele>362.0</ele><time>2026-04-24T13:47:15.999Z</time></trkpt><trkpt lat="44.91256410564835" lon="9.29538624650009"><ele>361.5</ele><time>2026-04-24T13:47:16.999Z</time></trkpt><trkpt lat="44.9125116260073" lon="9.295282984672273"><ele>361.0</ele><time>2026-04-24T13:47:17.999Z</time></trkpt><trkpt lat="44.91247840287625" lon="9.295177440786786"><ele>360.5</ele><time>2026-04-24T13:47:18.999Z</time></trkpt><trkpt lat="44.91246176775481" lon="9.295081794687224"><ele>360.0</ele><time>2026-04-24T13:47:19.999Z</time></trkpt><trkpt lat="44.91245280297648" lon="9.29494768699191"><ele>360.0</ele><time>2026-04-24T13:47:20.999Z</time></trkpt><trkpt lat="44.91250359807384" lon="9.294859622343061"><ele>360.0</ele><time>2026-04-24T13:47:21.999Z</time></trkpt><trkpt lat="44.91255280517947" lon="9.29477162167507"><ele>360.0</ele><time>2026-04-24T13:47:22.999Z</time></trkpt><trkpt lat="44.9126031133547" lon="9.294686949152977"><ele>360.0</ele><time>2026-04-24T13:47:23.999Z</time></trkpt><trkpt lat="44.91265733162848" lon="9.294589295989894"><ele>360.0</ele><time>2026-04-24T13:47:24.999Z</time></trkpt><trkpt lat="44.91271206767195" lon="9.294503882977077"><ele>360.0</ele><time>2026-04-24T13:47:25.999Z</time></trkpt><trkpt lat="44.91275648296996" lon="9.294438957529483"><ele>362.6</ele><time>2026-04-24T13:47:26.999Z</time></trkpt><trkpt lat="44.91286301489675" lon="9.294454773289255"><ele>365.2</ele><time>2026-04-24T13:47:28.999Z</time></trkpt><trkpt lat="44.91289784945435" lon="9.294650943243504"><ele>367.79999999999995</ele><time>2026-04-24T13:47:30.999Z</time></trkpt><trkpt lat="44.91286148769765" lon="9.294762994442515"><ele>370.4</ele><time>2026-04-24T13:47:31.999Z</time></trkpt><trkpt lat="44.91284321855687" lon="9.294896905248311"><ele>373.0</ele><time>2026-04-24T13:47:32.999Z</time></trkpt><trkpt lat="44.91280497654665" lon="9.295009474491078"><ele>373.0</ele><time>2026-04-24T13:47:33.999Z</time></trkpt><trkpt lat="44.91279867695081" lon="9.295109661137126"><ele>373.0</ele><time>2026-04-24T13:47:34.999Z</time></trkpt><trkpt lat="44.912809988559985" lon="9.295257242399463"><ele>373.0</ele><time>2026-04-24T13:47:35.999Z</time></trkpt><trkpt lat="44.91286646552842" lon="9.295338117342077"><ele>373.0</ele><time>2026-04-24T13:47:36.999Z</time></trkpt><trkpt lat="44.91293139620038" lon="9.295394188578681"><ele>373.0</ele><time>2026-04-24T13:47:37.998Z</time></trkpt><trkpt lat="44.91300259234267" lon="9.29538245576441"><ele>373.0</ele><time>2026-04-24T13:47:38.998Z</time></trkpt><trkpt lat="44.91306686263808" lon="9.295344398802722"><ele>373.0</ele><time>2026-04-24T13:47:39.998Z</time></trkpt><trkpt lat="44.91308952283419" lon="9.295255257036196"><ele>373.0</ele><time>2026-04-24T13:47:40.998Z</time></trkpt><trkpt lat="44.91308371690067" lon="9.295160422734423"><ele>373.0</ele><time>2026-04-24T13:47:41.998Z</time></trkpt><trkpt lat="44.91307330870503" lon="9.29506273566987"><ele>373.0</ele><time>2026-04-24T13:47:42.998Z</time></trkpt><trkpt lat="44.91305776766937" lon="9.294956994282769"><ele>373.0</ele><time>2026-04-24T13:47:43.998Z</time></trkpt><trkpt lat="44.913072780517204" lon="9.29485498665429"><ele>373.0</ele><time>2026-04-24T13:47:44.998Z</time></trkpt><trkpt lat="44.91311962569868" lon="9.294762518301715"><ele>373.0</ele><time>2026-04-24T13:47:45.998Z</time></trkpt><trkpt lat="44.913189090138204" lon="9.294745845915928"><ele>373.0</ele><time>2026-04-24T13:47:46.998Z</time></trkpt><trkpt lat="44.913263398914644" lon="9.294775002528029"><ele>373.0</ele><time>2026-04-24T13:47:47.998Z</time></trkpt><trkpt lat="44.913344861332384" lon="9.294813768498363"><ele>373.0</ele><time>2026-04-24T13:47:48.998Z</time></trkpt><trkpt lat="44.91343390467905" lon="9.29485653010974"><ele>373.0</ele><time>2026-04-24T13:47:49.998Z</time></trkpt><trkpt lat="44.91351976410403" lon="9.294908855499335"><ele>373.0</ele><time>2026-04-24T13:47:50.999Z</time></trkpt><trkpt lat="44.91360486129804" lon="9.294972008743047"><ele>373.0</ele><time>2026-04-24T13:47:51.999Z</time></trkpt><trkpt lat="44.91369206397685" lon="9.295040880932087"><ele>374.8333333333333</ele><time>2026-04-24T13:47:52.999Z</time></trkpt><trkpt lat="44.91377926176613" lon="9.295106743067437"><ele>376.66666666666663</ele><time>2026-04-24T13:47:53.999Z</time></trkpt><trkpt lat="44.913855081688816" lon="9.295153156692205"><ele>378.5</ele><time>2026-04-24T13:47:54.999Z</time></trkpt><trkpt lat="44.913957355058926" lon="9.295185272965377"><ele>380.3333333333333</ele><time>2026-04-24T13:47:56.999Z</time></trkpt><trkpt lat="44.91401490192227" lon="9.295111380442133"><ele>382.1666666666667</ele><time>2026-04-24T13:47:58.999Z</time></trkpt><trkpt lat="44.91398486759055" lon="9.295031860806112"><ele>384.0</ele><time>2026-04-24T13:47:59.999Z</time></trkpt><trkpt lat="44.913924115836096" lon="9.294948366164908"><ele>384.0</ele><time>2026-04-24T13:48:00.999Z</time></trkpt><trkpt lat="44.91384395170002" lon="9.294874111350826"><ele>384.0</ele><time>2026-04-24T13:48:01.999Z</time></trkpt><trkpt lat="44.913772215202115" lon="9.294789857432306"><ele>384.0</ele><time>2026-04-24T13:48:02.999Z</time></trkpt><trkpt lat="44.913709709285094" lon="9.294712463361131"><ele>384.0</ele><time>2026-04-24T13:48:03.999Z</time></trkpt><trkpt lat="44.91365453425979" lon="9.294639420339006"><ele>384.0</ele><time>2026-04-24T13:48:04.999Z</time></trkpt><trkpt lat="44.913612679750806" lon="9.29455137135256"><ele>384.0</ele><time>2026-04-24T13:48:05.999Z</time></trkpt><trkpt lat="44.91359850467532" lon="9.29444978622006"><ele>385.5</ele><time>2026-04-24T13:48:06.999Z</time></trkpt><trkpt lat="44.91363062813301" lon="9.294372255651977"><ele>387.0</ele><time>2026-04-24T13:48:07.999Z</time></trkpt><trkpt lat="44.91372654795904" lon="9.294341038146296"><ele>388.5</ele><time>2026-04-24T13:48:09.999Z</time></trkpt><trkpt lat="44.91378149944523" lon="9.294413108897897"><ele>390.0</ele><time>2026-04-24T13:48:10.999Z</time></trkpt><trkpt lat="44.91384020770777" lon="9.294487631283824"><ele>391.5</ele><time>2026-04-24T13:48:11.999Z</time></trkpt><trkpt lat="44.91391339121189" lon="9.29452674835442"><ele>393.0</ele><time>2026-04-24T13:48:12.999Z</time></trkpt><trkpt lat="44.914002161691144" lon="9.294529851132468"><ele>393.0</ele><time>2026-04-24T13:48:13.999Z</time></trkpt><trkpt lat="44.9140988189626" lon="9.294551957339118"><ele>393.0</ele><time>2026-04-24T13:48:14.999Z</time></trkpt><trkpt lat="44.914193092000616" lon="9.29460762236429"><ele>393.0</ele><time>2026-04-24T13:48:15.999Z</time></trkpt><trkpt lat="44.914277941652806" lon="9.2946802477726"><ele>393.0</ele><time>2026-04-24T13:48:16.999Z</time></trkpt><trkpt lat="44.91436638985086" lon="9.29473602658382"><ele>393.0</ele><time>2026-04-24T13:48:17.999Z</time></trkpt><trkpt lat="44.91445869219815" lon="9.294755497213226"><ele>393.1666666666667</ele><time>2026-04-24T13:48:18.999Z</time></trkpt><trkpt lat="44.914550007406696" lon="9.294749750883662"><ele>393.33333333333337</ele><time>2026-04-24T13:48:19.999Z</time></trkpt><trkpt lat="44.91463875986795" lon="9.294721134312228"><ele>393.5</ele><time>2026-04-24T13:48:20.999Z</time></trkpt><trkpt lat="44.914727873292584" lon="9.294711876097903"><ele>393.6666666666667</ele><time>2026-04-24T13:48:21.999Z</time></trkpt><trkpt lat="44.91480907800546" lon="9.29473294369764"><ele>393.83333333333337</ele><time>2026-04-24T13:48:22.999Z</time></trkpt><trkpt lat="44.91487630485085" lon="9.29477372168783"><ele>394.0</ele><time>2026-04-24T13:48:23.999Z</time></trkpt><trkpt lat="44.91493512178723" lon="9.294817125313983"><ele>396.0</ele><time>2026-04-24T13:48:24.999Z</time></trkpt><trkpt lat="44.91503771492477" lon="9.294751032308707"><ele>398.0</ele><time>2026-04-24T13:48:26.999Z</time></trkpt><trkpt lat="44.915059353847134" lon="9.294598213336771"><ele>400.0</ele><time>2026-04-24T13:48:28.999Z</time></trkpt><trkpt lat="44.91500198243363" lon="9.294553850194719"><ele>402.0</ele><time>2026-04-24T13:48:29.999Z</time></trkpt><trkpt lat="44.914927535833264" lon="9.294504206078187"><ele>404.0</ele><time>2026-04-24T13:48:30.999Z</time></trkpt><trkpt lat="44.91485117639779" lon="9.29446657080509"><ele>403.99999999999994</ele><time>2026-04-24T13:48:31.999Z</time></trkpt><trkpt lat="44.914776879028295" lon="9.294423566240622"><ele>404.0</ele><time>2026-04-24T13:48:32.999Z</time></trkpt><trkpt lat="44.914706183341984" lon="9.294381233836674"><ele>404.0</ele><time>2026-04-24T13:48:33.999Z</time></trkpt><trkpt lat="44.91463548095728" lon="9.294337980186757"><ele>404.0</ele><time>2026-04-24T13:48:34.998Z</time></trkpt><trkpt lat="44.91457915999281" lon="9.294284401615606"><ele>403.99999999999994</ele><time>2026-04-24T13:48:35.998Z</time></trkpt><trkpt lat="44.914537724833096" lon="9.29414283059946"><ele>404.0</ele><time>2026-04-24T13:48:37.998Z</time></trkpt><trkpt lat="44.91462389692294" lon="9.294046141810298"><ele>403.99999999999994</ele><time>2026-04-24T13:48:39.998Z</time></trkpt><trkpt lat="44.91469351780711" lon="9.294071961072193"><ele>404.0</ele><time>2026-04-24T13:48:40.998Z</time></trkpt><trkpt lat="44.91477264696394" lon="9.294115573495157"><ele>404.0</ele><time>2026-04-24T13:48:41.998Z</time></trkpt><trkpt lat="44.914859045152944" lon="9.294156630418032"><ele>404.0</ele><time>2026-04-24T13:48:42.998Z</time></trkpt><trkpt lat="44.91495015646113" lon="9.2941936146211"><ele>403.99999999999994</ele><time>2026-04-24T13:48:43.998Z</time></trkpt><trkpt lat="44.91503364462739" lon="9.294228714720084"><ele>404.0</ele><time>2026-04-24T13:48:44.998Z</time></trkpt><trkpt lat="44.915109758229086" lon="9.294264872712194"><ele>404.42857142857144</ele><time>2026-04-24T13:48:45.998Z</time></trkpt><trkpt lat="44.915184654604175" lon="9.294299457871706"><ele>404.85714285714283</ele><time>2026-04-24T13:48:46.998Z</time></trkpt><trkpt lat="44.915258459155794" lon="9.294315347741474"><ele>405.28571428571433</ele><time>2026-04-24T13:48:47.998Z</time></trkpt><trkpt lat="44.915330283174804" lon="9.294310764898265"><ele>405.7142857142857</ele><time>2026-04-24T13:48:48.998Z</time></trkpt><trkpt lat="44.915379618951896" lon="9.29425283213317"><ele>406.14285714285717</ele><time>2026-04-24T13:48:49.998Z</time></trkpt><trkpt lat="44.91540045393422" lon="9.29415566751644"><ele>406.5714285714286</ele><time>2026-04-24T13:48:50.998Z</time></trkpt><trkpt lat="44.915374187360996" lon="9.294053049153113"><ele>407.0</ele><time>2026-04-24T13:48:51.998Z</time></trkpt><trkpt lat="44.91534788647621" lon="9.293940112467483"><ele>408.99999999999994</ele><time>2026-04-24T13:48:52.998Z</time></trkpt><trkpt lat="44.915347211624194" lon="9.29381728186904"><ele>411.0</ele><time>2026-04-24T13:48:53.998Z</time></trkpt><trkpt lat="44.91536643214664" lon="9.293690170164924"><ele>413.0</ele><time>2026-04-24T13:48:54.998Z</time></trkpt><trkpt lat="44.91538230486564" lon="9.293563560385337"><ele>415.0</ele><time>2026-04-24T13:48:55.998Z</time></trkpt><trkpt lat="44.915387511350275" lon="9.293442849737035"><ele>416.99999999999994</ele><time>2026-04-24T13:48:56.998Z</time></trkpt><trkpt lat="44.91539671279768" lon="9.293333652224163"><ele>419.0</ele><time>2026-04-24T13:48:57.998Z</time></trkpt><trkpt lat="44.91541060600914" lon="9.293232993250728"><ele>418.99999999999994</ele><time>2026-04-24T13:48:58.998Z</time></trkpt><trkpt lat="44.91541373245008" lon="9.293121084814146"><ele>419.0</ele><time>2026-04-24T13:48:59.998Z</time></trkpt><trkpt lat="44.915466765725554" lon="9.293068494455644"><ele>419.0</ele><time>2026-04-24T13:49:00.998Z</time></trkpt><trkpt lat="44.91558756191414" lon="9.293098915925254"><ele>419.0</ele><time>2026-04-24T13:49:02.998Z</time></trkpt><trkpt lat="44.91565692855342" lon="9.293166423916421"><ele>418.99999999999994</ele><time>2026-04-24T13:49:03.998Z</time></trkpt><trkpt lat="44.91572606311524" lon="9.29323810910165"><ele>419.0</ele><time>2026-04-24T13:49:04.998Z</time></trkpt><trkpt lat="44.91579202365231" lon="9.293315955694508"><ele>419.0</ele><time>2026-04-24T13:49:05.998Z</time></trkpt><trkpt lat="44.91586688788492" lon="9.293381169018655"><ele>419.0</ele><time>2026-04-24T13:49:06.998Z</time></trkpt><trkpt lat="44.9159518181268" lon="9.293423152012945"><ele>419.0</ele><time>2026-04-24T13:49:07.998Z</time></trkpt><trkpt lat="44.916041224884474" lon="9.293452455559196"><ele>419.0</ele><time>2026-04-24T13:49:08.998Z</time></trkpt><trkpt lat="44.91613546162812" lon="9.29347199113115"><ele>419.0</ele><time>2026-04-24T13:49:09.998Z</time></trkpt><trkpt lat="44.91622734176698" lon="9.29349040524419"><ele>420.66666666666663</ele><time>2026-04-24T13:49:10.998Z</time></trkpt><trkpt lat="44.91631773109615" lon="9.293516144800378"><ele>422.3333333333333</ele><time>2026-04-24T13:49:11.998Z</time></trkpt><trkpt lat="44.91640427346362" lon="9.293539030984636"><ele>424.0</ele><time>2026-04-24T13:49:12.998Z</time></trkpt><trkpt lat="44.91648058765418" lon="9.293555477739153"><ele>425.66666666666663</ele><time>2026-04-24T13:49:13.998Z</time></trkpt><trkpt lat="44.91655036524807" lon="9.293553930829797"><ele>427.3333333333333</ele><time>2026-04-24T13:49:14.998Z</time></trkpt><trkpt lat="44.91660755896202" lon="9.293509970017437"><ele>429.0</ele><time>2026-04-24T13:49:15.998Z</time></trkpt><trkpt lat="44.91664898936845" lon="9.293437963670135"><ele>429.0</ele><time>2026-04-24T13:49:16.998Z</time></trkpt><trkpt lat="44.9166557741998" lon="9.293342871985208"><ele>429.0</ele><time>2026-04-24T13:49:17.998Z</time></trkpt><trkpt lat="44.9166134428279" lon="9.293265463494363"><ele>429.0</ele><time>2026-04-24T13:49:18.998Z</time></trkpt><trkpt lat="44.91656336999498" lon="9.293188700675604"><ele>429.0</ele><time>2026-04-24T13:49:19.998Z</time></trkpt><trkpt lat="44.91651826886928" lon="9.293104356069852"><ele>429.0</ele><time>2026-04-24T13:49:20.998Z</time></trkpt><trkpt lat="44.916480032505866" lon="9.293012196327037"><ele>429.0</ele><time>2026-04-24T13:49:21.998Z</time></trkpt><trkpt lat="44.916451399382574" lon="9.29289891567804"><ele>429.0</ele><time>2026-04-24T13:49:22.998Z</time></trkpt><trkpt lat="44.916439404315504" lon="9.292759875262803"><ele>431.0</ele><time>2026-04-24T13:49:23.998Z</time></trkpt><trkpt lat="44.916434283272274" lon="9.292612015538383"><ele>433.0</ele><time>2026-04-24T13:49:24.998Z</time></trkpt><trkpt lat="44.91642417321292" lon="9.29246781612758"><ele>435.0</ele><time>2026-04-24T13:49:25.998Z</time></trkpt><trkpt lat="44.91639937704861" lon="9.292329155625875"><ele>437.0</ele><time>2026-04-24T13:49:26.998Z</time></trkpt><trkpt lat="44.91638899916744" lon="9.292194511401473"><ele>439.0</ele><time>2026-04-24T13:49:27.998Z</time></trkpt><trkpt lat="44.91638647102075" lon="9.292063190462658"><ele>440.33333333333337</ele><time>2026-04-24T13:49:28.997Z</time></trkpt><trkpt lat="44.91632698933735" lon="9.291956622652926"><ele>441.6666666666667</ele><time>2026-04-24T13:49:29.997Z</time></trkpt><trkpt lat="44.91626136168809" lon="9.291860457216922"><ele>443.0</ele><time>2026-04-24T13:49:30.997Z</time></trkpt><trkpt lat="44.916204998962264" lon="9.291779289479615"><ele>444.33333333333337</ele><time>2026-04-24T13:49:31.997Z</time></trkpt><trkpt lat="44.916166093342696" lon="9.2916983202283"><ele>445.6666666666667</ele><time>2026-04-24T13:49:32.997Z</time></trkpt><trkpt lat="44.916130888186146" lon="9.291620474763306"><ele>447.0</ele><time>2026-04-24T13:49:33.997Z</time></trkpt><trkpt lat="44.91616177803325" lon="9.291512049046663"><ele>447.0</ele><time>2026-04-24T13:49:34.997Z</time></trkpt><trkpt lat="44.91623318947491" lon="9.291548836309575"><ele>447.00000000000006</ele><time>2026-04-24T13:49:35.997Z</time></trkpt><trkpt lat="44.91629819313409" lon="9.291596545938257"><ele>447.00000000000006</ele><time>2026-04-24T13:49:36.997Z</time></trkpt><trkpt lat="44.91636080748454" lon="9.291676219067723"><ele>447.0</ele><time>2026-04-24T13:49:37.997Z</time></trkpt><trkpt lat="44.91643667984606" lon="9.2917733115115"><ele>447.0</ele><time>2026-04-24T13:49:38.997Z</time></trkpt><trkpt lat="44.91652474174987" lon="9.291884396353801"><ele>447.0</ele><time>2026-04-24T13:49:39.997Z</time></trkpt><trkpt lat="44.916605344519326" lon="9.292018422924377"><ele>447.0</ele><time>2026-04-24T13:49:40.997Z</time></trkpt><trkpt lat="44.91669472541263" lon="9.292142951993233"><ele>447.0</ele><time>2026-04-24T13:49:41.997Z</time></trkpt><trkpt lat="44.91678339656999" lon="9.292262891402729"><ele>447.0</ele><time>2026-04-24T13:49:42.997Z</time></trkpt><trkpt lat="44.91686903758839" lon="9.292376124186656"><ele>447.8</ele><time>2026-04-24T13:49:43.997Z</time></trkpt><trkpt lat="44.91694834546554" lon="9.29248098300211"><ele>448.6</ele><time>2026-04-24T13:49:44.997Z</time></trkpt><trkpt lat="44.917025937019666" lon="9.29257178976076"><ele>449.40000000000003</ele><time>2026-04-24T13:49:45.997Z</time></trkpt><trkpt lat="44.91709625838072" lon="9.292626904973261"><ele>450.20000000000005</ele><time>2026-04-24T13:49:46.997Z</time></trkpt><trkpt lat="44.91720842325501" lon="9.292614266564541"><ele>451.0</ele><time>2026-04-24T13:49:48.997Z</time></trkpt><trkpt lat="44.917240394671275" lon="9.292531608234478"><ele>451.0</ele><time>2026-04-24T13:49:49.997Z</time></trkpt><trkpt lat="44.91721987828643" lon="9.292428159589338"><ele>451.0</ele><time>2026-04-24T13:49:50.997Z</time></trkpt><trkpt lat="44.917161180916466" lon="9.292300730893146"><ele>451.0</ele><time>2026-04-24T13:49:51.997Z</time></trkpt><trkpt lat="44.91709680688381" lon="9.292132871398795"><ele>451.0</ele><time>2026-04-24T13:49:52.997Z</time></trkpt><trkpt lat="44.91701935040052" lon="9.291959477279985"><ele>453.25</ele><time>2026-04-24T13:49:53.997Z</time></trkpt><trkpt lat="44.91694750643674" lon="9.291774850448316"><ele>455.5</ele><time>2026-04-24T13:49:54.997Z</time></trkpt><trkpt lat="44.91688743724087" lon="9.291597397439189"><ele>457.75</ele><time>2026-04-24T13:49:55.997Z</time></trkpt><trkpt lat="44.91686022634342" lon="9.291418323360366"><ele>460.0</ele><time>2026-04-24T13:49:56.997Z</time></trkpt><trkpt lat="44.916829200605974" lon="9.291248423609261"><ele>461.25</ele><time>2026-04-24T13:49:57.997Z</time></trkpt><trkpt lat="44.916787140713545" lon="9.291078020750176"><ele>462.5</ele><time>2026-04-24T13:49:58.997Z</time></trkpt><trkpt lat="44.916762698209936" lon="9.290896254917111"><ele>463.75</ele><time>2026-04-24T13:49:59.997Z</time></trkpt><trkpt lat="44.916753681558404" lon="9.290715017018025"><ele>465.0</ele><time>2026-04-24T13:50:00.997Z</time></trkpt><trkpt lat="44.91674730354429" lon="9.290557932774709"><ele>465.0</ele><time>2026-04-24T13:50:01.997Z</time></trkpt><trkpt lat="44.91674896594301" lon="9.290422879387156"><ele>465.0</ele><time>2026-04-24T13:50:02.997Z</time></trkpt><trkpt lat="44.916749089521865" lon="9.290279812223726"><ele>465.0</ele><time>2026-04-24T13:50:03.997Z</time></trkpt><trkpt lat="44.916815898749995" lon="9.290188731851805"><ele>465.0</ele><time>2026-04-24T13:50:04.997Z</time></trkpt><trkpt lat="44.91688356009195" lon="9.29012628322996"><ele>465.0</ele><time>2026-04-24T13:50:05.997Z</time></trkpt><trkpt lat="44.91696338798221" lon="9.2901193741156"><ele>465.0</ele><time>2026-04-24T13:50:06.997Z</time></trkpt><trkpt lat="44.91704475452891" lon="9.29015231924661"><ele>465.0</ele><time>2026-04-24T13:50:07.997Z</time></trkpt><trkpt lat="44.917089229516" lon="9.290259273686878"><ele>465.0</ele><time>2026-04-24T13:50:08.997Z</time></trkpt><trkpt lat="44.91713066265205" lon="9.29038352476547"><ele>465.0</ele><time>2026-04-24T13:50:09.997Z</time></trkpt><trkpt lat="44.9171697630617" lon="9.290524814256777"><ele>465.0</ele><time>2026-04-24T13:50:10.997Z</time></trkpt><trkpt lat="44.91721048829068" lon="9.290671974991497"><ele>465.2</ele><time>2026-04-24T13:50:11.997Z</time></trkpt><trkpt lat="44.91725143613744" lon="9.290819646251817"><ele>465.4</ele><time>2026-04-24T13:50:12.997Z</time></trkpt><trkpt lat="44.91728899058638" lon="9.290960245488888"><ele>465.6</ele><time>2026-04-24T13:50:13.997Z</time></trkpt><trkpt lat="44.917333985527485" lon="9.291075262254976"><ele>465.8</ele><time>2026-04-24T13:50:14.997Z</time></trkpt><trkpt lat="44.9173939929103" lon="9.291172793920412"><ele>466.0</ele><time>2026-04-24T13:50:15.997Z</time></trkpt><trkpt lat="44.91746794003879" lon="9.291267844656181"><ele>466.0</ele><time>2026-04-24T13:50:16.997Z</time></trkpt><trkpt lat="44.91756687760399" lon="9.291324278021502"><ele>466.0</ele><time>2026-04-24T13:50:17.997Z</time></trkpt><trkpt lat="44.917681315144" lon="9.291353128504861"><ele>466.0</ele><time>2026-04-24T13:50:18.997Z</time></trkpt><trkpt lat="44.917808058297716" lon="9.291384718561543"><ele>466.0</ele><time>2026-04-24T13:50:19.997Z</time></trkpt><trkpt lat="44.91794992276057" lon="9.291440213612912"><ele>467.6666666666667</ele><time>2026-04-24T13:50:20.997Z</time></trkpt><trkpt lat="44.918107058389786" lon="9.291514390498838"><ele>469.33333333333337</ele><time>2026-04-24T13:50:21.997Z</time></trkpt><trkpt lat="44.91826293893538" lon="9.291596571803776"><ele>471.0</ele><time>2026-04-24T13:50:22.997Z</time></trkpt><trkpt lat="44.91840887779931" lon="9.291680696312408"><ele>473.25</ele><time>2026-04-24T13:50:23.997Z</time></trkpt><trkpt lat="44.9185481332228" lon="9.2917371912075"><ele>475.5</ele><time>2026-04-24T13:50:24.996Z</time></trkpt><trkpt lat="44.918685870320886" lon="9.291796578515367"><ele>477.75</ele><time>2026-04-24T13:50:25.996Z</time></trkpt><trkpt lat="44.91884033589947" lon="9.291772567431739"><ele>480.0</ele><time>2026-04-24T13:50:26.996Z</time></trkpt><trkpt lat="44.919004445359164" lon="9.291728073464068"><ele>480.0</ele><time>2026-04-24T13:50:27.996Z</time></trkpt><trkpt lat="44.91913462531326" lon="9.291696126815122"><ele>480.0</ele><time>2026-04-24T13:50:28.996Z</time></trkpt><trkpt lat="44.91922526748193" lon="9.29169007655542"><ele>480.0</ele><time>2026-04-24T13:50:29.996Z</time></trkpt><trkpt lat="44.91929437994402" lon="9.291654375626049"><ele>480.0</ele><time>2026-04-24T13:50:30.996Z</time></trkpt><trkpt lat="44.91938535511901" lon="9.29161312185307"><ele>480.0</ele><time>2026-04-24T13:50:31.996Z</time></trkpt><trkpt lat="44.919313809020224" lon="9.291483960034062"><ele>482.75</ele><time>2026-04-24T13:50:33.996Z</time></trkpt><trkpt lat="44.919195026913286" lon="9.291357167173665"><ele>485.5</ele><time>2026-04-24T13:50:34.996Z</time></trkpt><trkpt lat="44.919081175683694" lon="9.291299029302237"><ele>488.25</ele><time>2026-04-24T13:50:35.996Z</time></trkpt><trkpt lat="44.9189895365929" lon="9.291226884364645"><ele>491.0</ele><time>2026-04-24T13:50:36.996Z</time></trkpt><trkpt lat="44.91893231664306" lon="9.291105726712132"><ele>491.0</ele><time>2026-04-24T13:50:37.996Z</time></trkpt><trkpt lat="44.91890017988761" lon="9.290976242191961"><ele>491.0</ele><time>2026-04-24T13:50:38.996Z</time></trkpt><trkpt lat="44.91889081717016" lon="9.290812332280678"><ele>491.0</ele><time>2026-04-24T13:50:39.996Z</time></trkpt><trkpt lat="44.91888485591196" lon="9.29066239529314"><ele>491.0</ele><time>2026-04-24T13:50:40.996Z</time></trkpt><trkpt lat="44.91886405869336" lon="9.290510802346708"><ele>491.0</ele><time>2026-04-24T13:50:41.996Z</time></trkpt><trkpt lat="44.91886424979296" lon="9.290368847595127"><ele>490.8</ele><time>2026-04-24T13:50:42.996Z</time></trkpt><trkpt lat="44.91885339588154" lon="9.2902264553346"><ele>490.6</ele><time>2026-04-24T13:50:43.996Z</time></trkpt><trkpt lat="44.91884347252264" lon="9.290102683371751"><ele>490.4</ele><time>2026-04-24T13:50:44.996Z</time></trkpt><trkpt lat="44.918871437398984" lon="9.290005206664098"><ele>490.2</ele><time>2026-04-24T13:50:45.996Z</time></trkpt><trkpt lat="44.918938130926115" lon="9.289976255927282"><ele>490.0</ele><time>2026-04-24T13:50:46.996Z</time></trkpt><trkpt lat="44.91901586920288" lon="9.289848526670443"><ele>490.0</ele><time>2026-04-24T13:50:48.996Z</time></trkpt><trkpt lat="44.91906476437347" lon="9.289950622377626"><ele>490.0</ele><time>2026-04-24T13:50:49.996Z</time></trkpt><trkpt lat="44.919127684996695" lon="9.290224054059827"><ele>490.0</ele><time>2026-04-24T13:50:50.996Z</time></trkpt><trkpt lat="44.91918526415227" lon="9.290485228856323"><ele>491.5</ele><time>2026-04-24T13:50:51.996Z</time></trkpt><trkpt lat="44.91923427321963" lon="9.290705714517191"><ele>493.0</ele><time>2026-04-24T13:50:52.996Z</time></trkpt><trkpt lat="44.919334656715314" lon="9.290792320804801"><ele>494.5</ele><time>2026-04-24T13:50:53.996Z</time></trkpt><trkpt lat="44.919436673620226" lon="9.290813629676837"><ele>496.0</ele><time>2026-04-24T13:50:54.996Z</time></trkpt><trkpt lat="44.91954167830374" lon="9.29084535376984"><ele>496.0</ele><time>2026-04-24T13:50:55.996Z</time></trkpt><trkpt lat="44.91962964763654" lon="9.290823971336184"><ele>496.0</ele><time>2026-04-24T13:50:56.996Z</time></trkpt><trkpt lat="44.919732110895936" lon="9.2907665977765"><ele>496.0</ele><time>2026-04-24T13:50:57.996Z</time></trkpt><trkpt lat="44.91982946076064" lon="9.290685881658662"><ele>496.0</ele><time>2026-04-24T13:50:58.996Z</time></trkpt><trkpt lat="44.919908393110326" lon="9.290622905532423"><ele>496.0</ele><time>2026-04-24T13:50:59.996Z</time></trkpt><trkpt lat="44.92002169458392" lon="9.290590374479097"><ele>497.0</ele><time>2026-04-24T13:51:00.996Z</time></trkpt><trkpt lat="44.920106595503384" lon="9.290545256484844"><ele>498.0</ele><time>2026-04-24T13:51:01.996Z</time></trkpt><trkpt lat="44.92020121466435" lon="9.290525018761578"><ele>499.0</ele><time>2026-04-24T13:51:02.996Z</time></trkpt><trkpt lat="44.92030021716249" lon="9.290502616492983"><ele>500.0</ele><time>2026-04-24T13:51:03.996Z</time></trkpt><trkpt lat="44.920397631752486" lon="9.290494107476553"><ele>501.0</ele><time>2026-04-24T13:51:04.996Z</time></trkpt><trkpt lat="44.92050109445944" lon="9.29048504857445"><ele>501.0</ele><time>2026-04-24T13:51:05.996Z</time></trkpt><trkpt lat="44.92060387645642" lon="9.290464508047535"><ele>501.0</ele><time>2026-04-24T13:51:06.996Z</time></trkpt><trkpt lat="44.92067819186258" lon="9.29039666369313"><ele>501.0</ele><time>2026-04-24T13:51:07.996Z</time></trkpt><trkpt lat="44.92076698649459" lon="9.290317585010898"><ele>501.0</ele><time>2026-04-24T13:51:08.996Z</time></trkpt><trkpt lat="44.92083159523005" lon="9.290237378716446"><ele>501.0</ele><time>2026-04-24T13:51:09.996Z</time></trkpt><trkpt lat="44.92088422956749" lon="9.290159290801245"><ele>501.5</ele><time>2026-04-24T13:51:10.996Z</time></trkpt><trkpt lat="44.92094557142417" lon="9.290100618209545"><ele>502.0</ele><time>2026-04-24T13:51:11.996Z</time></trkpt><trkpt lat="44.92100999469731" lon="9.29002006185992"><ele>502.5</ele><time>2026-04-24T13:51:12.996Z</time></trkpt><trkpt lat="44.92107487504365" lon="9.289956548638994"><ele>503.0</ele><time>2026-04-24T13:51:13.996Z</time></trkpt><trkpt lat="44.92111519311271" lon="9.28985998159285"><ele>503.5</ele><time>2026-04-24T13:51:14.996Z</time></trkpt><trkpt lat="44.92115552025881" lon="9.289758006941065"><ele>504.0</ele><time>2026-04-24T13:51:15.996Z</time></trkpt><trkpt lat="44.92118821671615" lon="9.289644021230483"><ele>504.0</ele><time>2026-04-24T13:51:16.996Z</time></trkpt><trkpt lat="44.92125153176997" lon="9.289588390819128"><ele>504.0</ele><time>2026-04-24T13:51:17.996Z</time></trkpt><trkpt lat="44.92128781211099" lon="9.289463863999499"><ele>504.0</ele><time>2026-04-24T13:51:18.996Z</time></trkpt><trkpt lat="44.92131891380713" lon="9.289371693396019"><ele>504.0</ele><time>2026-04-24T13:51:19.996Z</time></trkpt><trkpt lat="44.9213812160313" lon="9.289301706982554"><ele>504.0</ele><time>2026-04-24T13:51:20.996Z</time></trkpt><trkpt lat="44.92142327102022" lon="9.289198601465145"><ele>504.0</ele><time>2026-04-24T13:51:21.995Z</time></trkpt><trkpt lat="44.92147750148012" lon="9.289133317698571"><ele>504.0</ele><time>2026-04-24T13:51:22.995Z</time></trkpt><trkpt lat="44.921542640999455" lon="9.289117088515725"><ele>504.0</ele><time>2026-04-24T13:51:23.995Z</time></trkpt><trkpt lat="44.92157714246218" lon="9.289035898774037"><ele>504.0</ele><time>2026-04-24T13:51:24.995Z</time></trkpt><trkpt lat="44.921607285853305" lon="9.288957702173853"><ele>504.0</ele><time>2026-04-24T13:51:26.995Z</time></trkpt><trkpt lat="44.9216700473119" lon="9.288922784691394"><ele>504.0</ele><time>2026-04-24T13:51:29.995Z</time></trkpt><trkpt lat="44.921612485883216" lon="9.288867910656043"><ele>504.0</ele><time>2026-04-24T13:51:45.995Z</time></trkpt><trkpt lat="44.921495291598085" lon="9.288874840096392"><ele>504.0</ele><time>2026-04-24T13:51:48.995Z</time></trkpt><trkpt lat="44.92146139871316" lon="9.288998297722706"><ele>504.0</ele><time>2026-04-24T13:51:49.995Z</time></trkpt><trkpt lat="44.92139974033456" lon="9.289055962806474"><ele>504.0</ele><time>2026-04-24T13:51:50.995Z</time></trkpt><trkpt lat="44.921359187382265" lon="9.289160227345766"><ele>504.0</ele><time>2026-04-24T13:51:51.995Z</time></trkpt><trkpt lat="44.921311331908356" lon="9.28925409424201"><ele>504.0</ele><time>2026-04-24T13:51:52.995Z</time></trkpt><trkpt lat="44.921255364006754" lon="9.289359928076932"><ele>504.0</ele><time>2026-04-24T13:51:53.995Z</time></trkpt><trkpt lat="44.9211905378159" lon="9.289471860273643"><ele>504.0</ele><time>2026-04-24T13:51:54.995Z</time></trkpt><trkpt lat="44.92114032853587" lon="9.28962492848489"><ele>504.0</ele><time>2026-04-24T13:51:55.995Z</time></trkpt><trkpt lat="44.92108833917787" lon="9.28979506063585"><ele>504.0</ele><time>2026-04-24T13:51:56.995Z</time></trkpt><trkpt lat="44.9210222357853" lon="9.289927284550416"><ele>504.0</ele><time>2026-04-24T13:51:57.995Z</time></trkpt><trkpt lat="44.92097232463405" lon="9.290067707032751"><ele>503.4</ele><time>2026-04-24T13:51:58.995Z</time></trkpt><trkpt lat="44.920862812006604" lon="9.290184543187054"><ele>502.79999999999995</ele><time>2026-04-24T13:51:59.995Z</time></trkpt><trkpt lat="44.9207927929674" lon="9.2902955642958"><ele>502.20000000000005</ele><time>2026-04-24T13:52:00.995Z</time></trkpt><trkpt lat="44.92070900385023" lon="9.290392793933028"><ele>501.6</ele><time>2026-04-24T13:52:01.995Z</time></trkpt><trkpt lat="44.92065123988723" lon="9.290485998983504"><ele>501.0</ele><time>2026-04-24T13:52:02.995Z</time></trkpt><trkpt lat="44.92057951756698" lon="9.290547671308845"><ele>500.6</ele><time>2026-04-24T13:52:03.995Z</time></trkpt><trkpt lat="44.92049476827361" lon="9.290617185940704"><ele>500.20000000000005</ele><time>2026-04-24T13:52:04.995Z</time></trkpt><trkpt lat="44.920426965440036" lon="9.290692602129672"><ele>499.79999999999995</ele><time>2026-04-24T13:52:05.995Z</time></trkpt><trkpt lat="44.92031507368127" lon="9.290659050763164"><ele>499.4</ele><time>2026-04-24T13:52:06.995Z</time></trkpt><trkpt lat="44.92020711901028" lon="9.290702212051444"><ele>499.0</ele><time>2026-04-24T13:52:07.995Z</time></trkpt><trkpt lat="44.92007618018752" lon="9.29064898527489"><ele>498.4</ele><time>2026-04-24T13:52:08.995Z</time></trkpt><trkpt lat="44.919970069297996" lon="9.290683614300821"><ele>497.79999999999995</ele><time>2026-04-24T13:52:09.995Z</time></trkpt><trkpt lat="44.91986429249936" lon="9.290735708363655"><ele>497.20000000000005</ele><time>2026-04-24T13:52:10.995Z</time></trkpt><trkpt lat="44.91975900991059" lon="9.290796494652103"><ele>496.6</ele><time>2026-04-24T13:52:11.995Z</time></trkpt><trkpt lat="44.9196685985755" lon="9.290847361747094"><ele>496.0</ele><time>2026-04-24T13:52:12.995Z</time></trkpt><trkpt lat="44.91956716361711" lon="9.290853534458867"><ele>496.0</ele><time>2026-04-24T13:52:13.995Z</time></trkpt><trkpt lat="44.91947693964644" lon="9.290822818321647"><ele>496.0</ele><time>2026-04-24T13:52:14.995Z</time></trkpt><trkpt lat="44.91937309785919" lon="9.29077126093849"><ele>496.0</ele><time>2026-04-24T13:52:15.995Z</time></trkpt><trkpt lat="44.9192764854916" lon="9.290694877353515"><ele>496.0</ele><time>2026-04-24T13:52:16.995Z</time></trkpt><trkpt lat="44.91921427420738" lon="9.290573538137982"><ele>496.0</ele><time>2026-04-24T13:52:17.994Z</time></trkpt><trkpt lat="44.91916846794781" lon="9.29045612631162"><ele>495.00000000000006</ele><time>2026-04-24T13:52:18.994Z</time></trkpt><trkpt lat="44.91912270910726" lon="9.290324580428761"><ele>494.0</ele><time>2026-04-24T13:52:19.994Z</time></trkpt><trkpt lat="44.91906246810094" lon="9.290216095317632"><ele>493.0</ele><time>2026-04-24T13:52:20.994Z</time></trkpt><trkpt lat="44.91901450937746" lon="9.290143332201252"><ele>492.0</ele><time>2026-04-24T13:52:21.994Z</time></trkpt><trkpt lat="44.91894248586427" lon="9.290103337562574"><ele>491.00000000000006</ele><time>2026-04-24T13:52:22.994Z</time></trkpt><trkpt lat="44.918848363011996" lon="9.290119697614545"><ele>490.0</ele><time>2026-04-24T13:52:24.994Z</time></trkpt><trkpt lat="44.91880846584257" lon="9.2902847544783"><ele>490.0</ele><time>2026-04-24T13:52:25.994Z</time></trkpt><trkpt lat="44.91882609825966" lon="9.290458666825767"><ele>490.0</ele><time>2026-04-24T13:52:26.994Z</time></trkpt><trkpt lat="44.91883723182726" lon="9.290622324123879"><ele>490.0</ele><time>2026-04-24T13:52:27.994Z</time></trkpt><trkpt lat="44.91885590269938" lon="9.290777493088052"><ele>490.0</ele><time>2026-04-24T13:52:28.994Z</time></trkpt><trkpt lat="44.918863332781775" lon="9.290931824273025"><ele>490.2</ele><time>2026-04-24T13:52:29.994Z</time></trkpt><trkpt lat="44.91887874442498" lon="9.291074884933424"><ele>490.4</ele><time>2026-04-24T13:52:30.994Z</time></trkpt><trkpt lat="44.918893980995364" lon="9.291210697027106"><ele>490.6</ele><time>2026-04-24T13:52:31.994Z</time></trkpt><trkpt lat="44.918906421113526" lon="9.291322169095707"><ele>490.8</ele><time>2026-04-24T13:52:32.994Z</time></trkpt><trkpt lat="44.91899484039137" lon="9.291406657895912"><ele>491.0</ele><time>2026-04-24T13:52:34.994Z</time></trkpt><trkpt lat="44.919066711722735" lon="9.291425677457479"><ele>489.16666666666663</ele><time>2026-04-24T13:52:35.994Z</time></trkpt><trkpt lat="44.919147839117805" lon="9.291423907386905"><ele>487.3333333333333</ele><time>2026-04-24T13:52:36.994Z</time></trkpt><trkpt lat="44.91921898815934" lon="9.291440367144508"><ele>485.5</ele><time>2026-04-24T13:52:37.994Z</time></trkpt><trkpt lat="44.91929447921422" lon="9.29152664651136"><ele>483.66666666666663</ele><time>2026-04-24T13:52:39.994Z</time></trkpt><trkpt lat="44.919284461823096" lon="9.291651807969627"><ele>481.8333333333333</ele><time>2026-04-24T13:52:41.994Z</time></trkpt><trkpt lat="44.91924433230878" lon="9.291722578775651"><ele>480.0</ele><time>2026-04-24T13:52:44.994Z</time></trkpt><trkpt lat="44.919094053398226" lon="9.291738449160752"><ele>480.0</ele><time>2026-04-24T13:52:46.994Z</time></trkpt><trkpt lat="44.918998942001295" lon="9.291750463982204"><ele>480.0</ele><time>2026-04-24T13:52:47.994Z</time></trkpt><trkpt lat="44.91890305133395" lon="9.291748586765781"><ele>480.0</ele><time>2026-04-24T13:52:48.994Z</time></trkpt><trkpt lat="44.91880516011671" lon="9.291737592325326"><ele>480.0</ele><time>2026-04-24T13:52:49.994Z</time></trkpt><trkpt lat="44.91870524205966" lon="9.291698691229765"><ele>480.0</ele><time>2026-04-24T13:52:50.994Z</time></trkpt><trkpt lat="44.91860594530362" lon="9.291645111143428"><ele>480.0</ele><time>2026-04-24T13:52:51.994Z</time></trkpt><trkpt lat="44.91850207060026" lon="9.291593043357304"><ele>480.0</ele><time>2026-04-24T13:52:52.994Z</time></trkpt><trkpt lat="44.91839682604238" lon="9.291537596577072"><ele>480.0</ele><time>2026-04-24T13:52:53.994Z</time></trkpt><trkpt lat="44.91829441959536" lon="9.291478397812535"><ele>480.0</ele><time>2026-04-24T13:52:54.994Z</time></trkpt><trkpt lat="44.918192244207674" lon="9.291425239845006"><ele>480.0</ele><time>2026-04-24T13:52:55.994Z</time></trkpt><trkpt lat="44.91808699227553" lon="9.29138337678795"><ele>479.6</ele><time>2026-04-24T13:52:56.994Z</time></trkpt><trkpt lat="44.917980407199224" lon="9.291349209336575"><ele>479.2</ele><time>2026-04-24T13:52:57.994Z</time></trkpt><trkpt lat="44.91787627089134" lon="9.291318398932571"><ele>478.79999999999995</ele><time>2026-04-24T13:52:58.994Z</time></trkpt><trkpt lat="44.917781048436765" lon="9.291284114843291"><ele>478.4</ele><time>2026-04-24T13:52:59.994Z</time></trkpt><trkpt lat="44.91770193559289" lon="9.291228567933787"><ele>478.0</ele><time>2026-04-24T13:53:00.994Z</time></trkpt><trkpt lat="44.9176362491686" lon="9.29115235641424"><ele>478.0</ele><time>2026-04-24T13:53:01.994Z</time></trkpt><trkpt lat="44.91757107461228" lon="9.291071652927746"><ele>477.99999999999994</ele><time>2026-04-24T13:53:02.994Z</time></trkpt><trkpt lat="44.917522344357884" lon="9.290963694469351"><ele>477.99999999999994</ele><time>2026-04-24T13:53:03.994Z</time></trkpt><trkpt lat="44.91747837577604" lon="9.290843208834525"><ele>478.0</ele><time>2026-04-24T13:53:04.994Z</time></trkpt><trkpt lat="44.917434629077896" lon="9.290718099276534"><ele>478.0</ele><time>2026-04-24T13:53:05.994Z</time></trkpt><trkpt lat="44.91738761605876" lon="9.290591292729994"><ele>475.4</ele><time>2026-04-24T13:53:06.994Z</time></trkpt><trkpt lat="44.91722717432807" lon="9.290538616399747"><ele>472.79999999999995</ele><time>2026-04-24T13:53:07.994Z</time></trkpt><trkpt lat="44.917196868736326" lon="9.290429106951976"><ele>470.2</ele><time>2026-04-24T13:53:08.994Z</time></trkpt><trkpt lat="44.91717376348108" lon="9.290341577348135"><ele>467.6</ele><time>2026-04-24T13:53:09.994Z</time></trkpt><trkpt lat="44.91714357002057" lon="9.29021280110798"><ele>465.0</ele><time>2026-04-24T13:53:11.994Z</time></trkpt><trkpt lat="44.917111724563036" lon="9.290058692687696"><ele>465.0</ele><time>2026-04-24T13:53:12.994Z</time></trkpt><trkpt lat="44.91701262902456" lon="9.290009600335361"><ele>465.0</ele><time>2026-04-24T13:53:13.994Z</time></trkpt><trkpt lat="44.91684483668573" lon="9.290030953312419"><ele>465.0</ele><time>2026-04-24T13:53:14.993Z</time></trkpt><trkpt lat="44.916728376533996" lon="9.290199281739856"><ele>465.0</ele><time>2026-04-24T13:53:15.993Z</time></trkpt><trkpt lat="44.916698015140405" lon="9.290418087695983"><ele>465.2</ele><time>2026-04-24T13:53:16.993Z</time></trkpt><trkpt lat="44.91669419349336" lon="9.290559212432868"><ele>465.4</ele><time>2026-04-24T13:53:17.993Z</time></trkpt><trkpt lat="44.91669322622017" lon="9.290703686631892"><ele>465.6</ele><time>2026-04-24T13:53:18.993Z</time></trkpt><trkpt lat="44.91669755659037" lon="9.290857857491133"><ele>465.8</ele><time>2026-04-24T13:53:19.993Z</time></trkpt><trkpt lat="44.9167186029547" lon="9.291022233861915"><ele>466.0</ele><time>2026-04-24T13:53:20.993Z</time></trkpt><trkpt lat="44.91675539739258" lon="9.291160601677356"><ele>466.0</ele><time>2026-04-24T13:53:21.993Z</time></trkpt><trkpt lat="44.91679218049591" lon="9.291292095839879"><ele>466.0</ele><time>2026-04-24T13:53:22.993Z</time></trkpt><trkpt lat="44.91684123165649" lon="9.291409841901409"><ele>466.0</ele><time>2026-04-24T13:53:23.993Z</time></trkpt><trkpt lat="44.91685324646674" lon="9.291558190972266"><ele>466.0</ele><time>2026-04-24T13:53:24.993Z</time></trkpt><trkpt lat="44.91688629974162" lon="9.29170322017203"><ele>466.0</ele><time>2026-04-24T13:53:25.993Z</time></trkpt><trkpt lat="44.916945136556315" lon="9.291825480627063"><ele>465.00000000000006</ele><time>2026-04-24T13:53:26.993Z</time></trkpt><trkpt lat="44.91699386367071" lon="9.291952233624134"><ele>464.0</ele><time>2026-04-24T13:53:27.993Z</time></trkpt><trkpt lat="44.917049314353655" lon="9.292074243225196"><ele>463.0</ele><time>2026-04-24T13:53:29.001Z</time></trkpt><trkpt lat="44.91709474337715" lon="9.292193477795314"><ele>462.0</ele><time>2026-04-24T13:53:30.001Z</time></trkpt><trkpt lat="44.91714411921662" lon="9.29228195064971"><ele>461.00000000000006</ele><time>2026-04-24T13:53:31.001Z</time></trkpt><trkpt lat="44.91716824884815" lon="9.29237166039432"><ele>460.0</ele><time>2026-04-24T13:53:32.001Z</time></trkpt><trkpt lat="44.91719706434529" lon="9.292510574219454"><ele>460.00000000000006</ele><time>2026-04-24T13:53:34.001Z</time></trkpt><trkpt lat="44.91712877333465" lon="9.292603866347068"><ele>460.0</ele><time>2026-04-24T13:53:38.001Z</time></trkpt><trkpt lat="44.91706517488185" lon="9.292550776590488"><ele>460.0</ele><time>2026-04-24T13:53:39.001Z</time></trkpt><trkpt lat="44.916999758741994" lon="9.29247510562089"><ele>460.0</ele><time>2026-04-24T13:53:40.001Z</time></trkpt><trkpt lat="44.916925290839764" lon="9.292402446854185"><ele>460.00000000000006</ele><time>2026-04-24T13:53:41.001Z</time></trkpt><trkpt lat="44.91685918341701" lon="9.292312102699345"><ele>460.0</ele><time>2026-04-24T13:53:42.001Z</time></trkpt><trkpt lat="44.916788535698934" lon="9.29222393475419"><ele>457.4</ele><time>2026-04-24T13:53:43.001Z</time></trkpt><trkpt lat="44.916716690763906" lon="9.292137394101157"><ele>454.8</ele><time>2026-04-24T13:53:44.001Z</time></trkpt><trkpt lat="44.91665099012734" lon="9.292044107652936"><ele>452.20000000000005</ele><time>2026-04-24T13:53:45Z</time></trkpt><trkpt lat="44.916588639511566" lon="9.29194361138133"><ele>449.6</ele><time>2026-04-24T13:53:46Z</time></trkpt><trkpt lat="44.916526302845966" lon="9.291848448493791"><ele>447.0</ele><time>2026-04-24T13:53:47Z</time></trkpt><trkpt lat="44.91646340070572" lon="9.291762199234494"><ele>447.0</ele><time>2026-04-24T13:53:48Z</time></trkpt><trkpt lat="44.91640825330843" lon="9.29168247858078"><ele>447.00000000000006</ele><time>2026-04-24T13:53:49Z</time></trkpt><trkpt lat="44.916361741040106" lon="9.291609546849477"><ele>447.00000000000006</ele><time>2026-04-24T13:53:50Z</time></trkpt><trkpt lat="44.916282990710904" lon="9.291462970054102"><ele>447.0</ele><time>2026-04-24T13:53:52Z</time></trkpt><trkpt lat="44.91619794622784" lon="9.291414181063548"><ele>447.0</ele><time>2026-04-24T13:53:53Z</time></trkpt><trkpt lat="44.916115418008964" lon="9.291463327979908"><ele>447.0</ele><time>2026-04-24T13:53:54Z</time></trkpt><trkpt lat="44.91608821831006" lon="9.291589851261918"><ele>447.0</ele><time>2026-04-24T13:53:55Z</time></trkpt><trkpt lat="44.9161309136756" lon="9.291707325008643"><ele>447.0</ele><time>2026-04-24T13:53:56Z</time></trkpt><trkpt lat="44.91616962625772" lon="9.291778813104363"><ele>447.0</ele><time>2026-04-24T13:53:57Z</time></trkpt><trkpt lat="44.916223557130685" lon="9.29185218254834"><ele>447.0</ele><time>2026-04-24T13:53:58Z</time></trkpt><trkpt lat="44.91626906240393" lon="9.291936167713974"><ele>447.0</ele><time>2026-04-24T13:53:59Z</time></trkpt><trkpt lat="44.916308200259806" lon="9.292023170086473"><ele>447.0</ele><time>2026-04-24T13:54:00Z</time></trkpt><trkpt lat="44.91633251335781" lon="9.29213587033421"><ele>447.00000000000006</ele><time>2026-04-24T13:54:01Z</time></trkpt><trkpt lat="44.916345047626436" lon="9.292271181837016"><ele>447.00000000000006</ele><time>2026-04-24T13:54:02Z</time></trkpt><trkpt lat="44.916354847371565" lon="9.292406904448631"><ele>447.0</ele><time>2026-04-24T13:54:03Z</time></trkpt><trkpt lat="44.91636524613083" lon="9.292542453976562"><ele>447.0</ele><time>2026-04-24T13:54:04Z</time></trkpt><trkpt lat="44.91639038023349" lon="9.292671410339512"><ele>445.6666666666667</ele><time>2026-04-24T13:54:05Z</time></trkpt><trkpt lat="44.91638212504876" lon="9.292805490627126"><ele>444.33333333333337</ele><time>2026-04-24T13:54:06Z</time></trkpt><trkpt lat="44.91640649420581" lon="9.292921238048251"><ele>443.0</ele><time>2026-04-24T13:54:07Z</time></trkpt><trkpt lat="44.91644913295024" lon="9.293025013418672"><ele>441.6666666666667</ele><time>2026-04-24T13:54:08Z</time></trkpt><trkpt lat="44.91649210498029" lon="9.29313670048674"><ele>440.33333333333337</ele><time>2026-04-24T13:54:09Z</time></trkpt><trkpt lat="44.91654506658013" lon="9.293211574986652"><ele>439.0</ele><time>2026-04-24T13:54:10Z</time></trkpt><trkpt lat="44.91659835588379" lon="9.29327593139916"><ele>437.33333333333337</ele><time>2026-04-24T13:54:11Z</time></trkpt><trkpt lat="44.91659099882355" lon="9.293433203936582"><ele>435.6666666666667</ele><time>2026-04-24T13:54:13Z</time></trkpt><trkpt lat="44.91653826697493" lon="9.29348492029167"><ele>434.0</ele><time>2026-04-24T13:54:14Z</time></trkpt><trkpt lat="44.916459355991655" lon="9.293466624480157"><ele>432.33333333333337</ele><time>2026-04-24T13:54:15Z</time></trkpt><trkpt lat="44.91637355800073" lon="9.293440822825492"><ele>430.6666666666667</ele><time>2026-04-24T13:54:16Z</time></trkpt><trkpt lat="44.916281923096506" lon="9.29341911275725"><ele>429.0</ele><time>2026-04-24T13:54:17Z</time></trkpt><trkpt lat="44.91617310499399" lon="9.293426814418632"><ele>429.0</ele><time>2026-04-24T13:54:18Z</time></trkpt><trkpt lat="44.91607353762951" lon="9.293400263866912"><ele>429.0</ele><time>2026-04-24T13:54:19Z</time></trkpt><trkpt lat="44.915974463523376" lon="9.293364047429854"><ele>429.0</ele><time>2026-04-24T13:54:20Z</time></trkpt><trkpt lat="44.915883548835964" lon="9.293313087438191"><ele>429.0</ele><time>2026-04-24T13:54:21Z</time></trkpt><trkpt lat="44.915793744673564" lon="9.29324493561573"><ele>429.0</ele><time>2026-04-24T13:54:22Z</time></trkpt><trkpt lat="44.91570623796728" lon="9.293174033717747"><ele>428.5</ele><time>2026-04-24T13:54:23Z</time></trkpt><trkpt lat="44.91563283260138" lon="9.293105651685934"><ele>428.0</ele><time>2026-04-24T13:54:24Z</time></trkpt><trkpt lat="44.9155683671627" lon="9.293048054178696"><ele>427.5</ele><time>2026-04-24T13:54:25Z</time></trkpt><trkpt lat="44.915499169470316" lon="9.292995935354295"><ele>427.0</ele><time>2026-04-24T13:54:26Z</time></trkpt><trkpt lat="44.915430616197355" lon="9.293005555393325"><ele>426.5</ele><time>2026-04-24T13:54:27Z</time></trkpt><trkpt lat="44.91537456948245" lon="9.293070463841552"><ele>426.0</ele><time>2026-04-24T13:54:28Z</time></trkpt><trkpt lat="44.91535346149844" lon="9.293182223094975"><ele>424.8333333333333</ele><time>2026-04-24T13:54:29Z</time></trkpt><trkpt lat="44.91533849354481" lon="9.293310112959643"><ele>423.66666666666663</ele><time>2026-04-24T13:54:30Z</time></trkpt><trkpt lat="44.915330014157746" lon="9.293441643591999"><ele>422.5</ele><time>2026-04-24T13:54:31Z</time></trkpt><trkpt lat="44.91531931292023" lon="9.293561444136396"><ele>421.3333333333333</ele><time>2026-04-24T13:54:32Z</time></trkpt><trkpt lat="44.91530533671394" lon="9.293676160878064"><ele>420.16666666666663</ele><time>2026-04-24T13:54:32.999Z</time></trkpt><trkpt lat="44.915291522281" lon="9.293795067666279"><ele>419.0</ele><time>2026-04-24T13:54:33.999Z</time></trkpt><trkpt lat="44.91530142450487" lon="9.293921759508567"><ele>416.99999999999994</ele><time>2026-04-24T13:54:34.999Z</time></trkpt><trkpt lat="44.9153226619376" lon="9.294020799318275"><ele>415.0</ele><time>2026-04-24T13:54:35.999Z</time></trkpt><trkpt lat="44.91535114615948" lon="9.294102133127648"><ele>413.0</ele><time>2026-04-24T13:54:36.999Z</time></trkpt><trkpt lat="44.91533423602829" lon="9.294238282547136"><ele>411.0</ele><time>2026-04-24T13:54:38.999Z</time></trkpt><trkpt lat="44.915271815152835" lon="9.294255700553462"><ele>408.99999999999994</ele><time>2026-04-24T13:54:39.999Z</time></trkpt><trkpt lat="44.91519107297217" lon="9.294245404186196"><ele>407.0</ele><time>2026-04-24T13:54:40.999Z</time></trkpt><trkpt lat="44.91510620887119" lon="9.294182730369496"><ele>406.49999999999994</ele><time>2026-04-24T13:54:41.999Z</time></trkpt><trkpt lat="44.9150137547067" lon="9.294133657773186"><ele>406.0</ele><time>2026-04-24T13:54:42.999Z</time></trkpt><trkpt lat="44.91492813026603" lon="9.294090874736726"><ele>405.5</ele><time>2026-04-24T13:54:43.999Z</time></trkpt><trkpt lat="44.91485138608751" lon="9.294045507752754"><ele>405.0</ele><time>2026-04-24T13:54:44.999Z</time></trkpt><trkpt lat="44.914774439335446" lon="9.294026814174757"><ele>404.49999999999994</ele><time>2026-04-24T13:54:45.999Z</time></trkpt><trkpt lat="44.91470948790181" lon="9.293966454646641"><ele>404.0</ele><time>2026-04-24T13:54:46.999Z</time></trkpt><trkpt lat="44.914641983931425" lon="9.293968089711012"><ele>403.99999999999994</ele><time>2026-04-24T13:54:47.999Z</time></trkpt><trkpt lat="44.91457274241068" lon="9.29403132892674"><ele>404.0</ele><time>2026-04-24T13:54:49.999Z</time></trkpt><trkpt lat="44.91464667552311" lon="9.294166756114455"><ele>404.0</ele><time>2026-04-24T13:54:51.999Z</time></trkpt><trkpt lat="44.91472058946216" lon="9.294229747312619"><ele>404.0</ele><time>2026-04-24T13:54:52.999Z</time></trkpt><trkpt lat="44.91479332536803" lon="9.294278358597927"><ele>403.99999999999994</ele><time>2026-04-24T13:54:53.999Z</time></trkpt><trkpt lat="44.91485714000796" lon="9.294330466625782"><ele>404.0</ele><time>2026-04-24T13:54:54.999Z</time></trkpt><trkpt lat="44.914917422273355" lon="9.294375032349127"><ele>403.99999999999994</ele><time>2026-04-24T13:54:55.999Z</time></trkpt><trkpt lat="44.914976545011186" lon="9.294410974621545"><ele>404.0</ele><time>2026-04-24T13:54:56.999Z</time></trkpt><trkpt lat="44.91499712761371" lon="9.29454685590162"><ele>404.0</ele><time>2026-04-24T13:54:58.999Z</time></trkpt><trkpt lat="44.91491439253145" lon="9.294568280807367"><ele>404.0</ele><time>2026-04-24T13:55:00.999Z</time></trkpt><trkpt lat="44.91484280908421" lon="9.294552536082115"><ele>403.99999999999994</ele><time>2026-04-24T13:55:01.999Z</time></trkpt><trkpt lat="44.914765481085354" lon="9.294501042802057"><ele>404.0</ele><time>2026-04-24T13:55:02.999Z</time></trkpt><trkpt lat="44.91467983915698" lon="9.294517315704026"><ele>404.0</ele><time>2026-04-24T13:55:03.999Z</time></trkpt><trkpt lat="44.91459150145504" lon="9.294528359118768"><ele>404.0</ele><time>2026-04-24T13:55:04.999Z</time></trkpt><trkpt lat="44.914505599640044" lon="9.294538642699248"><ele>404.0</ele><time>2026-04-24T13:55:05.999Z</time></trkpt><trkpt lat="44.9144135985204" lon="9.29453037210403"><ele>404.0</ele><time>2026-04-24T13:55:06.999Z</time></trkpt><trkpt lat="44.91432810417735" lon="9.294490625947365"><ele>404.0</ele><time>2026-04-24T13:55:07.999Z</time></trkpt><trkpt lat="44.914239558727935" lon="9.294437754880146"><ele>402.16666666666663</ele><time>2026-04-24T13:55:08.999Z</time></trkpt><trkpt lat="44.9141534268731" lon="9.294387903070563"><ele>400.3333333333333</ele><time>2026-04-24T13:55:09.999Z</time></trkpt><trkpt lat="44.914065472274324" lon="9.294384372653786"><ele>398.5</ele><time>2026-04-24T13:55:10.999Z</time></trkpt><trkpt lat="44.91398041748266" lon="9.294381328590333"><ele>396.66666666666663</ele><time>2026-04-24T13:55:11.999Z</time></trkpt><trkpt lat="44.91390120466623" lon="9.294366907991112"><ele>394.8333333333333</ele><time>2026-04-24T13:55:12.999Z</time></trkpt><trkpt lat="44.91382990381222" lon="9.294321617228468"><ele>393.0</ele><time>2026-04-24T13:55:13.999Z</time></trkpt><trkpt lat="44.91377317530407" lon="9.294248042609219"><ele>393.0</ele><time>2026-04-24T13:55:14.999Z</time></trkpt><trkpt lat="44.913720711725155" lon="9.294180826818028"><ele>393.0</ele><time>2026-04-24T13:55:15.999Z</time></trkpt><trkpt lat="44.91362229812641" lon="9.294191673169534"><ele>393.0</ele><time>2026-04-24T13:55:17.999Z</time></trkpt><trkpt lat="44.913604955832064" lon="9.29434638143346"><ele>393.0</ele><time>2026-04-24T13:55:19.999Z</time></trkpt><trkpt lat="44.91365092045722" lon="9.294450816816685"><ele>393.0</ele><time>2026-04-24T13:55:20.999Z</time></trkpt><trkpt lat="44.913695859567845" lon="9.294574634602617"><ele>393.0</ele><time>2026-04-24T13:55:21.999Z</time></trkpt><trkpt lat="44.91376083970309" lon="9.294679569963549"><ele>393.0</ele><time>2026-04-24T13:55:22.999Z</time></trkpt><trkpt lat="44.91383030019149" lon="9.29476102236304"><ele>393.0</ele><time>2026-04-24T13:55:23.999Z</time></trkpt><trkpt lat="44.91388175369022" lon="9.294838066604273"><ele>393.0</ele><time>2026-04-24T13:55:24.999Z</time></trkpt><trkpt lat="44.913952139351686" lon="9.294964494174668"><ele>393.0</ele><time>2026-04-24T13:55:26.998Z</time></trkpt><trkpt lat="44.91397109733955" lon="9.295056429650456"><ele>393.0</ele><time>2026-04-24T13:55:28.998Z</time></trkpt><trkpt lat="44.91388431076209" lon="9.295043214156767"><ele>393.0</ele><time>2026-04-24T13:55:30.998Z</time></trkpt><trkpt lat="44.91380535861615" lon="9.29500040556998"><ele>393.0</ele><time>2026-04-24T13:55:31.998Z</time></trkpt><trkpt lat="44.91371592705602" lon="9.294936091561253"><ele>393.0</ele><time>2026-04-24T13:55:32.998Z</time></trkpt><trkpt lat="44.91362435316448" lon="9.294866713131285"><ele>393.0</ele><time>2026-04-24T13:55:33.998Z</time></trkpt><trkpt lat="44.9135376084662" lon="9.294798139503825"><ele>393.0</ele><time>2026-04-24T13:55:34.998Z</time></trkpt><trkpt lat="44.91345638017833" lon="9.294740836780145"><ele>390.0</ele><time>2026-04-24T13:55:35.998Z</time></trkpt><trkpt lat="44.91338114261335" lon="9.294696332327469"><ele>387.0</ele><time>2026-04-24T13:55:36.998Z</time></trkpt><trkpt lat="44.91330923021055" lon="9.29464461270243"><ele>384.0</ele><time>2026-04-24T13:55:37.998Z</time></trkpt><trkpt lat="44.91323530306043" lon="9.294617728755712"><ele>381.0</ele><time>2026-04-24T13:55:38.998Z</time></trkpt><trkpt lat="44.91315965917772" lon="9.294632382856653"><ele>378.0</ele><time>2026-04-24T13:55:39.998Z</time></trkpt><trkpt lat="44.91310119655404" lon="9.294683082655451"><ele>375.0</ele><time>2026-04-24T13:55:40.998Z</time></trkpt><trkpt lat="44.91305939930124" lon="9.294758246909817"><ele>374.7142857142857</ele><time>2026-04-24T13:55:41.998Z</time></trkpt><trkpt lat="44.913048414090724" lon="9.294863787042901"><ele>374.4285714285714</ele><time>2026-04-24T13:55:42.998Z</time></trkpt><trkpt lat="44.91306921842788" lon="9.294956370315893"><ele>374.1428571428571</ele><time>2026-04-24T13:55:43.998Z</time></trkpt><trkpt lat="44.913095422574116" lon="9.295041237452631"><ele>373.8571428571429</ele><time>2026-04-24T13:55:44.998Z</time></trkpt><trkpt lat="44.913110663355646" lon="9.295130190537606"><ele>373.57142857142856</ele><time>2026-04-24T13:55:45.998Z</time></trkpt><trkpt lat="44.91305986273613" lon="9.29525271409923"><ele>373.2857142857143</ele><time>2026-04-24T13:55:47.998Z</time></trkpt><trkpt lat="44.912992091038255" lon="9.295231074337376"><ele>373.0</ele><time>2026-04-24T13:55:48.998Z</time></trkpt><trkpt lat="44.91293330371101" lon="9.29515877519264"><ele>373.0</ele><time>2026-04-24T13:55:49.998Z</time></trkpt><trkpt lat="44.9128895222678" lon="9.295068697341984"><ele>373.0</ele><time>2026-04-24T13:55:50.998Z</time></trkpt><trkpt lat="44.9128667694083" lon="9.294956651837989"><ele>373.0</ele><time>2026-04-24T13:55:51.998Z</time></trkpt><trkpt lat="44.91288016845962" lon="9.294831418796932"><ele>373.0</ele><time>2026-04-24T13:55:52.998Z</time></trkpt><trkpt lat="44.9129083992611" lon="9.294716940629785"><ele>373.0</ele><time>2026-04-24T13:55:53.998Z</time></trkpt><trkpt lat="44.91292028970574" lon="9.294616344005876"><ele>373.0</ele><time>2026-04-24T13:55:54.998Z</time></trkpt><trkpt lat="44.912926269578065" lon="9.29452499579228"><ele>373.4</ele><time>2026-04-24T13:55:55.998Z</time></trkpt><trkpt lat="44.91285905659728" lon="9.294423156246586"><ele>373.79999999999995</ele><time>2026-04-24T13:55:57.998Z</time></trkpt><trkpt lat="44.91279338551556" lon="9.294467646709563"><ele>374.2</ele><time>2026-04-24T13:55:58.998Z</time></trkpt><trkpt lat="44.91271641940003" lon="9.294524402047173"><ele>374.6</ele><time>2026-04-24T13:55:59.998Z</time></trkpt><trkpt lat="44.91264598358103" lon="9.294616936067577"><ele>375.0</ele><time>2026-04-24T13:56:00.998Z</time></trkpt><trkpt lat="44.91258388459106" lon="9.294722068094593"><ele>374.6666666666667</ele><time>2026-04-24T13:56:01.998Z</time></trkpt><trkpt lat="44.91252878811072" lon="9.294835967533082"><ele>374.3333333333333</ele><time>2026-04-24T13:56:02.998Z</time></trkpt><trkpt lat="44.91249149148621" lon="9.29495385195653"><ele>374.0</ele><time>2026-04-24T13:56:03.998Z</time></trkpt><trkpt lat="44.91246794948591" lon="9.295064181922886"><ele>373.66666666666663</ele><time>2026-04-24T13:56:04.998Z</time></trkpt><trkpt lat="44.912483366794845" lon="9.295183565088621"><ele>373.3333333333333</ele><time>2026-04-24T13:56:05.998Z</time></trkpt><trkpt lat="44.91253052878592" lon="9.295293665308074"><ele>373.0</ele><time>2026-04-24T13:56:06.998Z</time></trkpt><trkpt lat="44.91259503256508" lon="9.29538901980016"><ele>373.0</ele><time>2026-04-24T13:56:07.998Z</time></trkpt><trkpt lat="44.91264824252317" lon="9.295475855406794"><ele>373.0</ele><time>2026-04-24T13:56:08.998Z</time></trkpt><trkpt lat="44.91269754449589" lon="9.295551492892395"><ele>373.0</ele><time>2026-04-24T13:56:09.998Z</time></trkpt><trkpt lat="44.91270452724725" lon="9.29568289652468"><ele>373.0</ele><time>2026-04-24T13:56:11.998Z</time></trkpt><trkpt lat="44.912640436474405" lon="9.295700797552115"><ele>373.0</ele><time>2026-04-24T13:56:13.998Z</time></trkpt><trkpt lat="44.912583968470514" lon="9.2956525825414"><ele>373.0</ele><time>2026-04-24T13:56:14.998Z</time></trkpt><trkpt lat="44.912523155998564" lon="9.295578471269744"><ele>370.8333333333333</ele><time>2026-04-24T13:56:15.998Z</time></trkpt><trkpt lat="44.912464454163825" lon="9.295489831111102"><ele>368.66666666666663</ele><time>2026-04-24T13:56:16.998Z</time></trkpt><trkpt lat="44.91240384711692" lon="9.295397678386847"><ele>366.5</ele><time>2026-04-24T13:56:17.998Z</time></trkpt><trkpt lat="44.912346286730866" lon="9.295311270744127"><ele>364.3333333333333</ele><time>2026-04-24T13:56:18.998Z</time></trkpt><trkpt lat="44.912295397164534" lon="9.29523288559267"><ele>362.1666666666667</ele><time>2026-04-24T13:56:19.998Z</time></trkpt><trkpt lat="44.912244571167555" lon="9.295174141080485"><ele>360.0</ele><time>2026-04-24T13:56:20.998Z</time></trkpt><trkpt lat="44.9121382971393" lon="9.295180385914943"><ele>360.0</ele><time>2026-04-24T13:56:22.997Z</time></trkpt><trkpt lat="44.91209191757968" lon="9.29531141553195"><ele>360.0</ele><time>2026-04-24T13:56:24.997Z</time></trkpt><trkpt lat="44.9121316415784" lon="9.295408151512387"><ele>360.0</ele><time>2026-04-24T13:56:25.997Z</time></trkpt><trkpt lat="44.91217350057131" lon="9.295524255134628"><ele>360.0</ele><time>2026-04-24T13:56:26.997Z</time></trkpt><trkpt lat="44.91221504824777" lon="9.295630000579589"><ele>360.0</ele><time>2026-04-24T13:56:27.997Z</time></trkpt><trkpt lat="44.9122548994586" lon="9.295720792608487"><ele>360.0</ele><time>2026-04-24T13:56:28.997Z</time></trkpt><trkpt lat="44.912288032149526" lon="9.295810827280892"><ele>359.3333333333333</ele><time>2026-04-24T13:56:29.997Z</time></trkpt><trkpt lat="44.912313241296204" lon="9.29594846278247"><ele>358.6666666666667</ele><time>2026-04-24T13:56:31.997Z</time></trkpt><trkpt lat="44.91223543653736" lon="9.29599777563432"><ele>358.0</ele><time>2026-04-24T13:56:33.997Z</time></trkpt><trkpt lat="44.91217765913536" lon="9.295960141733344"><ele>357.33333333333337</ele><time>2026-04-24T13:56:34.997Z</time></trkpt><trkpt lat="44.91213086482673" lon="9.295883898674553"><ele>356.6666666666667</ele><time>2026-04-24T13:56:35.997Z</time></trkpt><trkpt lat="44.91207366632224" lon="9.295794246054502"><ele>356.0</ele><time>2026-04-24T13:56:36.997Z</time></trkpt><trkpt lat="44.9120128839531" lon="9.295685760154841"><ele>356.6666666666667</ele><time>2026-04-24T13:56:37.997Z</time></trkpt><trkpt lat="44.91195955980838" lon="9.295571098003292"><ele>357.33333333333337</ele><time>2026-04-24T13:56:38.997Z</time></trkpt><trkpt lat="44.91190939036986" lon="9.295468669455621"><ele>358.0</ele><time>2026-04-24T13:56:39.997Z</time></trkpt><trkpt lat="44.91186899386807" lon="9.295372834131138"><ele>358.6666666666667</ele><time>2026-04-24T13:56:40.997Z</time></trkpt><trkpt lat="44.91182129836311" lon="9.295294308918251"><ele>359.3333333333333</ele><time>2026-04-24T13:56:41.997Z</time></trkpt><trkpt lat="44.91177682735461" lon="9.29522939808447"><ele>360.0</ele><time>2026-04-24T13:56:42.997Z</time></trkpt><trkpt lat="44.91167754875192" lon="9.295219170565217"><ele>356.2</ele><time>2026-04-24T13:56:44.997Z</time></trkpt><trkpt lat="44.91164833073712" lon="9.295379739501406"><ele>352.4</ele><time>2026-04-24T13:56:46.997Z</time></trkpt><trkpt lat="44.9116647404899" lon="9.295496666393683"><ele>348.6</ele><time>2026-04-24T13:56:47.997Z</time></trkpt><trkpt lat="44.91168886027262" lon="9.295629886427255"><ele>344.8</ele><time>2026-04-24T13:56:48.997Z</time></trkpt><trkpt lat="44.91167613044821" lon="9.295766710411048"><ele>341.0</ele><time>2026-04-24T13:56:49.997Z</time></trkpt><trkpt lat="44.91166694577825" lon="9.295885865524806"><ele>341.0</ele><time>2026-04-24T13:56:50.997Z</time></trkpt><trkpt lat="44.9116347876106" lon="9.295963790616481"><ele>341.0</ele><time>2026-04-24T13:56:51.997Z</time></trkpt><trkpt lat="44.91151879447428" lon="9.296068601225237"><ele>341.0</ele><time>2026-04-24T13:56:53.997Z</time></trkpt><trkpt lat="44.91143178040858" lon="9.296113957354574"><ele>341.0</ele><time>2026-04-24T13:56:54.997Z</time></trkpt><trkpt lat="44.91135158464307" lon="9.29616607116639"><ele>341.0</ele><time>2026-04-24T13:56:55.997Z</time></trkpt><trkpt lat="44.911275128093145" lon="9.296208719068368"><ele>341.0</ele><time>2026-04-24T13:56:56.997Z</time></trkpt><trkpt lat="44.91122604983071" lon="9.296288151748053"><ele>341.0</ele><time>2026-04-24T13:56:57.997Z</time></trkpt><trkpt lat="44.91119929709263" lon="9.296380194762694"><ele>341.0</ele><time>2026-04-24T13:56:58.997Z</time></trkpt><trkpt lat="44.911196825801525" lon="9.296469059314427"><ele>341.0</ele><time>2026-04-24T13:56:59.997Z</time></trkpt><trkpt lat="44.91122769838514" lon="9.296555910053709"><ele>341.0</ele><time>2026-04-24T13:57:00.997Z</time></trkpt><trkpt lat="44.911253272432155" lon="9.296659464851095"><ele>341.0</ele><time>2026-04-24T13:57:01.997Z</time></trkpt><trkpt lat="44.91130765294555" lon="9.296770554001574"><ele>340.4</ele><time>2026-04-24T13:57:02.997Z</time></trkpt><trkpt lat="44.911363056317924" lon="9.296888576343061"><ele>339.8</ele><time>2026-04-24T13:57:03.997Z</time></trkpt><trkpt lat="44.911431384995595" lon="9.297009812765"><ele>339.2</ele><time>2026-04-24T13:57:04.997Z</time></trkpt><trkpt lat="44.91150287530775" lon="9.297111744931499"><ele>338.59999999999997</ele><time>2026-04-24T13:57:05.997Z</time></trkpt><trkpt lat="44.91157083210501" lon="9.297198297479566"><ele>338.0</ele><time>2026-04-24T13:57:06.997Z</time></trkpt><trkpt lat="44.91163542300367" lon="9.297283325424772"><ele>337.1666666666667</ele><time>2026-04-24T13:57:07.997Z</time></trkpt><trkpt lat="44.911684416470244" lon="9.297357340729365"><ele>336.33333333333337</ele><time>2026-04-24T13:57:08.997Z</time></trkpt><trkpt lat="44.91174026740908" lon="9.29747305152898"><ele>335.5</ele><time>2026-04-24T13:57:10.997Z</time></trkpt><trkpt lat="44.911726747800444" lon="9.297581778900177"><ele>334.6666666666667</ele><time>2026-04-24T13:57:12.997Z</time></trkpt><trkpt lat="44.91172458753643" lon="9.297696891690393"><ele>333.8333333333333</ele><time>2026-04-24T13:57:15.996Z</time></trkpt><trkpt lat="44.91177266234805" lon="9.29782731022165"><ele>333.0</ele><time>2026-04-24T13:57:17.996Z</time></trkpt><trkpt lat="44.91183858276514" lon="9.297898233836651"><ele>333.0</ele><time>2026-04-24T13:57:18.996Z</time></trkpt><trkpt lat="44.9119019000548" lon="9.297974620018895"><ele>333.0</ele><time>2026-04-24T13:57:19.996Z</time></trkpt><trkpt lat="44.91196434982468" lon="9.298072317831531"><ele>333.0</ele><time>2026-04-24T13:57:20.996Z</time></trkpt><trkpt lat="44.91201799989353" lon="9.298197310013645"><ele>333.0</ele><time>2026-04-24T13:57:21.996Z</time></trkpt><trkpt lat="44.9120439278754" lon="9.298345797583693"><ele>333.0</ele><time>2026-04-24T13:57:22.996Z</time></trkpt><trkpt lat="44.91203842269086" lon="9.298486035587453"><ele>331.75</ele><time>2026-04-24T13:57:23.996Z</time></trkpt><trkpt lat="44.911992795749455" lon="9.298669899387187"><ele>330.5</ele><time>2026-04-24T13:57:24.996Z</time></trkpt><trkpt lat="44.91194867129725" lon="9.29885335528722"><ele>329.25</ele><time>2026-04-24T13:57:25.996Z</time></trkpt><trkpt lat="44.91189360024627" lon="9.299046508173827"><ele>328.0</ele><time>2026-04-24T13:57:26.996Z</time></trkpt><trkpt lat="44.91183489472469" lon="9.299245625933569"><ele>327.3333333333333</ele><time>2026-04-24T13:57:27.996Z</time></trkpt><trkpt lat="44.91174565384611" lon="9.29944748808473"><ele>326.6666666666667</ele><time>2026-04-24T13:57:28.996Z</time></trkpt><trkpt lat="44.911634296317864" lon="9.299621366488187"><ele>326.0</ele><time>2026-04-24T13:57:29.996Z</time></trkpt><trkpt lat="44.91150384373809" lon="9.299805833889923"><ele>327.33333333333337</ele><time>2026-04-24T13:57:30.996Z</time></trkpt><trkpt lat="44.91137802054018" lon="9.299985425841935"><ele>328.6666666666667</ele><time>2026-04-24T13:57:31.996Z</time></trkpt><trkpt lat="44.91127588302009" lon="9.300110637475742"><ele>330.0</ele><time>2026-04-24T13:57:32.996Z</time></trkpt><trkpt lat="44.911205891483256" lon="9.300367765551949"><ele>330.0</ele><time>2026-04-24T13:57:33.996Z</time></trkpt><trkpt lat="44.9111666783563" lon="9.30056287739975"><ele>330.0</ele><time>2026-04-24T13:57:34.996Z</time></trkpt><trkpt lat="44.91116964693212" lon="9.30076554855017"><ele>330.0</ele><time>2026-04-24T13:57:35.996Z</time></trkpt><trkpt lat="44.911203356224824" lon="9.300951468920644"><ele>330.0</ele><time>2026-04-24T13:57:36.996Z</time></trkpt><trkpt lat="44.91124281570129" lon="9.301151916691886"><ele>332.0</ele><time>2026-04-24T13:57:37.996Z</time></trkpt><trkpt lat="44.91128568626084" lon="9.301368838021633"><ele>334.0</ele><time>2026-04-24T13:57:38.996Z</time></trkpt><trkpt lat="44.911334144040005" lon="9.301573894785246"><ele>336.0</ele><time>2026-04-24T13:57:39.996Z</time></trkpt><trkpt lat="44.911401197361286" lon="9.301779178364267"><ele>336.0</ele><time>2026-04-24T13:57:40.996Z</time></trkpt><trkpt lat="44.91146524486047" lon="9.301976410831427"><ele>336.0</ele><time>2026-04-24T13:57:41.996Z</time></trkpt><trkpt lat="44.911508380474494" lon="9.302164448665621"><ele>336.0</ele><time>2026-04-24T13:57:42.996Z</time></trkpt><trkpt lat="44.91153862968062" lon="9.302362067115503"><ele>336.0</ele><time>2026-04-24T13:57:43.996Z</time></trkpt><trkpt lat="44.91150746510552" lon="9.302518599007536"><ele>336.75</ele><time>2026-04-24T13:57:44.996Z</time></trkpt><trkpt lat="44.91143161416501" lon="9.302638696946374"><ele>337.5</ele><time>2026-04-24T13:57:45.996Z</time></trkpt><trkpt lat="44.91128795193029" lon="9.302771869649037"><ele>338.25</ele><time>2026-04-24T13:57:46.996Z</time></trkpt><trkpt lat="44.91118447292284" lon="9.302918876632647"><ele>339.0</ele><time>2026-04-24T13:57:47.996Z</time></trkpt><trkpt lat="44.91112037063719" lon="9.30309343435576"><ele>339.0</ele><time>2026-04-24T13:57:48.996Z</time></trkpt><trkpt lat="44.911062689507425" lon="9.303282856255336"><ele>339.0</ele><time>2026-04-24T13:57:49.996Z</time></trkpt><trkpt lat="44.91104749196611" lon="9.303497309653432"><ele>339.0</ele><time>2026-04-24T13:57:50.996Z</time></trkpt><trkpt lat="44.91104073795309" lon="9.30370534365388"><ele>339.0</ele><time>2026-04-24T13:57:51.996Z</time></trkpt><trkpt lat="44.91104616565894" lon="9.303911339219178"><ele>340.25</ele><time>2026-04-24T13:57:52.996Z</time></trkpt><trkpt lat="44.911030789014525" lon="9.304108857271455"><ele>341.5</ele><time>2026-04-24T13:57:53.996Z</time></trkpt><trkpt lat="44.91102449407573" lon="9.304319881396596"><ele>342.75</ele><time>2026-04-24T13:57:54.996Z</time></trkpt><trkpt lat="44.911046092839705" lon="9.304510424530442"><ele>344.0</ele><time>2026-04-24T13:57:55.996Z</time></trkpt><trkpt lat="44.91110829416833" lon="9.304856110098225"><ele>345.0</ele><time>2026-04-24T13:57:57.996Z</time></trkpt><trkpt lat="44.91110202895537" lon="9.30503453091761"><ele>346.0</ele><time>2026-04-24T13:57:58.996Z</time></trkpt><trkpt lat="44.91118884049693" lon="9.305357647693842"><ele>347.0</ele><time>2026-04-24T13:58:00.996Z</time></trkpt><trkpt lat="44.9112036700509" lon="9.305502106768072"><ele>347.0</ele><time>2026-04-24T13:58:01.996Z</time></trkpt><trkpt lat="44.911183743142274" lon="9.305658945407279"><ele>347.0</ele><time>2026-04-24T13:58:02.996Z</time></trkpt><trkpt lat="44.911123751740654" lon="9.305801535884873"><ele>347.0</ele><time>2026-04-24T13:58:03.996Z</time></trkpt><trkpt lat="44.91107241789435" lon="9.30592849271505"><ele>347.0</ele><time>2026-04-24T13:58:04.996Z</time></trkpt><trkpt lat="44.91098777649439" lon="9.306041832897007"><ele>344.25</ele><time>2026-04-24T13:58:05.996Z</time></trkpt><trkpt lat="44.910874808386446" lon="9.30613549050465"><ele>341.5</ele><time>2026-04-24T13:58:06.996Z</time></trkpt><trkpt lat="44.910766651596134" lon="9.306239652315208"><ele>338.75</ele><time>2026-04-24T13:58:07.996Z</time></trkpt><trkpt lat="44.910651151826244" lon="9.306337320145392"><ele>336.0</ele><time>2026-04-24T13:58:08.996Z</time></trkpt><trkpt lat="44.91053563252098" lon="9.306407758975947"><ele>335.75</ele><time>2026-04-24T13:58:09.995Z</time></trkpt><trkpt lat="44.9104300496701" lon="9.306534773235056"><ele>335.5</ele><time>2026-04-24T13:58:10.995Z</time></trkpt><trkpt lat="44.91031588651233" lon="9.306643498480438"><ele>335.25</ele><time>2026-04-24T13:58:11.995Z</time></trkpt><trkpt lat="44.91019293994211" lon="9.306718593904014"><ele>335.0</ele><time>2026-04-24T13:58:12.995Z</time></trkpt><trkpt lat="44.910064365503516" lon="9.306812117811413"><ele>335.0</ele><time>2026-04-24T13:58:13.995Z</time></trkpt><trkpt lat="44.909981448937764" lon="9.306936184095226"><ele>335.0</ele><time>2026-04-24T13:58:14.995Z</time></trkpt><trkpt lat="44.90990235571197" lon="9.307082046426652"><ele>335.0</ele><time>2026-04-24T13:58:15.995Z</time></trkpt><trkpt lat="44.909819528533866" lon="9.307179938395054"><ele>335.0</ele><time>2026-04-24T13:58:16.995Z</time></trkpt><trkpt lat="44.90972966525408" lon="9.307320086668062"><ele>336.5</ele><time>2026-04-24T13:58:17.995Z</time></trkpt><trkpt lat="44.9096516131036" lon="9.307461658118372"><ele>338.0</ele><time>2026-04-24T13:58:18.995Z</time></trkpt><trkpt lat="44.90957610982846" lon="9.30761813183716"><ele>339.5</ele><time>2026-04-24T13:58:19.995Z</time></trkpt><trkpt lat="44.909494498544696" lon="9.307773410711649"><ele>341.0</ele><time>2026-04-24T13:58:20.995Z</time></trkpt><trkpt lat="44.90943356548191" lon="9.30793674067729"><ele>339.75</ele><time>2026-04-24T13:58:21.995Z</time></trkpt><trkpt lat="44.909379842638785" lon="9.308117543965484"><ele>338.5</ele><time>2026-04-24T13:58:22.995Z</time></trkpt><trkpt lat="44.90930478657317" lon="9.308258578308818"><ele>337.25</ele><time>2026-04-24T13:58:23.995Z</time></trkpt><trkpt lat="44.90923641449959" lon="9.308386527166146"><ele>336.0</ele><time>2026-04-24T13:58:24.995Z</time></trkpt><trkpt lat="44.909191651275776" lon="9.308520873008296"><ele>336.0</ele><time>2026-04-24T13:58:25.995Z</time></trkpt><trkpt lat="44.90911682133925" lon="9.308648981153972"><ele>336.0</ele><time>2026-04-24T13:58:26.995Z</time></trkpt><trkpt lat="44.90905528317383" lon="9.308804985410953"><ele>336.0</ele><time>2026-04-24T13:58:27.995Z</time></trkpt><trkpt lat="44.90902352734045" lon="9.309132766043115"><ele>337.25</ele><time>2026-04-24T13:58:29.995Z</time></trkpt><trkpt lat="44.90910662734476" lon="9.309293690036348"><ele>338.5</ele><time>2026-04-24T13:58:30.995Z</time></trkpt><trkpt lat="44.90919074779666" lon="9.30947091533293"><ele>339.75</ele><time>2026-04-24T13:58:31.995Z</time></trkpt><trkpt lat="44.90924801410067" lon="9.309665278987739"><ele>341.0</ele><time>2026-04-24T13:58:32.995Z</time></trkpt><trkpt lat="44.90925344022734" lon="9.309850047538765"><ele>343.25</ele><time>2026-04-24T13:58:33.995Z</time></trkpt><trkpt lat="44.90925628038905" lon="9.310039363959834"><ele>345.5</ele><time>2026-04-24T13:58:34.995Z</time></trkpt><trkpt lat="44.909276328120335" lon="9.310230111501067"><ele>347.75</ele><time>2026-04-24T13:58:35.995Z</time></trkpt><trkpt lat="44.909301226740084" lon="9.310415069209478"><ele>350.0</ele><time>2026-04-24T13:58:36.995Z</time></trkpt><trkpt lat="44.90932911891476" lon="9.31058876558416"><ele>350.0</ele><time>2026-04-24T13:58:37.995Z</time></trkpt><trkpt lat="44.90935646778029" lon="9.310767375780998"><ele>350.0</ele><time>2026-04-24T13:58:38.995Z</time></trkpt><trkpt lat="44.90937307365717" lon="9.310910324865104"><ele>350.0</ele><time>2026-04-24T13:58:39.995Z</time></trkpt><trkpt lat="44.90937083843217" lon="9.311046155785439"><ele>350.0</ele><time>2026-04-24T13:58:40.995Z</time></trkpt><trkpt lat="44.909337669902776" lon="9.311158717678575"><ele>350.0</ele><time>2026-04-24T13:58:41.995Z</time></trkpt><trkpt lat="44.909264051748565" lon="9.31128220171159"><ele>347.0</ele><time>2026-04-24T13:58:42.995Z</time></trkpt><trkpt lat="44.909205342270404" lon="9.311422338287196"><ele>344.0</ele><time>2026-04-24T13:58:43.995Z</time></trkpt><trkpt lat="44.90913210310556" lon="9.311586811048347"><ele>341.0</ele><time>2026-04-24T13:58:44.995Z</time></trkpt><trkpt lat="44.909057327874756" lon="9.311757758169263"><ele>338.0</ele><time>2026-04-24T13:58:45.995Z</time></trkpt><trkpt lat="44.90901807702384" lon="9.311950370364055"><ele>338.0</ele><time>2026-04-24T13:58:46.995Z</time></trkpt><trkpt lat="44.90896210878462" lon="9.31212221841519"><ele>338.0</ele><time>2026-04-24T13:58:47.995Z</time></trkpt><trkpt lat="44.90890620333355" lon="9.312299696987669"><ele>338.0</ele><time>2026-04-24T13:58:48.995Z</time></trkpt><trkpt lat="44.90888360603857" lon="9.312487657621242"><ele>338.0</ele><time>2026-04-24T13:58:49.995Z</time></trkpt><trkpt lat="44.90883457833214" lon="9.312668599536451"><ele>339.0</ele><time>2026-04-24T13:58:50.995Z</time></trkpt><trkpt lat="44.90879515585833" lon="9.312867790193721"><ele>340.0</ele><time>2026-04-24T13:58:51.995Z</time></trkpt><trkpt lat="44.908748406908884" lon="9.313078958098783"><ele>341.0</ele><time>2026-04-24T13:58:52.995Z</time></trkpt><trkpt lat="44.908697078091116" lon="9.313306427053014"><ele>341.0</ele><time>2026-04-24T13:58:53.995Z</time></trkpt><trkpt lat="44.90865697889317" lon="9.313520408190842"><ele>341.0</ele><time>2026-04-24T13:58:54.995Z</time></trkpt><trkpt lat="44.9086009334488" lon="9.313751205407987"><ele>341.0</ele><time>2026-04-24T13:58:55.995Z</time></trkpt><trkpt lat="44.90853116875112" lon="9.31397533227088"><ele>342.33333333333337</ele><time>2026-04-24T13:58:56.995Z</time></trkpt><trkpt lat="44.908466867218564" lon="9.314207718861427"><ele>343.6666666666667</ele><time>2026-04-24T13:58:57.995Z</time></trkpt><trkpt lat="44.90844052614843" lon="9.314448462627036"><ele>345.0</ele><time>2026-04-24T13:58:58.995Z</time></trkpt><trkpt lat="44.90843739832476" lon="9.314679617733526"><ele>346.6666666666667</ele><time>2026-04-24T13:58:59.995Z</time></trkpt><trkpt lat="44.908403475108095" lon="9.3149190920149"><ele>348.33333333333337</ele><time>2026-04-24T13:59:00.995Z</time></trkpt><trkpt lat="44.90841266148685" lon="9.315132795863422"><ele>350.0</ele><time>2026-04-24T13:59:01.995Z</time></trkpt><trkpt lat="44.90838381778599" lon="9.315375211496066"><ele>347.0</ele><time>2026-04-24T13:59:02.995Z</time></trkpt><trkpt lat="44.90837197749063" lon="9.315597559486314"><ele>344.0</ele><time>2026-04-24T13:59:03.995Z</time></trkpt><trkpt lat="44.908356587305946" lon="9.315817560552418"><ele>341.0</ele><time>2026-04-24T13:59:04.994Z</time></trkpt><trkpt lat="44.908318380324104" lon="9.316033546213724"><ele>341.0</ele><time>2026-04-24T13:59:05.994Z</time></trkpt><trkpt lat="44.908268654411636" lon="9.316241222400505"><ele>341.0</ele><time>2026-04-24T13:59:06.994Z</time></trkpt><trkpt lat="44.90821069373717" lon="9.316452871616622"><ele>341.0</ele><time>2026-04-24T13:59:07.994Z</time></trkpt><trkpt lat="44.908137095173636" lon="9.316684135116574"><ele>341.33333333333337</ele><time>2026-04-24T13:59:08.994Z</time></trkpt><trkpt lat="44.9080847445057" lon="9.31689604700648"><ele>341.6666666666667</ele><time>2026-04-24T13:59:09.994Z</time></trkpt><trkpt lat="44.90801666493671" lon="9.317131293079017"><ele>342.0</ele><time>2026-04-24T13:59:10.994Z</time></trkpt><trkpt lat="44.90796791827901" lon="9.31735243835419"><ele>342.6666666666667</ele><time>2026-04-24T13:59:11.994Z</time></trkpt><trkpt lat="44.90792939389464" lon="9.317559077221475"><ele>343.33333333333337</ele><time>2026-04-24T13:59:12.994Z</time></trkpt><trkpt lat="44.90785214500955" lon="9.317766935959128"><ele>344.0</ele><time>2026-04-24T13:59:13.994Z</time></trkpt><trkpt lat="44.907750152196996" lon="9.317924820840515"><ele>344.6666666666667</ele><time>2026-04-24T13:59:14.994Z</time></trkpt><trkpt lat="44.90768293141271" lon="9.318112608361526"><ele>345.3333333333333</ele><time>2026-04-24T13:59:15.994Z</time></trkpt><trkpt lat="44.90766336280053" lon="9.318321998631243"><ele>346.0</ele><time>2026-04-24T13:59:16.994Z</time></trkpt><trkpt lat="44.90764635835138" lon="9.318539467488373"><ele>346.0</ele><time>2026-04-24T13:59:17.994Z</time></trkpt><trkpt lat="44.90764999608852" lon="9.318777940002095"><ele>346.0</ele><time>2026-04-24T13:59:18.994Z</time></trkpt><trkpt lat="44.90765250304715" lon="9.31903376571535"><ele>346.0</ele><time>2026-04-24T13:59:19.994Z</time></trkpt><trkpt lat="44.907668746982615" lon="9.319273141341055"><ele>345.66666666666663</ele><time>2026-04-24T13:59:20.994Z</time></trkpt><trkpt lat="44.907674510730374" lon="9.31949414256105"><ele>345.3333333333333</ele><time>2026-04-24T13:59:21.994Z</time></trkpt><trkpt lat="44.90764816971784" lon="9.3197100019751"><ele>345.0</ele><time>2026-04-24T13:59:22.994Z</time></trkpt><trkpt lat="44.907617982122005" lon="9.319915745449983"><ele>344.6666666666667</ele><time>2026-04-24T13:59:23.994Z</time></trkpt><trkpt lat="44.907580499261634" lon="9.32010819807705"><ele>344.33333333333337</ele><time>2026-04-24T13:59:24.994Z</time></trkpt><trkpt lat="44.90747209903974" lon="9.320248930155984"><ele>344.0</ele><time>2026-04-24T13:59:25.994Z</time></trkpt><trkpt lat="44.90735381062718" lon="9.32041939938893"><ele>340.6666666666667</ele><time>2026-04-24T13:59:26.994Z</time></trkpt><trkpt lat="44.907184296046445" lon="9.32051603641713"><ele>337.3333333333333</ele><time>2026-04-24T13:59:27.994Z</time></trkpt><trkpt lat="44.90705921681599" lon="9.32067008232142"><ele>334.0</ele><time>2026-04-24T13:59:28.994Z</time></trkpt><trkpt lat="44.906965459001086" lon="9.320829087176621"><ele>334.0</ele><time>2026-04-24T13:59:29.994Z</time></trkpt><trkpt lat="44.90687804314962" lon="9.32103175816073"><ele>334.0</ele><time>2026-04-24T13:59:30.994Z</time></trkpt><trkpt lat="44.90685441454259" lon="9.321272578684006"><ele>334.0</ele><time>2026-04-24T13:59:31.994Z</time></trkpt><trkpt lat="44.906833175214516" lon="9.32149090815143"><ele>334.66666666666663</ele><time>2026-04-24T13:59:32.994Z</time></trkpt><trkpt lat="44.906806058841156" lon="9.321734388819161"><ele>335.3333333333333</ele><time>2026-04-24T13:59:33.994Z</time></trkpt><trkpt lat="44.90677500059723" lon="9.321993406137752"><ele>336.0</ele><time>2026-04-24T13:59:34.994Z</time></trkpt><trkpt lat="44.906761019804726" lon="9.322217237657878"><ele>335.0</ele><time>2026-04-24T13:59:35.994Z</time></trkpt><trkpt lat="44.90674499481652" lon="9.322457763787073"><ele>334.0</ele><time>2026-04-24T13:59:36.994Z</time></trkpt><trkpt lat="44.906729900166965" lon="9.322711031699626"><ele>333.0</ele><time>2026-04-24T13:59:37.994Z</time></trkpt><trkpt lat="44.9067121623251" lon="9.322982480432538"><ele>329.6666666666667</ele><time>2026-04-24T13:59:38.994Z</time></trkpt><trkpt lat="44.90669864963567" lon="9.323218482444908"><ele>326.33333333333337</ele><time>2026-04-24T13:59:39.994Z</time></trkpt><trkpt lat="44.90668278110266" lon="9.32346358977792"><ele>323.0</ele><time>2026-04-24T13:59:40.994Z</time></trkpt><trkpt lat="44.90667066807984" lon="9.3236655128846"><ele>323.0</ele><time>2026-04-24T13:59:41.994Z</time></trkpt><trkpt lat="44.906656573951" lon="9.323881599828141"><ele>323.0</ele><time>2026-04-24T13:59:42.994Z</time></trkpt><trkpt lat="44.90663179618341" lon="9.3240484102529"><ele>323.0</ele><time>2026-04-24T13:59:43.994Z</time></trkpt><trkpt lat="44.90658253952226" lon="9.324208061106521"><ele>323.0</ele><time>2026-04-24T13:59:44.994Z</time></trkpt><trkpt lat="44.906494074386096" lon="9.324324780310402"><ele>323.25</ele><time>2026-04-24T13:59:45.994Z</time></trkpt><trkpt lat="44.90638362818258" lon="9.324430761494597"><ele>323.5</ele><time>2026-04-24T13:59:46.994Z</time></trkpt><trkpt lat="44.90624297523049" lon="9.324441328648177"><ele>323.75</ele><time>2026-04-24T13:59:47.994Z</time></trkpt><trkpt lat="44.90608755611431" lon="9.324516810866582"><ele>324.0</ele><time>2026-04-24T13:59:48.994Z</time></trkpt><trkpt lat="44.90595595854853" lon="9.324613082162601"><ele>322.5</ele><time>2026-04-24T13:59:49.994Z</time></trkpt><trkpt lat="44.90583316035644" lon="9.324717307701018"><ele>321.0</ele><time>2026-04-24T13:59:50.994Z</time></trkpt><trkpt lat="44.90572413974332" lon="9.32485687021966"><ele>319.5</ele><time>2026-04-24T13:59:51.994Z</time></trkpt><trkpt lat="44.905607925479984" lon="9.32500274321767"><ele>318.0</ele><time>2026-04-24T13:59:52.994Z</time></trkpt><trkpt lat="44.9055301399841" lon="9.32518956009407"><ele>318.0</ele><time>2026-04-24T13:59:53.994Z</time></trkpt><trkpt lat="44.90548973764395" lon="9.325393807521227"><ele>318.0</ele><time>2026-04-24T13:59:54.994Z</time></trkpt><trkpt lat="44.90548742703953" lon="9.325606762912498"><ele>318.0</ele><time>2026-04-24T13:59:55.994Z</time></trkpt><trkpt lat="44.905540232273374" lon="9.3258386313386"><ele>317.3333333333333</ele><time>2026-04-24T13:59:56.994Z</time></trkpt><trkpt lat="44.90558515229306" lon="9.32605114074971"><ele>316.66666666666663</ele><time>2026-04-24T13:59:57.994Z</time></trkpt><trkpt lat="44.90564039799286" lon="9.326255783721786"><ele>316.0</ele><time>2026-04-24T13:59:58.993Z</time></trkpt><trkpt lat="44.90572664780411" lon="9.326429027214807"><ele>315.75</ele><time>2026-04-24T13:59:59.993Z</time></trkpt><trkpt lat="44.90580208670672" lon="9.326591459593516"><ele>315.5</ele><time>2026-04-24T14:00:00.993Z</time></trkpt><trkpt lat="44.90587417227564" lon="9.326755082954438"><ele>315.25</ele><time>2026-04-24T14:00:01.993Z</time></trkpt><trkpt lat="44.90593558191043" lon="9.326917865146994"><ele>315.0</ele><time>2026-04-24T14:00:02.993Z</time></trkpt><trkpt lat="44.90600842889912" lon="9.327083452992586"><ele>313.5</ele><time>2026-04-24T14:00:03.993Z</time></trkpt><trkpt lat="44.90606530347613" lon="9.327233878492251"><ele>312.0</ele><time>2026-04-24T14:00:04.993Z</time></trkpt><trkpt lat="44.90612900045094" lon="9.327384595294001"><ele>310.5</ele><time>2026-04-24T14:00:05.993Z</time></trkpt><trkpt lat="44.906187986704744" lon="9.327550925231863"><ele>309.0</ele><time>2026-04-24T14:00:06.993Z</time></trkpt><trkpt lat="44.90629685021292" lon="9.327716398812825"><ele>309.0</ele><time>2026-04-24T14:00:07.993Z</time></trkpt><trkpt lat="44.90640191407692" lon="9.327879054708681"><ele>309.0</ele><time>2026-04-24T14:00:08.993Z</time></trkpt><trkpt lat="44.906497940581" lon="9.328059312479139"><ele>309.0</ele><time>2026-04-24T14:00:09.993Z</time></trkpt><trkpt lat="44.90655947330057" lon="9.328236588710059"><ele>308.5</ele><time>2026-04-24T14:00:10.993Z</time></trkpt><trkpt lat="44.90660175567234" lon="9.328436059109787"><ele>308.0</ele><time>2026-04-24T14:00:11.993Z</time></trkpt><trkpt lat="44.90659213501547" lon="9.328629419609367"><ele>307.5</ele><time>2026-04-24T14:00:12.993Z</time></trkpt><trkpt lat="44.90655776130892" lon="9.328815046692007"><ele>307.0</ele><time>2026-04-24T14:00:13.993Z</time></trkpt><trkpt lat="44.90653439628298" lon="9.329024100055188"><ele>306.25</ele><time>2026-04-24T14:00:14.993Z</time></trkpt><trkpt lat="44.90650686302807" lon="9.329221291622282"><ele>305.5</ele><time>2026-04-24T14:00:15.993Z</time></trkpt><trkpt lat="44.90648087498332" lon="9.329430057113317"><ele>304.75</ele><time>2026-04-24T14:00:16.993Z</time></trkpt><trkpt lat="44.90647394656936" lon="9.329632547799358"><ele>304.0</ele><time>2026-04-24T14:00:17.993Z</time></trkpt><trkpt lat="44.906497984460074" lon="9.329865005529907"><ele>305.3333333333333</ele><time>2026-04-24T14:00:18.993Z</time></trkpt><trkpt lat="44.906558679078294" lon="9.330059151366843"><ele>306.6666666666667</ele><time>2026-04-24T14:00:19.993Z</time></trkpt><trkpt lat="44.90663965762591" lon="9.330219773801094"><ele>308.0</ele><time>2026-04-24T14:00:20.993Z</time></trkpt><trkpt lat="44.90674710332797" lon="9.330387354290691"><ele>308.0</ele><time>2026-04-24T14:00:21.993Z</time></trkpt><trkpt lat="44.90685922312639" lon="9.330548974103515"><ele>308.0</ele><time>2026-04-24T14:00:22.993Z</time></trkpt><trkpt lat="44.906993158378086" lon="9.330656714802483"><ele>308.0</ele><time>2026-04-24T14:00:23.993Z</time></trkpt><trkpt lat="44.907125147943816" lon="9.33074595848104"><ele>308.0</ele><time>2026-04-24T14:00:24.993Z</time></trkpt><trkpt lat="44.90726074289757" lon="9.33082543372708"><ele>308.0</ele><time>2026-04-24T14:00:25.993Z</time></trkpt><trkpt lat="44.9074157799282" lon="9.33092161482682"><ele>308.0</ele><time>2026-04-24T14:00:26.993Z</time></trkpt><trkpt lat="44.90758189826541" lon="9.330998002200165"><ele>308.0</ele><time>2026-04-24T14:00:27.993Z</time></trkpt><trkpt lat="44.90773155608311" lon="9.331116505342827"><ele>308.0</ele><time>2026-04-24T14:00:28.993Z</time></trkpt><trkpt lat="44.90785111235212" lon="9.331274134898846"><ele>308.0</ele><time>2026-04-24T14:00:29.993Z</time></trkpt><trkpt lat="44.90797600454592" lon="9.331405288613123"><ele>302.6666666666667</ele><time>2026-04-24T14:00:30.993Z</time></trkpt><trkpt lat="44.90806874755917" lon="9.331621900539453"><ele>297.3333333333333</ele><time>2026-04-24T14:00:31.993Z</time></trkpt><trkpt lat="44.90816531309937" lon="9.331799685294511"><ele>292.0</ele><time>2026-04-24T14:00:32.993Z</time></trkpt><trkpt lat="44.908243948734636" lon="9.331989488901241"><ele>292.0</ele><time>2026-04-24T14:00:33.993Z</time></trkpt><trkpt lat="44.908359362044685" lon="9.332142318378414"><ele>292.0</ele><time>2026-04-24T14:00:35Z</time></trkpt><trkpt lat="44.90845552028478" lon="9.332313057369609"><ele>292.0</ele><time>2026-04-24T14:00:36Z</time></trkpt><trkpt lat="44.90855605634139" lon="9.332455351173355"><ele>291.0</ele><time>2026-04-24T14:00:37Z</time></trkpt><trkpt lat="44.90866711356944" lon="9.332569576393396"><ele>290.0</ele><time>2026-04-24T14:00:38Z</time></trkpt><trkpt lat="44.908764319371414" lon="9.33268713436587"><ele>289.0</ele><time>2026-04-24T14:00:39Z</time></trkpt><trkpt lat="44.90887008347355" lon="9.332821767474822"><ele>288.0</ele><time>2026-04-24T14:00:40Z</time></trkpt><trkpt lat="44.90896109231504" lon="9.332968219030601"><ele>288.5</ele><time>2026-04-24T14:00:41Z</time></trkpt><trkpt lat="44.90906171078284" lon="9.333104059577737"><ele>289.0</ele><time>2026-04-24T14:00:42Z</time></trkpt><trkpt lat="44.909148495619796" lon="9.33325385103013"><ele>289.5</ele><time>2026-04-24T14:00:43Z</time></trkpt><trkpt lat="44.90927816825019" lon="9.333378391081881"><ele>290.0</ele><time>2026-04-24T14:00:44Z</time></trkpt><trkpt lat="44.90939048829497" lon="9.333529594073603"><ele>290.0</ele><time>2026-04-24T14:00:45Z</time></trkpt><trkpt lat="44.90950054856294" lon="9.33367795739218"><ele>290.0</ele><time>2026-04-24T14:00:46Z</time></trkpt><trkpt lat="44.90960728612539" lon="9.333849224316879"><ele>290.0</ele><time>2026-04-24T14:00:47Z</time></trkpt><trkpt lat="44.909721190080475" lon="9.3339736841484"><ele>288.25</ele><time>2026-04-24T14:00:48Z</time></trkpt><trkpt lat="44.90983820160094" lon="9.334142514102469"><ele>286.5</ele><time>2026-04-24T14:00:49Z</time></trkpt><trkpt lat="44.90993295831469" lon="9.334278791827552"><ele>284.75</ele><time>2026-04-24T14:00:50Z</time></trkpt><trkpt lat="44.91000883947853" lon="9.334441014231423"><ele>283.0</ele><time>2026-04-24T14:00:51Z</time></trkpt><trkpt lat="44.910085162263556" lon="9.334592727755158"><ele>282.5</ele><time>2026-04-24T14:00:52Z</time></trkpt><trkpt lat="44.91012678011327" lon="9.334787726494103"><ele>282.0</ele><time>2026-04-24T14:00:53Z</time></trkpt><trkpt lat="44.91012625616349" lon="9.334925846471"><ele>281.5</ele><time>2026-04-24T14:00:54Z</time></trkpt><trkpt lat="44.91005654450637" lon="9.335137269001429"><ele>281.0</ele><time>2026-04-24T14:00:55Z</time></trkpt><trkpt lat="44.91001286873048" lon="9.335323193871673"><ele>281.0</ele><time>2026-04-24T14:00:56Z</time></trkpt><trkpt lat="44.9099802197905" lon="9.335533328099423"><ele>281.0</ele><time>2026-04-24T14:00:57Z</time></trkpt><trkpt lat="44.90993641269611" lon="9.335744715567499"><ele>281.0</ele><time>2026-04-24T14:00:58Z</time></trkpt><trkpt lat="44.90989475761543" lon="9.335933842051375"><ele>281.0</ele><time>2026-04-24T14:00:59Z</time></trkpt><trkpt lat="44.909904821402" lon="9.336137831243569"><ele>281.0</ele><time>2026-04-24T14:01:00Z</time></trkpt><trkpt lat="44.9099162174898" lon="9.33632005901836"><ele>281.0</ele><time>2026-04-24T14:01:01Z</time></trkpt><trkpt lat="44.90993988304763" lon="9.336536106383784"><ele>281.0</ele><time>2026-04-24T14:01:02Z</time></trkpt><trkpt lat="44.90998242290632" lon="9.336733957536946"><ele>281.0</ele><time>2026-04-24T14:01:03Z</time></trkpt><trkpt lat="44.91002152105928" lon="9.3369187866511"><ele>282.0</ele><time>2026-04-24T14:01:04Z</time></trkpt><trkpt lat="44.91008778442766" lon="9.337115815247783"><ele>283.0</ele><time>2026-04-24T14:01:05Z</time></trkpt><trkpt lat="44.91016729269806" lon="9.337282430247637"><ele>284.0</ele><time>2026-04-24T14:01:06Z</time></trkpt><trkpt lat="44.91023942794104" lon="9.337491468961687"><ele>284.0</ele><time>2026-04-24T14:01:07Z</time></trkpt><trkpt lat="44.91029477798671" lon="9.337696771988698"><ele>284.0</ele><time>2026-04-24T14:01:08Z</time></trkpt><trkpt lat="44.910387053839116" lon="9.337881090052395"><ele>284.0</ele><time>2026-04-24T14:01:09Z</time></trkpt><trkpt lat="44.91049662784144" lon="9.33807008869278"><ele>282.6666666666667</ele><time>2026-04-24T14:01:10Z</time></trkpt><trkpt lat="44.910683270228354" lon="9.338208265611332"><ele>281.3333333333333</ele><time>2026-04-24T14:01:11Z</time></trkpt><trkpt lat="44.910835257611765" lon="9.338360375982425"><ele>280.0</ele><time>2026-04-24T14:01:12Z</time></trkpt><trkpt lat="44.910973300994044" lon="9.338486875638196"><ele>280.0</ele><time>2026-04-24T14:01:13Z</time></trkpt><trkpt lat="44.91111245946872" lon="9.338646765435666"><ele>280.0</ele><time>2026-04-24T14:01:14Z</time></trkpt><trkpt lat="44.911337771490196" lon="9.338801821538043"><ele>280.0</ele><time>2026-04-24T14:01:14.999Z</time></trkpt><trkpt lat="44.911540019140816" lon="9.33896038606726"><ele>280.0</ele><time>2026-04-24T14:01:15.999Z</time></trkpt><trkpt lat="44.91167988916787" lon="9.339090179934466"><ele>280.0</ele><time>2026-04-24T14:01:16.999Z</time></trkpt><trkpt lat="44.911857997621006" lon="9.33927438927293"><ele>280.0</ele><time>2026-04-24T14:01:17.999Z</time></trkpt><trkpt lat="44.9120130194688" lon="9.339457130155568"><ele>280.0</ele><time>2026-04-24T14:01:18.999Z</time></trkpt><trkpt lat="44.91214562669698" lon="9.339685712110024"><ele>280.0</ele><time>2026-04-24T14:01:19.999Z</time></trkpt><trkpt lat="44.91226978611643" lon="9.339856302761206"><ele>280.0</ele><time>2026-04-24T14:01:20.999Z</time></trkpt><trkpt lat="44.91239980016928" lon="9.340088340956205"><ele>281.66666666666663</ele><time>2026-04-24T14:01:21.999Z</time></trkpt><trkpt lat="44.91253468602853" lon="9.340327313187675"><ele>283.3333333333333</ele><time>2026-04-24T14:01:22.999Z</time></trkpt><trkpt lat="44.91265675345162" lon="9.340548560634458"><ele>285.0</ele><time>2026-04-24T14:01:23.999Z</time></trkpt><trkpt lat="44.91277979341466" lon="9.340765190451497"><ele>281.6666666666667</ele><time>2026-04-24T14:01:24.999Z</time></trkpt><trkpt lat="44.91288678928456" lon="9.34099224430214"><ele>278.33333333333337</ele><time>2026-04-24T14:01:25.999Z</time></trkpt><trkpt lat="44.91300693008442" lon="9.341229913884312"><ele>275.0</ele><time>2026-04-24T14:01:26.999Z</time></trkpt><trkpt lat="44.91312983645972" lon="9.341455319923085"><ele>273.33333333333337</ele><time>2026-04-24T14:01:27.999Z</time></trkpt><trkpt lat="44.91324880527039" lon="9.341667246731985"><ele>271.6666666666667</ele><time>2026-04-24T14:01:28.999Z</time></trkpt><trkpt lat="44.91337780182228" lon="9.341875763753137"><ele>270.0</ele><time>2026-04-24T14:01:29.999Z</time></trkpt><trkpt lat="44.913514185147704" lon="9.342101463987163"><ele>268.0</ele><time>2026-04-24T14:01:30.999Z</time></trkpt><trkpt lat="44.91364550036855" lon="9.342301197111839"><ele>266.0</ele><time>2026-04-24T14:01:31.999Z</time></trkpt><trkpt lat="44.91378138955446" lon="9.342510565274402"><ele>264.0</ele><time>2026-04-24T14:01:32.999Z</time></trkpt><trkpt lat="44.913880469461894" lon="9.342745862789185"><ele>264.0</ele><time>2026-04-24T14:01:33.999Z</time></trkpt><trkpt lat="44.91400215460106" lon="9.34295876686158"><ele>264.0</ele><time>2026-04-24T14:01:34.999Z</time></trkpt><trkpt lat="44.91411927793256" lon="9.343173863393476"><ele>264.0</ele><time>2026-04-24T14:01:35.999Z</time></trkpt><trkpt lat="44.914235889937935" lon="9.34335885920095"><ele>266.0</ele><time>2026-04-24T14:01:36.999Z</time></trkpt><trkpt lat="44.91436209060304" lon="9.343565732119467"><ele>268.0</ele><time>2026-04-24T14:01:37.999Z</time></trkpt><trkpt lat="44.91450712710554" lon="9.343766858999928"><ele>270.0</ele><time>2026-04-24T14:01:38.999Z</time></trkpt><trkpt lat="44.91462372817278" lon="9.344018019772186"><ele>270.0</ele><time>2026-04-24T14:01:39.999Z</time></trkpt><trkpt lat="44.91473575806955" lon="9.344265026066418"><ele>270.0</ele><time>2026-04-24T14:01:40.999Z</time></trkpt><trkpt lat="44.914848959521144" lon="9.344483285044095"><ele>270.0</ele><time>2026-04-24T14:01:41.999Z</time></trkpt><trkpt lat="44.91496365124344" lon="9.344704132412291"><ele>270.3333333333333</ele><time>2026-04-24T14:01:42.999Z</time></trkpt><trkpt lat="44.91507169767888" lon="9.344914933159366"><ele>270.66666666666663</ele><time>2026-04-24T14:01:43.999Z</time></trkpt><trkpt lat="44.91519972708445" lon="9.345204921373362"><ele>271.0</ele><time>2026-04-24T14:01:44.999Z</time></trkpt><trkpt lat="44.91532248798762" lon="9.345384381050902"><ele>267.66666666666663</ele><time>2026-04-24T14:01:45.999Z</time></trkpt><trkpt lat="44.915484795405824" lon="9.345592572103543"><ele>264.3333333333333</ele><time>2026-04-24T14:01:46.999Z</time></trkpt><trkpt lat="44.91564450952324" lon="9.34571036514229"><ele>261.0</ele><time>2026-04-24T14:01:47.999Z</time></trkpt><trkpt lat="44.91580802461171" lon="9.345852239285533"><ele>265.0</ele><time>2026-04-24T14:01:48.999Z</time></trkpt><trkpt lat="44.915964999790056" lon="9.345983670113247"><ele>269.0</ele><time>2026-04-24T14:01:49.999Z</time></trkpt><trkpt lat="44.91612493658405" lon="9.346044556173771"><ele>273.0</ele><time>2026-04-24T14:01:50.999Z</time></trkpt><trkpt lat="44.916246468852876" lon="9.34617885152186"><ele>270.6666666666667</ele><time>2026-04-24T14:01:51.999Z</time></trkpt><trkpt lat="44.91636739752263" lon="9.346384153737944"><ele>268.33333333333337</ele><time>2026-04-24T14:01:52.999Z</time></trkpt><trkpt lat="44.91647982336659" lon="9.34655685222049"><ele>266.0</ele><time>2026-04-24T14:01:53.999Z</time></trkpt><trkpt lat="44.91659205770495" lon="9.346738485038884"><ele>266.0</ele><time>2026-04-24T14:01:54.999Z</time></trkpt><trkpt lat="44.916708676941894" lon="9.346928827352277"><ele>266.0</ele><time>2026-04-24T14:01:55.999Z</time></trkpt><trkpt lat="44.91682477054244" lon="9.347104669092808"><ele>266.0</ele><time>2026-04-24T14:01:56.999Z</time></trkpt><trkpt lat="44.91694309944093" lon="9.347277026140384"><ele>268.33333333333337</ele><time>2026-04-24T14:01:57.999Z</time></trkpt><trkpt lat="44.917062146970416" lon="9.347469606994933"><ele>270.6666666666667</ele><time>2026-04-24T14:01:58.999Z</time></trkpt><trkpt lat="44.917185433344216" lon="9.347679326021485"><ele>273.0</ele><time>2026-04-24T14:01:59.999Z</time></trkpt><trkpt lat="44.91730013847587" lon="9.347817284716005"><ele>273.0</ele><time>2026-04-24T14:02:00.999Z</time></trkpt><trkpt lat="44.917379452942114" lon="9.34801284871182"><ele>273.0</ele><time>2026-04-24T14:02:01.999Z</time></trkpt><trkpt lat="44.91744238702558" lon="9.348216015810145"><ele>273.0</ele><time>2026-04-24T14:02:02.999Z</time></trkpt><trkpt lat="44.91748323754602" lon="9.348472487480635"><ele>271.0</ele><time>2026-04-24T14:02:03.999Z</time></trkpt><trkpt lat="44.917502626977644" lon="9.348726389730821"><ele>269.0</ele><time>2026-04-24T14:02:04.999Z</time></trkpt><trkpt lat="44.91752669125689" lon="9.348995199083545"><ele>267.0</ele><time>2026-04-24T14:02:05.999Z</time></trkpt><trkpt lat="44.91756135782966" lon="9.349258129143164"><ele>271.6666666666667</ele><time>2026-04-24T14:02:06.999Z</time></trkpt><trkpt lat="44.91757989531455" lon="9.349509323908848"><ele>276.33333333333337</ele><time>2026-04-24T14:02:07.999Z</time></trkpt><trkpt lat="44.917618696460714" lon="9.34977764403297"><ele>281.0</ele><time>2026-04-24T14:02:08.999Z</time></trkpt><trkpt lat="44.917661447888605" lon="9.350046088410462"><ele>280.6666666666667</ele><time>2026-04-24T14:02:09.999Z</time></trkpt><trkpt lat="44.917707471031086" lon="9.350273410776847"><ele>280.3333333333333</ele><time>2026-04-24T14:02:10.999Z</time></trkpt><trkpt lat="44.91771931794865" lon="9.350521312938135"><ele>280.0</ele><time>2026-04-24T14:02:11.999Z</time></trkpt><trkpt lat="44.91771644831312" lon="9.35077673782877"><ele>280.0</ele><time>2026-04-24T14:02:12.999Z</time></trkpt><trkpt lat="44.91771462736358" lon="9.351025684221565"><ele>280.0</ele><time>2026-04-24T14:02:13.998Z</time></trkpt><trkpt lat="44.91763862461661" lon="9.35126086855814"><ele>280.0</ele><time>2026-04-24T14:02:14.998Z</time></trkpt><trkpt lat="44.91758738882568" lon="9.351476750511667"><ele>278.3333333333333</ele><time>2026-04-24T14:02:15.998Z</time></trkpt><trkpt lat="44.91758798379443" lon="9.35171161153612"><ele>276.6666666666667</ele><time>2026-04-24T14:02:16.998Z</time></trkpt><trkpt lat="44.91758098831077" lon="9.35192333925077"><ele>275.0</ele><time>2026-04-24T14:02:17.998Z</time></trkpt><trkpt lat="44.91756362500461" lon="9.352158079935226"><ele>272.6666666666667</ele><time>2026-04-24T14:02:18.998Z</time></trkpt><trkpt lat="44.91759955583927" lon="9.352378039611352"><ele>270.3333333333333</ele><time>2026-04-24T14:02:19.998Z</time></trkpt><trkpt lat="44.917639793457745" lon="9.352586380635415"><ele>268.0</ele><time>2026-04-24T14:02:20.998Z</time></trkpt><trkpt lat="44.91774318578683" lon="9.35276254747068"><ele>268.0</ele><time>2026-04-24T14:02:21.998Z</time></trkpt><trkpt lat="44.917855823927965" lon="9.352968426021775"><ele>268.0</ele><time>2026-04-24T14:02:22.998Z</time></trkpt><trkpt lat="44.91797183398124" lon="9.353147060150445"><ele>268.0</ele><time>2026-04-24T14:02:23.998Z</time></trkpt><trkpt lat="44.91807205062972" lon="9.353327681593367"><ele>266.66666666666663</ele><time>2026-04-24T14:02:24.998Z</time></trkpt><trkpt lat="44.91815725798637" lon="9.353544280646751"><ele>265.3333333333333</ele><time>2026-04-24T14:02:25.998Z</time></trkpt><trkpt lat="44.918235781408384" lon="9.353725600376269"><ele>264.0</ele><time>2026-04-24T14:02:26.998Z</time></trkpt><trkpt lat="44.91832306645234" lon="9.353898959050595"><ele>268.0</ele><time>2026-04-24T14:02:27.998Z</time></trkpt><trkpt lat="44.918418912065434" lon="9.354076214183767"><ele>272.0</ele><time>2026-04-24T14:02:28.998Z</time></trkpt><trkpt lat="44.91851069264559" lon="9.354245452510785"><ele>276.0</ele><time>2026-04-24T14:02:29.998Z</time></trkpt><trkpt lat="44.91860118056431" lon="9.354427937261395"><ele>276.0</ele><time>2026-04-24T14:02:30.998Z</time></trkpt><trkpt lat="44.918698617177164" lon="9.354621526547922"><ele>276.0</ele><time>2026-04-24T14:02:31.998Z</time></trkpt><trkpt lat="44.91875501741978" lon="9.35484896107735"><ele>276.0</ele><time>2026-04-24T14:02:32.998Z</time></trkpt><trkpt lat="44.918740094569834" lon="9.355054048068167"><ele>272.3333333333333</ele><time>2026-04-24T14:02:33.998Z</time></trkpt><trkpt lat="44.91872467121563" lon="9.355281772252967"><ele>268.66666666666663</ele><time>2026-04-24T14:02:34.998Z</time></trkpt><trkpt lat="44.918720544769215" lon="9.355502321993415"><ele>265.0</ele><time>2026-04-24T14:02:35.998Z</time></trkpt><trkpt lat="44.918742455763244" lon="9.355732613634396"><ele>262.3333333333333</ele><time>2026-04-24T14:02:36.998Z</time></trkpt><trkpt lat="44.918759383740905" lon="9.355967886547624"><ele>259.6666666666667</ele><time>2026-04-24T14:02:37.998Z</time></trkpt><trkpt lat="44.91877357444219" lon="9.356192018317088"><ele>257.0</ele><time>2026-04-24T14:02:38.998Z</time></trkpt><trkpt lat="44.918784957711175" lon="9.356435347121145"><ele>256.6666666666667</ele><time>2026-04-24T14:02:39.998Z</time></trkpt><trkpt lat="44.918819028949734" lon="9.356665107301998"><ele>256.3333333333333</ele><time>2026-04-24T14:02:40.998Z</time></trkpt><trkpt lat="44.918870700184264" lon="9.35687625829624"><ele>256.0</ele><time>2026-04-24T14:02:41.998Z</time></trkpt><trkpt lat="44.91895033213553" lon="9.35708875271114"><ele>255.66666666666666</ele><time>2026-04-24T14:02:42.998Z</time></trkpt><trkpt lat="44.91901402676095" lon="9.357310685631935"><ele>255.33333333333331</ele><time>2026-04-24T14:02:43.998Z</time></trkpt><trkpt lat="44.91907275524076" lon="9.357489401476078"><ele>255.0</ele><time>2026-04-24T14:02:44.998Z</time></trkpt><trkpt lat="44.91912785437776" lon="9.35770890501014"><ele>255.0</ele><time>2026-04-24T14:02:45.998Z</time></trkpt><trkpt lat="44.919141132932396" lon="9.35797894514162"><ele>255.0</ele><time>2026-04-24T14:02:46.998Z</time></trkpt><trkpt lat="44.91922034883408" lon="9.358208164608365"><ele>255.0</ele><time>2026-04-24T14:02:47.998Z</time></trkpt><trkpt lat="44.91929601136289" lon="9.358413576035293"><ele>258.0</ele><time>2026-04-24T14:02:48.998Z</time></trkpt><trkpt lat="44.91938655396175" lon="9.358616104260527"><ele>261.0</ele><time>2026-04-24T14:02:49.998Z</time></trkpt><trkpt lat="44.91945318599645" lon="9.358835390857674"><ele>264.0</ele><time>2026-04-24T14:02:50.998Z</time></trkpt><trkpt lat="44.91951635133563" lon="9.359072914279615"><ele>264.0</ele><time>2026-04-24T14:02:51.998Z</time></trkpt><trkpt lat="44.91955514300968" lon="9.359308128854346"><ele>264.0</ele><time>2026-04-24T14:02:52.998Z</time></trkpt><trkpt lat="44.91958533336965" lon="9.359540892868825"><ele>264.0</ele><time>2026-04-24T14:02:53.998Z</time></trkpt><trkpt lat="44.919630061852146" lon="9.359765059552638"><ele>262.0</ele><time>2026-04-24T14:02:54.998Z</time></trkpt><trkpt lat="44.91968489276869" lon="9.359960180623142"><ele>260.0</ele><time>2026-04-24T14:02:55.998Z</time></trkpt><trkpt lat="44.9197383066747" lon="9.360154986642357"><ele>258.0</ele><time>2026-04-24T14:02:56.998Z</time></trkpt><trkpt lat="44.919827341306004" lon="9.360328074672752"><ele>256.0</ele><time>2026-04-24T14:02:57.998Z</time></trkpt><trkpt lat="44.91994716871995" lon="9.360512754264567"><ele>255.0</ele><time>2026-04-24T14:02:58.998Z</time></trkpt><trkpt lat="44.92008458818509" lon="9.360678407974415"><ele>254.0</ele><time>2026-04-24T14:02:59.998Z</time></trkpt><trkpt lat="44.92020870917834" lon="9.360868431064205"><ele>253.0</ele><time>2026-04-24T14:03:00.998Z</time></trkpt><trkpt lat="44.9203375554653" lon="9.361018143944765"><ele>253.0</ele><time>2026-04-24T14:03:01.998Z</time></trkpt><trkpt lat="44.92049437672405" lon="9.361158069558536"><ele>253.0</ele><time>2026-04-24T14:03:02.998Z</time></trkpt><trkpt lat="44.920603307687664" lon="9.361374600361914"><ele>253.0</ele><time>2026-04-24T14:03:03.998Z</time></trkpt><trkpt lat="44.92072696233918" lon="9.361566535526116"><ele>253.0</ele><time>2026-04-24T14:03:04.998Z</time></trkpt><trkpt lat="44.920811315134245" lon="9.36179532768976"><ele>253.0</ele><time>2026-04-24T14:03:05.998Z</time></trkpt><trkpt lat="44.920851603077296" lon="9.362046633308756"><ele>253.0</ele><time>2026-04-24T14:03:06.998Z</time></trkpt><trkpt lat="44.92092351907902" lon="9.362272064383697"><ele>253.0</ele><time>2026-04-24T14:03:07.998Z</time></trkpt><trkpt lat="44.92101193585136" lon="9.362476992425156"><ele>253.0</ele><time>2026-04-24T14:03:08.998Z</time></trkpt><trkpt lat="44.92110898283129" lon="9.362676334795134"><ele>253.0</ele><time>2026-04-24T14:03:09.998Z</time></trkpt><trkpt lat="44.92120750883428" lon="9.362849101597403"><ele>253.0</ele><time>2026-04-24T14:03:10.997Z</time></trkpt><trkpt lat="44.921321784942215" lon="9.363002575166224"><ele>253.0</ele><time>2026-04-24T14:03:11.997Z</time></trkpt><trkpt lat="44.92145964940847" lon="9.363177781101259"><ele>253.0</ele><time>2026-04-24T14:03:12.997Z</time></trkpt><trkpt lat="44.921589277177134" lon="9.363322407668846"><ele>251.0</ele><time>2026-04-24T14:03:13.997Z</time></trkpt><trkpt lat="44.921737085871534" lon="9.363474581895701"><ele>249.0</ele><time>2026-04-24T14:03:14.997Z</time></trkpt><trkpt lat="44.92193422006446" lon="9.363573396121918"><ele>247.0</ele><time>2026-04-24T14:03:15.997Z</time></trkpt><trkpt lat="44.92211103715004" lon="9.363629252731746"><ele>247.0</ele><time>2026-04-24T14:03:16.997Z</time></trkpt><trkpt lat="44.922291761816865" lon="9.363681235297372"><ele>247.0</ele><time>2026-04-24T14:03:17.997Z</time></trkpt><trkpt lat="44.92246276101239" lon="9.363744017259044"><ele>247.0</ele><time>2026-04-24T14:03:18.997Z</time></trkpt><trkpt lat="44.92261770399567" lon="9.363839164117826"><ele>247.66666666666666</ele><time>2026-04-24T14:03:19.997Z</time></trkpt><trkpt lat="44.922767458297386" lon="9.363941038732815"><ele>248.33333333333331</ele><time>2026-04-24T14:03:20.997Z</time></trkpt><trkpt lat="44.92288827734034" lon="9.364093664338453"><ele>249.0</ele><time>2026-04-24T14:03:21.997Z</time></trkpt><trkpt lat="44.92302098648225" lon="9.364331402475498"><ele>249.0</ele><time>2026-04-24T14:03:22.997Z</time></trkpt><trkpt lat="44.92310956354272" lon="9.364547705998854"><ele>249.0</ele><time>2026-04-24T14:03:23.997Z</time></trkpt><trkpt lat="44.92323145257927" lon="9.364750027469057"><ele>249.0</ele><time>2026-04-24T14:03:24.997Z</time></trkpt><trkpt lat="44.92334478598843" lon="9.36494671930121"><ele>250.66666666666669</ele><time>2026-04-24T14:03:25.997Z</time></trkpt><trkpt lat="44.923473417434515" lon="9.36515262847141"><ele>252.33333333333334</ele><time>2026-04-24T14:03:26.997Z</time></trkpt><trkpt lat="44.923587653775066" lon="9.365360273174092"><ele>254.0</ele><time>2026-04-24T14:03:27.997Z</time></trkpt><trkpt lat="44.92368388370801" lon="9.365549159732817"><ele>254.0</ele><time>2026-04-24T14:03:28.997Z</time></trkpt><trkpt lat="44.923789678034204" lon="9.365744412797333"><ele>254.0</ele><time>2026-04-24T14:03:29.997Z</time></trkpt><trkpt lat="44.9238848832037" lon="9.365948438697771"><ele>254.0</ele><time>2026-04-24T14:03:30.997Z</time></trkpt><trkpt lat="44.923965926824465" lon="9.366186192849298"><ele>253.33333333333334</ele><time>2026-04-24T14:03:31.997Z</time></trkpt><trkpt lat="44.92404029535727" lon="9.366398280316107"><ele>252.66666666666669</ele><time>2026-04-24T14:03:32.997Z</time></trkpt><trkpt lat="44.92406841155046" lon="9.366690667061862"><ele>252.0</ele><time>2026-04-24T14:03:33.997Z</time></trkpt><trkpt lat="44.92409418203765" lon="9.366950618422758"><ele>250.66666666666669</ele><time>2026-04-24T14:03:34.997Z</time></trkpt><trkpt lat="44.92414446430449" lon="9.367200422832486"><ele>249.33333333333334</ele><time>2026-04-24T14:03:35.997Z</time></trkpt><trkpt lat="44.92420159630434" lon="9.367450167043735"><ele>248.0</ele><time>2026-04-24T14:03:36.997Z</time></trkpt><trkpt lat="44.92424779687774" lon="9.367686505860103"><ele>253.33333333333334</ele><time>2026-04-24T14:03:37.997Z</time></trkpt><trkpt lat="44.92428011243735" lon="9.367937657461313"><ele>258.6666666666667</ele><time>2026-04-24T14:03:38.997Z</time></trkpt><trkpt lat="44.92430277052208" lon="9.368191588790895"><ele>264.0</ele><time>2026-04-24T14:03:39.997Z</time></trkpt><trkpt lat="44.924325946615745" lon="9.368432268338898"><ele>264.0</ele><time>2026-04-24T14:03:40.997Z</time></trkpt><trkpt lat="44.92434205718711" lon="9.36866927373962"><ele>264.0</ele><time>2026-04-24T14:03:41.997Z</time></trkpt><trkpt lat="44.92436938547183" lon="9.36891031000614"><ele>264.0</ele><time>2026-04-24T14:03:42.997Z</time></trkpt><trkpt lat="44.92440507283811" lon="9.369150340754258"><ele>262.6666666666667</ele><time>2026-04-24T14:03:43.997Z</time></trkpt><trkpt lat="44.92444647270407" lon="9.369382894146995"><ele>261.33333333333337</ele><time>2026-04-24T14:03:44.997Z</time></trkpt><trkpt lat="44.92450297490708" lon="9.369608090459929"><ele>260.0</ele><time>2026-04-24T14:03:45.997Z</time></trkpt><trkpt lat="44.92456290769043" lon="9.36985767616096"><ele>256.6666666666667</ele><time>2026-04-24T14:03:46.997Z</time></trkpt><trkpt lat="44.924632044929275" lon="9.3700869829023"><ele>253.33333333333331</ele><time>2026-04-24T14:03:47.997Z</time></trkpt><trkpt lat="44.924728178925584" lon="9.370281226240014"><ele>250.0</ele><time>2026-04-24T14:03:48.997Z</time></trkpt><trkpt lat="44.92483415459025" lon="9.370444258110705"><ele>249.33333333333331</ele><time>2026-04-24T14:03:49.997Z</time></trkpt><trkpt lat="44.92498085756936" lon="9.370606941142755"><ele>248.66666666666669</ele><time>2026-04-24T14:03:50.997Z</time></trkpt><trkpt lat="44.925128228937645" lon="9.370747854945007"><ele>248.0</ele><time>2026-04-24T14:03:51.997Z</time></trkpt><trkpt lat="44.92528848578563" lon="9.370860169860391"><ele>248.0</ele><time>2026-04-24T14:03:52.997Z</time></trkpt><trkpt lat="44.92549630216905" lon="9.370888776893052"><ele>248.0</ele><time>2026-04-24T14:03:53.997Z</time></trkpt><trkpt lat="44.92568257885794" lon="9.370959992698712"><ele>248.0</ele><time>2026-04-24T14:03:54.997Z</time></trkpt><trkpt lat="44.925863632134956" lon="9.37089671248101"><ele>247.0</ele><time>2026-04-24T14:03:55.997Z</time></trkpt><trkpt lat="44.926048752707985" lon="9.370796398947512"><ele>246.0</ele><time>2026-04-24T14:03:56.997Z</time></trkpt><trkpt lat="44.92623689089461" lon="9.370785070082794"><ele>245.0</ele><time>2026-04-24T14:03:57.997Z</time></trkpt><trkpt lat="44.92644129470252" lon="9.370798646130908"><ele>245.0</ele><time>2026-04-24T14:03:58.997Z</time></trkpt><trkpt lat="44.92664195636958" lon="9.370793465398569"><ele>245.0</ele><time>2026-04-24T14:03:59.997Z</time></trkpt><trkpt lat="44.926837315990014" lon="9.370802311798787"><ele>245.0</ele><time>2026-04-24T14:04:00.997Z</time></trkpt><trkpt lat="44.92704235520237" lon="9.370788373902577"><ele>245.33333333333334</ele><time>2026-04-24T14:04:01.997Z</time></trkpt><trkpt lat="44.92724989030206" lon="9.370805880522667"><ele>245.66666666666669</ele><time>2026-04-24T14:04:02.997Z</time></trkpt><trkpt lat="44.92743623389718" lon="9.370847026298577"><ele>246.0</ele><time>2026-04-24T14:04:03.997Z</time></trkpt><trkpt lat="44.9276157912268" lon="9.370895154014999"><ele>246.66666666666669</ele><time>2026-04-24T14:04:04.997Z</time></trkpt><trkpt lat="44.9278013725581" lon="9.370954836095045"><ele>247.33333333333334</ele><time>2026-04-24T14:04:05.997Z</time></trkpt><trkpt lat="44.92798594062056" lon="9.371016682797407"><ele>248.0</ele><time>2026-04-24T14:04:06.996Z</time></trkpt><trkpt lat="44.92819521222895" lon="9.371063377908216"><ele>248.0</ele><time>2026-04-24T14:04:07.996Z</time></trkpt><trkpt lat="44.9283928768013" lon="9.371115765664243"><ele>248.0</ele><time>2026-04-24T14:04:08.996Z</time></trkpt><trkpt lat="44.92858529156901" lon="9.371167301377321"><ele>248.0</ele><time>2026-04-24T14:04:09.996Z</time></trkpt><trkpt lat="44.928796429069585" lon="9.371206718668459"><ele>248.33333333333334</ele><time>2026-04-24T14:04:10.996Z</time></trkpt><trkpt lat="44.92901214834339" lon="9.371242575974465"><ele>248.66666666666669</ele><time>2026-04-24T14:04:11.996Z</time></trkpt><trkpt lat="44.929205537247796" lon="9.371267387001467"><ele>249.0</ele><time>2026-04-24T14:04:12.996Z</time></trkpt><trkpt lat="44.92939494525405" lon="9.371329040103845"><ele>250.0</ele><time>2026-04-24T14:04:13.996Z</time></trkpt><trkpt lat="44.92958449768857" lon="9.371337124710184"><ele>251.0</ele><time>2026-04-24T14:04:14.996Z</time></trkpt><trkpt lat="44.92974038346716" lon="9.371293937136796"><ele>252.0</ele><time>2026-04-24T14:04:15.996Z</time></trkpt><trkpt lat="44.92988632418781" lon="9.371313569700867"><ele>250.75</ele><time>2026-04-24T14:04:16.996Z</time></trkpt><trkpt lat="44.930017434003155" lon="9.37137802770175"><ele>249.5</ele><time>2026-04-24T14:04:17.996Z</time></trkpt><trkpt lat="44.9301511709735" lon="9.371457626215154"><ele>248.25</ele><time>2026-04-24T14:04:18.996Z</time></trkpt><trkpt lat="44.9302928510383" lon="9.371539753365465"><ele>247.0</ele><time>2026-04-24T14:04:19.996Z</time></trkpt><trkpt lat="44.930441031663754" lon="9.371642510402983"><ele>247.0</ele><time>2026-04-24T14:04:20.996Z</time></trkpt><trkpt lat="44.93059493358689" lon="9.371680688648274"><ele>247.0</ele><time>2026-04-24T14:04:21.996Z</time></trkpt><trkpt lat="44.93076915302914" lon="9.371679090084362"><ele>247.0</ele><time>2026-04-24T14:04:22.996Z</time></trkpt><trkpt lat="44.930940438611714" lon="9.371613962080707"><ele>247.0</ele><time>2026-04-24T14:04:23.996Z</time></trkpt><trkpt lat="44.9311106979218" lon="9.371615805419125"><ele>247.0</ele><time>2026-04-24T14:04:24.996Z</time></trkpt><trkpt lat="44.9312486670556" lon="9.371698133146104"><ele>247.0</ele><time>2026-04-24T14:04:25.996Z</time></trkpt><trkpt lat="44.93138387512375" lon="9.371815735096318"><ele>247.0</ele><time>2026-04-24T14:04:26.996Z</time></trkpt><trkpt lat="44.931495809732944" lon="9.37198310985543"><ele>247.0</ele><time>2026-04-24T14:04:27.996Z</time></trkpt><trkpt lat="44.93159373528374" lon="9.372172140301949"><ele>247.0</ele><time>2026-04-24T14:04:28.996Z</time></trkpt><trkpt lat="44.93171040932099" lon="9.37232047589221"><ele>244.66666666666666</ele><time>2026-04-24T14:04:29.996Z</time></trkpt><trkpt lat="44.931853982815824" lon="9.37242205763073"><ele>242.33333333333331</ele><time>2026-04-24T14:04:30.996Z</time></trkpt><trkpt lat="44.93202110563755" lon="9.372460207394411"><ele>240.0</ele><time>2026-04-24T14:04:31.996Z</time></trkpt><trkpt lat="44.93219116957592" lon="9.372512442293216"><ele>240.0</ele><time>2026-04-24T14:04:32.996Z</time></trkpt><trkpt lat="44.93238021503818" lon="9.372483799766158"><ele>240.0</ele><time>2026-04-24T14:04:33.996Z</time></trkpt><trkpt lat="44.9325628964263" lon="9.372446417027417"><ele>240.0</ele><time>2026-04-24T14:04:34.996Z</time></trkpt><trkpt lat="44.93274718398877" lon="9.372425367048764"><ele>240.33333333333331</ele><time>2026-04-24T14:04:35.996Z</time></trkpt><trkpt lat="44.93293039210105" lon="9.372424469305908"><ele>240.66666666666666</ele><time>2026-04-24T14:04:36.996Z</time></trkpt><trkpt lat="44.93308214668269" lon="9.372467067263452"><ele>241.0</ele><time>2026-04-24T14:04:37.996Z</time></trkpt><trkpt lat="44.93322595342842" lon="9.372461874438036"><ele>241.0</ele><time>2026-04-24T14:04:38.996Z</time></trkpt><trkpt lat="44.93335908413169" lon="9.372487179012808"><ele>241.0</ele><time>2026-04-24T14:04:39.996Z</time></trkpt><trkpt lat="44.9334762251537" lon="9.372513198736426"><ele>241.0</ele><time>2026-04-24T14:04:40.996Z</time></trkpt><trkpt lat="44.93358846244679" lon="9.37265180392983"><ele>241.0</ele><time>2026-04-24T14:04:41.996Z</time></trkpt><trkpt lat="44.93370739816982" lon="9.372809513273776"><ele>241.66666666666666</ele><time>2026-04-24T14:04:42.996Z</time></trkpt><trkpt lat="44.933830954778166" lon="9.372957337902212"><ele>242.33333333333331</ele><time>2026-04-24T14:04:43.996Z</time></trkpt><trkpt lat="44.93397540752228" lon="9.373075460863005"><ele>243.0</ele><time>2026-04-24T14:04:44.996Z</time></trkpt><trkpt lat="44.934108035730326" lon="9.3732225981364"><ele>243.66666666666669</ele><time>2026-04-24T14:04:45.996Z</time></trkpt><trkpt lat="44.93423367507312" lon="9.37336971731667"><ele>244.33333333333334</ele><time>2026-04-24T14:04:46.996Z</time></trkpt><trkpt lat="44.93434876358461" lon="9.373506742824945"><ele>245.0</ele><time>2026-04-24T14:04:47.996Z</time></trkpt><trkpt lat="44.93446657336195" lon="9.373611214846779"><ele>245.0</ele><time>2026-04-24T14:04:48.996Z</time></trkpt><trkpt lat="44.934582683264686" lon="9.373729937591392"><ele>245.0</ele><time>2026-04-24T14:04:49.996Z</time></trkpt><trkpt lat="44.934721243933566" lon="9.373782324603727"><ele>245.0</ele><time>2026-04-24T14:04:50.996Z</time></trkpt><trkpt lat="44.93485859658" lon="9.373851164130054"><ele>245.0</ele><time>2026-04-24T14:04:51.996Z</time></trkpt><trkpt lat="44.935007483900314" lon="9.37383071750373"><ele>245.66666666666669</ele><time>2026-04-24T14:04:52.996Z</time></trkpt><trkpt lat="44.935173818482276" lon="9.373759843498675"><ele>246.33333333333331</ele><time>2026-04-24T14:04:53.996Z</time></trkpt><trkpt lat="44.93532873493889" lon="9.373711249125964"><ele>247.0</ele><time>2026-04-24T14:04:54.996Z</time></trkpt><trkpt lat="44.93548295817937" lon="9.373722330249533"><ele>247.0</ele><time>2026-04-24T14:04:55.996Z</time></trkpt><trkpt lat="44.935642544634256" lon="9.373754390625528"><ele>247.0</ele><time>2026-04-24T14:04:56.996Z</time></trkpt><trkpt lat="44.93580214770745" lon="9.373798906621056"><ele>247.0</ele><time>2026-04-24T14:04:57.996Z</time></trkpt><trkpt lat="44.93594928382721" lon="9.373923175106443"><ele>246.66666666666666</ele><time>2026-04-24T14:04:58.996Z</time></trkpt><trkpt lat="44.936077284089656" lon="9.374111260992338"><ele>246.33333333333331</ele><time>2026-04-24T14:04:59.996Z</time></trkpt><trkpt lat="44.9361437667758" lon="9.374354573542366"><ele>246.0</ele><time>2026-04-24T14:05:00.996Z</time></trkpt><trkpt lat="44.93626313523352" lon="9.374523812466164"><ele>245.0</ele><time>2026-04-24T14:05:01.996Z</time></trkpt><trkpt lat="44.936418313311165" lon="9.374695637945582"><ele>244.0</ele><time>2026-04-24T14:05:02.996Z</time></trkpt><trkpt lat="44.93658811065086" lon="9.374882198595678"><ele>243.0</ele><time>2026-04-24T14:05:03.995Z</time></trkpt><trkpt lat="44.9367924047343" lon="9.37505639208484"><ele>243.0</ele><time>2026-04-24T14:05:04.995Z</time></trkpt><trkpt lat="44.93696974791064" lon="9.375226871596476"><ele>243.0</ele><time>2026-04-24T14:05:05.995Z</time></trkpt><trkpt lat="44.93712735879121" lon="9.37538784649367"><ele>243.0</ele><time>2026-04-24T14:05:06.995Z</time></trkpt><trkpt lat="44.93730211839092" lon="9.375557356500035"><ele>240.33333333333331</ele><time>2026-04-24T14:05:07.995Z</time></trkpt><trkpt lat="44.937465779699636" lon="9.375703198214246"><ele>237.66666666666666</ele><time>2026-04-24T14:05:08.995Z</time></trkpt><trkpt lat="44.937630973789425" lon="9.375804498167843"><ele>235.0</ele><time>2026-04-24T14:05:09.995Z</time></trkpt><trkpt lat="44.93781139619706" lon="9.375870880377514"><ele>235.0</ele><time>2026-04-24T14:05:10.995Z</time></trkpt><trkpt lat="44.93802372662314" lon="9.37595414411891"><ele>235.0</ele><time>2026-04-24T14:05:11.995Z</time></trkpt><trkpt lat="44.93821212984669" lon="9.375949416855192"><ele>235.0</ele><time>2026-04-24T14:05:12.995Z</time></trkpt><trkpt lat="44.93840389214043" lon="9.37586767080107"><ele>233.33333333333331</ele><time>2026-04-24T14:05:13.995Z</time></trkpt><trkpt lat="44.93857759992693" lon="9.375792428459032"><ele>231.66666666666669</ele><time>2026-04-24T14:05:14.995Z</time></trkpt><trkpt lat="44.938757063700635" lon="9.375762649256616"><ele>230.0</ele><time>2026-04-24T14:05:15.995Z</time></trkpt><trkpt lat="44.93892053925276" lon="9.375742949171189"><ele>230.0</ele><time>2026-04-24T14:05:16.995Z</time></trkpt><trkpt lat="44.939095923995346" lon="9.375793711656607"><ele>230.0</ele><time>2026-04-24T14:05:17.995Z</time></trkpt><trkpt lat="44.93924647673803" lon="9.375844146631268"><ele>230.0</ele><time>2026-04-24T14:05:18.995Z</time></trkpt><trkpt lat="44.93939539595896" lon="9.37595556842959"><ele>230.66666666666669</ele><time>2026-04-24T14:05:19.995Z</time></trkpt><trkpt lat="44.939544277585" lon="9.376074965848362"><ele>231.33333333333331</ele><time>2026-04-24T14:05:20.995Z</time></trkpt><trkpt lat="44.93966540545037" lon="9.376227693939395"><ele>232.0</ele><time>2026-04-24T14:05:21.995Z</time></trkpt><trkpt lat="44.93979676448447" lon="9.376399571508667"><ele>231.66666666666666</ele><time>2026-04-24T14:05:22.995Z</time></trkpt><trkpt lat="44.93992189979801" lon="9.376569135615334"><ele>231.33333333333331</ele><time>2026-04-24T14:05:23.995Z</time></trkpt><trkpt lat="44.9400624790043" lon="9.376739345203465"><ele>231.0</ele><time>2026-04-24T14:05:24.995Z</time></trkpt><trkpt lat="44.94020114625734" lon="9.376897513962335"><ele>231.0</ele><time>2026-04-24T14:05:25.995Z</time></trkpt><trkpt lat="44.940348193457694" lon="9.377032962090135"><ele>231.0</ele><time>2026-04-24T14:05:26.995Z</time></trkpt><trkpt lat="44.94049049383345" lon="9.377194491851963"><ele>231.0</ele><time>2026-04-24T14:05:27.995Z</time></trkpt><trkpt lat="44.94063120908885" lon="9.377341773533699"><ele>229.0</ele><time>2026-04-24T14:05:28.995Z</time></trkpt><trkpt lat="44.940776020117" lon="9.377451081991092"><ele>227.0</ele><time>2026-04-24T14:05:29.995Z</time></trkpt><trkpt lat="44.94093798072667" lon="9.377576048293566"><ele>225.0</ele><time>2026-04-24T14:05:30.995Z</time></trkpt><trkpt lat="44.941096146553605" lon="9.377690449353816"><ele>225.0</ele><time>2026-04-24T14:05:31.995Z</time></trkpt><trkpt lat="44.941253358425264" lon="9.377807465190891"><ele>225.0</ele><time>2026-04-24T14:05:32.995Z</time></trkpt><trkpt lat="44.94142926450493" lon="9.377868192715523"><ele>225.0</ele><time>2026-04-24T14:05:33.995Z</time></trkpt><trkpt lat="44.941589202179564" lon="9.377928081575634"><ele>225.0</ele><time>2026-04-24T14:05:34.995Z</time></trkpt><trkpt lat="44.94173349196582" lon="9.378029318175473"><ele>225.0</ele><time>2026-04-24T14:05:35.995Z</time></trkpt><trkpt lat="44.94187987266544" lon="9.378159573135596"><ele>225.0</ele><time>2026-04-24T14:05:36.995Z</time></trkpt><trkpt lat="44.942023276029765" lon="9.378304563721825"><ele>225.0</ele><time>2026-04-24T14:05:37.995Z</time></trkpt><trkpt lat="44.94215506974188" lon="9.378471363307389"><ele>225.0</ele><time>2026-04-24T14:05:38.995Z</time></trkpt><trkpt lat="44.9422520443919" lon="9.378660666223842"><ele>225.0</ele><time>2026-04-24T14:05:39.995Z</time></trkpt><trkpt lat="44.942354358006035" lon="9.378847771682205"><ele>225.0</ele><time>2026-04-24T14:05:40.995Z</time></trkpt><trkpt lat="44.94246487322478" lon="9.379039302598022"><ele>225.0</ele><time>2026-04-24T14:05:41.995Z</time></trkpt><trkpt lat="44.94259481958733" lon="9.379219694758959"><ele>225.0</ele><time>2026-04-24T14:05:42.995Z</time></trkpt><trkpt lat="44.94269422752858" lon="9.379419856489053"><ele>225.0</ele><time>2026-04-24T14:05:43.995Z</time></trkpt><trkpt lat="44.942772748321076" lon="9.379595477658434"><ele>225.0</ele><time>2026-04-24T14:05:44.995Z</time></trkpt><trkpt lat="44.94283729495272" lon="9.379836279334675"><ele>225.0</ele><time>2026-04-24T14:05:45.995Z</time></trkpt><trkpt lat="44.942876461597955" lon="9.380061118291126"><ele>224.0</ele><time>2026-04-24T14:05:46.995Z</time></trkpt><trkpt lat="44.94289875197201" lon="9.380306600223703"><ele>223.0</ele><time>2026-04-24T14:05:47.995Z</time></trkpt><trkpt lat="44.94290591643177" lon="9.380544732160363"><ele>222.0</ele><time>2026-04-24T14:05:48.995Z</time></trkpt><trkpt lat="44.94292621301744" lon="9.380774154871746"><ele>221.33333333333331</ele><time>2026-04-24T14:05:49.995Z</time></trkpt><trkpt lat="44.94294766531422" lon="9.381033035845281"><ele>220.66666666666666</ele><time>2026-04-24T14:05:50.995Z</time></trkpt><trkpt lat="44.942996517556665" lon="9.381257539994017"><ele>220.0</ele><time>2026-04-24T14:05:51.995Z</time></trkpt><trkpt lat="44.943048293990095" lon="9.381474436701044"><ele>218.33333333333331</ele><time>2026-04-24T14:05:52.995Z</time></trkpt><trkpt lat="44.94311290109589" lon="9.38170722382832"><ele>216.66666666666669</ele><time>2026-04-24T14:05:53.995Z</time></trkpt><trkpt lat="44.94319462510873" lon="9.381925427446806"><ele>215.0</ele><time>2026-04-24T14:05:54.995Z</time></trkpt><trkpt lat="44.9432575255635" lon="9.38213458871696"><ele>215.66666666666669</ele><time>2026-04-24T14:05:55.995Z</time></trkpt><trkpt lat="44.94334912409059" lon="9.382354876836297"><ele>216.33333333333331</ele><time>2026-04-24T14:05:56.995Z</time></trkpt><trkpt lat="44.94341851086808" lon="9.382591982745554"><ele>217.0</ele><time>2026-04-24T14:05:57.995Z</time></trkpt><trkpt lat="44.943500055268466" lon="9.382822825098534"><ele>215.0</ele><time>2026-04-24T14:05:58.995Z</time></trkpt><trkpt lat="44.94360917803732" lon="9.3830564897543"><ele>213.0</ele><time>2026-04-24T14:05:59.994Z</time></trkpt><trkpt lat="44.94369913669909" lon="9.383297400434351"><ele>211.0</ele><time>2026-04-24T14:06:00.994Z</time></trkpt><trkpt lat="44.943787374261085" lon="9.383518640247832"><ele>211.0</ele><time>2026-04-24T14:06:01.994Z</time></trkpt><trkpt lat="44.94388422515335" lon="9.38374722870318"><ele>211.0</ele><time>2026-04-24T14:06:02.994Z</time></trkpt><trkpt lat="44.94395535717286" lon="9.383987219130457"><ele>211.0</ele><time>2026-04-24T14:06:03.994Z</time></trkpt><trkpt lat="44.94406783520456" lon="9.384223621318805"><ele>210.0</ele><time>2026-04-24T14:06:04.994Z</time></trkpt><trkpt lat="44.944159819782264" lon="9.384439887125192"><ele>209.0</ele><time>2026-04-24T14:06:05.994Z</time></trkpt><trkpt lat="44.94424042809048" lon="9.384651029715465"><ele>208.0</ele><time>2026-04-24T14:06:06.994Z</time></trkpt><trkpt lat="44.94432724611927" lon="9.38487540659047"><ele>206.66666666666666</ele><time>2026-04-24T14:06:07.994Z</time></trkpt><trkpt lat="44.94442264464937" lon="9.385114839630065"><ele>205.33333333333331</ele><time>2026-04-24T14:06:08.994Z</time></trkpt><trkpt lat="44.94451146081647" lon="9.385347292979446"><ele>204.0</ele><time>2026-04-24T14:06:09.994Z</time></trkpt><trkpt lat="44.944610723391364" lon="9.385579424598088"><ele>203.0</ele><time>2026-04-24T14:06:10.994Z</time></trkpt><trkpt lat="44.944696544984126" lon="9.385810459734824"><ele>202.0</ele><time>2026-04-24T14:06:11.994Z</time></trkpt><trkpt lat="44.94478046664229" lon="9.386013009726026"><ele>201.0</ele><time>2026-04-24T14:06:12.994Z</time></trkpt><trkpt lat="44.94485315088771" lon="9.386229436350058"><ele>201.0</ele><time>2026-04-24T14:06:13.994Z</time></trkpt><trkpt lat="44.94492291531613" lon="9.3864388680684"><ele>201.0</ele><time>2026-04-24T14:06:14.994Z</time></trkpt><trkpt lat="44.9450026969642" lon="9.386627790024862"><ele>201.0</ele><time>2026-04-24T14:06:15.994Z</time></trkpt><trkpt lat="44.9450986425905" lon="9.386792175446342"><ele>201.0</ele><time>2026-04-24T14:06:16.994Z</time></trkpt><trkpt lat="44.94519221516383" lon="9.386988414532018"><ele>201.0</ele><time>2026-04-24T14:06:17.994Z</time></trkpt><trkpt lat="44.94527706439641" lon="9.387178239687929"><ele>201.0</ele><time>2026-04-24T14:06:18.994Z</time></trkpt><trkpt lat="44.94537637042142" lon="9.38738064449993"><ele>200.33333333333331</ele><time>2026-04-24T14:06:19.994Z</time></trkpt><trkpt lat="44.945476742712906" lon="9.387539177204365"><ele>199.66666666666666</ele><time>2026-04-24T14:06:20.994Z</time></trkpt><trkpt lat="44.945577020436914" lon="9.387739664597099"><ele>199.0</ele><time>2026-04-24T14:06:21.994Z</time></trkpt><trkpt lat="44.94567687357686" lon="9.387912869421944"><ele>199.0</ele><time>2026-04-24T14:06:22.994Z</time></trkpt><trkpt lat="44.94578232577372" lon="9.388099606744058"><ele>199.0</ele><time>2026-04-24T14:06:23.994Z</time></trkpt><trkpt lat="44.9458716108486" lon="9.388289135789055"><ele>199.0</ele><time>2026-04-24T14:06:24.994Z</time></trkpt><trkpt lat="44.94594345023235" lon="9.388478416681165"><ele>199.66666666666666</ele><time>2026-04-24T14:06:25.994Z</time></trkpt><trkpt lat="44.94601815493843" lon="9.388687480815252"><ele>200.33333333333331</ele><time>2026-04-24T14:06:26.994Z</time></trkpt><trkpt lat="44.946104720968066" lon="9.388844364776721"><ele>201.0</ele><time>2026-04-24T14:06:27.994Z</time></trkpt><trkpt lat="44.94617898317011" lon="9.389032564406948"><ele>201.0</ele><time>2026-04-24T14:06:28.994Z</time></trkpt><trkpt lat="44.94625264124611" lon="9.389221694299616"><ele>201.0</ele><time>2026-04-24T14:06:29.994Z</time></trkpt><trkpt lat="44.94634004145189" lon="9.3893771866248"><ele>201.0</ele><time>2026-04-24T14:06:30.994Z</time></trkpt><trkpt lat="44.94642101066292" lon="9.389480076700837"><ele>201.0</ele><time>2026-04-24T14:06:31.994Z</time></trkpt><trkpt lat="44.94650231952454" lon="9.389614514485759"><ele>200.5</ele><time>2026-04-24T14:06:32.994Z</time></trkpt><trkpt lat="44.9465860369186" lon="9.389783931556854"><ele>200.0</ele><time>2026-04-24T14:06:33.994Z</time></trkpt><trkpt lat="44.94667231268747" lon="9.389915941605455"><ele>199.5</ele><time>2026-04-24T14:06:34.994Z</time></trkpt><trkpt lat="44.946744069059264" lon="9.390086948547061"><ele>199.0</ele><time>2026-04-24T14:06:35.994Z</time></trkpt><trkpt lat="44.94682702728288" lon="9.390236604497574"><ele>199.0</ele><time>2026-04-24T14:06:36.994Z</time></trkpt><trkpt lat="44.94691105700793" lon="9.390382144260466"><ele>199.0</ele><time>2026-04-24T14:06:37.994Z</time></trkpt><trkpt lat="44.94699959077584" lon="9.390537601786829"><ele>199.0</ele><time>2026-04-24T14:06:38.994Z</time></trkpt><trkpt lat="44.94708130580683" lon="9.390690962245325"><ele>199.0</ele><time>2026-04-24T14:06:39.994Z</time></trkpt><trkpt lat="44.94714235608709" lon="9.390843211355968"><ele>199.0</ele><time>2026-04-24T14:06:40.994Z</time></trkpt><trkpt lat="44.94722820349674" lon="9.39099288926745"><ele>199.0</ele><time>2026-04-24T14:06:41.994Z</time></trkpt><trkpt lat="44.9472865275773" lon="9.391144264230128"><ele>199.0</ele><time>2026-04-24T14:06:42.994Z</time></trkpt><trkpt lat="44.94736896450252" lon="9.391282773529545"><ele>199.0</ele><time>2026-04-24T14:06:43.994Z</time></trkpt><trkpt lat="44.94746597185676" lon="9.391435764840525"><ele>199.0</ele><time>2026-04-24T14:06:44.994Z</time></trkpt><trkpt lat="44.947587630468355" lon="9.391515137563657"><ele>199.0</ele><time>2026-04-24T14:06:45.994Z</time></trkpt><trkpt lat="44.94768872566465" lon="9.391570485011442"><ele>199.0</ele><time>2026-04-24T14:06:46.994Z</time></trkpt><trkpt lat="44.94776795036943" lon="9.391606482290884"><ele>199.0</ele><time>2026-04-24T14:06:47.994Z</time></trkpt><trkpt lat="44.94784156270642" lon="9.391647636007434"><ele>199.0</ele><time>2026-04-24T14:06:48.994Z</time></trkpt><trkpt lat="44.947917434291085" lon="9.391723408766117"><ele>199.0</ele><time>2026-04-24T14:06:49.994Z</time></trkpt><trkpt lat="44.94801739101681" lon="9.391800656353071"><ele>199.0</ele><time>2026-04-24T14:06:50.994Z</time></trkpt><trkpt lat="44.9480995372285" lon="9.391878511109773"><ele>199.0</ele><time>2026-04-24T14:06:51.994Z</time></trkpt><trkpt lat="44.948168861371194" lon="9.391973999610041"><ele>199.0</ele><time>2026-04-24T14:06:52.994Z</time></trkpt><trkpt lat="44.948249979356284" lon="9.392094105433028"><ele>199.0</ele><time>2026-04-24T14:06:53.994Z</time></trkpt><trkpt lat="44.94831705335196" lon="9.392212323500793"><ele>198.6</ele><time>2026-04-24T14:06:54.994Z</time></trkpt><trkpt lat="44.94841452884161" lon="9.392280163192364"><ele>198.2</ele><time>2026-04-24T14:06:55.994Z</time></trkpt><trkpt lat="44.94849878938839" lon="9.392379604688882"><ele>197.79999999999998</ele><time>2026-04-24T14:06:56.993Z</time></trkpt><trkpt lat="44.948584282550954" lon="9.392476880494925"><ele>197.39999999999998</ele><time>2026-04-24T14:06:57.993Z</time></trkpt><trkpt lat="44.94868350597737" lon="9.392540826626057"><ele>197.0</ele><time>2026-04-24T14:06:58.993Z</time></trkpt><trkpt lat="44.948769082212955" lon="9.392597390977201"><ele>197.0</ele><time>2026-04-24T14:06:59.993Z</time></trkpt><trkpt lat="44.948838554527896" lon="9.392689609007176"><ele>197.0</ele><time>2026-04-24T14:07:00.993Z</time></trkpt><trkpt lat="44.94892608152644" lon="9.392711057995843"><ele>197.0</ele><time>2026-04-24T14:07:01.993Z</time></trkpt><trkpt lat="44.948999247698296" lon="9.392790516213303"><ele>197.0</ele><time>2026-04-24T14:07:02.993Z</time></trkpt><trkpt lat="44.949055358529925" lon="9.392906863934787"><ele>197.0</ele><time>2026-04-24T14:07:03.993Z</time></trkpt><trkpt lat="44.949144589133915" lon="9.392986001685369"><ele>196.25</ele><time>2026-04-24T14:07:04.993Z</time></trkpt><trkpt lat="44.94922940899925" lon="9.393110941619682"><ele>195.5</ele><time>2026-04-24T14:07:05.993Z</time></trkpt><trkpt lat="44.94933330800313" lon="9.393223471300297"><ele>194.75</ele><time>2026-04-24T14:07:06.993Z</time></trkpt><trkpt lat="44.94943161506204" lon="9.393318916223413"><ele>194.0</ele><time>2026-04-24T14:07:07.993Z</time></trkpt><trkpt lat="44.94953006281967" lon="9.393407885625223"><ele>194.0</ele><time>2026-04-24T14:07:08.993Z</time></trkpt><trkpt lat="44.94963251908679" lon="9.393499203784867"><ele>194.0</ele><time>2026-04-24T14:07:09.993Z</time></trkpt><trkpt lat="44.949750920284714" lon="9.393595030984168"><ele>194.0</ele><time>2026-04-24T14:07:10.993Z</time></trkpt><trkpt lat="44.94984376775943" lon="9.393735160457926"><ele>194.0</ele><time>2026-04-24T14:07:11.993Z</time></trkpt><trkpt lat="44.94993983186792" lon="9.393855925034416"><ele>194.0</ele><time>2026-04-24T14:07:12.993Z</time></trkpt><trkpt lat="44.95003658924564" lon="9.393978393246162"><ele>194.0</ele><time>2026-04-24T14:07:13.993Z</time></trkpt><trkpt lat="44.950128686255546" lon="9.39412924456857"><ele>194.0</ele><time>2026-04-24T14:07:14.993Z</time></trkpt><trkpt lat="44.950217590883014" lon="9.394260365072618"><ele>194.0</ele><time>2026-04-24T14:07:15.993Z</time></trkpt><trkpt lat="44.95031005062602" lon="9.3944617777931"><ele>195.0</ele><time>2026-04-24T14:07:16.993Z</time></trkpt><trkpt lat="44.95036551115125" lon="9.394633585006344"><ele>196.0</ele><time>2026-04-24T14:07:17.993Z</time></trkpt><trkpt lat="44.95036217659054" lon="9.394881129365372"><ele>197.0</ele><time>2026-04-24T14:07:18.993Z</time></trkpt><trkpt lat="44.95038079231851" lon="9.39509761816806"><ele>197.0</ele><time>2026-04-24T14:07:19.993Z</time></trkpt><trkpt lat="44.95040260521521" lon="9.39531093841358"><ele>197.0</ele><time>2026-04-24T14:07:20.993Z</time></trkpt><trkpt lat="44.9503917512274" lon="9.39552417062163"><ele>197.0</ele><time>2026-04-24T14:07:21.993Z</time></trkpt><trkpt lat="44.950392327618246" lon="9.395711941430024"><ele>197.0</ele><time>2026-04-24T14:07:22.993Z</time></trkpt><trkpt lat="44.95045936862351" lon="9.395873629943827"><ele>196.33333333333334</ele><time>2026-04-24T14:07:23.993Z</time></trkpt><trkpt lat="44.95049636151854" lon="9.396077457353133"><ele>195.66666666666669</ele><time>2026-04-24T14:07:24.993Z</time></trkpt><trkpt lat="44.95052634827223" lon="9.396290929280124"><ele>195.0</ele><time>2026-04-24T14:07:25.993Z</time></trkpt><trkpt lat="44.950576490926245" lon="9.39650986652331"><ele>194.5</ele><time>2026-04-24T14:07:26.993Z</time></trkpt><trkpt lat="44.950590447691496" lon="9.3967053560663"><ele>194.0</ele><time>2026-04-24T14:07:27.993Z</time></trkpt><trkpt lat="44.95061929608648" lon="9.396923049726173"><ele>193.5</ele><time>2026-04-24T14:07:28.993Z</time></trkpt><trkpt lat="44.95063461377841" lon="9.39713911466173"><ele>193.0</ele><time>2026-04-24T14:07:29.993Z</time></trkpt><trkpt lat="44.95064669231842" lon="9.397356004753659"><ele>192.33333333333331</ele><time>2026-04-24T14:07:30.993Z</time></trkpt><trkpt lat="44.9506930108154" lon="9.397571913200375"><ele>191.66666666666666</ele><time>2026-04-24T14:07:31.993Z</time></trkpt><trkpt lat="44.95075256395133" lon="9.397805120975965"><ele>191.0</ele><time>2026-04-24T14:07:32.993Z</time></trkpt><trkpt lat="44.950743581241426" lon="9.398019970860133"><ele>190.66666666666666</ele><time>2026-04-24T14:07:33.993Z</time></trkpt><trkpt lat="44.95077977157414" lon="9.398242048453215"><ele>190.33333333333334</ele><time>2026-04-24T14:07:34.993Z</time></trkpt><trkpt lat="44.95082799012004" lon="9.39846835253209"><ele>190.0</ele><time>2026-04-24T14:07:35.993Z</time></trkpt><trkpt lat="44.95086193023178" lon="9.398697007837914"><ele>190.66666666666669</ele><time>2026-04-24T14:07:36.993Z</time></trkpt><trkpt lat="44.95088209870932" lon="9.398935273789967"><ele>191.33333333333334</ele><time>2026-04-24T14:07:37.993Z</time></trkpt><trkpt lat="44.95091019749857" lon="9.399181272449015"><ele>192.0</ele><time>2026-04-24T14:07:38.993Z</time></trkpt><trkpt lat="44.95092524820547" lon="9.39941679828222"><ele>192.0</ele><time>2026-04-24T14:07:39.993Z</time></trkpt><trkpt lat="44.950953693868854" lon="9.399641511334748"><ele>192.0</ele><time>2026-04-24T14:07:40.999Z</time></trkpt><trkpt lat="44.950967509952385" lon="9.399889679388647"><ele>192.0</ele><time>2026-04-24T14:07:41.999Z</time></trkpt><trkpt lat="44.951065969925224" lon="9.400056658414309"><ele>191.5</ele><time>2026-04-24T14:07:42.999Z</time></trkpt><trkpt lat="44.95112441051658" lon="9.400260927851837"><ele>191.0</ele><time>2026-04-24T14:07:43.999Z</time></trkpt><trkpt lat="44.95117049826765" lon="9.400450498361401"><ele>190.5</ele><time>2026-04-24T14:07:44.999Z</time></trkpt><trkpt lat="44.95124847461736" lon="9.40060993502655"><ele>190.0</ele><time>2026-04-24T14:07:45.999Z</time></trkpt><trkpt lat="44.95129289615536" lon="9.40075937608965"><ele>190.0</ele><time>2026-04-24T14:07:46.999Z</time></trkpt><trkpt lat="44.95130052267654" lon="9.400933203393564"><ele>190.0</ele><time>2026-04-24T14:07:47.999Z</time></trkpt><trkpt lat="44.95131419016669" lon="9.401094802805472"><ele>190.0</ele><time>2026-04-24T14:07:48.999Z</time></trkpt><trkpt lat="44.9513283031276" lon="9.401284649762154"><ele>190.0</ele><time>2026-04-24T14:07:49.999Z</time></trkpt><trkpt lat="44.951341284619225" lon="9.401481309198278"><ele>190.0</ele><time>2026-04-24T14:07:50.999Z</time></trkpt><trkpt lat="44.95137235225315" lon="9.40166341091087"><ele>190.0</ele><time>2026-04-24T14:07:51.999Z</time></trkpt><trkpt lat="44.95141849285572" lon="9.401896044004978"><ele>190.0</ele><time>2026-04-24T14:07:53Z</time></trkpt><trkpt lat="44.95149827245058" lon="9.402068956475404"><ele>189.25</ele><time>2026-04-24T14:07:54Z</time></trkpt><trkpt lat="44.95155044522926" lon="9.402285832271668"><ele>188.5</ele><time>2026-04-24T14:07:55Z</time></trkpt><trkpt lat="44.95158423550681" lon="9.40249729146628"><ele>187.75</ele><time>2026-04-24T14:07:56Z</time></trkpt><trkpt lat="44.951622947974876" lon="9.402672498484716"><ele>187.0</ele><time>2026-04-24T14:07:57Z</time></trkpt><trkpt lat="44.95166711882895" lon="9.402884830708969"><ele>188.0</ele><time>2026-04-24T14:07:57.999Z</time></trkpt><trkpt lat="44.95171723814107" lon="9.403074527032945"><ele>189.0</ele><time>2026-04-24T14:07:58.999Z</time></trkpt><trkpt lat="44.95175281438136" lon="9.403268309833843"><ele>190.0</ele><time>2026-04-24T14:07:59.999Z</time></trkpt><trkpt lat="44.951789200976755" lon="9.403459288154734"><ele>191.0</ele><time>2026-04-24T14:08:00.999Z</time></trkpt><trkpt lat="44.95183201791356" lon="9.403624568140767"><ele>191.0</ele><time>2026-04-24T14:08:01.999Z</time></trkpt><trkpt lat="44.951870036289066" lon="9.403822057737052"><ele>191.0</ele><time>2026-04-24T14:08:02.999Z</time></trkpt><trkpt lat="44.95185817388468" lon="9.404010037408366"><ele>191.0</ele><time>2026-04-24T14:08:03.999Z</time></trkpt><trkpt lat="44.95187199243611" lon="9.40418861973074"><ele>191.0</ele><time>2026-04-24T14:08:04.999Z</time></trkpt><trkpt lat="44.951876714458145" lon="9.404367945599624"><ele>191.0</ele><time>2026-04-24T14:08:05.999Z</time></trkpt><trkpt lat="44.951892090149954" lon="9.40455899106905"><ele>191.0</ele><time>2026-04-24T14:08:06.999Z</time></trkpt><trkpt lat="44.95189104459541" lon="9.404752729314891"><ele>191.0</ele><time>2026-04-24T14:08:07.999Z</time></trkpt><trkpt lat="44.95188616170925" lon="9.404942639088407"><ele>191.0</ele><time>2026-04-24T14:08:08.999Z</time></trkpt><trkpt lat="44.95188640375403" lon="9.405152372536893"><ele>191.0</ele><time>2026-04-24T14:08:09.999Z</time></trkpt><trkpt lat="44.95188391672484" lon="9.405361035678126"><ele>191.0</ele><time>2026-04-24T14:08:10.999Z</time></trkpt><trkpt lat="44.951894978618014" lon="9.405546896465744"><ele>191.0</ele><time>2026-04-24T14:08:11.999Z</time></trkpt><trkpt lat="44.951916854911886" lon="9.405759092055924"><ele>191.0</ele><time>2026-04-24T14:08:12.999Z</time></trkpt><trkpt lat="44.951924336724076" lon="9.405948482977633"><ele>191.75</ele><time>2026-04-24T14:08:13.999Z</time></trkpt><trkpt lat="44.951926809836756" lon="9.406135504416772"><ele>192.5</ele><time>2026-04-24T14:08:14.999Z</time></trkpt><trkpt lat="44.951915552436084" lon="9.4063383008198"><ele>193.25</ele><time>2026-04-24T14:08:15.999Z</time></trkpt><trkpt lat="44.95191400827912" lon="9.40654115196675"><ele>194.0</ele><time>2026-04-24T14:08:16.999Z</time></trkpt><trkpt lat="44.95191050848555" lon="9.40674715976274"><ele>195.0</ele><time>2026-04-24T14:08:17.999Z</time></trkpt><trkpt lat="44.95191564895595" lon="9.406980449667785"><ele>196.0</ele><time>2026-04-24T14:08:18.999Z</time></trkpt><trkpt lat="44.95193722768081" lon="9.407226375801695"><ele>197.0</ele><time>2026-04-24T14:08:19.999Z</time></trkpt><trkpt lat="44.9519683891893" lon="9.407449740149527"><ele>197.0</ele><time>2026-04-24T14:08:20.999Z</time></trkpt><trkpt lat="44.95201554421477" lon="9.407675862139419"><ele>197.0</ele><time>2026-04-24T14:08:21.999Z</time></trkpt><trkpt lat="44.952045381414365" lon="9.407912635453911"><ele>197.0</ele><time>2026-04-24T14:08:22.999Z</time></trkpt><trkpt lat="44.952052485694644" lon="9.408132634950956"><ele>197.0</ele><time>2026-04-24T14:08:23.999Z</time></trkpt><trkpt lat="44.952086251537416" lon="9.408356835925359"><ele>197.0</ele><time>2026-04-24T14:08:24.999Z</time></trkpt><trkpt lat="44.95209663471702" lon="9.408600515997563"><ele>197.0</ele><time>2026-04-24T14:08:25.999Z</time></trkpt><trkpt lat="44.95212410553835" lon="9.408821032271687"><ele>196.66666666666669</ele><time>2026-04-24T14:08:26.999Z</time></trkpt><trkpt lat="44.95215418214776" lon="9.40904373350516"><ele>196.33333333333331</ele><time>2026-04-24T14:08:27.999Z</time></trkpt><trkpt lat="44.9521799318606" lon="9.40925429156994"><ele>196.0</ele><time>2026-04-24T14:08:28.999Z</time></trkpt><trkpt lat="44.95218475915958" lon="9.409477706368419"><ele>196.0</ele><time>2026-04-24T14:08:29.999Z</time></trkpt><trkpt lat="44.95217414186105" lon="9.409706701462456"><ele>196.0</ele><time>2026-04-24T14:08:30.999Z</time></trkpt><trkpt lat="44.95218500741706" lon="9.409938988093534"><ele>196.0</ele><time>2026-04-24T14:08:31.999Z</time></trkpt><trkpt lat="44.95217129827871" lon="9.410166166431626"><ele>196.0</ele><time>2026-04-24T14:08:32.999Z</time></trkpt><trkpt lat="44.95216084929786" lon="9.4103895801409"><ele>196.0</ele><time>2026-04-24T14:08:33.999Z</time></trkpt><trkpt lat="44.95216760772945" lon="9.41063674433949"><ele>196.0</ele><time>2026-04-24T14:08:34.999Z</time></trkpt><trkpt lat="44.952158267080414" lon="9.410830079302611"><ele>196.5</ele><time>2026-04-24T14:08:35.999Z</time></trkpt><trkpt lat="44.95213531906987" lon="9.41101861895514"><ele>197.0</ele><time>2026-04-24T14:08:36.999Z</time></trkpt><trkpt lat="44.952086851367675" lon="9.411227814680611"><ele>197.5</ele><time>2026-04-24T14:08:37.999Z</time></trkpt><trkpt lat="44.9520017016627" lon="9.411402303044229"><ele>198.0</ele><time>2026-04-24T14:08:38.999Z</time></trkpt><trkpt lat="44.95192627684679" lon="9.411596649636543"><ele>198.66666666666669</ele><time>2026-04-24T14:08:39.999Z</time></trkpt><trkpt lat="44.951854665683705" lon="9.41180999835762"><ele>199.33333333333334</ele><time>2026-04-24T14:08:40.999Z</time></trkpt><trkpt lat="44.95179548377958" lon="9.412017279731135"><ele>200.0</ele><time>2026-04-24T14:08:41.999Z</time></trkpt><trkpt lat="44.95171914913607" lon="9.412207209477609"><ele>196.0</ele><time>2026-04-24T14:08:42.999Z</time></trkpt><trkpt lat="44.95162888803088" lon="9.412396668371475"><ele>192.0</ele><time>2026-04-24T14:08:43.999Z</time></trkpt><trkpt lat="44.95152939417529" lon="9.41257437870638"><ele>188.0</ele><time>2026-04-24T14:08:44.999Z</time></trkpt><trkpt lat="44.95143732602455" lon="9.412782765058868"><ele>188.0</ele><time>2026-04-24T14:08:45.999Z</time></trkpt><trkpt lat="44.95130660758939" lon="9.412943254777867"><ele>188.0</ele><time>2026-04-24T14:08:46.999Z</time></trkpt><trkpt lat="44.95124848064737" lon="9.41315361816273"><ele>188.0</ele><time>2026-04-24T14:08:47.999Z</time></trkpt><trkpt lat="44.951217747718474" lon="9.413373544971527"><ele>189.0</ele><time>2026-04-24T14:08:48.999Z</time></trkpt><trkpt lat="44.95123680541868" lon="9.413624289427915"><ele>190.0</ele><time>2026-04-24T14:08:49.999Z</time></trkpt><trkpt lat="44.951238770313374" lon="9.41388565917543"><ele>191.0</ele><time>2026-04-24T14:08:50.999Z</time></trkpt><trkpt lat="44.95125454133742" lon="9.414145698974304"><ele>191.0</ele><time>2026-04-24T14:08:51.999Z</time></trkpt><trkpt lat="44.95125467991337" lon="9.414411041002047"><ele>191.0</ele><time>2026-04-24T14:08:52.999Z</time></trkpt><trkpt lat="44.95123902165564" lon="9.414674097203296"><ele>191.0</ele><time>2026-04-24T14:08:53.999Z</time></trkpt><trkpt lat="44.951228740435546" lon="9.414928988824267"><ele>191.0</ele><time>2026-04-24T14:08:54.999Z</time></trkpt><trkpt lat="44.9512305985046" lon="9.415186190427647"><ele>191.0</ele><time>2026-04-24T14:08:55.999Z</time></trkpt><trkpt lat="44.95122492035283" lon="9.41543453334704"><ele>191.0</ele><time>2026-04-24T14:08:56.999Z</time></trkpt><trkpt lat="44.95122841010366" lon="9.415713779398281"><ele>190.0</ele><time>2026-04-24T14:08:57.999Z</time></trkpt><trkpt lat="44.951247225291866" lon="9.415976197972144"><ele>189.0</ele><time>2026-04-24T14:08:58.999Z</time></trkpt><trkpt lat="44.951237856742935" lon="9.416234577528417"><ele>188.0</ele><time>2026-04-24T14:08:59.999Z</time></trkpt><trkpt lat="44.951220362777974" lon="9.4164986151609"><ele>187.66666666666666</ele><time>2026-04-24T14:09:00.999Z</time></trkpt><trkpt lat="44.95121565107905" lon="9.41674148367723"><ele>187.33333333333334</ele><time>2026-04-24T14:09:01.999Z</time></trkpt><trkpt lat="44.95119745547448" lon="9.416983983889049"><ele>187.0</ele><time>2026-04-24T14:09:02.998Z</time></trkpt><trkpt lat="44.95117864741142" lon="9.417220597529857"><ele>187.0</ele><time>2026-04-24T14:09:03.998Z</time></trkpt><trkpt lat="44.951179552286625" lon="9.41748116042925"><ele>187.0</ele><time>2026-04-24T14:09:04.998Z</time></trkpt><trkpt lat="44.951172899027576" lon="9.417690025211266"><ele>187.0</ele><time>2026-04-24T14:09:05.998Z</time></trkpt><trkpt lat="44.951149189782846" lon="9.41791359656878"><ele>187.0</ele><time>2026-04-24T14:09:06.998Z</time></trkpt><trkpt lat="44.9511431840575" lon="9.418154722437588"><ele>187.0</ele><time>2026-04-24T14:09:07.998Z</time></trkpt><trkpt lat="44.9511130108174" lon="9.418369188211154"><ele>187.0</ele><time>2026-04-24T14:09:08.998Z</time></trkpt><trkpt lat="44.951111940465736" lon="9.418593373033893"><ele>187.0</ele><time>2026-04-24T14:09:09.998Z</time></trkpt><trkpt lat="44.95109981292604" lon="9.418800700240729"><ele>187.0</ele><time>2026-04-24T14:09:10.998Z</time></trkpt><trkpt lat="44.951113057225626" lon="9.41903610085485"><ele>187.0</ele><time>2026-04-24T14:09:11.998Z</time></trkpt><trkpt lat="44.95112535724345" lon="9.419255857085966"><ele>186.25</ele><time>2026-04-24T14:09:12.998Z</time></trkpt><trkpt lat="44.95112306986" lon="9.419466482410401"><ele>185.5</ele><time>2026-04-24T14:09:13.998Z</time></trkpt><trkpt lat="44.95114400101337" lon="9.41965357416291"><ele>184.75</ele><time>2026-04-24T14:09:14.998Z</time></trkpt><trkpt lat="44.951168280819864" lon="9.419843309627415"><ele>184.0</ele><time>2026-04-24T14:09:15.998Z</time></trkpt><trkpt lat="44.951198165939594" lon="9.420023412313395"><ele>183.5</ele><time>2026-04-24T14:09:16.998Z</time></trkpt><trkpt lat="44.95122564906544" lon="9.420187141233802"><ele>183.0</ele><time>2026-04-24T14:09:17.998Z</time></trkpt><trkpt lat="44.951291533887755" lon="9.420344010355636"><ele>182.5</ele><time>2026-04-24T14:09:18.998Z</time></trkpt><trkpt lat="44.95137099971361" lon="9.420475195657529"><ele>182.0</ele><time>2026-04-24T14:09:19.998Z</time></trkpt><trkpt lat="44.95144698421116" lon="9.420605719756775"><ele>181.0</ele><time>2026-04-24T14:09:20.998Z</time></trkpt><trkpt lat="44.95151803576304" lon="9.420721687534323"><ele>180.0</ele><time>2026-04-24T14:09:21.998Z</time></trkpt><trkpt lat="44.95157047938706" lon="9.420876290714979"><ele>179.0</ele><time>2026-04-24T14:09:22.998Z</time></trkpt><trkpt lat="44.95159516880353" lon="9.421041155403733"><ele>178.0</ele><time>2026-04-24T14:09:23.998Z</time></trkpt><trkpt lat="44.95162476969932" lon="9.421219353923531"><ele>177.5</ele><time>2026-04-24T14:09:24.998Z</time></trkpt><trkpt lat="44.95164314997156" lon="9.421412185679158"><ele>177.0</ele><time>2026-04-24T14:09:25.998Z</time></trkpt><trkpt lat="44.95166068072285" lon="9.421609677770435"><ele>176.5</ele><time>2026-04-24T14:09:26.998Z</time></trkpt><trkpt lat="44.95168475177767" lon="9.42180749939065"><ele>176.0</ele><time>2026-04-24T14:09:27.998Z</time></trkpt><trkpt lat="44.9517303488667" lon="9.422018054563047"><ele>174.66666666666666</ele><time>2026-04-24T14:09:28.998Z</time></trkpt><trkpt lat="44.95181883595207" lon="9.422201662845804"><ele>173.33333333333334</ele><time>2026-04-24T14:09:29.998Z</time></trkpt><trkpt lat="44.95188804350677" lon="9.422426025208546"><ele>172.0</ele><time>2026-04-24T14:09:30.998Z</time></trkpt><trkpt lat="44.95196398458415" lon="9.422629950808757"><ele>172.0</ele><time>2026-04-24T14:09:31.998Z</time></trkpt><trkpt lat="44.952056068514025" lon="9.422819821713432"><ele>172.0</ele><time>2026-04-24T14:09:32.998Z</time></trkpt><trkpt lat="44.952139838365085" lon="9.423063492769964"><ele>172.0</ele><time>2026-04-24T14:09:33.998Z</time></trkpt><trkpt lat="44.952223879166674" lon="9.423277725429644"><ele>171.66666666666669</ele><time>2026-04-24T14:09:34.998Z</time></trkpt><trkpt lat="44.952314199626024" lon="9.423491585489023"><ele>171.33333333333334</ele><time>2026-04-24T14:09:35.998Z</time></trkpt><trkpt lat="44.95240394474164" lon="9.423701836280706"><ele>171.0</ele><time>2026-04-24T14:09:36.998Z</time></trkpt><trkpt lat="44.95249284893458" lon="9.423907441947629"><ele>170.33333333333334</ele><time>2026-04-24T14:09:37.998Z</time></trkpt><trkpt lat="44.95258660202951" lon="9.424080066173545"><ele>169.66666666666669</ele><time>2026-04-24T14:09:38.998Z</time></trkpt><trkpt lat="44.952683987564484" lon="9.424260159065293"><ele>169.0</ele><time>2026-04-24T14:09:39.998Z</time></trkpt><trkpt lat="44.95280318847377" lon="9.424439626769589"><ele>169.0</ele><time>2026-04-24T14:09:40.998Z</time></trkpt><trkpt lat="44.95291614778428" lon="9.424595895212006"><ele>169.0</ele><time>2026-04-24T14:09:41.998Z</time></trkpt><trkpt lat="44.95302457561822" lon="9.424778465393056"><ele>169.0</ele><time>2026-04-24T14:09:42.998Z</time></trkpt><trkpt lat="44.95313371544831" lon="9.42496578125263"><ele>167.66666666666669</ele><time>2026-04-24T14:09:43.998Z</time></trkpt><trkpt lat="44.9532401519855" lon="9.425168574768717"><ele>166.33333333333334</ele><time>2026-04-24T14:09:44.998Z</time></trkpt><trkpt lat="44.9533527403961" lon="9.425353135341709"><ele>165.0</ele><time>2026-04-24T14:09:45.998Z</time></trkpt><trkpt lat="44.953461734668785" lon="9.42553331632542"><ele>164.33333333333334</ele><time>2026-04-24T14:09:46.998Z</time></trkpt><trkpt lat="44.953570182064674" lon="9.425696205806057"><ele>163.66666666666669</ele><time>2026-04-24T14:09:47.998Z</time></trkpt><trkpt lat="44.95368450828537" lon="9.42586587511807"><ele>163.0</ele><time>2026-04-24T14:09:48.998Z</time></trkpt><trkpt lat="44.95379249245268" lon="9.426039505967463"><ele>163.0</ele><time>2026-04-24T14:09:49.998Z</time></trkpt><trkpt lat="44.95388670222295" lon="9.426224382212853"><ele>163.0</ele><time>2026-04-24T14:09:50.998Z</time></trkpt><trkpt lat="44.95399469405935" lon="9.42640249843807"><ele>163.0</ele><time>2026-04-24T14:09:51.998Z</time></trkpt><trkpt lat="44.95411021666393" lon="9.426576508737906"><ele>164.33333333333334</ele><time>2026-04-24T14:09:52.998Z</time></trkpt><trkpt lat="44.95423197411421" lon="9.426728225208487"><ele>165.66666666666666</ele><time>2026-04-24T14:09:53.998Z</time></trkpt><trkpt lat="44.95431142048853" lon="9.426904699671923"><ele>167.0</ele><time>2026-04-24T14:09:54.998Z</time></trkpt><trkpt lat="44.95441490734584" lon="9.427058881677702"><ele>166.0</ele><time>2026-04-24T14:09:55.998Z</time></trkpt><trkpt lat="44.95453171523345" lon="9.4272422789408"><ele>165.0</ele><time>2026-04-24T14:09:56.998Z</time></trkpt><trkpt lat="44.95464651645349" lon="9.427395652212113"><ele>164.0</ele><time>2026-04-24T14:09:57.998Z</time></trkpt><trkpt lat="44.954744656483804" lon="9.427565398043281"><ele>164.0</ele><time>2026-04-24T14:09:58.998Z</time></trkpt><trkpt lat="44.954874094068074" lon="9.427735098984769"><ele>164.0</ele><time>2026-04-24T14:09:59.998Z</time></trkpt><trkpt lat="44.954996256867915" lon="9.42788408211185"><ele>164.0</ele><time>2026-04-24T14:10:00.998Z</time></trkpt><trkpt lat="44.95509694051963" lon="9.42806781370754"><ele>163.75</ele><time>2026-04-24T14:10:01.997Z</time></trkpt><trkpt lat="44.95518032845616" lon="9.428217199083383"><ele>163.5</ele><time>2026-04-24T14:10:02.997Z</time></trkpt><trkpt lat="44.95527030233393" lon="9.428404413791302"><ele>163.25</ele><time>2026-04-24T14:10:03.997Z</time></trkpt><trkpt lat="44.95535266147114" lon="9.428581880280309"><ele>163.0</ele><time>2026-04-24T14:10:04.997Z</time></trkpt><trkpt lat="44.955450018418404" lon="9.428727454839576"><ele>161.66666666666669</ele><time>2026-04-24T14:10:05.997Z</time></trkpt><trkpt lat="44.955554962235574" lon="9.428873959993483"><ele>160.33333333333334</ele><time>2026-04-24T14:10:06.997Z</time></trkpt><trkpt lat="44.95566985116673" lon="9.429029009286467"><ele>159.0</ele><time>2026-04-24T14:10:07.997Z</time></trkpt><trkpt lat="44.9557712972696" lon="9.42917560085359"><ele>159.0</ele><time>2026-04-24T14:10:08.997Z</time></trkpt><trkpt lat="44.95588166028642" lon="9.429307186329897"><ele>159.0</ele><time>2026-04-24T14:10:09.997Z</time></trkpt><trkpt lat="44.955996807796055" lon="9.429457744926703"><ele>159.0</ele><time>2026-04-24T14:10:10.997Z</time></trkpt><trkpt lat="44.95614452903481" lon="9.42956205811586"><ele>158.66666666666666</ele><time>2026-04-24T14:10:11.997Z</time></trkpt><trkpt lat="44.956273299848505" lon="9.429657962873513"><ele>158.33333333333331</ele><time>2026-04-24T14:10:12.997Z</time></trkpt><trkpt lat="44.956434740029664" lon="9.42974514211859"><ele>158.0</ele><time>2026-04-24T14:10:13.997Z</time></trkpt><trkpt lat="44.95659704841586" lon="9.429753727778637"><ele>157.66666666666666</ele><time>2026-04-24T14:10:14.997Z</time></trkpt><trkpt lat="44.95673783898887" lon="9.429782888732552"><ele>157.33333333333334</ele><time>2026-04-24T14:10:15.997Z</time></trkpt><trkpt lat="44.95689531454013" lon="9.429802017157414"><ele>157.0</ele><time>2026-04-24T14:10:16.997Z</time></trkpt><trkpt lat="44.95704797194556" lon="9.429768484590046"><ele>157.0</ele><time>2026-04-24T14:10:17.997Z</time></trkpt><trkpt lat="44.957211911379645" lon="9.42978165404739"><ele>157.0</ele><time>2026-04-24T14:10:18.997Z</time></trkpt><trkpt lat="44.95736943418345" lon="9.42987196914918"><ele>157.0</ele><time>2026-04-24T14:10:19.997Z</time></trkpt><trkpt lat="44.95752376884256" lon="9.429945074777134"><ele>158.0</ele><time>2026-04-24T14:10:20.997Z</time></trkpt><trkpt lat="44.95768320572914" lon="9.430064351527845"><ele>159.0</ele><time>2026-04-24T14:10:21.997Z</time></trkpt><trkpt lat="44.95784130177202" lon="9.430142255661448"><ele>160.0</ele><time>2026-04-24T14:10:22.997Z</time></trkpt><trkpt lat="44.9579851533515" lon="9.430254302814559"><ele>160.0</ele><time>2026-04-24T14:10:23.997Z</time></trkpt><trkpt lat="44.95809846806535" lon="9.430378134306899"><ele>160.0</ele><time>2026-04-24T14:10:24.997Z</time></trkpt><trkpt lat="44.958217928672234" lon="9.430531428012538"><ele>160.0</ele><time>2026-04-24T14:10:25.997Z</time></trkpt><trkpt lat="44.958314431221545" lon="9.430700260223974"><ele>159.66666666666669</ele><time>2026-04-24T14:10:26.997Z</time></trkpt><trkpt lat="44.95838407197588" lon="9.43087679336323"><ele>159.33333333333334</ele><time>2026-04-24T14:10:27.997Z</time></trkpt><trkpt lat="44.958490841650175" lon="9.431064314436016"><ele>159.0</ele><time>2026-04-24T14:10:28.997Z</time></trkpt><trkpt lat="44.958579059696525" lon="9.431232282292953"><ele>158.75</ele><time>2026-04-24T14:10:29.997Z</time></trkpt><trkpt lat="44.958690142244805" lon="9.431324492350253"><ele>158.5</ele><time>2026-04-24T14:10:30.997Z</time></trkpt><trkpt lat="44.95881605969884" lon="9.431437756006854"><ele>158.25</ele><time>2026-04-24T14:10:31.997Z</time></trkpt><trkpt lat="44.95894881411696" lon="9.431544838344049"><ele>158.0</ele><time>2026-04-24T14:10:32.997Z</time></trkpt><trkpt lat="44.959038823907136" lon="9.431656299536717"><ele>158.0</ele><time>2026-04-24T14:10:33.997Z</time></trkpt><trkpt lat="44.95914288343788" lon="9.431737357265062"><ele>158.0</ele><time>2026-04-24T14:10:34.997Z</time></trkpt><trkpt lat="44.959246265888524" lon="9.431754530398152"><ele>158.0</ele><time>2026-04-24T14:10:35.997Z</time></trkpt><trkpt lat="44.95934445984976" lon="9.431830551462536"><ele>158.0</ele><time>2026-04-24T14:10:36.997Z</time></trkpt><trkpt lat="44.959435796023186" lon="9.431949298638633"><ele>158.25</ele><time>2026-04-24T14:10:37.997Z</time></trkpt><trkpt lat="44.959546741999645" lon="9.432031267594171"><ele>158.5</ele><time>2026-04-24T14:10:38.997Z</time></trkpt><trkpt lat="44.95965969532127" lon="9.432085825030649"><ele>158.75</ele><time>2026-04-24T14:10:39.997Z</time></trkpt><trkpt lat="44.959765717948365" lon="9.432173858466346"><ele>159.0</ele><time>2026-04-24T14:10:40.997Z</time></trkpt><trkpt lat="44.95986096697621" lon="9.432313530939128"><ele>158.25</ele><time>2026-04-24T14:10:41.997Z</time></trkpt><trkpt lat="44.959964961963884" lon="9.432472467163366"><ele>157.5</ele><time>2026-04-24T14:10:42.997Z</time></trkpt><trkpt lat="44.96006772733336" lon="9.432560152756897"><ele>156.75</ele><time>2026-04-24T14:10:43.997Z</time></trkpt><trkpt lat="44.9601560700305" lon="9.432669401229493"><ele>156.0</ele><time>2026-04-24T14:10:44.997Z</time></trkpt><trkpt lat="44.96025697280189" lon="9.432825216697749"><ele>156.0</ele><time>2026-04-24T14:10:45.997Z</time></trkpt><trkpt lat="44.96039685818356" lon="9.432959030130414"><ele>156.0</ele><time>2026-04-24T14:10:46.997Z</time></trkpt><trkpt lat="44.96055097985117" lon="9.433093453918064"><ele>156.0</ele><time>2026-04-24T14:10:47.997Z</time></trkpt><trkpt lat="44.96071767863733" lon="9.433213978056736"><ele>155.33333333333334</ele><time>2026-04-24T14:10:48.997Z</time></trkpt><trkpt lat="44.960903497267395" lon="9.433294154737839"><ele>154.66666666666669</ele><time>2026-04-24T14:10:49.997Z</time></trkpt><trkpt lat="44.961072099077114" lon="9.433423281525684"><ele>154.0</ele><time>2026-04-24T14:10:50.997Z</time></trkpt><trkpt lat="44.961243329392204" lon="9.433532993215772"><ele>154.0</ele><time>2026-04-24T14:10:51.997Z</time></trkpt><trkpt lat="44.96142995500025" lon="9.433651361158214"><ele>154.0</ele><time>2026-04-24T14:10:52.997Z</time></trkpt><trkpt lat="44.961604591780535" lon="9.433775782114038"><ele>154.0</ele><time>2026-04-24T14:10:53.997Z</time></trkpt><trkpt lat="44.96175532375455" lon="9.433894007196942"><ele>154.33333333333334</ele><time>2026-04-24T14:10:54.997Z</time></trkpt><trkpt lat="44.96191870679932" lon="9.434026026444462"><ele>154.66666666666666</ele><time>2026-04-24T14:10:55.997Z</time></trkpt><trkpt lat="44.962097033434425" lon="9.43417192093241"><ele>155.0</ele><time>2026-04-24T14:10:56.997Z</time></trkpt><trkpt lat="44.96226311784477" lon="9.434330944696573"><ele>155.0</ele><time>2026-04-24T14:10:57.997Z</time></trkpt><trkpt lat="44.962414955781306" lon="9.434466429603047"><ele>155.0</ele><time>2026-04-24T14:10:58.997Z</time></trkpt><trkpt lat="44.96256238325435" lon="9.434622694782004"><ele>155.0</ele><time>2026-04-24T14:10:59.996Z</time></trkpt><trkpt lat="44.96272579294313" lon="9.434773008143985"><ele>154.0</ele><time>2026-04-24T14:11:00.996Z</time></trkpt><trkpt lat="44.962885460285165" lon="9.43492137867047"><ele>153.0</ele><time>2026-04-24T14:11:01.996Z</time></trkpt><trkpt lat="44.96303404380944" lon="9.435088593443094"><ele>152.0</ele><time>2026-04-24T14:11:02.996Z</time></trkpt><trkpt lat="44.96320135823191" lon="9.435236529102777"><ele>152.0</ele><time>2026-04-24T14:11:03.996Z</time></trkpt><trkpt lat="44.96333319848436" lon="9.435409061754754"><ele>152.0</ele><time>2026-04-24T14:11:04.996Z</time></trkpt><trkpt lat="44.96347052046344" lon="9.435603727820835"><ele>152.0</ele><time>2026-04-24T14:11:05.996Z</time></trkpt><trkpt lat="44.96360577701184" lon="9.435806483675995"><ele>152.0</ele><time>2026-04-24T14:11:06.996Z</time></trkpt><trkpt lat="44.96379866501064" lon="9.435935352254235"><ele>152.0</ele><time>2026-04-24T14:11:07.996Z</time></trkpt><trkpt lat="44.963984402169636" lon="9.436095448694815"><ele>152.0</ele><time>2026-04-24T14:11:08.996Z</time></trkpt><trkpt lat="44.9641488540417" lon="9.436267691933926"><ele>152.0</ele><time>2026-04-24T14:11:09.996Z</time></trkpt><trkpt lat="44.96432426405835" lon="9.43640474957611"><ele>152.0</ele><time>2026-04-24T14:11:10.996Z</time></trkpt><trkpt lat="44.96449861821591" lon="9.436535362117377"><ele>152.0</ele><time>2026-04-24T14:11:11.996Z</time></trkpt><trkpt lat="44.96466986962595" lon="9.436661444645464"><ele>152.0</ele><time>2026-04-24T14:11:12.996Z</time></trkpt><trkpt lat="44.96482941561297" lon="9.43675884608735"><ele>152.0</ele><time>2026-04-24T14:11:13.996Z</time></trkpt><trkpt lat="44.964981165423055" lon="9.43693285448649"><ele>152.0</ele><time>2026-04-24T14:11:14.996Z</time></trkpt><trkpt lat="44.965141683523505" lon="9.437076850067047"><ele>152.0</ele><time>2026-04-24T14:11:15.996Z</time></trkpt><trkpt lat="44.965288299965174" lon="9.437195068531498"><ele>152.0</ele><time>2026-04-24T14:11:16.996Z</time></trkpt><trkpt lat="44.96543605180144" lon="9.437307089230313"><ele>152.0</ele><time>2026-04-24T14:11:17.996Z</time></trkpt><trkpt lat="44.965563642902765" lon="9.437366230729367"><ele>152.0</ele><time>2026-04-24T14:11:18.996Z</time></trkpt><trkpt lat="44.96567419638897" lon="9.437450270146337"><ele>152.0</ele><time>2026-04-24T14:11:19.996Z</time></trkpt><trkpt lat="44.96575713206325" lon="9.437507043640212"><ele>152.0</ele><time>2026-04-24T14:11:20.996Z</time></trkpt><trkpt lat="44.96583366316559" lon="9.437553233728096"><ele>152.0</ele><time>2026-04-24T14:11:21.996Z</time></trkpt><trkpt lat="44.96590307887518" lon="9.43764199658627"><ele>152.0</ele><time>2026-04-24T14:11:22.996Z</time></trkpt><trkpt lat="44.96588882965055" lon="9.437838444935911"><ele>152.0</ele><time>2026-04-24T14:11:24.996Z</time></trkpt><trkpt lat="44.96577438354226" lon="9.437924991455247"><ele>152.0</ele><time>2026-04-24T14:11:25.996Z</time></trkpt><trkpt lat="44.965667145498266" lon="9.438030395613453"><ele>152.0</ele><time>2026-04-24T14:11:26.996Z</time></trkpt><trkpt lat="44.96555079418931" lon="9.438152405350763"><ele>152.0</ele><time>2026-04-24T14:11:27.996Z</time></trkpt><trkpt lat="44.96544524964776" lon="9.438300262471373"><ele>150.66666666666666</ele><time>2026-04-24T14:11:28.996Z</time></trkpt><trkpt lat="44.965344130828065" lon="9.43847995493447"><ele>149.33333333333334</ele><time>2026-04-24T14:11:29.996Z</time></trkpt><trkpt lat="44.96522916990909" lon="9.438674588252212"><ele>148.0</ele><time>2026-04-24T14:11:30.996Z</time></trkpt><trkpt lat="44.965122013820825" lon="9.438876777188321"><ele>148.0</ele><time>2026-04-24T14:11:31.996Z</time></trkpt><trkpt lat="44.965013060891565" lon="9.439116937714749"><ele>148.0</ele><time>2026-04-24T14:11:32.996Z</time></trkpt><trkpt lat="44.964896110805405" lon="9.439354719439802"><ele>148.0</ele><time>2026-04-24T14:11:33.996Z</time></trkpt><trkpt lat="44.96477053348876" lon="9.439621357450045"><ele>146.66666666666669</ele><time>2026-04-24T14:11:34.996Z</time></trkpt><trkpt lat="44.96465135421198" lon="9.439851581380793"><ele>145.33333333333334</ele><time>2026-04-24T14:11:35.996Z</time></trkpt><trkpt lat="44.96452836630038" lon="9.44008452639967"><ele>144.0</ele><time>2026-04-24T14:11:36.996Z</time></trkpt><trkpt lat="44.96439041811659" lon="9.440293778621811"><ele>143.66666666666666</ele><time>2026-04-24T14:11:37.996Z</time></trkpt><trkpt lat="44.964277563759694" lon="9.440570727387234"><ele>143.33333333333331</ele><time>2026-04-24T14:11:38.996Z</time></trkpt><trkpt lat="44.96416994629135" lon="9.440735806387961"><ele>143.0</ele><time>2026-04-24T14:11:39.996Z</time></trkpt><trkpt lat="44.96405302241" lon="9.440956291397853"><ele>143.66666666666666</ele><time>2026-04-24T14:11:40.996Z</time></trkpt><trkpt lat="44.96395653147798" lon="9.441165454494572"><ele>144.33333333333334</ele><time>2026-04-24T14:11:41.996Z</time></trkpt><trkpt lat="44.96385096127331" lon="9.441374091290474"><ele>145.0</ele><time>2026-04-24T14:11:42.996Z</time></trkpt><trkpt lat="44.963742188149375" lon="9.441590453178984"><ele>145.0</ele><time>2026-04-24T14:11:43.996Z</time></trkpt><trkpt lat="44.96364036982677" lon="9.441792074530857"><ele>145.0</ele><time>2026-04-24T14:11:44.996Z</time></trkpt><trkpt lat="44.96354250951189" lon="9.441965697247696"><ele>145.0</ele><time>2026-04-24T14:11:45.996Z</time></trkpt><trkpt lat="44.963459960074296" lon="9.442132405068225"><ele>144.66666666666669</ele><time>2026-04-24T14:11:46.996Z</time></trkpt><trkpt lat="44.963390431157634" lon="9.44233707859938"><ele>144.33333333333334</ele><time>2026-04-24T14:11:47.996Z</time></trkpt><trkpt lat="44.96332851619941" lon="9.442511880299183"><ele>144.0</ele><time>2026-04-24T14:11:48.996Z</time></trkpt><trkpt lat="44.96333448522329" lon="9.442763928559408"><ele>144.0</ele><time>2026-04-24T14:11:49.996Z</time></trkpt><trkpt lat="44.96333582562227" lon="9.44306159493851"><ele>144.0</ele><time>2026-04-24T14:11:50.996Z</time></trkpt><trkpt lat="44.963359500209805" lon="9.443292901212276"><ele>144.0</ele><time>2026-04-24T14:11:51.996Z</time></trkpt><trkpt lat="44.963387935201744" lon="9.443543662197051"><ele>144.33333333333334</ele><time>2026-04-24T14:11:52.996Z</time></trkpt><trkpt lat="44.96344958675088" lon="9.443829811354417"><ele>144.66666666666669</ele><time>2026-04-24T14:11:53.996Z</time></trkpt><trkpt lat="44.963553823318115" lon="9.444117107137252"><ele>145.0</ele><time>2026-04-24T14:11:54.996Z</time></trkpt><trkpt lat="44.963663925579645" lon="9.444407880942821"><ele>145.0</ele><time>2026-04-24T14:11:55.996Z</time></trkpt><trkpt lat="44.96379192451895" lon="9.444709882956605"><ele>145.0</ele><time>2026-04-24T14:11:56.996Z</time></trkpt><trkpt lat="44.96391439742043" lon="9.445037936042754"><ele>145.0</ele><time>2026-04-24T14:11:57.996Z</time></trkpt><trkpt lat="44.964046917988846" lon="9.445396511146848"><ele>145.0</ele><time>2026-04-24T14:11:58.995Z</time></trkpt><trkpt lat="44.96418803139506" lon="9.445752343802544"><ele>144.5</ele><time>2026-04-24T14:11:59.995Z</time></trkpt><trkpt lat="44.96431785495409" lon="9.446105718493863"><ele>144.0</ele><time>2026-04-24T14:12:00.995Z</time></trkpt><trkpt lat="44.96443335650416" lon="9.446456876297724"><ele>144.0</ele><time>2026-04-24T14:12:01.995Z</time></trkpt><trkpt lat="44.96454355023681" lon="9.446787918450763"><ele>144.0</ele><time>2026-04-24T14:12:02.995Z</time></trkpt><trkpt lat="44.9646442515708" lon="9.447076838830316"><ele>144.66666666666666</ele><time>2026-04-24T14:12:03.995Z</time></trkpt><trkpt lat="44.96476022408547" lon="9.44730570790839"><ele>145.33333333333331</ele><time>2026-04-24T14:12:04.995Z</time></trkpt><trkpt lat="44.96488215210003" lon="9.447508353180451"><ele>146.0</ele><time>2026-04-24T14:12:05.995Z</time></trkpt><trkpt lat="44.96502159956128" lon="9.447720861997238"><ele>145.0</ele><time>2026-04-24T14:12:06.995Z</time></trkpt><trkpt lat="44.96512324589226" lon="9.447920443499536"><ele>144.0</ele><time>2026-04-24T14:12:07.995Z</time></trkpt><trkpt lat="44.96521667131213" lon="9.448118241461984"><ele>143.0</ele><time>2026-04-24T14:12:08.995Z</time></trkpt><trkpt lat="44.96528879519739" lon="9.44833896986083"><ele>143.0</ele><time>2026-04-24T14:12:09.995Z</time></trkpt><trkpt lat="44.96536683155625" lon="9.44858293105539"><ele>143.0</ele><time>2026-04-24T14:12:10.995Z</time></trkpt><trkpt lat="44.96540718894725" lon="9.448828494552618"><ele>143.0</ele><time>2026-04-24T14:12:11.995Z</time></trkpt><trkpt lat="44.9654170310166" lon="9.449065673875687"><ele>144.66666666666666</ele><time>2026-04-24T14:12:12.995Z</time></trkpt><trkpt lat="44.96540461087502" lon="9.4493023984843"><ele>146.33333333333334</ele><time>2026-04-24T14:12:13.995Z</time></trkpt><trkpt lat="44.96540122623019" lon="9.449551493267402"><ele>148.0</ele><time>2026-04-24T14:12:14.995Z</time></trkpt><trkpt lat="44.96537978234938" lon="9.44979259773559"><ele>148.66666666666669</ele><time>2026-04-24T14:12:15.995Z</time></trkpt><trkpt lat="44.965352492291785" lon="9.45002771660689"><ele>149.33333333333334</ele><time>2026-04-24T14:12:16.995Z</time></trkpt><trkpt lat="44.96538263113885" lon="9.450261881082158"><ele>150.0</ele><time>2026-04-24T14:12:17.995Z</time></trkpt><trkpt lat="44.96537923416574" lon="9.45049850003448"><ele>152.0</ele><time>2026-04-24T14:12:18.995Z</time></trkpt><trkpt lat="44.965393060524384" lon="9.45073390128229"><ele>154.0</ele><time>2026-04-24T14:12:19.995Z</time></trkpt><trkpt lat="44.96542125797091" lon="9.450953073835953"><ele>156.0</ele><time>2026-04-24T14:12:20.995Z</time></trkpt><trkpt lat="44.965443244191604" lon="9.451177636108435"><ele>157.5</ele><time>2026-04-24T14:12:21.995Z</time></trkpt><trkpt lat="44.965462984319494" lon="9.45139382092991"><ele>159.0</ele><time>2026-04-24T14:12:22.995Z</time></trkpt><trkpt lat="44.96548050924346" lon="9.451603417694953"><ele>160.5</ele><time>2026-04-24T14:12:23.995Z</time></trkpt><trkpt lat="44.96551147966873" lon="9.45177353915419"><ele>162.0</ele><time>2026-04-24T14:12:24.995Z</time></trkpt><trkpt lat="44.96554118392444" lon="9.451946082657814"><ele>162.0</ele><time>2026-04-24T14:12:25.995Z</time></trkpt><trkpt lat="44.96558662135744" lon="9.452119939355171"><ele>162.0</ele><time>2026-04-24T14:12:26.995Z</time></trkpt><trkpt lat="44.9656474514562" lon="9.452296259776789"><ele>162.0</ele><time>2026-04-24T14:12:27.995Z</time></trkpt><trkpt lat="44.965719601626084" lon="9.452466516476854"><ele>162.0</ele><time>2026-04-24T14:12:28.995Z</time></trkpt><trkpt lat="44.965857931189575" lon="9.452627829421935"><ele>161.33333333333334</ele><time>2026-04-24T14:12:29.995Z</time></trkpt><trkpt lat="44.965981546969324" lon="9.452793825164045"><ele>160.66666666666669</ele><time>2026-04-24T14:12:30.995Z</time></trkpt><trkpt lat="44.966108806213086" lon="9.452947496508859"><ele>160.0</ele><time>2026-04-24T14:12:31.995Z</time></trkpt><trkpt lat="44.96622939893098" lon="9.453105027367018"><ele>162.66666666666669</ele><time>2026-04-24T14:12:32.995Z</time></trkpt><trkpt lat="44.966346008896316" lon="9.45325340314518"><ele>165.33333333333334</ele><time>2026-04-24T14:12:33.995Z</time></trkpt><trkpt lat="44.96645798936685" lon="9.453421077669553"><ele>168.0</ele><time>2026-04-24T14:12:34.995Z</time></trkpt><trkpt lat="44.96658304552027" lon="9.453600579394807"><ele>168.66666666666666</ele><time>2026-04-24T14:12:35.995Z</time></trkpt><trkpt lat="44.96670037715122" lon="9.4537598161377"><ele>169.33333333333331</ele><time>2026-04-24T14:12:36.995Z</time></trkpt><trkpt lat="44.96681231912062" lon="9.453907047222181"><ele>170.0</ele><time>2026-04-24T14:12:37.995Z</time></trkpt><trkpt lat="44.96692051798913" lon="9.454041791306038"><ele>170.0</ele><time>2026-04-24T14:12:38.995Z</time></trkpt><trkpt lat="44.966996409553175" lon="9.454189567836464"><ele>170.0</ele><time>2026-04-24T14:12:39.995Z</time></trkpt><trkpt lat="44.9670586761379" lon="9.454341168602669"><ele>170.0</ele><time>2026-04-24T14:12:40.995Z</time></trkpt><trkpt lat="44.967105877405146" lon="9.454550369402469"><ele>170.0</ele><time>2026-04-24T14:12:41.995Z</time></trkpt><trkpt lat="44.96707271255588" lon="9.454759909289653"><ele>171.5</ele><time>2026-04-24T14:12:42.995Z</time></trkpt><trkpt lat="44.96702188723456" lon="9.454958074611309"><ele>173.0</ele><time>2026-04-24T14:12:43.995Z</time></trkpt><trkpt lat="44.966957522035855" lon="9.455128087654188"><ele>174.5</ele><time>2026-04-24T14:12:44.995Z</time></trkpt><trkpt lat="44.96687486409691" lon="9.45526498848913"><ele>176.0</ele><time>2026-04-24T14:12:45.995Z</time></trkpt><trkpt lat="44.96677606743845" lon="9.455392932924688"><ele>177.66666666666666</ele><time>2026-04-24T14:12:46.995Z</time></trkpt><trkpt lat="44.966659245901496" lon="9.455493237520352"><ele>179.33333333333334</ele><time>2026-04-24T14:12:47.995Z</time></trkpt><trkpt lat="44.96652153216379" lon="9.455595639444383"><ele>181.0</ele><time>2026-04-24T14:12:48.995Z</time></trkpt><trkpt lat="44.96636778966161" lon="9.45566995576196"><ele>181.0</ele><time>2026-04-24T14:12:49.995Z</time></trkpt><trkpt lat="44.96619714185754" lon="9.455713115784816"><ele>181.0</ele><time>2026-04-24T14:12:50.995Z</time></trkpt><trkpt lat="44.96602465346017" lon="9.455733457414588"><ele>181.0</ele><time>2026-04-24T14:12:51.995Z</time></trkpt><trkpt lat="44.96586103355739" lon="9.455753737467196"><ele>181.66666666666669</ele><time>2026-04-24T14:12:52.995Z</time></trkpt><trkpt lat="44.96569470573153" lon="9.455794445984846"><ele>182.33333333333334</ele><time>2026-04-24T14:12:53.995Z</time></trkpt><trkpt lat="44.96552852111739" lon="9.455831340088707"><ele>183.0</ele><time>2026-04-24T14:12:54.995Z</time></trkpt><trkpt lat="44.965339256764715" lon="9.455831017720227"><ele>183.0</ele><time>2026-04-24T14:12:55.995Z</time></trkpt><trkpt lat="44.965178941887345" lon="9.455906104460096"><ele>183.0</ele><time>2026-04-24T14:12:56.995Z</time></trkpt><trkpt lat="44.96498720901732" lon="9.455937232615712"><ele>183.0</ele><time>2026-04-24T14:12:57.994Z</time></trkpt><trkpt lat="44.96479216141673" lon="9.455969357189115"><ele>184.33333333333334</ele><time>2026-04-24T14:12:58.994Z</time></trkpt><trkpt lat="44.96460874747733" lon="9.45598704930464"><ele>185.66666666666669</ele><time>2026-04-24T14:12:59.994Z</time></trkpt><trkpt lat="44.96440371549391" lon="9.456003743796055"><ele>187.0</ele><time>2026-04-24T14:13:00.994Z</time></trkpt><trkpt lat="44.96422560328846" lon="9.45602536741415"><ele>188.0</ele><time>2026-04-24T14:13:01.994Z</time></trkpt><trkpt lat="44.964036809586396" lon="9.456029642153904"><ele>189.0</ele><time>2026-04-24T14:13:02.994Z</time></trkpt><trkpt lat="44.963863273911706" lon="9.456079931048073"><ele>190.0</ele><time>2026-04-24T14:13:03.994Z</time></trkpt><trkpt lat="44.963676290652266" lon="9.456106259807713"><ele>190.0</ele><time>2026-04-24T14:13:04.994Z</time></trkpt><trkpt lat="44.963481078854045" lon="9.456125947320533"><ele>190.0</ele><time>2026-04-24T14:13:05.994Z</time></trkpt><trkpt lat="44.9632954102101" lon="9.456177021459656"><ele>190.0</ele><time>2026-04-24T14:13:06.994Z</time></trkpt><trkpt lat="44.96312595568902" lon="9.456205858609417"><ele>192.0</ele><time>2026-04-24T14:13:07.994Z</time></trkpt><trkpt lat="44.962946831601" lon="9.456207076690212"><ele>194.0</ele><time>2026-04-24T14:13:08.994Z</time></trkpt><trkpt lat="44.962782018800056" lon="9.456218788388698"><ele>196.0</ele><time>2026-04-24T14:13:09.994Z</time></trkpt><trkpt lat="44.962654493587806" lon="9.456221701064779"><ele>195.75</ele><time>2026-04-24T14:13:10.994Z</time></trkpt><trkpt lat="44.9625109514564" lon="9.456293543744756"><ele>195.5</ele><time>2026-04-24T14:13:11.994Z</time></trkpt><trkpt lat="44.96236967794974" lon="9.456309963752613"><ele>195.25</ele><time>2026-04-24T14:13:12.994Z</time></trkpt><trkpt lat="44.96226775948528" lon="9.456433677846524"><ele>195.0</ele><time>2026-04-24T14:13:13.994Z</time></trkpt><trkpt lat="44.962161365714984" lon="9.456522414537185"><ele>195.0</ele><time>2026-04-24T14:13:14.994Z</time></trkpt><trkpt lat="44.9620543286709" lon="9.45657845995082"><ele>195.0</ele><time>2026-04-24T14:13:15.994Z</time></trkpt><trkpt lat="44.96195906524889" lon="9.456649051660595"><ele>195.0</ele><time>2026-04-24T14:13:16.994Z</time></trkpt><trkpt lat="44.961861638708264" lon="9.45669780492426"><ele>195.0</ele><time>2026-04-24T14:13:17.994Z</time></trkpt><trkpt lat="44.96175752018177" lon="9.456720968792645"><ele>195.0</ele><time>2026-04-24T14:13:18.994Z</time></trkpt><trkpt lat="44.96166697286115" lon="9.456688372517071"><ele>195.75</ele><time>2026-04-24T14:13:19.994Z</time></trkpt><trkpt lat="44.96152554875914" lon="9.456693315020308"><ele>196.5</ele><time>2026-04-24T14:13:20.994Z</time></trkpt><trkpt lat="44.961368725651575" lon="9.456685894687297"><ele>197.25</ele><time>2026-04-24T14:13:21.994Z</time></trkpt><trkpt lat="44.961224638119575" lon="9.456735089543141"><ele>198.0</ele><time>2026-04-24T14:13:22.994Z</time></trkpt><trkpt lat="44.96110214869694" lon="9.456833905816637"><ele>198.0</ele><time>2026-04-24T14:13:23.994Z</time></trkpt><trkpt lat="44.96098670557551" lon="9.456969760312631"><ele>198.0</ele><time>2026-04-24T14:13:24.994Z</time></trkpt><trkpt lat="44.960866999023835" lon="9.457038131691219"><ele>198.0</ele><time>2026-04-24T14:13:25.994Z</time></trkpt><trkpt lat="44.96074587187943" lon="9.457145590896332"><ele>198.0</ele><time>2026-04-24T14:13:26.994Z</time></trkpt><trkpt lat="44.96060748971235" lon="9.457168495558966"><ele>198.5</ele><time>2026-04-24T14:13:27.994Z</time></trkpt><trkpt lat="44.96047799373513" lon="9.457128869227088"><ele>199.0</ele><time>2026-04-24T14:13:28.994Z</time></trkpt><trkpt lat="44.96033522292615" lon="9.457051707445649"><ele>199.5</ele><time>2026-04-24T14:13:29.994Z</time></trkpt><trkpt lat="44.96018971164238" lon="9.456966980429481"><ele>200.0</ele><time>2026-04-24T14:13:30.994Z</time></trkpt><trkpt lat="44.96004095636026" lon="9.456866264439263"><ele>198.0</ele><time>2026-04-24T14:13:31.994Z</time></trkpt><trkpt lat="44.959874906240046" lon="9.456789423729496"><ele>196.0</ele><time>2026-04-24T14:13:32.994Z</time></trkpt><trkpt lat="44.95973224083022" lon="9.456662186477882"><ele>194.0</ele><time>2026-04-24T14:13:33.994Z</time></trkpt><trkpt lat="44.95957672747919" lon="9.456562750898485"><ele>194.0</ele><time>2026-04-24T14:13:34.994Z</time></trkpt><trkpt lat="44.95943816393799" lon="9.456573527523116"><ele>194.0</ele><time>2026-04-24T14:13:35.994Z</time></trkpt><trkpt lat="44.95931820259897" lon="9.456521537244297"><ele>194.0</ele><time>2026-04-24T14:13:36.994Z</time></trkpt><trkpt lat="44.95921578547131" lon="9.456425547620723"><ele>194.0</ele><time>2026-04-24T14:13:37.994Z</time></trkpt><trkpt lat="44.959091069433704" lon="9.456400644013838"><ele>193.0</ele><time>2026-04-24T14:13:38.994Z</time></trkpt><trkpt lat="44.95897643120979" lon="9.456388481155555"><ele>192.0</ele><time>2026-04-24T14:13:39.994Z</time></trkpt><trkpt lat="44.95886363475914" lon="9.456418413688194"><ele>191.0</ele><time>2026-04-24T14:13:40.994Z</time></trkpt><trkpt lat="44.95878091935001" lon="9.456506863953521"><ele>190.0</ele><time>2026-04-24T14:13:41.994Z</time></trkpt><trkpt lat="44.958705859972035" lon="9.456622317757535"><ele>189.0</ele><time>2026-04-24T14:13:42.994Z</time></trkpt><trkpt lat="44.95866263473131" lon="9.456810428414654"><ele>189.0</ele><time>2026-04-24T14:13:43.994Z</time></trkpt><trkpt lat="44.958659833443534" lon="9.45702263522657"><ele>189.0</ele><time>2026-04-24T14:13:44.994Z</time></trkpt><trkpt lat="44.958652681176055" lon="9.457254285508164"><ele>189.0</ele><time>2026-04-24T14:13:45.994Z</time></trkpt><trkpt lat="44.95863477698169" lon="9.457483057186735"><ele>187.0</ele><time>2026-04-24T14:13:46.994Z</time></trkpt><trkpt lat="44.95860752584665" lon="9.457686109320496"><ele>185.0</ele><time>2026-04-24T14:13:47.994Z</time></trkpt><trkpt lat="44.95859241807246" lon="9.457879268029567"><ele>183.0</ele><time>2026-04-24T14:13:48.994Z</time></trkpt><trkpt lat="44.95857750674811" lon="9.458088751928273"><ele>181.0</ele><time>2026-04-24T14:13:49.994Z</time></trkpt><trkpt lat="44.958563025670045" lon="9.458308484432056"><ele>180.75</ele><time>2026-04-24T14:13:50.994Z</time></trkpt><trkpt lat="44.95854446235485" lon="9.458534149556861"><ele>180.5</ele><time>2026-04-24T14:13:51.994Z</time></trkpt><trkpt lat="44.95852406364835" lon="9.458707577386132"><ele>180.25</ele><time>2026-04-24T14:13:52.994Z</time></trkpt><trkpt lat="44.95851722214467" lon="9.458926965515683"><ele>180.0</ele><time>2026-04-24T14:13:53.994Z</time></trkpt><trkpt lat="44.9585340797012" lon="9.459123081769908"><ele>181.0</ele><time>2026-04-24T14:13:54.994Z</time></trkpt><trkpt lat="44.95857190315525" lon="9.459344918884257"><ele>182.0</ele><time>2026-04-24T14:13:55.993Z</time></trkpt><trkpt lat="44.95860886564528" lon="9.459584554169794"><ele>183.0</ele><time>2026-04-24T14:13:56.993Z</time></trkpt><trkpt lat="44.95865722452737" lon="9.459845166104877"><ele>186.0</ele><time>2026-04-24T14:13:57.993Z</time></trkpt><trkpt lat="44.9587486011783" lon="9.460069403454016"><ele>189.0</ele><time>2026-04-24T14:13:58.993Z</time></trkpt><trkpt lat="44.95884830843766" lon="9.460255437366952"><ele>192.0</ele><time>2026-04-24T14:13:59.993Z</time></trkpt><trkpt lat="44.958962317450776" lon="9.46043620777848"><ele>190.66666666666666</ele><time>2026-04-24T14:14:00.993Z</time></trkpt><trkpt lat="44.959103843881316" lon="9.46059707078847"><ele>189.33333333333331</ele><time>2026-04-24T14:14:01.993Z</time></trkpt><trkpt lat="44.95925642962688" lon="9.460770028495991"><ele>188.0</ele><time>2026-04-24T14:14:02.993Z</time></trkpt><trkpt lat="44.95940044210267" lon="9.460941771531433"><ele>188.0</ele><time>2026-04-24T14:14:03.993Z</time></trkpt><trkpt lat="44.95953750265498" lon="9.461122792876349"><ele>188.0</ele><time>2026-04-24T14:14:04.993Z</time></trkpt><trkpt lat="44.95965809812852" lon="9.461299372504373"><ele>188.0</ele><time>2026-04-24T14:14:05.993Z</time></trkpt><trkpt lat="44.959778093061566" lon="9.461455231102468"><ele>188.0</ele><time>2026-04-24T14:14:06.993Z</time></trkpt><trkpt lat="44.95988687152049" lon="9.461608325235641"><ele>188.0</ele><time>2026-04-24T14:14:07.993Z</time></trkpt><trkpt lat="44.95997134635542" lon="9.461740039337261"><ele>188.0</ele><time>2026-04-24T14:14:08.993Z</time></trkpt><trkpt lat="44.960051361437806" lon="9.461902610487149"><ele>188.0</ele><time>2026-04-24T14:14:09.993Z</time></trkpt><trkpt lat="44.960134833650734" lon="9.46211939698112"><ele>188.0</ele><time>2026-04-24T14:14:10.993Z</time></trkpt><trkpt lat="44.960175282083256" lon="9.462359893795238"><ele>188.0</ele><time>2026-04-24T14:14:11.993Z</time></trkpt><trkpt lat="44.960164790656734" lon="9.462600170821329"><ele>188.0</ele><time>2026-04-24T14:14:12.993Z</time></trkpt><trkpt lat="44.96012849257184" lon="9.46284735776986"><ele>191.66666666666666</ele><time>2026-04-24T14:14:13.993Z</time></trkpt><trkpt lat="44.960119264059905" lon="9.463080927806562"><ele>195.33333333333331</ele><time>2026-04-24T14:14:14.993Z</time></trkpt><trkpt lat="44.96010458810362" lon="9.463289314339455"><ele>199.0</ele><time>2026-04-24T14:14:15.993Z</time></trkpt><trkpt lat="44.960135425556565" lon="9.463499788379375"><ele>199.0</ele><time>2026-04-24T14:14:16.993Z</time></trkpt><trkpt lat="44.960136207321305" lon="9.463708003340978"><ele>199.0</ele><time>2026-04-24T14:14:17.993Z</time></trkpt><trkpt lat="44.96014439317422" lon="9.463930397004404"><ele>199.0</ele><time>2026-04-24T14:14:18.993Z</time></trkpt><trkpt lat="44.960202474902424" lon="9.464123711463557"><ele>202.0</ele><time>2026-04-24T14:14:19.993Z</time></trkpt><trkpt lat="44.960328859170744" lon="9.464280800113814"><ele>205.0</ele><time>2026-04-24T14:14:20.993Z</time></trkpt><trkpt lat="44.96047799809436" lon="9.46440206319259"><ele>208.0</ele><time>2026-04-24T14:14:21.993Z</time></trkpt><trkpt lat="44.96061415261003" lon="9.464525253605414"><ele>208.66666666666666</ele><time>2026-04-24T14:14:22.993Z</time></trkpt><trkpt lat="44.96074286538468" lon="9.46466504129642"><ele>209.33333333333331</ele><time>2026-04-24T14:14:23.993Z</time></trkpt><trkpt lat="44.96087391591677" lon="9.464786566657997"><ele>210.0</ele><time>2026-04-24T14:14:24.993Z</time></trkpt><trkpt lat="44.96098427107621" lon="9.464934831178756"><ele>210.0</ele><time>2026-04-24T14:14:25.993Z</time></trkpt><trkpt lat="44.961110648747976" lon="9.46501921492879"><ele>210.0</ele><time>2026-04-24T14:14:26.994Z</time></trkpt><trkpt lat="44.96122261185988" lon="9.465125889670043"><ele>210.0</ele><time>2026-04-24T14:14:27.994Z</time></trkpt><trkpt lat="44.961330853509295" lon="9.465239879177787"><ele>210.0</ele><time>2026-04-24T14:14:28.994Z</time></trkpt><trkpt lat="44.9614528430135" lon="9.465357972706013"><ele>210.25</ele><time>2026-04-24T14:14:29.994Z</time></trkpt><trkpt lat="44.961501319864475" lon="9.465543251044005"><ele>210.5</ele><time>2026-04-24T14:14:30.994Z</time></trkpt><trkpt lat="44.961506722865664" lon="9.465741158985992"><ele>210.75</ele><time>2026-04-24T14:14:31.994Z</time></trkpt><trkpt lat="44.96154694820356" lon="9.465949261853035"><ele>211.0</ele><time>2026-04-24T14:14:32.994Z</time></trkpt><trkpt lat="44.9615646044005" lon="9.466146340775392"><ele>211.0</ele><time>2026-04-24T14:14:33.994Z</time></trkpt><trkpt lat="44.96154905660512" lon="9.466349939334377"><ele>211.0</ele><time>2026-04-24T14:14:34.994Z</time></trkpt><trkpt lat="44.96152926602606" lon="9.466531368246393"><ele>211.0</ele><time>2026-04-24T14:14:35.994Z</time></trkpt><trkpt lat="44.96154900781453" lon="9.466703317102894"><ele>211.0</ele><time>2026-04-24T14:14:36.994Z</time></trkpt><trkpt lat="44.9615717430104" lon="9.466865642555994"><ele>211.0</ele><time>2026-04-24T14:14:37.994Z</time></trkpt><trkpt lat="44.961566655074485" lon="9.467013334507794"><ele>211.0</ele><time>2026-04-24T14:14:38.994Z</time></trkpt><trkpt lat="44.96157723383266" lon="9.467168099423672"><ele>211.0</ele><time>2026-04-24T14:14:39.994Z</time></trkpt><trkpt lat="44.96158920078946" lon="9.467347682200804"><ele>211.0</ele><time>2026-04-24T14:14:40.994Z</time></trkpt><trkpt lat="44.96157244257776" lon="9.467503539315258"><ele>210.5</ele><time>2026-04-24T14:14:41.994Z</time></trkpt><trkpt lat="44.96150643926485" lon="9.467631019290573"><ele>210.0</ele><time>2026-04-24T14:14:42.994Z</time></trkpt><trkpt lat="44.9614317375165" lon="9.467772785864396"><ele>209.5</ele><time>2026-04-24T14:14:43.994Z</time></trkpt><trkpt lat="44.96135967308474" lon="9.467907946216592"><ele>209.0</ele><time>2026-04-24T14:14:44.994Z</time></trkpt><trkpt lat="44.961261296964636" lon="9.468011663819315"><ele>208.25</ele><time>2026-04-24T14:14:45.994Z</time></trkpt><trkpt lat="44.96117399316937" lon="9.468136601730073"><ele>207.5</ele><time>2026-04-24T14:14:47.001Z</time></trkpt><trkpt lat="44.96108927239539" lon="9.46821344131741"><ele>206.75</ele><time>2026-04-24T14:14:48.001Z</time></trkpt><trkpt lat="44.96102100238346" lon="9.468332842586078"><ele>206.0</ele><time>2026-04-24T14:14:49.001Z</time></trkpt><trkpt lat="44.96094866985757" lon="9.468475263948733"><ele>207.0</ele><time>2026-04-24T14:14:50.001Z</time></trkpt><trkpt lat="44.960858911236414" lon="9.468606932149967"><ele>208.0</ele><time>2026-04-24T14:14:51.001Z</time></trkpt><trkpt lat="44.96077540374971" lon="9.468738275856328"><ele>209.0</ele><time>2026-04-24T14:14:52.001Z</time></trkpt><trkpt lat="44.96069262857542" lon="9.468842706829147"><ele>210.0</ele><time>2026-04-24T14:14:53.001Z</time></trkpt><trkpt lat="44.96060984252732" lon="9.468971870125262"><ele>210.0</ele><time>2026-04-24T14:14:54.001Z</time></trkpt><trkpt lat="44.96053709581426" lon="9.469121138482516"><ele>210.0</ele><time>2026-04-24T14:14:55.001Z</time></trkpt><trkpt lat="44.960483857325386" lon="9.469262568625435"><ele>210.0</ele><time>2026-04-24T14:14:56.001Z</time></trkpt><trkpt lat="44.960439515889576" lon="9.469396146879006"><ele>210.0</ele><time>2026-04-24T14:14:57.001Z</time></trkpt><trkpt lat="44.96039567332971" lon="9.46954817922436"><ele>210.0</ele><time>2026-04-24T14:14:58.001Z</time></trkpt><trkpt lat="44.960348460331204" lon="9.469700792478088"><ele>210.0</ele><time>2026-04-24T14:14:59.001Z</time></trkpt><trkpt lat="44.960308798253614" lon="9.469869260500438"><ele>210.0</ele><time>2026-04-24T14:15:00.001Z</time></trkpt><trkpt lat="44.96028271101003" lon="9.470019893446997"><ele>210.0</ele><time>2026-04-24T14:15:01.001Z</time></trkpt><trkpt lat="44.96025283410867" lon="9.47020563415624"><ele>210.0</ele><time>2026-04-24T14:15:02.001Z</time></trkpt><trkpt lat="44.96028091105331" lon="9.470355902370716"><ele>210.0</ele><time>2026-04-24T14:15:03.001Z</time></trkpt><trkpt lat="44.96032069109422" lon="9.470533832382609"><ele>210.0</ele><time>2026-04-24T14:15:04.001Z</time></trkpt><trkpt lat="44.960380026681364" lon="9.470726583236747"><ele>210.0</ele><time>2026-04-24T14:15:05.001Z</time></trkpt><trkpt lat="44.960456230116975" lon="9.470898222029081"><ele>211.5</ele><time>2026-04-24T14:15:06.001Z</time></trkpt><trkpt lat="44.960541129670084" lon="9.471065315438617"><ele>213.0</ele><time>2026-04-24T14:15:07.001Z</time></trkpt><trkpt lat="44.96062311702233" lon="9.4712330797228"><ele>214.5</ele><time>2026-04-24T14:15:08.001Z</time></trkpt><trkpt lat="44.96070640418692" lon="9.471421387779626"><ele>216.0</ele><time>2026-04-24T14:15:09.001Z</time></trkpt><trkpt lat="44.960783123800795" lon="9.47161111260722"><ele>215.66666666666669</ele><time>2026-04-24T14:15:10.001Z</time></trkpt><trkpt lat="44.96088491600495" lon="9.471821040544933"><ele>215.33333333333334</ele><time>2026-04-24T14:15:11Z</time></trkpt><trkpt lat="44.96097474435328" lon="9.472066264832174"><ele>215.0</ele><time>2026-04-24T14:15:12Z</time></trkpt><trkpt lat="44.96101533869498" lon="9.472314057573398"><ele>215.0</ele><time>2026-04-24T14:15:13Z</time></trkpt><trkpt lat="44.96106962581142" lon="9.472557292683227"><ele>215.0</ele><time>2026-04-24T14:15:14Z</time></trkpt><trkpt lat="44.961096105893105" lon="9.472805682474258"><ele>215.0</ele><time>2026-04-24T14:15:15Z</time></trkpt><trkpt lat="44.9610849096073" lon="9.473050043321896"><ele>215.0</ele><time>2026-04-24T14:15:16Z</time></trkpt><trkpt lat="44.96103448035112" lon="9.473271730491904"><ele>215.0</ele><time>2026-04-24T14:15:17Z</time></trkpt><trkpt lat="44.96095267808004" lon="9.473457389737328"><ele>215.0</ele><time>2026-04-24T14:15:18Z</time></trkpt><trkpt lat="44.960877982257685" lon="9.473650632105276"><ele>216.66666666666669</ele><time>2026-04-24T14:15:19Z</time></trkpt><trkpt lat="44.960784047896865" lon="9.473832069177565"><ele>218.33333333333331</ele><time>2026-04-24T14:15:20Z</time></trkpt><trkpt lat="44.960655322401045" lon="9.47396499277195"><ele>220.0</ele><time>2026-04-24T14:15:21Z</time></trkpt><trkpt lat="44.96051972554773" lon="9.4740761302232"><ele>220.0</ele><time>2026-04-24T14:15:22Z</time></trkpt><trkpt lat="44.96035978410931" lon="9.474140942535996"><ele>220.0</ele><time>2026-04-24T14:15:23Z</time></trkpt><trkpt lat="44.96019674727622" lon="9.474170412677354"><ele>220.0</ele><time>2026-04-24T14:15:24Z</time></trkpt><trkpt lat="44.96003437365978" lon="9.474128128082146"><ele>221.66666666666666</ele><time>2026-04-24T14:15:25Z</time></trkpt><trkpt lat="44.959862360993206" lon="9.474083107315478"><ele>223.33333333333331</ele><time>2026-04-24T14:15:26Z</time></trkpt><trkpt lat="44.95969990506342" lon="9.47403817137525"><ele>225.0</ele><time>2026-04-24T14:15:27Z</time></trkpt><trkpt lat="44.95954802016357" lon="9.473976479486707"><ele>225.0</ele><time>2026-04-24T14:15:28Z</time></trkpt><trkpt lat="44.95939981928566" lon="9.473920902298369"><ele>225.0</ele><time>2026-04-24T14:15:29Z</time></trkpt><trkpt lat="44.959256942146304" lon="9.473896482171869"><ele>225.0</ele><time>2026-04-24T14:15:30Z</time></trkpt><trkpt lat="44.95913802876264" lon="9.47390911725267"><ele>225.0</ele><time>2026-04-24T14:15:31Z</time></trkpt><trkpt lat="44.95902886466208" lon="9.47398902791792"><ele>224.75</ele><time>2026-04-24T14:15:32Z</time></trkpt><trkpt lat="44.95890555251883" lon="9.474037354612594"><ele>224.5</ele><time>2026-04-24T14:15:33Z</time></trkpt><trkpt lat="44.95882387869523" lon="9.474210273209886"><ele>224.25</ele><time>2026-04-24T14:15:34Z</time></trkpt><trkpt lat="44.95875947711052" lon="9.474391492557833"><ele>224.0</ele><time>2026-04-24T14:15:35Z</time></trkpt><trkpt lat="44.95873536135362" lon="9.474623933856082"><ele>224.0</ele><time>2026-04-24T14:15:36Z</time></trkpt><trkpt lat="44.95870021589437" lon="9.474854862596041"><ele>224.0</ele><time>2026-04-24T14:15:37Z</time></trkpt><trkpt lat="44.95864345384033" lon="9.47508546077835"><ele>224.0</ele><time>2026-04-24T14:15:38Z</time></trkpt><trkpt lat="44.9585858432711" lon="9.475303001741338"><ele>223.0</ele><time>2026-04-24T14:15:39Z</time></trkpt><trkpt lat="44.95855392175201" lon="9.475505766186908"><ele>222.0</ele><time>2026-04-24T14:15:40Z</time></trkpt><trkpt lat="44.95854983560656" lon="9.475723454003933"><ele>221.0</ele><time>2026-04-24T14:15:41Z</time></trkpt><trkpt lat="44.95855693162499" lon="9.475929560047273"><ele>220.0</ele><time>2026-04-24T14:15:42Z</time></trkpt><trkpt lat="44.95859201467657" lon="9.476132439144187"><ele>221.33333333333331</ele><time>2026-04-24T14:15:43Z</time></trkpt><trkpt lat="44.95864671283046" lon="9.476341753102425"><ele>222.66666666666669</ele><time>2026-04-24T14:15:44Z</time></trkpt><trkpt lat="44.958712433655265" lon="9.476549750995668"><ele>224.0</ele><time>2026-04-24T14:15:45Z</time></trkpt><trkpt lat="44.95884338214551" lon="9.47676015494871"><ele>224.0</ele><time>2026-04-24T14:15:46Z</time></trkpt><trkpt lat="44.958925638720224" lon="9.476946189951779"><ele>224.0</ele><time>2026-04-24T14:15:47Z</time></trkpt><trkpt lat="44.958977889274664" lon="9.477123870747446"><ele>224.0</ele><time>2026-04-24T14:15:48Z</time></trkpt><trkpt lat="44.95903040860759" lon="9.477272311812689"><ele>224.0</ele><time>2026-04-24T14:15:49Z</time></trkpt><trkpt lat="44.95907263872395" lon="9.477433461671179"><ele>224.5</ele><time>2026-04-24T14:15:50Z</time></trkpt><trkpt lat="44.959078682893136" lon="9.477576662243592"><ele>225.0</ele><time>2026-04-24T14:15:51Z</time></trkpt><trkpt lat="44.959056677317406" lon="9.47771070573618"><ele>225.5</ele><time>2026-04-24T14:15:52Z</time></trkpt><trkpt lat="44.9589783378415" lon="9.477845766877211"><ele>226.0</ele><time>2026-04-24T14:15:53Z</time></trkpt><trkpt lat="44.95889032370261" lon="9.477976681398047"><ele>224.25</ele><time>2026-04-24T14:15:54Z</time></trkpt><trkpt lat="44.95880058255268" lon="9.47809682564597"><ele>222.5</ele><time>2026-04-24T14:15:55Z</time></trkpt><trkpt lat="44.95873897124774" lon="9.478236679469749"><ele>220.75</ele><time>2026-04-24T14:15:56Z</time></trkpt><trkpt lat="44.958680007134134" lon="9.4783832228442"><ele>219.0</ele><time>2026-04-24T14:15:57Z</time></trkpt><trkpt lat="44.958582797346345" lon="9.478501121284479"><ele>219.0</ele><time>2026-04-24T14:15:58Z</time></trkpt><trkpt lat="44.95850262958716" lon="9.478647713955816"><ele>219.0</ele><time>2026-04-24T14:15:59Z</time></trkpt><trkpt lat="44.958421534021724" lon="9.478801343147545"><ele>219.0</ele><time>2026-04-24T14:16:00Z</time></trkpt><trkpt lat="44.95832352847486" lon="9.47896477592287"><ele>219.0</ele><time>2026-04-24T14:16:01Z</time></trkpt><trkpt lat="44.958215404032636" lon="9.479089264645914"><ele>219.25</ele><time>2026-04-24T14:16:01.999Z</time></trkpt><trkpt lat="44.958140699996626" lon="9.479276152006577"><ele>219.5</ele><time>2026-04-24T14:16:02.999Z</time></trkpt><trkpt lat="44.95809449339418" lon="9.47944710768364"><ele>219.75</ele><time>2026-04-24T14:16:03.999Z</time></trkpt><trkpt lat="44.95802161227527" lon="9.47960451724141"><ele>220.0</ele><time>2026-04-24T14:16:04.999Z</time></trkpt><trkpt lat="44.95792797176771" lon="9.479814271860349"><ele>218.0</ele><time>2026-04-24T14:16:05.999Z</time></trkpt><trkpt lat="44.957811770935734" lon="9.479971717475054"><ele>216.0</ele><time>2026-04-24T14:16:06.999Z</time></trkpt><trkpt lat="44.95767482908193" lon="9.480111676213662"><ele>214.0</ele><time>2026-04-24T14:16:07.999Z</time></trkpt><trkpt lat="44.95756750147132" lon="9.480306869890835"><ele>212.66666666666666</ele><time>2026-04-24T14:16:08.999Z</time></trkpt><trkpt lat="44.95742331188637" lon="9.480398005360577"><ele>211.33333333333331</ele><time>2026-04-24T14:16:09.999Z</time></trkpt><trkpt lat="44.957243489134974" lon="9.480424005641176"><ele>210.0</ele><time>2026-04-24T14:16:10.999Z</time></trkpt><trkpt lat="44.957048667712726" lon="9.48044942571333"><ele>210.0</ele><time>2026-04-24T14:16:11.999Z</time></trkpt><trkpt lat="44.956857288067575" lon="9.480462478046125"><ele>210.0</ele><time>2026-04-24T14:16:12.999Z</time></trkpt><trkpt lat="44.956686147678376" lon="9.480485290062392"><ele>210.0</ele><time>2026-04-24T14:16:13.999Z</time></trkpt><trkpt lat="44.95651132528301" lon="9.480529490027399"><ele>210.5</ele><time>2026-04-24T14:16:14.999Z</time></trkpt><trkpt lat="44.956350647582774" lon="9.480572374725227"><ele>211.0</ele><time>2026-04-24T14:16:15.999Z</time></trkpt><trkpt lat="44.956208823675816" lon="9.480618947990191"><ele>211.5</ele><time>2026-04-24T14:16:16.999Z</time></trkpt><trkpt lat="44.956072491939736" lon="9.480660247519156"><ele>212.0</ele><time>2026-04-24T14:16:17.999Z</time></trkpt><trkpt lat="44.95594490557411" lon="9.480674097783002"><ele>212.39999999999998</ele><time>2026-04-24T14:16:18.999Z</time></trkpt><trkpt lat="44.95582431219178" lon="9.480666071406233"><ele>212.79999999999998</ele><time>2026-04-24T14:16:19.999Z</time></trkpt><trkpt lat="44.95572838651133" lon="9.480712502928718"><ele>213.2</ele><time>2026-04-24T14:16:20.999Z</time></trkpt><trkpt lat="44.95564498823875" lon="9.480816623431927"><ele>213.6</ele><time>2026-04-24T14:16:21.999Z</time></trkpt><trkpt lat="44.95557698301994" lon="9.480932851204805"><ele>214.0</ele><time>2026-04-24T14:16:22.999Z</time></trkpt><trkpt lat="44.955543014635886" lon="9.481097030710789"><ele>213.5</ele><time>2026-04-24T14:16:23.999Z</time></trkpt><trkpt lat="44.95556110480799" lon="9.481310888995928"><ele>213.0</ele><time>2026-04-24T14:16:24.999Z</time></trkpt><trkpt lat="44.955619201024334" lon="9.481492999968939"><ele>212.5</ele><time>2026-04-24T14:16:25.999Z</time></trkpt><trkpt lat="44.95567440587509" lon="9.481672005707972"><ele>212.0</ele><time>2026-04-24T14:16:26.999Z</time></trkpt><trkpt lat="44.95574019593124" lon="9.481876134415447"><ele>212.0</ele><time>2026-04-24T14:16:27.999Z</time></trkpt><trkpt lat="44.95585741538477" lon="9.48200933441395"><ele>212.0</ele><time>2026-04-24T14:16:28.999Z</time></trkpt><trkpt lat="44.95599271432828" lon="9.482143541783989"><ele>212.0</ele><time>2026-04-24T14:16:29.999Z</time></trkpt><trkpt lat="44.956124710893846" lon="9.482271461998542"><ele>211.5</ele><time>2026-04-24T14:16:30.999Z</time></trkpt><trkpt lat="44.95625573352738" lon="9.48240907733628"><ele>211.0</ele><time>2026-04-24T14:16:31.999Z</time></trkpt><trkpt lat="44.95635949337285" lon="9.482526532821394"><ele>210.5</ele><time>2026-04-24T14:16:32.999Z</time></trkpt><trkpt lat="44.9564741266845" lon="9.482661048028968"><ele>210.0</ele><time>2026-04-24T14:16:33.999Z</time></trkpt><trkpt lat="44.956548268093464" lon="9.482811363915635"><ele>211.0</ele><time>2026-04-24T14:16:34.999Z</time></trkpt><trkpt lat="44.95658313539624" lon="9.482948830414088"><ele>212.0</ele><time>2026-04-24T14:16:35.999Z</time></trkpt><trkpt lat="44.95653619765665" lon="9.4830901399136"><ele>213.0</ele><time>2026-04-24T14:16:36.999Z</time></trkpt><trkpt lat="44.956491801653826" lon="9.483236837200213"><ele>214.0</ele><time>2026-04-24T14:16:37.999Z</time></trkpt><trkpt lat="44.95642393145469" lon="9.4833832648986"><ele>214.0</ele><time>2026-04-24T14:16:38.999Z</time></trkpt><trkpt lat="44.9563140180189" lon="9.483501578929362"><ele>214.0</ele><time>2026-04-24T14:16:39.999Z</time></trkpt><trkpt lat="44.95617650842366" lon="9.483568376885206"><ele>214.0</ele><time>2026-04-24T14:16:40.999Z</time></trkpt><trkpt lat="44.956031559316045" lon="9.48357945992785"><ele>214.0</ele><time>2026-04-24T14:16:41.999Z</time></trkpt><trkpt lat="44.95588882968196" lon="9.48356833454553"><ele>215.75</ele><time>2026-04-24T14:16:42.999Z</time></trkpt><trkpt lat="44.95574716954988" lon="9.483542032581427"><ele>217.5</ele><time>2026-04-24T14:16:43.999Z</time></trkpt><trkpt lat="44.95561846028899" lon="9.483543622682825"><ele>219.25</ele><time>2026-04-24T14:16:44.999Z</time></trkpt><trkpt lat="44.95548884797683" lon="9.483573499695096"><ele>221.0</ele><time>2026-04-24T14:16:45.999Z</time></trkpt><trkpt lat="44.95537842457041" lon="9.483678846000291"><ele>219.5</ele><time>2026-04-24T14:16:46.999Z</time></trkpt><trkpt lat="44.95526807059596" lon="9.483774308693173"><ele>218.0</ele><time>2026-04-24T14:16:47.999Z</time></trkpt><trkpt lat="44.955198125243314" lon="9.483944971270661"><ele>216.5</ele><time>2026-04-24T14:16:48.999Z</time></trkpt><trkpt lat="44.955164151253754" lon="9.484171577499358"><ele>215.0</ele><time>2026-04-24T14:16:49.999Z</time></trkpt><trkpt lat="44.95512526193663" lon="9.484381230329362"><ele>215.0</ele><time>2026-04-24T14:16:50.999Z</time></trkpt><trkpt lat="44.955129204836375" lon="9.484619059226398"><ele>215.0</ele><time>2026-04-24T14:16:51.999Z</time></trkpt><trkpt lat="44.9551368530967" lon="9.484833380259477"><ele>215.0</ele><time>2026-04-24T14:16:52.999Z</time></trkpt><trkpt lat="44.95516214477888" lon="9.485071029948179"><ele>215.0</ele><time>2026-04-24T14:16:53.999Z</time></trkpt><trkpt lat="44.95516336365491" lon="9.485276486854286"><ele>215.0</ele><time>2026-04-24T14:16:54.999Z</time></trkpt><trkpt lat="44.955181027681526" lon="9.485509262736128"><ele>215.0</ele><time>2026-04-24T14:16:55.999Z</time></trkpt><trkpt lat="44.9552095116053" lon="9.485719576559301"><ele>215.66666666666669</ele><time>2026-04-24T14:16:56.999Z</time></trkpt><trkpt lat="44.955214966869974" lon="9.485975753944764"><ele>216.33333333333331</ele><time>2026-04-24T14:16:57.999Z</time></trkpt><trkpt lat="44.955209547303944" lon="9.486181233316383"><ele>217.0</ele><time>2026-04-24T14:16:58.998Z</time></trkpt><trkpt lat="44.955201161179566" lon="9.486439920389985"><ele>217.0</ele><time>2026-04-24T14:16:59.998Z</time></trkpt><trkpt lat="44.95517932443417" lon="9.486680484084777"><ele>217.0</ele><time>2026-04-24T14:17:00.998Z</time></trkpt><trkpt lat="44.95516932943336" lon="9.486942397875131"><ele>217.0</ele><time>2026-04-24T14:17:01.998Z</time></trkpt><trkpt lat="44.955137098452504" lon="9.487189664402315"><ele>217.0</ele><time>2026-04-24T14:17:02.998Z</time></trkpt><trkpt lat="44.95508809824076" lon="9.487441189293408"><ele>217.0</ele><time>2026-04-24T14:17:03.998Z</time></trkpt><trkpt lat="44.95507418454363" lon="9.487711969064716"><ele>217.0</ele><time>2026-04-24T14:17:04.998Z</time></trkpt><trkpt lat="44.95502079881996" lon="9.48800200281729"><ele>221.66666666666666</ele><time>2026-04-24T14:17:05.998Z</time></trkpt><trkpt lat="44.95496127496033" lon="9.488240544144356"><ele>226.33333333333331</ele><time>2026-04-24T14:17:06.998Z</time></trkpt><trkpt lat="44.954906209735626" lon="9.488482311584693"><ele>231.0</ele><time>2026-04-24T14:17:07.998Z</time></trkpt><trkpt lat="44.954865389892156" lon="9.488728045724132"><ele>229.25</ele><time>2026-04-24T14:17:08.998Z</time></trkpt><trkpt lat="44.954814899566074" lon="9.488945637618102"><ele>227.5</ele><time>2026-04-24T14:17:09.998Z</time></trkpt><trkpt lat="44.95478194362267" lon="9.489145865814939"><ele>225.75</ele><time>2026-04-24T14:17:10.998Z</time></trkpt><trkpt lat="44.9547270783938" lon="9.489322058911592"><ele>224.0</ele><time>2026-04-24T14:17:11.998Z</time></trkpt><trkpt lat="44.95465168840634" lon="9.489424934710293"><ele>224.0</ele><time>2026-04-24T14:17:12.998Z</time></trkpt><trkpt lat="44.954514407047775" lon="9.489489622866062"><ele>224.0</ele><time>2026-04-24T14:17:13.998Z</time></trkpt><trkpt lat="44.95434050371902" lon="9.489541568997984"><ele>224.0</ele><time>2026-04-24T14:17:14.998Z</time></trkpt><trkpt lat="44.954199833720764" lon="9.489653500472514"><ele>226.33333333333334</ele><time>2026-04-24T14:17:15.998Z</time></trkpt><trkpt lat="44.95408224401438" lon="9.489869868179595"><ele>228.66666666666669</ele><time>2026-04-24T14:17:16.998Z</time></trkpt><trkpt lat="44.95399356550901" lon="9.490051362767419"><ele>231.0</ele><time>2026-04-24T14:17:17.998Z</time></trkpt><trkpt lat="44.953927200933485" lon="9.490236543781032"><ele>231.0</ele><time>2026-04-24T14:17:18.998Z</time></trkpt><trkpt lat="44.95385804888513" lon="9.490402849362976"><ele>231.0</ele><time>2026-04-24T14:17:19.998Z</time></trkpt><trkpt lat="44.95376949749796" lon="9.490564768572373"><ele>231.0</ele><time>2026-04-24T14:17:20.998Z</time></trkpt><trkpt lat="44.95368250857016" lon="9.490700078423911"><ele>231.0</ele><time>2026-04-24T14:17:21.998Z</time></trkpt><trkpt lat="44.953572013970884" lon="9.490806076487948"><ele>230.75</ele><time>2026-04-24T14:17:22.998Z</time></trkpt><trkpt lat="44.95345558226804" lon="9.490890522113384"><ele>230.5</ele><time>2026-04-24T14:17:23.998Z</time></trkpt><trkpt lat="44.95332779602724" lon="9.490969261055175"><ele>230.25</ele><time>2026-04-24T14:17:24.998Z</time></trkpt><trkpt lat="44.953188577650636" lon="9.491060804329397"><ele>230.0</ele><time>2026-04-24T14:17:25.998Z</time></trkpt><trkpt lat="44.953039497941084" lon="9.491138694387853"><ele>231.0</ele><time>2026-04-24T14:17:26.998Z</time></trkpt><trkpt lat="44.95290269796126" lon="9.491266959117375"><ele>232.0</ele><time>2026-04-24T14:17:27.998Z</time></trkpt><trkpt lat="44.95279708294894" lon="9.491428653047059"><ele>233.0</ele><time>2026-04-24T14:17:28.998Z</time></trkpt><trkpt lat="44.95278234884071" lon="9.491637756928043"><ele>233.0</ele><time>2026-04-24T14:17:29.998Z</time></trkpt><trkpt lat="44.95275187573503" lon="9.491850393078186"><ele>233.0</ele><time>2026-04-24T14:17:30.998Z</time></trkpt><trkpt lat="44.95273822357527" lon="9.492069611474859"><ele>233.0</ele><time>2026-04-24T14:17:31.998Z</time></trkpt><trkpt lat="44.95272699316496" lon="9.49228863999013"><ele>232.25</ele><time>2026-04-24T14:17:32.998Z</time></trkpt><trkpt lat="44.952723908357925" lon="9.492521514161172"><ele>231.5</ele><time>2026-04-24T14:17:33.998Z</time></trkpt><trkpt lat="44.95271207411658" lon="9.492730640382582"><ele>230.75</ele><time>2026-04-24T14:17:34.998Z</time></trkpt><trkpt lat="44.952685420464924" lon="9.492918112486755"><ele>230.0</ele><time>2026-04-24T14:17:35.998Z</time></trkpt><trkpt lat="44.95267382248269" lon="9.493106421232685"><ele>229.0</ele><time>2026-04-24T14:17:36.998Z</time></trkpt><trkpt lat="44.952647181768526" lon="9.493301337033207"><ele>228.0</ele><time>2026-04-24T14:17:37.998Z</time></trkpt><trkpt lat="44.952598345165605" lon="9.493456582663885"><ele>227.0</ele><time>2026-04-24T14:17:38.998Z</time></trkpt><trkpt lat="44.952484011098754" lon="9.493612315852475"><ele>226.0</ele><time>2026-04-24T14:17:39.998Z</time></trkpt><trkpt lat="44.95237227828876" lon="9.493769057362005"><ele>230.0</ele><time>2026-04-24T14:17:40.998Z</time></trkpt><trkpt lat="44.952260539650766" lon="9.493939687652665"><ele>234.0</ele><time>2026-04-24T14:17:41.998Z</time></trkpt><trkpt lat="44.952177774652604" lon="9.494100034035538"><ele>238.0</ele><time>2026-04-24T14:17:42.998Z</time></trkpt><trkpt lat="44.95209426271792" lon="9.494269430658171"><ele>238.0</ele><time>2026-04-24T14:17:43.998Z</time></trkpt><trkpt lat="44.952006092048556" lon="9.494412568893619"><ele>238.0</ele><time>2026-04-24T14:17:44.998Z</time></trkpt><trkpt lat="44.951916243696935" lon="9.494500928969622"><ele>238.0</ele><time>2026-04-24T14:17:45.998Z</time></trkpt><trkpt lat="44.95185520971941" lon="9.49459262707044"><ele>238.0</ele><time>2026-04-24T14:17:46.998Z</time></trkpt><trkpt lat="44.95179963374802" lon="9.49467820717892"><ele>238.0</ele><time>2026-04-24T14:17:47.998Z</time></trkpt><trkpt lat="44.951750079331454" lon="9.494739958870133"><ele>240.25</ele><time>2026-04-24T14:17:48.998Z</time></trkpt><trkpt lat="44.95164256649544" lon="9.494745807285451"><ele>242.5</ele><time>2026-04-24T14:17:49.998Z</time></trkpt><trkpt lat="44.95150265268648" lon="9.494736514501717"><ele>244.75</ele><time>2026-04-24T14:17:50.998Z</time></trkpt><trkpt lat="44.951368681067216" lon="9.494705167884307"><ele>247.0</ele><time>2026-04-24T14:17:51.998Z</time></trkpt><trkpt lat="44.951226402615696" lon="9.494677664194604"><ele>247.0</ele><time>2026-04-24T14:17:52.998Z</time></trkpt><trkpt lat="44.951077384727114" lon="9.49463345060153"><ele>247.0</ele><time>2026-04-24T14:17:53.998Z</time></trkpt><trkpt lat="44.950941091858546" lon="9.494606020391572"><ele>247.0</ele><time>2026-04-24T14:17:54.997Z</time></trkpt><trkpt lat="44.95078773421163" lon="9.494584043005196"><ele>247.0</ele><time>2026-04-24T14:17:55.997Z</time></trkpt><trkpt lat="44.950639673745854" lon="9.494550026073428"><ele>250.25</ele><time>2026-04-24T14:17:56.997Z</time></trkpt><trkpt lat="44.950496814650904" lon="9.494545625956924"><ele>253.5</ele><time>2026-04-24T14:17:57.997Z</time></trkpt><trkpt lat="44.950345928715294" lon="9.494540350382136"><ele>256.75</ele><time>2026-04-24T14:17:58.997Z</time></trkpt><trkpt lat="44.950195946637926" lon="9.494519793503812"><ele>260.0</ele><time>2026-04-24T14:17:59.997Z</time></trkpt><trkpt lat="44.9500459004274" lon="9.494489071748658"><ele>259.75</ele><time>2026-04-24T14:18:00.997Z</time></trkpt><trkpt lat="44.94988874865333" lon="9.494476236445381"><ele>259.5</ele><time>2026-04-24T14:18:01.997Z</time></trkpt><trkpt lat="44.94973557203045" lon="9.494458651613124"><ele>259.25</ele><time>2026-04-24T14:18:02.997Z</time></trkpt><trkpt lat="44.94960590540932" lon="9.494408480237604"><ele>259.0</ele><time>2026-04-24T14:18:03.997Z</time></trkpt><trkpt lat="44.94945584389184" lon="9.494378896746918"><ele>259.0</ele><time>2026-04-24T14:18:04.997Z</time></trkpt><trkpt lat="44.949308395376825" lon="9.494342640499912"><ele>259.0</ele><time>2026-04-24T14:18:05.997Z</time></trkpt><trkpt lat="44.9491628304038" lon="9.494295756166629"><ele>259.0</ele><time>2026-04-24T14:18:06.997Z</time></trkpt><trkpt lat="44.94901210862223" lon="9.494280076018503"><ele>258.5</ele><time>2026-04-24T14:18:07.997Z</time></trkpt><trkpt lat="44.94887476501821" lon="9.494249204164397"><ele>258.0</ele><time>2026-04-24T14:18:08.997Z</time></trkpt><trkpt lat="44.94874794251362" lon="9.494162108073308"><ele>257.5</ele><time>2026-04-24T14:18:09.997Z</time></trkpt><trkpt lat="44.94861842621056" lon="9.494056267040445"><ele>257.0</ele><time>2026-04-24T14:18:10.997Z</time></trkpt><trkpt lat="44.94847922976493" lon="9.493920291841453"><ele>256.5</ele><time>2026-04-24T14:18:11.997Z</time></trkpt><trkpt lat="44.94834842152535" lon="9.493903232367249"><ele>256.0</ele><time>2026-04-24T14:18:12.997Z</time></trkpt><trkpt lat="44.94823905043273" lon="9.493890724781775"><ele>255.5</ele><time>2026-04-24T14:18:13.997Z</time></trkpt><trkpt lat="44.948150072499516" lon="9.493969443105813"><ele>255.0</ele><time>2026-04-24T14:18:14.997Z</time></trkpt><trkpt lat="44.94806468204501" lon="9.494102375917137"><ele>255.0</ele><time>2026-04-24T14:18:15.997Z</time></trkpt><trkpt lat="44.94797614643155" lon="9.494246374624154"><ele>255.0</ele><time>2026-04-24T14:18:16.997Z</time></trkpt><trkpt lat="44.94789653203947" lon="9.494433483020215"><ele>255.0</ele><time>2026-04-24T14:18:17.997Z</time></trkpt><trkpt lat="44.9478430504664" lon="9.494628522746284"><ele>255.0</ele><time>2026-04-24T14:18:18.997Z</time></trkpt><trkpt lat="44.94784271787736" lon="9.494831273721687"><ele>252.66666666666669</ele><time>2026-04-24T14:18:19.997Z</time></trkpt><trkpt lat="44.94786170928339" lon="9.495040504120249"><ele>250.33333333333334</ele><time>2026-04-24T14:18:20.997Z</time></trkpt><trkpt lat="44.947864159200414" lon="9.495305700069006"><ele>248.0</ele><time>2026-04-24T14:18:21.997Z</time></trkpt><trkpt lat="44.94788506222624" lon="9.495556809044384"><ele>248.0</ele><time>2026-04-24T14:18:22.997Z</time></trkpt><trkpt lat="44.947924928862975" lon="9.495793580990135"><ele>248.0</ele><time>2026-04-24T14:18:23.997Z</time></trkpt><trkpt lat="44.94796672878521" lon="9.496028094330176"><ele>248.0</ele><time>2026-04-24T14:18:24.997Z</time></trkpt><trkpt lat="44.9480119565659" lon="9.496281100101283"><ele>248.0</ele><time>2026-04-24T14:18:25.997Z</time></trkpt><trkpt lat="44.94804125023406" lon="9.496529093214278"><ele>248.0</ele><time>2026-04-24T14:18:26.997Z</time></trkpt><trkpt lat="44.948064533683144" lon="9.496739448260042"><ele>248.0</ele><time>2026-04-24T14:18:27.997Z</time></trkpt><trkpt lat="44.94807678353448" lon="9.496957119920866"><ele>249.33333333333334</ele><time>2026-04-24T14:18:28.997Z</time></trkpt><trkpt lat="44.9481248859683" lon="9.497168995733864"><ele>250.66666666666669</ele><time>2026-04-24T14:18:29.997Z</time></trkpt><trkpt lat="44.94812448167911" lon="9.497388284245591"><ele>252.0</ele><time>2026-04-24T14:18:30.997Z</time></trkpt><trkpt lat="44.94823035143251" lon="9.497510976770547"><ele>252.0</ele><time>2026-04-24T14:18:31.997Z</time></trkpt><trkpt lat="44.94829271859147" lon="9.497671587216301"><ele>252.0</ele><time>2026-04-24T14:18:32.997Z</time></trkpt><trkpt lat="44.94840701065274" lon="9.497826443049144"><ele>252.0</ele><time>2026-04-24T14:18:33.997Z</time></trkpt><trkpt lat="44.948489255553284" lon="9.497989751397599"><ele>252.0</ele><time>2026-04-24T14:18:34.997Z</time></trkpt><trkpt lat="44.948574831696554" lon="9.49818470150892"><ele>249.5</ele><time>2026-04-24T14:18:35.997Z</time></trkpt><trkpt lat="44.94863565368933" lon="9.49837910350381"><ele>247.0</ele><time>2026-04-24T14:18:36.997Z</time></trkpt><trkpt lat="44.94865720064173" lon="9.49856815047029"><ele>244.5</ele><time>2026-04-24T14:18:37.997Z</time></trkpt><trkpt lat="44.94866722362744" lon="9.4987780991374"><ele>242.0</ele><time>2026-04-24T14:18:38.997Z</time></trkpt><trkpt lat="44.948641566830474" lon="9.498990291343427"><ele>242.0</ele><time>2026-04-24T14:18:39.997Z</time></trkpt><trkpt lat="44.94860546731708" lon="9.499195523955555"><ele>242.0</ele><time>2026-04-24T14:18:40.997Z</time></trkpt><trkpt lat="44.94857915306465" lon="9.499419154015843"><ele>242.0</ele><time>2026-04-24T14:18:41.997Z</time></trkpt><trkpt lat="44.9485945392223" lon="9.499629764829942"><ele>242.75</ele><time>2026-04-24T14:18:42.997Z</time></trkpt><trkpt lat="44.94861539476525" lon="9.499811742845484"><ele>243.5</ele><time>2026-04-24T14:18:43.997Z</time></trkpt><trkpt lat="44.948642855954645" lon="9.50003218671851"><ele>244.25</ele><time>2026-04-24T14:18:44.997Z</time></trkpt><trkpt lat="44.948664922422346" lon="9.500250863597117"><ele>245.0</ele><time>2026-04-24T14:18:45.997Z</time></trkpt><trkpt lat="44.948705828904146" lon="9.500454299252537"><ele>245.33333333333334</ele><time>2026-04-24T14:18:46.997Z</time></trkpt><trkpt lat="44.94877808012665" lon="9.500658757112857"><ele>245.66666666666669</ele><time>2026-04-24T14:18:47.997Z</time></trkpt><trkpt lat="44.94884646084396" lon="9.5008628145958"><ele>246.0</ele><time>2026-04-24T14:18:48.997Z</time></trkpt><trkpt lat="44.94890703299923" lon="9.50107836627102"><ele>245.0</ele><time>2026-04-24T14:18:49.997Z</time></trkpt><trkpt lat="44.948962427231876" lon="9.501317779275425"><ele>244.0</ele><time>2026-04-24T14:18:50.997Z</time></trkpt><trkpt lat="44.9490074193123" lon="9.501550841651104"><ele>243.0</ele><time>2026-04-24T14:18:51.996Z</time></trkpt><trkpt lat="44.949048070094314" lon="9.50175528470624"><ele>243.0</ele><time>2026-04-24T14:18:52.996Z</time></trkpt><trkpt lat="44.949098144824276" lon="9.501936743825967"><ele>243.0</ele><time>2026-04-24T14:18:53.996Z</time></trkpt><trkpt lat="44.94912479507244" lon="9.502126226678326"><ele>243.0</ele><time>2026-04-24T14:18:54.996Z</time></trkpt><trkpt lat="44.949163317778435" lon="9.502328446925135"><ele>243.0</ele><time>2026-04-24T14:18:55.996Z</time></trkpt><trkpt lat="44.94916549103831" lon="9.502532715973807"><ele>242.33333333333331</ele><time>2026-04-24T14:18:56.996Z</time></trkpt><trkpt lat="44.949149481568405" lon="9.502753643560416"><ele>241.66666666666666</ele><time>2026-04-24T14:18:57.996Z</time></trkpt><trkpt lat="44.949102293585995" lon="9.502984965713708"><ele>241.0</ele><time>2026-04-24T14:18:58.996Z</time></trkpt><trkpt lat="44.94904128305337" lon="9.503192620499"><ele>239.66666666666666</ele><time>2026-04-24T14:18:59.996Z</time></trkpt><trkpt lat="44.94891125362789" lon="9.503343518688093"><ele>238.33333333333331</ele><time>2026-04-24T14:19:00.996Z</time></trkpt><trkpt lat="44.94876815080777" lon="9.503495626099292"><ele>237.0</ele><time>2026-04-24T14:19:01.996Z</time></trkpt><trkpt lat="44.94861233447192" lon="9.503608086784345"><ele>237.0</ele><time>2026-04-24T14:19:02.996Z</time></trkpt><trkpt lat="44.948459707621694" lon="9.503723149636834"><ele>237.0</ele><time>2026-04-24T14:19:03.996Z</time></trkpt><trkpt lat="44.94830485270262" lon="9.503860097176732"><ele>237.0</ele><time>2026-04-24T14:19:04.996Z</time></trkpt><trkpt lat="44.94816480545252" lon="9.50401484133896"><ele>237.0</ele><time>2026-04-24T14:19:05.996Z</time></trkpt><trkpt lat="44.947991498050484" lon="9.50414825364844"><ele>237.0</ele><time>2026-04-24T14:19:06.996Z</time></trkpt><trkpt lat="44.947847144347456" lon="9.50430246356741"><ele>237.0</ele><time>2026-04-24T14:19:07.996Z</time></trkpt><trkpt lat="44.947692983901625" lon="9.504439450863138"><ele>235.66666666666669</ele><time>2026-04-24T14:19:08.996Z</time></trkpt><trkpt lat="44.94754836587051" lon="9.504609356196829"><ele>234.33333333333334</ele><time>2026-04-24T14:19:09.996Z</time></trkpt><trkpt lat="44.947419736385" lon="9.504726586592161"><ele>233.0</ele><time>2026-04-24T14:19:10.996Z</time></trkpt><trkpt lat="44.947295576950474" lon="9.50485308843318"><ele>233.0</ele><time>2026-04-24T14:19:11.996Z</time></trkpt><trkpt lat="44.94715794073426" lon="9.50495209154872"><ele>233.0</ele><time>2026-04-24T14:19:12.996Z</time></trkpt><trkpt lat="44.94702733609676" lon="9.505082531047982"><ele>233.0</ele><time>2026-04-24T14:19:13.996Z</time></trkpt><trkpt lat="44.94686641997623" lon="9.50512522131592"><ele>233.0</ele><time>2026-04-24T14:19:14.996Z</time></trkpt><trkpt lat="44.94672271330154" lon="9.505188351138177"><ele>233.0</ele><time>2026-04-24T14:19:15.996Z</time></trkpt><trkpt lat="44.9465785558483" lon="9.505306735602707"><ele>233.0</ele><time>2026-04-24T14:19:16.996Z</time></trkpt><trkpt lat="44.94643942658958" lon="9.505455174906052"><ele>231.33333333333334</ele><time>2026-04-24T14:19:17.996Z</time></trkpt><trkpt lat="44.946289174785655" lon="9.505545168888546"><ele>229.66666666666669</ele><time>2026-04-24T14:19:18.996Z</time></trkpt><trkpt lat="44.94617273837279" lon="9.505696551113855"><ele>228.0</ele><time>2026-04-24T14:19:19.996Z</time></trkpt><trkpt lat="44.94604558848967" lon="9.505814888833756"><ele>228.0</ele><time>2026-04-24T14:19:20.996Z</time></trkpt><trkpt lat="44.94592618066435" lon="9.505973360469067"><ele>228.0</ele><time>2026-04-24T14:19:21.996Z</time></trkpt><trkpt lat="44.945812923729946" lon="9.506133225905447"><ele>228.0</ele><time>2026-04-24T14:19:22.996Z</time></trkpt><trkpt lat="44.94571649912187" lon="9.506319219015554"><ele>230.0</ele><time>2026-04-24T14:19:23.996Z</time></trkpt><trkpt lat="44.94562145594288" lon="9.506498162886293"><ele>232.0</ele><time>2026-04-24T14:19:24.996Z</time></trkpt><trkpt lat="44.945582905839444" lon="9.50670787530062"><ele>234.0</ele><time>2026-04-24T14:19:25.996Z</time></trkpt><trkpt lat="44.94557361531969" lon="9.50691543825216"><ele>231.66666666666669</ele><time>2026-04-24T14:19:26.996Z</time></trkpt><trkpt lat="44.94558365953613" lon="9.507164594820376"><ele>229.33333333333334</ele><time>2026-04-24T14:19:27.996Z</time></trkpt><trkpt lat="44.94564628694488" lon="9.507372349406712"><ele>227.0</ele><time>2026-04-24T14:19:28.996Z</time></trkpt><trkpt lat="44.94570377070092" lon="9.50758091751079"><ele>227.0</ele><time>2026-04-24T14:19:29.996Z</time></trkpt><trkpt lat="44.945753095931245" lon="9.507796893264839"><ele>227.0</ele><time>2026-04-24T14:19:30.996Z</time></trkpt><trkpt lat="44.94579971165322" lon="9.508020497368166"><ele>227.0</ele><time>2026-04-24T14:19:31.996Z</time></trkpt><trkpt lat="44.94582643683317" lon="9.508250012193226"><ele>227.66666666666669</ele><time>2026-04-24T14:19:32.996Z</time></trkpt><trkpt lat="44.945856277251075" lon="9.508461091239434"><ele>228.33333333333331</ele><time>2026-04-24T14:19:33.996Z</time></trkpt><trkpt lat="44.945879622132274" lon="9.50867681605443"><ele>229.0</ele><time>2026-04-24T14:19:34.996Z</time></trkpt><trkpt lat="44.94590311284472" lon="9.508875781829303"><ele>228.75</ele><time>2026-04-24T14:19:35.996Z</time></trkpt><trkpt lat="44.945910298012336" lon="9.509075400274277"><ele>228.5</ele><time>2026-04-24T14:19:36.996Z</time></trkpt><trkpt lat="44.94588556061535" lon="9.509300781196051"><ele>228.25</ele><time>2026-04-24T14:19:37.996Z</time></trkpt><trkpt lat="44.94581740483064" lon="9.509457092919964"><ele>228.0</ele><time>2026-04-24T14:19:38.996Z</time></trkpt><trkpt lat="44.94569535974254" lon="9.509602160780036"><ele>225.66666666666669</ele><time>2026-04-24T14:19:39.996Z</time></trkpt><trkpt lat="44.94558400806201" lon="9.509739178477588"><ele>223.33333333333334</ele><time>2026-04-24T14:19:40.996Z</time></trkpt><trkpt lat="44.94545887374974" lon="9.50987377785044"><ele>221.0</ele><time>2026-04-24T14:19:41.996Z</time></trkpt><trkpt lat="44.94532310616403" lon="9.51002248202616"><ele>221.0</ele><time>2026-04-24T14:19:42.996Z</time></trkpt><trkpt lat="44.945193785419875" lon="9.510135655291313"><ele>221.0</ele><time>2026-04-24T14:19:43.996Z</time></trkpt><trkpt lat="44.945074341350896" lon="9.510287649668854"><ele>221.0</ele><time>2026-04-24T14:19:44.996Z</time></trkpt><trkpt lat="44.94495232330737" lon="9.510425825395387"><ele>220.33333333333334</ele><time>2026-04-24T14:19:45.996Z</time></trkpt><trkpt lat="44.94483622918176" lon="9.510595479023262"><ele>219.66666666666669</ele><time>2026-04-24T14:19:46.996Z</time></trkpt><trkpt lat="44.9447148919006" lon="9.51075073720379"><ele>219.0</ele><time>2026-04-24T14:19:47.995Z</time></trkpt><trkpt lat="44.944597290030465" lon="9.510887876320496"><ele>219.0</ele><time>2026-04-24T14:19:48.995Z</time></trkpt><trkpt lat="44.94448856021237" lon="9.511052741813618"><ele>219.0</ele><time>2026-04-24T14:19:49.995Z</time></trkpt><trkpt lat="44.94437999535656" lon="9.51119668830982"><ele>219.0</ele><time>2026-04-24T14:19:50.995Z</time></trkpt><trkpt lat="44.944275339009174" lon="9.511342462143569"><ele>218.66666666666669</ele><time>2026-04-24T14:19:51.995Z</time></trkpt><trkpt lat="44.94416220084205" lon="9.511497602621734"><ele>218.33333333333334</ele><time>2026-04-24T14:19:52.995Z</time></trkpt><trkpt lat="44.94405682667005" lon="9.511649208362016"><ele>218.0</ele><time>2026-04-24T14:19:53.995Z</time></trkpt><trkpt lat="44.943933900769" lon="9.511776230179574"><ele>218.0</ele><time>2026-04-24T14:19:54.995Z</time></trkpt><trkpt lat="44.94381297559194" lon="9.511908420879205"><ele>218.0</ele><time>2026-04-24T14:19:55.995Z</time></trkpt><trkpt lat="44.94371629015783" lon="9.512067357692976"><ele>218.0</ele><time>2026-04-24T14:19:56.995Z</time></trkpt><trkpt lat="44.94363217055196" lon="9.512241838773727"><ele>215.33333333333334</ele><time>2026-04-24T14:19:57.995Z</time></trkpt><trkpt lat="44.943576990089866" lon="9.51247383939889"><ele>212.66666666666669</ele><time>2026-04-24T14:19:58.995Z</time></trkpt><trkpt lat="44.9435404962695" lon="9.512704739090514"><ele>210.0</ele><time>2026-04-24T14:19:59.995Z</time></trkpt><trkpt lat="44.943558453575776" lon="9.512914163724234"><ele>209.0</ele><time>2026-04-24T14:20:00.995Z</time></trkpt><trkpt lat="44.943602477704935" lon="9.51311792506478"><ele>208.0</ele><time>2026-04-24T14:20:01.995Z</time></trkpt><trkpt lat="44.9436450028398" lon="9.513336131183985"><ele>207.0</ele><time>2026-04-24T14:20:02.995Z</time></trkpt><trkpt lat="44.94369003864764" lon="9.51355168901949"><ele>207.33333333333331</ele><time>2026-04-24T14:20:03.995Z</time></trkpt><trkpt lat="44.943738374816206" lon="9.51376319631432"><ele>207.66666666666666</ele><time>2026-04-24T14:20:04.995Z</time></trkpt><trkpt lat="44.943764068570225" lon="9.514000205072328"><ele>208.0</ele><time>2026-04-24T14:20:05.995Z</time></trkpt><trkpt lat="44.94379863972182" lon="9.514220428558579"><ele>208.0</ele><time>2026-04-24T14:20:06.995Z</time></trkpt><trkpt lat="44.94379410367431" lon="9.514440324339752"><ele>208.0</ele><time>2026-04-24T14:20:07.995Z</time></trkpt><trkpt lat="44.9438144065027" lon="9.514635536361592"><ele>208.0</ele><time>2026-04-24T14:20:08.995Z</time></trkpt><trkpt lat="44.94384602794441" lon="9.514829977977781"><ele>208.0</ele><time>2026-04-24T14:20:09.995Z</time></trkpt><trkpt lat="44.94388740523473" lon="9.515013760496407"><ele>208.0</ele><time>2026-04-24T14:20:10.995Z</time></trkpt><trkpt lat="44.944063229391254" lon="9.515112166698179"><ele>208.0</ele><time>2026-04-24T14:20:11.995Z</time></trkpt><trkpt lat="44.94410401756321" lon="9.51526665902683"><ele>208.0</ele><time>2026-04-24T14:20:12.995Z</time></trkpt><trkpt lat="44.94413008100013" lon="9.51545908540539"><ele>208.0</ele><time>2026-04-24T14:20:13.995Z</time></trkpt><trkpt lat="44.94420912637481" lon="9.515576044866638"><ele>206.8</ele><time>2026-04-24T14:20:14.995Z</time></trkpt><trkpt lat="44.94429736485468" lon="9.515606449580547"><ele>205.60000000000002</ele><time>2026-04-24T14:20:15.995Z</time></trkpt><trkpt lat="44.94437435311684" lon="9.515694132836217"><ele>204.39999999999998</ele><time>2026-04-24T14:20:16.995Z</time></trkpt><trkpt lat="44.94444443544062" lon="9.515797702411147"><ele>203.2</ele><time>2026-04-24T14:20:17.995Z</time></trkpt><trkpt lat="44.944541878015805" lon="9.515857705157577"><ele>202.0</ele><time>2026-04-24T14:20:18.995Z</time></trkpt><trkpt lat="44.94471598323972" lon="9.51595914043169"><ele>202.0</ele><time>2026-04-24T14:20:19.995Z</time></trkpt><trkpt lat="44.94484119796756" lon="9.516042683092296"><ele>202.0</ele><time>2026-04-24T14:20:20.995Z</time></trkpt><trkpt lat="44.94497129654919" lon="9.51608608798489"><ele>202.0</ele><time>2026-04-24T14:20:21.995Z</time></trkpt><trkpt lat="44.94511618217623" lon="9.516129126845604"><ele>202.0</ele><time>2026-04-24T14:20:22.995Z</time></trkpt><trkpt lat="44.94522746961512" lon="9.516199233037604"><ele>200.75</ele><time>2026-04-24T14:20:23.995Z</time></trkpt><trkpt lat="44.945331023038506" lon="9.516276678803425"><ele>199.5</ele><time>2026-04-24T14:20:24.995Z</time></trkpt><trkpt lat="44.94545275588637" lon="9.51635675126498"><ele>198.25</ele><time>2026-04-24T14:20:25.995Z</time></trkpt><trkpt lat="44.94556876612848" lon="9.51641405420438"><ele>197.0</ele><time>2026-04-24T14:20:26.995Z</time></trkpt><trkpt lat="44.945731710256645" lon="9.516441721187919"><ele>196.0</ele><time>2026-04-24T14:20:27.995Z</time></trkpt><trkpt lat="44.94588624253544" lon="9.516494162402429"><ele>195.0</ele><time>2026-04-24T14:20:28.995Z</time></trkpt><trkpt lat="44.946023320800805" lon="9.516541877143293"><ele>194.0</ele><time>2026-04-24T14:20:29.995Z</time></trkpt><trkpt lat="44.94616398272007" lon="9.516572642682522"><ele>193.0</ele><time>2026-04-24T14:20:30.995Z</time></trkpt><trkpt lat="44.946285890370326" lon="9.516599090664092"><ele>193.0</ele><time>2026-04-24T14:20:31.995Z</time></trkpt><trkpt lat="44.946416827091106" lon="9.516612762327625"><ele>193.0</ele><time>2026-04-24T14:20:32.995Z</time></trkpt><trkpt lat="44.946533288770716" lon="9.516617775561466"><ele>193.0</ele><time>2026-04-24T14:20:33.995Z</time></trkpt><trkpt lat="44.94665145412266" lon="9.516596252187965"><ele>193.0</ele><time>2026-04-24T14:20:34.995Z</time></trkpt><trkpt lat="44.946780970272016" lon="9.516607578064109"><ele>192.0</ele><time>2026-04-24T14:20:35.995Z</time></trkpt><trkpt lat="44.94690675453331" lon="9.516643382124634"><ele>191.0</ele><time>2026-04-24T14:20:36.995Z</time></trkpt><trkpt lat="44.94707030958993" lon="9.516618044898527"><ele>190.0</ele><time>2026-04-24T14:20:37.995Z</time></trkpt><trkpt lat="44.94723471608724" lon="9.51664537703353"><ele>190.0</ele><time>2026-04-24T14:20:38.995Z</time></trkpt><trkpt lat="44.94739276815562" lon="9.516624402227047"><ele>190.0</ele><time>2026-04-24T14:20:39.995Z</time></trkpt><trkpt lat="44.94755288263207" lon="9.51666541500589"><ele>190.0</ele><time>2026-04-24T14:20:40.995Z</time></trkpt><trkpt lat="44.947712708117116" lon="9.51663770973961"><ele>187.66666666666669</ele><time>2026-04-24T14:20:41.995Z</time></trkpt><trkpt lat="44.947854322034864" lon="9.51673554924824"><ele>185.33333333333334</ele><time>2026-04-24T14:20:42.995Z</time></trkpt><trkpt lat="44.94801066597554" lon="9.516839607472145"><ele>183.0</ele><time>2026-04-24T14:20:43.995Z</time></trkpt><trkpt lat="44.94811866203122" lon="9.516994055183844"><ele>183.66666666666666</ele><time>2026-04-24T14:20:44.994Z</time></trkpt><trkpt lat="44.948231217549676" lon="9.517173290087834"><ele>184.33333333333331</ele><time>2026-04-24T14:20:45.994Z</time></trkpt><trkpt lat="44.94832960410312" lon="9.517345095325913"><ele>185.0</ele><time>2026-04-24T14:20:46.994Z</time></trkpt><trkpt lat="44.9484263691365" lon="9.517521766172576"><ele>182.0</ele><time>2026-04-24T14:20:47.994Z</time></trkpt><trkpt lat="44.94852407842478" lon="9.517722951799017"><ele>179.0</ele><time>2026-04-24T14:20:48.994Z</time></trkpt><trkpt lat="44.948615458934746" lon="9.517941116461714"><ele>176.0</ele><time>2026-04-24T14:20:49.994Z</time></trkpt><trkpt lat="44.9487247335713" lon="9.518137107086478"><ele>176.0</ele><time>2026-04-24T14:20:50.994Z</time></trkpt><trkpt lat="44.94881301659779" lon="9.518310142445355"><ele>176.0</ele><time>2026-04-24T14:20:51.994Z</time></trkpt><trkpt lat="44.948904114651334" lon="9.518509161909641"><ele>176.0</ele><time>2026-04-24T14:20:52.994Z</time></trkpt><trkpt lat="44.94900141614736" lon="9.518701144332416"><ele>176.0</ele><time>2026-04-24T14:20:53.994Z</time></trkpt><trkpt lat="44.94909687535892" lon="9.518936301561546"><ele>176.0</ele><time>2026-04-24T14:20:54.994Z</time></trkpt><trkpt lat="44.949174178936445" lon="9.519178309840703"><ele>176.0</ele><time>2026-04-24T14:20:55.994Z</time></trkpt><trkpt lat="44.94923663970061" lon="9.51936231743303"><ele>178.0</ele><time>2026-04-24T14:20:56.994Z</time></trkpt><trkpt lat="44.949271019686286" lon="9.519572110832478"><ele>180.0</ele><time>2026-04-24T14:20:57.994Z</time></trkpt><trkpt lat="44.94928326760412" lon="9.519826690349758"><ele>182.0</ele><time>2026-04-24T14:20:58.994Z</time></trkpt><trkpt lat="44.94926042702061" lon="9.520020491402455"><ele>182.0</ele><time>2026-04-24T14:20:59.994Z</time></trkpt><trkpt lat="44.94925575189192" lon="9.520219861405165"><ele>182.0</ele><time>2026-04-24T14:21:00.994Z</time></trkpt><trkpt lat="44.94925181663284" lon="9.52040753723835"><ele>182.0</ele><time>2026-04-24T14:21:01.994Z</time></trkpt><trkpt lat="44.9492255144073" lon="9.52058780275775"><ele>182.0</ele><time>2026-04-24T14:21:02.994Z</time></trkpt><trkpt lat="44.94920894882641" lon="9.52074829498151"><ele>182.2</ele><time>2026-04-24T14:21:03.994Z</time></trkpt><trkpt lat="44.94922401807633" lon="9.520892825077791"><ele>182.39999999999998</ele><time>2026-04-24T14:21:04.994Z</time></trkpt><trkpt lat="44.94921914919509" lon="9.5210435999895"><ele>182.60000000000002</ele><time>2026-04-24T14:21:05.994Z</time></trkpt><trkpt lat="44.94920312497728" lon="9.521198380375493"><ele>182.8</ele><time>2026-04-24T14:21:06.994Z</time></trkpt><trkpt lat="44.949194789204235" lon="9.521305298686817"><ele>183.0</ele><time>2026-04-24T14:21:07.994Z</time></trkpt><trkpt lat="44.94917495178072" lon="9.521397830114488"><ele>182.66666666666666</ele><time>2026-04-24T14:21:08.994Z</time></trkpt><trkpt lat="44.9491557394268" lon="9.521494665150186"><ele>182.33333333333334</ele><time>2026-04-24T14:21:10.994Z</time></trkpt><trkpt lat="44.94919906133847" lon="9.521620154282832"><ele>182.0</ele><time>2026-04-24T14:21:12.994Z</time></trkpt><trkpt lat="44.94924468832853" lon="9.521703038440014"><ele>181.66666666666669</ele><time>2026-04-24T14:21:13.994Z</time></trkpt><trkpt lat="44.949297342904906" lon="9.521800688664536"><ele>181.33333333333334</ele><time>2026-04-24T14:21:14.994Z</time></trkpt><trkpt lat="44.94934703500332" lon="9.521924759247504"><ele>181.0</ele><time>2026-04-24T14:21:15.994Z</time></trkpt><trkpt lat="44.94941305754984" lon="9.522055025879366"><ele>180.60000000000002</ele><time>2026-04-24T14:21:16.994Z</time></trkpt><trkpt lat="44.94948385781712" lon="9.522144796381788"><ele>180.2</ele><time>2026-04-24T14:21:17.994Z</time></trkpt><trkpt lat="44.94953776814738" lon="9.522264255898577"><ele>179.8</ele><time>2026-04-24T14:21:18.994Z</time></trkpt><trkpt lat="44.949582785083074" lon="9.522386569782906"><ele>179.39999999999998</ele><time>2026-04-24T14:21:19.994Z</time></trkpt><trkpt lat="44.94963294773332" lon="9.522518405040815"><ele>179.0</ele><time>2026-04-24T14:21:20.994Z</time></trkpt><trkpt lat="44.94969724981804" lon="9.522660242595872"><ele>179.0</ele><time>2026-04-24T14:21:21.994Z</time></trkpt><trkpt lat="44.94978019404813" lon="9.522785565863732"><ele>179.0</ele><time>2026-04-24T14:21:22.994Z</time></trkpt><trkpt lat="44.94984972120516" lon="9.522933058010087"><ele>179.0</ele><time>2026-04-24T14:21:23.994Z</time></trkpt><trkpt lat="44.949929408545124" lon="9.523048399681317"><ele>179.0</ele><time>2026-04-24T14:21:24.994Z</time></trkpt><trkpt lat="44.950022672776825" lon="9.523177719666911"><ele>177.0</ele><time>2026-04-24T14:21:25.994Z</time></trkpt><trkpt lat="44.95009870511514" lon="9.523329623799567"><ele>175.0</ele><time>2026-04-24T14:21:26.994Z</time></trkpt><trkpt lat="44.9501883835832" lon="9.523431619502219"><ele>173.0</ele><time>2026-04-24T14:21:27.994Z</time></trkpt><trkpt lat="44.95026308523292" lon="9.523583661411518"><ele>171.0</ele><time>2026-04-24T14:21:28.994Z</time></trkpt><trkpt lat="44.9503171440179" lon="9.523747979178179"><ele>171.0</ele><time>2026-04-24T14:21:29.994Z</time></trkpt><trkpt lat="44.95030450426031" lon="9.523909165906929"><ele>171.0</ele><time>2026-04-24T14:21:30.994Z</time></trkpt><trkpt lat="44.950269333642574" lon="9.52408288857607"><ele>171.0</ele><time>2026-04-24T14:21:31.994Z</time></trkpt><trkpt lat="44.95022771338045" lon="9.524257177171922"><ele>171.0</ele><time>2026-04-24T14:21:32.994Z</time></trkpt><trkpt lat="44.950168244021924" lon="9.524431036795598"><ele>170.5</ele><time>2026-04-24T14:21:33.994Z</time></trkpt><trkpt lat="44.950113711093714" lon="9.524600243224517"><ele>170.0</ele><time>2026-04-24T14:21:34.994Z</time></trkpt><trkpt lat="44.95003275009188" lon="9.524764643280776"><ele>169.5</ele><time>2026-04-24T14:21:35.994Z</time></trkpt><trkpt lat="44.94995994831534" lon="9.524956135043647"><ele>169.0</ele><time>2026-04-24T14:21:36.994Z</time></trkpt><trkpt lat="44.94990305656968" lon="9.525147540350241"><ele>168.0</ele><time>2026-04-24T14:21:37.994Z</time></trkpt><trkpt lat="44.949878211120904" lon="9.525346475185984"><ele>167.0</ele><time>2026-04-24T14:21:38.994Z</time></trkpt><trkpt lat="44.94981775699857" lon="9.525530491306668"><ele>166.0</ele><time>2026-04-24T14:21:39.994Z</time></trkpt><trkpt lat="44.94977124572442" lon="9.525707648108018"><ele>165.0</ele><time>2026-04-24T14:21:40.994Z</time></trkpt><trkpt lat="44.949708477439536" lon="9.525895988828292"><ele>163.33333333333334</ele><time>2026-04-24T14:21:41.994Z</time></trkpt><trkpt lat="44.94963418900906" lon="9.526079193520994"><ele>161.66666666666669</ele><time>2026-04-24T14:21:42.993Z</time></trkpt><trkpt lat="44.94956270277727" lon="9.52627828351993"><ele>160.0</ele><time>2026-04-24T14:21:43.993Z</time></trkpt><trkpt lat="44.94950221547281" lon="9.52647490848458"><ele>158.75</ele><time>2026-04-24T14:21:44.993Z</time></trkpt><trkpt lat="44.94944238750346" lon="9.526671722931436"><ele>157.5</ele><time>2026-04-24T14:21:45.993Z</time></trkpt><trkpt lat="44.949386478832736" lon="9.526854693807781"><ele>156.25</ele><time>2026-04-24T14:21:46.993Z</time></trkpt><trkpt lat="44.94934230564782" lon="9.527041880823798"><ele>155.0</ele><time>2026-04-24T14:21:47.993Z</time></trkpt><trkpt lat="44.949270545944565" lon="9.527262171582937"><ele>153.33333333333331</ele><time>2026-04-24T14:21:48.993Z</time></trkpt><trkpt lat="44.949186840365684" lon="9.527475323456793"><ele>151.66666666666666</ele><time>2026-04-24T14:21:49.993Z</time></trkpt><trkpt lat="44.94910822324939" lon="9.52767223033302"><ele>150.0</ele><time>2026-04-24T14:21:50.993Z</time></trkpt><trkpt lat="44.949022672499325" lon="9.527883501947718"><ele>149.33333333333334</ele><time>2026-04-24T14:21:51.993Z</time></trkpt><trkpt lat="44.94895079769635" lon="9.528129040476422"><ele>148.66666666666669</ele><time>2026-04-24T14:21:53.001Z</time></trkpt><trkpt lat="44.94885899173839" lon="9.528321262494654"><ele>148.0</ele><time>2026-04-24T14:21:54.001Z</time></trkpt><trkpt lat="44.94879654388298" lon="9.52855101046065"><ele>148.0</ele><time>2026-04-24T14:21:55.001Z</time></trkpt><trkpt lat="44.94872245313772" lon="9.52878317404035"><ele>148.0</ele><time>2026-04-24T14:21:56.001Z</time></trkpt><trkpt lat="44.94865760996585" lon="9.529009891306284"><ele>148.0</ele><time>2026-04-24T14:21:57.001Z</time></trkpt><trkpt lat="44.94861454014202" lon="9.529216850682136"><ele>148.0</ele><time>2026-04-24T14:21:58.001Z</time></trkpt><trkpt lat="44.9485601204241" lon="9.529446270731082"><ele>148.0</ele><time>2026-04-24T14:21:59.001Z</time></trkpt><trkpt lat="44.948490225592444" lon="9.529665222220402"><ele>148.0</ele><time>2026-04-24T14:22:00.001Z</time></trkpt><trkpt lat="44.94841038083646" lon="9.529892606283326"><ele>148.66666666666669</ele><time>2026-04-24T14:22:01.001Z</time></trkpt><trkpt lat="44.94831443105471" lon="9.530106191424627"><ele>149.33333333333334</ele><time>2026-04-24T14:22:02.001Z</time></trkpt><trkpt lat="44.94823307775254" lon="9.530327797388397"><ele>150.0</ele><time>2026-04-24T14:22:03.001Z</time></trkpt><trkpt lat="44.94815748721481" lon="9.530567416568253"><ele>150.0</ele><time>2026-04-24T14:22:04.001Z</time></trkpt><trkpt lat="44.94809161559055" lon="9.530807988589807"><ele>150.0</ele><time>2026-04-24T14:22:05.001Z</time></trkpt><trkpt lat="44.94800057242467" lon="9.531000245234125"><ele>150.0</ele><time>2026-04-24T14:22:06.001Z</time></trkpt><trkpt lat="44.947939467862994" lon="9.531236714462406"><ele>150.0</ele><time>2026-04-24T14:22:07.001Z</time></trkpt><trkpt lat="44.9478561044269" lon="9.531476523342716"><ele>150.0</ele><time>2026-04-24T14:22:08.001Z</time></trkpt><trkpt lat="44.947788147534155" lon="9.531727068676215"><ele>150.0</ele><time>2026-04-24T14:22:09.001Z</time></trkpt><trkpt lat="44.94770404723257" lon="9.531954968389087"><ele>150.33333333333334</ele><time>2026-04-24T14:22:10.001Z</time></trkpt><trkpt lat="44.94765284528566" lon="9.532182394666888"><ele>150.66666666666669</ele><time>2026-04-24T14:22:11Z</time></trkpt><trkpt lat="44.94759389871963" lon="9.532397392496845"><ele>151.0</ele><time>2026-04-24T14:22:12Z</time></trkpt><trkpt lat="44.947520289434664" lon="9.532641787603586"><ele>151.66666666666669</ele><time>2026-04-24T14:22:13Z</time></trkpt><trkpt lat="44.94745376049613" lon="9.532868996323648"><ele>152.33333333333334</ele><time>2026-04-24T14:22:14Z</time></trkpt><trkpt lat="44.94739912293501" lon="9.533051048492643"><ele>153.0</ele><time>2026-04-24T14:22:15Z</time></trkpt><trkpt lat="44.94735287685463" lon="9.533257004440376"><ele>153.33333333333334</ele><time>2026-04-24T14:22:16Z</time></trkpt><trkpt lat="44.94731306086404" lon="9.533501809093133"><ele>153.66666666666669</ele><time>2026-04-24T14:22:17Z</time></trkpt><trkpt lat="44.94729189442763" lon="9.533724400798368"><ele>154.0</ele><time>2026-04-24T14:22:18Z</time></trkpt><trkpt lat="44.94725857636139" lon="9.533960396999904"><ele>154.4</ele><time>2026-04-24T14:22:19Z</time></trkpt><trkpt lat="44.947239760595934" lon="9.534169976385897"><ele>154.8</ele><time>2026-04-24T14:22:20Z</time></trkpt><trkpt lat="44.94721843356463" lon="9.534320771972475"><ele>155.2</ele><time>2026-04-24T14:22:21Z</time></trkpt><trkpt lat="44.94720041953303" lon="9.534452194901775"><ele>155.6</ele><time>2026-04-24T14:22:22Z</time></trkpt><trkpt lat="44.94717247550198" lon="9.534575197433519"><ele>156.0</ele><time>2026-04-24T14:22:23Z</time></trkpt><trkpt lat="44.94711563649159" lon="9.534647023903661"><ele>156.5</ele><time>2026-04-24T14:22:24Z</time></trkpt><trkpt lat="44.94705539460321" lon="9.534736449343926"><ele>157.0</ele><time>2026-04-24T14:22:25Z</time></trkpt><trkpt lat="44.94703625398256" lon="9.534844040539143"><ele>157.5</ele><time>2026-04-24T14:22:26Z</time></trkpt><trkpt lat="44.94705701003586" lon="9.53499433504353"><ele>158.0</ele><time>2026-04-24T14:22:28Z</time></trkpt><trkpt lat="44.94708577035841" lon="9.535075374409265"><ele>158.5</ele><time>2026-04-24T14:22:29Z</time></trkpt><trkpt lat="44.94715951851761" lon="9.535125629208876"><ele>159.0</ele><time>2026-04-24T14:22:30Z</time></trkpt><trkpt lat="44.94724058437623" lon="9.535170259043209"><ele>159.0</ele><time>2026-04-24T14:22:31Z</time></trkpt><trkpt lat="44.9473305106497" lon="9.535195615829467"><ele>159.0</ele><time>2026-04-24T14:22:32Z</time></trkpt><trkpt lat="44.94742028668388" lon="9.535226779317446"><ele>159.0</ele><time>2026-04-24T14:22:33Z</time></trkpt><trkpt lat="44.94749807100452" lon="9.535290432388747"><ele>159.0</ele><time>2026-04-24T14:22:34Z</time></trkpt><trkpt lat="44.947567808028616" lon="9.53537096134327"><ele>159.0</ele><time>2026-04-24T14:22:35Z</time></trkpt><trkpt lat="44.94765905344422" lon="9.535474037238599"><ele>157.75</ele><time>2026-04-24T14:22:36Z</time></trkpt><trkpt lat="44.9477342686651" lon="9.535624010922154"><ele>156.5</ele><time>2026-04-24T14:22:37Z</time></trkpt><trkpt lat="44.94782592471055" lon="9.535757052115809"><ele>155.25</ele><time>2026-04-24T14:22:38Z</time></trkpt><trkpt lat="44.94792275283699" lon="9.53592850811791"><ele>154.0</ele><time>2026-04-24T14:22:39Z</time></trkpt><trkpt lat="44.94803330613473" lon="9.536102009113874"><ele>154.66666666666669</ele><time>2026-04-24T14:22:40Z</time></trkpt><trkpt lat="44.94816300345723" lon="9.536280154939858"><ele>155.33333333333334</ele><time>2026-04-24T14:22:41Z</time></trkpt><trkpt lat="44.948297337105664" lon="9.536478147336894"><ele>156.0</ele><time>2026-04-24T14:22:42Z</time></trkpt><trkpt lat="44.94843730495966" lon="9.536730626714114"><ele>154.0</ele><time>2026-04-24T14:22:43Z</time></trkpt><trkpt lat="44.94859561207765" lon="9.53701312211694"><ele>152.0</ele><time>2026-04-24T14:22:44Z</time></trkpt><trkpt lat="44.948759960169824" lon="9.537242552058105"><ele>152.0</ele><time>2026-04-24T14:22:45Z</time></trkpt><trkpt lat="44.94893039304082" lon="9.53750832929023"><ele>152.0</ele><time>2026-04-24T14:22:46Z</time></trkpt><trkpt lat="44.949093839033665" lon="9.537761825626685"><ele>151.5</ele><time>2026-04-24T14:22:47Z</time></trkpt><trkpt lat="44.949295307501444" lon="9.538018897121967"><ele>151.0</ele><time>2026-04-24T14:22:48Z</time></trkpt><trkpt lat="44.94946246534347" lon="9.538248040804557"><ele>151.0</ele><time>2026-04-24T14:22:49Z</time></trkpt><trkpt lat="44.94961318101193" lon="9.538496866587762"><ele>151.0</ele><time>2026-04-24T14:22:50Z</time></trkpt><trkpt lat="44.949742086634735" lon="9.538753451663657"><ele>150.66666666666669</ele><time>2026-04-24T14:22:51Z</time></trkpt><trkpt lat="44.94986870722804" lon="9.539000064460977"><ele>150.33333333333334</ele><time>2026-04-24T14:22:52Z</time></trkpt><trkpt lat="44.94998971786758" lon="9.53921218585174"><ele>150.0</ele><time>2026-04-24T14:22:52.999Z</time></trkpt><trkpt lat="44.9501261564348" lon="9.539455384002148"><ele>149.0</ele><time>2026-04-24T14:22:53.999Z</time></trkpt><trkpt lat="44.95025890932661" lon="9.53966040262253"><ele>148.0</ele><time>2026-04-24T14:22:54.999Z</time></trkpt><trkpt lat="44.95040216353005" lon="9.539862765519691"><ele>147.0</ele><time>2026-04-24T14:22:55.999Z</time></trkpt><trkpt lat="44.95052741639962" lon="9.540084994798692"><ele>147.0</ele><time>2026-04-24T14:22:56.999Z</time></trkpt><trkpt lat="44.95065320040823" lon="9.54031018204352"><ele>147.0</ele><time>2026-04-24T14:22:57.999Z</time></trkpt><trkpt lat="44.95077384019964" lon="9.540471746130736"><ele>147.0</ele><time>2026-04-24T14:22:58.999Z</time></trkpt><trkpt lat="44.95090408887858" lon="9.540635432466624"><ele>145.66666666666666</ele><time>2026-04-24T14:22:59.999Z</time></trkpt><trkpt lat="44.951046832316436" lon="9.540843777117512"><ele>144.33333333333331</ele><time>2026-04-24T14:23:00.999Z</time></trkpt><trkpt lat="44.951197991369554" lon="9.541015899360307"><ele>143.0</ele><time>2026-04-24T14:23:01.999Z</time></trkpt><trkpt lat="44.95134724352717" lon="9.541201408755517"><ele>143.0</ele><time>2026-04-24T14:23:02.999Z</time></trkpt><trkpt lat="44.951493975646486" lon="9.541385140256217"><ele>143.0</ele><time>2026-04-24T14:23:03.999Z</time></trkpt><trkpt lat="44.95164647870966" lon="9.541567653858642"><ele>143.0</ele><time>2026-04-24T14:23:04.999Z</time></trkpt><trkpt lat="44.95178757504355" lon="9.54176149568335"><ele>143.0</ele><time>2026-04-24T14:23:05.999Z</time></trkpt><trkpt lat="44.95193213196103" lon="9.541938319607222"><ele>143.0</ele><time>2026-04-24T14:23:06.999Z</time></trkpt><trkpt lat="44.952087313736236" lon="9.542131358942422"><ele>143.0</ele><time>2026-04-24T14:23:07.999Z</time></trkpt><trkpt lat="44.9522667449738" lon="9.542306751939703"><ele>143.33333333333331</ele><time>2026-04-24T14:23:08.999Z</time></trkpt><trkpt lat="44.95245764511606" lon="9.542426201778369"><ele>143.66666666666666</ele><time>2026-04-24T14:23:09.999Z</time></trkpt><trkpt lat="44.95266744007834" lon="9.542516991455985"><ele>144.0</ele><time>2026-04-24T14:23:10.999Z</time></trkpt><trkpt lat="44.952872792729664" lon="9.542611134711779"><ele>143.33333333333334</ele><time>2026-04-24T14:23:11.999Z</time></trkpt><trkpt lat="44.95306857096517" lon="9.54271615168614"><ele>142.66666666666669</ele><time>2026-04-24T14:23:12.999Z</time></trkpt><trkpt lat="44.95325706551407" lon="9.542831354267307"><ele>142.0</ele><time>2026-04-24T14:23:13.999Z</time></trkpt><trkpt lat="44.95344971711737" lon="9.542952854150164"><ele>142.0</ele><time>2026-04-24T14:23:14.999Z</time></trkpt><trkpt lat="44.95363184800008" lon="9.54308844996141"><ele>142.0</ele><time>2026-04-24T14:23:15.999Z</time></trkpt><trkpt lat="44.953811468920875" lon="9.543236923468978"><ele>142.0</ele><time>2026-04-24T14:23:16.999Z</time></trkpt><trkpt lat="44.95397066228338" lon="9.543376771074637"><ele>142.0</ele><time>2026-04-24T14:23:17.999Z</time></trkpt><trkpt lat="44.95413218650555" lon="9.543491774872916"><ele>142.0</ele><time>2026-04-24T14:23:18.999Z</time></trkpt><trkpt lat="44.954310925510356" lon="9.543621150127631"><ele>142.0</ele><time>2026-04-24T14:23:19.999Z</time></trkpt><trkpt lat="44.95448622610689" lon="9.543718782918122"><ele>141.33333333333334</ele><time>2026-04-24T14:23:20.999Z</time></trkpt><trkpt lat="44.954644042539485" lon="9.543811429934623"><ele>140.66666666666666</ele><time>2026-04-24T14:23:21.999Z</time></trkpt><trkpt lat="44.95479839323648" lon="9.543873514340353"><ele>140.0</ele><time>2026-04-24T14:23:22.999Z</time></trkpt><trkpt lat="44.95493561346283" lon="9.543953925344551"><ele>139.5</ele><time>2026-04-24T14:23:23.999Z</time></trkpt><trkpt lat="44.95506351949171" lon="9.5440290995491"><ele>139.0</ele><time>2026-04-24T14:23:24.999Z</time></trkpt><trkpt lat="44.95519367800297" lon="9.544125023609242"><ele>138.5</ele><time>2026-04-24T14:23:25.999Z</time></trkpt><trkpt lat="44.95530233501035" lon="9.544181436909286"><ele>138.0</ele><time>2026-04-24T14:23:26.999Z</time></trkpt><trkpt lat="44.95539907458287" lon="9.544292866810432"><ele>138.0</ele><time>2026-04-24T14:23:27.999Z</time></trkpt><trkpt lat="44.95550103708551" lon="9.544410052997327"><ele>138.0</ele><time>2026-04-24T14:23:28.999Z</time></trkpt><trkpt lat="44.95558431713455" lon="9.544557694982405"><ele>138.0</ele><time>2026-04-24T14:23:29.999Z</time></trkpt><trkpt lat="44.95567285548995" lon="9.544684269097804"><ele>138.0</ele><time>2026-04-24T14:23:30.999Z</time></trkpt><trkpt lat="44.9557699162797" lon="9.544802601552723"><ele>137.75</ele><time>2026-04-24T14:23:31.999Z</time></trkpt><trkpt lat="44.95586099047846" lon="9.544902422161352"><ele>137.5</ele><time>2026-04-24T14:23:32.999Z</time></trkpt><trkpt lat="44.95595098147813" lon="9.54497640920579"><ele>137.25</ele><time>2026-04-24T14:23:33.999Z</time></trkpt><trkpt lat="44.956051791033914" lon="9.545074272235667"><ele>137.0</ele><time>2026-04-24T14:23:34.999Z</time></trkpt><trkpt lat="44.95613853332444" lon="9.545169619549357"><ele>137.0</ele><time>2026-04-24T14:23:35.999Z</time></trkpt><trkpt lat="44.95620457402782" lon="9.545282449813389"><ele>137.0</ele><time>2026-04-24T14:23:36.999Z</time></trkpt><trkpt lat="44.95627585880889" lon="9.545396485553699"><ele>137.0</ele><time>2026-04-24T14:23:37.999Z</time></trkpt><trkpt lat="44.956342688141824" lon="9.545505707117968"><ele>137.0</ele><time>2026-04-24T14:23:38.999Z</time></trkpt><trkpt lat="44.95643918632633" lon="9.545475107785089"><ele>137.0</ele><time>2026-04-24T14:23:39.999Z</time></trkpt><trkpt lat="44.956541994390676" lon="9.545520550866737"><ele>137.2</ele><time>2026-04-24T14:23:40.999Z</time></trkpt><trkpt lat="44.95663585336793" lon="9.545578554771945"><ele>137.39999999999998</ele><time>2026-04-24T14:23:41.999Z</time></trkpt><trkpt lat="44.95673509681701" lon="9.54564468744026"><ele>137.60000000000002</ele><time>2026-04-24T14:23:42.999Z</time></trkpt><trkpt lat="44.956829589585546" lon="9.545714024483384"><ele>137.8</ele><time>2026-04-24T14:23:43.999Z</time></trkpt><trkpt lat="44.95691566397339" lon="9.54581353443778"><ele>138.0</ele><time>2026-04-24T14:23:44.999Z</time></trkpt><trkpt lat="44.956999388215635" lon="9.545906650993455"><ele>138.0</ele><time>2026-04-24T14:23:45.998Z</time></trkpt><trkpt lat="44.95708318768751" lon="9.546008871877888"><ele>138.0</ele><time>2026-04-24T14:23:46.998Z</time></trkpt><trkpt lat="44.957167004971836" lon="9.546104078443124"><ele>138.0</ele><time>2026-04-24T14:23:47.998Z</time></trkpt><trkpt lat="44.95726352841601" lon="9.546204019647938"><ele>138.0</ele><time>2026-04-24T14:23:48.998Z</time></trkpt><trkpt lat="44.957347478968515" lon="9.54632974382263"><ele>138.25</ele><time>2026-04-24T14:23:49.998Z</time></trkpt><trkpt lat="44.95744105867293" lon="9.546424737785765"><ele>138.5</ele><time>2026-04-24T14:23:50.998Z</time></trkpt><trkpt lat="44.957539314629656" lon="9.546516075203508"><ele>138.75</ele><time>2026-04-24T14:23:51.998Z</time></trkpt><trkpt lat="44.95762727733843" lon="9.546645130604233"><ele>139.0</ele><time>2026-04-24T14:23:52.998Z</time></trkpt><trkpt lat="44.957734611722955" lon="9.546728693584173"><ele>139.0</ele><time>2026-04-24T14:23:53.998Z</time></trkpt><trkpt lat="44.957854938584255" lon="9.546807986244453"><ele>139.0</ele><time>2026-04-24T14:23:54.998Z</time></trkpt><trkpt lat="44.95795425631669" lon="9.546897921929489"><ele>139.0</ele><time>2026-04-24T14:23:55.998Z</time></trkpt><trkpt lat="44.958049429594894" lon="9.546971070782377"><ele>139.0</ele><time>2026-04-24T14:23:56.998Z</time></trkpt><trkpt lat="44.95813453528783" lon="9.547058510644657"><ele>139.0</ele><time>2026-04-24T14:23:57.998Z</time></trkpt><trkpt lat="44.9582086843388" lon="9.54715846635347"><ele>139.0</ele><time>2026-04-24T14:23:58.998Z</time></trkpt><trkpt lat="44.95828836989346" lon="9.54727036353517"><ele>139.0</ele><time>2026-04-24T14:23:59.998Z</time></trkpt><trkpt lat="44.95835800856444" lon="9.54741818591657"><ele>139.0</ele><time>2026-04-24T14:24:00.998Z</time></trkpt><trkpt lat="44.9584348617954" lon="9.547493661494988"><ele>139.0</ele><time>2026-04-24T14:24:01.998Z</time></trkpt><trkpt lat="44.958543307015006" lon="9.547584432357386"><ele>139.0</ele><time>2026-04-24T14:24:02.998Z</time></trkpt><trkpt lat="44.95865530629499" lon="9.547663389353898"><ele>139.0</ele><time>2026-04-24T14:24:03.998Z</time></trkpt><trkpt lat="44.95873616388171" lon="9.547686598879777"><ele>139.0</ele><time>2026-04-24T14:24:04.998Z</time></trkpt><trkpt lat="44.9588089744784" lon="9.5477379908898"><ele>139.0</ele><time>2026-04-24T14:24:05.998Z</time></trkpt><trkpt lat="44.95888790249248" lon="9.54781362753842"><ele>139.0</ele><time>2026-04-24T14:24:06.998Z</time></trkpt><trkpt lat="44.95899818284715" lon="9.547874650002674"><ele>138.4</ele><time>2026-04-24T14:24:07.998Z</time></trkpt><trkpt lat="44.95907170494811" lon="9.547926232786331"><ele>137.8</ele><time>2026-04-24T14:24:08.998Z</time></trkpt><trkpt lat="44.95915024497615" lon="9.548015333553932"><ele>137.2</ele><time>2026-04-24T14:24:09.998Z</time></trkpt><trkpt lat="44.95923857812452" lon="9.548150369139995"><ele>136.6</ele><time>2026-04-24T14:24:10.998Z</time></trkpt><trkpt lat="44.959345605170704" lon="9.54819260449377"><ele>136.0</ele><time>2026-04-24T14:24:11.998Z</time></trkpt><trkpt lat="44.959444477349564" lon="9.54826600347523"><ele>135.75</ele><time>2026-04-24T14:24:12.998Z</time></trkpt><trkpt lat="44.959544902417825" lon="9.54831772836616"><ele>135.5</ele><time>2026-04-24T14:24:13.998Z</time></trkpt><trkpt lat="44.95965582008355" lon="9.548421009882267"><ele>135.25</ele><time>2026-04-24T14:24:14.998Z</time></trkpt><trkpt lat="44.95977653871916" lon="9.548504379322331"><ele>135.0</ele><time>2026-04-24T14:24:15.998Z</time></trkpt><trkpt lat="44.95988277276488" lon="9.548575148440808"><ele>135.0</ele><time>2026-04-24T14:24:16.998Z</time></trkpt><trkpt lat="44.95999978932236" lon="9.548666796949629"><ele>135.0</ele><time>2026-04-24T14:24:17.998Z</time></trkpt><trkpt lat="44.960104787221276" lon="9.548738424626999"><ele>135.0</ele><time>2026-04-24T14:24:18.998Z</time></trkpt><trkpt lat="44.96021261742165" lon="9.548691814944638"><ele>135.0</ele><time>2026-04-24T14:24:19.998Z</time></trkpt><trkpt lat="44.960308841802046" lon="9.548702799670801"><ele>134.5</ele><time>2026-04-24T14:24:20.998Z</time></trkpt><trkpt lat="44.96041260062784" lon="9.548759065409872"><ele>134.0</ele><time>2026-04-24T14:24:21.998Z</time></trkpt><trkpt lat="44.96052617819141" lon="9.54876576871736"><ele>133.5</ele><time>2026-04-24T14:24:22.998Z</time></trkpt><trkpt lat="44.96064188215747" lon="9.54883219570218"><ele>133.0</ele><time>2026-04-24T14:24:23.998Z</time></trkpt><trkpt lat="44.960767085697874" lon="9.548875030957555"><ele>132.75</ele><time>2026-04-24T14:24:24.998Z</time></trkpt><trkpt lat="44.9608715811796" lon="9.54894428995771"><ele>132.5</ele><time>2026-04-24T14:24:25.998Z</time></trkpt><trkpt lat="44.96098593191906" lon="9.549018427411431"><ele>132.25</ele><time>2026-04-24T14:24:26.998Z</time></trkpt><trkpt lat="44.961098504276" lon="9.549084261251084"><ele>132.0</ele><time>2026-04-24T14:24:27.998Z</time></trkpt><trkpt lat="44.96122282649182" lon="9.549124178586975"><ele>132.0</ele><time>2026-04-24T14:24:28.998Z</time></trkpt><trkpt lat="44.96134192289163" lon="9.5491952456088"><ele>132.0</ele><time>2026-04-24T14:24:29.998Z</time></trkpt><trkpt lat="44.96147156149934" lon="9.549243980903015"><ele>132.0</ele><time>2026-04-24T14:24:30.998Z</time></trkpt><trkpt lat="44.96158923243447" lon="9.54925135545368"><ele>132.0</ele><time>2026-04-24T14:24:31.998Z</time></trkpt><trkpt lat="44.96170364894166" lon="9.54927368562349"><ele>131.5</ele><time>2026-04-24T14:24:32.998Z</time></trkpt><trkpt lat="44.961813531225516" lon="9.549319592403318"><ele>131.0</ele><time>2026-04-24T14:24:33.998Z</time></trkpt><trkpt lat="44.961908705100896" lon="9.549365012476496"><ele>130.5</ele><time>2026-04-24T14:24:34.998Z</time></trkpt><trkpt lat="44.96203192259577" lon="9.549410063587178"><ele>130.0</ele><time>2026-04-24T14:24:35.998Z</time></trkpt><trkpt lat="44.96212648319746" lon="9.549492799230087"><ele>130.0</ele><time>2026-04-24T14:24:36.998Z</time></trkpt><trkpt lat="44.962227899051236" lon="9.549538929550867"><ele>130.0</ele><time>2026-04-24T14:24:37.998Z</time></trkpt><trkpt lat="44.962331050763474" lon="9.549619457563754"><ele>130.0</ele><time>2026-04-24T14:24:38.997Z</time></trkpt><trkpt lat="44.962431265444685" lon="9.549672084289869"><ele>130.0</ele><time>2026-04-24T14:24:39.997Z</time></trkpt><trkpt lat="44.962532923759845" lon="9.549715469219153"><ele>130.0</ele><time>2026-04-24T14:24:40.997Z</time></trkpt><trkpt lat="44.9626462136415" lon="9.549812054175396"><ele>129.66666666666669</ele><time>2026-04-24T14:24:41.997Z</time></trkpt><trkpt lat="44.96279286570988" lon="9.549869917807966"><ele>129.33333333333334</ele><time>2026-04-24T14:24:42.997Z</time></trkpt><trkpt lat="44.96295364201288" lon="9.549919825925542"><ele>129.0</ele><time>2026-04-24T14:24:43.997Z</time></trkpt><trkpt lat="44.96309835264344" lon="9.549990644827608"><ele>129.0</ele><time>2026-04-24T14:24:44.997Z</time></trkpt><trkpt lat="44.9632384432935" lon="9.550059838369332"><ele>129.0</ele><time>2026-04-24T14:24:45.997Z</time></trkpt><trkpt lat="44.9633783849534" lon="9.55013951856284"><ele>129.0</ele><time>2026-04-24T14:24:46.997Z</time></trkpt><trkpt lat="44.963540219011826" lon="9.550245397436838"><ele>128.33333333333334</ele><time>2026-04-24T14:24:47.997Z</time></trkpt><trkpt lat="44.963691031730434" lon="9.550337485055739"><ele>127.66666666666667</ele><time>2026-04-24T14:24:48.997Z</time></trkpt><trkpt lat="44.96383034406493" lon="9.55041759390549"><ele>127.0</ele><time>2026-04-24T14:24:49.997Z</time></trkpt><trkpt lat="44.96398848933842" lon="9.550521690974206"><ele>127.0</ele><time>2026-04-24T14:24:50.997Z</time></trkpt><trkpt lat="44.96415110330274" lon="9.550615201905819"><ele>127.0</ele><time>2026-04-24T14:24:51.997Z</time></trkpt><trkpt lat="44.96430166395286" lon="9.550698434734135"><ele>127.0</ele><time>2026-04-24T14:24:52.997Z</time></trkpt><trkpt lat="44.96444553228618" lon="9.55082524149393"><ele>126.75</ele><time>2026-04-24T14:24:53.997Z</time></trkpt><trkpt lat="44.96455826819504" lon="9.550948600284187"><ele>126.5</ele><time>2026-04-24T14:24:54.997Z</time></trkpt><trkpt lat="44.964680010379446" lon="9.551066629794507"><ele>126.25</ele><time>2026-04-24T14:24:55.997Z</time></trkpt><trkpt lat="44.96478611850754" lon="9.551230535505374"><ele>126.0</ele><time>2026-04-24T14:24:56.997Z</time></trkpt><trkpt lat="44.964885923236295" lon="9.551377324961262"><ele>125.66666666666666</ele><time>2026-04-24T14:24:57.997Z</time></trkpt><trkpt lat="44.96502658089035" lon="9.551519209550275"><ele>125.33333333333333</ele><time>2026-04-24T14:24:58.997Z</time></trkpt><trkpt lat="44.96518264811504" lon="9.55163005351229"><ele>125.0</ele><time>2026-04-24T14:24:59.997Z</time></trkpt><trkpt lat="44.96534308111783" lon="9.55178591633976"><ele>124.33333333333333</ele><time>2026-04-24T14:25:00.997Z</time></trkpt><trkpt lat="44.965491471241435" lon="9.551933413693204"><ele>123.66666666666666</ele><time>2026-04-24T14:25:01.997Z</time></trkpt><trkpt lat="44.965646191060884" lon="9.552103668407476"><ele>123.0</ele><time>2026-04-24T14:25:02.997Z</time></trkpt><trkpt lat="44.965792726618446" lon="9.55225444869386"><ele>123.0</ele><time>2026-04-24T14:25:03.997Z</time></trkpt><trkpt lat="44.96595036153114" lon="9.552368146428499"><ele>123.0</ele><time>2026-04-24T14:25:04.997Z</time></trkpt><trkpt lat="44.96609532165057" lon="9.552536283080928"><ele>123.0</ele><time>2026-04-24T14:25:05.997Z</time></trkpt><trkpt lat="44.96624631504528" lon="9.552667295471203"><ele>123.0</ele><time>2026-04-24T14:25:06.997Z</time></trkpt><trkpt lat="44.96640337749491" lon="9.552816702389451"><ele>123.0</ele><time>2026-04-24T14:25:07.997Z</time></trkpt><trkpt lat="44.966564430815474" lon="9.552988132640186"><ele>123.0</ele><time>2026-04-24T14:25:08.997Z</time></trkpt><trkpt lat="44.966735775474355" lon="9.553138856396671"><ele>123.0</ele><time>2026-04-24T14:25:09.997Z</time></trkpt><trkpt lat="44.96689690438713" lon="9.553287060568687"><ele>123.0</ele><time>2026-04-24T14:25:10.997Z</time></trkpt><trkpt lat="44.967062033988476" lon="9.55343719643639"><ele>123.0</ele><time>2026-04-24T14:25:11.997Z</time></trkpt><trkpt lat="44.96723055322288" lon="9.55360834827774"><ele>122.66666666666666</ele><time>2026-04-24T14:25:12.997Z</time></trkpt><trkpt lat="44.96740876285137" lon="9.553782368518752"><ele>122.33333333333333</ele><time>2026-04-24T14:25:13.997Z</time></trkpt><trkpt lat="44.96758742031197" lon="9.553961381059512"><ele>122.0</ele><time>2026-04-24T14:25:14.997Z</time></trkpt><trkpt lat="44.96775241430258" lon="9.55411725288239"><ele>121.66666666666666</ele><time>2026-04-24T14:25:15.997Z</time></trkpt><trkpt lat="44.967914933470865" lon="9.5542639162814"><ele>121.33333333333334</ele><time>2026-04-24T14:25:16.997Z</time></trkpt><trkpt lat="44.96807778676463" lon="9.554435804604523"><ele>121.0</ele><time>2026-04-24T14:25:17.997Z</time></trkpt><trkpt lat="44.96824271740059" lon="9.554618029234184"><ele>120.33333333333334</ele><time>2026-04-24T14:25:18.997Z</time></trkpt><trkpt lat="44.9683928395942" lon="9.554755607021011"><ele>119.66666666666666</ele><time>2026-04-24T14:25:19.997Z</time></trkpt><trkpt lat="44.968573905826204" lon="9.55493934931689"><ele>119.0</ele><time>2026-04-24T14:25:20.997Z</time></trkpt><trkpt lat="44.96874023876026" lon="9.555098945148897"><ele>119.0</ele><time>2026-04-24T14:25:21.997Z</time></trkpt><trkpt lat="44.968916130223725" lon="9.5552747471779"><ele>119.0</ele><time>2026-04-24T14:25:22.997Z</time></trkpt><trkpt lat="44.96906521604305" lon="9.555441727677188"><ele>119.0</ele><time>2026-04-24T14:25:23.997Z</time></trkpt><trkpt lat="44.96923391091163" lon="9.555615615261132"><ele>119.0</ele><time>2026-04-24T14:25:24.997Z</time></trkpt><trkpt lat="44.96939954315156" lon="9.555761068299446"><ele>119.0</ele><time>2026-04-24T14:25:25.997Z</time></trkpt><trkpt lat="44.969567255512686" lon="9.555912175295488"><ele>119.0</ele><time>2026-04-24T14:25:26.997Z</time></trkpt><trkpt lat="44.96973351421548" lon="9.55609815614016"><ele>118.33333333333333</ele><time>2026-04-24T14:25:27.997Z</time></trkpt><trkpt lat="44.969895351524826" lon="9.556267375328924"><ele>117.66666666666666</ele><time>2026-04-24T14:25:28.997Z</time></trkpt><trkpt lat="44.97004480756445" lon="9.5564612475983"><ele>117.0</ele><time>2026-04-24T14:25:29.997Z</time></trkpt><trkpt lat="44.970205703494635" lon="9.55661903610547"><ele>116.66666666666666</ele><time>2026-04-24T14:25:30.997Z</time></trkpt><trkpt lat="44.97036791337502" lon="9.55676815093883"><ele>116.33333333333333</ele><time>2026-04-24T14:25:31.996Z</time></trkpt><trkpt lat="44.97052235359187" lon="9.556917969380121"><ele>116.0</ele><time>2026-04-24T14:25:32.996Z</time></trkpt><trkpt lat="44.970690201981114" lon="9.557068027772"><ele>115.66666666666666</ele><time>2026-04-24T14:25:33.996Z</time></trkpt><trkpt lat="44.97083619049558" lon="9.557230600826248"><ele>115.33333333333334</ele><time>2026-04-24T14:25:34.996Z</time></trkpt><trkpt lat="44.97100960888263" lon="9.557390374592739"><ele>115.0</ele><time>2026-04-24T14:25:35.996Z</time></trkpt><trkpt lat="44.97119412290369" lon="9.557558233348328"><ele>114.66666666666667</ele><time>2026-04-24T14:25:36.996Z</time></trkpt><trkpt lat="44.9713701059127" lon="9.557716738485293"><ele>114.33333333333334</ele><time>2026-04-24T14:25:37.996Z</time></trkpt><trkpt lat="44.97153359024382" lon="9.557878832588994"><ele>114.0</ele><time>2026-04-24T14:25:38.996Z</time></trkpt><trkpt lat="44.97170291269759" lon="9.558048762897265"><ele>113.66666666666666</ele><time>2026-04-24T14:25:39.996Z</time></trkpt><trkpt lat="44.97186246315289" lon="9.558204842874103"><ele>113.33333333333333</ele><time>2026-04-24T14:25:40.996Z</time></trkpt><trkpt lat="44.97203381688935" lon="9.558381922009648"><ele>113.0</ele><time>2026-04-24T14:25:41.996Z</time></trkpt><trkpt lat="44.972203597201656" lon="9.558532585871415"><ele>113.0</ele><time>2026-04-24T14:25:42.996Z</time></trkpt><trkpt lat="44.97237218914709" lon="9.558759782116546"><ele>113.0</ele><time>2026-04-24T14:25:43.996Z</time></trkpt><trkpt lat="44.972544732629906" lon="9.558902593019818"><ele>113.0</ele><time>2026-04-24T14:25:44.996Z</time></trkpt><trkpt lat="44.972706765734934" lon="9.559093889011601"><ele>113.0</ele><time>2026-04-24T14:25:45.996Z</time></trkpt><trkpt lat="44.97286601091693" lon="9.559295132581916"><ele>113.0</ele><time>2026-04-24T14:25:46.996Z</time></trkpt><trkpt lat="44.97302069446012" lon="9.559449349906219"><ele>113.0</ele><time>2026-04-24T14:25:47.996Z</time></trkpt><trkpt lat="44.97317004187932" lon="9.55964780616218"><ele>112.0</ele><time>2026-04-24T14:25:48.996Z</time></trkpt><trkpt lat="44.973328497710106" lon="9.559787871437253"><ele>111.0</ele><time>2026-04-24T14:25:49.996Z</time></trkpt><trkpt lat="44.97349824454503" lon="9.55994942818575"><ele>110.0</ele><time>2026-04-24T14:25:50.996Z</time></trkpt><trkpt lat="44.97364507099812" lon="9.560032298119493"><ele>109.66666666666666</ele><time>2026-04-24T14:25:51.996Z</time></trkpt><trkpt lat="44.97382175495888" lon="9.560245759413792"><ele>109.33333333333334</ele><time>2026-04-24T14:25:52.996Z</time></trkpt><trkpt lat="44.97398374757303" lon="9.560399562046973"><ele>109.0</ele><time>2026-04-24T14:25:53.996Z</time></trkpt><trkpt lat="44.974120802269105" lon="9.56052950412977"><ele>108.25</ele><time>2026-04-24T14:25:54.996Z</time></trkpt><trkpt lat="44.97423833888256" lon="9.56069638777914"><ele>107.5</ele><time>2026-04-24T14:25:55.996Z</time></trkpt><trkpt lat="44.97433008243453" lon="9.560817566359711"><ele>106.75</ele><time>2026-04-24T14:25:56.996Z</time></trkpt><trkpt lat="44.97445472714777" lon="9.560871377589821"><ele>106.0</ele><time>2026-04-24T14:25:57.996Z</time></trkpt><trkpt lat="44.97459046267684" lon="9.560881399515694"><ele>106.0</ele><time>2026-04-24T14:25:58.996Z</time></trkpt><trkpt lat="44.97475627397738" lon="9.560844950213568"><ele>106.0</ele><time>2026-04-24T14:25:59.996Z</time></trkpt><trkpt lat="44.9749340489643" lon="9.560799771782063"><ele>106.0</ele><time>2026-04-24T14:26:00.996Z</time></trkpt><trkpt lat="44.97510584574735" lon="9.56079059356051"><ele>106.33333333333334</ele><time>2026-04-24T14:26:01.996Z</time></trkpt><trkpt lat="44.97526641582813" lon="9.560707314299764"><ele>106.66666666666666</ele><time>2026-04-24T14:26:02.996Z</time></trkpt><trkpt lat="44.97539996156938" lon="9.56077661431853"><ele>107.0</ele><time>2026-04-24T14:26:03.996Z</time></trkpt><trkpt lat="44.97553205842979" lon="9.56091389275415"><ele>107.0</ele><time>2026-04-24T14:26:04.996Z</time></trkpt><trkpt lat="44.97564858760731" lon="9.56105505588136"><ele>107.0</ele><time>2026-04-24T14:26:05.996Z</time></trkpt><trkpt lat="44.97576044812121" lon="9.561187458428911"><ele>107.0</ele><time>2026-04-24T14:26:06.996Z</time></trkpt><trkpt lat="44.97589152631486" lon="9.561316516580838"><ele>105.66666666666666</ele><time>2026-04-24T14:26:07.996Z</time></trkpt><trkpt lat="44.976028883701545" lon="9.561459134329493"><ele>104.33333333333334</ele><time>2026-04-24T14:26:08.996Z</time></trkpt><trkpt lat="44.97616236239192" lon="9.561629704197301"><ele>103.0</ele><time>2026-04-24T14:26:09.996Z</time></trkpt><trkpt lat="44.97631831405439" lon="9.56175517270624"><ele>103.0</ele><time>2026-04-24T14:26:10.996Z</time></trkpt><trkpt lat="44.97647503282646" lon="9.56188595673749"><ele>103.0</ele><time>2026-04-24T14:26:11.996Z</time></trkpt><trkpt lat="44.976660407556125" lon="9.562004610422596"><ele>103.0</ele><time>2026-04-24T14:26:12.996Z</time></trkpt><trkpt lat="44.97682631117166" lon="9.562157079250307"><ele>102.75</ele><time>2026-04-24T14:26:13.996Z</time></trkpt><trkpt lat="44.97697511026564" lon="9.562295877146715"><ele>102.5</ele><time>2026-04-24T14:26:14.996Z</time></trkpt><trkpt lat="44.97709312236343" lon="9.562385203470887"><ele>102.25</ele><time>2026-04-24T14:26:15.996Z</time></trkpt><trkpt lat="44.977194113422094" lon="9.562505281065377"><ele>102.0</ele><time>2026-04-24T14:26:16.996Z</time></trkpt><trkpt lat="44.97724738360053" lon="9.562691461421048"><ele>101.66666666666666</ele><time>2026-04-24T14:26:17.996Z</time></trkpt><trkpt lat="44.977286505484" lon="9.56289859752007"><ele>101.33333333333333</ele><time>2026-04-24T14:26:18.996Z</time></trkpt><trkpt lat="44.97723610419647" lon="9.563119207450567"><ele>101.0</ele><time>2026-04-24T14:26:19.996Z</time></trkpt><trkpt lat="44.977238231056965" lon="9.563312522625107"><ele>101.0</ele><time>2026-04-24T14:26:20.996Z</time></trkpt><trkpt lat="44.977245396373704" lon="9.563515853889593"><ele>101.0</ele><time>2026-04-24T14:26:21.996Z</time></trkpt><trkpt lat="44.97729500419112" lon="9.563729846022381"><ele>101.0</ele><time>2026-04-24T14:26:22.996Z</time></trkpt><trkpt lat="44.9773618205429" lon="9.563934548832847"><ele>101.0</ele><time>2026-04-24T14:26:23.996Z</time></trkpt><trkpt lat="44.97743900691662" lon="9.56415148887775"><ele>101.0</ele><time>2026-04-24T14:26:24.996Z</time></trkpt><trkpt lat="44.97756101409526" lon="9.564308588404534"><ele>101.0</ele><time>2026-04-24T14:26:25.995Z</time></trkpt><trkpt lat="44.97774964979079" lon="9.564417466417309"><ele>100.66666666666666</ele><time>2026-04-24T14:26:26.995Z</time></trkpt><trkpt lat="44.97793193591887" lon="9.564539697274848"><ele>100.33333333333334</ele><time>2026-04-24T14:26:27.995Z</time></trkpt><trkpt lat="44.978102255868116" lon="9.56465280034871"><ele>100.0</ele><time>2026-04-24T14:26:28.995Z</time></trkpt><trkpt lat="44.97826317460381" lon="9.564775442109338"><ele>100.33333333333334</ele><time>2026-04-24T14:26:29.995Z</time></trkpt><trkpt lat="44.9784138283652" lon="9.56488650920613"><ele>100.66666666666666</ele><time>2026-04-24T14:26:30.995Z</time></trkpt><trkpt lat="44.97858130491828" lon="9.565020704214938"><ele>101.0</ele><time>2026-04-24T14:26:31.995Z</time></trkpt><trkpt lat="44.97874520047722" lon="9.565196906714855"><ele>101.0</ele><time>2026-04-24T14:26:32.995Z</time></trkpt><trkpt lat="44.97891197785286" lon="9.56529501653066"><ele>101.0</ele><time>2026-04-24T14:26:33.995Z</time></trkpt><trkpt lat="44.9790774554172" lon="9.565457881158592"><ele>101.0</ele><time>2026-04-24T14:26:34.995Z</time></trkpt><trkpt lat="44.97923708684645" lon="9.565557338362673"><ele>101.0</ele><time>2026-04-24T14:26:35.995Z</time></trkpt><trkpt lat="44.97939512678233" lon="9.565700557451972"><ele>101.0</ele><time>2026-04-24T14:26:36.995Z</time></trkpt><trkpt lat="44.97954078231489" lon="9.565815516547186"><ele>101.0</ele><time>2026-04-24T14:26:37.995Z</time></trkpt><trkpt lat="44.979660528356725" lon="9.5660176094365"><ele>100.75</ele><time>2026-04-24T14:26:38.995Z</time></trkpt><trkpt lat="44.97976563839051" lon="9.566198568846756"><ele>100.5</ele><time>2026-04-24T14:26:39.995Z</time></trkpt><trkpt lat="44.9798668055345" lon="9.566314057263522"><ele>100.25</ele><time>2026-04-24T14:26:40.995Z</time></trkpt><trkpt lat="44.97995862702021" lon="9.566484964051304"><ele>100.0</ele><time>2026-04-24T14:26:41.995Z</time></trkpt><trkpt lat="44.980085155424625" lon="9.56664952769264"><ele>98.66666666666667</ele><time>2026-04-24T14:26:42.995Z</time></trkpt><trkpt lat="44.98020477323138" lon="9.566836974030876"><ele>97.33333333333334</ele><time>2026-04-24T14:26:43.995Z</time></trkpt><trkpt lat="44.98031642739452" lon="9.56704916653483"><ele>96.0</ele><time>2026-04-24T14:26:44.995Z</time></trkpt><trkpt lat="44.9804125603055" lon="9.56728562214664"><ele>95.33333333333333</ele><time>2026-04-24T14:26:45.995Z</time></trkpt><trkpt lat="44.98047590241635" lon="9.567509146194011"><ele>94.66666666666666</ele><time>2026-04-24T14:26:46.995Z</time></trkpt><trkpt lat="44.98052505815525" lon="9.567757937142037"><ele>94.0</ele><time>2026-04-24T14:26:47.995Z</time></trkpt><trkpt lat="44.980604690549825" lon="9.567979018223797"><ele>93.66666666666666</ele><time>2026-04-24T14:26:48.995Z</time></trkpt><trkpt lat="44.98070913913932" lon="9.568192991651115"><ele>93.33333333333333</ele><time>2026-04-24T14:26:49.995Z</time></trkpt><trkpt lat="44.98079537035055" lon="9.568418350290552"><ele>93.0</ele><time>2026-04-24T14:26:50.995Z</time></trkpt><trkpt lat="44.980879823677476" lon="9.568650890318038"><ele>93.0</ele><time>2026-04-24T14:26:51.995Z</time></trkpt><trkpt lat="44.98097983778345" lon="9.568868063519623"><ele>93.0</ele><time>2026-04-24T14:26:52.995Z</time></trkpt><trkpt lat="44.98106967951594" lon="9.56908379566362"><ele>93.0</ele><time>2026-04-24T14:26:53.995Z</time></trkpt><trkpt lat="44.98116889135756" lon="9.569309262138509"><ele>93.0</ele><time>2026-04-24T14:26:54.995Z</time></trkpt><trkpt lat="44.98126288068344" lon="9.569541988372242"><ele>93.0</ele><time>2026-04-24T14:26:55.995Z</time></trkpt><trkpt lat="44.98140661362121" lon="9.569731487234169"><ele>93.0</ele><time>2026-04-24T14:26:56.995Z</time></trkpt><trkpt lat="44.981506072099045" lon="9.569943885487833"><ele>93.0</ele><time>2026-04-24T14:26:57.995Z</time></trkpt><trkpt lat="44.98161461639064" lon="9.57016133550327"><ele>93.0</ele><time>2026-04-24T14:26:58.995Z</time></trkpt><trkpt lat="44.98172778091481" lon="9.5703736765489"><ele>93.0</ele><time>2026-04-24T14:26:59.995Z</time></trkpt><trkpt lat="44.981813429722585" lon="9.570595892673412"><ele>92.66666666666667</ele><time>2026-04-24T14:27:00.995Z</time></trkpt><trkpt lat="44.98192365426902" lon="9.570804365231629"><ele>92.33333333333334</ele><time>2026-04-24T14:27:01.995Z</time></trkpt><trkpt lat="44.982039958106185" lon="9.570994339464558"><ele>92.0</ele><time>2026-04-24T14:27:02.995Z</time></trkpt><trkpt lat="44.98216512238373" lon="9.571206378174757"><ele>92.0</ele><time>2026-04-24T14:27:03.995Z</time></trkpt><trkpt lat="44.982271978985345" lon="9.57142297488796"><ele>92.0</ele><time>2026-04-24T14:27:04.995Z</time></trkpt><trkpt lat="44.982392072343636" lon="9.57163656412935"><ele>92.0</ele><time>2026-04-24T14:27:05.995Z</time></trkpt><trkpt lat="44.98251046608606" lon="9.571810102866584"><ele>92.0</ele><time>2026-04-24T14:27:06.995Z</time></trkpt><trkpt lat="44.98262632912263" lon="9.57201071088552"><ele>92.0</ele><time>2026-04-24T14:27:07.995Z</time></trkpt><trkpt lat="44.98273330443159" lon="9.572178516787627"><ele>92.0</ele><time>2026-04-24T14:27:08.995Z</time></trkpt><trkpt lat="44.98282920944693" lon="9.572369253718227"><ele>92.25</ele><time>2026-04-24T14:27:09.995Z</time></trkpt><trkpt lat="44.98291954027939" lon="9.572563181600454"><ele>92.5</ele><time>2026-04-24T14:27:10.995Z</time></trkpt><trkpt lat="44.983010539922205" lon="9.572719387336766"><ele>92.75</ele><time>2026-04-24T14:27:11.995Z</time></trkpt><trkpt lat="44.983100435314846" lon="9.572837260335106"><ele>93.0</ele><time>2026-04-24T14:27:12.995Z</time></trkpt><trkpt lat="44.98318696138722" lon="9.572938826052674"><ele>93.0</ele><time>2026-04-24T14:27:13.995Z</time></trkpt><trkpt lat="44.98323233911177" lon="9.573002817914247"><ele>93.0</ele><time>2026-04-24T14:27:14.995Z</time></trkpt><trkpt lat="44.98328642005449" lon="9.5731277909427"><ele>93.0</ele><time>2026-04-24T14:27:16.995Z</time></trkpt><trkpt lat="44.9833902957251" lon="9.57323020659663"><ele>93.0</ele><time>2026-04-24T14:27:18.994Z</time></trkpt><trkpt lat="44.983453257543125" lon="9.573276415985697"><ele>93.0</ele><time>2026-04-24T14:27:19.994Z</time></trkpt><trkpt lat="44.98352136153064" lon="9.573293197080996"><ele>93.0</ele><time>2026-04-24T14:27:20.994Z</time></trkpt><trkpt lat="44.983612438653346" lon="9.573288517223414"><ele>92.80000000000001</ele><time>2026-04-24T14:27:22.994Z</time></trkpt><trkpt lat="44.983731010018566" lon="9.573353445087545"><ele>92.6</ele><time>2026-04-24T14:27:24.994Z</time></trkpt><trkpt lat="44.983787903014004" lon="9.573433253999896"><ele>92.4</ele><time>2026-04-24T14:27:25.994Z</time></trkpt><trkpt lat="44.98373966597058" lon="9.573581934149791"><ele>92.19999999999999</ele><time>2026-04-24T14:27:26.994Z</time></trkpt><trkpt lat="44.98367674669172" lon="9.57371174489792"><ele>92.0</ele><time>2026-04-24T14:27:27.994Z</time></trkpt><trkpt lat="44.98359324060294" lon="9.573810039874102"><ele>92.0</ele><time>2026-04-24T14:27:28.994Z</time></trkpt><trkpt lat="44.98350969530309" lon="9.573935087164363"><ele>92.0</ele><time>2026-04-24T14:27:29.994Z</time></trkpt><trkpt lat="44.98341833775352" lon="9.574043501243233"><ele>92.0</ele><time>2026-04-24T14:27:30.994Z</time></trkpt><trkpt lat="44.9833106582158" lon="9.574141351604835"><ele>92.0</ele><time>2026-04-24T14:27:31.994Z</time></trkpt><trkpt lat="44.98319668521718" lon="9.574235430099632"><ele>92.5</ele><time>2026-04-24T14:27:32.994Z</time></trkpt><trkpt lat="44.9830840549366" lon="9.574312736399877"><ele>93.0</ele><time>2026-04-24T14:27:33.994Z</time></trkpt><trkpt lat="44.98300888331196" lon="9.574405978590502"><ele>93.5</ele><time>2026-04-24T14:27:34.994Z</time></trkpt><trkpt lat="44.982912017789296" lon="9.574514010234063"><ele>94.0</ele><time>2026-04-24T14:27:35.994Z</time></trkpt><trkpt lat="44.982803734938585" lon="9.574614072418484"><ele>94.0</ele><time>2026-04-24T14:27:36.994Z</time></trkpt><trkpt lat="44.982708089040045" lon="9.574735257654469"><ele>94.0</ele><time>2026-04-24T14:27:37.994Z</time></trkpt><trkpt lat="44.982603284878685" lon="9.574799807945528"><ele>94.0</ele><time>2026-04-24T14:27:38.994Z</time></trkpt><trkpt lat="44.982498307164136" lon="9.574893441712046"><ele>94.0</ele><time>2026-04-24T14:27:39.994Z</time></trkpt><trkpt lat="44.982389047528656" lon="9.574979574924383"><ele>94.25</ele><time>2026-04-24T14:27:40.994Z</time></trkpt><trkpt lat="44.98228761342996" lon="9.575079361384013"><ele>94.5</ele><time>2026-04-24T14:27:41.994Z</time></trkpt><trkpt lat="44.98217952065251" lon="9.575193245973292"><ele>94.75</ele><time>2026-04-24T14:27:42.994Z</time></trkpt><trkpt lat="44.98209311678844" lon="9.57527743859009"><ele>95.0</ele><time>2026-04-24T14:27:43.994Z</time></trkpt><trkpt lat="44.98198176983513" lon="9.57536196911627"><ele>95.0</ele><time>2026-04-24T14:27:44.994Z</time></trkpt><trkpt lat="44.98188732768515" lon="9.57546743821141"><ele>95.0</ele><time>2026-04-24T14:27:45.994Z</time></trkpt><trkpt lat="44.981782247473376" lon="9.5755794217173"><ele>95.0</ele><time>2026-04-24T14:27:46.994Z</time></trkpt><trkpt lat="44.98168767210179" lon="9.575738943669315"><ele>95.0</ele><time>2026-04-24T14:27:47.994Z</time></trkpt><trkpt lat="44.98159932062687" lon="9.575800647409308"><ele>95.0</ele><time>2026-04-24T14:27:48.994Z</time></trkpt><trkpt lat="44.98149367513516" lon="9.575939804371238"><ele>95.0</ele><time>2026-04-24T14:27:49.994Z</time></trkpt><trkpt lat="44.981386813344976" lon="9.576068999306415"><ele>95.0</ele><time>2026-04-24T14:27:50.994Z</time></trkpt><trkpt lat="44.981276715841794" lon="9.576197402398035"><ele>95.0</ele><time>2026-04-24T14:27:51.994Z</time></trkpt><trkpt lat="44.98115677121345" lon="9.576320067536663"><ele>95.0</ele><time>2026-04-24T14:27:52.994Z</time></trkpt><trkpt lat="44.981058827924734" lon="9.576521890500011"><ele>95.0</ele><time>2026-04-24T14:27:53.994Z</time></trkpt><trkpt lat="44.98094051019119" lon="9.576699567020075"><ele>95.0</ele><time>2026-04-24T14:27:54.994Z</time></trkpt><trkpt lat="44.980803892352746" lon="9.576792006790903"><ele>95.0</ele><time>2026-04-24T14:27:55.994Z</time></trkpt><trkpt lat="44.980701386490644" lon="9.576949128421985"><ele>95.0</ele><time>2026-04-24T14:27:56.994Z</time></trkpt><trkpt lat="44.9805872922429" lon="9.577063800979984"><ele>95.0</ele><time>2026-04-24T14:27:57.994Z</time></trkpt><trkpt lat="44.98048427044211" lon="9.577217617946431"><ele>95.0</ele><time>2026-04-24T14:27:58.994Z</time></trkpt><trkpt lat="44.9803739556979" lon="9.577366218255515"><ele>95.0</ele><time>2026-04-24T14:27:59.994Z</time></trkpt><trkpt lat="44.98026758619323" lon="9.577494239414321"><ele>95.0</ele><time>2026-04-24T14:28:00.994Z</time></trkpt><trkpt lat="44.98016726896013" lon="9.577624855068958"><ele>95.0</ele><time>2026-04-24T14:28:01.994Z</time></trkpt><trkpt lat="44.98005026124373" lon="9.577736363246666"><ele>95.0</ele><time>2026-04-24T14:28:02.994Z</time></trkpt><trkpt lat="44.97995307885756" lon="9.577838444272965"><ele>95.5</ele><time>2026-04-24T14:28:03.994Z</time></trkpt><trkpt lat="44.979860626455626" lon="9.57796760266206"><ele>96.0</ele><time>2026-04-24T14:28:04.994Z</time></trkpt><trkpt lat="44.97975942943579" lon="9.578122092842857"><ele>96.5</ele><time>2026-04-24T14:28:05.994Z</time></trkpt><trkpt lat="44.9796442316547" lon="9.578241235939617"><ele>97.0</ele><time>2026-04-24T14:28:06.994Z</time></trkpt><trkpt lat="44.979543292151334" lon="9.578364452586591"><ele>97.0</ele><time>2026-04-24T14:28:07.994Z</time></trkpt><trkpt lat="44.979431246364825" lon="9.57851982322997"><ele>97.0</ele><time>2026-04-24T14:28:08.994Z</time></trkpt><trkpt lat="44.97930375390199" lon="9.578611433130858"><ele>97.0</ele><time>2026-04-24T14:28:09.994Z</time></trkpt><trkpt lat="44.97919744438909" lon="9.578752849644067"><ele>97.0</ele><time>2026-04-24T14:28:10.994Z</time></trkpt><trkpt lat="44.979085297339864" lon="9.578918007122136"><ele>97.0</ele><time>2026-04-24T14:28:11.993Z</time></trkpt><trkpt lat="44.97896031301473" lon="9.579077468055397"><ele>97.0</ele><time>2026-04-24T14:28:12.993Z</time></trkpt><trkpt lat="44.97883680876621" lon="9.579200868257109"><ele>97.0</ele><time>2026-04-24T14:28:13.993Z</time></trkpt><trkpt lat="44.97872369308371" lon="9.579314685936342"><ele>97.0</ele><time>2026-04-24T14:28:14.993Z</time></trkpt><trkpt lat="44.97859430991376" lon="9.579448474677816"><ele>97.0</ele><time>2026-04-24T14:28:15.993Z</time></trkpt><trkpt lat="44.97847420579418" lon="9.579564030743231"><ele>97.0</ele><time>2026-04-24T14:28:16.993Z</time></trkpt><trkpt lat="44.978327095581236" lon="9.57969971664031"><ele>97.33333333333334</ele><time>2026-04-24T14:28:17.993Z</time></trkpt><trkpt lat="44.978163559434975" lon="9.579786519890796"><ele>97.66666666666666</ele><time>2026-04-24T14:28:18.993Z</time></trkpt><trkpt lat="44.97797485047541" lon="9.579815733852294"><ele>98.0</ele><time>2026-04-24T14:28:19.993Z</time></trkpt><trkpt lat="44.97782163675279" lon="9.57985138265598"><ele>98.0</ele><time>2026-04-24T14:28:20.993Z</time></trkpt><trkpt lat="44.97768400728949" lon="9.57991059277309"><ele>98.0</ele><time>2026-04-24T14:28:21.993Z</time></trkpt><trkpt lat="44.97753931404584" lon="9.579981938056516"><ele>98.0</ele><time>2026-04-24T14:28:22.993Z</time></trkpt><trkpt lat="44.97738670055499" lon="9.580028276496662"><ele>98.33333333333333</ele><time>2026-04-24T14:28:23.993Z</time></trkpt><trkpt lat="44.97723906126583" lon="9.580080361348472"><ele>98.66666666666666</ele><time>2026-04-24T14:28:24.993Z</time></trkpt><trkpt lat="44.97710743251019" lon="9.58017952473807"><ele>99.0</ele><time>2026-04-24T14:28:25.993Z</time></trkpt><trkpt lat="44.97697470834489" lon="9.580319024296212"><ele>98.66666666666666</ele><time>2026-04-24T14:28:26.993Z</time></trkpt><trkpt lat="44.9768069793679" lon="9.580389507750022"><ele>98.33333333333333</ele><time>2026-04-24T14:28:27.993Z</time></trkpt><trkpt lat="44.97668150154194" lon="9.580554136404013"><ele>98.0</ele><time>2026-04-24T14:28:28.993Z</time></trkpt><trkpt lat="44.97655399483936" lon="9.580660565313242"><ele>98.0</ele><time>2026-04-24T14:28:29.993Z</time></trkpt><trkpt lat="44.97642147851104" lon="9.580783347316771"><ele>98.0</ele><time>2026-04-24T14:28:30.993Z</time></trkpt><trkpt lat="44.97629625435511" lon="9.580940918529988"><ele>98.0</ele><time>2026-04-24T14:28:31.993Z</time></trkpt><trkpt lat="44.97615881875189" lon="9.581080241267244"><ele>97.66666666666666</ele><time>2026-04-24T14:28:32.993Z</time></trkpt><trkpt lat="44.97602731246783" lon="9.581241637714545"><ele>97.33333333333334</ele><time>2026-04-24T14:28:33.993Z</time></trkpt><trkpt lat="44.975887687739565" lon="9.581361131315527"><ele>97.0</ele><time>2026-04-24T14:28:34.993Z</time></trkpt><trkpt lat="44.97573680303688" lon="9.58143691417285"><ele>97.66666666666667</ele><time>2026-04-24T14:28:35.993Z</time></trkpt><trkpt lat="44.97557694042935" lon="9.581473594595082"><ele>98.33333333333334</ele><time>2026-04-24T14:28:36.993Z</time></trkpt><trkpt lat="44.97541286252479" lon="9.581492088515114"><ele>99.0</ele><time>2026-04-24T14:28:37.993Z</time></trkpt><trkpt lat="44.97523052529431" lon="9.581476570648563"><ele>99.0</ele><time>2026-04-24T14:28:38.993Z</time></trkpt><trkpt lat="44.97506002031858" lon="9.581463461395487"><ele>99.0</ele><time>2026-04-24T14:28:39.993Z</time></trkpt><trkpt lat="44.97488084779021" lon="9.581528516733943"><ele>99.0</ele><time>2026-04-24T14:28:40.993Z</time></trkpt><trkpt lat="44.974704424938516" lon="9.581555858265784"><ele>99.66666666666666</ele><time>2026-04-24T14:28:41.993Z</time></trkpt><trkpt lat="44.97453220816533" lon="9.581592104467065"><ele>100.33333333333333</ele><time>2026-04-24T14:28:42.993Z</time></trkpt><trkpt lat="44.97436576075395" lon="9.581600338674182"><ele>101.0</ele><time>2026-04-24T14:28:43.993Z</time></trkpt><trkpt lat="44.97421137927259" lon="9.581622450400573"><ele>101.0</ele><time>2026-04-24T14:28:44.993Z</time></trkpt><trkpt lat="44.97405013718482" lon="9.58166887029054"><ele>101.0</ele><time>2026-04-24T14:28:45.993Z</time></trkpt><trkpt lat="44.97388134829731" lon="9.581753351367183"><ele>101.0</ele><time>2026-04-24T14:28:46.993Z</time></trkpt><trkpt lat="44.9737186774395" lon="9.58180388974727"><ele>101.0</ele><time>2026-04-24T14:28:47.993Z</time></trkpt><trkpt lat="44.97354238617472" lon="9.581894319890093"><ele>101.0</ele><time>2026-04-24T14:28:48.993Z</time></trkpt><trkpt lat="44.97335415702236" lon="9.582007135638841"><ele>101.0</ele><time>2026-04-24T14:28:49.993Z</time></trkpt><trkpt lat="44.97315187306239" lon="9.582133409225122"><ele>101.0</ele><time>2026-04-24T14:28:50.993Z</time></trkpt><trkpt lat="44.9729743564011" lon="9.582200301165843"><ele>101.0</ele><time>2026-04-24T14:28:51.993Z</time></trkpt><trkpt lat="44.97277556362238" lon="9.582295315151507"><ele>101.0</ele><time>2026-04-24T14:28:52.993Z</time></trkpt><trkpt lat="44.972580967970046" lon="9.582344729446028"><ele>100.66666666666666</ele><time>2026-04-24T14:28:53.993Z</time></trkpt><trkpt lat="44.97239626492908" lon="9.582421245342166"><ele>100.33333333333334</ele><time>2026-04-24T14:28:54.993Z</time></trkpt><trkpt lat="44.97220564691577" lon="9.58249036922766"><ele>100.0</ele><time>2026-04-24T14:28:55.993Z</time></trkpt><trkpt lat="44.97203018861508" lon="9.582553525811"><ele>100.0</ele><time>2026-04-24T14:28:56.993Z</time></trkpt><trkpt lat="44.97185323865082" lon="9.5825991491482"><ele>100.0</ele><time>2026-04-24T14:28:58Z</time></trkpt><trkpt lat="44.971692570540704" lon="9.58268758846517"><ele>100.0</ele><time>2026-04-24T14:28:59.001Z</time></trkpt><trkpt lat="44.97153772778484" lon="9.582831267646796"><ele>100.0</ele><time>2026-04-24T14:29:00Z</time></trkpt><trkpt lat="44.97137344984583" lon="9.58296605958297"><ele>100.0</ele><time>2026-04-24T14:29:01Z</time></trkpt><trkpt lat="44.971209376671695" lon="9.583106173195189"><ele>100.0</ele><time>2026-04-24T14:29:02Z</time></trkpt><trkpt lat="44.97103102550228" lon="9.583233710590282"><ele>100.66666666666667</ele><time>2026-04-24T14:29:03Z</time></trkpt><trkpt lat="44.9708514554434" lon="9.583379876405868"><ele>101.33333333333334</ele><time>2026-04-24T14:29:04Z</time></trkpt><trkpt lat="44.970669098675906" lon="9.583504730544014"><ele>102.0</ele><time>2026-04-24T14:29:05Z</time></trkpt><trkpt lat="44.97048226740626" lon="9.583618823803487"><ele>101.66666666666666</ele><time>2026-04-24T14:29:06Z</time></trkpt><trkpt lat="44.970301111836754" lon="9.583762988239647"><ele>101.33333333333333</ele><time>2026-04-24T14:29:07Z</time></trkpt><trkpt lat="44.970097021643" lon="9.583859753980326"><ele>101.0</ele><time>2026-04-24T14:29:08Z</time></trkpt><trkpt lat="44.969880899716294" lon="9.583919234270208"><ele>101.0</ele><time>2026-04-24T14:29:09Z</time></trkpt><trkpt lat="44.96968362740749" lon="9.58403237394917"><ele>101.0</ele><time>2026-04-24T14:29:10Z</time></trkpt><trkpt lat="44.96948366586729" lon="9.584134291180533"><ele>101.0</ele><time>2026-04-24T14:29:11Z</time></trkpt><trkpt lat="44.96930925643574" lon="9.584262408306724"><ele>101.0</ele><time>2026-04-24T14:29:12Z</time></trkpt><trkpt lat="44.96912914369498" lon="9.584392570246463"><ele>101.0</ele><time>2026-04-24T14:29:13Z</time></trkpt><trkpt lat="44.96893523825694" lon="9.584480996973252"><ele>101.0</ele><time>2026-04-24T14:29:14Z</time></trkpt><trkpt lat="44.96873263143239" lon="9.584520161064829"><ele>101.0</ele><time>2026-04-24T14:29:15Z</time></trkpt><trkpt lat="44.968509683062095" lon="9.584565393773127"><ele>101.0</ele><time>2026-04-24T14:29:16Z</time></trkpt><trkpt lat="44.96829988308645" lon="9.584613393070478"><ele>101.0</ele><time>2026-04-24T14:29:17Z</time></trkpt><trkpt lat="44.96808681384524" lon="9.584652873747038"><ele>102.66666666666666</ele><time>2026-04-24T14:29:18Z</time></trkpt><trkpt lat="44.96787601615467" lon="9.584715503589498"><ele>104.33333333333334</ele><time>2026-04-24T14:29:19Z</time></trkpt><trkpt lat="44.96768018371668" lon="9.584767004460634"><ele>106.0</ele><time>2026-04-24T14:29:20Z</time></trkpt><trkpt lat="44.96748286154068" lon="9.584829950379225"><ele>106.66666666666667</ele><time>2026-04-24T14:29:21Z</time></trkpt><trkpt lat="44.96730281807796" lon="9.584880656241266"><ele>107.33333333333334</ele><time>2026-04-24T14:29:22Z</time></trkpt><trkpt lat="44.967108746974326" lon="9.584941107645085"><ele>108.0</ele><time>2026-04-24T14:29:23Z</time></trkpt><trkpt lat="44.96690460690592" lon="9.584971566296469"><ele>108.0</ele><time>2026-04-24T14:29:24Z</time></trkpt><trkpt lat="44.96673207188278" lon="9.585038543005101"><ele>108.0</ele><time>2026-04-24T14:29:25Z</time></trkpt><trkpt lat="44.96654558763554" lon="9.585103669822141"><ele>108.0</ele><time>2026-04-24T14:29:26Z</time></trkpt><trkpt lat="44.966361686283264" lon="9.585152223622547"><ele>108.0</ele><time>2026-04-24T14:29:27Z</time></trkpt><trkpt lat="44.96617872406156" lon="9.585224286141315"><ele>108.0</ele><time>2026-04-24T14:29:28Z</time></trkpt><trkpt lat="44.965993073187455" lon="9.585272793788521"><ele>108.0</ele><time>2026-04-24T14:29:29Z</time></trkpt><trkpt lat="44.96581744293947" lon="9.585316307386327"><ele>108.66666666666666</ele><time>2026-04-24T14:29:30Z</time></trkpt><trkpt lat="44.96564692433188" lon="9.585372782573376"><ele>109.33333333333333</ele><time>2026-04-24T14:29:31Z</time></trkpt><trkpt lat="44.965480290676695" lon="9.585420166913309"><ele>110.0</ele><time>2026-04-24T14:29:32Z</time></trkpt><trkpt lat="44.96532693625663" lon="9.585489012727182"><ele>110.0</ele><time>2026-04-24T14:29:33Z</time></trkpt><trkpt lat="44.965190272290705" lon="9.585565928955715"><ele>110.0</ele><time>2026-04-24T14:29:34Z</time></trkpt><trkpt lat="44.96505885107418" lon="9.58557487725126"><ele>110.0</ele><time>2026-04-24T14:29:35Z</time></trkpt><trkpt lat="44.964955216504805" lon="9.585592413733481"><ele>110.0</ele><time>2026-04-24T14:29:36Z</time></trkpt><trkpt lat="44.96485097100702" lon="9.585577099337883"><ele>110.4</ele><time>2026-04-24T14:29:37Z</time></trkpt><trkpt lat="44.96476107809104" lon="9.585620271703629"><ele>110.8</ele><time>2026-04-24T14:29:38Z</time></trkpt><trkpt lat="44.96467781567691" lon="9.585644014394784"><ele>111.19999999999999</ele><time>2026-04-24T14:29:39Z</time></trkpt><trkpt lat="44.96459876726214" lon="9.585706723418657"><ele>111.6</ele><time>2026-04-24T14:29:40Z</time></trkpt><trkpt lat="44.964538817144295" lon="9.585744197894398"><ele>112.0</ele><time>2026-04-24T14:29:41Z</time></trkpt><trkpt lat="44.964462663888156" lon="9.585870523635139"><ele>112.0</ele><time>2026-04-24T14:29:42.999Z</time></trkpt><trkpt lat="44.96442919424932" lon="9.586030964627476"><ele>112.0</ele><time>2026-04-24T14:29:43.999Z</time></trkpt><trkpt lat="44.96441402757378" lon="9.586254931125572"><ele>112.0</ele><time>2026-04-24T14:29:44.999Z</time></trkpt><trkpt lat="44.96445915778511" lon="9.586502001717504"><ele>112.0</ele><time>2026-04-24T14:29:45.999Z</time></trkpt><trkpt lat="44.96447124711544" lon="9.586748834762028"><ele>112.0</ele><time>2026-04-24T14:29:46.999Z</time></trkpt><trkpt lat="44.96448553245988" lon="9.587006966997082"><ele>112.0</ele><time>2026-04-24T14:29:47.999Z</time></trkpt><trkpt lat="44.96448467620603" lon="9.587269323084918"><ele>110.66666666666667</ele><time>2026-04-24T14:29:48.999Z</time></trkpt><trkpt lat="44.96446549670322" lon="9.587517698543264"><ele>109.33333333333334</ele><time>2026-04-24T14:29:49.999Z</time></trkpt><trkpt lat="44.9644593179772" lon="9.587839662901551"><ele>108.0</ele><time>2026-04-24T14:29:50.999Z</time></trkpt><trkpt lat="44.96443455795586" lon="9.588136448754671"><ele>107.0</ele><time>2026-04-24T14:29:51.999Z</time></trkpt><trkpt lat="44.964418043481636" lon="9.588463443859203"><ele>106.0</ele><time>2026-04-24T14:29:52.999Z</time></trkpt><trkpt lat="44.96440186765059" lon="9.58880975188627"><ele>105.0</ele><time>2026-04-24T14:29:53.999Z</time></trkpt><trkpt lat="44.96437123490096" lon="9.589130634933252"><ele>104.0</ele><time>2026-04-24T14:29:54.999Z</time></trkpt><trkpt lat="44.964347329892774" lon="9.589479393846903"><ele>103.0</ele><time>2026-04-24T14:29:55.999Z</time></trkpt><trkpt lat="44.96430511767003" lon="9.58981563747046"><ele>102.0</ele><time>2026-04-24T14:29:56.999Z</time></trkpt><trkpt lat="44.96426867492722" lon="9.59016513100278"><ele>102.0</ele><time>2026-04-24T14:29:57.999Z</time></trkpt><trkpt lat="44.964215548837906" lon="9.59047396143571"><ele>102.0</ele><time>2026-04-24T14:29:58.999Z</time></trkpt><trkpt lat="44.96416055687494" lon="9.590780342705425"><ele>102.0</ele><time>2026-04-24T14:29:59.999Z</time></trkpt><trkpt lat="44.96412955084806" lon="9.591108883889651"><ele>101.66666666666666</ele><time>2026-04-24T14:30:00.999Z</time></trkpt><trkpt lat="44.964105307607994" lon="9.591428002542338"><ele>101.33333333333333</ele><time>2026-04-24T14:30:01.999Z</time></trkpt><trkpt lat="44.96406468178047" lon="9.591717680630275"><ele>101.0</ele><time>2026-04-24T14:30:02.999Z</time></trkpt><trkpt lat="44.96405804287394" lon="9.592033797407124"><ele>101.0</ele><time>2026-04-24T14:30:03.999Z</time></trkpt><trkpt lat="44.96405520904372" lon="9.592344225393896"><ele>101.0</ele><time>2026-04-24T14:30:04.999Z</time></trkpt><trkpt lat="44.96404563270646" lon="9.59264670471369"><ele>101.0</ele><time>2026-04-24T14:30:05.999Z</time></trkpt><trkpt lat="44.96402941659921" lon="9.592944668005368"><ele>101.0</ele><time>2026-04-24T14:30:06.999Z</time></trkpt><trkpt lat="44.964013347116584" lon="9.59324215530719"><ele>101.0</ele><time>2026-04-24T14:30:07.999Z</time></trkpt><trkpt lat="44.96399442917908" lon="9.593543701316511"><ele>101.0</ele><time>2026-04-24T14:30:08.999Z</time></trkpt><trkpt lat="44.96396119805673" lon="9.593843269292185"><ele>100.66666666666666</ele><time>2026-04-24T14:30:09.999Z</time></trkpt><trkpt lat="44.963938519255635" lon="9.594139782599942"><ele>100.33333333333334</ele><time>2026-04-24T14:30:10.999Z</time></trkpt><trkpt lat="44.963934391914854" lon="9.594456840393718"><ele>100.0</ele><time>2026-04-24T14:30:11.999Z</time></trkpt><trkpt lat="44.96392997409123" lon="9.5947620026138"><ele>100.0</ele><time>2026-04-24T14:30:12.999Z</time></trkpt><trkpt lat="44.963891718546655" lon="9.595038983296389"><ele>100.0</ele><time>2026-04-24T14:30:13.999Z</time></trkpt><trkpt lat="44.963861219678975" lon="9.595318586090016"><ele>100.0</ele><time>2026-04-24T14:30:14.999Z</time></trkpt><trkpt lat="44.96387310150042" lon="9.595644707205983"><ele>100.0</ele><time>2026-04-24T14:30:15.999Z</time></trkpt><trkpt lat="44.96386704859136" lon="9.595953275817326"><ele>100.0</ele><time>2026-04-24T14:30:16.999Z</time></trkpt><trkpt lat="44.963845849272786" lon="9.596259259281371"><ele>100.0</ele><time>2026-04-24T14:30:17.999Z</time></trkpt><trkpt lat="44.96382345076537" lon="9.596579231696982"><ele>100.33333333333334</ele><time>2026-04-24T14:30:18.999Z</time></trkpt><trkpt lat="44.963816439801704" lon="9.59689248642737"><ele>100.66666666666666</ele><time>2026-04-24T14:30:19.999Z</time></trkpt><trkpt lat="44.96379555205133" lon="9.597201193976414"><ele>101.0</ele><time>2026-04-24T14:30:20.999Z</time></trkpt><trkpt lat="44.96375958100796" lon="9.597513587052925"><ele>102.0</ele><time>2026-04-24T14:30:21.999Z</time></trkpt><trkpt lat="44.963748735101696" lon="9.597838775837117"><ele>103.0</ele><time>2026-04-24T14:30:22.999Z</time></trkpt><trkpt lat="44.96372614885288" lon="9.598162198444424"><ele>103.0</ele><time>2026-04-24T14:30:23.999Z</time></trkpt><trkpt lat="44.963723412748635" lon="9.598510311639158"><ele>103.0</ele><time>2026-04-24T14:30:24.999Z</time></trkpt><trkpt lat="44.96373235968844" lon="9.598857668079601"><ele>103.33333333333334</ele><time>2026-04-24T14:30:25.999Z</time></trkpt><trkpt lat="44.963710968148334" lon="9.599177158530663"><ele>103.66666666666666</ele><time>2026-04-24T14:30:26.999Z</time></trkpt><trkpt lat="44.96368464744266" lon="9.599441425907186"><ele>104.0</ele><time>2026-04-24T14:30:27.999Z</time></trkpt><trkpt lat="44.9636751519627" lon="9.599777446547607"><ele>104.0</ele><time>2026-04-24T14:30:28.999Z</time></trkpt><trkpt lat="44.963656439186515" lon="9.600087110172245"><ele>104.0</ele><time>2026-04-24T14:30:29.999Z</time></trkpt><trkpt lat="44.963659060801085" lon="9.600405635535816"><ele>104.0</ele><time>2026-04-24T14:30:30.999Z</time></trkpt><trkpt lat="44.96367856582931" lon="9.600734686629199"><ele>104.0</ele><time>2026-04-24T14:30:31.998Z</time></trkpt><trkpt lat="44.96364479345422" lon="9.601049717656608"><ele>104.0</ele><time>2026-04-24T14:30:32.998Z</time></trkpt><trkpt lat="44.96363609209261" lon="9.601353867864031"><ele>104.0</ele><time>2026-04-24T14:30:33.998Z</time></trkpt><trkpt lat="44.963642002515165" lon="9.601651388896421"><ele>103.66666666666666</ele><time>2026-04-24T14:30:34.998Z</time></trkpt><trkpt lat="44.96366326974138" lon="9.601946395498432"><ele>103.33333333333334</ele><time>2026-04-24T14:30:35.998Z</time></trkpt><trkpt lat="44.96371332452151" lon="9.60222928870015"><ele>103.0</ele><time>2026-04-24T14:30:36.998Z</time></trkpt><trkpt lat="44.96378562444473" lon="9.602494113662889"><ele>103.66666666666667</ele><time>2026-04-24T14:30:37.998Z</time></trkpt><trkpt lat="44.963887791922765" lon="9.602744475538048"><ele>104.33333333333334</ele><time>2026-04-24T14:30:38.998Z</time></trkpt><trkpt lat="44.96398332539831" lon="9.602977023460495"><ele>105.0</ele><time>2026-04-24T14:30:39.998Z</time></trkpt><trkpt lat="44.96410265363744" lon="9.603181354328644"><ele>105.0</ele><time>2026-04-24T14:30:40.998Z</time></trkpt><trkpt lat="44.96425256226862" lon="9.603364756942263"><ele>105.0</ele><time>2026-04-24T14:30:41.998Z</time></trkpt><trkpt lat="44.96441266752851" lon="9.603522857288223"><ele>105.0</ele><time>2026-04-24T14:30:42.998Z</time></trkpt><trkpt lat="44.96458497629825" lon="9.603644844028942"><ele>105.0</ele><time>2026-04-24T14:30:43.998Z</time></trkpt><trkpt lat="44.964765300567855" lon="9.603740721869753"><ele>105.0</ele><time>2026-04-24T14:30:44.998Z</time></trkpt><trkpt lat="44.96494680606826" lon="9.603760636810176"><ele>105.0</ele><time>2026-04-24T14:30:45.998Z</time></trkpt><trkpt lat="44.96514471978893" lon="9.603785515348493"><ele>105.0</ele><time>2026-04-24T14:30:46.998Z</time></trkpt><trkpt lat="44.96535486895814" lon="9.603822815624788"><ele>105.0</ele><time>2026-04-24T14:30:47.998Z</time></trkpt><trkpt lat="44.9655586907367" lon="9.603805062373217"><ele>105.0</ele><time>2026-04-24T14:30:48.998Z</time></trkpt><trkpt lat="44.96576362534575" lon="9.603782361329737"><ele>104.66666666666666</ele><time>2026-04-24T14:30:49.998Z</time></trkpt><trkpt lat="44.96596924136674" lon="9.603745008605843"><ele>104.33333333333333</ele><time>2026-04-24T14:30:50.998Z</time></trkpt><trkpt lat="44.96618372695638" lon="9.603697360193973"><ele>104.0</ele><time>2026-04-24T14:30:51.998Z</time></trkpt><trkpt lat="44.966394911290514" lon="9.603649478166687"><ele>104.33333333333333</ele><time>2026-04-24T14:30:52.998Z</time></trkpt><trkpt lat="44.96661265694272" lon="9.603627294512542"><ele>104.66666666666666</ele><time>2026-04-24T14:30:53.998Z</time></trkpt><trkpt lat="44.96680829039643" lon="9.6035700689918"><ele>105.0</ele><time>2026-04-24T14:30:54.998Z</time></trkpt><trkpt lat="44.96702807470686" lon="9.603568659508012"><ele>105.0</ele><time>2026-04-24T14:30:55.998Z</time></trkpt><trkpt lat="44.96724025851548" lon="9.60355300352468"><ele>105.0</ele><time>2026-04-24T14:30:56.998Z</time></trkpt><trkpt lat="44.96745316857254" lon="9.603570770101024"><ele>105.0</ele><time>2026-04-24T14:30:57.998Z</time></trkpt><trkpt lat="44.96766971586597" lon="9.603603422936734"><ele>104.5</ele><time>2026-04-24T14:30:58.998Z</time></trkpt><trkpt lat="44.96809373436893" lon="9.603672146679108"><ele>104.0</ele><time>2026-04-24T14:31:00.998Z</time></trkpt><trkpt lat="44.96829771633745" lon="9.603752188542728"><ele>104.66666666666666</ele><time>2026-04-24T14:31:01.998Z</time></trkpt><trkpt lat="44.96850399860677" lon="9.603837139424646"><ele>105.33333333333334</ele><time>2026-04-24T14:31:02.998Z</time></trkpt><trkpt lat="44.96871283977107" lon="9.603926809145644"><ele>106.0</ele><time>2026-04-24T14:31:03.998Z</time></trkpt><trkpt lat="44.96892810828134" lon="9.604069024803874"><ele>106.0</ele><time>2026-04-24T14:31:04.998Z</time></trkpt><trkpt lat="44.969121305951525" lon="9.60424838025889"><ele>106.0</ele><time>2026-04-24T14:31:05.998Z</time></trkpt><trkpt lat="44.96930370335935" lon="9.604412963115182"><ele>106.0</ele><time>2026-04-24T14:31:06.998Z</time></trkpt><trkpt lat="44.969468960991996" lon="9.604600514466764"><ele>105.33333333333334</ele><time>2026-04-24T14:31:07.998Z</time></trkpt><trkpt lat="44.969632545702126" lon="9.604782867848593"><ele>104.66666666666666</ele><time>2026-04-24T14:31:08.998Z</time></trkpt><trkpt lat="44.96977058413013" lon="9.604960896090917"><ele>104.0</ele><time>2026-04-24T14:31:09.998Z</time></trkpt><trkpt lat="44.96989564514523" lon="9.60515256527761"><ele>104.0</ele><time>2026-04-24T14:31:10.998Z</time></trkpt><trkpt lat="44.969995739388864" lon="9.605309090155304"><ele>104.0</ele><time>2026-04-24T14:31:11.998Z</time></trkpt><trkpt lat="44.970081550404494" lon="9.605435632115233"><ele>104.0</ele><time>2026-04-24T14:31:12.998Z</time></trkpt><trkpt lat="44.97015381130332" lon="9.605548577653247"><ele>104.0</ele><time>2026-04-24T14:31:13.998Z</time></trkpt><trkpt lat="44.97020252979774" lon="9.60563384361145"><ele>103.49999999999999</ele><time>2026-04-24T14:31:14.998Z</time></trkpt><trkpt lat="44.97023124596661" lon="9.605727111135208"><ele>103.0</ele><time>2026-04-24T14:31:15.998Z</time></trkpt><trkpt lat="44.970257012323486" lon="9.605847403527115"><ele>102.5</ele><time>2026-04-24T14:31:17.998Z</time></trkpt><trkpt lat="44.97036389937673" lon="9.605881986952712"><ele>102.0</ele><time>2026-04-24T14:31:19.998Z</time></trkpt><trkpt lat="44.9704378399505" lon="9.605945519883274"><ele>101.49999999999999</ele><time>2026-04-24T14:31:21.997Z</time></trkpt><trkpt lat="44.97050391471714" lon="9.605871154082996"><ele>101.0</ele><time>2026-04-24T14:31:22.997Z</time></trkpt><trkpt lat="44.97060240611571" lon="9.605785302835656"><ele>101.0</ele><time>2026-04-24T14:31:23.997Z</time></trkpt><trkpt lat="44.970719581480076" lon="9.605654338635881"><ele>101.0</ele><time>2026-04-24T14:31:24.997Z</time></trkpt><trkpt lat="44.97085830401111" lon="9.605518788875887"><ele>101.0</ele><time>2026-04-24T14:31:25.997Z</time></trkpt><trkpt lat="44.97101135189371" lon="9.605423898056591"><ele>101.33333333333333</ele><time>2026-04-24T14:31:26.997Z</time></trkpt><trkpt lat="44.97117006513283" lon="9.605384593433406"><ele>101.66666666666666</ele><time>2026-04-24T14:31:27.997Z</time></trkpt><trkpt lat="44.971331115635515" lon="9.605378579192111"><ele>102.0</ele><time>2026-04-24T14:31:28.997Z</time></trkpt><trkpt lat="44.971501255941696" lon="9.605373899412571"><ele>102.0</ele><time>2026-04-24T14:31:29.997Z</time></trkpt><trkpt lat="44.971680775617" lon="9.605423512961913"><ele>102.0</ele><time>2026-04-24T14:31:30.997Z</time></trkpt><trkpt lat="44.971883697209236" lon="9.60548500871654"><ele>102.0</ele><time>2026-04-24T14:31:31.997Z</time></trkpt><trkpt lat="44.97212027888679" lon="9.605599420005003"><ele>101.0</ele><time>2026-04-24T14:31:32.997Z</time></trkpt><trkpt lat="44.9723533181375" lon="9.605671717126677"><ele>100.0</ele><time>2026-04-24T14:31:33.997Z</time></trkpt><trkpt lat="44.972597325971336" lon="9.605714332510143"><ele>100.0</ele><time>2026-04-24T14:31:34.997Z</time></trkpt><trkpt lat="44.97284088329557" lon="9.60572709692448"><ele>100.0</ele><time>2026-04-24T14:31:35.997Z</time></trkpt><trkpt lat="44.9730918870646" lon="9.605728933164686"><ele>100.0</ele><time>2026-04-24T14:31:36.997Z</time></trkpt><trkpt lat="44.9733458103795" lon="9.605713008485086"><ele>100.0</ele><time>2026-04-24T14:31:37.997Z</time></trkpt><trkpt lat="44.97358582703878" lon="9.605713017917322"><ele>100.5</ele><time>2026-04-24T14:31:38.997Z</time></trkpt><trkpt lat="44.97381398859432" lon="9.60571052976641"><ele>101.0</ele><time>2026-04-24T14:31:39.997Z</time></trkpt><trkpt lat="44.974048773970196" lon="9.605701439313004"><ele>101.0</ele><time>2026-04-24T14:31:40.997Z</time></trkpt><trkpt lat="44.97428903314366" lon="9.605714329768043"><ele>101.0</ele><time>2026-04-24T14:31:41.997Z</time></trkpt><trkpt lat="44.97452726850794" lon="9.605754292885644"><ele>101.0</ele><time>2026-04-24T14:31:42.997Z</time></trkpt><trkpt lat="44.974777764517576" lon="9.60577898977627"><ele>101.0</ele><time>2026-04-24T14:31:43.997Z</time></trkpt><trkpt lat="44.975022741335366" lon="9.605800539479405"><ele>99.0</ele><time>2026-04-24T14:31:44.997Z</time></trkpt><trkpt lat="44.97526422214337" lon="9.605844605535422"><ele>97.0</ele><time>2026-04-24T14:31:45.997Z</time></trkpt><trkpt lat="44.97551376222776" lon="9.605909320510671"><ele>97.0</ele><time>2026-04-24T14:31:46.997Z</time></trkpt><trkpt lat="44.975761342651786" lon="9.605977215737399"><ele>97.0</ele><time>2026-04-24T14:31:47.997Z</time></trkpt><trkpt lat="44.9759781670718" lon="9.606007308492803"><ele>97.5</ele><time>2026-04-24T14:31:48.997Z</time></trkpt><trkpt lat="44.976216495911544" lon="9.606053000472642"><ele>98.0</ele><time>2026-04-24T14:31:49.997Z</time></trkpt><trkpt lat="44.97644539546569" lon="9.60613818656364"><ele>98.0</ele><time>2026-04-24T14:31:50.997Z</time></trkpt><trkpt lat="44.976683580867196" lon="9.606201726913147"><ele>98.0</ele><time>2026-04-24T14:31:51.997Z</time></trkpt><trkpt lat="44.97689713573028" lon="9.606255860803822"><ele>98.0</ele><time>2026-04-24T14:31:52.997Z</time></trkpt><trkpt lat="44.97713705090906" lon="9.606351972588127"><ele>98.0</ele><time>2026-04-24T14:31:53.997Z</time></trkpt><trkpt lat="44.9773902851005" lon="9.606380774637527"><ele>98.5</ele><time>2026-04-24T14:31:54.997Z</time></trkpt><trkpt lat="44.97764367609189" lon="9.606432905394803"><ele>99.0</ele><time>2026-04-24T14:31:55.997Z</time></trkpt><trkpt lat="44.97789588163308" lon="9.606495037944407"><ele>99.0</ele><time>2026-04-24T14:31:56.997Z</time></trkpt><trkpt lat="44.97813662437569" lon="9.60651695208116"><ele>99.0</ele><time>2026-04-24T14:31:57.997Z</time></trkpt><trkpt lat="44.97836510288861" lon="9.606557268362332"><ele>97.0</ele><time>2026-04-24T14:31:58.997Z</time></trkpt><trkpt lat="44.978596251768515" lon="9.606608295339868"><ele>95.0</ele><time>2026-04-24T14:31:59.997Z</time></trkpt><trkpt lat="44.97882540338712" lon="9.606678606789322"><ele>95.0</ele><time>2026-04-24T14:32:00.997Z</time></trkpt><trkpt lat="44.9790475868" lon="9.606758516549354"><ele>95.0</ele><time>2026-04-24T14:32:01.997Z</time></trkpt><trkpt lat="44.97926824848169" lon="9.606794991081166"><ele>95.66666666666667</ele><time>2026-04-24T14:32:02.997Z</time></trkpt><trkpt lat="44.97947863936532" lon="9.606823052499234"><ele>96.33333333333334</ele><time>2026-04-24T14:32:03.997Z</time></trkpt><trkpt lat="44.979683842574445" lon="9.606889323742095"><ele>97.0</ele><time>2026-04-24T14:32:04.997Z</time></trkpt><trkpt lat="44.97987316168308" lon="9.606955244616156"><ele>96.0</ele><time>2026-04-24T14:32:05.997Z</time></trkpt><trkpt lat="44.98006696419984" lon="9.607012903743868"><ele>95.0</ele><time>2026-04-24T14:32:06.997Z</time></trkpt><trkpt lat="44.98025568184299" lon="9.607067018336055"><ele>94.0</ele><time>2026-04-24T14:32:07.997Z</time></trkpt><trkpt lat="44.980447989421336" lon="9.607086984175362"><ele>94.0</ele><time>2026-04-24T14:32:08.997Z</time></trkpt><trkpt lat="44.9806517535235" lon="9.607132376699491"><ele>94.0</ele><time>2026-04-24T14:32:09.997Z</time></trkpt><trkpt lat="44.980863305381085" lon="9.607119486302953"><ele>94.0</ele><time>2026-04-24T14:32:10.997Z</time></trkpt><trkpt lat="44.981080867329275" lon="9.60711320259807"><ele>94.0</ele><time>2026-04-24T14:32:11.997Z</time></trkpt><trkpt lat="44.98129986261917" lon="9.607090729543428"><ele>94.0</ele><time>2026-04-24T14:32:12.996Z</time></trkpt><trkpt lat="44.98152278370802" lon="9.607084956212475"><ele>94.0</ele><time>2026-04-24T14:32:13.996Z</time></trkpt><trkpt lat="44.981716615916646" lon="9.607105760705958"><ele>94.33333333333333</ele><time>2026-04-24T14:32:14.996Z</time></trkpt><trkpt lat="44.98193815588374" lon="9.607077148603144"><ele>94.66666666666667</ele><time>2026-04-24T14:32:15.996Z</time></trkpt><trkpt lat="44.9821581467994" lon="9.607040908404498"><ele>95.0</ele><time>2026-04-24T14:32:16.996Z</time></trkpt><trkpt lat="44.9823831667118" lon="9.607046747577115"><ele>94.66666666666667</ele><time>2026-04-24T14:32:17.996Z</time></trkpt><trkpt lat="44.982600017294736" lon="9.607104891317176"><ele>94.33333333333333</ele><time>2026-04-24T14:32:18.996Z</time></trkpt><trkpt lat="44.98280648332131" lon="9.607077242478256"><ele>94.0</ele><time>2026-04-24T14:32:19.996Z</time></trkpt><trkpt lat="44.983002465180675" lon="9.60705254098645"><ele>94.0</ele><time>2026-04-24T14:32:20.996Z</time></trkpt><trkpt lat="44.98320104513363" lon="9.607008954268816"><ele>94.0</ele><time>2026-04-24T14:32:21.996Z</time></trkpt><trkpt lat="44.98342082612135" lon="9.607014860733901"><ele>94.0</ele><time>2026-04-24T14:32:22.996Z</time></trkpt><trkpt lat="44.9836297402838" lon="9.607018266289082"><ele>95.0</ele><time>2026-04-24T14:32:23.996Z</time></trkpt><trkpt lat="44.98382970779249" lon="9.607031272211655"><ele>96.0</ele><time>2026-04-24T14:32:24.996Z</time></trkpt><trkpt lat="44.984026834989535" lon="9.607044195750557"><ele>97.0</ele><time>2026-04-24T14:32:25.996Z</time></trkpt><trkpt lat="44.98422814685425" lon="9.60704218488838"><ele>97.0</ele><time>2026-04-24T14:32:26.996Z</time></trkpt><trkpt lat="44.98442029668769" lon="9.607027325448938"><ele>97.0</ele><time>2026-04-24T14:32:27.996Z</time></trkpt><trkpt lat="44.98462129600664" lon="9.607046359222569"><ele>97.0</ele><time>2026-04-24T14:32:28.996Z</time></trkpt><trkpt lat="44.9848318239792" lon="9.607011349877324"><ele>95.66666666666667</ele><time>2026-04-24T14:32:29.996Z</time></trkpt><trkpt lat="44.985044119957934" lon="9.606981376384311"><ele>94.33333333333334</ele><time>2026-04-24T14:32:30.996Z</time></trkpt><trkpt lat="44.98523959055239" lon="9.606958878680343"><ele>93.0</ele><time>2026-04-24T14:32:31.996Z</time></trkpt><trkpt lat="44.98543816590234" lon="9.607004609409454"><ele>93.0</ele><time>2026-04-24T14:32:32.996Z</time></trkpt><trkpt lat="44.98563864728139" lon="9.607045327711749"><ele>93.0</ele><time>2026-04-24T14:32:33.996Z</time></trkpt><trkpt lat="44.98583626487606" lon="9.607100520185654"><ele>93.0</ele><time>2026-04-24T14:32:34.996Z</time></trkpt><trkpt lat="44.98601618892992" lon="9.607160968685655"><ele>93.33333333333333</ele><time>2026-04-24T14:32:35.996Z</time></trkpt><trkpt lat="44.986190620177354" lon="9.607217917402993"><ele>93.66666666666666</ele><time>2026-04-24T14:32:36.996Z</time></trkpt><trkpt lat="44.98638130165586" lon="9.607273809278581"><ele>94.0</ele><time>2026-04-24T14:32:37.996Z</time></trkpt><trkpt lat="44.98655923638059" lon="9.607360886340615"><ele>93.66666666666666</ele><time>2026-04-24T14:32:38.996Z</time></trkpt><trkpt lat="44.986747245647464" lon="9.607442201827524"><ele>93.33333333333333</ele><time>2026-04-24T14:32:39.996Z</time></trkpt><trkpt lat="44.98695107625092" lon="9.607510802105482"><ele>93.0</ele><time>2026-04-24T14:32:40.996Z</time></trkpt><trkpt lat="44.98712303296845" lon="9.607612441995713"><ele>93.0</ele><time>2026-04-24T14:32:41.996Z</time></trkpt><trkpt lat="44.98729219845059" lon="9.607681079277826"><ele>93.0</ele><time>2026-04-24T14:32:42.996Z</time></trkpt><trkpt lat="44.98746195595433" lon="9.607810735698353"><ele>93.0</ele><time>2026-04-24T14:32:43.996Z</time></trkpt><trkpt lat="44.98764126957177" lon="9.607920504662403"><ele>93.33333333333333</ele><time>2026-04-24T14:32:44.996Z</time></trkpt><trkpt lat="44.98781043493409" lon="9.608054924961035"><ele>93.66666666666666</ele><time>2026-04-24T14:32:45.996Z</time></trkpt><trkpt lat="44.98797176973168" lon="9.60821534856804"><ele>94.0</ele><time>2026-04-24T14:32:46.996Z</time></trkpt><trkpt lat="44.988157706027884" lon="9.608367442083917"><ele>94.0</ele><time>2026-04-24T14:32:47.996Z</time></trkpt><trkpt lat="44.988324009758664" lon="9.608502658826879"><ele>94.0</ele><time>2026-04-24T14:32:48.996Z</time></trkpt><trkpt lat="44.98848431375695" lon="9.608659127042003"><ele>94.0</ele><time>2026-04-24T14:32:49.996Z</time></trkpt><trkpt lat="44.98867014940436" lon="9.608803022307807"><ele>93.0</ele><time>2026-04-24T14:32:50.996Z</time></trkpt><trkpt lat="44.98882678008595" lon="9.608971331269801"><ele>92.0</ele><time>2026-04-24T14:32:51.996Z</time></trkpt><trkpt lat="44.988991604712666" lon="9.609138820878417"><ele>91.0</ele><time>2026-04-24T14:32:52.996Z</time></trkpt><trkpt lat="44.98916433445661" lon="9.609304188679655"><ele>91.0</ele><time>2026-04-24T14:32:53.996Z</time></trkpt><trkpt lat="44.98932937003712" lon="9.609432381812914"><ele>91.0</ele><time>2026-04-24T14:32:54.996Z</time></trkpt><trkpt lat="44.989495848366026" lon="9.609579080178474"><ele>91.0</ele><time>2026-04-24T14:32:55.996Z</time></trkpt><trkpt lat="44.9896737912792" lon="9.60975661262818"><ele>91.0</ele><time>2026-04-24T14:32:56.996Z</time></trkpt><trkpt lat="44.989841107344326" lon="9.60991689210643"><ele>91.0</ele><time>2026-04-24T14:32:57.996Z</time></trkpt><trkpt lat="44.990010351305706" lon="9.610015124194305"><ele>91.0</ele><time>2026-04-24T14:32:58.996Z</time></trkpt><trkpt lat="44.99017044130629" lon="9.610184877699773"><ele>91.33333333333333</ele><time>2026-04-24T14:32:59.996Z</time></trkpt><trkpt lat="44.99033762547893" lon="9.610345869157785"><ele>91.66666666666667</ele><time>2026-04-24T14:33:00.996Z</time></trkpt><trkpt lat="44.99050160508088" lon="9.610507621299291"><ele>92.0</ele><time>2026-04-24T14:33:01.996Z</time></trkpt><trkpt lat="44.99067557721988" lon="9.610640180986774"><ele>91.66666666666667</ele><time>2026-04-24T14:33:02.996Z</time></trkpt><trkpt lat="44.990848534398516" lon="9.610790427275441"><ele>91.33333333333333</ele><time>2026-04-24T14:33:03.995Z</time></trkpt><trkpt lat="44.99102100948266" lon="9.610943077732266"><ele>91.0</ele><time>2026-04-24T14:33:04.995Z</time></trkpt><trkpt lat="44.99118470265482" lon="9.611086620829722"><ele>91.66666666666666</ele><time>2026-04-24T14:33:05.995Z</time></trkpt><trkpt lat="44.99134246702792" lon="9.611208977457638"><ele>92.33333333333333</ele><time>2026-04-24T14:33:06.995Z</time></trkpt><trkpt lat="44.99149958174437" lon="9.61137281471414"><ele>93.0</ele><time>2026-04-24T14:33:07.995Z</time></trkpt><trkpt lat="44.99166209239952" lon="9.61149036023822"><ele>92.0</ele><time>2026-04-24T14:33:08.995Z</time></trkpt><trkpt lat="44.99181701501623" lon="9.611648502261538"><ele>91.0</ele><time>2026-04-24T14:33:09.995Z</time></trkpt><trkpt lat="44.99197666388596" lon="9.611792777009184"><ele>90.0</ele><time>2026-04-24T14:33:10.995Z</time></trkpt><trkpt lat="44.99214309429475" lon="9.611980459845949"><ele>90.0</ele><time>2026-04-24T14:33:11.995Z</time></trkpt><trkpt lat="44.992310458232666" lon="9.612087467588331"><ele>90.0</ele><time>2026-04-24T14:33:12.995Z</time></trkpt><trkpt lat="44.99247884636656" lon="9.61222302089187"><ele>90.0</ele><time>2026-04-24T14:33:13.995Z</time></trkpt><trkpt lat="44.992634754120125" lon="9.612352905686723"><ele>90.33333333333333</ele><time>2026-04-24T14:33:14.995Z</time></trkpt><trkpt lat="44.99280226851632" lon="9.61251007804125"><ele>90.66666666666666</ele><time>2026-04-24T14:33:15.995Z</time></trkpt><trkpt lat="44.99297268449821" lon="9.612640688029744"><ele>91.0</ele><time>2026-04-24T14:33:16.995Z</time></trkpt><trkpt lat="44.99314004212839" lon="9.61280562943805"><ele>91.33333333333333</ele><time>2026-04-24T14:33:17.995Z</time></trkpt><trkpt lat="44.99331255083699" lon="9.612946534433465"><ele>91.66666666666667</ele><time>2026-04-24T14:33:18.995Z</time></trkpt><trkpt lat="44.99348984647867" lon="9.613108051471773"><ele>92.0</ele><time>2026-04-24T14:33:19.995Z</time></trkpt><trkpt lat="44.99365314780824" lon="9.613262514396572"><ele>91.33333333333334</ele><time>2026-04-24T14:33:20.995Z</time></trkpt><trkpt lat="44.99380813258875" lon="9.613409333941249"><ele>90.66666666666667</ele><time>2026-04-24T14:33:21.995Z</time></trkpt><trkpt lat="44.993963786845676" lon="9.613549513206943"><ele>90.0</ele><time>2026-04-24T14:33:22.995Z</time></trkpt><trkpt lat="44.99412260333297" lon="9.613717797723657"><ele>89.0</ele><time>2026-04-24T14:33:23.995Z</time></trkpt><trkpt lat="44.994287179357116" lon="9.613881227163862"><ele>88.0</ele><time>2026-04-24T14:33:24.995Z</time></trkpt><trkpt lat="44.99444408941847" lon="9.614051865646662"><ele>87.0</ele><time>2026-04-24T14:33:25.995Z</time></trkpt><trkpt lat="44.99460935863588" lon="9.614200322721397"><ele>87.0</ele><time>2026-04-24T14:33:26.995Z</time></trkpt><trkpt lat="44.994754681955925" lon="9.614350907186186"><ele>87.0</ele><time>2026-04-24T14:33:27.995Z</time></trkpt><trkpt lat="44.99490639580871" lon="9.614513236241534"><ele>87.0</ele><time>2026-04-24T14:33:28.995Z</time></trkpt><trkpt lat="44.99504920161747" lon="9.614657304762105"><ele>87.33333333333333</ele><time>2026-04-24T14:33:29.995Z</time></trkpt><trkpt lat="44.995203831162506" lon="9.61482808403019"><ele>87.66666666666666</ele><time>2026-04-24T14:33:30.995Z</time></trkpt><trkpt lat="44.99534479488181" lon="9.614975011865717"><ele>88.0</ele><time>2026-04-24T14:33:31.995Z</time></trkpt><trkpt lat="44.99548746452474" lon="9.615135354678772"><ele>88.0</ele><time>2026-04-24T14:33:32.995Z</time></trkpt><trkpt lat="44.995635825950046" lon="9.61531696279523"><ele>88.0</ele><time>2026-04-24T14:33:33.995Z</time></trkpt><trkpt lat="44.99578092254652" lon="9.61544198117162"><ele>88.0</ele><time>2026-04-24T14:33:34.995Z</time></trkpt><trkpt lat="44.99594395794458" lon="9.615621472264863"><ele>88.33333333333333</ele><time>2026-04-24T14:33:35.995Z</time></trkpt><trkpt lat="44.99610411525268" lon="9.615768449985561"><ele>88.66666666666667</ele><time>2026-04-24T14:33:36.995Z</time></trkpt><trkpt lat="44.996263540768865" lon="9.61593714625944"><ele>89.0</ele><time>2026-04-24T14:33:37.995Z</time></trkpt><trkpt lat="44.9964296327488" lon="9.61610358913654"><ele>89.0</ele><time>2026-04-24T14:33:38.995Z</time></trkpt><trkpt lat="44.996600055344516" lon="9.6162881270011"><ele>89.0</ele><time>2026-04-24T14:33:39.995Z</time></trkpt><trkpt lat="44.99677014830541" lon="9.61646142556495"><ele>89.0</ele><time>2026-04-24T14:33:40.995Z</time></trkpt><trkpt lat="44.996950420037436" lon="9.616640611123913"><ele>88.66666666666667</ele><time>2026-04-24T14:33:41.995Z</time></trkpt><trkpt lat="44.997124987850995" lon="9.616834124320347"><ele>88.33333333333333</ele><time>2026-04-24T14:33:42.995Z</time></trkpt><trkpt lat="44.997299951933954" lon="9.617036676548208"><ele>88.0</ele><time>2026-04-24T14:33:43.995Z</time></trkpt><trkpt lat="44.997471984146024" lon="9.617212893265066"><ele>87.0</ele><time>2026-04-24T14:33:44.995Z</time></trkpt><trkpt lat="44.99764647726864" lon="9.61734378901444"><ele>86.0</ele><time>2026-04-24T14:33:45.995Z</time></trkpt><trkpt lat="44.997803854685436" lon="9.617512025658268"><ele>85.0</ele><time>2026-04-24T14:33:46.995Z</time></trkpt><trkpt lat="44.99796729527701" lon="9.617701074299516"><ele>85.0</ele><time>2026-04-24T14:33:47.995Z</time></trkpt><trkpt lat="44.998150940691374" lon="9.617869094554793"><ele>85.0</ele><time>2026-04-24T14:33:48.995Z</time></trkpt><trkpt lat="44.99831722188455" lon="9.618055233915086"><ele>85.0</ele><time>2026-04-24T14:33:49.995Z</time></trkpt><trkpt lat="44.99849315116263" lon="9.618269962942305"><ele>85.33333333333333</ele><time>2026-04-24T14:33:50.995Z</time></trkpt><trkpt lat="44.99867307506641" lon="9.618450290186034"><ele>85.66666666666667</ele><time>2026-04-24T14:33:51.995Z</time></trkpt><trkpt lat="44.99884195267724" lon="9.618624549636213"><ele>86.0</ele><time>2026-04-24T14:33:52.995Z</time></trkpt><trkpt lat="44.999013773532795" lon="9.618781897403936"><ele>86.33333333333334</ele><time>2026-04-24T14:33:53.995Z</time></trkpt><trkpt lat="44.999181126764086" lon="9.618969218050653"><ele>86.66666666666667</ele><time>2026-04-24T14:33:54.994Z</time></trkpt><trkpt lat="44.999350200579066" lon="9.619195316699072"><ele>87.0</ele><time>2026-04-24T14:33:55.994Z</time></trkpt><trkpt lat="44.99949918997814" lon="9.619388889304792"><ele>86.66666666666667</ele><time>2026-04-24T14:33:56.994Z</time></trkpt><trkpt lat="44.99964832185285" lon="9.619592746189262"><ele>86.33333333333334</ele><time>2026-04-24T14:33:57.994Z</time></trkpt><trkpt lat="44.99979847836942" lon="9.619819405091446"><ele>86.0</ele><time>2026-04-24T14:33:58.994Z</time></trkpt><trkpt lat="44.99993613826807" lon="9.620020287842022"><ele>86.0</ele><time>2026-04-24T14:33:59.994Z</time></trkpt><trkpt lat="45.000046078445855" lon="9.62027410363797"><ele>86.0</ele><time>2026-04-24T14:34:00.994Z</time></trkpt><trkpt lat="45.000169069241466" lon="9.620519394615437"><ele>86.0</ele><time>2026-04-24T14:34:01.994Z</time></trkpt><trkpt lat="45.00029213674552" lon="9.620787250148846"><ele>86.0</ele><time>2026-04-24T14:34:02.994Z</time></trkpt><trkpt lat="45.00042957682899" lon="9.620952898483887"><ele>86.0</ele><time>2026-04-24T14:34:03.994Z</time></trkpt><trkpt lat="45.00056588824719" lon="9.621154214843232"><ele>86.0</ele><time>2026-04-24T14:34:04.994Z</time></trkpt><trkpt lat="45.00069154509332" lon="9.62133186907573"><ele>86.0</ele><time>2026-04-24T14:34:05.994Z</time></trkpt><trkpt lat="45.000816491704484" lon="9.621568157382608"><ele>86.0</ele><time>2026-04-24T14:34:06.994Z</time></trkpt><trkpt lat="45.00095835042752" lon="9.621820606890184"><ele>86.0</ele><time>2026-04-24T14:34:07.994Z</time></trkpt><trkpt lat="45.00109723309964" lon="9.622005867536888"><ele>86.0</ele><time>2026-04-24T14:34:08.994Z</time></trkpt><trkpt lat="45.001227623660284" lon="9.622230643477062"><ele>86.0</ele><time>2026-04-24T14:34:09.994Z</time></trkpt><trkpt lat="45.00135752807896" lon="9.622466516397907"><ele>86.0</ele><time>2026-04-24T14:34:10.994Z</time></trkpt><trkpt lat="45.00148756803443" lon="9.6226949456735"><ele>86.0</ele><time>2026-04-24T14:34:11.994Z</time></trkpt><trkpt lat="45.00161680312926" lon="9.622918451024644"><ele>86.0</ele><time>2026-04-24T14:34:12.994Z</time></trkpt><trkpt lat="45.00174930089538" lon="9.623122444694216"><ele>86.0</ele><time>2026-04-24T14:34:13.994Z</time></trkpt><trkpt lat="45.00188767476584" lon="9.623315323110653"><ele>86.0</ele><time>2026-04-24T14:34:14.994Z</time></trkpt><trkpt lat="45.002015799318116" lon="9.62348302045213"><ele>86.0</ele><time>2026-04-24T14:34:15.994Z</time></trkpt><trkpt lat="45.00212038836537" lon="9.623654312976077"><ele>86.0</ele><time>2026-04-24T14:34:16.994Z</time></trkpt><trkpt lat="45.002227604028285" lon="9.623788646055418"><ele>85.75</ele><time>2026-04-24T14:34:17.994Z</time></trkpt><trkpt lat="45.002315037867724" lon="9.62396574551454"><ele>85.5</ele><time>2026-04-24T14:34:18.994Z</time></trkpt><trkpt lat="45.002408507841515" lon="9.62410581153829"><ele>85.25</ele><time>2026-04-24T14:34:19.994Z</time></trkpt><trkpt lat="45.00249452992693" lon="9.624236890993334"><ele>85.0</ele><time>2026-04-24T14:34:20.994Z</time></trkpt><trkpt lat="45.002562606533324" lon="9.624311545082278"><ele>85.0</ele><time>2026-04-24T14:34:21.994Z</time></trkpt><trkpt lat="45.002614792854615" lon="9.624391095699925"><ele>85.0</ele><time>2026-04-24T14:34:22.994Z</time></trkpt><trkpt lat="45.00262907526885" lon="9.624494691567909"><ele>85.0</ele><time>2026-04-24T14:34:23.994Z</time></trkpt><trkpt lat="45.00267174580207" lon="9.62458513074517"><ele>85.0</ele><time>2026-04-24T14:34:24.994Z</time></trkpt><trkpt lat="45.00269221598504" lon="9.624689580312138"><ele>85.0</ele><time>2026-04-24T14:34:25.994Z</time></trkpt><trkpt lat="45.00267281445547" lon="9.624830451992157"><ele>85.0</ele><time>2026-04-24T14:34:27.994Z</time></trkpt><trkpt lat="45.002688100267136" lon="9.624938425485993"><ele>85.25</ele><time>2026-04-24T14:34:28.994Z</time></trkpt><trkpt lat="45.002787470625236" lon="9.625066456489341"><ele>85.5</ele><time>2026-04-24T14:34:30.994Z</time></trkpt><trkpt lat="45.00289020309358" lon="9.625119246030119"><ele>85.75</ele><time>2026-04-24T14:34:31.994Z</time></trkpt><trkpt lat="45.002991002170646" lon="9.625218690649207"><ele>86.0</ele><time>2026-04-24T14:34:32.994Z</time></trkpt><trkpt lat="45.003081046814835" lon="9.625356829610544"><ele>86.25</ele><time>2026-04-24T14:34:33.994Z</time></trkpt><trkpt lat="45.00317334430035" lon="9.625504169128163"><ele>86.5</ele><time>2026-04-24T14:34:34.994Z</time></trkpt><trkpt lat="45.003250397050735" lon="9.62567458087833"><ele>86.75</ele><time>2026-04-24T14:34:35.994Z</time></trkpt><trkpt lat="45.003345450310526" lon="9.625858607557724"><ele>87.0</ele><time>2026-04-24T14:34:36.994Z</time></trkpt><trkpt lat="45.0034463601663" lon="9.626055595756942"><ele>87.0</ele><time>2026-04-24T14:34:37.994Z</time></trkpt><trkpt lat="45.00354055631343" lon="9.626223320255866"><ele>87.0</ele><time>2026-04-24T14:34:38.994Z</time></trkpt><trkpt lat="45.00364756858905" lon="9.626390435235331"><ele>87.0</ele><time>2026-04-24T14:34:39.994Z</time></trkpt><trkpt lat="45.003759663716515" lon="9.626563607862504"><ele>87.0</ele><time>2026-04-24T14:34:40.994Z</time></trkpt><trkpt lat="45.00388027494705" lon="9.626745852960381"><ele>87.0</ele><time>2026-04-24T14:34:41.994Z</time></trkpt><trkpt lat="45.00400076370638" lon="9.626938079892632"><ele>87.0</ele><time>2026-04-24T14:34:42.994Z</time></trkpt><trkpt lat="45.00413286227695" lon="9.62714055043708"><ele>86.0</ele><time>2026-04-24T14:34:43.994Z</time></trkpt><trkpt lat="45.00426133518215" lon="9.627302181974713"><ele>85.0</ele><time>2026-04-24T14:34:44.994Z</time></trkpt><trkpt lat="45.00440581024554" lon="9.627469329035955"><ele>84.0</ele><time>2026-04-24T14:34:45.993Z</time></trkpt><trkpt lat="45.00455980768449" lon="9.627615731572481"><ele>84.0</ele><time>2026-04-24T14:34:46.993Z</time></trkpt><trkpt lat="45.00470065759129" lon="9.62776786698743"><ele>84.0</ele><time>2026-04-24T14:34:47.993Z</time></trkpt><trkpt lat="45.004844360738154" lon="9.627867775091794"><ele>84.0</ele><time>2026-04-24T14:34:48.993Z</time></trkpt><trkpt lat="45.00497524899699" lon="9.627990062218668"><ele>82.66666666666667</ele><time>2026-04-24T14:34:49.993Z</time></trkpt><trkpt lat="45.005130101770376" lon="9.628099008483904"><ele>81.33333333333334</ele><time>2026-04-24T14:34:50.993Z</time></trkpt><trkpt lat="45.00525040151728" lon="9.628227429328945"><ele>80.0</ele><time>2026-04-24T14:34:51.993Z</time></trkpt><trkpt lat="45.005376232501355" lon="9.628296980760286"><ele>80.0</ele><time>2026-04-24T14:34:52.993Z</time></trkpt><trkpt lat="45.005491344564994" lon="9.628371850845957"><ele>80.0</ele><time>2026-04-24T14:34:53.993Z</time></trkpt><trkpt lat="45.005609519784784" lon="9.628445754817573"><ele>80.0</ele><time>2026-04-24T14:34:54.993Z</time></trkpt><trkpt lat="45.00570542545315" lon="9.6284948652968"><ele>80.0</ele><time>2026-04-24T14:34:55.993Z</time></trkpt><trkpt lat="45.00580310948966" lon="9.62853347338188"><ele>80.4</ele><time>2026-04-24T14:34:56.993Z</time></trkpt><trkpt lat="45.005898366315925" lon="9.628597414326206"><ele>80.8</ele><time>2026-04-24T14:34:57.993Z</time></trkpt><trkpt lat="45.0059918373285" lon="9.628645645626301"><ele>81.19999999999999</ele><time>2026-04-24T14:34:58.993Z</time></trkpt><trkpt lat="45.006083172732325" lon="9.628695892154152"><ele>81.6</ele><time>2026-04-24T14:34:59.993Z</time></trkpt><trkpt lat="45.006165215736544" lon="9.628739708666288"><ele>82.0</ele><time>2026-04-24T14:35:00.993Z</time></trkpt><trkpt lat="45.00624494005278" lon="9.62878733668701"><ele>82.0</ele><time>2026-04-24T14:35:01.993Z</time></trkpt><trkpt lat="45.00633196942416" lon="9.62886164568977"><ele>82.0</ele><time>2026-04-24T14:35:02.993Z</time></trkpt><trkpt lat="45.00643553559174" lon="9.62886721233497"><ele>82.0</ele><time>2026-04-24T14:35:03.993Z</time></trkpt><trkpt lat="45.006527700436294" lon="9.628930217824808"><ele>82.0</ele><time>2026-04-24T14:35:04.993Z</time></trkpt><trkpt lat="45.00664167758056" lon="9.628965131038191"><ele>82.0</ele><time>2026-04-24T14:35:05.993Z</time></trkpt><trkpt lat="45.006754566302845" lon="9.629058569367603"><ele>82.25</ele><time>2026-04-24T14:35:06.993Z</time></trkpt><trkpt lat="45.006853751848794" lon="9.629156308119073"><ele>82.5</ele><time>2026-04-24T14:35:07.993Z</time></trkpt><trkpt lat="45.00694770114017" lon="9.62927781421762"><ele>82.75</ele><time>2026-04-24T14:35:08.993Z</time></trkpt><trkpt lat="45.00703123531052" lon="9.629412096486535"><ele>83.0</ele><time>2026-04-24T14:35:09.993Z</time></trkpt><trkpt lat="45.0071174794196" lon="9.629520639161354"><ele>83.0</ele><time>2026-04-24T14:35:10.993Z</time></trkpt><trkpt lat="45.00720363947599" lon="9.62964326295709"><ele>83.0</ele><time>2026-04-24T14:35:11.993Z</time></trkpt><trkpt lat="45.0072938518927" lon="9.629799895294815"><ele>83.0</ele><time>2026-04-24T14:35:12.993Z</time></trkpt><trkpt lat="45.007389908472355" lon="9.629906748554289"><ele>83.0</ele><time>2026-04-24T14:35:13.993Z</time></trkpt><trkpt lat="45.00749365832354" lon="9.630043756459056"><ele>82.5</ele><time>2026-04-24T14:35:14.993Z</time></trkpt><trkpt lat="45.00762128584956" lon="9.630161802829019"><ele>82.0</ele><time>2026-04-24T14:35:15.993Z</time></trkpt><trkpt lat="45.00771951329196" lon="9.63028689005582"><ele>81.5</ele><time>2026-04-24T14:35:16.993Z</time></trkpt><trkpt lat="45.00782622111848" lon="9.630431057317262"><ele>81.0</ele><time>2026-04-24T14:35:17.993Z</time></trkpt><trkpt lat="45.00791180243283" lon="9.630571776131942"><ele>81.0</ele><time>2026-04-24T14:35:18.993Z</time></trkpt><trkpt lat="45.008020885914625" lon="9.630714217666172"><ele>81.0</ele><time>2026-04-24T14:35:19.993Z</time></trkpt><trkpt lat="45.0081256503922" lon="9.630887055498084"><ele>81.0</ele><time>2026-04-24T14:35:20.993Z</time></trkpt><trkpt lat="45.00823366265869" lon="9.63100088749716"><ele>81.0</ele><time>2026-04-24T14:35:21.993Z</time></trkpt><trkpt lat="45.008334513187414" lon="9.631168458659603"><ele>80.66666666666667</ele><time>2026-04-24T14:35:22.993Z</time></trkpt><trkpt lat="45.008447030830645" lon="9.631323708371722"><ele>80.33333333333334</ele><time>2026-04-24T14:35:23.993Z</time></trkpt><trkpt lat="45.00855780884247" lon="9.631500846201824"><ele>80.0</ele><time>2026-04-24T14:35:24.993Z</time></trkpt><trkpt lat="45.00866968746468" lon="9.631605991065111"><ele>80.0</ele><time>2026-04-24T14:35:25.993Z</time></trkpt><trkpt lat="45.00878465186843" lon="9.631796395960231"><ele>80.0</ele><time>2026-04-24T14:35:26.993Z</time></trkpt><trkpt lat="45.0089088124356" lon="9.63196073986611"><ele>80.0</ele><time>2026-04-24T14:35:27.993Z</time></trkpt><trkpt lat="45.00903182863183" lon="9.632126851787948"><ele>80.33333333333334</ele><time>2026-04-24T14:35:28.993Z</time></trkpt><trkpt lat="45.009153553348604" lon="9.632292420985058"><ele>80.66666666666667</ele><time>2026-04-24T14:35:29.993Z</time></trkpt><trkpt lat="45.00927938160183" lon="9.632450628905973"><ele>81.0</ele><time>2026-04-24T14:35:30.993Z</time></trkpt><trkpt lat="45.00939331022654" lon="9.63262563544684"><ele>81.0</ele><time>2026-04-24T14:35:31.993Z</time></trkpt><trkpt lat="45.00950336099743" lon="9.632779965715796"><ele>81.0</ele><time>2026-04-24T14:35:32.993Z</time></trkpt><trkpt lat="45.009601993871954" lon="9.632917375142727"><ele>81.0</ele><time>2026-04-24T14:35:33.993Z</time></trkpt><trkpt lat="45.009719998681796" lon="9.63308601986304"><ele>80.66666666666667</ele><time>2026-04-24T14:35:34.993Z</time></trkpt><trkpt lat="45.009840418482646" lon="9.633253761194885"><ele>80.33333333333334</ele><time>2026-04-24T14:35:35.993Z</time></trkpt><trkpt lat="45.00995862075844" lon="9.63342773652707"><ele>80.0</ele><time>2026-04-24T14:35:36.992Z</time></trkpt><trkpt lat="45.010073515088585" lon="9.633568038127866"><ele>80.33333333333334</ele><time>2026-04-24T14:35:37.992Z</time></trkpt><trkpt lat="45.01019224411093" lon="9.633744919167743"><ele>80.66666666666667</ele><time>2026-04-24T14:35:38.992Z</time></trkpt><trkpt lat="45.010313296944936" lon="9.63392153972117"><ele>81.0</ele><time>2026-04-24T14:35:39.992Z</time></trkpt><trkpt lat="45.010441097475" lon="9.634097166168006"><ele>81.0</ele><time>2026-04-24T14:35:40.992Z</time></trkpt><trkpt lat="45.010575973880265" lon="9.634277082490843"><ele>81.0</ele><time>2026-04-24T14:35:41.992Z</time></trkpt><trkpt lat="45.010694718719684" lon="9.634419347977172"><ele>81.0</ele><time>2026-04-24T14:35:42.992Z</time></trkpt><trkpt lat="45.010821968415286" lon="9.634597351951019"><ele>81.33333333333333</ele><time>2026-04-24T14:35:43.992Z</time></trkpt><trkpt lat="45.01093620354427" lon="9.63476140272359"><ele>81.66666666666666</ele><time>2026-04-24T14:35:44.992Z</time></trkpt><trkpt lat="45.011044049014316" lon="9.634946652722768"><ele>82.0</ele><time>2026-04-24T14:35:45.992Z</time></trkpt><trkpt lat="45.011180214370604" lon="9.635138002930573"><ele>82.0</ele><time>2026-04-24T14:35:46.992Z</time></trkpt><trkpt lat="45.01129237409991" lon="9.635310882143703"><ele>82.0</ele><time>2026-04-24T14:35:47.992Z</time></trkpt><trkpt lat="45.011378710394176" lon="9.635499203575272"><ele>82.0</ele><time>2026-04-24T14:35:48.992Z</time></trkpt><trkpt lat="45.01148881966513" lon="9.635675028627992"><ele>82.0</ele><time>2026-04-24T14:35:49.992Z</time></trkpt><trkpt lat="45.011627300698024" lon="9.6358199216567"><ele>82.0</ele><time>2026-04-24T14:35:50.992Z</time></trkpt><trkpt lat="45.01175404943738" lon="9.635969365838404"><ele>82.0</ele><time>2026-04-24T14:35:51.992Z</time></trkpt><trkpt lat="45.011886834334376" lon="9.636147596300821"><ele>81.66666666666666</ele><time>2026-04-24T14:35:52.992Z</time></trkpt><trkpt lat="45.01199661328092" lon="9.636271540822932"><ele>81.33333333333333</ele><time>2026-04-24T14:35:53.992Z</time></trkpt><trkpt lat="45.012119268516166" lon="9.636445564071286"><ele>81.0</ele><time>2026-04-24T14:35:54.992Z</time></trkpt><trkpt lat="45.01222732073288" lon="9.63661006535854"><ele>81.0</ele><time>2026-04-24T14:35:55.992Z</time></trkpt><trkpt lat="45.01234548405479" lon="9.636752019179891"><ele>81.0</ele><time>2026-04-24T14:35:56.992Z</time></trkpt><trkpt lat="45.01247093201358" lon="9.63692545629261"><ele>81.0</ele><time>2026-04-24T14:35:57.992Z</time></trkpt><trkpt lat="45.012578104940715" lon="9.637037624907267"><ele>81.0</ele><time>2026-04-24T14:35:58.992Z</time></trkpt><trkpt lat="45.01268346686056" lon="9.63719908515272"><ele>81.0</ele><time>2026-04-24T14:35:59.992Z</time></trkpt><trkpt lat="45.012796617991754" lon="9.637382460301513"><ele>81.0</ele><time>2026-04-24T14:36:00.992Z</time></trkpt><trkpt lat="45.01291572180313" lon="9.637542019716912"><ele>81.0</ele><time>2026-04-24T14:36:01.992Z</time></trkpt><trkpt lat="45.01302808346449" lon="9.63772023706822"><ele>81.0</ele><time>2026-04-24T14:36:02.992Z</time></trkpt><trkpt lat="45.01313433432945" lon="9.637903532451771"><ele>81.0</ele><time>2026-04-24T14:36:04Z</time></trkpt><trkpt lat="45.013243067902195" lon="9.6380712485301"><ele>80.33333333333333</ele><time>2026-04-24T14:36:05Z</time></trkpt><trkpt lat="45.0133553399468" lon="9.638217922761836"><ele>79.66666666666666</ele><time>2026-04-24T14:36:06Z</time></trkpt><trkpt lat="45.01346292666023" lon="9.638378678800008"><ele>79.0</ele><time>2026-04-24T14:36:07Z</time></trkpt><trkpt lat="45.013591843256144" lon="9.638553061478769"><ele>79.0</ele><time>2026-04-24T14:36:08Z</time></trkpt><trkpt lat="45.01370718636053" lon="9.638719282288525"><ele>79.0</ele><time>2026-04-24T14:36:09Z</time></trkpt><trkpt lat="45.01383671546846" lon="9.638920628170773"><ele>79.0</ele><time>2026-04-24T14:36:10Z</time></trkpt><trkpt lat="45.01396941465897" lon="9.639099363414672"><ele>79.0</ele><time>2026-04-24T14:36:11Z</time></trkpt><trkpt lat="45.01411418223583" lon="9.63928713423765"><ele>79.0</ele><time>2026-04-24T14:36:12Z</time></trkpt><trkpt lat="45.01421860448117" lon="9.639424771205194"><ele>79.0</ele><time>2026-04-24T14:36:13Z</time></trkpt><trkpt lat="45.014336074811176" lon="9.639633107397827"><ele>79.33333333333333</ele><time>2026-04-24T14:36:14Z</time></trkpt><trkpt lat="45.01446346184145" lon="9.639763707120734"><ele>79.66666666666667</ele><time>2026-04-24T14:36:15Z</time></trkpt><trkpt lat="45.01459281191813" lon="9.63993897109153"><ele>80.0</ele><time>2026-04-24T14:36:16Z</time></trkpt><trkpt lat="45.01470766669326" lon="9.640085757285538"><ele>80.0</ele><time>2026-04-24T14:36:17Z</time></trkpt><trkpt lat="45.014836247343915" lon="9.640281866975295"><ele>80.0</ele><time>2026-04-24T14:36:18Z</time></trkpt><trkpt lat="45.014955977853475" lon="9.640435333600745"><ele>80.0</ele><time>2026-04-24T14:36:19Z</time></trkpt><trkpt lat="45.01507920692359" lon="9.640618253279555"><ele>78.0</ele><time>2026-04-24T14:36:20Z</time></trkpt><trkpt lat="45.0151909045459" lon="9.640779127559606"><ele>76.0</ele><time>2026-04-24T14:36:21Z</time></trkpt><trkpt lat="45.01529771661502" lon="9.640957049629668"><ele>74.0</ele><time>2026-04-24T14:36:22Z</time></trkpt><trkpt lat="45.01541940829527" lon="9.641128975243518"><ele>74.66666666666667</ele><time>2026-04-24T14:36:23Z</time></trkpt><trkpt lat="45.0155446395133" lon="9.641308833697877"><ele>75.33333333333333</ele><time>2026-04-24T14:36:24Z</time></trkpt><trkpt lat="45.01567374518482" lon="9.641498047395247"><ele>76.0</ele><time>2026-04-24T14:36:25Z</time></trkpt><trkpt lat="45.01580591684318" lon="9.64167599631713"><ele>75.66666666666666</ele><time>2026-04-24T14:36:26Z</time></trkpt><trkpt lat="45.01593716653166" lon="9.641848572705364"><ele>75.33333333333333</ele><time>2026-04-24T14:36:27Z</time></trkpt><trkpt lat="45.01606053419783" lon="9.64201094749778"><ele>75.0</ele><time>2026-04-24T14:36:28Z</time></trkpt><trkpt lat="45.016184997957936" lon="9.642183490909057"><ele>75.66666666666667</ele><time>2026-04-24T14:36:29Z</time></trkpt><trkpt lat="45.01630769908044" lon="9.642367353053086"><ele>76.33333333333334</ele><time>2026-04-24T14:36:30Z</time></trkpt><trkpt lat="45.01643177052222" lon="9.642560165339615"><ele>77.0</ele><time>2026-04-24T14:36:30.999Z</time></trkpt><trkpt lat="45.016555932802" lon="9.642738068435946"><ele>76.66666666666667</ele><time>2026-04-24T14:36:31.999Z</time></trkpt><trkpt lat="45.01668102491108" lon="9.64292178230962"><ele>76.33333333333333</ele><time>2026-04-24T14:36:32.999Z</time></trkpt><trkpt lat="45.01681984333874" lon="9.643116488455389"><ele>76.0</ele><time>2026-04-24T14:36:33.999Z</time></trkpt><trkpt lat="45.016949684742535" lon="9.643275216059987"><ele>76.0</ele><time>2026-04-24T14:36:34.999Z</time></trkpt><trkpt lat="45.017076297348964" lon="9.64347185647029"><ele>76.0</ele><time>2026-04-24T14:36:35.999Z</time></trkpt><trkpt lat="45.01720610565289" lon="9.643649181666262"><ele>76.0</ele><time>2026-04-24T14:36:36.999Z</time></trkpt><trkpt lat="45.0173137407333" lon="9.643818367209171"><ele>75.0</ele><time>2026-04-24T14:36:37.999Z</time></trkpt><trkpt lat="45.01744447874094" lon="9.643995770026448"><ele>74.0</ele><time>2026-04-24T14:36:38.999Z</time></trkpt><trkpt lat="45.01756669207591" lon="9.644185550974136"><ele>73.0</ele><time>2026-04-24T14:36:39.999Z</time></trkpt><trkpt lat="45.01769326659266" lon="9.644375202847524"><ele>72.66666666666666</ele><time>2026-04-24T14:36:40.999Z</time></trkpt><trkpt lat="45.017822994588045" lon="9.644560984825617"><ele>72.33333333333333</ele><time>2026-04-24T14:36:41.999Z</time></trkpt><trkpt lat="45.017952309653076" lon="9.644731848441825"><ele>72.0</ele><time>2026-04-24T14:36:42.999Z</time></trkpt><trkpt lat="45.01808219243109" lon="9.644903160578714"><ele>72.0</ele><time>2026-04-24T14:36:43.999Z</time></trkpt><trkpt lat="45.01820160508241" lon="9.645105644201273"><ele>72.0</ele><time>2026-04-24T14:36:44.999Z</time></trkpt><trkpt lat="45.01833682414521" lon="9.645276287728423"><ele>72.0</ele><time>2026-04-24T14:36:45.999Z</time></trkpt><trkpt lat="45.01846763894259" lon="9.645447143985322"><ele>72.66666666666667</ele><time>2026-04-24T14:36:46.999Z</time></trkpt><trkpt lat="45.01860045006146" lon="9.64562554861861"><ele>73.33333333333334</ele><time>2026-04-24T14:36:47.999Z</time></trkpt><trkpt lat="45.01872454718654" lon="9.64582903249418"><ele>74.0</ele><time>2026-04-24T14:36:48.999Z</time></trkpt><trkpt lat="45.01888302742934" lon="9.646028974033744"><ele>74.0</ele><time>2026-04-24T14:36:49.999Z</time></trkpt><trkpt lat="45.01901986700653" lon="9.646203202710197"><ele>74.0</ele><time>2026-04-24T14:36:50.999Z</time></trkpt><trkpt lat="45.01916085726024" lon="9.646410286531436"><ele>74.0</ele><time>2026-04-24T14:36:51.999Z</time></trkpt><trkpt lat="45.019289102779084" lon="9.646562740442313"><ele>74.0</ele><time>2026-04-24T14:36:52.999Z</time></trkpt><trkpt lat="45.01942816937283" lon="9.646729006269545"><ele>74.0</ele><time>2026-04-24T14:36:53.999Z</time></trkpt><trkpt lat="45.0195625098407" lon="9.646845076065828"><ele>74.0</ele><time>2026-04-24T14:36:54.999Z</time></trkpt><trkpt lat="45.019699721596346" lon="9.647002881652568"><ele>74.33333333333334</ele><time>2026-04-24T14:36:55.999Z</time></trkpt><trkpt lat="45.01983560681877" lon="9.647193057558518"><ele>74.66666666666667</ele><time>2026-04-24T14:36:56.999Z</time></trkpt><trkpt lat="45.01996695679831" lon="9.647403948601243"><ele>75.0</ele><time>2026-04-24T14:36:57.999Z</time></trkpt><trkpt lat="45.02010420709068" lon="9.647605350827064"><ele>75.33333333333333</ele><time>2026-04-24T14:36:58.999Z</time></trkpt><trkpt lat="45.02022528771532" lon="9.647785777927686"><ele>75.66666666666666</ele><time>2026-04-24T14:36:59.999Z</time></trkpt><trkpt lat="45.02035219086178" lon="9.647994510877556"><ele>76.0</ele><time>2026-04-24T14:37:00.999Z</time></trkpt><trkpt lat="45.020454482885356" lon="9.6481887744916"><ele>76.0</ele><time>2026-04-24T14:37:01.999Z</time></trkpt><trkpt lat="45.020596908963206" lon="9.64835464581917"><ele>76.0</ele><time>2026-04-24T14:37:02.999Z</time></trkpt><trkpt lat="45.02070946546701" lon="9.6485445446175"><ele>76.0</ele><time>2026-04-24T14:37:03.999Z</time></trkpt><trkpt lat="45.02082521242688" lon="9.648759833678584"><ele>75.33333333333333</ele><time>2026-04-24T14:37:04.999Z</time></trkpt><trkpt lat="45.02093113767926" lon="9.648947597592624"><ele>74.66666666666667</ele><time>2026-04-24T14:37:05.999Z</time></trkpt><trkpt lat="45.02107102354199" lon="9.649114037120217"><ele>74.0</ele><time>2026-04-24T14:37:06.999Z</time></trkpt><trkpt lat="45.02119648326343" lon="9.649290943598173"><ele>74.0</ele><time>2026-04-24T14:37:07.999Z</time></trkpt><trkpt lat="45.02132393161585" lon="9.649464484787773"><ele>74.0</ele><time>2026-04-24T14:37:08.999Z</time></trkpt><trkpt lat="45.021450228655596" lon="9.649638303351916"><ele>74.0</ele><time>2026-04-24T14:37:09.999Z</time></trkpt><trkpt lat="45.02156749846998" lon="9.649837727129041"><ele>73.33333333333334</ele><time>2026-04-24T14:37:10.999Z</time></trkpt><trkpt lat="45.021706787968796" lon="9.650006115306612"><ele>72.66666666666667</ele><time>2026-04-24T14:37:11.999Z</time></trkpt><trkpt lat="45.02183717579752" lon="9.650189957680393"><ele>72.0</ele><time>2026-04-24T14:37:12.999Z</time></trkpt><trkpt lat="45.02197314871984" lon="9.650360234285257"><ele>72.0</ele><time>2026-04-24T14:37:13.999Z</time></trkpt><trkpt lat="45.02210621607867" lon="9.650531534301065"><ele>72.0</ele><time>2026-04-24T14:37:14.999Z</time></trkpt><trkpt lat="45.02223549878527" lon="9.650690523088766"><ele>72.0</ele><time>2026-04-24T14:37:15.999Z</time></trkpt><trkpt lat="45.0223689939306" lon="9.650891872257873"><ele>72.66666666666667</ele><time>2026-04-24T14:37:16.999Z</time></trkpt><trkpt lat="45.02243768081724" lon="9.651153491224612"><ele>73.33333333333334</ele><time>2026-04-24T14:37:17.999Z</time></trkpt><trkpt lat="45.022571004429025" lon="9.651336383422914"><ele>74.0</ele><time>2026-04-24T14:37:18.999Z</time></trkpt><trkpt lat="45.02269887593412" lon="9.65151179641206"><ele>74.0</ele><time>2026-04-24T14:37:19.998Z</time></trkpt><trkpt lat="45.02282632338461" lon="9.65168775525509"><ele>74.0</ele><time>2026-04-24T14:37:20.998Z</time></trkpt><trkpt lat="45.02295179351333" lon="9.651861479353208"><ele>74.0</ele><time>2026-04-24T14:37:21.998Z</time></trkpt><trkpt lat="45.023080987257" lon="9.652040590589294"><ele>73.66666666666667</ele><time>2026-04-24T14:37:22.998Z</time></trkpt><trkpt lat="45.02320830462608" lon="9.652217796709456"><ele>73.33333333333333</ele><time>2026-04-24T14:37:23.998Z</time></trkpt><trkpt lat="45.023333310501705" lon="9.652394283692487"><ele>73.0</ele><time>2026-04-24T14:37:24.998Z</time></trkpt><trkpt lat="45.02346966968375" lon="9.652587203586798"><ele>72.33333333333333</ele><time>2026-04-24T14:37:25.998Z</time></trkpt><trkpt lat="45.0236006229771" lon="9.652772963804509"><ele>71.66666666666667</ele><time>2026-04-24T14:37:26.998Z</time></trkpt><trkpt lat="45.023733365259915" lon="9.652961692338254"><ele>71.0</ele><time>2026-04-24T14:37:27.998Z</time></trkpt><trkpt lat="45.023870892844705" lon="9.653160244140789"><ele>71.0</ele><time>2026-04-24T14:37:28.998Z</time></trkpt><trkpt lat="45.023991592759366" lon="9.653339577088481"><ele>71.0</ele><time>2026-04-24T14:37:29.998Z</time></trkpt><trkpt lat="45.02410248637739" lon="9.653509823401054"><ele>71.0</ele><time>2026-04-24T14:37:30.998Z</time></trkpt><trkpt lat="45.024215768984384" lon="9.653679641520078"><ele>72.0</ele><time>2026-04-24T14:37:31.998Z</time></trkpt><trkpt lat="45.02432664535408" lon="9.653841919962131"><ele>73.0</ele><time>2026-04-24T14:37:32.998Z</time></trkpt><trkpt lat="45.024436142612664" lon="9.654002180237184"><ele>74.0</ele><time>2026-04-24T14:37:33.998Z</time></trkpt><trkpt lat="45.02453276417568" lon="9.654142013793862"><ele>74.0</ele><time>2026-04-24T14:37:34.998Z</time></trkpt><trkpt lat="45.02462599197532" lon="9.654277349543875"><ele>74.0</ele><time>2026-04-24T14:37:35.998Z</time></trkpt><trkpt lat="45.02471808522953" lon="9.654409654638364"><ele>74.0</ele><time>2026-04-24T14:37:36.998Z</time></trkpt><trkpt lat="45.024802441890834" lon="9.654529495131783"><ele>74.0</ele><time>2026-04-24T14:37:37.998Z</time></trkpt><trkpt lat="45.02485346419222" lon="9.654601912146585"><ele>74.0</ele><time>2026-04-24T14:37:38.998Z</time></trkpt><trkpt lat="45.0246781677868" lon="9.654464218759694"><ele>74.0</ele><time>2026-04-24T14:37:40.998Z</time></trkpt><trkpt lat="45.02465370180299" lon="9.654553746735798"><ele>74.0</ele><time>2026-04-24T14:37:42.998Z</time></trkpt><trkpt lat="45.02469177895033" lon="9.654454046115262"><ele>74.0</ele><time>2026-04-24T14:38:18.997Z</time></trkpt><trkpt lat="45.024658579385715" lon="9.654547989481578"><ele>74.0</ele><time>2026-04-24T14:38:44.997Z</time></trkpt><trkpt lat="45.02459268047959" lon="9.65476574045695"><ele>73.33333333333334</ele><time>2026-04-24T14:38:49.997Z</time></trkpt><trkpt lat="45.02456745350465" lon="9.65485471800724"><ele>72.66666666666667</ele><time>2026-04-24T14:39:55.995Z</time></trkpt><trkpt lat="45.02466632736263" lon="9.655065871817964"><ele>72.0</ele><time>2026-04-24T14:40:02.995Z</time></trkpt><trkpt lat="45.025088135554356" lon="9.655023832628292"><ele>72.0</ele><time>2026-04-24T14:42:49.993Z</time></trkpt><trkpt lat="45.025135197918445" lon="9.655094742738532"><ele>72.0</ele><time>2026-04-24T14:42:50.993Z</time></trkpt><trkpt lat="45.025184386957" lon="9.655181566034267"><ele>72.0</ele><time>2026-04-24T14:42:51.993Z</time></trkpt><trkpt lat="45.02524759166503" lon="9.655274960316609"><ele>72.0</ele><time>2026-04-24T14:42:52.993Z</time></trkpt><trkpt lat="45.025332028168926" lon="9.655363456634845"><ele>72.0</ele><time>2026-04-24T14:42:53.993Z</time></trkpt><trkpt lat="45.02540319549617" lon="9.655490795120363"><ele>71.33333333333333</ele><time>2026-04-24T14:42:54.993Z</time></trkpt><trkpt lat="45.02549764720086" lon="9.655624511802252"><ele>70.66666666666666</ele><time>2026-04-24T14:42:55.993Z</time></trkpt><trkpt lat="45.025606270044" lon="9.655779985003106"><ele>70.0</ele><time>2026-04-24T14:42:56.993Z</time></trkpt><trkpt lat="45.02572907242295" lon="9.655947621035208"><ele>70.33333333333333</ele><time>2026-04-24T14:42:57.993Z</time></trkpt><trkpt lat="45.02586113679674" lon="9.656130441749596"><ele>70.66666666666667</ele><time>2026-04-24T14:42:58.993Z</time></trkpt><trkpt lat="45.02600646660017" lon="9.656326142614116"><ele>71.0</ele><time>2026-04-24T14:42:59.993Z</time></trkpt><trkpt lat="45.02616077148884" lon="9.656526645258104"><ele>71.0</ele><time>2026-04-24T14:43:00.993Z</time></trkpt><trkpt lat="45.026287448862085" lon="9.6567250821414"><ele>71.0</ele><time>2026-04-24T14:43:01.993Z</time></trkpt><trkpt lat="45.026439878727324" lon="9.656952450019567"><ele>71.0</ele><time>2026-04-24T14:43:02.993Z</time></trkpt><trkpt lat="45.02660548277816" lon="9.65716779155761"><ele>69.66666666666667</ele><time>2026-04-24T14:43:03.993Z</time></trkpt><trkpt lat="45.02676070933331" lon="9.657379119621723"><ele>68.33333333333333</ele><time>2026-04-24T14:43:04.993Z</time></trkpt><trkpt lat="45.026919375739816" lon="9.657592974399225"><ele>67.0</ele><time>2026-04-24T14:43:05.993Z</time></trkpt><trkpt lat="45.02707077096904" lon="9.657812189460579"><ele>67.0</ele><time>2026-04-24T14:43:06.993Z</time></trkpt><trkpt lat="45.02722582536647" lon="9.658021340778156"><ele>67.0</ele><time>2026-04-24T14:43:07.993Z</time></trkpt><trkpt lat="45.02738099764481" lon="9.658227220621464"><ele>67.0</ele><time>2026-04-24T14:43:08.999Z</time></trkpt><trkpt lat="45.027523422287665" lon="9.658432698267173"><ele>67.66666666666666</ele><time>2026-04-24T14:43:09.999Z</time></trkpt><trkpt lat="45.02765576216098" lon="9.658618332442398"><ele>68.33333333333333</ele><time>2026-04-24T14:43:10.999Z</time></trkpt><trkpt lat="45.02779461423774" lon="9.658814159960475"><ele>69.0</ele><time>2026-04-24T14:43:11.999Z</time></trkpt><trkpt lat="45.02791779382507" lon="9.658993628336622"><ele>69.0</ele><time>2026-04-24T14:43:12.999Z</time></trkpt><trkpt lat="45.028074143137744" lon="9.65918477987478"><ele>69.0</ele><time>2026-04-24T14:43:13.999Z</time></trkpt><trkpt lat="45.02822451587859" lon="9.65939902371858"><ele>69.0</ele><time>2026-04-24T14:43:14.999Z</time></trkpt><trkpt lat="45.02837314531642" lon="9.65960992557145"><ele>69.33333333333333</ele><time>2026-04-24T14:43:15.999Z</time></trkpt><trkpt lat="45.02851987077291" lon="9.659791528978403"><ele>69.66666666666666</ele><time>2026-04-24T14:43:16.999Z</time></trkpt><trkpt lat="45.028645755401875" lon="9.659996783319727"><ele>70.0</ele><time>2026-04-24T14:43:17.999Z</time></trkpt><trkpt lat="45.02878127201331" lon="9.660189136719248"><ele>69.33333333333333</ele><time>2026-04-24T14:43:18.999Z</time></trkpt><trkpt lat="45.028929169944185" lon="9.660375194533104"><ele>68.66666666666667</ele><time>2026-04-24T14:43:19.999Z</time></trkpt><trkpt lat="45.02906802404041" lon="9.660575239334152"><ele>68.0</ele><time>2026-04-24T14:43:20.999Z</time></trkpt><trkpt lat="45.02919854724075" lon="9.660781946554248"><ele>68.0</ele><time>2026-04-24T14:43:22Z</time></trkpt><trkpt lat="45.029319012248614" lon="9.66097767239038"><ele>68.0</ele><time>2026-04-24T14:43:23Z</time></trkpt><trkpt lat="45.02945453881867" lon="9.661174512074744"><ele>68.0</ele><time>2026-04-24T14:43:24Z</time></trkpt><trkpt lat="45.02958206997911" lon="9.661383089234851"><ele>68.33333333333334</ele><time>2026-04-24T14:43:25Z</time></trkpt><trkpt lat="45.02972444554874" lon="9.661560447916736"><ele>68.66666666666667</ele><time>2026-04-24T14:43:26Z</time></trkpt><trkpt lat="45.02986272209148" lon="9.6617609134399"><ele>69.0</ele><time>2026-04-24T14:43:27Z</time></trkpt><trkpt lat="45.030008787433864" lon="9.661952528553156"><ele>69.0</ele><time>2026-04-24T14:43:28Z</time></trkpt><trkpt lat="45.030162878095275" lon="9.662132625269454"><ele>69.0</ele><time>2026-04-24T14:43:29Z</time></trkpt><trkpt lat="45.03029471753313" lon="9.662336360982547"><ele>69.0</ele><time>2026-04-24T14:43:30Z</time></trkpt><trkpt lat="45.030435893171926" lon="9.662542031411114"><ele>69.0</ele><time>2026-04-24T14:43:31Z</time></trkpt><trkpt lat="45.030575637157476" lon="9.662741925278528"><ele>69.0</ele><time>2026-04-24T14:43:32Z</time></trkpt><trkpt lat="45.03070699784915" lon="9.662928136960954"><ele>69.0</ele><time>2026-04-24T14:43:33Z</time></trkpt><trkpt lat="45.03083537592546" lon="9.66311014078298"><ele>69.33333333333333</ele><time>2026-04-24T14:43:34Z</time></trkpt><trkpt lat="45.03097641797395" lon="9.663305813370249"><ele>69.66666666666666</ele><time>2026-04-24T14:43:35Z</time></trkpt><trkpt lat="45.03110966089757" lon="9.663472660216096"><ele>70.0</ele><time>2026-04-24T14:43:36Z</time></trkpt><trkpt lat="45.031236081774786" lon="9.663691525215725"><ele>70.33333333333333</ele><time>2026-04-24T14:43:37Z</time></trkpt><trkpt lat="45.031362315059106" lon="9.663894443614138"><ele>70.66666666666667</ele><time>2026-04-24T14:43:38Z</time></trkpt><trkpt lat="45.0315022053438" lon="9.664088764621708"><ele>71.0</ele><time>2026-04-24T14:43:39Z</time></trkpt><trkpt lat="45.031640404273965" lon="9.664292176080792"><ele>68.66666666666667</ele><time>2026-04-24T14:43:40Z</time></trkpt><trkpt lat="45.03177642183194" lon="9.664470470158744"><ele>66.33333333333333</ele><time>2026-04-24T14:43:41Z</time></trkpt><trkpt lat="45.031922456576574" lon="9.664648869827115"><ele>64.0</ele><time>2026-04-24T14:43:42Z</time></trkpt><trkpt lat="45.032066365022075" lon="9.66484527905034"><ele>64.0</ele><time>2026-04-24T14:43:43Z</time></trkpt><trkpt lat="45.0322025791568" lon="9.665034854366693"><ele>64.0</ele><time>2026-04-24T14:43:44Z</time></trkpt><trkpt lat="45.03234884403268" lon="9.665236130785503"><ele>64.0</ele><time>2026-04-24T14:43:45Z</time></trkpt><trkpt lat="45.03249709287441" lon="9.665440137286538"><ele>65.33333333333333</ele><time>2026-04-24T14:43:46Z</time></trkpt><trkpt lat="45.03262707934262" lon="9.665618375974601"><ele>66.66666666666667</ele><time>2026-04-24T14:43:47Z</time></trkpt><trkpt lat="45.032757083102354" lon="9.66579680746849"><ele>68.0</ele><time>2026-04-24T14:43:48Z</time></trkpt><trkpt lat="45.03294634789065" lon="9.665926657932856"><ele>68.0</ele><time>2026-04-24T14:43:49Z</time></trkpt><trkpt lat="45.03308794850879" lon="9.666079042797902"><ele>68.0</ele><time>2026-04-24T14:43:50Z</time></trkpt><trkpt lat="45.03322906064747" lon="9.666244887503828"><ele>68.0</ele><time>2026-04-24T14:43:51Z</time></trkpt><trkpt lat="45.03336657650083" lon="9.66643641305717"><ele>67.66666666666667</ele><time>2026-04-24T14:43:52Z</time></trkpt><trkpt lat="45.03343194455316" lon="9.666717248830318"><ele>67.33333333333333</ele><time>2026-04-24T14:43:53Z</time></trkpt><trkpt lat="45.033563114881886" lon="9.66689903463778"><ele>67.0</ele><time>2026-04-24T14:43:54Z</time></trkpt><trkpt lat="45.033692280145935" lon="9.667079291562226"><ele>67.66666666666666</ele><time>2026-04-24T14:43:55Z</time></trkpt><trkpt lat="45.0338274705597" lon="9.6672679353879"><ele>68.33333333333333</ele><time>2026-04-24T14:43:56Z</time></trkpt><trkpt lat="45.03395813671487" lon="9.667450022679816"><ele>69.0</ele><time>2026-04-24T14:43:57Z</time></trkpt><trkpt lat="45.03406884322341" lon="9.667604383258768"><ele>68.33333333333333</ele><time>2026-04-24T14:43:58Z</time></trkpt><trkpt lat="45.034185614418696" lon="9.667770781077621"><ele>67.66666666666666</ele><time>2026-04-24T14:43:59Z</time></trkpt><trkpt lat="45.0342952732883" lon="9.66792704390046"><ele>67.0</ele><time>2026-04-24T14:44:00Z</time></trkpt><trkpt lat="45.03440044191129" lon="9.668075140899454"><ele>67.0</ele><time>2026-04-24T14:44:01Z</time></trkpt><trkpt lat="45.03450219828588" lon="9.668216408953997"><ele>67.0</ele><time>2026-04-24T14:44:02Z</time></trkpt><trkpt lat="45.03458545384861" lon="9.66832685800363"><ele>67.0</ele><time>2026-04-24T14:44:03Z</time></trkpt><trkpt lat="45.03467406116194" lon="9.66844440683399"><ele>67.0</ele><time>2026-04-24T14:44:04Z</time></trkpt><trkpt lat="45.034787846923535" lon="9.668546630128793"><ele>67.66666666666666</ele><time>2026-04-24T14:44:06Z</time></trkpt><trkpt lat="45.03480649939994" lon="9.668673662866532"><ele>68.33333333333333</ele><time>2026-04-24T14:44:08.999Z</time></trkpt><trkpt lat="45.03476859855288" lon="9.668760528881801"><ele>69.0</ele><time>2026-04-24T14:44:09.999Z</time></trkpt><trkpt lat="45.034766474275436" lon="9.668860918111704"><ele>69.66666666666667</ele><time>2026-04-24T14:44:10.999Z</time></trkpt><trkpt lat="45.03474755716154" lon="9.669010721599603"><ele>70.33333333333334</ele><time>2026-04-24T14:44:11.999Z</time></trkpt><trkpt lat="45.03470183332654" lon="9.669136560285825"><ele>71.0</ele><time>2026-04-24T14:44:12.999Z</time></trkpt><trkpt lat="45.03462771105178" lon="9.6692574491282"><ele>71.0</ele><time>2026-04-24T14:44:13.999Z</time></trkpt><trkpt lat="45.03454500184343" lon="9.669370628977207"><ele>71.0</ele><time>2026-04-24T14:44:14.999Z</time></trkpt><trkpt lat="45.034454457357334" lon="9.669494693540269"><ele>71.0</ele><time>2026-04-24T14:44:15.999Z</time></trkpt><trkpt lat="45.03436027550207" lon="9.6696237420498"><ele>71.0</ele><time>2026-04-24T14:44:16.999Z</time></trkpt><trkpt lat="45.034258015882045" lon="9.669763858757163"><ele>71.66666666666667</ele><time>2026-04-24T14:44:17.999Z</time></trkpt><trkpt lat="45.034155820593895" lon="9.6699021251959"><ele>72.33333333333333</ele><time>2026-04-24T14:44:18.999Z</time></trkpt><trkpt lat="45.034056384543106" lon="9.670067095621615"><ele>73.0</ele><time>2026-04-24T14:44:19.999Z</time></trkpt><trkpt lat="45.03393352880198" lon="9.670206051422195"><ele>73.0</ele><time>2026-04-24T14:44:20.999Z</time></trkpt><trkpt lat="45.03381793585473" lon="9.670382641017937"><ele>73.0</ele><time>2026-04-24T14:44:21.999Z</time></trkpt><trkpt lat="45.033714839435625" lon="9.670530234133942"><ele>73.0</ele><time>2026-04-24T14:44:22.999Z</time></trkpt><trkpt lat="45.03364407854265" lon="9.67073673417549"><ele>73.0</ele><time>2026-04-24T14:44:23.999Z</time></trkpt><trkpt lat="45.03357514384388" lon="9.670925251028049"><ele>73.0</ele><time>2026-04-24T14:44:24.999Z</time></trkpt><trkpt lat="45.03350861581883" lon="9.671103185328311"><ele>73.0</ele><time>2026-04-24T14:44:25.999Z</time></trkpt><trkpt lat="45.03344468985709" lon="9.671360250033969"><ele>70.33333333333333</ele><time>2026-04-24T14:44:26.999Z</time></trkpt><trkpt lat="45.033402843914224" lon="9.671587492840228"><ele>67.66666666666667</ele><time>2026-04-24T14:44:27.999Z</time></trkpt><trkpt lat="45.033376555057785" lon="9.671787659610015"><ele>65.0</ele><time>2026-04-24T14:44:28.999Z</time></trkpt><trkpt lat="45.033357529849795" lon="9.67204667773563"><ele>64.5</ele><time>2026-04-24T14:44:29.999Z</time></trkpt><trkpt lat="45.03333946473889" lon="9.67226444088819"><ele>64.0</ele><time>2026-04-24T14:44:30.999Z</time></trkpt><trkpt lat="45.03337816678333" lon="9.672468327463879"><ele>63.5</ele><time>2026-04-24T14:44:31.999Z</time></trkpt><trkpt lat="45.03338418022474" lon="9.672637186607693"><ele>63.0</ele><time>2026-04-24T14:44:32.999Z</time></trkpt><trkpt lat="45.03342624885233" lon="9.672831216486241"><ele>62.75</ele><time>2026-04-24T14:44:33.999Z</time></trkpt><trkpt lat="45.03345042714796" lon="9.673003162035378"><ele>62.5</ele><time>2026-04-24T14:44:34.999Z</time></trkpt><trkpt lat="45.03349242063645" lon="9.67316441247025"><ele>62.25</ele><time>2026-04-24T14:44:35.999Z</time></trkpt><trkpt lat="45.033522175091036" lon="9.673330830944826"><ele>62.0</ele><time>2026-04-24T14:44:36.999Z</time></trkpt><trkpt lat="45.03353917591094" lon="9.673477910004321"><ele>62.00000000000001</ele><time>2026-04-24T14:44:37.999Z</time></trkpt><trkpt lat="45.03355223343438" lon="9.673615829045529"><ele>62.0</ele><time>2026-04-24T14:44:38.999Z</time></trkpt><trkpt lat="45.03356592380022" lon="9.673740701823913"><ele>62.0</ele><time>2026-04-24T14:44:39.999Z</time></trkpt><trkpt lat="45.03357628297922" lon="9.673878733458086"><ele>62.0</ele><time>2026-04-24T14:44:40.999Z</time></trkpt><trkpt lat="45.03357232921345" lon="9.673996704273026"><ele>62.00000000000001</ele><time>2026-04-24T14:44:41.999Z</time></trkpt><trkpt lat="45.03355324708065" lon="9.674104760248756"><ele>62.0</ele><time>2026-04-24T14:44:42.999Z</time></trkpt><trkpt lat="45.03352329011092" lon="9.674221343893034"><ele>62.00000000000001</ele><time>2026-04-24T14:44:43.999Z</time></trkpt><trkpt lat="45.03348725794094" lon="9.674316094502537"><ele>62.0</ele><time>2026-04-24T14:44:44.999Z</time></trkpt><trkpt lat="45.033444897711284" lon="9.674422524255204"><ele>62.0</ele><time>2026-04-24T14:44:45.999Z</time></trkpt><trkpt lat="45.03340329787034" lon="9.67449083954592"><ele>62.0</ele><time>2026-04-24T14:44:46.999Z</time></trkpt><trkpt lat="45.03333074377829" lon="9.6745928067932"><ele>62.00000000000001</ele><time>2026-04-24T14:44:48.999Z</time></trkpt><trkpt lat="45.0332764714265" lon="9.67463951038465"><ele>62.0</ele><time>2026-04-24T14:44:50.999Z</time></trkpt><trkpt lat="45.03321692547338" lon="9.674679934146983"><ele>62.333333333333336</ele><time>2026-04-24T14:44:52.999Z</time></trkpt><trkpt lat="45.03313993618537" lon="9.674735280180494"><ele>62.66666666666667</ele><time>2026-04-24T14:44:54.999Z</time></trkpt><trkpt lat="45.033070942892365" lon="9.674750113156861"><ele>63.0</ele><time>2026-04-24T14:44:55.999Z</time></trkpt><trkpt lat="45.03300794630214" lon="9.67480253798388"><ele>63.33333333333333</ele><time>2026-04-24T14:44:56.999Z</time></trkpt><trkpt lat="45.03292182618936" lon="9.674872966091849"><ele>63.666666666666664</ele><time>2026-04-24T14:44:57.999Z</time></trkpt><trkpt lat="45.03281316372743" lon="9.674869938051911"><ele>64.0</ele><time>2026-04-24T14:44:58.999Z</time></trkpt><trkpt lat="45.03271936875965" lon="9.674899092616375"><ele>64.0</ele><time>2026-04-24T14:44:59.999Z</time></trkpt><trkpt lat="45.032641371441926" lon="9.674925192054634"><ele>64.0</ele><time>2026-04-24T14:45:00.999Z</time></trkpt><trkpt lat="45.03254732703212" lon="9.674911050187314"><ele>64.0</ele><time>2026-04-24T14:45:01.999Z</time></trkpt><trkpt lat="45.03248301527011" lon="9.674962162794765"><ele>64.0</ele><time>2026-04-24T14:45:02.999Z</time></trkpt><trkpt lat="45.03235572160119" lon="9.675024284339514"><ele>64.0</ele><time>2026-04-24T14:45:04.999Z</time></trkpt><trkpt lat="45.032284411672634" lon="9.675062321701228"><ele>64.4</ele><time>2026-04-24T14:45:05.999Z</time></trkpt><trkpt lat="45.032208465449564" lon="9.675082723996109"><ele>64.80000000000001</ele><time>2026-04-24T14:45:06.999Z</time></trkpt><trkpt lat="45.032123210514264" lon="9.675134795090301"><ele>65.19999999999999</ele><time>2026-04-24T14:45:07.998Z</time></trkpt><trkpt lat="45.03204678233778" lon="9.675169274486663"><ele>65.6</ele><time>2026-04-24T14:45:08.998Z</time></trkpt><trkpt lat="45.031958932103876" lon="9.675207335021629"><ele>66.0</ele><time>2026-04-24T14:45:09.998Z</time></trkpt><trkpt lat="45.03182747291688" lon="9.675296951510736"><ele>65.33333333333333</ele><time>2026-04-24T14:45:11.998Z</time></trkpt><trkpt lat="45.0317551978596" lon="9.67536378267461"><ele>64.66666666666667</ele><time>2026-04-24T14:45:12.998Z</time></trkpt><trkpt lat="45.03167587596094" lon="9.67541707828468"><ele>64.0</ele><time>2026-04-24T14:45:13.998Z</time></trkpt><trkpt lat="45.0315970452379" lon="9.675473718615994"><ele>63.333333333333336</ele><time>2026-04-24T14:45:14.998Z</time></trkpt><trkpt lat="45.03151657894527" lon="9.675532398817355"><ele>62.66666666666667</ele><time>2026-04-24T14:45:15.998Z</time></trkpt><trkpt lat="45.03145026401034" lon="9.675591710691297"><ele>62.0</ele><time>2026-04-24T14:45:16.998Z</time></trkpt><trkpt lat="45.031372943179065" lon="9.67559753334029"><ele>62.0</ele><time>2026-04-24T14:45:17.998Z</time></trkpt><trkpt lat="45.03128935643042" lon="9.675699474293227"><ele>62.0</ele><time>2026-04-24T14:45:19.998Z</time></trkpt><trkpt lat="45.03124204261313" lon="9.675784142233441"><ele>62.0</ele><time>2026-04-24T14:45:20.998Z</time></trkpt><trkpt lat="45.03113776601936" lon="9.675865567329605"><ele>62.0</ele><time>2026-04-24T14:45:22.998Z</time></trkpt><trkpt lat="45.031067873593166" lon="9.675964151007497"><ele>62.0</ele><time>2026-04-24T14:45:24.998Z</time></trkpt><trkpt lat="45.03100182850987" lon="9.675984408612587"><ele>62.0</ele><time>2026-04-24T14:45:26.998Z</time></trkpt><trkpt lat="45.03092324964522" lon="9.676080047361165"><ele>62.0</ele><time>2026-04-24T14:45:29.998Z</time></trkpt><trkpt lat="45.0308548664436" lon="9.676170129492055"><ele>62.0</ele><time>2026-04-24T14:45:30.998Z</time></trkpt><trkpt lat="45.03078504493158" lon="9.676192759085305"><ele>62.0</ele><time>2026-04-24T14:45:31.998Z</time></trkpt><trkpt lat="45.03071383505176" lon="9.676309841999254"><ele>62.0</ele><time>2026-04-24T14:45:32.998Z</time></trkpt><trkpt lat="45.03063265489632" lon="9.67637412090141"><ele>61.8</ele><time>2026-04-24T14:45:33.998Z</time></trkpt><trkpt lat="45.03057172285449" lon="9.676487163786405"><ele>61.6</ele><time>2026-04-24T14:45:34.998Z</time></trkpt><trkpt lat="45.03048470694718" lon="9.676533648168329"><ele>61.39999999999999</ele><time>2026-04-24T14:45:35.998Z</time></trkpt><trkpt lat="45.03042932241237" lon="9.67662488047608"><ele>61.199999999999996</ele><time>2026-04-24T14:45:36.998Z</time></trkpt><trkpt lat="45.03036543623896" lon="9.676747308200541"><ele>61.0</ele><time>2026-04-24T14:45:37.998Z</time></trkpt><trkpt lat="45.030273532698885" lon="9.676834277416782"><ele>60.99999999999999</ele><time>2026-04-24T14:45:38.998Z</time></trkpt><trkpt lat="45.03020556351955" lon="9.676932590371703"><ele>61.0</ele><time>2026-04-24T14:45:39.998Z</time></trkpt><trkpt lat="45.030138598936446" lon="9.677029956324635"><ele>61.0</ele><time>2026-04-24T14:45:40.998Z</time></trkpt><trkpt lat="45.03009037568821" lon="9.677102489608924"><ele>61.0</ele><time>2026-04-24T14:45:41.998Z</time></trkpt><trkpt lat="45.03004258757733" lon="9.677201557878002"><ele>60.99999999999999</ele><time>2026-04-24T14:45:42.998Z</time></trkpt><trkpt lat="45.029982608307435" lon="9.677287272495697"><ele>61.0</ele><time>2026-04-24T14:45:43.998Z</time></trkpt><trkpt lat="45.02991680050637" lon="9.677374612212454"><ele>61.199999999999996</ele><time>2026-04-24T14:45:44.998Z</time></trkpt><trkpt lat="45.02987061043903" lon="9.677484910261139"><ele>61.39999999999999</ele><time>2026-04-24T14:45:45.998Z</time></trkpt><trkpt lat="45.02979822891785" lon="9.677573390884685"><ele>61.6</ele><time>2026-04-24T14:45:46.998Z</time></trkpt><trkpt lat="45.02973897727017" lon="9.677680348811505"><ele>61.8</ele><time>2026-04-24T14:45:47.998Z</time></trkpt><trkpt lat="45.02969049003693" lon="9.677813316968365"><ele>62.0</ele><time>2026-04-24T14:45:48.998Z</time></trkpt><trkpt lat="45.029625429441566" lon="9.677939497981562"><ele>62.00000000000001</ele><time>2026-04-24T14:45:49.998Z</time></trkpt><trkpt lat="45.029571715323044" lon="9.678018579651276"><ele>62.0</ele><time>2026-04-24T14:45:50.998Z</time></trkpt><trkpt lat="45.02950818256689" lon="9.678097026602936"><ele>62.0</ele><time>2026-04-24T14:45:51.998Z</time></trkpt><trkpt lat="45.02944432262198" lon="9.678190361636313"><ele>62.0</ele><time>2026-04-24T14:45:52.998Z</time></trkpt><trkpt lat="45.02940775008938" lon="9.678325671228675"><ele>62.00000000000001</ele><time>2026-04-24T14:45:53.998Z</time></trkpt><trkpt lat="45.029350183909585" lon="9.67841930528224"><ele>62.0</ele><time>2026-04-24T14:45:54.998Z</time></trkpt><trkpt lat="45.029278913503134" lon="9.678502333779079"><ele>62.2</ele><time>2026-04-24T14:45:55.998Z</time></trkpt><trkpt lat="45.02925994947988" lon="9.678660195348506"><ele>62.400000000000006</ele><time>2026-04-24T14:45:56.998Z</time></trkpt><trkpt lat="45.02920966652527" lon="9.678750676303467"><ele>62.599999999999994</ele><time>2026-04-24T14:45:57.998Z</time></trkpt><trkpt lat="45.02917645354411" lon="9.678883102789296"><ele>62.8</ele><time>2026-04-24T14:45:58.998Z</time></trkpt><trkpt lat="45.029154268719836" lon="9.678998758729518"><ele>63.0</ele><time>2026-04-24T14:45:59.998Z</time></trkpt><trkpt lat="45.02911393614616" lon="9.679128136792993"><ele>63.0</ele><time>2026-04-24T14:46:00.998Z</time></trkpt><trkpt lat="45.02907720881582" lon="9.679225028882302"><ele>63.0</ele><time>2026-04-24T14:46:01.998Z</time></trkpt><trkpt lat="45.02901807866792" lon="9.679376124436745"><ele>63.0</ele><time>2026-04-24T14:46:03.998Z</time></trkpt><trkpt lat="45.02894584103217" lon="9.679422285540783"><ele>63.0</ele><time>2026-04-24T14:46:04.998Z</time></trkpt><trkpt lat="45.028952911268206" lon="9.679589104438474"><ele>63.0</ele><time>2026-04-24T14:46:06.997Z</time></trkpt><trkpt lat="45.02890711896805" lon="9.679654712363691"><ele>63.0</ele><time>2026-04-24T14:46:08.997Z</time></trkpt><trkpt lat="45.02892347196329" lon="9.679814327991277"><ele>63.0</ele><time>2026-04-24T14:46:10.997Z</time></trkpt><trkpt lat="45.028879691455415" lon="9.67991242662752"><ele>63.0</ele><time>2026-04-24T14:46:12.997Z</time></trkpt><trkpt lat="45.02886253130564" lon="9.680054406124652"><ele>63.0</ele><time>2026-04-24T14:46:14.997Z</time></trkpt><trkpt lat="45.02880488702188" lon="9.680138069873212"><ele>63.0</ele><time>2026-04-24T14:46:16.997Z</time></trkpt><trkpt lat="45.02879429924018" lon="9.680260734280607"><ele>63.166666666666664</ele><time>2026-04-24T14:46:17.997Z</time></trkpt><trkpt lat="45.028735788025365" lon="9.680374795999901"><ele>63.33333333333333</ele><time>2026-04-24T14:46:19.997Z</time></trkpt><trkpt lat="45.02873099655067" lon="9.680463881831301"><ele>63.5</ele><time>2026-04-24T14:46:20.997Z</time></trkpt><trkpt lat="45.0287140121938" lon="9.680566823006545"><ele>63.666666666666664</ele><time>2026-04-24T14:46:22.997Z</time></trkpt><trkpt lat="45.028693170171294" lon="9.680694415610128"><ele>63.83333333333333</ele><time>2026-04-24T14:46:24.997Z</time></trkpt><trkpt lat="45.02864000467271" lon="9.680790130990916"><ele>64.0</ele><time>2026-04-24T14:46:26.997Z</time></trkpt><trkpt lat="45.02861086101349" lon="9.680944509619442"><ele>63.99999999999999</ele><time>2026-04-24T14:46:28.997Z</time></trkpt><trkpt lat="45.02861830458499" lon="9.68106197221759"><ele>64.0</ele><time>2026-04-24T14:46:30.997Z</time></trkpt><trkpt lat="45.02859816052734" lon="9.681195289883998"><ele>64.0</ele><time>2026-04-24T14:46:32.997Z</time></trkpt><trkpt lat="45.02858002690482" lon="9.681316818949751"><ele>64.0</ele><time>2026-04-24T14:46:34.997Z</time></trkpt><trkpt lat="45.028563683939936" lon="9.681423075999398"><ele>63.99999999999999</ele><time>2026-04-24T14:46:36.997Z</time></trkpt><trkpt lat="45.02853899163956" lon="9.681507574708123"><ele>64.0</ele><time>2026-04-24T14:46:38.997Z</time></trkpt><trkpt lat="45.0285022953729" lon="9.681585833341884"><ele>64.4</ele><time>2026-04-24T14:46:40.997Z</time></trkpt><trkpt lat="45.02844001167636" lon="9.681649225306375"><ele>64.80000000000001</ele><time>2026-04-24T14:46:42.997Z</time></trkpt><trkpt lat="45.02837113106029" lon="9.681671401464078"><ele>65.19999999999999</ele><time>2026-04-24T14:46:43.997Z</time></trkpt><trkpt lat="45.02826614923923" lon="9.681691556727342"><ele>65.6</ele><time>2026-04-24T14:46:44.997Z</time></trkpt><trkpt lat="45.0281530963532" lon="9.681734210320958"><ele>66.0</ele><time>2026-04-24T14:46:45.997Z</time></trkpt><trkpt lat="45.028042734162526" lon="9.681808352772586"><ele>66.0</ele><time>2026-04-24T14:46:46.997Z</time></trkpt><trkpt lat="45.0279376072244" lon="9.681907899148968"><ele>66.0</ele><time>2026-04-24T14:46:47.997Z</time></trkpt><trkpt lat="45.027842597385366" lon="9.682025349837758"><ele>66.0</ele><time>2026-04-24T14:46:48.997Z</time></trkpt><trkpt lat="45.02776648928209" lon="9.682162411806353"><ele>66.0</ele><time>2026-04-24T14:46:49.997Z</time></trkpt><trkpt lat="45.02771362028438" lon="9.682321700903362"><ele>65.5</ele><time>2026-04-24T14:46:50.997Z</time></trkpt><trkpt lat="45.02768136652828" lon="9.682495887891914"><ele>65.0</ele><time>2026-04-24T14:46:51.997Z</time></trkpt><trkpt lat="45.02767164839563" lon="9.682677456619583"><ele>64.5</ele><time>2026-04-24T14:46:52.997Z</time></trkpt><trkpt lat="45.02767697154147" lon="9.682858046690763"><ele>64.0</ele><time>2026-04-24T14:46:53.997Z</time></trkpt><trkpt lat="45.027693308723556" lon="9.683038525176029"><ele>64.0</ele><time>2026-04-24T14:46:54.997Z</time></trkpt><trkpt lat="45.02772159157538" lon="9.683216914676635"><ele>64.0</ele><time>2026-04-24T14:46:55.997Z</time></trkpt><trkpt lat="45.02774814855239" lon="9.68340021026201"><ele>64.0</ele><time>2026-04-24T14:46:56.997Z</time></trkpt><trkpt lat="45.027752875229794" lon="9.683588819154199"><ele>64.0</ele><time>2026-04-24T14:46:57.997Z</time></trkpt><trkpt lat="45.027743456626105" lon="9.683787240502221"><ele>63.666666666666664</ele><time>2026-04-24T14:46:58.997Z</time></trkpt><trkpt lat="45.027728942249524" lon="9.683992748208386"><ele>63.33333333333333</ele><time>2026-04-24T14:46:59.997Z</time></trkpt><trkpt lat="45.02770801907933" lon="9.68421582021433"><ele>63.0</ele><time>2026-04-24T14:47:00.997Z</time></trkpt><trkpt lat="45.027686452669585" lon="9.684449837708136"><ele>62.33333333333333</ele><time>2026-04-24T14:47:01.997Z</time></trkpt><trkpt lat="45.027655312478984" lon="9.684695717553799"><ele>61.666666666666664</ele><time>2026-04-24T14:47:02.997Z</time></trkpt><trkpt lat="45.0276147365885" lon="9.684947061543337"><ele>61.0</ele><time>2026-04-24T14:47:03.996Z</time></trkpt><trkpt lat="45.02757671066868" lon="9.68522000484839"><ele>61.666666666666664</ele><time>2026-04-24T14:47:04.996Z</time></trkpt><trkpt lat="45.02755351621683" lon="9.685479098276195"><ele>62.33333333333333</ele><time>2026-04-24T14:47:05.996Z</time></trkpt><trkpt lat="45.027538504383706" lon="9.685780166796048"><ele>63.0</ele><time>2026-04-24T14:47:06.996Z</time></trkpt><trkpt lat="45.02751344387941" lon="9.68606360387908"><ele>63.33333333333333</ele><time>2026-04-24T14:47:07.996Z</time></trkpt><trkpt lat="45.027498447854995" lon="9.686338177770144"><ele>63.666666666666664</ele><time>2026-04-24T14:47:08.996Z</time></trkpt><trkpt lat="45.02748641457687" lon="9.686615515964005"><ele>64.0</ele><time>2026-04-24T14:47:09.996Z</time></trkpt><trkpt lat="45.02745516588296" lon="9.686929845205995"><ele>64.0</ele><time>2026-04-24T14:47:10.996Z</time></trkpt><trkpt lat="45.02741228031774" lon="9.687240094885684"><ele>64.0</ele><time>2026-04-24T14:47:11.996Z</time></trkpt><trkpt lat="45.02738299611674" lon="9.687565857158477"><ele>63.0</ele><time>2026-04-24T14:47:12.996Z</time></trkpt><trkpt lat="45.02735412135396" lon="9.687875887312153"><ele>62.0</ele><time>2026-04-24T14:47:13.996Z</time></trkpt><trkpt lat="45.02733633300701" lon="9.68820033881734"><ele>62.0</ele><time>2026-04-24T14:47:14.996Z</time></trkpt><trkpt lat="45.027304537974715" lon="9.688519680888874"><ele>62.0</ele><time>2026-04-24T14:47:15.996Z</time></trkpt><trkpt lat="45.02727903456264" lon="9.68884023573424"><ele>62.0</ele><time>2026-04-24T14:47:16.996Z</time></trkpt><trkpt lat="45.027246871065984" lon="9.689171212978533"><ele>62.0</ele><time>2026-04-24T14:47:17.996Z</time></trkpt><trkpt lat="45.02720934571543" lon="9.689491558781912"><ele>62.0</ele><time>2026-04-24T14:47:18.996Z</time></trkpt><trkpt lat="45.02718402194844" lon="9.689764720732521"><ele>62.0</ele><time>2026-04-24T14:47:19.996Z</time></trkpt><trkpt lat="45.02716070707657" lon="9.690118309609723"><ele>62.0</ele><time>2026-04-24T14:47:20.996Z</time></trkpt><trkpt lat="45.02715297553295" lon="9.690443472653548"><ele>63.0</ele><time>2026-04-24T14:47:21.996Z</time></trkpt><trkpt lat="45.02712156027705" lon="9.690763378005139"><ele>64.0</ele><time>2026-04-24T14:47:22.996Z</time></trkpt><trkpt lat="45.02709411574324" lon="9.691085874270685"><ele>63.5</ele><time>2026-04-24T14:47:23.996Z</time></trkpt><trkpt lat="45.027059899621484" lon="9.691386267056618"><ele>63.0</ele><time>2026-04-24T14:47:24.996Z</time></trkpt><trkpt lat="45.027002000043716" lon="9.691710664456474"><ele>63.66666666666667</ele><time>2026-04-24T14:47:25.996Z</time></trkpt><trkpt lat="45.026968357526954" lon="9.692013203351648"><ele>64.33333333333334</ele><time>2026-04-24T14:47:26.996Z</time></trkpt><trkpt lat="45.02694235231183" lon="9.692315934803968"><ele>65.0</ele><time>2026-04-24T14:47:27.996Z</time></trkpt><trkpt lat="45.02691648555534" lon="9.69261870332165"><ele>65.33333333333334</ele><time>2026-04-24T14:47:28.996Z</time></trkpt><trkpt lat="45.026890014196525" lon="9.692921362215458"><ele>65.66666666666667</ele><time>2026-04-24T14:47:29.996Z</time></trkpt><trkpt lat="45.02686533293867" lon="9.693224321962358"><ele>66.0</ele><time>2026-04-24T14:47:30.996Z</time></trkpt><trkpt lat="45.026840391026745" lon="9.693527243809866"><ele>66.0</ele><time>2026-04-24T14:47:31.996Z</time></trkpt><trkpt lat="45.02679776725388" lon="9.694094282900771"><ele>66.0</ele><time>2026-04-24T14:47:33.996Z</time></trkpt><trkpt lat="45.02675060091926" lon="9.694405182560867"><ele>64.0</ele><time>2026-04-24T14:47:34.996Z</time></trkpt><trkpt lat="45.02670262933493" lon="9.694711168815836"><ele>62.0</ele><time>2026-04-24T14:47:35.996Z</time></trkpt><trkpt lat="45.02669116942086" lon="9.69509943060721"><ele>61.66666666666667</ele><time>2026-04-24T14:47:36.996Z</time></trkpt><trkpt lat="45.02669158713674" lon="9.695396906245563"><ele>61.33333333333333</ele><time>2026-04-24T14:47:37.996Z</time></trkpt><trkpt lat="45.02669806367837" lon="9.695696133006896"><ele>61.0</ele><time>2026-04-24T14:47:38.996Z</time></trkpt><trkpt lat="45.026698029932874" lon="9.695979366819898"><ele>62.0</ele><time>2026-04-24T14:47:39.996Z</time></trkpt><trkpt lat="45.02671526807541" lon="9.69626944378964"><ele>63.0</ele><time>2026-04-24T14:47:40.996Z</time></trkpt><trkpt lat="45.02673185119612" lon="9.696549187716295"><ele>64.0</ele><time>2026-04-24T14:47:41.996Z</time></trkpt><trkpt lat="45.026782360395" lon="9.696848841655354"><ele>64.33333333333333</ele><time>2026-04-24T14:47:42.996Z</time></trkpt><trkpt lat="45.02680432906558" lon="9.697122498228318"><ele>64.66666666666667</ele><time>2026-04-24T14:47:43.996Z</time></trkpt><trkpt lat="45.02685075741249" lon="9.697404893401824"><ele>65.0</ele><time>2026-04-24T14:47:44.996Z</time></trkpt><trkpt lat="45.02689110391429" lon="9.697686702683564"><ele>63.333333333333336</ele><time>2026-04-24T14:47:45.996Z</time></trkpt><trkpt lat="45.0269311675761" lon="9.697983952717284"><ele>61.66666666666667</ele><time>2026-04-24T14:47:46.996Z</time></trkpt><trkpt lat="45.026982173747854" lon="9.698257090223251"><ele>60.0</ele><time>2026-04-24T14:47:47.996Z</time></trkpt><trkpt lat="45.02703610356358" lon="9.69855345862083"><ele>59.33333333333333</ele><time>2026-04-24T14:47:48.996Z</time></trkpt><trkpt lat="45.02710691857395" lon="9.698833943285445"><ele>58.666666666666664</ele><time>2026-04-24T14:47:49.996Z</time></trkpt><trkpt lat="45.02718896987027" lon="9.69910828649287"><ele>58.0</ele><time>2026-04-24T14:47:50.996Z</time></trkpt><trkpt lat="45.02723717306157" lon="9.69935632284056"><ele>59.0</ele><time>2026-04-24T14:47:51.996Z</time></trkpt><trkpt lat="45.027315404876056" lon="9.69961855916902"><ele>60.0</ele><time>2026-04-24T14:47:52.996Z</time></trkpt><trkpt lat="45.02740311806817" lon="9.699862009155446"><ele>61.0</ele><time>2026-04-24T14:47:53.996Z</time></trkpt><trkpt lat="45.02748333256639" lon="9.70014433705078"><ele>60.33333333333333</ele><time>2026-04-24T14:47:54.996Z</time></trkpt><trkpt lat="45.027559514819636" lon="9.700401023582181"><ele>59.66666666666667</ele><time>2026-04-24T14:47:55.996Z</time></trkpt><trkpt lat="45.02763630098225" lon="9.7006732398386"><ele>59.0</ele><time>2026-04-24T14:47:56.996Z</time></trkpt><trkpt lat="45.02772152630856" lon="9.700936954337505"><ele>58.66666666666667</ele><time>2026-04-24T14:47:57.996Z</time></trkpt><trkpt lat="45.027819284561616" lon="9.701196744486461"><ele>58.33333333333333</ele><time>2026-04-24T14:47:58.996Z</time></trkpt><trkpt lat="45.027929140121756" lon="9.701447232069693"><ele>58.0</ele><time>2026-04-24T14:47:59.996Z</time></trkpt><trkpt lat="45.028019426166274" lon="9.701685975709099"><ele>59.0</ele><time>2026-04-24T14:48:00.996Z</time></trkpt><trkpt lat="45.02811291616877" lon="9.70194196667982"><ele>60.0</ele><time>2026-04-24T14:48:01.995Z</time></trkpt><trkpt lat="45.028204225795555" lon="9.702195988885169"><ele>61.0</ele><time>2026-04-24T14:48:02.995Z</time></trkpt><trkpt lat="45.028271524864216" lon="9.702488720206238"><ele>62.0</ele><time>2026-04-24T14:48:03.995Z</time></trkpt><trkpt lat="45.02837557067342" lon="9.702800183292767"><ele>63.0</ele><time>2026-04-24T14:48:04.995Z</time></trkpt><trkpt lat="45.02848067545227" lon="9.703069193180989"><ele>63.0</ele><time>2026-04-24T14:48:05.995Z</time></trkpt><trkpt lat="45.02858447658412" lon="9.703349005662167"><ele>63.0</ele><time>2026-04-24T14:48:06.995Z</time></trkpt><trkpt lat="45.0286844199668" lon="9.703639099824843"><ele>62.33333333333333</ele><time>2026-04-24T14:48:07.995Z</time></trkpt><trkpt lat="45.028758843777" lon="9.703898420014003"><ele>61.666666666666664</ele><time>2026-04-24T14:48:08.995Z</time></trkpt><trkpt lat="45.02882779862009" lon="9.70417635815816"><ele>61.0</ele><time>2026-04-24T14:48:09.995Z</time></trkpt><trkpt lat="45.028881745362895" lon="9.704440071548497"><ele>61.0</ele><time>2026-04-24T14:48:10.995Z</time></trkpt><trkpt lat="45.028981097587305" lon="9.704702317710831"><ele>61.0</ele><time>2026-04-24T14:48:11.995Z</time></trkpt><trkpt lat="45.02905821470438" lon="9.704964863284493"><ele>61.0</ele><time>2026-04-24T14:48:12.995Z</time></trkpt><trkpt lat="45.02914085742943" lon="9.705252951567493"><ele>59.0</ele><time>2026-04-24T14:48:13.995Z</time></trkpt><trkpt lat="45.029211763612224" lon="9.705540488105973"><ele>57.0</ele><time>2026-04-24T14:48:14.995Z</time></trkpt><trkpt lat="45.02929168194789" lon="9.705871624923292"><ele>56.5</ele><time>2026-04-24T14:48:15.995Z</time></trkpt><trkpt lat="45.02940357959271" lon="9.706198621944129"><ele>56.0</ele><time>2026-04-24T14:48:16.995Z</time></trkpt><trkpt lat="45.02948860453727" lon="9.706513148154981"><ele>56.0</ele><time>2026-04-24T14:48:17.995Z</time></trkpt><trkpt lat="45.02955876833387" lon="9.706831264075085"><ele>56.0</ele><time>2026-04-24T14:48:18.995Z</time></trkpt><trkpt lat="45.02961777421174" lon="9.70715717441969"><ele>56.5</ele><time>2026-04-24T14:48:19.995Z</time></trkpt><trkpt lat="45.02967031766038" lon="9.707478002676213"><ele>57.0</ele><time>2026-04-24T14:48:20.995Z</time></trkpt><trkpt lat="45.02972075287125" lon="9.707787774654058"><ele>58.0</ele><time>2026-04-24T14:48:21.995Z</time></trkpt><trkpt lat="45.0297773328467" lon="9.708114982238287"><ele>59.0</ele><time>2026-04-24T14:48:22.995Z</time></trkpt><trkpt lat="45.029814582974645" lon="9.708434905432458"><ele>59.0</ele><time>2026-04-24T14:48:23.995Z</time></trkpt><trkpt lat="45.02982878495893" lon="9.708736254528171"><ele>59.0</ele><time>2026-04-24T14:48:24.995Z</time></trkpt><trkpt lat="45.029879413190024" lon="9.709052696927543"><ele>59.0</ele><time>2026-04-24T14:48:25.995Z</time></trkpt><trkpt lat="45.02990842183658" lon="9.709372120629846"><ele>58.0</ele><time>2026-04-24T14:48:26.995Z</time></trkpt><trkpt lat="45.02992636939702" lon="9.709681257590173"><ele>57.0</ele><time>2026-04-24T14:48:27.995Z</time></trkpt><trkpt lat="45.02995917136017" lon="9.710004500310001"><ele>55.0</ele><time>2026-04-24T14:48:28.995Z</time></trkpt><trkpt lat="45.0299942230452" lon="9.710352892409933"><ele>53.0</ele><time>2026-04-24T14:48:29.995Z</time></trkpt><trkpt lat="45.030017410208636" lon="9.710693858648408"><ele>53.0</ele><time>2026-04-24T14:48:30.995Z</time></trkpt><trkpt lat="45.030022245591105" lon="9.71102883335538"><ele>53.0</ele><time>2026-04-24T14:48:31.995Z</time></trkpt><trkpt lat="45.030041347584934" lon="9.711368987819663"><ele>53.0</ele><time>2026-04-24T14:48:32.995Z</time></trkpt><trkpt lat="45.030048647831265" lon="9.71171058829959"><ele>53.0</ele><time>2026-04-24T14:48:33.995Z</time></trkpt><trkpt lat="45.03005187683577" lon="9.712038700249225"><ele>53.0</ele><time>2026-04-24T14:48:34.995Z</time></trkpt><trkpt lat="45.03004293327171" lon="9.712381942560981"><ele>53.0</ele><time>2026-04-24T14:48:35.995Z</time></trkpt><trkpt lat="45.03004760409945" lon="9.712719507531146"><ele>54.0</ele><time>2026-04-24T14:48:36.995Z</time></trkpt><trkpt lat="45.03004757950652" lon="9.713050292234024"><ele>55.0</ele><time>2026-04-24T14:48:37.995Z</time></trkpt><trkpt lat="45.03005734191336" lon="9.713401227956878"><ele>56.0</ele><time>2026-04-24T14:48:38.995Z</time></trkpt><trkpt lat="45.03006208127645" lon="9.713738768247461"><ele>57.0</ele><time>2026-04-24T14:48:39.995Z</time></trkpt><trkpt lat="45.03006385680118" lon="9.714079748202987"><ele>57.0</ele><time>2026-04-24T14:48:40.995Z</time></trkpt><trkpt lat="45.03006329827651" lon="9.714399787315173"><ele>57.0</ele><time>2026-04-24T14:48:41.995Z</time></trkpt><trkpt lat="45.0300668344772" lon="9.714694642803455"><ele>57.0</ele><time>2026-04-24T14:48:42.995Z</time></trkpt><trkpt lat="45.0300702710547" lon="9.715013891940545"><ele>55.5</ele><time>2026-04-24T14:48:43.995Z</time></trkpt><trkpt lat="45.03002893408166" lon="9.71532270979701"><ele>54.0</ele><time>2026-04-24T14:48:44.995Z</time></trkpt><trkpt lat="45.030050586578184" lon="9.715692232224391"><ele>54.0</ele><time>2026-04-24T14:48:45.995Z</time></trkpt><trkpt lat="45.03004337775172" lon="9.715997686561469"><ele>54.0</ele><time>2026-04-24T14:48:46.995Z</time></trkpt><trkpt lat="45.03005609542259" lon="9.71631203528671"><ele>54.0</ele><time>2026-04-24T14:48:47.995Z</time></trkpt><trkpt lat="45.03008238570684" lon="9.716630239115517"><ele>53.66666666666667</ele><time>2026-04-24T14:48:48.995Z</time></trkpt><trkpt lat="45.03008201649588" lon="9.716941281781875"><ele>53.333333333333336</ele><time>2026-04-24T14:48:49.995Z</time></trkpt><trkpt lat="45.0300715190592" lon="9.717249696645457"><ele>53.0</ele><time>2026-04-24T14:48:50.995Z</time></trkpt><trkpt lat="45.0300775395774" lon="9.717560603707701"><ele>53.66666666666667</ele><time>2026-04-24T14:48:51.995Z</time></trkpt><trkpt lat="45.03006732489339" lon="9.717865717107168"><ele>54.33333333333333</ele><time>2026-04-24T14:48:52.995Z</time></trkpt><trkpt lat="45.03007271033271" lon="9.718172485429891"><ele>55.0</ele><time>2026-04-24T14:48:53.995Z</time></trkpt><trkpt lat="45.030083803557346" lon="9.718481956312301"><ele>55.0</ele><time>2026-04-24T14:48:54.995Z</time></trkpt><trkpt lat="45.03009684560022" lon="9.718793497548056"><ele>55.0</ele><time>2026-04-24T14:48:55.995Z</time></trkpt><trkpt lat="45.03009351603078" lon="9.71908786816294"><ele>55.0</ele><time>2026-04-24T14:48:56.995Z</time></trkpt><trkpt lat="45.0300850997299" lon="9.719396762607824"><ele>54.666666666666664</ele><time>2026-04-24T14:48:57.995Z</time></trkpt><trkpt lat="45.030079900056705" lon="9.719705795450455"><ele>54.33333333333333</ele><time>2026-04-24T14:48:58.995Z</time></trkpt><trkpt lat="45.030106179938386" lon="9.720016939856889"><ele>54.0</ele><time>2026-04-24T14:48:59.994Z</time></trkpt><trkpt lat="45.03009200460464" lon="9.720311159320504"><ele>54.0</ele><time>2026-04-24T14:49:00.994Z</time></trkpt><trkpt lat="45.03003780848374" lon="9.720618115599393"><ele>54.0</ele><time>2026-04-24T14:49:01.994Z</time></trkpt><trkpt lat="45.03002451524534" lon="9.720901342725194"><ele>54.0</ele><time>2026-04-24T14:49:02.994Z</time></trkpt><trkpt lat="45.029975398081994" lon="9.721186332892698"><ele>54.33333333333333</ele><time>2026-04-24T14:49:03.994Z</time></trkpt><trkpt lat="45.029896055449655" lon="9.721459707004332"><ele>54.666666666666664</ele><time>2026-04-24T14:49:04.994Z</time></trkpt><trkpt lat="45.029822241114886" lon="9.721739142721358"><ele>55.0</ele><time>2026-04-24T14:49:05.994Z</time></trkpt><trkpt lat="45.02972218722518" lon="9.722007693150172"><ele>55.33333333333333</ele><time>2026-04-24T14:49:06.994Z</time></trkpt><trkpt lat="45.02962985016185" lon="9.722273601189507"><ele>55.66666666666667</ele><time>2026-04-24T14:49:07.994Z</time></trkpt><trkpt lat="45.029538099187114" lon="9.72255110860412"><ele>56.0</ele><time>2026-04-24T14:49:08.994Z</time></trkpt><trkpt lat="45.02942124638392" lon="9.722808681401817"><ele>56.0</ele><time>2026-04-24T14:49:09.994Z</time></trkpt><trkpt lat="45.02931250915554" lon="9.723075290732472"><ele>56.0</ele><time>2026-04-24T14:49:10.994Z</time></trkpt><trkpt lat="45.02917161498258" lon="9.723333275094655"><ele>56.0</ele><time>2026-04-24T14:49:11.994Z</time></trkpt><trkpt lat="45.02901094571248" lon="9.723585970543885"><ele>56.0</ele><time>2026-04-24T14:49:12.994Z</time></trkpt><trkpt lat="45.0288387617892" lon="9.723837152774019"><ele>56.0</ele><time>2026-04-24T14:49:13.994Z</time></trkpt><trkpt lat="45.02867365119985" lon="9.724091121379521"><ele>56.0</ele><time>2026-04-24T14:49:14.994Z</time></trkpt><trkpt lat="45.02850681518532" lon="9.724345048338543"><ele>56.0</ele><time>2026-04-24T14:49:15.994Z</time></trkpt><trkpt lat="45.0283355777439" lon="9.72458763295325"><ele>56.0</ele><time>2026-04-24T14:49:16.994Z</time></trkpt><trkpt lat="45.0281706593359" lon="9.724839005052198"><ele>56.0</ele><time>2026-04-24T14:49:17.994Z</time></trkpt><trkpt lat="45.02801111155921" lon="9.725098765403816"><ele>57.0</ele><time>2026-04-24T14:49:18.994Z</time></trkpt><trkpt lat="45.0278443063498" lon="9.725340505123823"><ele>58.0</ele><time>2026-04-24T14:49:19.994Z</time></trkpt><trkpt lat="45.02768009834895" lon="9.725578205237595"><ele>58.0</ele><time>2026-04-24T14:49:20.994Z</time></trkpt><trkpt lat="45.0275291452382" lon="9.725833133781869"><ele>58.0</ele><time>2026-04-24T14:49:21.994Z</time></trkpt><trkpt lat="45.02738795636041" lon="9.726117682103663"><ele>57.0</ele><time>2026-04-24T14:49:22.994Z</time></trkpt><trkpt lat="45.02724727250351" lon="9.726399614597861"><ele>56.0</ele><time>2026-04-24T14:49:23.994Z</time></trkpt><trkpt lat="45.02712663875561" lon="9.72670103497765"><ele>56.0</ele><time>2026-04-24T14:49:24.994Z</time></trkpt><trkpt lat="45.02700264060117" lon="9.726998752461988"><ele>56.0</ele><time>2026-04-24T14:49:25.994Z</time></trkpt><trkpt lat="45.02691553459126" lon="9.727315404478796"><ele>56.0</ele><time>2026-04-24T14:49:26.994Z</time></trkpt><trkpt lat="45.0267948369582" lon="9.727579578401395"><ele>56.0</ele><time>2026-04-24T14:49:27.994Z</time></trkpt><trkpt lat="45.0267290287933" lon="9.727860252610899"><ele>56.0</ele><time>2026-04-24T14:49:28.994Z</time></trkpt><trkpt lat="45.026656634852806" lon="9.728148109785868"><ele>56.5</ele><time>2026-04-24T14:49:29.994Z</time></trkpt><trkpt lat="45.02658149430743" lon="9.728452778136251"><ele>57.0</ele><time>2026-04-24T14:49:30.994Z</time></trkpt><trkpt lat="45.026503991006756" lon="9.72876343928918"><ele>57.33333333333333</ele><time>2026-04-24T14:49:31.994Z</time></trkpt><trkpt lat="45.026427246914665" lon="9.729053771622565"><ele>57.666666666666664</ele><time>2026-04-24T14:49:32.994Z</time></trkpt><trkpt lat="45.02632199663727" lon="9.7293239335583"><ele>58.0</ele><time>2026-04-24T14:49:33.994Z</time></trkpt><trkpt lat="45.026247066129" lon="9.729616265088765"><ele>58.0</ele><time>2026-04-24T14:49:34.994Z</time></trkpt><trkpt lat="45.02614921226429" lon="9.729894937459106"><ele>58.0</ele><time>2026-04-24T14:49:35.994Z</time></trkpt><trkpt lat="45.0261026438306" lon="9.730227971867524"><ele>57.666666666666664</ele><time>2026-04-24T14:49:36.994Z</time></trkpt><trkpt lat="45.02599395358185" lon="9.730495870852975"><ele>57.33333333333333</ele><time>2026-04-24T14:49:37.994Z</time></trkpt><trkpt lat="45.02592531285507" lon="9.730806467495732"><ele>57.0</ele><time>2026-04-24T14:49:38.994Z</time></trkpt><trkpt lat="45.02582356230633" lon="9.731059946873245"><ele>56.5</ele><time>2026-04-24T14:49:39.994Z</time></trkpt><trkpt lat="45.0257288742455" lon="9.73136329251003"><ele>56.0</ele><time>2026-04-24T14:49:40.994Z</time></trkpt><trkpt lat="45.02567731356458" lon="9.731675660399544"><ele>56.333333333333336</ele><time>2026-04-24T14:49:41.994Z</time></trkpt><trkpt lat="45.02559212452294" lon="9.731945902558113"><ele>56.66666666666667</ele><time>2026-04-24T14:49:42.994Z</time></trkpt><trkpt lat="45.02552211060827" lon="9.732219829416577"><ele>57.0</ele><time>2026-04-24T14:49:43.994Z</time></trkpt><trkpt lat="45.02546614140637" lon="9.732502726835548"><ele>57.0</ele><time>2026-04-24T14:49:44.994Z</time></trkpt><trkpt lat="45.02538510754685" lon="9.732809168441234"><ele>57.0</ele><time>2026-04-24T14:49:45.994Z</time></trkpt><trkpt lat="45.025307854163266" lon="9.73309987148014"><ele>57.0</ele><time>2026-04-24T14:49:46.994Z</time></trkpt><trkpt lat="45.02520858683498" lon="9.7333789565863"><ele>57.0</ele><time>2026-04-24T14:49:47.994Z</time></trkpt><trkpt lat="45.025095542508424" lon="9.733638403845216"><ele>57.0</ele><time>2026-04-24T14:49:48.994Z</time></trkpt><trkpt lat="45.02503834125745" lon="9.73393872455449"><ele>56.5</ele><time>2026-04-24T14:49:49.994Z</time></trkpt><trkpt lat="45.02498564125947" lon="9.734251685539194"><ele>56.0</ele><time>2026-04-24T14:49:50.994Z</time></trkpt><trkpt lat="45.024950716737" lon="9.734562876682029"><ele>56.0</ele><time>2026-04-24T14:49:51.994Z</time></trkpt><trkpt lat="45.02493143308924" lon="9.734877735042602"><ele>56.0</ele><time>2026-04-24T14:49:52.994Z</time></trkpt><trkpt lat="45.024909469621825" lon="9.735187111002443"><ele>56.0</ele><time>2026-04-24T14:49:53.994Z</time></trkpt><trkpt lat="45.02491098349233" lon="9.735505807977722"><ele>56.0</ele><time>2026-04-24T14:49:54.994Z</time></trkpt><trkpt lat="45.02489147962905" lon="9.735795786634814"><ele>56.0</ele><time>2026-04-24T14:49:55.994Z</time></trkpt><trkpt lat="45.02492618808306" lon="9.736103842341183"><ele>56.0</ele><time>2026-04-24T14:49:56.994Z</time></trkpt><trkpt lat="45.0249929310489" lon="9.736410038020816"><ele>56.0</ele><time>2026-04-24T14:49:57.993Z</time></trkpt><trkpt lat="45.02505769429133" lon="9.736715640124343"><ele>56.0</ele><time>2026-04-24T14:49:58.993Z</time></trkpt><trkpt lat="45.025122834481984" lon="9.737026553713859"><ele>56.0</ele><time>2026-04-24T14:49:59.993Z</time></trkpt><trkpt lat="45.02515362665792" lon="9.737323160740774"><ele>56.0</ele><time>2026-04-24T14:50:00.993Z</time></trkpt><trkpt lat="45.02522487704482" lon="9.737616162225855"><ele>56.0</ele><time>2026-04-24T14:50:01.993Z</time></trkpt><trkpt lat="45.02531116642143" lon="9.737906347964184"><ele>56.5</ele><time>2026-04-24T14:50:02.993Z</time></trkpt><trkpt lat="45.02542290391905" lon="9.738196783163692"><ele>57.0</ele><time>2026-04-24T14:50:03.993Z</time></trkpt><trkpt lat="45.02555015148056" lon="9.738448072780725"><ele>57.0</ele><time>2026-04-24T14:50:04.993Z</time></trkpt><trkpt lat="45.02569199794984" lon="9.738690236128699"><ele>57.0</ele><time>2026-04-24T14:50:05.993Z</time></trkpt><trkpt lat="45.025869800619915" lon="9.738918467623296"><ele>58.5</ele><time>2026-04-24T14:50:06.993Z</time></trkpt><trkpt lat="45.02605271560619" lon="9.739129315671855"><ele>60.0</ele><time>2026-04-24T14:50:07.993Z</time></trkpt><trkpt lat="45.026222946120065" lon="9.739345608908925"><ele>60.0</ele><time>2026-04-24T14:50:08.993Z</time></trkpt><trkpt lat="45.02639455787689" lon="9.739550614994375"><ele>60.0</ele><time>2026-04-24T14:50:09.993Z</time></trkpt><trkpt lat="45.02656507653966" lon="9.739752526848253"><ele>60.0</ele><time>2026-04-24T14:50:10.993Z</time></trkpt><trkpt lat="45.02673117635656" lon="9.739953516621911"><ele>60.0</ele><time>2026-04-24T14:50:11.993Z</time></trkpt><trkpt lat="45.026885754866164" lon="9.740140112896833"><ele>60.0</ele><time>2026-04-24T14:50:12.993Z</time></trkpt><trkpt lat="45.02705006134442" lon="9.74033813431339"><ele>60.0</ele><time>2026-04-24T14:50:14.001Z</time></trkpt><trkpt lat="45.02722308830796" lon="9.740601782436464"><ele>59.66666666666667</ele><time>2026-04-24T14:50:15.001Z</time></trkpt><trkpt lat="45.02740077627025" lon="9.740805405788638"><ele>59.333333333333336</ele><time>2026-04-24T14:50:16.001Z</time></trkpt><trkpt lat="45.02753813755674" lon="9.741040240500462"><ele>59.0</ele><time>2026-04-24T14:50:17.001Z</time></trkpt><trkpt lat="45.027699415722445" lon="9.741210821063287"><ele>59.66666666666667</ele><time>2026-04-24T14:50:18.001Z</time></trkpt><trkpt lat="45.027864185004006" lon="9.741375474571846"><ele>60.33333333333333</ele><time>2026-04-24T14:50:19.001Z</time></trkpt><trkpt lat="45.02803810706304" lon="9.741493852003497"><ele>61.0</ele><time>2026-04-24T14:50:20.001Z</time></trkpt><trkpt lat="45.02823449775944" lon="9.74161223014531"><ele>60.0</ele><time>2026-04-24T14:50:21.001Z</time></trkpt><trkpt lat="45.02844483063134" lon="9.741687904215645"><ele>59.0</ele><time>2026-04-24T14:50:22.001Z</time></trkpt><trkpt lat="45.028663583480174" lon="9.741742982238335"><ele>58.0</ele><time>2026-04-24T14:50:23.001Z</time></trkpt><trkpt lat="45.02888029767734" lon="9.741779365451611"><ele>58.0</ele><time>2026-04-24T14:50:24.001Z</time></trkpt><trkpt lat="45.02909918285203" lon="9.74181023399675"><ele>58.0</ele><time>2026-04-24T14:50:25.001Z</time></trkpt><trkpt lat="45.02931891966881" lon="9.741820176087112"><ele>58.0</ele><time>2026-04-24T14:50:26.001Z</time></trkpt><trkpt lat="45.02954866503894" lon="9.741812306568608"><ele>57.0</ele><time>2026-04-24T14:50:27.001Z</time></trkpt><trkpt lat="45.02977964779368" lon="9.741814929013682"><ele>56.0</ele><time>2026-04-24T14:50:28.001Z</time></trkpt><trkpt lat="45.03003743440505" lon="9.74182496186748"><ele>56.0</ele><time>2026-04-24T14:50:29.001Z</time></trkpt><trkpt lat="45.03027941478436" lon="9.741851444469036"><ele>56.0</ele><time>2026-04-24T14:50:30.001Z</time></trkpt><trkpt lat="45.0305203841639" lon="9.74189931805287"><ele>56.0</ele><time>2026-04-24T14:50:31.001Z</time></trkpt><trkpt lat="45.03073841634013" lon="9.742025473085269"><ele>56.0</ele><time>2026-04-24T14:50:32.001Z</time></trkpt><trkpt lat="45.03092052224002" lon="9.742145048492928"><ele>56.0</ele><time>2026-04-24T14:50:33.001Z</time></trkpt><trkpt lat="45.031137915459" lon="9.742186186627105"><ele>56.0</ele><time>2026-04-24T14:50:34Z</time></trkpt><trkpt lat="45.031353699487035" lon="9.742263173490045"><ele>56.0</ele><time>2026-04-24T14:50:35Z</time></trkpt><trkpt lat="45.031578880789496" lon="9.742323499859095"><ele>56.5</ele><time>2026-04-24T14:50:36Z</time></trkpt><trkpt lat="45.0318114520231" lon="9.742392931420937"><ele>57.0</ele><time>2026-04-24T14:50:37Z</time></trkpt><trkpt lat="45.03204333503943" lon="9.74247815296976"><ele>57.0</ele><time>2026-04-24T14:50:38Z</time></trkpt><trkpt lat="45.03225556694915" lon="9.742601245757893"><ele>57.0</ele><time>2026-04-24T14:50:39Z</time></trkpt><trkpt lat="45.032449303769276" lon="9.742692215879504"><ele>57.0</ele><time>2026-04-24T14:50:40Z</time></trkpt><trkpt lat="45.03265946599941" lon="9.742792972483196"><ele>56.66666666666667</ele><time>2026-04-24T14:50:41Z</time></trkpt><trkpt lat="45.03286493257207" lon="9.742850173059228"><ele>56.333333333333336</ele><time>2026-04-24T14:50:42Z</time></trkpt><trkpt lat="45.033071010687046" lon="9.742958692290156"><ele>56.0</ele><time>2026-04-24T14:50:43Z</time></trkpt><trkpt lat="45.03326494001036" lon="9.743014928520694"><ele>57.0</ele><time>2026-04-24T14:50:44Z</time></trkpt><trkpt lat="45.03347847336965" lon="9.743095747159092"><ele>58.0</ele><time>2026-04-24T14:50:45Z</time></trkpt><trkpt lat="45.03369893486542" lon="9.74320142236852"><ele>58.0</ele><time>2026-04-24T14:50:46Z</time></trkpt><trkpt lat="45.03390492826485" lon="9.743310814318473"><ele>58.0</ele><time>2026-04-24T14:50:47Z</time></trkpt><trkpt lat="45.034123323412736" lon="9.743416334847334"><ele>57.666666666666664</ele><time>2026-04-24T14:50:48Z</time></trkpt><trkpt lat="45.03433495490089" lon="9.743514999461535"><ele>57.33333333333333</ele><time>2026-04-24T14:50:49Z</time></trkpt><trkpt lat="45.0345232068258" lon="9.743615632944303"><ele>57.0</ele><time>2026-04-24T14:50:50Z</time></trkpt><trkpt lat="45.034723944971184" lon="9.743702591482865"><ele>57.0</ele><time>2026-04-24T14:50:51Z</time></trkpt><trkpt lat="45.03493591867894" lon="9.74379544503283"><ele>57.0</ele><time>2026-04-24T14:50:52Z</time></trkpt><trkpt lat="45.03515324357812" lon="9.743862970655726"><ele>57.0</ele><time>2026-04-24T14:50:53Z</time></trkpt><trkpt lat="45.03536545841351" lon="9.743941787498716"><ele>56.66666666666667</ele><time>2026-04-24T14:50:54Z</time></trkpt><trkpt lat="45.03558764570713" lon="9.744000300307446"><ele>56.333333333333336</ele><time>2026-04-24T14:50:55Z</time></trkpt><trkpt lat="45.035796045481014" lon="9.744048708537507"><ele>56.0</ele><time>2026-04-24T14:50:56Z</time></trkpt><trkpt lat="45.03598996036558" lon="9.744141811529685"><ele>56.0</ele><time>2026-04-24T14:50:57Z</time></trkpt><trkpt lat="45.0361998904317" lon="9.744217366069927"><ele>56.0</ele><time>2026-04-24T14:50:58Z</time></trkpt><trkpt lat="45.036416763691086" lon="9.74429680307762"><ele>56.0</ele><time>2026-04-24T14:50:59Z</time></trkpt><trkpt lat="45.03660485477335" lon="9.74435241796587"><ele>55.66666666666667</ele><time>2026-04-24T14:51:00Z</time></trkpt><trkpt lat="45.036763093375036" lon="9.744475052906244"><ele>55.33333333333333</ele><time>2026-04-24T14:51:01Z</time></trkpt><trkpt lat="45.036967390452105" lon="9.74453204626553"><ele>55.0</ele><time>2026-04-24T14:51:02Z</time></trkpt><trkpt lat="45.03717814385363" lon="9.744624356438907"><ele>55.0</ele><time>2026-04-24T14:51:03Z</time></trkpt><trkpt lat="45.03738007613657" lon="9.744677495149002"><ele>55.0</ele><time>2026-04-24T14:51:04Z</time></trkpt><trkpt lat="45.03756437926099" lon="9.74472950935054"><ele>55.0</ele><time>2026-04-24T14:51:05Z</time></trkpt><trkpt lat="45.03775472174204" lon="9.74478193691449"><ele>54.666666666666664</ele><time>2026-04-24T14:51:06Z</time></trkpt><trkpt lat="45.0379609507158" lon="9.744865235879155"><ele>54.33333333333333</ele><time>2026-04-24T14:51:07Z</time></trkpt><trkpt lat="45.038124167603236" lon="9.744968107395584"><ele>54.0</ele><time>2026-04-24T14:51:08Z</time></trkpt><trkpt lat="45.03830605559975" lon="9.74506089872955"><ele>54.0</ele><time>2026-04-24T14:51:08.999Z</time></trkpt><trkpt lat="45.038506471539314" lon="9.745132831470421"><ele>54.0</ele><time>2026-04-24T14:51:09.999Z</time></trkpt><trkpt lat="45.038710406369624" lon="9.745196117805106"><ele>54.0</ele><time>2026-04-24T14:51:10.999Z</time></trkpt><trkpt lat="45.0389267814352" lon="9.745264886182548"><ele>53.66666666666667</ele><time>2026-04-24T14:51:11.999Z</time></trkpt><trkpt lat="45.03914400432323" lon="9.745325290699505"><ele>53.333333333333336</ele><time>2026-04-24T14:51:12.999Z</time></trkpt><trkpt lat="45.03932627380065" lon="9.745422774308606"><ele>53.0</ele><time>2026-04-24T14:51:13.999Z</time></trkpt><trkpt lat="45.039542878196315" lon="9.745494647118514"><ele>53.0</ele><time>2026-04-24T14:51:14.999Z</time></trkpt><trkpt lat="45.03975708847222" lon="9.74556503665304"><ele>53.0</ele><time>2026-04-24T14:51:15.999Z</time></trkpt><trkpt lat="45.03996954624484" lon="9.745637518930113"><ele>53.0</ele><time>2026-04-24T14:51:16.999Z</time></trkpt><trkpt lat="45.040185573260146" lon="9.745735956975322"><ele>53.333333333333336</ele><time>2026-04-24T14:51:17.999Z</time></trkpt><trkpt lat="45.040391382504765" lon="9.745816717422265"><ele>53.66666666666667</ele><time>2026-04-24T14:51:18.999Z</time></trkpt><trkpt lat="45.0406008182747" lon="9.74588785135299"><ele>54.0</ele><time>2026-04-24T14:51:19.999Z</time></trkpt><trkpt lat="45.04080073437775" lon="9.745964585395715"><ele>53.0</ele><time>2026-04-24T14:51:20.999Z</time></trkpt><trkpt lat="45.041015569307774" lon="9.74605042520881"><ele>52.0</ele><time>2026-04-24T14:51:21.999Z</time></trkpt><trkpt lat="45.04122116849546" lon="9.74611214526214"><ele>51.0</ele><time>2026-04-24T14:51:22.999Z</time></trkpt><trkpt lat="45.04140889619781" lon="9.746227626916207"><ele>51.0</ele><time>2026-04-24T14:51:23.999Z</time></trkpt><trkpt lat="45.04160241596287" lon="9.74630467424499"><ele>51.0</ele><time>2026-04-24T14:51:24.999Z</time></trkpt><trkpt lat="45.04179915873652" lon="9.746379126474356"><ele>51.0</ele><time>2026-04-24T14:51:25.999Z</time></trkpt><trkpt lat="45.041993516842346" lon="9.74647186802859"><ele>51.0</ele><time>2026-04-24T14:51:26.999Z</time></trkpt><trkpt lat="45.04219084537721" lon="9.74653282164795"><ele>51.0</ele><time>2026-04-24T14:51:27.999Z</time></trkpt><trkpt lat="45.04238841228882" lon="9.746616998976808"><ele>51.0</ele><time>2026-04-24T14:51:28.999Z</time></trkpt><trkpt lat="45.04258480490606" lon="9.746696729937653"><ele>51.0</ele><time>2026-04-24T14:51:29.999Z</time></trkpt><trkpt lat="45.04275560280839" lon="9.746808403715635"><ele>51.0</ele><time>2026-04-24T14:51:30.999Z</time></trkpt><trkpt lat="45.042933939552135" lon="9.746885289227503"><ele>51.0</ele><time>2026-04-24T14:51:31.999Z</time></trkpt><trkpt lat="45.04311310905441" lon="9.746943474697064"><ele>50.0</ele><time>2026-04-24T14:51:32.999Z</time></trkpt><trkpt lat="45.043314159236076" lon="9.746996569306193"><ele>49.0</ele><time>2026-04-24T14:51:33.999Z</time></trkpt><trkpt lat="45.04351019770373" lon="9.746975285729906"><ele>48.0</ele><time>2026-04-24T14:51:34.999Z</time></trkpt><trkpt lat="45.043724840756965" lon="9.74701748731251"><ele>48.0</ele><time>2026-04-24T14:51:35.999Z</time></trkpt><trkpt lat="45.04392233757378" lon="9.747004122225214"><ele>48.0</ele><time>2026-04-24T14:51:36.999Z</time></trkpt><trkpt lat="45.0440977523237" lon="9.746930615514826"><ele>48.0</ele><time>2026-04-24T14:51:37.999Z</time></trkpt><trkpt lat="45.0442787913348" lon="9.74685527796184"><ele>48.33333333333333</ele><time>2026-04-24T14:51:38.999Z</time></trkpt><trkpt lat="45.044443045971434" lon="9.746777300130075"><ele>48.666666666666664</ele><time>2026-04-24T14:51:39.999Z</time></trkpt><trkpt lat="45.044597643573695" lon="9.746721227916522"><ele>49.0</ele><time>2026-04-24T14:51:40.999Z</time></trkpt><trkpt lat="45.044734147801016" lon="9.746620442561095"><ele>49.0</ele><time>2026-04-24T14:51:41.999Z</time></trkpt><trkpt lat="45.0448730619703" lon="9.746526301863183"><ele>49.0</ele><time>2026-04-24T14:51:42.999Z</time></trkpt><trkpt lat="45.04500920019743" lon="9.746401747433126"><ele>49.0</ele><time>2026-04-24T14:51:43.999Z</time></trkpt><trkpt lat="45.045140776874064" lon="9.74628945004269"><ele>49.0</ele><time>2026-04-24T14:51:44.999Z</time></trkpt><trkpt lat="45.0452777406697" lon="9.746204717242746"><ele>49.0</ele><time>2026-04-24T14:51:45.999Z</time></trkpt><trkpt lat="45.04539778883009" lon="9.746066959014852"><ele>49.0</ele><time>2026-04-24T14:51:46.999Z</time></trkpt><trkpt lat="45.045524112263564" lon="9.74597266239524"><ele>49.0</ele><time>2026-04-24T14:51:47.999Z</time></trkpt><trkpt lat="45.045651998384805" lon="9.745890152483456"><ele>49.0</ele><time>2026-04-24T14:51:48.999Z</time></trkpt><trkpt lat="45.04577828918285" lon="9.745807165737693"><ele>49.0</ele><time>2026-04-24T14:51:49.999Z</time></trkpt><trkpt lat="45.045902083843465" lon="9.745740367839696"><ele>49.0</ele><time>2026-04-24T14:51:50.999Z</time></trkpt><trkpt lat="45.04604282919143" lon="9.745742427075372"><ele>49.0</ele><time>2026-04-24T14:51:51.999Z</time></trkpt><trkpt lat="45.04615717854558" lon="9.74572914036573"><ele>49.0</ele><time>2026-04-24T14:51:52.999Z</time></trkpt><trkpt lat="45.04627509264842" lon="9.745704451833577"><ele>49.0</ele><time>2026-04-24T14:51:53.999Z</time></trkpt><trkpt lat="45.04638368061736" lon="9.745649181795308"><ele>49.0</ele><time>2026-04-24T14:51:54.999Z</time></trkpt><trkpt lat="45.046498416814934" lon="9.745642579302599"><ele>49.0</ele><time>2026-04-24T14:51:55.999Z</time></trkpt><trkpt lat="45.04660366066331" lon="9.74565735735983"><ele>48.6</ele><time>2026-04-24T14:51:56.999Z</time></trkpt><trkpt lat="45.046691904135514" lon="9.74568099770237"><ele>48.2</ele><time>2026-04-24T14:51:57.999Z</time></trkpt><trkpt lat="45.0467626438434" lon="9.745706223473782"><ele>47.800000000000004</ele><time>2026-04-24T14:51:58.999Z</time></trkpt><trkpt lat="45.04688655610616" lon="9.74584636405222"><ele>47.400000000000006</ele><time>2026-04-24T14:52:00.998Z</time></trkpt><trkpt lat="45.04697657063856" lon="9.745888971523996"><ele>47.0</ele><time>2026-04-24T14:52:01.998Z</time></trkpt><trkpt lat="45.047045197710126" lon="9.745916660922552"><ele>47.0</ele><time>2026-04-24T14:52:02.998Z</time></trkpt><trkpt lat="45.047123914608385" lon="9.745950624740907"><ele>47.0</ele><time>2026-04-24T14:52:03.998Z</time></trkpt><trkpt lat="45.047183009947226" lon="9.74602689801489"><ele>47.0</ele><time>2026-04-24T14:52:04.998Z</time></trkpt><trkpt lat="45.04725368268121" lon="9.746087648782375"><ele>47.0</ele><time>2026-04-24T14:52:05.998Z</time></trkpt><trkpt lat="45.04733231043653" lon="9.746127863638758"><ele>47.0</ele><time>2026-04-24T14:52:06.998Z</time></trkpt><trkpt lat="45.04741869616537" lon="9.74622784465738"><ele>47.0</ele><time>2026-04-24T14:52:07.998Z</time></trkpt><trkpt lat="45.04748457328279" lon="9.746213402137453"><ele>47.2</ele><time>2026-04-24T14:52:08.998Z</time></trkpt><trkpt lat="45.04759149481797" lon="9.746270750165984"><ele>47.400000000000006</ele><time>2026-04-24T14:52:10.998Z</time></trkpt><trkpt lat="45.04764752725361" lon="9.746358210788532"><ele>47.599999999999994</ele><time>2026-04-24T14:52:12.998Z</time></trkpt><trkpt lat="45.047731368960406" lon="9.746444836088164"><ele>47.8</ele><time>2026-04-24T14:52:14.998Z</time></trkpt><trkpt lat="45.047662712410464" lon="9.746578395520295"><ele>48.0</ele><time>2026-04-24T14:52:16.998Z</time></trkpt><trkpt lat="45.04762501802601" lon="9.746678910371433"><ele>48.0</ele><time>2026-04-24T14:52:17.998Z</time></trkpt><trkpt lat="45.04756919058349" lon="9.746782075650183"><ele>48.0</ele><time>2026-04-24T14:52:18.998Z</time></trkpt><trkpt lat="45.04751310864533" lon="9.746907655114162"><ele>48.0</ele><time>2026-04-24T14:52:19.998Z</time></trkpt><trkpt lat="45.04740521131549" lon="9.746987505728645"><ele>48.0</ele><time>2026-04-24T14:52:20.998Z</time></trkpt><trkpt lat="45.04729501393942" lon="9.747066087309912"><ele>48.0</ele><time>2026-04-24T14:52:21.998Z</time></trkpt><trkpt lat="45.047193329324855" lon="9.747151205907967"><ele>47.25</ele><time>2026-04-24T14:52:22.998Z</time></trkpt><trkpt lat="45.047091097328426" lon="9.747241966873165"><ele>46.5</ele><time>2026-04-24T14:52:23.998Z</time></trkpt><trkpt lat="45.04697028930935" lon="9.747335470935456"><ele>45.75</ele><time>2026-04-24T14:52:24.998Z</time></trkpt><trkpt lat="45.04686001740758" lon="9.747444922190024"><ele>45.0</ele><time>2026-04-24T14:52:25.998Z</time></trkpt><trkpt lat="45.046749365592" lon="9.747542836739743"><ele>45.75</ele><time>2026-04-24T14:52:26.998Z</time></trkpt><trkpt lat="45.04659829183364" lon="9.747597086039898"><ele>46.5</ele><time>2026-04-24T14:52:27.998Z</time></trkpt><trkpt lat="45.04651172575113" lon="9.747708791535802"><ele>47.25</ele><time>2026-04-24T14:52:28.998Z</time></trkpt><trkpt lat="45.04642316888144" lon="9.747799811042633"><ele>48.0</ele><time>2026-04-24T14:52:29.998Z</time></trkpt><trkpt lat="45.046350642798345" lon="9.74790349114669"><ele>48.2</ele><time>2026-04-24T14:52:30.998Z</time></trkpt><trkpt lat="45.04627951197854" lon="9.747990838828205"><ele>48.4</ele><time>2026-04-24T14:52:31.998Z</time></trkpt><trkpt lat="45.04620560098613" lon="9.74807428447057"><ele>48.6</ele><time>2026-04-24T14:52:32.998Z</time></trkpt><trkpt lat="45.04612797276604" lon="9.748130318401927"><ele>48.800000000000004</ele><time>2026-04-24T14:52:33.998Z</time></trkpt><trkpt lat="45.046054450331226" lon="9.74819534871934"><ele>49.0</ele><time>2026-04-24T14:52:34.998Z</time></trkpt><trkpt lat="45.04597139232301" lon="9.748253170163197"><ele>49.0</ele><time>2026-04-24T14:52:35.998Z</time></trkpt><trkpt lat="45.0458986759129" lon="9.748331712194107"><ele>49.0</ele><time>2026-04-24T14:52:36.998Z</time></trkpt><trkpt lat="45.045821643977135" lon="9.748413123792217"><ele>49.0</ele><time>2026-04-24T14:52:37.998Z</time></trkpt><trkpt lat="45.04573222116012" lon="9.74850056689741"><ele>49.0</ele><time>2026-04-24T14:52:38.998Z</time></trkpt><trkpt lat="45.04565541134036" lon="9.748602297826539"><ele>49.0</ele><time>2026-04-24T14:52:39.998Z</time></trkpt><trkpt lat="45.04556912605301" lon="9.74870002017509"><ele>48.75</ele><time>2026-04-24T14:52:40.998Z</time></trkpt><trkpt lat="45.045487237725794" lon="9.748818064130957"><ele>48.5</ele><time>2026-04-24T14:52:41.998Z</time></trkpt><trkpt lat="45.04540182930761" lon="9.748954626528333"><ele>48.25</ele><time>2026-04-24T14:52:42.998Z</time></trkpt><trkpt lat="45.04531573698073" lon="9.74911616023735"><ele>48.0</ele><time>2026-04-24T14:52:43.998Z</time></trkpt><trkpt lat="45.0452257301221" lon="9.749280566857303"><ele>48.0</ele><time>2026-04-24T14:52:44.998Z</time></trkpt><trkpt lat="45.045128773456064" lon="9.749417796851713"><ele>48.0</ele><time>2026-04-24T14:52:45.998Z</time></trkpt><trkpt lat="45.04503876595173" lon="9.749533516473821"><ele>48.0</ele><time>2026-04-24T14:52:46.998Z</time></trkpt><trkpt lat="45.04495712729461" lon="9.74963375933337"><ele>48.0</ele><time>2026-04-24T14:52:47.998Z</time></trkpt><trkpt lat="45.04489435864517" lon="9.749759320451785"><ele>47.833333333333336</ele><time>2026-04-24T14:52:48.998Z</time></trkpt><trkpt lat="45.04484071589024" lon="9.749870510660369"><ele>47.666666666666664</ele><time>2026-04-24T14:52:49.998Z</time></trkpt><trkpt lat="45.0447901921521" lon="9.749946324050766"><ele>47.5</ele><time>2026-04-24T14:52:50.998Z</time></trkpt><trkpt lat="45.04473661267796" lon="9.750019218117782"><ele>47.33333333333333</ele><time>2026-04-24T14:52:51.997Z</time></trkpt><trkpt lat="45.044688038028276" lon="9.750077113103881"><ele>47.166666666666664</ele><time>2026-04-24T14:52:52.997Z</time></trkpt><trkpt lat="45.04461306888306" lon="9.750209291040862"><ele>47.0</ele><time>2026-04-24T14:52:54.997Z</time></trkpt><trkpt lat="45.044547497017184" lon="9.750248347268428"><ele>47.0</ele><time>2026-04-24T14:52:56.997Z</time></trkpt><trkpt lat="45.04447923601824" lon="9.75023767780496"><ele>47.0</ele><time>2026-04-24T14:52:58.997Z</time></trkpt><trkpt lat="45.04442827526193" lon="9.750299699008599"><ele>47.0</ele><time>2026-04-24T14:53:00.997Z</time></trkpt><trkpt lat="45.04447798266903" lon="9.750383508477032"><ele>47.0</ele><time>2026-04-24T14:53:09.997Z</time></trkpt><trkpt lat="45.04447768931568" lon="9.750567681529985"><ele>47.0</ele><time>2026-04-24T14:53:11.997Z</time></trkpt><trkpt lat="45.04442293329686" lon="9.750731253545837"><ele>47.0</ele><time>2026-04-24T14:53:12.997Z</time></trkpt><trkpt lat="45.04436933391027" lon="9.750942272304432"><ele>47.0</ele><time>2026-04-24T14:53:13.997Z</time></trkpt><trkpt lat="45.04430409170201" lon="9.751181380181746"><ele>47.0</ele><time>2026-04-24T14:53:14.997Z</time></trkpt><trkpt lat="45.04422905624347" lon="9.751451741618869"><ele>47.33333333333333</ele><time>2026-04-24T14:53:15.997Z</time></trkpt><trkpt lat="45.04413862241509" lon="9.751722263589926"><ele>47.666666666666664</ele><time>2026-04-24T14:53:16.997Z</time></trkpt><trkpt lat="45.04406267497322" lon="9.75201067980583"><ele>48.0</ele><time>2026-04-24T14:53:17.997Z</time></trkpt><trkpt lat="45.04397710993375" lon="9.75230383089537"><ele>46.5</ele><time>2026-04-24T14:53:18.997Z</time></trkpt><trkpt lat="45.0439015045939" lon="9.752602481717958"><ele>45.0</ele><time>2026-04-24T14:53:19.997Z</time></trkpt><trkpt lat="45.04383881109352" lon="9.752930463749781"><ele>44.666666666666664</ele><time>2026-04-24T14:53:20.997Z</time></trkpt><trkpt lat="45.04381239318377" lon="9.753214423465332"><ele>44.33333333333333</ele><time>2026-04-24T14:53:21.997Z</time></trkpt><trkpt lat="45.043810087242655" lon="9.753474506511475"><ele>44.0</ele><time>2026-04-24T14:53:22.997Z</time></trkpt><trkpt lat="45.04382007543202" lon="9.753718703583685"><ele>44.0</ele><time>2026-04-24T14:53:23.997Z</time></trkpt><trkpt lat="45.043837452222384" lon="9.753961073042742"><ele>44.0</ele><time>2026-04-24T14:53:24.997Z</time></trkpt><trkpt lat="45.04390150091858" lon="9.754185325032058"><ele>44.0</ele><time>2026-04-24T14:53:25.997Z</time></trkpt><trkpt lat="45.04400870789654" lon="9.754352628513933"><ele>44.33333333333333</ele><time>2026-04-24T14:53:26.997Z</time></trkpt><trkpt lat="45.04411017413448" lon="9.754524720077434"><ele>44.666666666666664</ele><time>2026-04-24T14:53:27.997Z</time></trkpt><trkpt lat="45.04423512840095" lon="9.75468037876711"><ele>45.0</ele><time>2026-04-24T14:53:28.997Z</time></trkpt><trkpt lat="45.04433226043029" lon="9.754856937647272"><ele>45.0</ele><time>2026-04-24T14:53:29.997Z</time></trkpt><trkpt lat="45.04442446457341" lon="9.755019573996572"><ele>45.0</ele><time>2026-04-24T14:53:30.997Z</time></trkpt><trkpt lat="45.044533749647904" lon="9.755157386574023"><ele>45.0</ele><time>2026-04-24T14:53:31.997Z</time></trkpt><trkpt lat="45.04460301455444" lon="9.755345019533987"><ele>45.0</ele><time>2026-04-24T14:53:32.997Z</time></trkpt><trkpt lat="45.04465955160829" lon="9.755493463489918"><ele>45.0</ele><time>2026-04-24T14:53:33.997Z</time></trkpt><trkpt lat="45.04473102478456" lon="9.755639246239365"><ele>45.0</ele><time>2026-04-24T14:53:34.997Z</time></trkpt><trkpt lat="45.04478167419755" lon="9.755768115389378"><ele>45.0</ele><time>2026-04-24T14:53:35.997Z</time></trkpt><trkpt lat="45.04486297387882" lon="9.75589863802994"><ele>45.0</ele><time>2026-04-24T14:53:36.997Z</time></trkpt><trkpt lat="45.04496780487237" lon="9.756047073387744"><ele>46.0</ele><time>2026-04-24T14:53:37.997Z</time></trkpt><trkpt lat="45.04509547896784" lon="9.756246024267607"><ele>47.0</ele><time>2026-04-24T14:53:38.997Z</time></trkpt><trkpt lat="45.0452343301698" lon="9.756397681428174"><ele>48.0</ele><time>2026-04-24T14:53:39.997Z</time></trkpt><trkpt lat="45.045387090598474" lon="9.756496263753036"><ele>48.0</ele><time>2026-04-24T14:53:40.997Z</time></trkpt><trkpt lat="45.04550217681346" lon="9.75660077741491"><ele>48.0</ele><time>2026-04-24T14:53:41.997Z</time></trkpt><trkpt lat="45.045638159004504" lon="9.756666345649373"><ele>48.0</ele><time>2026-04-24T14:53:42.997Z</time></trkpt><trkpt lat="45.045778660765315" lon="9.756657843199179"><ele>48.0</ele><time>2026-04-24T14:53:43.997Z</time></trkpt><trkpt lat="45.045935495433746" lon="9.756636954320411"><ele>47.333333333333336</ele><time>2026-04-24T14:53:44.996Z</time></trkpt><trkpt lat="45.04608067483561" lon="9.756552094283924"><ele>46.66666666666667</ele><time>2026-04-24T14:53:45.996Z</time></trkpt><trkpt lat="45.04622374094481" lon="9.756439290740234"><ele>46.0</ele><time>2026-04-24T14:53:46.996Z</time></trkpt><trkpt lat="45.04639669924866" lon="9.756263786757701"><ele>46.0</ele><time>2026-04-24T14:53:47.996Z</time></trkpt><trkpt lat="45.04651135688534" lon="9.756067442980264"><ele>46.0</ele><time>2026-04-24T14:53:48.996Z</time></trkpt><trkpt lat="45.046584096473374" lon="9.755848221825563"><ele>46.0</ele><time>2026-04-24T14:53:49.996Z</time></trkpt><trkpt lat="45.046620440212195" lon="9.755620691857132"><ele>46.0</ele><time>2026-04-24T14:53:50.996Z</time></trkpt><trkpt lat="45.04664887591762" lon="9.75539408938132"><ele>46.0</ele><time>2026-04-24T14:53:51.996Z</time></trkpt><trkpt lat="45.04667386012695" lon="9.755182449888968"><ele>46.0</ele><time>2026-04-24T14:53:52.996Z</time></trkpt><trkpt lat="45.04671548112756" lon="9.754987732593921"><ele>46.0</ele><time>2026-04-24T14:53:53.996Z</time></trkpt><trkpt lat="45.04673048190352" lon="9.754756542392238"><ele>46.0</ele><time>2026-04-24T14:53:54.996Z</time></trkpt><trkpt lat="45.046741163855444" lon="9.754525179919787"><ele>46.0</ele><time>2026-04-24T14:53:55.996Z</time></trkpt><trkpt lat="45.04676431383093" lon="9.75432599427771"><ele>46.0</ele><time>2026-04-24T14:53:56.996Z</time></trkpt><trkpt lat="45.046774835700354" lon="9.754076032007847"><ele>46.0</ele><time>2026-04-24T14:53:57.996Z</time></trkpt><trkpt lat="45.04683199980565" lon="9.753854985577624"><ele>46.0</ele><time>2026-04-24T14:53:58.996Z</time></trkpt><trkpt lat="45.046904460909865" lon="9.75364084210811"><ele>45.66666666666667</ele><time>2026-04-24T14:53:59.996Z</time></trkpt><trkpt lat="45.04698198658006" lon="9.753425867063648"><ele>45.333333333333336</ele><time>2026-04-24T14:54:00.996Z</time></trkpt><trkpt lat="45.04706034823874" lon="9.75322783250216"><ele>45.0</ele><time>2026-04-24T14:54:01.996Z</time></trkpt><trkpt lat="45.0471673062996" lon="9.753038605658004"><ele>45.0</ele><time>2026-04-24T14:54:02.996Z</time></trkpt><trkpt lat="45.047273620985465" lon="9.752837226941125"><ele>45.0</ele><time>2026-04-24T14:54:03.996Z</time></trkpt><trkpt lat="45.04738998814245" lon="9.75264920796013"><ele>45.0</ele><time>2026-04-24T14:54:04.996Z</time></trkpt><trkpt lat="45.0475298907136" lon="9.752492765154408"><ele>45.333333333333336</ele><time>2026-04-24T14:54:05.996Z</time></trkpt><trkpt lat="45.04769847930239" lon="9.752353616941438"><ele>45.66666666666667</ele><time>2026-04-24T14:54:06.996Z</time></trkpt><trkpt lat="45.04789130015925" lon="9.752201501182425"><ele>46.0</ele><time>2026-04-24T14:54:07.996Z</time></trkpt><trkpt lat="45.04804143617006" lon="9.752008202981475"><ele>46.0</ele><time>2026-04-24T14:54:08.996Z</time></trkpt><trkpt lat="45.04822565233733" lon="9.751853707024312"><ele>46.0</ele><time>2026-04-24T14:54:09.996Z</time></trkpt><trkpt lat="45.048396777245216" lon="9.751712852535835"><ele>46.0</ele><time>2026-04-24T14:54:10.996Z</time></trkpt><trkpt lat="45.048547607808025" lon="9.751504578589794"><ele>45.66666666666667</ele><time>2026-04-24T14:54:11.996Z</time></trkpt><trkpt lat="45.04871962522388" lon="9.751334003848992"><ele>45.333333333333336</ele><time>2026-04-24T14:54:12.996Z</time></trkpt><trkpt lat="45.04890183187427" lon="9.751169773903674"><ele>45.0</ele><time>2026-04-24T14:54:13.996Z</time></trkpt><trkpt lat="45.04907198867042" lon="9.750968984229884"><ele>45.0</ele><time>2026-04-24T14:54:14.996Z</time></trkpt><trkpt lat="45.04926551354554" lon="9.750773938376105"><ele>45.0</ele><time>2026-04-24T14:54:15.996Z</time></trkpt><trkpt lat="45.04945332587594" lon="9.750597527457291"><ele>45.0</ele><time>2026-04-24T14:54:16.996Z</time></trkpt><trkpt lat="45.04963268312436" lon="9.75041904083333"><ele>45.0</ele><time>2026-04-24T14:54:17.996Z</time></trkpt><trkpt lat="45.049796171293146" lon="9.750251248693349"><ele>45.0</ele><time>2026-04-24T14:54:18.996Z</time></trkpt><trkpt lat="45.04997572806206" lon="9.750049592650043"><ele>45.333333333333336</ele><time>2026-04-24T14:54:19.996Z</time></trkpt><trkpt lat="45.05016404184366" lon="9.74989729260518"><ele>45.66666666666667</ele><time>2026-04-24T14:54:20.996Z</time></trkpt><trkpt lat="45.050356924338146" lon="9.749730788539024"><ele>46.0</ele><time>2026-04-24T14:54:21.996Z</time></trkpt><trkpt lat="45.05056262331367" lon="9.749623568869746"><ele>46.0</ele><time>2026-04-24T14:54:22.996Z</time></trkpt><trkpt lat="45.050742916390995" lon="9.749456819622344"><ele>46.0</ele><time>2026-04-24T14:54:23.996Z</time></trkpt><trkpt lat="45.05090783940225" lon="9.749260961485218"><ele>46.0</ele><time>2026-04-24T14:54:24.996Z</time></trkpt><trkpt lat="45.05107474419594" lon="9.749081129041318"><ele>46.333333333333336</ele><time>2026-04-24T14:54:25.996Z</time></trkpt><trkpt lat="45.05125638104882" lon="9.74896820433347"><ele>46.666666666666664</ele><time>2026-04-24T14:54:26.996Z</time></trkpt><trkpt lat="45.051446611536925" lon="9.74884471990502"><ele>47.0</ele><time>2026-04-24T14:54:27.996Z</time></trkpt><trkpt lat="45.05164239523516" lon="9.748697226858017"><ele>47.0</ele><time>2026-04-24T14:54:28.996Z</time></trkpt><trkpt lat="45.0518415371543" lon="9.748652984310967"><ele>47.0</ele><time>2026-04-24T14:54:29.996Z</time></trkpt><trkpt lat="45.051987798055706" lon="9.748429848254618"><ele>47.0</ele><time>2026-04-24T14:54:30.996Z</time></trkpt><trkpt lat="45.0521635020388" lon="9.748255459868913"><ele>47.0</ele><time>2026-04-24T14:54:31.996Z</time></trkpt><trkpt lat="45.05231187733216" lon="9.748026059927074"><ele>47.0</ele><time>2026-04-24T14:54:32.996Z</time></trkpt><trkpt lat="45.052452908963375" lon="9.747790235939677"><ele>47.0</ele><time>2026-04-24T14:54:33.996Z</time></trkpt><trkpt lat="45.05262987922307" lon="9.747614972310096"><ele>47.5</ele><time>2026-04-24T14:54:34.996Z</time></trkpt><trkpt lat="45.05278880297156" lon="9.74736313925181"><ele>48.0</ele><time>2026-04-24T14:54:35.996Z</time></trkpt><trkpt lat="45.05296450596228" lon="9.747126429426208"><ele>48.0</ele><time>2026-04-24T14:54:36.996Z</time></trkpt><trkpt lat="45.053151002438" lon="9.746932731947059"><ele>48.0</ele><time>2026-04-24T14:54:37.995Z</time></trkpt><trkpt lat="45.05334574863348" lon="9.746753792952601"><ele>47.666666666666664</ele><time>2026-04-24T14:54:38.995Z</time></trkpt><trkpt lat="45.05351681745654" lon="9.74656140725174"><ele>47.33333333333333</ele><time>2026-04-24T14:54:39.995Z</time></trkpt><trkpt lat="45.05371559279027" lon="9.74641423499884"><ele>47.0</ele><time>2026-04-24T14:54:40.995Z</time></trkpt><trkpt lat="45.05388225583192" lon="9.746255298099106"><ele>47.0</ele><time>2026-04-24T14:54:41.995Z</time></trkpt><trkpt lat="45.05404121901841" lon="9.746083100734444"><ele>47.0</ele><time>2026-04-24T14:54:42.995Z</time></trkpt><trkpt lat="45.05419183297641" lon="9.745915344761592"><ele>47.0</ele><time>2026-04-24T14:54:43.995Z</time></trkpt><trkpt lat="45.05436832847074" lon="9.745811261156513"><ele>46.666666666666664</ele><time>2026-04-24T14:54:44.995Z</time></trkpt><trkpt lat="45.05451625010081" lon="9.745641746416194"><ele>46.333333333333336</ele><time>2026-04-24T14:54:45.995Z</time></trkpt><trkpt lat="45.054659945628146" lon="9.745487313757296"><ele>46.0</ele><time>2026-04-24T14:54:46.995Z</time></trkpt><trkpt lat="45.05480146080159" lon="9.745302523825773"><ele>46.0</ele><time>2026-04-24T14:54:47.995Z</time></trkpt><trkpt lat="45.0549617613715" lon="9.74518877329068"><ele>46.0</ele><time>2026-04-24T14:54:48.995Z</time></trkpt><trkpt lat="45.05511052237919" lon="9.745008662674293"><ele>46.0</ele><time>2026-04-24T14:54:49.995Z</time></trkpt><trkpt lat="45.05527417337355" lon="9.744848742985797"><ele>46.0</ele><time>2026-04-24T14:54:50.995Z</time></trkpt><trkpt lat="45.05543285124938" lon="9.744721638033102"><ele>46.0</ele><time>2026-04-24T14:54:51.995Z</time></trkpt><trkpt lat="45.05558993760609" lon="9.74457907843865"><ele>46.0</ele><time>2026-04-24T14:54:52.995Z</time></trkpt><trkpt lat="45.055898404987246" lon="9.744236770249815"><ele>46.0</ele><time>2026-04-24T14:54:54.995Z</time></trkpt><trkpt lat="45.05604715714223" lon="9.744080061095541"><ele>46.0</ele><time>2026-04-24T14:54:55.995Z</time></trkpt><trkpt lat="45.05620817326248" lon="9.743926108345399"><ele>46.0</ele><time>2026-04-24T14:54:56.995Z</time></trkpt><trkpt lat="45.05637679733109" lon="9.743799596887127"><ele>46.0</ele><time>2026-04-24T14:54:57.995Z</time></trkpt><trkpt lat="45.05651943604846" lon="9.743612567334408"><ele>46.0</ele><time>2026-04-24T14:54:58.995Z</time></trkpt><trkpt lat="45.05667185277018" lon="9.7434707304808"><ele>46.0</ele><time>2026-04-24T14:54:59.995Z</time></trkpt><trkpt lat="45.05684698443329" lon="9.743394991966152"><ele>45.66666666666667</ele><time>2026-04-24T14:55:00.995Z</time></trkpt><trkpt lat="45.05697302875257" lon="9.743246157766034"><ele>45.333333333333336</ele><time>2026-04-24T14:55:01.995Z</time></trkpt><trkpt lat="45.05710498488379" lon="9.743101797760502"><ele>45.0</ele><time>2026-04-24T14:55:02.995Z</time></trkpt><trkpt lat="45.057233725183416" lon="9.742964067439521"><ele>45.0</ele><time>2026-04-24T14:55:03.995Z</time></trkpt><trkpt lat="45.057361796554254" lon="9.742846060370134"><ele>45.0</ele><time>2026-04-24T14:55:04.995Z</time></trkpt><trkpt lat="45.057506391156515" lon="9.742683081147009"><ele>45.0</ele><time>2026-04-24T14:55:05.995Z</time></trkpt><trkpt lat="45.05764894032895" lon="9.7425329626"><ele>46.0</ele><time>2026-04-24T14:55:06.995Z</time></trkpt><trkpt lat="45.057799396412314" lon="9.74238594918878"><ele>47.0</ele><time>2026-04-24T14:55:07.995Z</time></trkpt><trkpt lat="45.057943629872156" lon="9.742208113206837"><ele>48.0</ele><time>2026-04-24T14:55:08.995Z</time></trkpt><trkpt lat="45.05811089320903" lon="9.742068844065257"><ele>48.0</ele><time>2026-04-24T14:55:09.995Z</time></trkpt><trkpt lat="45.05829488577654" lon="9.741890865010966"><ele>48.0</ele><time>2026-04-24T14:55:10.995Z</time></trkpt><trkpt lat="45.058456722362926" lon="9.741734300632931"><ele>48.0</ele><time>2026-04-24T14:55:11.995Z</time></trkpt><trkpt lat="45.05860012372484" lon="9.741602225743806"><ele>47.333333333333336</ele><time>2026-04-24T14:55:12.995Z</time></trkpt><trkpt lat="45.05875041922664" lon="9.741453724733107"><ele>46.66666666666667</ele><time>2026-04-24T14:55:13.995Z</time></trkpt><trkpt lat="45.058893693033895" lon="9.741295190762418"><ele>46.0</ele><time>2026-04-24T14:55:14.995Z</time></trkpt><trkpt lat="45.05903959855892" lon="9.741173125884686"><ele>46.0</ele><time>2026-04-24T14:55:15.995Z</time></trkpt><trkpt lat="45.05916447878812" lon="9.741054371690405"><ele>46.0</ele><time>2026-04-24T14:55:16.995Z</time></trkpt><trkpt lat="45.059288119920495" lon="9.740937237743177"><ele>46.0</ele><time>2026-04-24T14:55:17.995Z</time></trkpt><trkpt lat="45.05941354073867" lon="9.740831702291098"><ele>46.0</ele><time>2026-04-24T14:55:18.995Z</time></trkpt><trkpt lat="45.059542969848856" lon="9.740719840790497"><ele>46.0</ele><time>2026-04-24T14:55:19.995Z</time></trkpt><trkpt lat="45.05967430084419" lon="9.740606882018625"><ele>46.0</ele><time>2026-04-24T14:55:20.995Z</time></trkpt><trkpt lat="45.059789129924745" lon="9.740469936141421"><ele>46.0</ele><time>2026-04-24T14:55:21.995Z</time></trkpt><trkpt lat="45.059913247302696" lon="9.740341634882546"><ele>46.333333333333336</ele><time>2026-04-24T14:55:22.995Z</time></trkpt><trkpt lat="45.060034215889424" lon="9.740232187355213"><ele>46.666666666666664</ele><time>2026-04-24T14:55:23.995Z</time></trkpt><trkpt lat="45.060182395058646" lon="9.740098786138878"><ele>47.0</ele><time>2026-04-24T14:55:24.995Z</time></trkpt><trkpt lat="45.06030104349659" lon="9.739984213911368"><ele>47.0</ele><time>2026-04-24T14:55:25.995Z</time></trkpt><trkpt lat="45.06042125503345" lon="9.73982161559341"><ele>47.0</ele><time>2026-04-24T14:55:26.995Z</time></trkpt><trkpt lat="45.060556741362475" lon="9.73967221448999"><ele>47.0</ele><time>2026-04-24T14:55:27.995Z</time></trkpt><trkpt lat="45.0606843966564" lon="9.739536810707829"><ele>47.0</ele><time>2026-04-24T14:55:28.995Z</time></trkpt><trkpt lat="45.06080950338229" lon="9.739391380699857"><ele>47.0</ele><time>2026-04-24T14:55:29.995Z</time></trkpt><trkpt lat="45.060953930293344" lon="9.73927836004334"><ele>47.0</ele><time>2026-04-24T14:55:30.994Z</time></trkpt><trkpt lat="45.06109125135428" lon="9.739146230903835"><ele>48.25</ele><time>2026-04-24T14:55:31.994Z</time></trkpt><trkpt lat="45.06120525444169" lon="9.739042154817215"><ele>49.5</ele><time>2026-04-24T14:55:32.994Z</time></trkpt><trkpt lat="45.061332780968286" lon="9.738959040057138"><ele>50.75</ele><time>2026-04-24T14:55:33.994Z</time></trkpt><trkpt lat="45.061474562869186" lon="9.7388301887074"><ele>52.0</ele><time>2026-04-24T14:55:34.994Z</time></trkpt><trkpt lat="45.06160692941737" lon="9.73870988617284"><ele>52.0</ele><time>2026-04-24T14:55:35.994Z</time></trkpt><trkpt lat="45.06173518765723" lon="9.738560543337341"><ele>52.0</ele><time>2026-04-24T14:55:36.994Z</time></trkpt><trkpt lat="45.061895363634356" lon="9.738464778446486"><ele>52.0</ele><time>2026-04-24T14:55:37.994Z</time></trkpt><trkpt lat="45.06201666361886" lon="9.738301645845679"><ele>53.0</ele><time>2026-04-24T14:55:38.994Z</time></trkpt><trkpt lat="45.06213840623867" lon="9.738157287432069"><ele>54.0</ele><time>2026-04-24T14:55:39.994Z</time></trkpt><trkpt lat="45.06227495793968" lon="9.73803420481244"><ele>55.0</ele><time>2026-04-24T14:55:40.994Z</time></trkpt><trkpt lat="45.06240686217715" lon="9.737861477280063"><ele>55.0</ele><time>2026-04-24T14:55:41.994Z</time></trkpt><trkpt lat="45.062569846672794" lon="9.737731283276718"><ele>55.0</ele><time>2026-04-24T14:55:42.994Z</time></trkpt><trkpt lat="45.0627226367823" lon="9.737561402512059"><ele>55.0</ele><time>2026-04-24T14:55:43.994Z</time></trkpt><trkpt lat="45.06288456558249" lon="9.737354464644236"><ele>54.0</ele><time>2026-04-24T14:55:44.994Z</time></trkpt><trkpt lat="45.063058026986845" lon="9.73719111669367"><ele>53.0</ele><time>2026-04-24T14:55:45.994Z</time></trkpt><trkpt lat="45.06323099923355" lon="9.73699917888343"><ele>52.0</ele><time>2026-04-24T14:55:46.994Z</time></trkpt><trkpt lat="45.063412662665" lon="9.736848888195652"><ele>50.5</ele><time>2026-04-24T14:55:47.994Z</time></trkpt><trkpt lat="45.06360244388016" lon="9.736672927341905"><ele>49.0</ele><time>2026-04-24T14:55:48.994Z</time></trkpt><trkpt lat="45.063792737814886" lon="9.736498006244624"><ele>49.0</ele><time>2026-04-24T14:55:49.994Z</time></trkpt><trkpt lat="45.063979253646046" lon="9.736373581418118"><ele>49.0</ele><time>2026-04-24T14:55:50.994Z</time></trkpt><trkpt lat="45.064174285246175" lon="9.736204656075838"><ele>49.0</ele><time>2026-04-24T14:55:51.994Z</time></trkpt><trkpt lat="45.06434050440999" lon="9.735957793778521"><ele>48.5</ele><time>2026-04-24T14:55:52.994Z</time></trkpt><trkpt lat="45.06454386209255" lon="9.735744174832833"><ele>48.0</ele><time>2026-04-24T14:55:53.994Z</time></trkpt><trkpt lat="45.06474094802806" lon="9.735535702906738"><ele>48.0</ele><time>2026-04-24T14:55:54.994Z</time></trkpt><trkpt lat="45.06492510335151" lon="9.735296912478882"><ele>48.0</ele><time>2026-04-24T14:55:55.994Z</time></trkpt><trkpt lat="45.06513020845441" lon="9.735096768784691"><ele>44.5</ele><time>2026-04-24T14:55:56.994Z</time></trkpt><trkpt lat="45.06533225978955" lon="9.734896231994233"><ele>41.0</ele><time>2026-04-24T14:55:57.994Z</time></trkpt><trkpt lat="45.06553109134519" lon="9.734704280447755"><ele>41.0</ele><time>2026-04-24T14:55:58.994Z</time></trkpt><trkpt lat="45.0657269297721" lon="9.7345021705566"><ele>41.0</ele><time>2026-04-24T14:55:59.994Z</time></trkpt><trkpt lat="45.06592113300139" lon="9.734292582213778"><ele>41.0</ele><time>2026-04-24T14:56:00.994Z</time></trkpt><trkpt lat="45.06611670829901" lon="9.734106603072087"><ele>41.0</ele><time>2026-04-24T14:56:01.994Z</time></trkpt><trkpt lat="45.06630904384113" lon="9.73392878591361"><ele>41.0</ele><time>2026-04-24T14:56:02.994Z</time></trkpt><trkpt lat="45.06649838395998" lon="9.733788963114604"><ele>41.0</ele><time>2026-04-24T14:56:03.994Z</time></trkpt><trkpt lat="45.06666881063783" lon="9.733589421229436"><ele>41.0</ele><time>2026-04-24T14:56:04.994Z</time></trkpt><trkpt lat="45.06685177532405" lon="9.733401256912673"><ele>41.666666666666664</ele><time>2026-04-24T14:56:05.994Z</time></trkpt><trkpt lat="45.06703898752132" lon="9.733249104752867"><ele>42.333333333333336</ele><time>2026-04-24T14:56:06.994Z</time></trkpt><trkpt lat="45.067235127887436" lon="9.733078328009485"><ele>43.0</ele><time>2026-04-24T14:56:07.994Z</time></trkpt><trkpt lat="45.06742166298631" lon="9.732897085320968"><ele>45.66666666666667</ele><time>2026-04-24T14:56:08.994Z</time></trkpt><trkpt lat="45.06758217367819" lon="9.732723277588448"><ele>48.333333333333336</ele><time>2026-04-24T14:56:09.994Z</time></trkpt><trkpt lat="45.06774192745979" lon="9.732583416312583"><ele>51.0</ele><time>2026-04-24T14:56:10.994Z</time></trkpt><trkpt lat="45.06790791975742" lon="9.732462440353856"><ele>51.0</ele><time>2026-04-24T14:56:11.994Z</time></trkpt><trkpt lat="45.068017233080866" lon="9.732260638410375"><ele>51.0</ele><time>2026-04-24T14:56:12.994Z</time></trkpt><trkpt lat="45.068168227691224" lon="9.732148550498465"><ele>51.0</ele><time>2026-04-24T14:56:13.994Z</time></trkpt><trkpt lat="45.06831448994071" lon="9.732020913302204"><ele>50.0</ele><time>2026-04-24T14:56:14.994Z</time></trkpt><trkpt lat="45.06846218472992" lon="9.731893848672959"><ele>49.0</ele><time>2026-04-24T14:56:15.994Z</time></trkpt><trkpt lat="45.068596545796865" lon="9.73175772299995"><ele>48.0</ele><time>2026-04-24T14:56:16.994Z</time></trkpt><trkpt lat="45.06873813187992" lon="9.731667015042836"><ele>48.0</ele><time>2026-04-24T14:56:17.994Z</time></trkpt><trkpt lat="45.06886555774019" lon="9.73150511990617"><ele>48.0</ele><time>2026-04-24T14:56:18.994Z</time></trkpt><trkpt lat="45.06901666667461" lon="9.731379542675993"><ele>48.0</ele><time>2026-04-24T14:56:19.994Z</time></trkpt><trkpt lat="45.06916573247664" lon="9.731285858436879"><ele>48.0</ele><time>2026-04-24T14:56:20.994Z</time></trkpt><trkpt lat="45.069290697564924" lon="9.73107564186003"><ele>48.0</ele><time>2026-04-24T14:56:21.994Z</time></trkpt><trkpt lat="45.069452870394514" lon="9.73098884273403"><ele>48.0</ele><time>2026-04-24T14:56:22.994Z</time></trkpt><trkpt lat="45.06957755359327" lon="9.730818931839712"><ele>48.0</ele><time>2026-04-24T14:56:23.993Z</time></trkpt><trkpt lat="45.0697204142839" lon="9.730659113677119"><ele>48.0</ele><time>2026-04-24T14:56:24.993Z</time></trkpt><trkpt lat="45.06985452543776" lon="9.730532197314552"><ele>48.0</ele><time>2026-04-24T14:56:25.993Z</time></trkpt><trkpt lat="45.06999610656077" lon="9.73038587278919"><ele>48.33333333333333</ele><time>2026-04-24T14:56:26.993Z</time></trkpt><trkpt lat="45.07013814369872" lon="9.730231355107131"><ele>48.666666666666664</ele><time>2026-04-24T14:56:27.993Z</time></trkpt><trkpt lat="45.070295731332486" lon="9.73003691762212"><ele>49.0</ele><time>2026-04-24T14:56:28.993Z</time></trkpt><trkpt lat="45.070460429627616" lon="9.729923325273665"><ele>49.0</ele><time>2026-04-24T14:56:29.993Z</time></trkpt><trkpt lat="45.070608825219594" lon="9.729734019566152"><ele>49.0</ele><time>2026-04-24T14:56:30.993Z</time></trkpt><trkpt lat="45.07076673303274" lon="9.729555686353704"><ele>49.0</ele><time>2026-04-24T14:56:31.993Z</time></trkpt><trkpt lat="45.07093758524981" lon="9.729391187455974"><ele>49.0</ele><time>2026-04-24T14:56:32.993Z</time></trkpt><trkpt lat="45.07113575365717" lon="9.729299690395736"><ele>49.0</ele><time>2026-04-24T14:56:33.993Z</time></trkpt><trkpt lat="45.07129235782654" lon="9.729132946696797"><ele>49.0</ele><time>2026-04-24T14:56:34.993Z</time></trkpt><trkpt lat="45.07146024784405" lon="9.729017257443882"><ele>49.0</ele><time>2026-04-24T14:56:35.993Z</time></trkpt><trkpt lat="45.071636878471224" lon="9.728888981618342"><ele>49.0</ele><time>2026-04-24T14:56:36.993Z</time></trkpt><trkpt lat="45.0717997424665" lon="9.728747148057952"><ele>49.0</ele><time>2026-04-24T14:56:37.993Z</time></trkpt><trkpt lat="45.07197726630057" lon="9.728630587059854"><ele>49.33333333333333</ele><time>2026-04-24T14:56:38.993Z</time></trkpt><trkpt lat="45.07213990572852" lon="9.7285005781396"><ele>49.66666666666667</ele><time>2026-04-24T14:56:39.993Z</time></trkpt><trkpt lat="45.072317495747534" lon="9.728339068266205"><ele>50.0</ele><time>2026-04-24T14:56:40.993Z</time></trkpt><trkpt lat="45.07246881553582" lon="9.728184822510872"><ele>49.66666666666667</ele><time>2026-04-24T14:56:41.993Z</time></trkpt><trkpt lat="45.072605209606124" lon="9.727993395780592"><ele>49.33333333333333</ele><time>2026-04-24T14:56:42.993Z</time></trkpt><trkpt lat="45.07273479759862" lon="9.727800817019423"><ele>49.0</ele><time>2026-04-24T14:56:43.993Z</time></trkpt><trkpt lat="45.07292330461682" lon="9.727637863432342"><ele>49.0</ele><time>2026-04-24T14:56:44.993Z</time></trkpt><trkpt lat="45.07307276035883" lon="9.727465854061034"><ele>49.0</ele><time>2026-04-24T14:56:45.993Z</time></trkpt><trkpt lat="45.073201648029396" lon="9.72724589499758"><ele>49.0</ele><time>2026-04-24T14:56:46.993Z</time></trkpt><trkpt lat="45.073328355244996" lon="9.72700612787288"><ele>48.33333333333333</ele><time>2026-04-24T14:56:47.993Z</time></trkpt><trkpt lat="45.073473374774785" lon="9.726866417058972"><ele>47.666666666666664</ele><time>2026-04-24T14:56:48.993Z</time></trkpt><trkpt lat="45.073628890047836" lon="9.726694186577056"><ele>47.0</ele><time>2026-04-24T14:56:49.993Z</time></trkpt><trkpt lat="45.07377710088759" lon="9.726517472158442"><ele>47.0</ele><time>2026-04-24T14:56:50.993Z</time></trkpt><trkpt lat="45.07393248300178" lon="9.726311247026176"><ele>47.0</ele><time>2026-04-24T14:56:51.993Z</time></trkpt><trkpt lat="45.07408764128786" lon="9.726133652015317"><ele>47.0</ele><time>2026-04-24T14:56:52.993Z</time></trkpt><trkpt lat="45.07422873192012" lon="9.725995174352443"><ele>47.666666666666664</ele><time>2026-04-24T14:56:53.993Z</time></trkpt><trkpt lat="45.07436713488578" lon="9.725912936304752"><ele>48.33333333333333</ele><time>2026-04-24T14:56:54.993Z</time></trkpt><trkpt lat="45.07453861294634" lon="9.725797906696492"><ele>49.0</ele><time>2026-04-24T14:56:55.993Z</time></trkpt><trkpt lat="45.07468129371875" lon="9.725640775140427"><ele>49.0</ele><time>2026-04-24T14:56:56.993Z</time></trkpt><trkpt lat="45.07483357209226" lon="9.72544627861863"><ele>49.0</ele><time>2026-04-24T14:56:57.993Z</time></trkpt><trkpt lat="45.074988809194906" lon="9.725276052804183"><ele>49.0</ele><time>2026-04-24T14:56:58.993Z</time></trkpt><trkpt lat="45.07516625844968" lon="9.725112158025164"><ele>48.666666666666664</ele><time>2026-04-24T14:56:59.993Z</time></trkpt><trkpt lat="45.07535520281122" lon="9.724962577651167"><ele>48.33333333333333</ele><time>2026-04-24T14:57:00.993Z</time></trkpt><trkpt lat="45.0755304709981" lon="9.724797896364574"><ele>48.0</ele><time>2026-04-24T14:57:01.993Z</time></trkpt><trkpt lat="45.07567369056705" lon="9.724613235224922"><ele>47.666666666666664</ele><time>2026-04-24T14:57:02.993Z</time></trkpt><trkpt lat="45.07584357237651" lon="9.724444172214733"><ele>47.33333333333333</ele><time>2026-04-24T14:57:03.993Z</time></trkpt><trkpt lat="45.07601148625777" lon="9.724274197738582"><ele>47.0</ele><time>2026-04-24T14:57:04.993Z</time></trkpt><trkpt lat="45.076185287165366" lon="9.724141380625536"><ele>47.0</ele><time>2026-04-24T14:57:05.993Z</time></trkpt><trkpt lat="45.07634890340916" lon="9.723994188912938"><ele>47.0</ele><time>2026-04-24T14:57:06.993Z</time></trkpt><trkpt lat="45.076497473787704" lon="9.723792000300898"><ele>47.0</ele><time>2026-04-24T14:57:07.993Z</time></trkpt><trkpt lat="45.07667161029734" lon="9.723659432393623"><ele>46.666666666666664</ele><time>2026-04-24T14:57:08.993Z</time></trkpt><trkpt lat="45.07683274795983" lon="9.723477859131442"><ele>46.333333333333336</ele><time>2026-04-24T14:57:09.993Z</time></trkpt><trkpt lat="45.07696251896741" lon="9.723356134217505"><ele>46.0</ele><time>2026-04-24T14:57:10.993Z</time></trkpt><trkpt lat="45.077151175109876" lon="9.723214363647507"><ele>46.0</ele><time>2026-04-24T14:57:11.993Z</time></trkpt><trkpt lat="45.07731130530164" lon="9.723025989657824"><ele>46.0</ele><time>2026-04-24T14:57:12.993Z</time></trkpt><trkpt lat="45.077476054530074" lon="9.72290197215244"><ele>46.0</ele><time>2026-04-24T14:57:13.993Z</time></trkpt><trkpt lat="45.077645215419786" lon="9.722711868825405"><ele>46.333333333333336</ele><time>2026-04-24T14:57:14.993Z</time></trkpt><trkpt lat="45.077802712669936" lon="9.722568722630932"><ele>46.666666666666664</ele><time>2026-04-24T14:57:15.993Z</time></trkpt><trkpt lat="45.0779801367318" lon="9.722431128825422"><ele>47.0</ele><time>2026-04-24T14:57:16.992Z</time></trkpt><trkpt lat="45.078117923665666" lon="9.722200377600569"><ele>47.0</ele><time>2026-04-24T14:57:17.992Z</time></trkpt><trkpt lat="45.07828846888535" lon="9.722037443450276"><ele>47.0</ele><time>2026-04-24T14:57:18.992Z</time></trkpt><trkpt lat="45.07843538640027" lon="9.721874840589106"><ele>47.0</ele><time>2026-04-24T14:57:20Z</time></trkpt><trkpt lat="45.078628413052236" lon="9.72167837812842"><ele>47.0</ele><time>2026-04-24T14:57:21Z</time></trkpt><trkpt lat="45.078795308339274" lon="9.721527717202546"><ele>47.0</ele><time>2026-04-24T14:57:22Z</time></trkpt><trkpt lat="45.078951757319125" lon="9.721352141102528"><ele>47.0</ele><time>2026-04-24T14:57:23Z</time></trkpt><trkpt lat="45.079125758803364" lon="9.721139547567452"><ele>47.33333333333333</ele><time>2026-04-24T14:57:24Z</time></trkpt><trkpt lat="45.07930467863264" lon="9.720974260245303"><ele>47.666666666666664</ele><time>2026-04-24T14:57:25Z</time></trkpt><trkpt lat="45.07946500455099" lon="9.720777332805163"><ele>48.0</ele><time>2026-04-24T14:57:26Z</time></trkpt><trkpt lat="45.0796461625579" lon="9.720583495987357"><ele>48.0</ele><time>2026-04-24T14:57:27Z</time></trkpt><trkpt lat="45.07984962877489" lon="9.720435667639835"><ele>48.0</ele><time>2026-04-24T14:57:28Z</time></trkpt><trkpt lat="45.07998957465828" lon="9.720197109435949"><ele>48.0</ele><time>2026-04-24T14:57:29Z</time></trkpt><trkpt lat="45.08014870892386" lon="9.72000022838026"><ele>47.666666666666664</ele><time>2026-04-24T14:57:30Z</time></trkpt><trkpt lat="45.08032089966218" lon="9.719844073441791"><ele>47.33333333333333</ele><time>2026-04-24T14:57:31Z</time></trkpt><trkpt lat="45.08048275421764" lon="9.719659505032483"><ele>47.0</ele><time>2026-04-24T14:57:32Z</time></trkpt><trkpt lat="45.08064554677691" lon="9.719503705734885"><ele>47.0</ele><time>2026-04-24T14:57:33Z</time></trkpt><trkpt lat="45.08079903300739" lon="9.719324528433686"><ele>47.0</ele><time>2026-04-24T14:57:34Z</time></trkpt><trkpt lat="45.08095600019859" lon="9.719172362989855"><ele>47.0</ele><time>2026-04-24T14:57:35Z</time></trkpt><trkpt lat="45.08111488121089" lon="9.718985786811073"><ele>47.0</ele><time>2026-04-24T14:57:36Z</time></trkpt><trkpt lat="45.08128752312148" lon="9.718817242313179"><ele>47.0</ele><time>2026-04-24T14:57:37Z</time></trkpt><trkpt lat="45.08145034597723" lon="9.718634781946694"><ele>47.0</ele><time>2026-04-24T14:57:38Z</time></trkpt><trkpt lat="45.08165155003932" lon="9.71848977313647"><ele>47.666666666666664</ele><time>2026-04-24T14:57:39Z</time></trkpt><trkpt lat="45.08180736113048" lon="9.718272104228003"><ele>48.33333333333333</ele><time>2026-04-24T14:57:40Z</time></trkpt><trkpt lat="45.08195070460075" lon="9.718089339688854"><ele>49.0</ele><time>2026-04-24T14:57:41Z</time></trkpt><trkpt lat="45.08211476512036" lon="9.717917330473718"><ele>49.0</ele><time>2026-04-24T14:57:42Z</time></trkpt><trkpt lat="45.082281575343934" lon="9.717707180977834"><ele>49.0</ele><time>2026-04-24T14:57:43Z</time></trkpt><trkpt lat="45.082461050970856" lon="9.717565663093634"><ele>49.0</ele><time>2026-04-24T14:57:44Z</time></trkpt><trkpt lat="45.082628575247476" lon="9.717383070103185"><ele>49.0</ele><time>2026-04-24T14:57:45Z</time></trkpt><trkpt lat="45.082800557401754" lon="9.717226039972893"><ele>49.0</ele><time>2026-04-24T14:57:46Z</time></trkpt><trkpt lat="45.08296484329061" lon="9.717021184720775"><ele>49.0</ele><time>2026-04-24T14:57:47Z</time></trkpt><trkpt lat="45.08314326158467" lon="9.71682646240544"><ele>50.5</ele><time>2026-04-24T14:57:48Z</time></trkpt><trkpt lat="45.0833532389318" lon="9.716653548762428"><ele>52.0</ele><time>2026-04-24T14:57:49Z</time></trkpt><trkpt lat="45.08352888593992" lon="9.716445644263171"><ele>52.0</ele><time>2026-04-24T14:57:50Z</time></trkpt><trkpt lat="45.08369451424668" lon="9.716229012773223"><ele>52.0</ele><time>2026-04-24T14:57:51Z</time></trkpt><trkpt lat="45.08386053050093" lon="9.716019378186852"><ele>52.0</ele><time>2026-04-24T14:57:52Z</time></trkpt><trkpt lat="45.084038636366564" lon="9.715862072631468"><ele>50.0</ele><time>2026-04-24T14:57:53Z</time></trkpt><trkpt lat="45.08419904546558" lon="9.715643525182902"><ele>48.0</ele><time>2026-04-24T14:57:54Z</time></trkpt><trkpt lat="45.08438413819966" lon="9.71544813558713"><ele>48.0</ele><time>2026-04-24T14:57:55Z</time></trkpt><trkpt lat="45.08456727858321" lon="9.715254609227912"><ele>48.0</ele><time>2026-04-24T14:57:55.999Z</time></trkpt><trkpt lat="45.08474470722949" lon="9.715054037944803"><ele>47.666666666666664</ele><time>2026-04-24T14:57:56.999Z</time></trkpt><trkpt lat="45.08492307240556" lon="9.7148650655719"><ele>47.33333333333333</ele><time>2026-04-24T14:57:57.999Z</time></trkpt><trkpt lat="45.08508554255226" lon="9.71468460925347"><ele>47.0</ele><time>2026-04-24T14:57:58.999Z</time></trkpt><trkpt lat="45.085250601903525" lon="9.71450552441237"><ele>47.0</ele><time>2026-04-24T14:57:59.999Z</time></trkpt><trkpt lat="45.08542202473824" lon="9.714347882324644"><ele>47.0</ele><time>2026-04-24T14:58:00.999Z</time></trkpt><trkpt lat="45.085586042687346" lon="9.714196992806155"><ele>47.0</ele><time>2026-04-24T14:58:01.999Z</time></trkpt><trkpt lat="45.085754008089864" lon="9.7139271810653"><ele>47.0</ele><time>2026-04-24T14:58:02.999Z</time></trkpt><trkpt lat="45.08595540110926" lon="9.713717614666292"><ele>47.0</ele><time>2026-04-24T14:58:03.999Z</time></trkpt><trkpt lat="45.086158433603536" lon="9.713513919899642"><ele>47.0</ele><time>2026-04-24T14:58:04.999Z</time></trkpt><trkpt lat="45.08634959235676" lon="9.713276890905208"><ele>47.0</ele><time>2026-04-24T14:58:05.999Z</time></trkpt><trkpt lat="45.086542295120424" lon="9.713063516628438"><ele>47.0</ele><time>2026-04-24T14:58:06.999Z</time></trkpt><trkpt lat="45.086719592292766" lon="9.712895308971842"><ele>47.0</ele><time>2026-04-24T14:58:07.999Z</time></trkpt><trkpt lat="45.08688548144475" lon="9.71272142251907"><ele>47.0</ele><time>2026-04-24T14:58:08.999Z</time></trkpt><trkpt lat="45.08706996408879" lon="9.712584417086896"><ele>46.5</ele><time>2026-04-24T14:58:09.999Z</time></trkpt><trkpt lat="45.087268790139795" lon="9.712419405137998"><ele>46.0</ele><time>2026-04-24T14:58:10.999Z</time></trkpt><trkpt lat="45.08743992113636" lon="9.712164842801602"><ele>46.0</ele><time>2026-04-24T14:58:11.999Z</time></trkpt><trkpt lat="45.08763042639329" lon="9.711936163766056"><ele>46.0</ele><time>2026-04-24T14:58:12.999Z</time></trkpt><trkpt lat="45.08782165545614" lon="9.711728617588008"><ele>46.0</ele><time>2026-04-24T14:58:13.999Z</time></trkpt><trkpt lat="45.08801097379039" lon="9.711531077056302"><ele>46.0</ele><time>2026-04-24T14:58:14.999Z</time></trkpt><trkpt lat="45.088195992737035" lon="9.71133335056922"><ele>46.0</ele><time>2026-04-24T14:58:15.999Z</time></trkpt><trkpt lat="45.08836927111181" lon="9.711125271448784"><ele>46.0</ele><time>2026-04-24T14:58:16.999Z</time></trkpt><trkpt lat="45.08854097364127" lon="9.710924126869552"><ele>46.0</ele><time>2026-04-24T14:58:17.999Z</time></trkpt><trkpt lat="45.088730157001265" lon="9.710766186367657"><ele>46.0</ele><time>2026-04-24T14:58:18.999Z</time></trkpt><trkpt lat="45.088895327730704" lon="9.710551148481429"><ele>46.0</ele><time>2026-04-24T14:58:19.999Z</time></trkpt><trkpt lat="45.08907346258675" lon="9.710361436482973"><ele>45.5</ele><time>2026-04-24T14:58:20.999Z</time></trkpt><trkpt lat="45.089262719040995" lon="9.71018671370691"><ele>45.0</ele><time>2026-04-24T14:58:21.999Z</time></trkpt><trkpt lat="45.08944075175573" lon="9.70997433759839"><ele>45.0</ele><time>2026-04-24T14:58:22.999Z</time></trkpt><trkpt lat="45.08961639763976" lon="9.709782179678363"><ele>45.0</ele><time>2026-04-24T14:58:23.999Z</time></trkpt><trkpt lat="45.08982420562909" lon="9.70961107062753"><ele>44.0</ele><time>2026-04-24T14:58:24.999Z</time></trkpt><trkpt lat="45.0899866440319" lon="9.709398235360597"><ele>43.0</ele><time>2026-04-24T14:58:25.999Z</time></trkpt><trkpt lat="45.090149047955386" lon="9.709202238935474"><ele>42.0</ele><time>2026-04-24T14:58:26.999Z</time></trkpt><trkpt lat="45.09032952893971" lon="9.709049017478106"><ele>42.0</ele><time>2026-04-24T14:58:27.999Z</time></trkpt><trkpt lat="45.09049924093705" lon="9.708839564188073"><ele>42.0</ele><time>2026-04-24T14:58:28.999Z</time></trkpt><trkpt lat="45.09070882377607" lon="9.70865458875482"><ele>42.333333333333336</ele><time>2026-04-24T14:58:29.999Z</time></trkpt><trkpt lat="45.09086716228784" lon="9.708428970482917"><ele>42.66666666666667</ele><time>2026-04-24T14:58:30.999Z</time></trkpt><trkpt lat="45.09104077737501" lon="9.708245488260886"><ele>43.0</ele><time>2026-04-24T14:58:31.999Z</time></trkpt><trkpt lat="45.09122366872458" lon="9.708070035237455"><ele>43.0</ele><time>2026-04-24T14:58:32.999Z</time></trkpt><trkpt lat="45.091398431482254" lon="9.707858235892429"><ele>43.0</ele><time>2026-04-24T14:58:33.999Z</time></trkpt><trkpt lat="45.091572288663016" lon="9.707645927587606"><ele>45.0</ele><time>2026-04-24T14:58:34.999Z</time></trkpt><trkpt lat="45.09175610492533" lon="9.707439359213954"><ele>47.0</ele><time>2026-04-24T14:58:35.999Z</time></trkpt><trkpt lat="45.09195267644915" lon="9.707257080054255"><ele>47.0</ele><time>2026-04-24T14:58:36.999Z</time></trkpt><trkpt lat="45.09212342730612" lon="9.707028032533776"><ele>47.0</ele><time>2026-04-24T14:58:37.999Z</time></trkpt><trkpt lat="45.09231561460433" lon="9.706811990120832"><ele>45.5</ele><time>2026-04-24T14:58:38.999Z</time></trkpt><trkpt lat="45.09254436297392" lon="9.706604231728093"><ele>44.0</ele><time>2026-04-24T14:58:39.999Z</time></trkpt><trkpt lat="45.092742243204995" lon="9.70639135806682"><ele>44.0</ele><time>2026-04-24T14:58:40.999Z</time></trkpt><trkpt lat="45.09295054018749" lon="9.706187903092104"><ele>44.0</ele><time>2026-04-24T14:58:41.999Z</time></trkpt><trkpt lat="45.0931811689112" lon="9.705950417783667"><ele>44.0</ele><time>2026-04-24T14:58:42.998Z</time></trkpt><trkpt lat="45.09338487987446" lon="9.705697701376232"><ele>44.0</ele><time>2026-04-24T14:58:43.998Z</time></trkpt><trkpt lat="45.09357095195737" lon="9.705483492398157"><ele>44.0</ele><time>2026-04-24T14:58:44.998Z</time></trkpt><trkpt lat="45.09377943380151" lon="9.70527003668598"><ele>44.0</ele><time>2026-04-24T14:58:45.998Z</time></trkpt><trkpt lat="45.09398851517048" lon="9.705050833968995"><ele>44.0</ele><time>2026-04-24T14:58:46.998Z</time></trkpt><trkpt lat="45.094190776544615" lon="9.704834349160308"><ele>44.0</ele><time>2026-04-24T14:58:47.998Z</time></trkpt><trkpt lat="45.09439037444525" lon="9.704624961888081"><ele>44.0</ele><time>2026-04-24T14:58:48.998Z</time></trkpt><trkpt lat="45.094595196723425" lon="9.704428110716545"><ele>44.0</ele><time>2026-04-24T14:58:49.998Z</time></trkpt><trkpt lat="45.09479665574413" lon="9.704164605059331"><ele>44.5</ele><time>2026-04-24T14:58:50.998Z</time></trkpt><trkpt lat="45.09501316004176" lon="9.703971486136782"><ele>45.0</ele><time>2026-04-24T14:58:51.998Z</time></trkpt><trkpt lat="45.09521370102378" lon="9.70372198035137"><ele>44.5</ele><time>2026-04-24T14:58:52.998Z</time></trkpt><trkpt lat="45.095443797802936" lon="9.703523259426905"><ele>44.0</ele><time>2026-04-24T14:58:53.998Z</time></trkpt><trkpt lat="45.0956407931916" lon="9.703285838320683"><ele>44.0</ele><time>2026-04-24T14:58:54.998Z</time></trkpt><trkpt lat="45.09583237700136" lon="9.70303161853327"><ele>44.0</ele><time>2026-04-24T14:58:55.998Z</time></trkpt><trkpt lat="45.096039733866924" lon="9.702798618493372"><ele>44.0</ele><time>2026-04-24T14:58:56.998Z</time></trkpt><trkpt lat="45.09626073929107" lon="9.70262721603434"><ele>44.0</ele><time>2026-04-24T14:58:57.998Z</time></trkpt><trkpt lat="45.09645869663662" lon="9.702388266940872"><ele>44.5</ele><time>2026-04-24T14:58:58.998Z</time></trkpt><trkpt lat="45.09665128102597" lon="9.702185916769496"><ele>45.0</ele><time>2026-04-24T14:58:59.998Z</time></trkpt><trkpt lat="45.0968482067124" lon="9.701965518915607"><ele>45.0</ele><time>2026-04-24T14:59:00.998Z</time></trkpt><trkpt lat="45.09704536857074" lon="9.701751675688143"><ele>45.0</ele><time>2026-04-24T14:59:01.998Z</time></trkpt><trkpt lat="45.09724488618192" lon="9.701518181465579"><ele>45.0</ele><time>2026-04-24T14:59:02.998Z</time></trkpt><trkpt lat="45.09743535518189" lon="9.70136640876622"><ele>45.0</ele><time>2026-04-24T14:59:03.998Z</time></trkpt><trkpt lat="45.09764046189731" lon="9.70113770996953"><ele>44.0</ele><time>2026-04-24T14:59:04.998Z</time></trkpt><trkpt lat="45.09785054537775" lon="9.70091721642659"><ele>43.0</ele><time>2026-04-24T14:59:05.998Z</time></trkpt><trkpt lat="45.09808490479198" lon="9.700741833594156"><ele>43.0</ele><time>2026-04-24T14:59:06.998Z</time></trkpt><trkpt lat="45.09829003439373" lon="9.700495542925063"><ele>43.0</ele><time>2026-04-24T14:59:07.998Z</time></trkpt><trkpt lat="45.098478562258336" lon="9.700215656852343"><ele>43.0</ele><time>2026-04-24T14:59:08.998Z</time></trkpt><trkpt lat="45.09869178216952" lon="9.699987204990618"><ele>43.0</ele><time>2026-04-24T14:59:09.998Z</time></trkpt><trkpt lat="45.09889961387057" lon="9.699777557037867"><ele>43.0</ele><time>2026-04-24T14:59:10.998Z</time></trkpt><trkpt lat="45.09910866334801" lon="9.699613062648057"><ele>43.0</ele><time>2026-04-24T14:59:11.998Z</time></trkpt><trkpt lat="45.099305261702945" lon="9.699383079092796"><ele>44.0</ele><time>2026-04-24T14:59:12.998Z</time></trkpt><trkpt lat="45.0994978662003" lon="9.699153513122214"><ele>45.0</ele><time>2026-04-24T14:59:13.998Z</time></trkpt><trkpt lat="45.099685885433594" lon="9.69893567330546"><ele>45.0</ele><time>2026-04-24T14:59:14.998Z</time></trkpt><trkpt lat="45.09989444384234" lon="9.698709539359902"><ele>45.0</ele><time>2026-04-24T14:59:15.998Z</time></trkpt><trkpt lat="45.10007156684846" lon="9.698489174889"><ele>46.5</ele><time>2026-04-24T14:59:16.998Z</time></trkpt><trkpt lat="45.10026293027042" lon="9.698326119583424"><ele>48.0</ele><time>2026-04-24T14:59:17.998Z</time></trkpt><trkpt lat="45.10045874178899" lon="9.698111934381469"><ele>48.0</ele><time>2026-04-24T14:59:18.998Z</time></trkpt><trkpt lat="45.10066538693569" lon="9.697874479276544"><ele>48.0</ele><time>2026-04-24T14:59:19.998Z</time></trkpt><trkpt lat="45.10087071602955" lon="9.697639335130338"><ele>47.0</ele><time>2026-04-24T14:59:20.998Z</time></trkpt><trkpt lat="45.101071408536704" lon="9.697409952323529"><ele>46.0</ele><time>2026-04-24T14:59:21.998Z</time></trkpt><trkpt lat="45.10128338280295" lon="9.697208538589878"><ele>46.0</ele><time>2026-04-24T14:59:22.998Z</time></trkpt><trkpt lat="45.101496287419906" lon="9.697011807641186"><ele>46.0</ele><time>2026-04-24T14:59:23.998Z</time></trkpt><trkpt lat="45.10169637714616" lon="9.69678854606338"><ele>45.0</ele><time>2026-04-24T14:59:24.998Z</time></trkpt><trkpt lat="45.10190277367084" lon="9.696608546348424"><ele>44.0</ele><time>2026-04-24T14:59:25.998Z</time></trkpt><trkpt lat="45.10209197959326" lon="9.696385532202767"><ele>44.0</ele><time>2026-04-24T14:59:26.998Z</time></trkpt><trkpt lat="45.10230574648526" lon="9.696219516051391"><ele>44.0</ele><time>2026-04-24T14:59:27.998Z</time></trkpt><trkpt lat="45.10249322981108" lon="9.696029505077258"><ele>44.5</ele><time>2026-04-24T14:59:28.998Z</time></trkpt><trkpt lat="45.10269131193402" lon="9.695797976346828"><ele>45.0</ele><time>2026-04-24T14:59:29.998Z</time></trkpt><trkpt lat="45.102874595877836" lon="9.695603382284325"><ele>45.0</ele><time>2026-04-24T14:59:30.998Z</time></trkpt><trkpt lat="45.103074990917165" lon="9.695427852837728"><ele>45.0</ele><time>2026-04-24T14:59:31.998Z</time></trkpt><trkpt lat="45.1032764402275" lon="9.695198140898276"><ele>45.0</ele><time>2026-04-24T14:59:32.997Z</time></trkpt><trkpt lat="45.10346359240767" lon="9.694950737892174"><ele>45.0</ele><time>2026-04-24T14:59:33.997Z</time></trkpt><trkpt lat="45.103667260458536" lon="9.694736136136205"><ele>45.0</ele><time>2026-04-24T14:59:34.997Z</time></trkpt><trkpt lat="45.10387688622326" lon="9.69453837414208"><ele>45.0</ele><time>2026-04-24T14:59:35.997Z</time></trkpt><trkpt lat="45.104068237923606" lon="9.694314746540922"><ele>45.5</ele><time>2026-04-24T14:59:36.997Z</time></trkpt><trkpt lat="45.10425490127438" lon="9.694108376377676"><ele>46.0</ele><time>2026-04-24T14:59:37.997Z</time></trkpt><trkpt lat="45.10444471322266" lon="9.69391296413174"><ele>46.0</ele><time>2026-04-24T14:59:38.997Z</time></trkpt><trkpt lat="45.1046435419727" lon="9.693706351805808"><ele>46.0</ele><time>2026-04-24T14:59:39.997Z</time></trkpt><trkpt lat="45.104842083488464" lon="9.693489122018342"><ele>45.5</ele><time>2026-04-24T14:59:40.997Z</time></trkpt><trkpt lat="45.10503060360382" lon="9.693260777840527"><ele>45.0</ele><time>2026-04-24T14:59:41.997Z</time></trkpt><trkpt lat="45.105239780952196" lon="9.69307147717043"><ele>45.0</ele><time>2026-04-24T14:59:42.997Z</time></trkpt><trkpt lat="45.105430928566534" lon="9.692831043830546"><ele>45.0</ele><time>2026-04-24T14:59:43.997Z</time></trkpt><trkpt lat="45.105634570823355" lon="9.692618458583686"><ele>46.5</ele><time>2026-04-24T14:59:44.997Z</time></trkpt><trkpt lat="45.10585133876663" lon="9.692422931724646"><ele>48.0</ele><time>2026-04-24T14:59:45.997Z</time></trkpt><trkpt lat="45.1060434734247" lon="9.692180509706862"><ele>48.0</ele><time>2026-04-24T14:59:46.997Z</time></trkpt><trkpt lat="45.10624290574424" lon="9.69193718143686"><ele>48.0</ele><time>2026-04-24T14:59:47.997Z</time></trkpt><trkpt lat="45.10642117232968" lon="9.691711450877872"><ele>48.0</ele><time>2026-04-24T14:59:48.997Z</time></trkpt><trkpt lat="45.106612523069906" lon="9.69154053328659"><ele>48.0</ele><time>2026-04-24T14:59:49.997Z</time></trkpt><trkpt lat="45.10680571819037" lon="9.691347646857949"><ele>48.0</ele><time>2026-04-24T14:59:50.997Z</time></trkpt><trkpt lat="45.10700102480687" lon="9.69116078100971"><ele>48.0</ele><time>2026-04-24T14:59:51.997Z</time></trkpt><trkpt lat="45.10719081509439" lon="9.690935326755053"><ele>47.0</ele><time>2026-04-24T14:59:52.997Z</time></trkpt><trkpt lat="45.10739683686748" lon="9.69075840126234"><ele>46.0</ele><time>2026-04-24T14:59:53.997Z</time></trkpt><trkpt lat="45.10759171580064" lon="9.690533902289971"><ele>46.0</ele><time>2026-04-24T14:59:54.997Z</time></trkpt><trkpt lat="45.10778593339628" lon="9.690312099188455"><ele>46.0</ele><time>2026-04-24T14:59:55.997Z</time></trkpt><trkpt lat="45.10797635828892" lon="9.690117755358779"><ele>46.5</ele><time>2026-04-24T14:59:56.997Z</time></trkpt><trkpt lat="45.10820400397878" lon="9.689923582919185"><ele>47.0</ele><time>2026-04-24T14:59:57.997Z</time></trkpt><trkpt lat="45.108376885882095" lon="9.689663230896336"><ele>47.5</ele><time>2026-04-24T14:59:58.997Z</time></trkpt><trkpt lat="45.108560515200885" lon="9.689437011149124"><ele>48.0</ele><time>2026-04-24T14:59:59.997Z</time></trkpt><trkpt lat="45.108763786019814" lon="9.689222812389081"><ele>48.0</ele><time>2026-04-24T15:00:00.997Z</time></trkpt><trkpt lat="45.108941038529125" lon="9.68900799271323"><ele>48.0</ele><time>2026-04-24T15:00:01.997Z</time></trkpt><trkpt lat="45.10911260084571" lon="9.68882056710968"><ele>48.0</ele><time>2026-04-24T15:00:02.997Z</time></trkpt><trkpt lat="45.10932749000754" lon="9.68859937253406"><ele>48.0</ele><time>2026-04-24T15:00:03.997Z</time></trkpt><trkpt lat="45.10950605844197" lon="9.68836672040343"><ele>47.0</ele><time>2026-04-24T15:00:04.997Z</time></trkpt><trkpt lat="45.10969492609498" lon="9.688164211797028"><ele>46.0</ele><time>2026-04-24T15:00:05.997Z</time></trkpt><trkpt lat="45.109843160600356" lon="9.687926978479565"><ele>46.5</ele><time>2026-04-24T15:00:06.997Z</time></trkpt><trkpt lat="45.11002521193976" lon="9.687728824738603"><ele>47.0</ele><time>2026-04-24T15:00:07.997Z</time></trkpt><trkpt lat="45.11021635285803" lon="9.687528942398217"><ele>47.0</ele><time>2026-04-24T15:00:08.997Z</time></trkpt><trkpt lat="45.11038624092858" lon="9.687298705047157"><ele>47.0</ele><time>2026-04-24T15:00:09.997Z</time></trkpt><trkpt lat="45.110573295997824" lon="9.687085020178564"><ele>47.0</ele><time>2026-04-24T15:00:10.997Z</time></trkpt><trkpt lat="45.11074904283923" lon="9.686879784424418"><ele>47.0</ele><time>2026-04-24T15:00:11.997Z</time></trkpt><trkpt lat="45.11091382328508" lon="9.686640280886392"><ele>47.0</ele><time>2026-04-24T15:00:12.997Z</time></trkpt><trkpt lat="45.111100736268384" lon="9.686418856035992"><ele>47.0</ele><time>2026-04-24T15:00:13.997Z</time></trkpt><trkpt lat="45.11126832341739" lon="9.686189665572314"><ele>47.5</ele><time>2026-04-24T15:00:14.997Z</time></trkpt><trkpt lat="45.111446511264525" lon="9.685934155590852"><ele>48.0</ele><time>2026-04-24T15:00:15.997Z</time></trkpt><trkpt lat="45.11161206110772" lon="9.685689875983819"><ele>47.0</ele><time>2026-04-24T15:00:16.997Z</time></trkpt><trkpt lat="45.111815348936354" lon="9.685506900968134"><ele>46.0</ele><time>2026-04-24T15:00:17.997Z</time></trkpt><trkpt lat="45.11197080504079" lon="9.685252178817004"><ele>46.0</ele><time>2026-04-24T15:00:18.997Z</time></trkpt><trkpt lat="45.11213525239582" lon="9.685020581794983"><ele>46.0</ele><time>2026-04-24T15:00:19.997Z</time></trkpt><trkpt lat="45.1123030991408" lon="9.684802899040832"><ele>45.5</ele><time>2026-04-24T15:00:20.997Z</time></trkpt><trkpt lat="45.112459375672465" lon="9.684558100036712"><ele>45.0</ele><time>2026-04-24T15:00:21.997Z</time></trkpt><trkpt lat="45.11263461004851" lon="9.684363605787375"><ele>45.0</ele><time>2026-04-24T15:00:22.997Z</time></trkpt><trkpt lat="45.112790834072165" lon="9.684118682277846"><ele>45.0</ele><time>2026-04-24T15:00:23.996Z</time></trkpt><trkpt lat="45.11294403017762" lon="9.683873319266233"><ele>45.0</ele><time>2026-04-24T15:00:24.996Z</time></trkpt><trkpt lat="45.11311429476545" lon="9.683649517477614"><ele>45.0</ele><time>2026-04-24T15:00:25.996Z</time></trkpt><trkpt lat="45.11327786327943" lon="9.683418441238443"><ele>44.0</ele><time>2026-04-24T15:00:26.996Z</time></trkpt><trkpt lat="45.113433053739314" lon="9.6831941264201"><ele>43.0</ele><time>2026-04-24T15:00:27.996Z</time></trkpt><trkpt lat="45.11358670821249" lon="9.682953718420398"><ele>43.0</ele><time>2026-04-24T15:00:28.996Z</time></trkpt><trkpt lat="45.11375649531595" lon="9.682752857382775"><ele>43.0</ele><time>2026-04-24T15:00:29.996Z</time></trkpt><trkpt lat="45.11389309779958" lon="9.682505899367026"><ele>43.0</ele><time>2026-04-24T15:00:30.996Z</time></trkpt><trkpt lat="45.11408149698276" lon="9.682294539559628"><ele>43.0</ele><time>2026-04-24T15:00:31.996Z</time></trkpt><trkpt lat="45.11421940800333" lon="9.682042842775775"><ele>43.0</ele><time>2026-04-24T15:00:32.996Z</time></trkpt><trkpt lat="45.11438446951676" lon="9.681823334906309"><ele>43.0</ele><time>2026-04-24T15:00:33.996Z</time></trkpt><trkpt lat="45.114540468024636" lon="9.68156698521944"><ele>43.0</ele><time>2026-04-24T15:00:34.996Z</time></trkpt><trkpt lat="45.11469709314137" lon="9.681345398813752"><ele>43.0</ele><time>2026-04-24T15:00:35.996Z</time></trkpt><trkpt lat="45.114865508678086" lon="9.681099769712631"><ele>43.0</ele><time>2026-04-24T15:00:36.996Z</time></trkpt><trkpt lat="45.11502282387488" lon="9.680842152121757"><ele>44.0</ele><time>2026-04-24T15:00:37.996Z</time></trkpt><trkpt lat="45.11520030220615" lon="9.68064679892344"><ele>45.0</ele><time>2026-04-24T15:00:38.996Z</time></trkpt><trkpt lat="45.11535097605911" lon="9.680384153105244"><ele>45.0</ele><time>2026-04-24T15:00:39.996Z</time></trkpt><trkpt lat="45.11552003669726" lon="9.680180994897224"><ele>45.0</ele><time>2026-04-24T15:00:40.996Z</time></trkpt><trkpt lat="45.11568167420392" lon="9.67994731702709"><ele>44.5</ele><time>2026-04-24T15:00:41.996Z</time></trkpt><trkpt lat="45.115831344891674" lon="9.679681439478205"><ele>44.0</ele><time>2026-04-24T15:00:42.996Z</time></trkpt><trkpt lat="45.116010774600795" lon="9.67946860786851"><ele>44.33333333333333</ele><time>2026-04-24T15:00:43.996Z</time></trkpt><trkpt lat="45.116165035466274" lon="9.67927184448729"><ele>44.666666666666664</ele><time>2026-04-24T15:00:44.996Z</time></trkpt><trkpt lat="45.1163164828769" lon="9.679018749416077"><ele>45.0</ele><time>2026-04-24T15:00:45.996Z</time></trkpt><trkpt lat="45.116477838893324" lon="9.678774009978351"><ele>44.5</ele><time>2026-04-24T15:00:46.996Z</time></trkpt><trkpt lat="45.11663543229923" lon="9.67851856054591"><ele>44.0</ele><time>2026-04-24T15:00:47.996Z</time></trkpt><trkpt lat="45.11679893960792" lon="9.67827663691493"><ele>44.0</ele><time>2026-04-24T15:00:48.996Z</time></trkpt><trkpt lat="45.11697600249938" lon="9.678044950362118"><ele>44.0</ele><time>2026-04-24T15:00:49.996Z</time></trkpt><trkpt lat="45.1171412470021" lon="9.677799928897945"><ele>44.0</ele><time>2026-04-24T15:00:50.996Z</time></trkpt><trkpt lat="45.11731736444534" lon="9.677573697676229"><ele>44.0</ele><time>2026-04-24T15:00:51.996Z</time></trkpt><trkpt lat="45.11746688890223" lon="9.677323159742214"><ele>44.0</ele><time>2026-04-24T15:00:52.996Z</time></trkpt><trkpt lat="45.11762841012179" lon="9.67708509192955"><ele>44.0</ele><time>2026-04-24T15:00:53.996Z</time></trkpt><trkpt lat="45.1177901523488" lon="9.676861037239503"><ele>45.5</ele><time>2026-04-24T15:00:54.996Z</time></trkpt><trkpt lat="45.1179568521037" lon="9.67661622498494"><ele>47.0</ele><time>2026-04-24T15:00:55.996Z</time></trkpt><trkpt lat="45.118118552215805" lon="9.676397764722417"><ele>46.666666666666664</ele><time>2026-04-24T15:00:56.996Z</time></trkpt><trkpt lat="45.11827499888447" lon="9.676192661072259"><ele>46.333333333333336</ele><time>2026-04-24T15:00:57.996Z</time></trkpt><trkpt lat="45.11846602057369" lon="9.67599534640979"><ele>46.0</ele><time>2026-04-24T15:00:58.996Z</time></trkpt><trkpt lat="45.118606580126965" lon="9.67574987920667"><ele>45.5</ele><time>2026-04-24T15:00:59.996Z</time></trkpt><trkpt lat="45.118750039107844" lon="9.675487845561417"><ele>45.0</ele><time>2026-04-24T15:01:00.996Z</time></trkpt><trkpt lat="45.118913792011796" lon="9.67523945727393"><ele>44.0</ele><time>2026-04-24T15:01:01.996Z</time></trkpt><trkpt lat="45.119082651685275" lon="9.67502849761682"><ele>43.0</ele><time>2026-04-24T15:01:02.996Z</time></trkpt><trkpt lat="45.11923486514946" lon="9.674788892996796"><ele>43.0</ele><time>2026-04-24T15:01:03.996Z</time></trkpt><trkpt lat="45.119398839023916" lon="9.674551113074635"><ele>43.0</ele><time>2026-04-24T15:01:04.996Z</time></trkpt><trkpt lat="45.1195676085076" lon="9.674344687524327"><ele>43.5</ele><time>2026-04-24T15:01:05.996Z</time></trkpt><trkpt lat="45.11972838958802" lon="9.674117595497881"><ele>44.0</ele><time>2026-04-24T15:01:06.996Z</time></trkpt><trkpt lat="45.11989063770564" lon="9.67388463565097"><ele>44.5</ele><time>2026-04-24T15:01:07.996Z</time></trkpt><trkpt lat="45.12004894270341" lon="9.673641615497456"><ele>45.0</ele><time>2026-04-24T15:01:08.996Z</time></trkpt><trkpt lat="45.120241263470085" lon="9.673448108719352"><ele>46.0</ele><time>2026-04-24T15:01:09.996Z</time></trkpt><trkpt lat="45.12037995944325" lon="9.673204197788493"><ele>47.0</ele><time>2026-04-24T15:01:10.996Z</time></trkpt><trkpt lat="45.12052636759505" lon="9.672951194384746"><ele>47.0</ele><time>2026-04-24T15:01:11.996Z</time></trkpt><trkpt lat="45.12068324358297" lon="9.672720374813167"><ele>47.0</ele><time>2026-04-24T15:01:12.996Z</time></trkpt><trkpt lat="45.120848334686855" lon="9.672468150811445"><ele>46.5</ele><time>2026-04-24T15:01:13.995Z</time></trkpt><trkpt lat="45.12101407466746" lon="9.67222814777506"><ele>46.0</ele><time>2026-04-24T15:01:14.995Z</time></trkpt><trkpt lat="45.121177240711745" lon="9.671990370483483"><ele>46.0</ele><time>2026-04-24T15:01:15.995Z</time></trkpt><trkpt lat="45.12133564852298" lon="9.671746866923565"><ele>46.0</ele><time>2026-04-24T15:01:16.995Z</time></trkpt><trkpt lat="45.1214886799053" lon="9.671497720746899"><ele>45.5</ele><time>2026-04-24T15:01:17.995Z</time></trkpt><trkpt lat="45.1216836642122" lon="9.671283739349972"><ele>45.0</ele><time>2026-04-24T15:01:18.995Z</time></trkpt><trkpt lat="45.12182131783992" lon="9.67102341713162"><ele>45.0</ele><time>2026-04-24T15:01:19.995Z</time></trkpt><trkpt lat="45.12198003241587" lon="9.670798578333674"><ele>45.0</ele><time>2026-04-24T15:01:20.995Z</time></trkpt><trkpt lat="45.122129462818975" lon="9.670563412225034"><ele>45.0</ele><time>2026-04-24T15:01:21.995Z</time></trkpt><trkpt lat="45.12233268093305" lon="9.670345792685263"><ele>44.666666666666664</ele><time>2026-04-24T15:01:22.995Z</time></trkpt><trkpt lat="45.12247975933487" lon="9.670110680222473"><ele>44.33333333333333</ele><time>2026-04-24T15:01:23.995Z</time></trkpt><trkpt lat="45.12262702523706" lon="9.669910588347092"><ele>44.0</ele><time>2026-04-24T15:01:24.995Z</time></trkpt><trkpt lat="45.12279482439555" lon="9.669668614313146"><ele>44.0</ele><time>2026-04-24T15:01:25.995Z</time></trkpt><trkpt lat="45.122953930605206" lon="9.669429862472093"><ele>44.0</ele><time>2026-04-24T15:01:26.995Z</time></trkpt><trkpt lat="45.123135318268154" lon="9.669212591002154"><ele>44.5</ele><time>2026-04-24T15:01:27.995Z</time></trkpt><trkpt lat="45.12329680932021" lon="9.66899309708909"><ele>45.0</ele><time>2026-04-24T15:01:28.995Z</time></trkpt><trkpt lat="45.1234506595264" lon="9.668731211516649"><ele>45.0</ele><time>2026-04-24T15:01:29.995Z</time></trkpt><trkpt lat="45.12361218441446" lon="9.66849934592871"><ele>45.0</ele><time>2026-04-24T15:01:30.995Z</time></trkpt><trkpt lat="45.12378638350454" lon="9.66828826414798"><ele>45.0</ele><time>2026-04-24T15:01:31.995Z</time></trkpt><trkpt lat="45.12395028660673" lon="9.668041662764859"><ele>45.0</ele><time>2026-04-24T15:01:32.995Z</time></trkpt><trkpt lat="45.12410877129581" lon="9.667807212377861"><ele>44.5</ele><time>2026-04-24T15:01:33.995Z</time></trkpt><trkpt lat="45.12427860908034" lon="9.667580963604527"><ele>44.0</ele><time>2026-04-24T15:01:34.995Z</time></trkpt><trkpt lat="45.12443319081457" lon="9.667321765473803"><ele>44.0</ele><time>2026-04-24T15:01:35.995Z</time></trkpt><trkpt lat="45.12460806201557" lon="9.667122325011434"><ele>44.0</ele><time>2026-04-24T15:01:36.995Z</time></trkpt><trkpt lat="45.12476703881638" lon="9.666866974215052"><ele>44.666666666666664</ele><time>2026-04-24T15:01:37.995Z</time></trkpt><trkpt lat="45.12494139439411" lon="9.666664610096731"><ele>45.333333333333336</ele><time>2026-04-24T15:01:38.995Z</time></trkpt><trkpt lat="45.12506341668501" lon="9.666420003512552"><ele>46.0</ele><time>2026-04-24T15:01:39.995Z</time></trkpt><trkpt lat="45.125226461873645" lon="9.666192025485744"><ele>46.333333333333336</ele><time>2026-04-24T15:01:40.995Z</time></trkpt><trkpt lat="45.125375226533954" lon="9.665948379953411"><ele>46.666666666666664</ele><time>2026-04-24T15:01:41.995Z</time></trkpt><trkpt lat="45.125522119858935" lon="9.665717327206037"><ele>47.0</ele><time>2026-04-24T15:01:42.995Z</time></trkpt><trkpt lat="45.125676973445074" lon="9.665486734413713"><ele>47.0</ele><time>2026-04-24T15:01:43.995Z</time></trkpt><trkpt lat="45.12584882745672" lon="9.66526092036547"><ele>47.0</ele><time>2026-04-24T15:01:44.995Z</time></trkpt><trkpt lat="45.12602330277567" lon="9.665040984365035"><ele>47.0</ele><time>2026-04-24T15:01:45.995Z</time></trkpt><trkpt lat="45.126163114437496" lon="9.664804358341758"><ele>47.0</ele><time>2026-04-24T15:01:46.995Z</time></trkpt><trkpt lat="45.126320712431365" lon="9.664574022233595"><ele>47.0</ele><time>2026-04-24T15:01:47.995Z</time></trkpt><trkpt lat="45.12648232079182" lon="9.664348579605884"><ele>46.5</ele><time>2026-04-24T15:01:48.995Z</time></trkpt><trkpt lat="45.12663850570698" lon="9.664110110852839"><ele>46.0</ele><time>2026-04-24T15:01:49.995Z</time></trkpt><trkpt lat="45.12678083664882" lon="9.663852344676132"><ele>46.0</ele><time>2026-04-24T15:01:50.995Z</time></trkpt><trkpt lat="45.12691337227476" lon="9.663630502423674"><ele>46.0</ele><time>2026-04-24T15:01:51.995Z</time></trkpt><trkpt lat="45.127042841373715" lon="9.663399631639574"><ele>46.0</ele><time>2026-04-24T15:01:52.995Z</time></trkpt><trkpt lat="45.12718229543109" lon="9.663149316186544"><ele>46.5</ele><time>2026-04-24T15:01:53.995Z</time></trkpt><trkpt lat="45.12734632462707" lon="9.662902859975874"><ele>47.0</ele><time>2026-04-24T15:01:54.995Z</time></trkpt><trkpt lat="45.12748610277891" lon="9.662678294081205"><ele>47.33333333333333</ele><time>2026-04-24T15:01:55.995Z</time></trkpt><trkpt lat="45.12763297837024" lon="9.662429570497567"><ele>47.666666666666664</ele><time>2026-04-24T15:01:56.995Z</time></trkpt><trkpt lat="45.12776641589764" lon="9.662181076321112"><ele>48.0</ele><time>2026-04-24T15:01:57.995Z</time></trkpt><trkpt lat="45.12790849539768" lon="9.66195928224102"><ele>47.666666666666664</ele><time>2026-04-24T15:01:58.995Z</time></trkpt><trkpt lat="45.128040044993725" lon="9.661707956912979"><ele>47.33333333333333</ele><time>2026-04-24T15:01:59.995Z</time></trkpt><trkpt lat="45.12816058774736" lon="9.661450268392645"><ele>47.0</ele><time>2026-04-24T15:02:00.995Z</time></trkpt><trkpt lat="45.12831216646273" lon="9.661230281221924"><ele>47.5</ele><time>2026-04-24T15:02:01.995Z</time></trkpt><trkpt lat="45.12844609024303" lon="9.660958973039234"><ele>48.0</ele><time>2026-04-24T15:02:02.995Z</time></trkpt><trkpt lat="45.12861388903265" lon="9.660740490359164"><ele>48.0</ele><time>2026-04-24T15:02:03.995Z</time></trkpt><trkpt lat="45.12875078600812" lon="9.66048636429914"><ele>48.0</ele><time>2026-04-24T15:02:04.994Z</time></trkpt><trkpt lat="45.12888583552689" lon="9.660220217460472"><ele>47.0</ele><time>2026-04-24T15:02:05.994Z</time></trkpt><trkpt lat="45.12902854973865" lon="9.659941976251744"><ele>46.0</ele><time>2026-04-24T15:02:06.994Z</time></trkpt><trkpt lat="45.12915977658083" lon="9.659678327586159"><ele>46.333333333333336</ele><time>2026-04-24T15:02:07.994Z</time></trkpt><trkpt lat="45.12928474052917" lon="9.659424400786119"><ele>46.666666666666664</ele><time>2026-04-24T15:02:08.994Z</time></trkpt><trkpt lat="45.129411770262216" lon="9.659164387461226"><ele>47.0</ele><time>2026-04-24T15:02:09.994Z</time></trkpt><trkpt lat="45.12953455846689" lon="9.658898383261896"><ele>47.0</ele><time>2026-04-24T15:02:10.994Z</time></trkpt><trkpt lat="45.129664211466505" lon="9.65862698157894"><ele>47.0</ele><time>2026-04-24T15:02:11.994Z</time></trkpt><trkpt lat="45.12979786640641" lon="9.658345501270324"><ele>48.5</ele><time>2026-04-24T15:02:12.994Z</time></trkpt><trkpt lat="45.12993366784518" lon="9.658087100916392"><ele>50.0</ele><time>2026-04-24T15:02:13.994Z</time></trkpt><trkpt lat="45.130085715345196" lon="9.657786475552106"><ele>50.0</ele><time>2026-04-24T15:02:14.994Z</time></trkpt><trkpt lat="45.13023853524948" lon="9.65752872150496"><ele>50.0</ele><time>2026-04-24T15:02:15.994Z</time></trkpt><trkpt lat="45.130377151958434" lon="9.657258840403532"><ele>50.0</ele><time>2026-04-24T15:02:16.994Z</time></trkpt><trkpt lat="45.13052711390431" lon="9.657024171017444"><ele>50.0</ele><time>2026-04-24T15:02:17.994Z</time></trkpt><trkpt lat="45.13065713589205" lon="9.656775149299142"><ele>50.0</ele><time>2026-04-24T15:02:18.994Z</time></trkpt><trkpt lat="45.130817051389755" lon="9.656512845688004"><ele>48.5</ele><time>2026-04-24T15:02:19.994Z</time></trkpt><trkpt lat="45.13095610479685" lon="9.656250882215463"><ele>47.0</ele><time>2026-04-24T15:02:20.994Z</time></trkpt><trkpt lat="45.131094322387746" lon="9.655978124137478"><ele>47.0</ele><time>2026-04-24T15:02:21.994Z</time></trkpt><trkpt lat="45.13123420713315" lon="9.655723735977423"><ele>47.0</ele><time>2026-04-24T15:02:22.994Z</time></trkpt><trkpt lat="45.131370190227685" lon="9.655449946585763"><ele>47.0</ele><time>2026-04-24T15:02:23.994Z</time></trkpt><trkpt lat="45.13150088232256" lon="9.65516372810795"><ele>47.0</ele><time>2026-04-24T15:02:24.994Z</time></trkpt><trkpt lat="45.1316322894098" lon="9.65489011763174"><ele>47.0</ele><time>2026-04-24T15:02:25.994Z</time></trkpt><trkpt lat="45.131773240719255" lon="9.65461268345046"><ele>47.0</ele><time>2026-04-24T15:02:26.994Z</time></trkpt><trkpt lat="45.131918949979955" lon="9.654353429753474"><ele>47.5</ele><time>2026-04-24T15:02:27.994Z</time></trkpt><trkpt lat="45.13205746252501" lon="9.654090701424487"><ele>48.0</ele><time>2026-04-24T15:02:28.994Z</time></trkpt><trkpt lat="45.13220559643688" lon="9.653838974883692"><ele>48.0</ele><time>2026-04-24T15:02:29.994Z</time></trkpt><trkpt lat="45.13234147026947" lon="9.653567010920392"><ele>48.0</ele><time>2026-04-24T15:02:30.994Z</time></trkpt><trkpt lat="45.132484285169475" lon="9.653302149255817"><ele>48.0</ele><time>2026-04-24T15:02:31.994Z</time></trkpt><trkpt lat="45.132617669761174" lon="9.653052890872868"><ele>48.0</ele><time>2026-04-24T15:02:32.994Z</time></trkpt><trkpt lat="45.13271842675164" lon="9.652769450487886"><ele>48.0</ele><time>2026-04-24T15:02:33.994Z</time></trkpt><trkpt lat="45.132871512518534" lon="9.652565469172345"><ele>48.0</ele><time>2026-04-24T15:02:34.994Z</time></trkpt><trkpt lat="45.13301697011312" lon="9.652298150026363"><ele>48.0</ele><time>2026-04-24T15:02:35.994Z</time></trkpt><trkpt lat="45.13314048784035" lon="9.6520093119671"><ele>47.5</ele><time>2026-04-24T15:02:36.994Z</time></trkpt><trkpt lat="45.13328149952204" lon="9.651762623042993"><ele>47.0</ele><time>2026-04-24T15:02:37.994Z</time></trkpt><trkpt lat="45.13342483481934" lon="9.651464099191152"><ele>47.0</ele><time>2026-04-24T15:02:38.994Z</time></trkpt><trkpt lat="45.133547314208585" lon="9.651205269320652"><ele>47.0</ele><time>2026-04-24T15:02:39.994Z</time></trkpt><trkpt lat="45.1336773010595" lon="9.650951284764114"><ele>47.0</ele><time>2026-04-24T15:02:40.994Z</time></trkpt><trkpt lat="45.13382354696487" lon="9.65070352475377"><ele>47.0</ele><time>2026-04-24T15:02:41.994Z</time></trkpt><trkpt lat="45.133945755282724" lon="9.650408649344087"><ele>47.0</ele><time>2026-04-24T15:02:42.994Z</time></trkpt><trkpt lat="45.13408881561086" lon="9.65014431389736"><ele>47.0</ele><time>2026-04-24T15:02:43.994Z</time></trkpt><trkpt lat="45.134220267537096" lon="9.649872789430907"><ele>47.0</ele><time>2026-04-24T15:02:44.994Z</time></trkpt><trkpt lat="45.1343822066745" lon="9.649611200096512"><ele>46.5</ele><time>2026-04-24T15:02:45.994Z</time></trkpt><trkpt lat="45.13452598069268" lon="9.649326656395809"><ele>46.0</ele><time>2026-04-24T15:02:46.994Z</time></trkpt><trkpt lat="45.13470444633793" lon="9.649104042749654"><ele>46.0</ele><time>2026-04-24T15:02:47.994Z</time></trkpt><trkpt lat="45.13480489275498" lon="9.648789885840513"><ele>46.0</ele><time>2026-04-24T15:02:48.994Z</time></trkpt><trkpt lat="45.13497038054714" lon="9.64852218462741"><ele>46.5</ele><time>2026-04-24T15:02:49.994Z</time></trkpt><trkpt lat="45.13509913342016" lon="9.648221158256172"><ele>47.0</ele><time>2026-04-24T15:02:50.994Z</time></trkpt><trkpt lat="45.13518717837018" lon="9.647932411201447"><ele>47.5</ele><time>2026-04-24T15:02:51.994Z</time></trkpt><trkpt lat="45.13533036053629" lon="9.647662572167972"><ele>48.0</ele><time>2026-04-24T15:02:52.994Z</time></trkpt><trkpt lat="45.13547165825786" lon="9.647385416059665"><ele>48.0</ele><time>2026-04-24T15:02:53.994Z</time></trkpt><trkpt lat="45.13561564866475" lon="9.647126561844704"><ele>48.0</ele><time>2026-04-24T15:02:54.993Z</time></trkpt><trkpt lat="45.13575199843855" lon="9.646869855393858"><ele>47.0</ele><time>2026-04-24T15:02:55.993Z</time></trkpt><trkpt lat="45.135884213329405" lon="9.646611156585681"><ele>46.0</ele><time>2026-04-24T15:02:56.993Z</time></trkpt><trkpt lat="45.13602626280636" lon="9.6463388043314"><ele>46.0</ele><time>2026-04-24T15:02:57.993Z</time></trkpt><trkpt lat="45.13616935614403" lon="9.646074828294962"><ele>46.0</ele><time>2026-04-24T15:02:58.993Z</time></trkpt><trkpt lat="45.136328298231305" lon="9.645825238531906"><ele>46.0</ele><time>2026-04-24T15:02:59.993Z</time></trkpt><trkpt lat="45.13643894503803" lon="9.645547323220338"><ele>46.0</ele><time>2026-04-24T15:03:00.993Z</time></trkpt><trkpt lat="45.13658129836918" lon="9.645276001943571"><ele>47.0</ele><time>2026-04-24T15:03:01.993Z</time></trkpt><trkpt lat="45.13672746465045" lon="9.645030436317528"><ele>48.0</ele><time>2026-04-24T15:03:02.993Z</time></trkpt><trkpt lat="45.13686898181372" lon="9.644745242429417"><ele>48.0</ele><time>2026-04-24T15:03:03.993Z</time></trkpt><trkpt lat="45.13701198656398" lon="9.644463588771254"><ele>48.0</ele><time>2026-04-24T15:03:04.993Z</time></trkpt><trkpt lat="45.13714796765408" lon="9.644176991950665"><ele>48.0</ele><time>2026-04-24T15:03:05.993Z</time></trkpt><trkpt lat="45.137291501969365" lon="9.64391631895497"><ele>48.0</ele><time>2026-04-24T15:03:06.993Z</time></trkpt><trkpt lat="45.13742486105101" lon="9.643627870160982"><ele>48.0</ele><time>2026-04-24T15:03:07.993Z</time></trkpt><trkpt lat="45.137559599671604" lon="9.64335302297375"><ele>48.0</ele><time>2026-04-24T15:03:08.993Z</time></trkpt><trkpt lat="45.13768942091234" lon="9.64307023668871"><ele>48.0</ele><time>2026-04-24T15:03:09.993Z</time></trkpt><trkpt lat="45.13784409047091" lon="9.642807361667408"><ele>48.0</ele><time>2026-04-24T15:03:10.993Z</time></trkpt><trkpt lat="45.13795772247849" lon="9.642515859069553"><ele>48.0</ele><time>2026-04-24T15:03:11.993Z</time></trkpt><trkpt lat="45.13811263873081" lon="9.642298443158"><ele>48.0</ele><time>2026-04-24T15:03:12.993Z</time></trkpt><trkpt lat="45.1382500593661" lon="9.642000763686708"><ele>49.0</ele><time>2026-04-24T15:03:13.993Z</time></trkpt><trkpt lat="45.13838291106626" lon="9.6417347732019"><ele>50.0</ele><time>2026-04-24T15:03:14.993Z</time></trkpt><trkpt lat="45.13850675877659" lon="9.641471191547087"><ele>50.0</ele><time>2026-04-24T15:03:15.993Z</time></trkpt><trkpt lat="45.13864643419123" lon="9.64121029876475"><ele>50.0</ele><time>2026-04-24T15:03:16.993Z</time></trkpt><trkpt lat="45.13878346488642" lon="9.641003277418577"><ele>50.0</ele><time>2026-04-24T15:03:17.993Z</time></trkpt><trkpt lat="45.13893375189384" lon="9.640737327000767"><ele>49.5</ele><time>2026-04-24T15:03:18.993Z</time></trkpt><trkpt lat="45.139059256915296" lon="9.640458469332755"><ele>49.0</ele><time>2026-04-24T15:03:19.993Z</time></trkpt><trkpt lat="45.13918172973286" lon="9.64019375014064"><ele>49.0</ele><time>2026-04-24T15:03:20.993Z</time></trkpt><trkpt lat="45.13933094292004" lon="9.63994574386544"><ele>49.0</ele><time>2026-04-24T15:03:21.993Z</time></trkpt><trkpt lat="45.139472628608374" lon="9.6396511371589"><ele>48.5</ele><time>2026-04-24T15:03:22.993Z</time></trkpt><trkpt lat="45.13959366060214" lon="9.639359045122843"><ele>48.0</ele><time>2026-04-24T15:03:23.993Z</time></trkpt><trkpt lat="45.13975151302374" lon="9.639107327144066"><ele>48.0</ele><time>2026-04-24T15:03:24.993Z</time></trkpt><trkpt lat="45.139860883283994" lon="9.638846554224461"><ele>48.0</ele><time>2026-04-24T15:03:25.993Z</time></trkpt><trkpt lat="45.139978082227024" lon="9.638602920531442"><ele>48.0</ele><time>2026-04-24T15:03:26.993Z</time></trkpt><trkpt lat="45.14010650927107" lon="9.63834058848245"><ele>48.5</ele><time>2026-04-24T15:03:27.993Z</time></trkpt><trkpt lat="45.14022324298911" lon="9.638072487234085"><ele>49.0</ele><time>2026-04-24T15:03:28.993Z</time></trkpt><trkpt lat="45.14038547206742" lon="9.63783772572606"><ele>48.666666666666664</ele><time>2026-04-24T15:03:29.993Z</time></trkpt><trkpt lat="45.140519255361674" lon="9.63762470316386"><ele>48.33333333333333</ele><time>2026-04-24T15:03:30.993Z</time></trkpt><trkpt lat="45.14067680119718" lon="9.637399167683402"><ele>48.0</ele><time>2026-04-24T15:03:31.993Z</time></trkpt><trkpt lat="45.14081445996392" lon="9.637149665937295"><ele>48.0</ele><time>2026-04-24T15:03:32.993Z</time></trkpt><trkpt lat="45.140966624613824" lon="9.636890858262236"><ele>48.0</ele><time>2026-04-24T15:03:33.993Z</time></trkpt><trkpt lat="45.141108570258" lon="9.636660455591388"><ele>48.0</ele><time>2026-04-24T15:03:34.993Z</time></trkpt><trkpt lat="45.14125540729629" lon="9.636401140201135"><ele>48.0</ele><time>2026-04-24T15:03:35.993Z</time></trkpt><trkpt lat="45.14140121590762" lon="9.636170097650902"><ele>48.0</ele><time>2026-04-24T15:03:36.993Z</time></trkpt><trkpt lat="45.14152370128745" lon="9.635944079846121"><ele>48.0</ele><time>2026-04-24T15:03:37.993Z</time></trkpt><trkpt lat="45.14166342483987" lon="9.635721751385871"><ele>48.0</ele><time>2026-04-24T15:03:38.993Z</time></trkpt><trkpt lat="45.14181132305293" lon="9.635555088941384"><ele>48.0</ele><time>2026-04-24T15:03:39.993Z</time></trkpt><trkpt lat="45.14195698255702" lon="9.63541608050913"><ele>48.0</ele><time>2026-04-24T15:03:40.993Z</time></trkpt><trkpt lat="45.14205806425762" lon="9.635208124543675"><ele>48.0</ele><time>2026-04-24T15:03:41.993Z</time></trkpt><trkpt lat="45.142166540994786" lon="9.635007067684276"><ele>48.599999999999994</ele><time>2026-04-24T15:03:42.993Z</time></trkpt><trkpt lat="45.14225751552162" lon="9.634914010957534"><ele>49.199999999999996</ele><time>2026-04-24T15:03:43.993Z</time></trkpt><trkpt lat="45.14231794027299" lon="9.63483043482007"><ele>49.8</ele><time>2026-04-24T15:03:44.993Z</time></trkpt><trkpt lat="45.142386480223216" lon="9.634716411816154"><ele>50.4</ele><time>2026-04-24T15:03:45.992Z</time></trkpt><trkpt lat="45.142459090997086" lon="9.634651706761924"><ele>51.0</ele><time>2026-04-24T15:03:46.992Z</time></trkpt><trkpt lat="45.142547500890245" lon="9.63462786005253"><ele>54.0</ele><time>2026-04-24T15:03:47.992Z</time></trkpt><trkpt lat="45.14261303061729" lon="9.634636960869555"><ele>54.0</ele><time>2026-04-24T15:03:48.992Z</time></trkpt><trkpt lat="45.142658918601704" lon="9.634719885144046"><ele>54.0</ele><time>2026-04-24T15:03:50.992Z</time></trkpt><trkpt lat="45.14269792576891" lon="9.634812668433716"><ele>54.0</ele><time>2026-04-24T15:03:52.992Z</time></trkpt><trkpt lat="45.14276771465482" lon="9.63475328937838"><ele>54.0</ele><time>2026-04-24T15:03:54.992Z</time></trkpt><trkpt lat="45.14282232336989" lon="9.63467125068867"><ele>54.0</ele><time>2026-04-24T15:03:56.992Z</time></trkpt></trkseg><trkseg><trkpt lat="45.15463988176351" lon="9.617405992571038"><ele>59.0</ele><time>2026-04-24T15:21:08.99Z</time></trkpt><trkpt lat="45.15481532583708" lon="9.617162218933728"><ele>59.0</ele><time>2026-04-24T15:21:09.99Z</time></trkpt><trkpt lat="45.15498250915488" lon="9.616909673272279"><ele>59.0</ele><time>2026-04-24T15:21:10.991Z</time></trkpt><trkpt lat="45.155164041129616" lon="9.61667322303039"><ele>59.0</ele><time>2026-04-24T15:21:11.991Z</time></trkpt><trkpt lat="45.15552420562742" lon="9.61620872765171"><ele>59.0</ele><time>2026-04-24T15:21:13.992Z</time></trkpt><trkpt lat="45.155701577624235" lon="9.615963039698315"><ele>59.0</ele><time>2026-04-24T15:21:14.992Z</time></trkpt><trkpt lat="45.15586993205937" lon="9.615716027041152"><ele>59.5</ele><time>2026-04-24T15:21:15.992Z</time></trkpt><trkpt lat="45.15604521930455" lon="9.615472747413767"><ele>60.0</ele><time>2026-04-24T15:21:16.992Z</time></trkpt><trkpt lat="45.156212655987396" lon="9.615222038156618"><ele>60.5</ele><time>2026-04-24T15:21:17.993Z</time></trkpt><trkpt lat="45.15638218537095" lon="9.614971334450862"><ele>61.0</ele><time>2026-04-24T15:21:18.993Z</time></trkpt><trkpt lat="45.156555488216654" lon="9.614725477029022"><ele>60.0</ele><time>2026-04-24T15:21:19.993Z</time></trkpt><trkpt lat="45.15673300136665" lon="9.614488415563136"><ele>59.0</ele><time>2026-04-24T15:21:20.993Z</time></trkpt><trkpt lat="45.1569054462001" lon="9.614241157287609"><ele>59.0</ele><time>2026-04-24T15:21:21.993Z</time></trkpt><trkpt lat="45.15708089419099" lon="9.613998307205582"><ele>59.0</ele><time>2026-04-24T15:21:22.994Z</time></trkpt><trkpt lat="45.15725442358657" lon="9.613749639169344"><ele>59.5</ele><time>2026-04-24T15:21:23.994Z</time></trkpt><trkpt lat="45.15743139941029" lon="9.613518131006844"><ele>60.0</ele><time>2026-04-24T15:21:24.994Z</time></trkpt><trkpt lat="45.15761159940154" lon="9.613275407817328"><ele>60.0</ele><time>2026-04-24T15:21:25.994Z</time></trkpt><trkpt lat="45.157768687579214" lon="9.613025122132091"><ele>60.0</ele><time>2026-04-24T15:21:26.994Z</time></trkpt><trkpt lat="45.157937621823656" lon="9.612786309166465"><ele>60.0</ele><time>2026-04-24T15:21:27.994Z</time></trkpt><trkpt lat="45.15811564290665" lon="9.612539295687439"><ele>60.0</ele><time>2026-04-24T15:21:28.994Z</time></trkpt><trkpt lat="45.15830557788196" lon="9.612288777291663"><ele>60.0</ele><time>2026-04-24T15:21:29.994Z</time></trkpt><trkpt lat="45.15848832836309" lon="9.61204163997916"><ele>60.0</ele><time>2026-04-24T15:21:30.995Z</time></trkpt><trkpt lat="45.158668311707665" lon="9.611791625714341"><ele>60.0</ele><time>2026-04-24T15:21:31.995Z</time></trkpt><trkpt lat="45.15883636767687" lon="9.611543191319635"><ele>60.0</ele><time>2026-04-24T15:21:32.995Z</time></trkpt><trkpt lat="45.15901735991856" lon="9.611299524790596"><ele>60.5</ele><time>2026-04-24T15:21:33.995Z</time></trkpt><trkpt lat="45.159188126810754" lon="9.611036340645905"><ele>61.0</ele><time>2026-04-24T15:21:34.995Z</time></trkpt><trkpt lat="45.15936680416073" lon="9.610781378028852"><ele>61.0</ele><time>2026-04-24T15:21:35.995Z</time></trkpt><trkpt lat="45.159541556235276" lon="9.610543032828433"><ele>61.0</ele><time>2026-04-24T15:21:36.995Z</time></trkpt><trkpt lat="45.15971893320517" lon="9.610306719315506"><ele>60.5</ele><time>2026-04-24T15:21:37.995Z</time></trkpt><trkpt lat="45.159898256120385" lon="9.61006315406109"><ele>60.0</ele><time>2026-04-24T15:21:38.995Z</time></trkpt><trkpt lat="45.16008119500558" lon="9.609822693115575"><ele>60.0</ele><time>2026-04-24T15:21:39.995Z</time></trkpt><trkpt lat="45.16027035770348" lon="9.609582795237179"><ele>60.0</ele><time>2026-04-24T15:21:40.995Z</time></trkpt><trkpt lat="45.16045417170832" lon="9.609341584745042"><ele>61.0</ele><time>2026-04-24T15:21:41.995Z</time></trkpt><trkpt lat="45.160647071556404" lon="9.609116151225242"><ele>62.0</ele><time>2026-04-24T15:21:42.995Z</time></trkpt><trkpt lat="45.160830388177885" lon="9.608855743625556"><ele>62.0</ele><time>2026-04-24T15:21:43.995Z</time></trkpt><trkpt lat="45.161002554429515" lon="9.60861378224691"><ele>62.0</ele><time>2026-04-24T15:21:44.995Z</time></trkpt><trkpt lat="45.16117576045072" lon="9.608371267560686"><ele>62.0</ele><time>2026-04-24T15:21:45.995Z</time></trkpt><trkpt lat="45.161356257748835" lon="9.608145884636503"><ele>62.0</ele><time>2026-04-24T15:21:46.995Z</time></trkpt><trkpt lat="45.16152938630378" lon="9.607921293765246"><ele>62.0</ele><time>2026-04-24T15:21:47.995Z</time></trkpt><trkpt lat="45.161716075087895" lon="9.607688479359405"><ele>62.0</ele><time>2026-04-24T15:21:48.996Z</time></trkpt><trkpt lat="45.161901322867344" lon="9.607453549674034"><ele>62.0</ele><time>2026-04-24T15:21:49.996Z</time></trkpt><trkpt lat="45.16206997975157" lon="9.607195954346523"><ele>62.0</ele><time>2026-04-24T15:21:50.996Z</time></trkpt><trkpt lat="45.16225027961248" lon="9.60697151130026"><ele>62.0</ele><time>2026-04-24T15:21:51.996Z</time></trkpt><trkpt lat="45.16242329030394" lon="9.606753360059367"><ele>62.0</ele><time>2026-04-24T15:21:52.996Z</time></trkpt><trkpt lat="45.162599664028534" lon="9.606509827459183"><ele>62.0</ele><time>2026-04-24T15:21:53.996Z</time></trkpt><trkpt lat="45.16277079338468" lon="9.606267715741039"><ele>62.0</ele><time>2026-04-24T15:21:54.996Z</time></trkpt><trkpt lat="45.162951156661464" lon="9.60599083644402"><ele>61.5</ele><time>2026-04-24T15:21:55.996Z</time></trkpt><trkpt lat="45.163150428361675" lon="9.605734593085762"><ele>61.0</ele><time>2026-04-24T15:21:56.996Z</time></trkpt><trkpt lat="45.16334642914257" lon="9.605501785417484"><ele>63.0</ele><time>2026-04-24T15:21:57.996Z</time></trkpt><trkpt lat="45.1635322814715" lon="9.605234281251134"><ele>65.0</ele><time>2026-04-24T15:21:58.996Z</time></trkpt><trkpt lat="45.16367032762642" lon="9.604971738203734"><ele>65.0</ele><time>2026-04-24T15:21:59.996Z</time></trkpt><trkpt lat="45.1638044462593" lon="9.604715154293302"><ele>65.0</ele><time>2026-04-24T15:22:00.996Z</time></trkpt><trkpt lat="45.16396945185388" lon="9.604480490235657"><ele>63.0</ele><time>2026-04-24T15:22:01.996Z</time></trkpt><trkpt lat="45.16413367344169" lon="9.604248917185103"><ele>61.0</ele><time>2026-04-24T15:22:02.996Z</time></trkpt><trkpt lat="45.16432539435963" lon="9.604046595552669"><ele>61.0</ele><time>2026-04-24T15:22:03.996Z</time></trkpt><trkpt lat="45.16449911228732" lon="9.603788564148735"><ele>61.0</ele><time>2026-04-24T15:22:04.996Z</time></trkpt><trkpt lat="45.164628569867055" lon="9.603502327644758"><ele>61.0</ele><time>2026-04-24T15:22:05.996Z</time></trkpt><trkpt lat="45.164800136518984" lon="9.603291435253102"><ele>61.0</ele><time>2026-04-24T15:22:06.996Z</time></trkpt><trkpt lat="45.16496919031426" lon="9.603019595183225"><ele>60.5</ele><time>2026-04-24T15:22:07.996Z</time></trkpt><trkpt lat="45.16514325098476" lon="9.60276448047614"><ele>60.0</ele><time>2026-04-24T15:22:08.996Z</time></trkpt><trkpt lat="45.16531712983867" lon="9.602508427672442"><ele>60.0</ele><time>2026-04-24T15:22:09.996Z</time></trkpt><trkpt lat="45.165522911641055" lon="9.602323771228548"><ele>60.0</ele><time>2026-04-24T15:22:10.996Z</time></trkpt><trkpt lat="45.16572058598123" lon="9.602104408167124"><ele>60.0</ele><time>2026-04-24T15:22:11.996Z</time></trkpt><trkpt lat="45.16590176324385" lon="9.601837836799023"><ele>60.0</ele><time>2026-04-24T15:22:12.996Z</time></trkpt><trkpt lat="45.1660609344123" lon="9.601549981960764"><ele>60.0</ele><time>2026-04-24T15:22:13.996Z</time></trkpt><trkpt lat="45.16627554140436" lon="9.601323061310461"><ele>60.0</ele><time>2026-04-24T15:22:14.996Z</time></trkpt><trkpt lat="45.16641769402487" lon="9.60105743834392"><ele>60.33333333333333</ele><time>2026-04-24T15:22:15.996Z</time></trkpt><trkpt lat="45.166570735492414" lon="9.60081697837733"><ele>60.666666666666664</ele><time>2026-04-24T15:22:16.996Z</time></trkpt><trkpt lat="45.16670099416017" lon="9.600568492172009"><ele>61.0</ele><time>2026-04-24T15:22:17.996Z</time></trkpt><trkpt lat="45.16685986495951" lon="9.600317260613146"><ele>61.5</ele><time>2026-04-24T15:22:18.996Z</time></trkpt><trkpt lat="45.16702026250469" lon="9.600084007017445"><ele>62.0</ele><time>2026-04-24T15:22:19.996Z</time></trkpt><trkpt lat="45.16719019045483" lon="9.599851117478496"><ele>62.0</ele><time>2026-04-24T15:22:20.996Z</time></trkpt><trkpt lat="45.167353477213446" lon="9.599611020988025"><ele>62.0</ele><time>2026-04-24T15:22:21.996Z</time></trkpt><trkpt lat="45.167536091208326" lon="9.599383043532406"><ele>61.0</ele><time>2026-04-24T15:22:22.996Z</time></trkpt><trkpt lat="45.16767688560321" lon="9.599108933402793"><ele>60.0</ele><time>2026-04-24T15:22:23.996Z</time></trkpt><trkpt lat="45.16784671328313" lon="9.59887437964858"><ele>60.0</ele><time>2026-04-24T15:22:24.996Z</time></trkpt><trkpt lat="45.167988091339886" lon="9.598637270889046"><ele>60.0</ele><time>2026-04-24T15:22:25.996Z</time></trkpt><trkpt lat="45.168170384373305" lon="9.598431224013243"><ele>61.0</ele><time>2026-04-24T15:22:26.996Z</time></trkpt><trkpt lat="45.16828741765931" lon="9.598168200969603"><ele>62.0</ele><time>2026-04-24T15:22:27.996Z</time></trkpt><trkpt lat="45.168445802797464" lon="9.597913389192499"><ele>61.5</ele><time>2026-04-24T15:22:28.996Z</time></trkpt><trkpt lat="45.168621112112454" lon="9.597697369954759"><ele>61.0</ele><time>2026-04-24T15:22:29.996Z</time></trkpt><trkpt lat="45.16876419995706" lon="9.597425959820452"><ele>61.0</ele><time>2026-04-24T15:22:30.996Z</time></trkpt><trkpt lat="45.16889349923123" lon="9.59714831601631"><ele>61.0</ele><time>2026-04-24T15:22:31.996Z</time></trkpt><trkpt lat="45.16903984078633" lon="9.596889448074094"><ele>61.666666666666664</ele><time>2026-04-24T15:22:32.996Z</time></trkpt><trkpt lat="45.16915028881212" lon="9.596612674788258"><ele>62.33333333333333</ele><time>2026-04-24T15:22:33.996Z</time></trkpt><trkpt lat="45.169275766266246" lon="9.59634763020742"><ele>63.0</ele><time>2026-04-24T15:22:34.996Z</time></trkpt><trkpt lat="45.16941292000447" lon="9.596102814161844"><ele>63.0</ele><time>2026-04-24T15:22:35.996Z</time></trkpt><trkpt lat="45.16955227801492" lon="9.595847927431448"><ele>63.0</ele><time>2026-04-24T15:22:36.996Z</time></trkpt><trkpt lat="45.16969905526791" lon="9.595602408827633"><ele>63.0</ele><time>2026-04-24T15:22:37.996Z</time></trkpt><trkpt lat="45.169859156164875" lon="9.595366723943163"><ele>63.0</ele><time>2026-04-24T15:22:38.996Z</time></trkpt><trkpt lat="45.17001405085604" lon="9.595109560511066"><ele>65.0</ele><time>2026-04-24T15:22:39.996Z</time></trkpt><trkpt lat="45.170166341232274" lon="9.594855586389913"><ele>67.0</ele><time>2026-04-24T15:22:40.996Z</time></trkpt><trkpt lat="45.1703088770515" lon="9.594579408075822"><ele>65.5</ele><time>2026-04-24T15:22:41.996Z</time></trkpt><trkpt lat="45.170473495573184" lon="9.594340755428824"><ele>64.0</ele><time>2026-04-24T15:22:42.996Z</time></trkpt><trkpt lat="45.170626941199906" lon="9.594081573366411"><ele>65.0</ele><time>2026-04-24T15:22:43.996Z</time></trkpt><trkpt lat="45.17074547876534" lon="9.593796459504308"><ele>66.0</ele><time>2026-04-24T15:22:44.996Z</time></trkpt><trkpt lat="45.17091876225894" lon="9.593573281404435"><ele>66.0</ele><time>2026-04-24T15:22:45.996Z</time></trkpt><trkpt lat="45.17108015224335" lon="9.593319961942584"><ele>66.0</ele><time>2026-04-24T15:22:46.996Z</time></trkpt><trkpt lat="45.17123989721544" lon="9.593058977396312"><ele>66.0</ele><time>2026-04-24T15:22:47.996Z</time></trkpt><trkpt lat="45.171407939699215" lon="9.592811347811017"><ele>66.0</ele><time>2026-04-24T15:22:48.996Z</time></trkpt><trkpt lat="45.171573902442496" lon="9.592566568915037"><ele>66.0</ele><time>2026-04-24T15:22:49.996Z</time></trkpt><trkpt lat="45.171708131484465" lon="9.592278247640756"><ele>66.0</ele><time>2026-04-24T15:22:50.996Z</time></trkpt><trkpt lat="45.17186698467325" lon="9.592028602547884"><ele>65.0</ele><time>2026-04-24T15:22:51.996Z</time></trkpt><trkpt lat="45.172042428320914" lon="9.591792247530767"><ele>64.0</ele><time>2026-04-24T15:22:52.996Z</time></trkpt><trkpt lat="45.17218599958659" lon="9.591525345931817"><ele>64.0</ele><time>2026-04-24T15:22:53.995Z</time></trkpt><trkpt lat="45.172332757231246" lon="9.591272277482481"><ele>64.0</ele><time>2026-04-24T15:22:54.995Z</time></trkpt><trkpt lat="45.17250123457479" lon="9.591027332718943"><ele>64.5</ele><time>2026-04-24T15:22:55.995Z</time></trkpt><trkpt lat="45.1726660209623" lon="9.59074398755892"><ele>65.0</ele><time>2026-04-24T15:22:56.995Z</time></trkpt><trkpt lat="45.172828300033046" lon="9.590489168922499"><ele>65.5</ele><time>2026-04-24T15:22:57.995Z</time></trkpt><trkpt lat="45.17301642861859" lon="9.590247783473238"><ele>66.0</ele><time>2026-04-24T15:22:58.995Z</time></trkpt><trkpt lat="45.17318406011234" lon="9.590007762379484"><ele>65.5</ele><time>2026-04-24T15:22:59.995Z</time></trkpt><trkpt lat="45.17330272563245" lon="9.589674192497231"><ele>65.0</ele><time>2026-04-24T15:23:00.995Z</time></trkpt><trkpt lat="45.17346382459004" lon="9.58944394231631"><ele>64.5</ele><time>2026-04-24T15:23:01.995Z</time></trkpt><trkpt lat="45.17363622591554" lon="9.58920197845511"><ele>64.0</ele><time>2026-04-24T15:23:02.995Z</time></trkpt><trkpt lat="45.173795540687365" lon="9.588929902604441"><ele>64.0</ele><time>2026-04-24T15:23:03.995Z</time></trkpt><trkpt lat="45.173955251683246" lon="9.588682636249045"><ele>64.0</ele><time>2026-04-24T15:23:04.995Z</time></trkpt><trkpt lat="45.17410463669148" lon="9.588419126914008"><ele>63.0</ele><time>2026-04-24T15:23:05.995Z</time></trkpt><trkpt lat="45.17427138550528" lon="9.588169472782468"><ele>62.0</ele><time>2026-04-24T15:23:06.995Z</time></trkpt><trkpt lat="45.17445342933653" lon="9.587936738686878"><ele>63.0</ele><time>2026-04-24T15:23:07.995Z</time></trkpt><trkpt lat="45.174604555656195" lon="9.587671674751476"><ele>64.0</ele><time>2026-04-24T15:23:08.995Z</time></trkpt><trkpt lat="45.174784994217376" lon="9.58743270457709"><ele>64.0</ele><time>2026-04-24T15:23:09.995Z</time></trkpt><trkpt lat="45.17495386927385" lon="9.587220693024987"><ele>64.0</ele><time>2026-04-24T15:23:10.995Z</time></trkpt><trkpt lat="45.17511645504453" lon="9.586982306653217"><ele>64.0</ele><time>2026-04-24T15:23:11.995Z</time></trkpt><trkpt lat="45.17526854662566" lon="9.586722908369195"><ele>64.0</ele><time>2026-04-24T15:23:12.995Z</time></trkpt><trkpt lat="45.175420397743125" lon="9.586482353105849"><ele>64.0</ele><time>2026-04-24T15:23:13.995Z</time></trkpt><trkpt lat="45.175584080152994" lon="9.586220451403586"><ele>64.0</ele><time>2026-04-24T15:23:14.995Z</time></trkpt><trkpt lat="45.17574485408802" lon="9.585990103678899"><ele>64.0</ele><time>2026-04-24T15:23:15.995Z</time></trkpt><trkpt lat="45.17589219879045" lon="9.585715500805106"><ele>64.0</ele><time>2026-04-24T15:23:16.995Z</time></trkpt><trkpt lat="45.17604449362295" lon="9.5854617548789"><ele>64.0</ele><time>2026-04-24T15:23:17.995Z</time></trkpt><trkpt lat="45.17621114203867" lon="9.585223388633715"><ele>64.0</ele><time>2026-04-24T15:23:18.995Z</time></trkpt><trkpt lat="45.176372968827124" lon="9.584975835535317"><ele>63.5</ele><time>2026-04-24T15:23:19.995Z</time></trkpt><trkpt lat="45.176539754516085" lon="9.58472736675385"><ele>63.0</ele><time>2026-04-24T15:23:20.995Z</time></trkpt><trkpt lat="45.17671016951779" lon="9.58447365515872"><ele>63.0</ele><time>2026-04-24T15:23:21.995Z</time></trkpt><trkpt lat="45.1768823572295" lon="9.58424021733541"><ele>63.0</ele><time>2026-04-24T15:23:22.995Z</time></trkpt><trkpt lat="45.17705168979893" lon="9.58400843965578"><ele>63.0</ele><time>2026-04-24T15:23:23.995Z</time></trkpt><trkpt lat="45.177188621157" lon="9.583761364799894"><ele>63.0</ele><time>2026-04-24T15:23:24.995Z</time></trkpt><trkpt lat="45.17734560704476" lon="9.58351885182383"><ele>64.5</ele><time>2026-04-24T15:23:25.995Z</time></trkpt><trkpt lat="45.17750799947687" lon="9.583272770991542"><ele>66.0</ele><time>2026-04-24T15:23:26.995Z</time></trkpt><trkpt lat="45.17763400987486" lon="9.582988067795542"><ele>66.0</ele><time>2026-04-24T15:23:27.995Z</time></trkpt><trkpt lat="45.17779460833375" lon="9.582738372135376"><ele>66.0</ele><time>2026-04-24T15:23:28.995Z</time></trkpt><trkpt lat="45.17795463967487" lon="9.582490755938913"><ele>66.0</ele><time>2026-04-24T15:23:29.995Z</time></trkpt><trkpt lat="45.17812864221997" lon="9.582266741712061"><ele>66.0</ele><time>2026-04-24T15:23:30.995Z</time></trkpt><trkpt lat="45.1783072112047" lon="9.582043016026926"><ele>64.5</ele><time>2026-04-24T15:23:31.995Z</time></trkpt><trkpt lat="45.178471042699506" lon="9.581794073708124"><ele>63.0</ele><time>2026-04-24T15:23:32.995Z</time></trkpt><trkpt lat="45.178614907511495" lon="9.581524129476216"><ele>63.0</ele><time>2026-04-24T15:23:33.995Z</time></trkpt><trkpt lat="45.17875717760442" lon="9.581244689634223"><ele>63.0</ele><time>2026-04-24T15:23:34.995Z</time></trkpt><trkpt lat="45.17891448301567" lon="9.580984103713105"><ele>62.5</ele><time>2026-04-24T15:23:35.995Z</time></trkpt><trkpt lat="45.17907108757402" lon="9.580731143665268"><ele>62.0</ele><time>2026-04-24T15:23:36.995Z</time></trkpt><trkpt lat="45.179235289313446" lon="9.580471755499223"><ele>62.5</ele><time>2026-04-24T15:23:37.995Z</time></trkpt><trkpt lat="45.17939999055937" lon="9.58021897090037"><ele>63.0</ele><time>2026-04-24T15:23:38.995Z</time></trkpt><trkpt lat="45.179567082646024" lon="9.579985340066786"><ele>63.0</ele><time>2026-04-24T15:23:39.995Z</time></trkpt><trkpt lat="45.1797447079433" lon="9.579748881630618"><ele>63.0</ele><time>2026-04-24T15:23:40.995Z</time></trkpt><trkpt lat="45.17991492794054" lon="9.579490263357847"><ele>64.0</ele><time>2026-04-24T15:23:41.995Z</time></trkpt><trkpt lat="45.18005495961919" lon="9.57921344543931"><ele>65.0</ele><time>2026-04-24T15:23:42.995Z</time></trkpt><trkpt lat="45.18020094839239" lon="9.578939777384557"><ele>63.0</ele><time>2026-04-24T15:23:43.995Z</time></trkpt><trkpt lat="45.18034388869564" lon="9.578667976383601"><ele>61.0</ele><time>2026-04-24T15:23:44.995Z</time></trkpt><trkpt lat="45.18051348140454" lon="9.578439483694467"><ele>61.0</ele><time>2026-04-24T15:23:45.995Z</time></trkpt><trkpt lat="45.18068257421156" lon="9.57819715762463"><ele>61.0</ele><time>2026-04-24T15:23:46.995Z</time></trkpt><trkpt lat="45.18084727059833" lon="9.577942414791972"><ele>62.0</ele><time>2026-04-24T15:23:47.995Z</time></trkpt><trkpt lat="45.18099140795415" lon="9.577674524442111"><ele>63.0</ele><time>2026-04-24T15:23:48.995Z</time></trkpt><trkpt lat="45.18113546376466" lon="9.577410664508571"><ele>63.0</ele><time>2026-04-24T15:23:49.995Z</time></trkpt><trkpt lat="45.18130385863748" lon="9.577176797402618"><ele>63.0</ele><time>2026-04-24T15:23:50.995Z</time></trkpt><trkpt lat="45.181492168027084" lon="9.57695241123246"><ele>63.0</ele><time>2026-04-24T15:23:51.995Z</time></trkpt><trkpt lat="45.18165692303504" lon="9.576704863236376"><ele>63.0</ele><time>2026-04-24T15:23:52.995Z</time></trkpt><trkpt lat="45.181831848070175" lon="9.57646827078755"><ele>63.0</ele><time>2026-04-24T15:23:53.995Z</time></trkpt><trkpt lat="45.18199663681453" lon="9.576207520012675"><ele>63.0</ele><time>2026-04-24T15:23:54.995Z</time></trkpt><trkpt lat="45.182151755546926" lon="9.575947237687519"><ele>62.5</ele><time>2026-04-24T15:23:55.995Z</time></trkpt><trkpt lat="45.182318324961166" lon="9.575707310623079"><ele>62.0</ele><time>2026-04-24T15:23:56.995Z</time></trkpt><trkpt lat="45.18243357119395" lon="9.575392784712543"><ele>62.0</ele><time>2026-04-24T15:23:57.995Z</time></trkpt><trkpt lat="45.182613875472484" lon="9.575133668119246"><ele>62.0</ele><time>2026-04-24T15:23:58.995Z</time></trkpt><trkpt lat="45.18278243891411" lon="9.574883138942292"><ele>62.0</ele><time>2026-04-24T15:23:59.995Z</time></trkpt><trkpt lat="45.18295156405022" lon="9.574637888595039"><ele>62.0</ele><time>2026-04-24T15:24:00.995Z</time></trkpt><trkpt lat="45.18313273504362" lon="9.574425279140295"><ele>62.0</ele><time>2026-04-24T15:24:01.995Z</time></trkpt><trkpt lat="45.18328917184012" lon="9.574179741081194"><ele>62.0</ele><time>2026-04-24T15:24:02.995Z</time></trkpt><trkpt lat="45.1834480699564" lon="9.573931566777777"><ele>62.0</ele><time>2026-04-24T15:24:03.995Z</time></trkpt><trkpt lat="45.18361709047494" lon="9.57369246150684"><ele>62.0</ele><time>2026-04-24T15:24:04.995Z</time></trkpt><trkpt lat="45.18378141451819" lon="9.573447779662231"><ele>62.0</ele><time>2026-04-24T15:24:05.995Z</time></trkpt><trkpt lat="45.183945935841805" lon="9.573202301438773"><ele>62.0</ele><time>2026-04-24T15:24:06.995Z</time></trkpt><trkpt lat="45.184081372427094" lon="9.572935272874231"><ele>62.0</ele><time>2026-04-24T15:24:07.995Z</time></trkpt><trkpt lat="45.18422631951637" lon="9.57267660220808"><ele>62.0</ele><time>2026-04-24T15:24:08.995Z</time></trkpt><trkpt lat="45.18437618289716" lon="9.572427962681598"><ele>62.0</ele><time>2026-04-24T15:24:09.995Z</time></trkpt><trkpt lat="45.1845354712198" lon="9.572186427758162"><ele>62.0</ele><time>2026-04-24T15:24:10.995Z</time></trkpt><trkpt lat="45.18469770012047" lon="9.571949293724794"><ele>61.0</ele><time>2026-04-24T15:24:11.995Z</time></trkpt><trkpt lat="45.18485365434402" lon="9.571684026541915"><ele>60.0</ele><time>2026-04-24T15:24:12.995Z</time></trkpt><trkpt lat="45.185019040833375" lon="9.571438004815741"><ele>60.0</ele><time>2026-04-24T15:24:13.995Z</time></trkpt><trkpt lat="45.185180688876265" lon="9.571197950636815"><ele>60.0</ele><time>2026-04-24T15:24:14.995Z</time></trkpt><trkpt lat="45.18534289972966" lon="9.57095082731431"><ele>61.0</ele><time>2026-04-24T15:24:15.995Z</time></trkpt><trkpt lat="45.18549347999715" lon="9.570692860278212"><ele>62.0</ele><time>2026-04-24T15:24:16.995Z</time></trkpt><trkpt lat="45.18566203619817" lon="9.570465128965555"><ele>62.5</ele><time>2026-04-24T15:24:17.995Z</time></trkpt><trkpt lat="45.18582251228758" lon="9.570228058628897"><ele>63.0</ele><time>2026-04-24T15:24:18.995Z</time></trkpt><trkpt lat="45.1859861474985" lon="9.569988172420626"><ele>63.0</ele><time>2026-04-24T15:24:19.995Z</time></trkpt><trkpt lat="45.186175309917296" lon="9.569783537278509"><ele>63.0</ele><time>2026-04-24T15:24:20.995Z</time></trkpt><trkpt lat="45.186330328516405" lon="9.569516668432543"><ele>62.5</ele><time>2026-04-24T15:24:21.995Z</time></trkpt><trkpt lat="45.18644869454466" lon="9.569209902953288"><ele>62.0</ele><time>2026-04-24T15:24:22.995Z</time></trkpt><trkpt lat="45.18661383387982" lon="9.568971897973883"><ele>62.0</ele><time>2026-04-24T15:24:23.995Z</time></trkpt><trkpt lat="45.18676977621133" lon="9.568715086327629"><ele>62.0</ele><time>2026-04-24T15:24:24.995Z</time></trkpt><trkpt lat="45.18693067272454" lon="9.568471826315697"><ele>62.5</ele><time>2026-04-24T15:24:25.995Z</time></trkpt><trkpt lat="45.18709163193628" lon="9.568223736697496"><ele>63.0</ele><time>2026-04-24T15:24:26.995Z</time></trkpt><trkpt lat="45.18724693978116" lon="9.567970331140927"><ele>62.5</ele><time>2026-04-24T15:24:27.995Z</time></trkpt><trkpt lat="45.18740646786906" lon="9.567723249635254"><ele>62.0</ele><time>2026-04-24T15:24:28.995Z</time></trkpt><trkpt lat="45.18755095957425" lon="9.567458374419523"><ele>62.0</ele><time>2026-04-24T15:24:29.995Z</time></trkpt><trkpt lat="45.187711539182374" lon="9.567228073019209"><ele>62.0</ele><time>2026-04-24T15:24:30.995Z</time></trkpt><trkpt lat="45.187865017983036" lon="9.56698453878443"><ele>61.5</ele><time>2026-04-24T15:24:31.995Z</time></trkpt><trkpt lat="45.188018584512776" lon="9.566730372834938"><ele>61.0</ele><time>2026-04-24T15:24:32.995Z</time></trkpt><trkpt lat="45.18818744954542" lon="9.566505024439557"><ele>62.0</ele><time>2026-04-24T15:24:33.995Z</time></trkpt><trkpt lat="45.18833329760013" lon="9.566245644095309"><ele>63.0</ele><time>2026-04-24T15:24:34.995Z</time></trkpt><trkpt lat="45.18847558743446" lon="9.565995557115796"><ele>63.5</ele><time>2026-04-24T15:24:35.995Z</time></trkpt><trkpt lat="45.1886261948445" lon="9.565755498444693"><ele>64.0</ele><time>2026-04-24T15:24:36.995Z</time></trkpt><trkpt lat="45.188786092218024" lon="9.565509290010244"><ele>64.0</ele><time>2026-04-24T15:24:37.995Z</time></trkpt><trkpt lat="45.18894148255818" lon="9.565266964695297"><ele>64.0</ele><time>2026-04-24T15:24:38.995Z</time></trkpt><trkpt lat="45.18909811237137" lon="9.564999617348173"><ele>63.0</ele><time>2026-04-24T15:24:39.995Z</time></trkpt><trkpt lat="45.18926942253678" lon="9.564744374487384"><ele>62.0</ele><time>2026-04-24T15:24:40.995Z</time></trkpt><trkpt lat="45.18943931027337" lon="9.564473009771248"><ele>62.0</ele><time>2026-04-24T15:24:41.995Z</time></trkpt><trkpt lat="45.18960211222461" lon="9.564191489954084"><ele>62.0</ele><time>2026-04-24T15:24:42.995Z</time></trkpt><trkpt lat="45.189768003696756" lon="9.56391873592812"><ele>62.0</ele><time>2026-04-24T15:24:43.995Z</time></trkpt><trkpt lat="45.18995296344722" lon="9.563673034423433"><ele>62.0</ele><time>2026-04-24T15:24:44.995Z</time></trkpt><trkpt lat="45.19010651285043" lon="9.563385633770942"><ele>62.0</ele><time>2026-04-24T15:24:45.995Z</time></trkpt><trkpt lat="45.190272525291704" lon="9.563121920222894"><ele>62.0</ele><time>2026-04-24T15:24:46.995Z</time></trkpt><trkpt lat="45.19044605096427" lon="9.562862913120249"><ele>62.0</ele><time>2026-04-24T15:24:47.995Z</time></trkpt><trkpt lat="45.19060710065558" lon="9.562589068602614"><ele>62.0</ele><time>2026-04-24T15:24:48.995Z</time></trkpt><trkpt lat="45.19079057483213" lon="9.562350923947605"><ele>62.0</ele><time>2026-04-24T15:24:49.995Z</time></trkpt><trkpt lat="45.190958307548094" lon="9.56208597824139"><ele>62.0</ele><time>2026-04-24T15:24:50.995Z</time></trkpt><trkpt lat="45.19112871262172" lon="9.561841177706027"><ele>62.5</ele><time>2026-04-24T15:24:51.995Z</time></trkpt><trkpt lat="45.19130020408024" lon="9.56160243024078"><ele>63.0</ele><time>2026-04-24T15:24:52.995Z</time></trkpt><trkpt lat="45.19146694551826" lon="9.56134189152795"><ele>62.0</ele><time>2026-04-24T15:24:53.995Z</time></trkpt><trkpt lat="45.191639339186125" lon="9.561095314109476"><ele>61.0</ele><time>2026-04-24T15:24:54.995Z</time></trkpt><trkpt lat="45.191818789533315" lon="9.560856088639879"><ele>61.0</ele><time>2026-04-24T15:24:55.995Z</time></trkpt><trkpt lat="45.19200760442511" lon="9.560629810375898"><ele>61.0</ele><time>2026-04-24T15:24:56.995Z</time></trkpt><trkpt lat="45.19218349794041" lon="9.560385089323644"><ele>60.5</ele><time>2026-04-24T15:24:57.995Z</time></trkpt><trkpt lat="45.19237032955336" lon="9.56016877851932"><ele>60.0</ele><time>2026-04-24T15:24:58.995Z</time></trkpt><trkpt lat="45.19255186478593" lon="9.559945709088394"><ele>60.0</ele><time>2026-04-24T15:24:59.995Z</time></trkpt><trkpt lat="45.1927191545358" lon="9.559706453607648"><ele>60.0</ele><time>2026-04-24T15:25:00.994Z</time></trkpt><trkpt lat="45.19287661751338" lon="9.559441031786927"><ele>61.0</ele><time>2026-04-24T15:25:01.994Z</time></trkpt><trkpt lat="45.19304505584193" lon="9.559194607572435"><ele>62.0</ele><time>2026-04-24T15:25:02.994Z</time></trkpt><trkpt lat="45.19322977126359" lon="9.558971638588885"><ele>62.0</ele><time>2026-04-24T15:25:03.994Z</time></trkpt><trkpt lat="45.193405930338756" lon="9.558740289407508"><ele>62.0</ele><time>2026-04-24T15:25:04.994Z</time></trkpt><trkpt lat="45.193568297797626" lon="9.558495547316264"><ele>62.5</ele><time>2026-04-24T15:25:05.994Z</time></trkpt><trkpt lat="45.19373261202311" lon="9.558242391750426"><ele>63.0</ele><time>2026-04-24T15:25:06.994Z</time></trkpt><trkpt lat="45.19390701555068" lon="9.558004587746796"><ele>63.0</ele><time>2026-04-24T15:25:07.994Z</time></trkpt><trkpt lat="45.19407671410236" lon="9.557773285269397"><ele>63.0</ele><time>2026-04-24T15:25:08.994Z</time></trkpt><trkpt lat="45.19425207936072" lon="9.557541565300443"><ele>63.0</ele><time>2026-04-24T15:25:09.994Z</time></trkpt><trkpt lat="45.19442567806812" lon="9.557302540229294"><ele>63.0</ele><time>2026-04-24T15:25:10.994Z</time></trkpt><trkpt lat="45.194587202463886" lon="9.557084759915947"><ele>63.0</ele><time>2026-04-24T15:25:11.994Z</time></trkpt><trkpt lat="45.1947677053642" lon="9.556854629479245"><ele>63.0</ele><time>2026-04-24T15:25:12.994Z</time></trkpt><trkpt lat="45.19495397348064" lon="9.556644288436454"><ele>62.5</ele><time>2026-04-24T15:25:13.994Z</time></trkpt><trkpt lat="45.195122342382234" lon="9.556393061583927"><ele>62.0</ele><time>2026-04-24T15:25:14.994Z</time></trkpt><trkpt lat="45.19529216677041" lon="9.556139207949062"><ele>61.5</ele><time>2026-04-24T15:25:15.994Z</time></trkpt><trkpt lat="45.195461564786534" lon="9.555880185268672"><ele>61.0</ele><time>2026-04-24T15:25:16.994Z</time></trkpt><trkpt lat="45.19565003241467" lon="9.555664718424552"><ele>61.0</ele><time>2026-04-24T15:25:17.994Z</time></trkpt><trkpt lat="45.19583170202944" lon="9.555416340160445"><ele>61.0</ele><time>2026-04-24T15:25:18.994Z</time></trkpt><trkpt lat="45.19601795232816" lon="9.555184518324028"><ele>62.0</ele><time>2026-04-24T15:25:19.994Z</time></trkpt><trkpt lat="45.19618601693528" lon="9.554916503153445"><ele>63.0</ele><time>2026-04-24T15:25:20.994Z</time></trkpt><trkpt lat="45.196363013751416" lon="9.554675635725857"><ele>63.0</ele><time>2026-04-24T15:25:21.994Z</time></trkpt><trkpt lat="45.19653084680585" lon="9.554420642018686"><ele>63.0</ele><time>2026-04-24T15:25:22.994Z</time></trkpt><trkpt lat="45.19672295330799" lon="9.554194142401746"><ele>63.0</ele><time>2026-04-24T15:25:23.994Z</time></trkpt><trkpt lat="45.19692010142396" lon="9.553982082369329"><ele>63.0</ele><time>2026-04-24T15:25:24.994Z</time></trkpt><trkpt lat="45.19710741703257" lon="9.5537493012507"><ele>62.5</ele><time>2026-04-24T15:25:25.994Z</time></trkpt><trkpt lat="45.197289013668744" lon="9.553513194175009"><ele>62.0</ele><time>2026-04-24T15:25:26.994Z</time></trkpt><trkpt lat="45.19747014123368" lon="9.55327471635253"><ele>62.0</ele><time>2026-04-24T15:25:27.994Z</time></trkpt><trkpt lat="45.19766300204966" lon="9.553066693835449"><ele>62.0</ele><time>2026-04-24T15:25:28.994Z</time></trkpt><trkpt lat="45.19783830318108" lon="9.55282467737353"><ele>62.0</ele><time>2026-04-24T15:25:29.994Z</time></trkpt><trkpt lat="45.198028226556914" lon="9.55260192584645"><ele>62.0</ele><time>2026-04-24T15:25:30.994Z</time></trkpt><trkpt lat="45.198177379011554" lon="9.55233770746203"><ele>63.5</ele><time>2026-04-24T15:25:31.994Z</time></trkpt><trkpt lat="45.1983568494747" lon="9.552114511251672"><ele>65.0</ele><time>2026-04-24T15:25:32.994Z</time></trkpt><trkpt lat="45.19852854858322" lon="9.55186526408748"><ele>65.0</ele><time>2026-04-24T15:25:33.994Z</time></trkpt><trkpt lat="45.1987152436298" lon="9.55164136346481"><ele>65.0</ele><time>2026-04-24T15:25:34.995Z</time></trkpt><trkpt lat="45.198900078851224" lon="9.551389299164217"><ele>63.5</ele><time>2026-04-24T15:25:35.995Z</time></trkpt><trkpt lat="45.19907449807742" lon="9.551146165722297"><ele>62.0</ele><time>2026-04-24T15:25:36.995Z</time></trkpt><trkpt lat="45.19926230967891" lon="9.550921577191437"><ele>62.0</ele><time>2026-04-24T15:25:37.995Z</time></trkpt><trkpt lat="45.19943602404543" lon="9.550673757451369"><ele>62.0</ele><time>2026-04-24T15:25:38.995Z</time></trkpt><trkpt lat="45.19960284307377" lon="9.550452718092288"><ele>62.0</ele><time>2026-04-24T15:25:39.995Z</time></trkpt><trkpt lat="45.19978067048467" lon="9.550241008829657"><ele>62.0</ele><time>2026-04-24T15:25:40.995Z</time></trkpt><trkpt lat="45.199962339440134" lon="9.550030477886146"><ele>62.0</ele><time>2026-04-24T15:25:41.995Z</time></trkpt><trkpt lat="45.2001248873418" lon="9.549792667073602"><ele>62.0</ele><time>2026-04-24T15:25:42.995Z</time></trkpt><trkpt lat="45.20029023523895" lon="9.549568283299392"><ele>62.0</ele><time>2026-04-24T15:25:43.995Z</time></trkpt><trkpt lat="45.200456103034796" lon="9.549313260885098"><ele>62.0</ele><time>2026-04-24T15:25:44.995Z</time></trkpt><trkpt lat="45.200633302105416" lon="9.549079259796052"><ele>62.5</ele><time>2026-04-24T15:25:45.995Z</time></trkpt><trkpt lat="45.20081499038077" lon="9.548847990899436"><ele>63.0</ele><time>2026-04-24T15:25:46.995Z</time></trkpt><trkpt lat="45.2009931721061" lon="9.54859997505363"><ele>63.0</ele><time>2026-04-24T15:25:47.995Z</time></trkpt><trkpt lat="45.20118111225117" lon="9.548361218030761"><ele>63.0</ele><time>2026-04-24T15:25:48.995Z</time></trkpt><trkpt lat="45.201362476375095" lon="9.548118927720934"><ele>62.5</ele><time>2026-04-24T15:25:49.995Z</time></trkpt><trkpt lat="45.201544297465134" lon="9.54787037059638"><ele>62.0</ele><time>2026-04-24T15:25:50.995Z</time></trkpt><trkpt lat="45.20172797501838" lon="9.547633781104786"><ele>62.0</ele><time>2026-04-24T15:25:51.995Z</time></trkpt><trkpt lat="45.20189722009869" lon="9.547385025954021"><ele>62.0</ele><time>2026-04-24T15:25:52.995Z</time></trkpt><trkpt lat="45.20207448361614" lon="9.54714763498731"><ele>62.0</ele><time>2026-04-24T15:25:53.995Z</time></trkpt><trkpt lat="45.20225537163941" lon="9.546926845402417"><ele>62.0</ele><time>2026-04-24T15:25:54.995Z</time></trkpt><trkpt lat="45.20242520656312" lon="9.546679613489701"><ele>63.0</ele><time>2026-04-24T15:25:55.995Z</time></trkpt><trkpt lat="45.202606160771964" lon="9.546466034946901"><ele>64.0</ele><time>2026-04-24T15:25:56.995Z</time></trkpt><trkpt lat="45.20278704043384" lon="9.546233282195685"><ele>64.0</ele><time>2026-04-24T15:25:57.995Z</time></trkpt><trkpt lat="45.202965392144165" lon="9.545995634077672"><ele>64.0</ele><time>2026-04-24T15:25:58.995Z</time></trkpt><trkpt lat="45.203151122390935" lon="9.545766540909893"><ele>64.0</ele><time>2026-04-24T15:25:59.995Z</time></trkpt><trkpt lat="45.20332467556022" lon="9.545517245163737"><ele>64.0</ele><time>2026-04-24T15:26:00.995Z</time></trkpt><trkpt lat="45.20349913367068" lon="9.545278282559075"><ele>63.5</ele><time>2026-04-24T15:26:01.995Z</time></trkpt><trkpt lat="45.203682889883815" lon="9.545061927792531"><ele>63.0</ele><time>2026-04-24T15:26:02.995Z</time></trkpt><trkpt lat="45.20387362847976" lon="9.544838564891032"><ele>62.5</ele><time>2026-04-24T15:26:03.995Z</time></trkpt><trkpt lat="45.20405047343287" lon="9.544606590779923"><ele>62.0</ele><time>2026-04-24T15:26:04.995Z</time></trkpt><trkpt lat="45.2042198152699" lon="9.544370745564402"><ele>62.0</ele><time>2026-04-24T15:26:05.995Z</time></trkpt><trkpt lat="45.204396697440295" lon="9.544124442015866"><ele>62.0</ele><time>2026-04-24T15:26:06.995Z</time></trkpt><trkpt lat="45.20458633190772" lon="9.543903000035185"><ele>62.5</ele><time>2026-04-24T15:26:07.995Z</time></trkpt><trkpt lat="45.204763749679145" lon="9.543669902615047"><ele>63.0</ele><time>2026-04-24T15:26:08.995Z</time></trkpt><trkpt lat="45.204945561484514" lon="9.54344607735184"><ele>63.0</ele><time>2026-04-24T15:26:09.995Z</time></trkpt><trkpt lat="45.20511936458784" lon="9.543201790771587"><ele>63.0</ele><time>2026-04-24T15:26:10.995Z</time></trkpt><trkpt lat="45.20528155876873" lon="9.542970180138528"><ele>64.0</ele><time>2026-04-24T15:26:11.995Z</time></trkpt><trkpt lat="45.205438159693394" lon="9.542704985157487"><ele>65.0</ele><time>2026-04-24T15:26:12.995Z</time></trkpt><trkpt lat="45.2056126726448" lon="9.542461082623296"><ele>65.0</ele><time>2026-04-24T15:26:13.995Z</time></trkpt><trkpt lat="45.20579425265376" lon="9.542245399056355"><ele>65.0</ele><time>2026-04-24T15:26:14.995Z</time></trkpt><trkpt lat="45.20599280734816" lon="9.542010405997184"><ele>65.0</ele><time>2026-04-24T15:26:15.995Z</time></trkpt><trkpt lat="45.20618241468314" lon="9.54176383628505"><ele>65.0</ele><time>2026-04-24T15:26:16.995Z</time></trkpt><trkpt lat="45.20637263412629" lon="9.541523310493636"><ele>64.0</ele><time>2026-04-24T15:26:17.995Z</time></trkpt><trkpt lat="45.20655738679938" lon="9.541282712591968"><ele>63.0</ele><time>2026-04-24T15:26:18.995Z</time></trkpt><trkpt lat="45.20671730592078" lon="9.541033227413443"><ele>63.0</ele><time>2026-04-24T15:26:19.995Z</time></trkpt><trkpt lat="45.20688728257779" lon="9.540791437525652"><ele>63.0</ele><time>2026-04-24T15:26:20.995Z</time></trkpt><trkpt lat="45.207064637720585" lon="9.54055887977643"><ele>63.0</ele><time>2026-04-24T15:26:21.995Z</time></trkpt><trkpt lat="45.207244908756714" lon="9.540315078314883"><ele>63.0</ele><time>2026-04-24T15:26:22.995Z</time></trkpt><trkpt lat="45.20743549349539" lon="9.54011510068061"><ele>64.0</ele><time>2026-04-24T15:26:23.995Z</time></trkpt><trkpt lat="45.2076212766102" lon="9.539873795650145"><ele>65.0</ele><time>2026-04-24T15:26:24.995Z</time></trkpt><trkpt lat="45.20779513026464" lon="9.539615105657587"><ele>64.5</ele><time>2026-04-24T15:26:25.995Z</time></trkpt><trkpt lat="45.20798331188723" lon="9.53937680164782"><ele>64.0</ele><time>2026-04-24T15:26:26.995Z</time></trkpt><trkpt lat="45.20817548280612" lon="9.539147332918795"><ele>64.0</ele><time>2026-04-24T15:26:27.995Z</time></trkpt><trkpt lat="45.208340465941546" lon="9.53890103804009"><ele>64.0</ele><time>2026-04-24T15:26:28.995Z</time></trkpt><trkpt lat="45.208518491881776" lon="9.538681933758665"><ele>64.0</ele><time>2026-04-24T15:26:29.995Z</time></trkpt><trkpt lat="45.208682400195194" lon="9.538461081912013"><ele>64.0</ele><time>2026-04-24T15:26:30.995Z</time></trkpt><trkpt lat="45.208854625896926" lon="9.538254281016831"><ele>64.5</ele><time>2026-04-24T15:26:31.995Z</time></trkpt><trkpt lat="45.20901842311152" lon="9.538023148236627"><ele>65.0</ele><time>2026-04-24T15:26:32.995Z</time></trkpt><trkpt lat="45.209189257206816" lon="9.537783057239558"><ele>65.0</ele><time>2026-04-24T15:26:33.995Z</time></trkpt><trkpt lat="45.20935124348141" lon="9.53752853512961"><ele>65.0</ele><time>2026-04-24T15:26:34.995Z</time></trkpt><trkpt lat="45.20952525914928" lon="9.537292003141475"><ele>65.0</ele><time>2026-04-24T15:26:35.995Z</time></trkpt><trkpt lat="45.20967459681236" lon="9.537030783598011"><ele>65.0</ele><time>2026-04-24T15:26:36.995Z</time></trkpt><trkpt lat="45.209856527832066" lon="9.536818653405984"><ele>64.5</ele><time>2026-04-24T15:26:37.995Z</time></trkpt><trkpt lat="45.21003429147712" lon="9.536581593621262"><ele>64.0</ele><time>2026-04-24T15:26:38.995Z</time></trkpt><trkpt lat="45.2102237894871" lon="9.536375148984863"><ele>64.0</ele><time>2026-04-24T15:26:39.995Z</time></trkpt><trkpt lat="45.21040753733068" lon="9.53616616439272"><ele>64.0</ele><time>2026-04-24T15:26:40.995Z</time></trkpt><trkpt lat="45.21059193558773" lon="9.535958285086437"><ele>64.0</ele><time>2026-04-24T15:26:41.995Z</time></trkpt><trkpt lat="45.210780546533954" lon="9.535745621044482"><ele>64.0</ele><time>2026-04-24T15:26:42.995Z</time></trkpt><trkpt lat="45.21095843151561" lon="9.535532000141105"><ele>65.0</ele><time>2026-04-24T15:26:43.995Z</time></trkpt><trkpt lat="45.21114767909501" lon="9.535309191860021"><ele>66.0</ele><time>2026-04-24T15:26:44.995Z</time></trkpt><trkpt lat="45.211328490374484" lon="9.535087858989193"><ele>66.0</ele><time>2026-04-24T15:26:45.995Z</time></trkpt><trkpt lat="45.211467122460625" lon="9.534839983664185"><ele>66.0</ele><time>2026-04-24T15:26:46.995Z</time></trkpt><trkpt lat="45.211625933628675" lon="9.534604185235224"><ele>65.5</ele><time>2026-04-24T15:26:47.995Z</time></trkpt><trkpt lat="45.211802248437905" lon="9.53437010126529"><ele>65.0</ele><time>2026-04-24T15:26:48.995Z</time></trkpt><trkpt lat="45.21196341821421" lon="9.534139436360915"><ele>65.0</ele><time>2026-04-24T15:26:49.995Z</time></trkpt><trkpt lat="45.21212922810728" lon="9.533912463031585"><ele>65.0</ele><time>2026-04-24T15:26:50.995Z</time></trkpt><trkpt lat="45.21230879185069" lon="9.533702517511625"><ele>65.0</ele><time>2026-04-24T15:26:51.995Z</time></trkpt><trkpt lat="45.21245225671514" lon="9.533484943234049"><ele>65.0</ele><time>2026-04-24T15:26:52.995Z</time></trkpt><trkpt lat="45.21263681355165" lon="9.5332841130633"><ele>65.0</ele><time>2026-04-24T15:26:53.995Z</time></trkpt><trkpt lat="45.21280146573011" lon="9.533042620114356"><ele>65.33333333333334</ele><time>2026-04-24T15:26:54.995Z</time></trkpt><trkpt lat="45.21298149089947" lon="9.532837891212395"><ele>65.66666666666667</ele><time>2026-04-24T15:26:55.995Z</time></trkpt><trkpt lat="45.21314120560072" lon="9.532625699708253"><ele>66.0</ele><time>2026-04-24T15:26:56.995Z</time></trkpt><trkpt lat="45.213307714133464" lon="9.53241127098808"><ele>65.5</ele><time>2026-04-24T15:26:57.995Z</time></trkpt><trkpt lat="45.213480165801" lon="9.532206894683755"><ele>65.0</ele><time>2026-04-24T15:26:58.995Z</time></trkpt><trkpt lat="45.2136614569575" lon="9.531988184709626"><ele>65.0</ele><time>2026-04-24T15:26:59.995Z</time></trkpt><trkpt lat="45.21381753350079" lon="9.531751935065074"><ele>65.0</ele><time>2026-04-24T15:27:00.995Z</time></trkpt><trkpt lat="45.21399691074931" lon="9.531529943988312"><ele>65.0</ele><time>2026-04-24T15:27:01.995Z</time></trkpt><trkpt lat="45.21416801638544" lon="9.53130757941756"><ele>65.0</ele><time>2026-04-24T15:27:02.995Z</time></trkpt><trkpt lat="45.214324374678675" lon="9.531077150900483"><ele>65.0</ele><time>2026-04-24T15:27:03.995Z</time></trkpt><trkpt lat="45.21450548540844" lon="9.530864858311364"><ele>65.0</ele><time>2026-04-24T15:27:04.995Z</time></trkpt><trkpt lat="45.21467150629441" lon="9.530635633806396"><ele>64.5</ele><time>2026-04-24T15:27:05.995Z</time></trkpt><trkpt lat="45.21484115725795" lon="9.530415042130008"><ele>64.0</ele><time>2026-04-24T15:27:06.995Z</time></trkpt><trkpt lat="45.21500574746268" lon="9.530194136743232"><ele>64.0</ele><time>2026-04-24T15:27:07.994Z</time></trkpt><trkpt lat="45.21517336698014" lon="9.529984203760367"><ele>64.0</ele><time>2026-04-24T15:27:08.994Z</time></trkpt><trkpt lat="45.21535149013795" lon="9.529769688194014"><ele>64.0</ele><time>2026-04-24T15:27:09.994Z</time></trkpt><trkpt lat="45.21552242213881" lon="9.52956334244798"><ele>64.0</ele><time>2026-04-24T15:27:10.994Z</time></trkpt><trkpt lat="45.21569529715871" lon="9.529316650459517"><ele>66.0</ele><time>2026-04-24T15:27:11.994Z</time></trkpt><trkpt lat="45.215880536341786" lon="9.52910165805673"><ele>68.0</ele><time>2026-04-24T15:27:12.994Z</time></trkpt><trkpt lat="45.216052750900516" lon="9.528834608484955"><ele>68.0</ele><time>2026-04-24T15:27:13.994Z</time></trkpt><trkpt lat="45.21623431149917" lon="9.528604228101466"><ele>68.0</ele><time>2026-04-24T15:27:14.994Z</time></trkpt><trkpt lat="45.21642261608283" lon="9.528383641521492"><ele>66.5</ele><time>2026-04-24T15:27:15.994Z</time></trkpt><trkpt lat="45.216599344196894" lon="9.528145196332657"><ele>65.0</ele><time>2026-04-24T15:27:16.994Z</time></trkpt><trkpt lat="45.216780148353735" lon="9.527926600719324"><ele>65.0</ele><time>2026-04-24T15:27:17.994Z</time></trkpt><trkpt lat="45.21694348175317" lon="9.527686105145218"><ele>65.0</ele><time>2026-04-24T15:27:18.994Z</time></trkpt><trkpt lat="45.21711886220642" lon="9.527443691086834"><ele>65.0</ele><time>2026-04-24T15:27:19.994Z</time></trkpt><trkpt lat="45.21730879140911" lon="9.527229276453145"><ele>65.0</ele><time>2026-04-24T15:27:20.994Z</time></trkpt><trkpt lat="45.217488360116675" lon="9.526986604924595"><ele>65.0</ele><time>2026-04-24T15:27:21.994Z</time></trkpt><trkpt lat="45.217679388351975" lon="9.526759343717112"><ele>65.0</ele><time>2026-04-24T15:27:22.994Z</time></trkpt><trkpt lat="45.217859600826706" lon="9.526522023239758"><ele>65.0</ele><time>2026-04-24T15:27:23.994Z</time></trkpt><trkpt lat="45.21801923968583" lon="9.526271452483089"><ele>65.0</ele><time>2026-04-24T15:27:24.994Z</time></trkpt><trkpt lat="45.218187790712165" lon="9.526056586118326"><ele>65.5</ele><time>2026-04-24T15:27:25.994Z</time></trkpt><trkpt lat="45.21834177743947" lon="9.525834414206765"><ele>66.0</ele><time>2026-04-24T15:27:26.994Z</time></trkpt><trkpt lat="45.21852194771021" lon="9.52562139042406"><ele>66.0</ele><time>2026-04-24T15:27:27.994Z</time></trkpt><trkpt lat="45.2187107515634" lon="9.525398037256894"><ele>66.0</ele><time>2026-04-24T15:27:28.994Z</time></trkpt><trkpt lat="45.21891605350593" lon="9.525146281289436"><ele>65.5</ele><time>2026-04-24T15:27:29.994Z</time></trkpt><trkpt lat="45.21910195377506" lon="9.524886771293541"><ele>65.0</ele><time>2026-04-24T15:27:30.994Z</time></trkpt><trkpt lat="45.21930078477871" lon="9.524659319936278"><ele>65.0</ele><time>2026-04-24T15:27:31.994Z</time></trkpt><trkpt lat="45.21948581083087" lon="9.524415929812923"><ele>65.0</ele><time>2026-04-24T15:27:32.994Z</time></trkpt><trkpt lat="45.21965017215225" lon="9.524146479660168"><ele>65.0</ele><time>2026-04-24T15:27:33.994Z</time></trkpt><trkpt lat="45.2198073227317" lon="9.523877568232248"><ele>65.0</ele><time>2026-04-24T15:27:34.994Z</time></trkpt><trkpt lat="45.219990547364844" lon="9.523653620599518"><ele>65.5</ele><time>2026-04-24T15:27:35.994Z</time></trkpt><trkpt lat="45.2201640976108" lon="9.523419040801473"><ele>66.0</ele><time>2026-04-24T15:27:36.994Z</time></trkpt><trkpt lat="45.22035224129509" lon="9.523204422170116"><ele>66.0</ele><time>2026-04-24T15:27:37.994Z</time></trkpt><trkpt lat="45.22052363524064" lon="9.522959654618454"><ele>66.0</ele><time>2026-04-24T15:27:38.994Z</time></trkpt><trkpt lat="45.22070220360067" lon="9.522729941076822"><ele>66.0</ele><time>2026-04-24T15:27:39.994Z</time></trkpt><trkpt lat="45.220872689524796" lon="9.522495740523084"><ele>66.0</ele><time>2026-04-24T15:27:40.994Z</time></trkpt><trkpt lat="45.2210574889617" lon="9.522278441897418"><ele>66.0</ele><time>2026-04-24T15:27:41.994Z</time></trkpt><trkpt lat="45.221220298535194" lon="9.52204317386564"><ele>66.0</ele><time>2026-04-24T15:27:42.994Z</time></trkpt><trkpt lat="45.22139978397635" lon="9.521808126780265"><ele>66.5</ele><time>2026-04-24T15:27:43.994Z</time></trkpt><trkpt lat="45.22158591337474" lon="9.521575772056162"><ele>67.0</ele><time>2026-04-24T15:27:44.994Z</time></trkpt><trkpt lat="45.22175839388" lon="9.521326453060322"><ele>67.0</ele><time>2026-04-24T15:27:45.994Z</time></trkpt><trkpt lat="45.2219323757848" lon="9.521088304955892"><ele>67.0</ele><time>2026-04-24T15:27:46.994Z</time></trkpt><trkpt lat="45.2221091727191" lon="9.520857686202053"><ele>67.0</ele><time>2026-04-24T15:27:47.994Z</time></trkpt><trkpt lat="45.22228336019224" lon="9.520619610319121"><ele>67.0</ele><time>2026-04-24T15:27:48.994Z</time></trkpt><trkpt lat="45.22246944289987" lon="9.520400641838831"><ele>66.0</ele><time>2026-04-24T15:27:49.994Z</time></trkpt><trkpt lat="45.222648391070386" lon="9.520164192741994"><ele>65.0</ele><time>2026-04-24T15:27:50.994Z</time></trkpt><trkpt lat="45.222827297721615" lon="9.519927685349845"><ele>65.0</ele><time>2026-04-24T15:27:51.994Z</time></trkpt><trkpt lat="45.223001167244576" lon="9.519685036035142"><ele>65.0</ele><time>2026-04-24T15:27:53.001Z</time></trkpt><trkpt lat="45.22319113348532" lon="9.51946163407945"><ele>66.0</ele><time>2026-04-24T15:27:54.001Z</time></trkpt><trkpt lat="45.22337572532239" lon="9.519218911950986"><ele>67.0</ele><time>2026-04-24T15:27:55.001Z</time></trkpt><trkpt lat="45.223550120376466" lon="9.518968064658162"><ele>67.5</ele><time>2026-04-24T15:27:56.001Z</time></trkpt><trkpt lat="45.22373705346371" lon="9.518727588610721"><ele>68.0</ele><time>2026-04-24T15:27:57.001Z</time></trkpt><trkpt lat="45.2239346274744" lon="9.51848920913578"><ele>68.0</ele><time>2026-04-24T15:27:58.001Z</time></trkpt><trkpt lat="45.22418261426814" lon="9.518262937163694"><ele>68.0</ele><time>2026-04-24T15:27:59.001Z</time></trkpt><trkpt lat="45.22440535652614" lon="9.51801470675827"><ele>66.5</ele><time>2026-04-24T15:28:00.001Z</time></trkpt><trkpt lat="45.22461735899645" lon="9.51779151028912"><ele>65.0</ele><time>2026-04-24T15:28:01.001Z</time></trkpt><trkpt lat="45.224782068815045" lon="9.517558169165653"><ele>65.0</ele><time>2026-04-24T15:28:02.001Z</time></trkpt><trkpt lat="45.224939605442614" lon="9.517329127088864"><ele>65.0</ele><time>2026-04-24T15:28:03.001Z</time></trkpt><trkpt lat="45.225086329640746" lon="9.517086566305284"><ele>65.5</ele><time>2026-04-24T15:28:04.001Z</time></trkpt><trkpt lat="45.225217659132205" lon="9.516825649835361"><ele>66.0</ele><time>2026-04-24T15:28:05.001Z</time></trkpt><trkpt lat="45.22538144373978" lon="9.516602142612843"><ele>66.0</ele><time>2026-04-24T15:28:06.001Z</time></trkpt><trkpt lat="45.22552998519732" lon="9.516345865806837"><ele>66.0</ele><time>2026-04-24T15:28:07.001Z</time></trkpt><trkpt lat="45.22569394083688" lon="9.51610198038559"><ele>66.5</ele><time>2026-04-24T15:28:08.001Z</time></trkpt><trkpt lat="45.225856796300164" lon="9.515840390004566"><ele>67.0</ele><time>2026-04-24T15:28:09.001Z</time></trkpt><trkpt lat="45.22603963305669" lon="9.515610022117352"><ele>67.0</ele><time>2026-04-24T15:28:10.001Z</time></trkpt><trkpt lat="45.22622038465579" lon="9.515389300985968"><ele>67.0</ele><time>2026-04-24T15:28:11.001Z</time></trkpt><trkpt lat="45.22637607579798" lon="9.515132138064594"><ele>66.5</ele><time>2026-04-24T15:28:12.001Z</time></trkpt><trkpt lat="45.22653736950646" lon="9.514875873841387"><ele>66.0</ele><time>2026-04-24T15:28:13.001Z</time></trkpt><trkpt lat="45.226722299483605" lon="9.514647852283424"><ele>66.5</ele><time>2026-04-24T15:28:14.001Z</time></trkpt><trkpt lat="45.22690803563622" lon="9.514411149738097"><ele>67.0</ele><time>2026-04-24T15:28:15.001Z</time></trkpt><trkpt lat="45.22710114138482" lon="9.514180701851938"><ele>67.0</ele><time>2026-04-24T15:28:16.001Z</time></trkpt><trkpt lat="45.227280573155106" lon="9.513941768605335"><ele>67.0</ele><time>2026-04-24T15:28:17.001Z</time></trkpt><trkpt lat="45.227459498590186" lon="9.513703910199636"><ele>66.5</ele><time>2026-04-24T15:28:18.001Z</time></trkpt><trkpt lat="45.22763664596624" lon="9.513469026868501"><ele>66.0</ele><time>2026-04-24T15:28:19.001Z</time></trkpt><trkpt lat="45.2278213656412" lon="9.513227575668061"><ele>66.0</ele><time>2026-04-24T15:28:20.001Z</time></trkpt><trkpt lat="45.22801271384361" lon="9.512994873216604"><ele>66.0</ele><time>2026-04-24T15:28:21.001Z</time></trkpt><trkpt lat="45.228201612097045" lon="9.51276905308606"><ele>67.5</ele><time>2026-04-24T15:28:22Z</time></trkpt><trkpt lat="45.228390047881305" lon="9.512539410540889"><ele>69.0</ele><time>2026-04-24T15:28:23Z</time></trkpt><trkpt lat="45.22856470493042" lon="9.512271654784916"><ele>68.5</ele><time>2026-04-24T15:28:24Z</time></trkpt><trkpt lat="45.228750736044056" lon="9.51205740080593"><ele>68.0</ele><time>2026-04-24T15:28:25Z</time></trkpt><trkpt lat="45.228942168136776" lon="9.511835033102177"><ele>68.0</ele><time>2026-04-24T15:28:26Z</time></trkpt><trkpt lat="45.229120327302915" lon="9.511587037071058"><ele>68.0</ele><time>2026-04-24T15:28:27Z</time></trkpt><trkpt lat="45.22931829675722" lon="9.511395987279299"><ele>67.0</ele><time>2026-04-24T15:28:28Z</time></trkpt><trkpt lat="45.2295037515279" lon="9.51118496227826"><ele>66.0</ele><time>2026-04-24T15:28:29Z</time></trkpt><trkpt lat="45.22967505901756" lon="9.510963894444165"><ele>67.0</ele><time>2026-04-24T15:28:30Z</time></trkpt><trkpt lat="45.22985727896864" lon="9.510744055417081"><ele>68.0</ele><time>2026-04-24T15:28:31Z</time></trkpt><trkpt lat="45.23004544734162" lon="9.510524584186385"><ele>68.0</ele><time>2026-04-24T15:28:32Z</time></trkpt><trkpt lat="45.230212060195825" lon="9.510265439922897"><ele>68.0</ele><time>2026-04-24T15:28:33Z</time></trkpt><trkpt lat="45.230381063955846" lon="9.51001539054347"><ele>68.0</ele><time>2026-04-24T15:28:34Z</time></trkpt><trkpt lat="45.23056463999751" lon="9.509788696787789"><ele>68.0</ele><time>2026-04-24T15:28:35Z</time></trkpt><trkpt lat="45.230738385007456" lon="9.509548332055353"><ele>67.5</ele><time>2026-04-24T15:28:36Z</time></trkpt><trkpt lat="45.23091112857815" lon="9.509306131199564"><ele>67.0</ele><time>2026-04-24T15:28:37Z</time></trkpt><trkpt lat="45.231099283103845" lon="9.50904313046125"><ele>67.0</ele><time>2026-04-24T15:28:38Z</time></trkpt><trkpt lat="45.23127814308957" lon="9.508789735362527"><ele>67.0</ele><time>2026-04-24T15:28:39Z</time></trkpt><trkpt lat="45.23146894194842" lon="9.508551596569127"><ele>67.0</ele><time>2026-04-24T15:28:40Z</time></trkpt><trkpt lat="45.23164537917817" lon="9.508291106540455"><ele>67.0</ele><time>2026-04-24T15:28:41Z</time></trkpt><trkpt lat="45.231837867373564" lon="9.508051808547552"><ele>67.5</ele><time>2026-04-24T15:28:42Z</time></trkpt><trkpt lat="45.232055936185496" lon="9.507839666171012"><ele>68.0</ele><time>2026-04-24T15:28:43Z</time></trkpt><trkpt lat="45.2322263874292" lon="9.507562134594586"><ele>69.0</ele><time>2026-04-24T15:28:44Z</time></trkpt><trkpt lat="45.232422248448266" lon="9.507331235953833"><ele>70.0</ele><time>2026-04-24T15:28:45Z</time></trkpt><trkpt lat="45.23261089976352" lon="9.507103266977477"><ele>69.0</ele><time>2026-04-24T15:28:46Z</time></trkpt><trkpt lat="45.232792334679324" lon="9.506885631256225"><ele>68.0</ele><time>2026-04-24T15:28:47Z</time></trkpt><trkpt lat="45.23297996484166" lon="9.506663501936632"><ele>68.0</ele><time>2026-04-24T15:28:48Z</time></trkpt><trkpt lat="45.233165309842796" lon="9.506432139780664"><ele>68.0</ele><time>2026-04-24T15:28:49Z</time></trkpt><trkpt lat="45.233332770839226" lon="9.506185350720166"><ele>68.0</ele><time>2026-04-24T15:28:50Z</time></trkpt><trkpt lat="45.233503452978894" lon="9.505941066315787"><ele>68.0</ele><time>2026-04-24T15:28:51Z</time></trkpt><trkpt lat="45.23370255572759" lon="9.505728228525195"><ele>68.0</ele><time>2026-04-24T15:28:52Z</time></trkpt><trkpt lat="45.233866631213544" lon="9.505475582154506"><ele>68.0</ele><time>2026-04-24T15:28:53Z</time></trkpt><trkpt lat="45.23405476135608" lon="9.505224726683542"><ele>68.0</ele><time>2026-04-24T15:28:54Z</time></trkpt><trkpt lat="45.234233530996526" lon="9.505008742451492"><ele>68.0</ele><time>2026-04-24T15:28:55Z</time></trkpt><trkpt lat="45.23438359423342" lon="9.504759602650092"><ele>68.0</ele><time>2026-04-24T15:28:56Z</time></trkpt><trkpt lat="45.23454623901955" lon="9.504544344259092"><ele>68.0</ele><time>2026-04-24T15:28:57Z</time></trkpt><trkpt lat="45.234699831904294" lon="9.504293133534915"><ele>68.0</ele><time>2026-04-24T15:28:58Z</time></trkpt><trkpt lat="45.234876447286354" lon="9.504077475136748"><ele>68.0</ele><time>2026-04-24T15:28:59Z</time></trkpt><trkpt lat="45.23504021304034" lon="9.50384656026485"><ele>68.5</ele><time>2026-04-24T15:29:00Z</time></trkpt><trkpt lat="45.235214098619196" lon="9.50363426248241"><ele>69.0</ele><time>2026-04-24T15:29:01Z</time></trkpt><trkpt lat="45.23540111860142" lon="9.50340032735101"><ele>69.0</ele><time>2026-04-24T15:29:02Z</time></trkpt><trkpt lat="45.235581882311074" lon="9.503156003483634"><ele>69.0</ele><time>2026-04-24T15:29:03Z</time></trkpt><trkpt lat="45.23576219810101" lon="9.502951186969325"><ele>70.0</ele><time>2026-04-24T15:29:04Z</time></trkpt><trkpt lat="45.23600584535309" lon="9.502722642619808"><ele>71.0</ele><time>2026-04-24T15:29:05Z</time></trkpt><trkpt lat="45.23621116596187" lon="9.502501180063765"><ele>71.0</ele><time>2026-04-24T15:29:06Z</time></trkpt><trkpt lat="45.23640812848997" lon="9.502295138327971"><ele>71.0</ele><time>2026-04-24T15:29:07Z</time></trkpt><trkpt lat="45.23658583399875" lon="9.502083788359352"><ele>71.0</ele><time>2026-04-24T15:29:08Z</time></trkpt><trkpt lat="45.23678518570896" lon="9.501889650427524"><ele>71.0</ele><time>2026-04-24T15:29:09Z</time></trkpt><trkpt lat="45.23697022843461" lon="9.50166424856119"><ele>71.0</ele><time>2026-04-24T15:29:10Z</time></trkpt><trkpt lat="45.237145607919615" lon="9.501434396966205"><ele>71.0</ele><time>2026-04-24T15:29:11Z</time></trkpt><trkpt lat="45.23727333140832" lon="9.501221545111903"><ele>71.0</ele><time>2026-04-24T15:29:12Z</time></trkpt><trkpt lat="45.237420990022095" lon="9.500966079388206"><ele>70.5</ele><time>2026-04-24T15:29:13Z</time></trkpt><trkpt lat="45.237596129422386" lon="9.500742754537201"><ele>70.0</ele><time>2026-04-24T15:29:14Z</time></trkpt><trkpt lat="45.237798363605236" lon="9.500540718157444"><ele>69.5</ele><time>2026-04-24T15:29:15Z</time></trkpt><trkpt lat="45.23795898793667" lon="9.500309592116919"><ele>69.0</ele><time>2026-04-24T15:29:16Z</time></trkpt><trkpt lat="45.23813177669055" lon="9.500084979296389"><ele>69.33333333333333</ele><time>2026-04-24T15:29:17Z</time></trkpt><trkpt lat="45.23831140391902" lon="9.49986546960878"><ele>69.66666666666666</ele><time>2026-04-24T15:29:18Z</time></trkpt><trkpt lat="45.23845987239079" lon="9.49967013805841"><ele>70.0</ele><time>2026-04-24T15:29:19Z</time></trkpt><trkpt lat="45.23859822370741" lon="9.499423873147617"><ele>70.0</ele><time>2026-04-24T15:29:20Z</time></trkpt><trkpt lat="45.2387694921445" lon="9.499213474907961"><ele>70.0</ele><time>2026-04-24T15:29:21Z</time></trkpt><trkpt lat="45.23894695446295" lon="9.499008945867907"><ele>70.0</ele><time>2026-04-24T15:29:22Z</time></trkpt><trkpt lat="45.239120588862725" lon="9.4987728015332"><ele>70.0</ele><time>2026-04-24T15:29:23Z</time></trkpt><trkpt lat="45.239256863439664" lon="9.498525766214868"><ele>70.0</ele><time>2026-04-24T15:29:24Z</time></trkpt><trkpt lat="45.2393904235917" lon="9.498275091059826"><ele>70.0</ele><time>2026-04-24T15:29:25Z</time></trkpt><trkpt lat="45.239523486966704" lon="9.498031263026622"><ele>70.0</ele><time>2026-04-24T15:29:26Z</time></trkpt><trkpt lat="45.23968290689667" lon="9.497818654544464"><ele>70.0</ele><time>2026-04-24T15:29:27Z</time></trkpt><trkpt lat="45.239832141348096" lon="9.497576805735903"><ele>70.0</ele><time>2026-04-24T15:29:28Z</time></trkpt><trkpt lat="45.239979206573466" lon="9.497337438235627"><ele>70.0</ele><time>2026-04-24T15:29:29Z</time></trkpt><trkpt lat="45.24013998691957" lon="9.497127519124968"><ele>70.0</ele><time>2026-04-24T15:29:30Z</time></trkpt><trkpt lat="45.24029881351892" lon="9.496922096943704"><ele>70.0</ele><time>2026-04-24T15:29:31Z</time></trkpt><trkpt lat="45.24046684175173" lon="9.4967160090139"><ele>69.5</ele><time>2026-04-24T15:29:32Z</time></trkpt><trkpt lat="45.24063808275437" lon="9.496494360690152"><ele>69.0</ele><time>2026-04-24T15:29:33Z</time></trkpt><trkpt lat="45.24080188443688" lon="9.496252582337334"><ele>69.0</ele><time>2026-04-24T15:29:34Z</time></trkpt><trkpt lat="45.24096577952296" lon="9.49601575287591"><ele>69.0</ele><time>2026-04-24T15:29:35Z</time></trkpt><trkpt lat="45.24112471247782" lon="9.495770079557017"><ele>69.0</ele><time>2026-04-24T15:29:36Z</time></trkpt><trkpt lat="45.24129611132076" lon="9.495538481029891"><ele>69.0</ele><time>2026-04-24T15:29:37Z</time></trkpt><trkpt lat="45.241484365588974" lon="9.495347718393221"><ele>69.0</ele><time>2026-04-24T15:29:38Z</time></trkpt><trkpt lat="45.241665187229" lon="9.495111726880966"><ele>69.0</ele><time>2026-04-24T15:29:39Z</time></trkpt><trkpt lat="45.24184291171551" lon="9.49491729288817"><ele>69.0</ele><time>2026-04-24T15:29:40Z</time></trkpt><trkpt lat="45.24201364689369" lon="9.494692801051254"><ele>69.0</ele><time>2026-04-24T15:29:41Z</time></trkpt><trkpt lat="45.24219945013735" lon="9.494463529693176"><ele>69.0</ele><time>2026-04-24T15:29:42Z</time></trkpt><trkpt lat="45.242370969018275" lon="9.494224001704762"><ele>69.0</ele><time>2026-04-24T15:29:43Z</time></trkpt><trkpt lat="45.242553721121645" lon="9.49396294740743"><ele>69.0</ele><time>2026-04-24T15:29:44Z</time></trkpt><trkpt lat="45.24269768270797" lon="9.49376067506561"><ele>69.0</ele><time>2026-04-24T15:29:45Z</time></trkpt><trkpt lat="45.242851520467866" lon="9.49352225139478"><ele>69.0</ele><time>2026-04-24T15:29:46Z</time></trkpt><trkpt lat="45.243010364533795" lon="9.493314208164922"><ele>69.5</ele><time>2026-04-24T15:29:47Z</time></trkpt><trkpt lat="45.243163474224836" lon="9.493095572259474"><ele>70.0</ele><time>2026-04-24T15:29:48Z</time></trkpt><trkpt lat="45.2433351730478" lon="9.492870104060351"><ele>71.0</ele><time>2026-04-24T15:29:49Z</time></trkpt><trkpt lat="45.243491769665255" lon="9.492630011817722"><ele>72.0</ele><time>2026-04-24T15:29:50Z</time></trkpt><trkpt lat="45.243656443309824" lon="9.49239755320329"><ele>72.0</ele><time>2026-04-24T15:29:51Z</time></trkpt><trkpt lat="45.243851099443454" lon="9.492170016386218"><ele>72.0</ele><time>2026-04-24T15:29:52Z</time></trkpt><trkpt lat="45.244031710763146" lon="9.491956264351822"><ele>71.0</ele><time>2026-04-24T15:29:53Z</time></trkpt><trkpt lat="45.24422634901222" lon="9.491741817494761"><ele>70.0</ele><time>2026-04-24T15:29:54Z</time></trkpt><trkpt lat="45.244426105613" lon="9.49152551533772"><ele>70.0</ele><time>2026-04-24T15:29:55Z</time></trkpt><trkpt lat="45.24460089431913" lon="9.491315894590084"><ele>70.0</ele><time>2026-04-24T15:29:56Z</time></trkpt><trkpt lat="45.244755835970885" lon="9.491081581689802"><ele>69.5</ele><time>2026-04-24T15:29:57Z</time></trkpt><trkpt lat="45.24491507847619" lon="9.490855172370086"><ele>69.0</ele><time>2026-04-24T15:29:58Z</time></trkpt><trkpt lat="45.24508763088089" lon="9.49061705032277"><ele>70.0</ele><time>2026-04-24T15:29:59Z</time></trkpt><trkpt lat="45.245270238339536" lon="9.490390997522832"><ele>71.0</ele><time>2026-04-24T15:30:00Z</time></trkpt><trkpt lat="45.245449877282326" lon="9.490162468813008"><ele>71.0</ele><time>2026-04-24T15:30:01Z</time></trkpt><trkpt lat="45.24561951897336" lon="9.489926844838967"><ele>71.0</ele><time>2026-04-24T15:30:02Z</time></trkpt><trkpt lat="45.24577462862807" lon="9.489682383122581"><ele>71.0</ele><time>2026-04-24T15:30:02.999Z</time></trkpt><trkpt lat="45.24594354441252" lon="9.489457553309917"><ele>71.0</ele><time>2026-04-24T15:30:03.999Z</time></trkpt><trkpt lat="45.24608297854351" lon="9.489248921760568"><ele>71.0</ele><time>2026-04-24T15:30:04.999Z</time></trkpt><trkpt lat="45.24624120444327" lon="9.489037474038305"><ele>71.0</ele><time>2026-04-24T15:30:05.999Z</time></trkpt><trkpt lat="45.24640368068895" lon="9.488790958770215"><ele>71.0</ele><time>2026-04-24T15:30:06.999Z</time></trkpt><trkpt lat="45.24657832333078" lon="9.488554375596564"><ele>71.5</ele><time>2026-04-24T15:30:07.999Z</time></trkpt><trkpt lat="45.246775138649234" lon="9.488309957301643"><ele>72.0</ele><time>2026-04-24T15:30:08.999Z</time></trkpt><trkpt lat="45.24697434984021" lon="9.488063113011656"><ele>71.5</ele><time>2026-04-24T15:30:09.999Z</time></trkpt><trkpt lat="45.24715711884183" lon="9.487818219591569"><ele>71.0</ele><time>2026-04-24T15:30:10.999Z</time></trkpt><trkpt lat="45.24732866349112" lon="9.487570643013559"><ele>70.66666666666667</ele><time>2026-04-24T15:30:11.999Z</time></trkpt><trkpt lat="45.247491829342366" lon="9.487347259604611"><ele>70.33333333333333</ele><time>2026-04-24T15:30:12.999Z</time></trkpt><trkpt lat="45.2476659537701" lon="9.48715378972078"><ele>70.0</ele><time>2026-04-24T15:30:13.999Z</time></trkpt><trkpt lat="45.24783930597262" lon="9.486938033419849"><ele>69.5</ele><time>2026-04-24T15:30:14.999Z</time></trkpt><trkpt lat="45.24801968217593" lon="9.486698010454587"><ele>69.0</ele><time>2026-04-24T15:30:15.999Z</time></trkpt><trkpt lat="45.24820603448066" lon="9.486456995905472"><ele>69.5</ele><time>2026-04-24T15:30:16.999Z</time></trkpt><trkpt lat="45.24838878489096" lon="9.486217210987615"><ele>70.0</ele><time>2026-04-24T15:30:17.999Z</time></trkpt><trkpt lat="45.24856890641508" lon="9.485966598523525"><ele>70.0</ele><time>2026-04-24T15:30:18.999Z</time></trkpt><trkpt lat="45.248733356476194" lon="9.485746403772257"><ele>70.0</ele><time>2026-04-24T15:30:19.999Z</time></trkpt><trkpt lat="45.24891670818989" lon="9.48554421078374"><ele>69.5</ele><time>2026-04-24T15:30:20.999Z</time></trkpt><trkpt lat="45.24908541733888" lon="9.485297850623068"><ele>69.0</ele><time>2026-04-24T15:30:21.999Z</time></trkpt><trkpt lat="45.24924717377819" lon="9.485052300687173"><ele>69.0</ele><time>2026-04-24T15:30:22.999Z</time></trkpt><trkpt lat="45.24943686262348" lon="9.48483471738684"><ele>69.0</ele><time>2026-04-24T15:30:23.999Z</time></trkpt><trkpt lat="45.249611860302856" lon="9.484602901748167"><ele>69.5</ele><time>2026-04-24T15:30:24.999Z</time></trkpt><trkpt lat="45.24977489839352" lon="9.484350772010302"><ele>70.0</ele><time>2026-04-24T15:30:25.999Z</time></trkpt><trkpt lat="45.249955930073796" lon="9.484128742792075"><ele>70.0</ele><time>2026-04-24T15:30:26.999Z</time></trkpt><trkpt lat="45.25015333551104" lon="9.48390578624803"><ele>70.0</ele><time>2026-04-24T15:30:27.999Z</time></trkpt><trkpt lat="45.25034029120124" lon="9.483671637060148"><ele>70.0</ele><time>2026-04-24T15:30:28.999Z</time></trkpt><trkpt lat="45.250518628071035" lon="9.48344433575574"><ele>70.0</ele><time>2026-04-24T15:30:29.999Z</time></trkpt><trkpt lat="45.25070112479556" lon="9.483215642799474"><ele>70.5</ele><time>2026-04-24T15:30:30.999Z</time></trkpt><trkpt lat="45.25092166143866" lon="9.483015122031226"><ele>71.0</ele><time>2026-04-24T15:30:31.999Z</time></trkpt><trkpt lat="45.251065638180506" lon="9.482772158975685"><ele>70.0</ele><time>2026-04-24T15:30:32.999Z</time></trkpt><trkpt lat="45.25122363149792" lon="9.482538619458557"><ele>69.0</ele><time>2026-04-24T15:30:33.999Z</time></trkpt><trkpt lat="45.25138233787233" lon="9.482295331129588"><ele>70.0</ele><time>2026-04-24T15:30:34.999Z</time></trkpt><trkpt lat="45.251556700166205" lon="9.482081332066063"><ele>71.0</ele><time>2026-04-24T15:30:35.999Z</time></trkpt><trkpt lat="45.25171309901298" lon="9.48183742826343"><ele>71.0</ele><time>2026-04-24T15:30:36.999Z</time></trkpt><trkpt lat="45.25188274238825" lon="9.481629600384258"><ele>71.0</ele><time>2026-04-24T15:30:37.999Z</time></trkpt><trkpt lat="45.25204954327877" lon="9.481416695776446"><ele>71.0</ele><time>2026-04-24T15:30:38.999Z</time></trkpt><trkpt lat="45.25221875458812" lon="9.48120338877819"><ele>71.0</ele><time>2026-04-24T15:30:39.999Z</time></trkpt><trkpt lat="45.25236831354891" lon="9.480967719175501"><ele>71.0</ele><time>2026-04-24T15:30:40.999Z</time></trkpt><trkpt lat="45.25254680396197" lon="9.480777216489335"><ele>71.0</ele><time>2026-04-24T15:30:41.999Z</time></trkpt><trkpt lat="45.252717320215176" lon="9.480559630753469"><ele>71.0</ele><time>2026-04-24T15:30:42.999Z</time></trkpt><trkpt lat="45.25289278106355" lon="9.480356189098442"><ele>71.0</ele><time>2026-04-24T15:30:43.999Z</time></trkpt><trkpt lat="45.25304536296443" lon="9.48012109661421"><ele>71.0</ele><time>2026-04-24T15:30:44.999Z</time></trkpt><trkpt lat="45.25320781914447" lon="9.479890517743957"><ele>71.0</ele><time>2026-04-24T15:30:45.999Z</time></trkpt><trkpt lat="45.25337748914382" lon="9.47966911819373"><ele>71.0</ele><time>2026-04-24T15:30:46.999Z</time></trkpt><trkpt lat="45.25356222012529" lon="9.479445759761958"><ele>71.0</ele><time>2026-04-24T15:30:47.999Z</time></trkpt><trkpt lat="45.25369581016869" lon="9.479212182041568"><ele>71.0</ele><time>2026-04-24T15:30:48.999Z</time></trkpt><trkpt lat="45.25385080805749" lon="9.479018165251338"><ele>71.0</ele><time>2026-04-24T15:30:49.999Z</time></trkpt><trkpt lat="45.25401267428086" lon="9.478827032770074"><ele>71.0</ele><time>2026-04-24T15:30:50.999Z</time></trkpt><trkpt lat="45.254177488497845" lon="9.47861000412098"><ele>71.33333333333334</ele><time>2026-04-24T15:30:51.999Z</time></trkpt><trkpt lat="45.25432088116213" lon="9.478403994828168"><ele>71.66666666666667</ele><time>2026-04-24T15:30:52.999Z</time></trkpt><trkpt lat="45.25449635271162" lon="9.478167523901337"><ele>72.0</ele><time>2026-04-24T15:30:53.999Z</time></trkpt><trkpt lat="45.25466004361311" lon="9.477923148998212"><ele>72.0</ele><time>2026-04-24T15:30:54.999Z</time></trkpt><trkpt lat="45.25484911964791" lon="9.477709328793892"><ele>72.0</ele><time>2026-04-24T15:30:55.999Z</time></trkpt><trkpt lat="45.25502924153446" lon="9.477479143523045"><ele>72.0</ele><time>2026-04-24T15:30:56.999Z</time></trkpt><trkpt lat="45.25520045822013" lon="9.477232837762612"><ele>72.0</ele><time>2026-04-24T15:30:57.999Z</time></trkpt><trkpt lat="45.255359965411216" lon="9.476996946603485"><ele>71.0</ele><time>2026-04-24T15:30:58.999Z</time></trkpt><trkpt lat="45.25553026168765" lon="9.476781444807562"><ele>70.0</ele><time>2026-04-24T15:30:59.999Z</time></trkpt><trkpt lat="45.25569807345079" lon="9.476537327182635"><ele>70.0</ele><time>2026-04-24T15:31:00.999Z</time></trkpt><trkpt lat="45.25586175264647" lon="9.476315493542288"><ele>70.0</ele><time>2026-04-24T15:31:01.999Z</time></trkpt><trkpt lat="45.25605820225639" lon="9.476122557571637"><ele>70.5</ele><time>2026-04-24T15:31:02.999Z</time></trkpt><trkpt lat="45.25624182281368" lon="9.475901981655388"><ele>71.0</ele><time>2026-04-24T15:31:03.999Z</time></trkpt><trkpt lat="45.25641564608268" lon="9.475678876173184"><ele>70.5</ele><time>2026-04-24T15:31:04.999Z</time></trkpt><trkpt lat="45.256588614209555" lon="9.47544230379144"><ele>70.0</ele><time>2026-04-24T15:31:05.999Z</time></trkpt><trkpt lat="45.25675741152495" lon="9.475204704864046"><ele>69.5</ele><time>2026-04-24T15:31:06.999Z</time></trkpt><trkpt lat="45.256932603062936" lon="9.474972855918988"><ele>69.0</ele><time>2026-04-24T15:31:07.999Z</time></trkpt><trkpt lat="45.25712511724594" lon="9.474762850903396"><ele>69.5</ele><time>2026-04-24T15:31:08.999Z</time></trkpt><trkpt lat="45.257305199427485" lon="9.474518624461565"><ele>70.0</ele><time>2026-04-24T15:31:09.999Z</time></trkpt><trkpt lat="45.2574985606422" lon="9.474303155022294"><ele>70.0</ele><time>2026-04-24T15:31:10.999Z</time></trkpt><trkpt lat="45.2576771438111" lon="9.474093049705562"><ele>70.0</ele><time>2026-04-24T15:31:11.999Z</time></trkpt><trkpt lat="45.25785673502291" lon="9.473873624291452"><ele>70.0</ele><time>2026-04-24T15:31:12.999Z</time></trkpt><trkpt lat="45.25805085944334" lon="9.47362845404342"><ele>70.0</ele><time>2026-04-24T15:31:13.999Z</time></trkpt><trkpt lat="45.25821360500756" lon="9.473406103938235"><ele>70.0</ele><time>2026-04-24T15:31:14.999Z</time></trkpt><trkpt lat="45.25836366805052" lon="9.473143875372925"><ele>70.0</ele><time>2026-04-24T15:31:15.999Z</time></trkpt><trkpt lat="45.258529397147676" lon="9.472918098725117"><ele>70.0</ele><time>2026-04-24T15:31:16.999Z</time></trkpt><trkpt lat="45.25871414640314" lon="9.472690311068398"><ele>70.0</ele><time>2026-04-24T15:31:17.999Z</time></trkpt><trkpt lat="45.258903448591234" lon="9.472445530304713"><ele>69.5</ele><time>2026-04-24T15:31:18.999Z</time></trkpt><trkpt lat="45.25905656859003" lon="9.472199331469335"><ele>69.0</ele><time>2026-04-24T15:31:19.999Z</time></trkpt><trkpt lat="45.25922548520117" lon="9.471942005963182"><ele>69.0</ele><time>2026-04-24T15:31:20.999Z</time></trkpt><trkpt lat="45.25940264959035" lon="9.471710113642965"><ele>69.0</ele><time>2026-04-24T15:31:21.999Z</time></trkpt><trkpt lat="45.25958986732979" lon="9.471519050912082"><ele>69.0</ele><time>2026-04-24T15:31:22.999Z</time></trkpt><trkpt lat="45.2597832958576" lon="9.471322959571648"><ele>69.0</ele><time>2026-04-24T15:31:23.999Z</time></trkpt><trkpt lat="45.25995774325177" lon="9.4710895501533"><ele>70.0</ele><time>2026-04-24T15:31:24.999Z</time></trkpt><trkpt lat="45.26013843749646" lon="9.470888499222674"><ele>71.0</ele><time>2026-04-24T15:31:25.999Z</time></trkpt><trkpt lat="45.26031355037138" lon="9.47065184194176"><ele>71.0</ele><time>2026-04-24T15:31:26.999Z</time></trkpt><trkpt lat="45.26047932446854" lon="9.470403879107733"><ele>71.0</ele><time>2026-04-24T15:31:27.999Z</time></trkpt><trkpt lat="45.26064044392644" lon="9.470182576375914"><ele>71.0</ele><time>2026-04-24T15:31:28.999Z</time></trkpt><trkpt lat="45.26079276009972" lon="9.469954788023252"><ele>71.0</ele><time>2026-04-24T15:31:29.999Z</time></trkpt><trkpt lat="45.26092456464182" lon="9.46972780910151"><ele>71.0</ele><time>2026-04-24T15:31:30.999Z</time></trkpt><trkpt lat="45.261080551408575" lon="9.469512148075257"><ele>71.5</ele><time>2026-04-24T15:31:31.999Z</time></trkpt><trkpt lat="45.26123980280378" lon="9.46925766627113"><ele>72.0</ele><time>2026-04-24T15:31:32.999Z</time></trkpt><trkpt lat="45.2613980674978" lon="9.469042859617618"><ele>72.0</ele><time>2026-04-24T15:31:33.999Z</time></trkpt><trkpt lat="45.26155613576734" lon="9.468812596221436"><ele>72.0</ele><time>2026-04-24T15:31:34.999Z</time></trkpt><trkpt lat="45.261731391560524" lon="9.468588610085874"><ele>72.5</ele><time>2026-04-24T15:31:35.999Z</time></trkpt><trkpt lat="45.261907876338505" lon="9.468371538987267"><ele>73.0</ele><time>2026-04-24T15:31:36.999Z</time></trkpt><trkpt lat="45.26207594535818" lon="9.468146376557272"><ele>73.0</ele><time>2026-04-24T15:31:37.999Z</time></trkpt><trkpt lat="45.26224638116941" lon="9.467924559654989"><ele>73.0</ele><time>2026-04-24T15:31:38.999Z</time></trkpt><trkpt lat="45.262429162240664" lon="9.46771010086193"><ele>73.0</ele><time>2026-04-24T15:31:39.999Z</time></trkpt><trkpt lat="45.26260162646287" lon="9.467472713991837"><ele>73.0</ele><time>2026-04-24T15:31:40.999Z</time></trkpt><trkpt lat="45.26277201585509" lon="9.467227008573275"><ele>74.0</ele><time>2026-04-24T15:31:41.999Z</time></trkpt><trkpt lat="45.26294628074532" lon="9.46697538647648"><ele>75.0</ele><time>2026-04-24T15:31:42.999Z</time></trkpt><trkpt lat="45.26313376548926" lon="9.466752642995491"><ele>75.0</ele><time>2026-04-24T15:31:43.999Z</time></trkpt><trkpt lat="45.263315190058044" lon="9.466543626890846"><ele>75.0</ele><time>2026-04-24T15:31:44.999Z</time></trkpt><trkpt lat="45.2634938195905" lon="9.466340546573852"><ele>74.0</ele><time>2026-04-24T15:31:45.999Z</time></trkpt><trkpt lat="45.263672965431375" lon="9.466120367396268"><ele>73.0</ele><time>2026-04-24T15:31:46.999Z</time></trkpt><trkpt lat="45.26383793399879" lon="9.465889177491627"><ele>72.5</ele><time>2026-04-24T15:31:47.999Z</time></trkpt><trkpt lat="45.26400942858568" lon="9.465600155124987"><ele>72.0</ele><time>2026-04-24T15:31:48.999Z</time></trkpt><trkpt lat="45.26419059076515" lon="9.465364961914307"><ele>72.0</ele><time>2026-04-24T15:31:49.999Z</time></trkpt><trkpt lat="45.264368878337045" lon="9.465137042495702"><ele>72.0</ele><time>2026-04-24T15:31:50.999Z</time></trkpt><trkpt lat="45.26455244267662" lon="9.464914962590106"><ele>72.0</ele><time>2026-04-24T15:31:51.999Z</time></trkpt><trkpt lat="45.26473119354168" lon="9.464669295047774"><ele>72.0</ele><time>2026-04-24T15:31:52.999Z</time></trkpt><trkpt lat="45.26490661554063" lon="9.46443759092078"><ele>72.5</ele><time>2026-04-24T15:31:53.999Z</time></trkpt><trkpt lat="45.26508062480701" lon="9.464199319436647"><ele>73.0</ele><time>2026-04-24T15:31:54.999Z</time></trkpt><trkpt lat="45.26525877440961" lon="9.46399294046227"><ele>73.0</ele><time>2026-04-24T15:31:55.999Z</time></trkpt><trkpt lat="45.265421334834684" lon="9.463784796674062"><ele>73.0</ele><time>2026-04-24T15:31:56.999Z</time></trkpt><trkpt lat="45.265573565739984" lon="9.463544794058512"><ele>73.0</ele><time>2026-04-24T15:31:57.999Z</time></trkpt><trkpt lat="45.26574640290003" lon="9.463320255366554"><ele>73.0</ele><time>2026-04-24T15:31:58.998Z</time></trkpt><trkpt lat="45.26592178898273" lon="9.463105128249106"><ele>73.0</ele><time>2026-04-24T15:31:59.998Z</time></trkpt><trkpt lat="45.266067473129326" lon="9.462834127943136"><ele>73.0</ele><time>2026-04-24T15:32:00.998Z</time></trkpt><trkpt lat="45.26625534871409" lon="9.462634515630244"><ele>73.0</ele><time>2026-04-24T15:32:01.998Z</time></trkpt><trkpt lat="45.26641355099732" lon="9.462397230225402"><ele>73.0</ele><time>2026-04-24T15:32:02.998Z</time></trkpt><trkpt lat="45.26658126150369" lon="9.462169097549818"><ele>73.0</ele><time>2026-04-24T15:32:03.998Z</time></trkpt><trkpt lat="45.26674613916349" lon="9.461953211884415"><ele>73.0</ele><time>2026-04-24T15:32:04.998Z</time></trkpt><trkpt lat="45.26691492439474" lon="9.461745872691706"><ele>73.0</ele><time>2026-04-24T15:32:05.998Z</time></trkpt><trkpt lat="45.267072978396946" lon="9.46153500310416"><ele>73.0</ele><time>2026-04-24T15:32:06.998Z</time></trkpt><trkpt lat="45.26720553277221" lon="9.461336111840582"><ele>73.0</ele><time>2026-04-24T15:32:07.998Z</time></trkpt><trkpt lat="45.26736142037253" lon="9.46113636365929"><ele>73.0</ele><time>2026-04-24T15:32:08.998Z</time></trkpt><trkpt lat="45.267504317069964" lon="9.460925918442769"><ele>73.0</ele><time>2026-04-24T15:32:09.998Z</time></trkpt><trkpt lat="45.26765676153518" lon="9.46072389780354"><ele>73.0</ele><time>2026-04-24T15:32:10.998Z</time></trkpt><trkpt lat="45.267803412744335" lon="9.46052833284991"><ele>73.0</ele><time>2026-04-24T15:32:11.998Z</time></trkpt><trkpt lat="45.26795215493525" lon="9.460322992635406"><ele>73.0</ele><time>2026-04-24T15:32:12.998Z</time></trkpt><trkpt lat="45.26810196224631" lon="9.460084175747904"><ele>73.5</ele><time>2026-04-24T15:32:13.998Z</time></trkpt><trkpt lat="45.26825873914851" lon="9.459847876326332"><ele>74.0</ele><time>2026-04-24T15:32:14.998Z</time></trkpt><trkpt lat="45.268416940219765" lon="9.45960986570892"><ele>74.0</ele><time>2026-04-24T15:32:15.998Z</time></trkpt><trkpt lat="45.26859282571024" lon="9.459407751449735"><ele>74.0</ele><time>2026-04-24T15:32:16.998Z</time></trkpt><trkpt lat="45.2687852842918" lon="9.459201950706154"><ele>73.5</ele><time>2026-04-24T15:32:17.998Z</time></trkpt><trkpt lat="45.26895932685579" lon="9.458962053333417"><ele>73.0</ele><time>2026-04-24T15:32:18.998Z</time></trkpt><trkpt lat="45.269133459065955" lon="9.458703787478845"><ele>73.0</ele><time>2026-04-24T15:32:19.998Z</time></trkpt><trkpt lat="45.269308295973346" lon="9.458438563289931"><ele>73.0</ele><time>2026-04-24T15:32:20.998Z</time></trkpt><trkpt lat="45.269465765796404" lon="9.458170546308178"><ele>74.0</ele><time>2026-04-24T15:32:21.998Z</time></trkpt><trkpt lat="45.2696241013186" lon="9.457900891095477"><ele>75.0</ele><time>2026-04-24T15:32:22.998Z</time></trkpt><trkpt lat="45.26979156847812" lon="9.457651534528674"><ele>75.0</ele><time>2026-04-24T15:32:23.998Z</time></trkpt><trkpt lat="45.26997595198406" lon="9.457413795519017"><ele>75.0</ele><time>2026-04-24T15:32:24.998Z</time></trkpt><trkpt lat="45.27014991656855" lon="9.457175742194375"><ele>75.0</ele><time>2026-04-24T15:32:25.998Z</time></trkpt><trkpt lat="45.27031561780667" lon="9.456973269159684"><ele>75.0</ele><time>2026-04-24T15:32:26.998Z</time></trkpt><trkpt lat="45.27050587007372" lon="9.456772347534836"><ele>75.0</ele><time>2026-04-24T15:32:27.998Z</time></trkpt><trkpt lat="45.270669735962855" lon="9.456516015007441"><ele>75.0</ele><time>2026-04-24T15:32:28.998Z</time></trkpt><trkpt lat="45.270852776668434" lon="9.45622981753856"><ele>75.0</ele><time>2026-04-24T15:32:29.998Z</time></trkpt><trkpt lat="45.271036346563044" lon="9.455976758929774"><ele>75.0</ele><time>2026-04-24T15:32:30.998Z</time></trkpt><trkpt lat="45.2712072098876" lon="9.455712315706132"><ele>75.0</ele><time>2026-04-24T15:32:31.998Z</time></trkpt><trkpt lat="45.271377496074486" lon="9.45547186421949"><ele>75.0</ele><time>2026-04-24T15:32:32.998Z</time></trkpt><trkpt lat="45.271560765066994" lon="9.455239089638566"><ele>74.5</ele><time>2026-04-24T15:32:33.998Z</time></trkpt><trkpt lat="45.27173514879943" lon="9.454995610459266"><ele>74.0</ele><time>2026-04-24T15:32:34.998Z</time></trkpt><trkpt lat="45.271890333073856" lon="9.454714206079421"><ele>74.0</ele><time>2026-04-24T15:32:35.998Z</time></trkpt><trkpt lat="45.27204455092415" lon="9.454437788723352"><ele>74.0</ele><time>2026-04-24T15:32:36.998Z</time></trkpt><trkpt lat="45.27221258117093" lon="9.454179539554247"><ele>73.5</ele><time>2026-04-24T15:32:37.998Z</time></trkpt><trkpt lat="45.272370423435" lon="9.453912891690095"><ele>73.0</ele><time>2026-04-24T15:32:38.998Z</time></trkpt><trkpt lat="45.272540582693615" lon="9.453692475624054"><ele>74.0</ele><time>2026-04-24T15:32:39.998Z</time></trkpt><trkpt lat="45.2726988053903" lon="9.453434286227035"><ele>75.0</ele><time>2026-04-24T15:32:40.998Z</time></trkpt><trkpt lat="45.27286702389723" lon="9.453156973121596"><ele>75.0</ele><time>2026-04-24T15:32:41.998Z</time></trkpt><trkpt lat="45.27302332697282" lon="9.452873515926667"><ele>75.0</ele><time>2026-04-24T15:32:42.998Z</time></trkpt><trkpt lat="45.2731788801317" lon="9.452594952845034"><ele>74.5</ele><time>2026-04-24T15:32:43.998Z</time></trkpt><trkpt lat="45.27335015243949" lon="9.45233380079452"><ele>74.0</ele><time>2026-04-24T15:32:44.998Z</time></trkpt><trkpt lat="45.27351685090102" lon="9.45206628272678"><ele>74.0</ele><time>2026-04-24T15:32:45.998Z</time></trkpt><trkpt lat="45.2736958146809" lon="9.451870806990575"><ele>74.0</ele><time>2026-04-24T15:32:46.998Z</time></trkpt><trkpt lat="45.2738632579153" lon="9.45161514765672"><ele>74.5</ele><time>2026-04-24T15:32:47.998Z</time></trkpt><trkpt lat="45.27404460782457" lon="9.451370106528994"><ele>75.0</ele><time>2026-04-24T15:32:48.998Z</time></trkpt><trkpt lat="45.27422199260914" lon="9.451122541903217"><ele>75.0</ele><time>2026-04-24T15:32:49.998Z</time></trkpt><trkpt lat="45.27438626640636" lon="9.45086151716073"><ele>75.0</ele><time>2026-04-24T15:32:50.998Z</time></trkpt><trkpt lat="45.274531545186335" lon="9.450571576007366"><ele>75.5</ele><time>2026-04-24T15:32:51.998Z</time></trkpt><trkpt lat="45.27468926755072" lon="9.450280689447396"><ele>76.0</ele><time>2026-04-24T15:32:52.998Z</time></trkpt><trkpt lat="45.27484977420122" lon="9.450011186538962"><ele>76.5</ele><time>2026-04-24T15:32:53.998Z</time></trkpt><trkpt lat="45.27501746002016" lon="9.449762130827855"><ele>77.0</ele><time>2026-04-24T15:32:54.998Z</time></trkpt><trkpt lat="45.27516467483754" lon="9.449486592532216"><ele>76.0</ele><time>2026-04-24T15:32:55.998Z</time></trkpt><trkpt lat="45.2753155981477" lon="9.44923037287796"><ele>75.0</ele><time>2026-04-24T15:32:56.998Z</time></trkpt><trkpt lat="45.27545780282628" lon="9.448993731366086"><ele>75.0</ele><time>2026-04-24T15:32:57.998Z</time></trkpt><trkpt lat="45.27560342786293" lon="9.448725471305158"><ele>75.0</ele><time>2026-04-24T15:32:58.998Z</time></trkpt><trkpt lat="45.27576286086859" lon="9.448428317965215"><ele>75.5</ele><time>2026-04-24T15:32:59.998Z</time></trkpt><trkpt lat="45.27594140753433" lon="9.448178725003407"><ele>76.0</ele><time>2026-04-24T15:33:00.998Z</time></trkpt><trkpt lat="45.27611031559527" lon="9.4479117248564"><ele>76.0</ele><time>2026-04-24T15:33:01.998Z</time></trkpt><trkpt lat="45.276300720012614" lon="9.447638722168849"><ele>76.0</ele><time>2026-04-24T15:33:02.998Z</time></trkpt><trkpt lat="45.27648899467502" lon="9.447374337077655"><ele>75.0</ele><time>2026-04-24T15:33:03.998Z</time></trkpt><trkpt lat="45.27667217995902" lon="9.447107501013267"><ele>74.0</ele><time>2026-04-24T15:33:04.998Z</time></trkpt><trkpt lat="45.27683539245252" lon="9.446810236081667"><ele>74.0</ele><time>2026-04-24T15:33:05.998Z</time></trkpt><trkpt lat="45.277015846499566" lon="9.446558136585251"><ele>74.0</ele><time>2026-04-24T15:33:06.998Z</time></trkpt><trkpt lat="45.27718305790016" lon="9.446297117759231"><ele>73.5</ele><time>2026-04-24T15:33:07.998Z</time></trkpt><trkpt lat="45.27733997670495" lon="9.44608085356325"><ele>73.0</ele><time>2026-04-24T15:33:08.998Z</time></trkpt><trkpt lat="45.277472328484755" lon="9.445768619255226"><ele>73.0</ele><time>2026-04-24T15:33:09.998Z</time></trkpt><trkpt lat="45.27764023321624" lon="9.445531668283154"><ele>73.0</ele><time>2026-04-24T15:33:10.998Z</time></trkpt><trkpt lat="45.27779576729996" lon="9.445267090693713"><ele>73.33333333333333</ele><time>2026-04-24T15:33:11.998Z</time></trkpt><trkpt lat="45.27790865428876" lon="9.44501751306544"><ele>73.66666666666667</ele><time>2026-04-24T15:33:12.998Z</time></trkpt><trkpt lat="45.27803678142749" lon="9.444745585363481"><ele>74.0</ele><time>2026-04-24T15:33:13.998Z</time></trkpt><trkpt lat="45.27816735030132" lon="9.44449649997778"><ele>74.0</ele><time>2026-04-24T15:33:14.998Z</time></trkpt><trkpt lat="45.278321124584956" lon="9.444227195444677"><ele>74.0</ele><time>2026-04-24T15:33:15.998Z</time></trkpt><trkpt lat="45.27847887271427" lon="9.443958036615319"><ele>73.5</ele><time>2026-04-24T15:33:16.998Z</time></trkpt><trkpt lat="45.27860127499045" lon="9.443669894174128"><ele>73.0</ele><time>2026-04-24T15:33:17.998Z</time></trkpt><trkpt lat="45.27873603031829" lon="9.443405822532355"><ele>73.0</ele><time>2026-04-24T15:33:18.998Z</time></trkpt><trkpt lat="45.278907111357654" lon="9.443172960531658"><ele>73.0</ele><time>2026-04-24T15:33:19.998Z</time></trkpt><trkpt lat="45.279040739153494" lon="9.442882908510157"><ele>73.0</ele><time>2026-04-24T15:33:20.998Z</time></trkpt><trkpt lat="45.27919217030697" lon="9.442595570154136"><ele>73.0</ele><time>2026-04-24T15:33:21.998Z</time></trkpt><trkpt lat="45.27934334523919" lon="9.442345302358111"><ele>73.5</ele><time>2026-04-24T15:33:22.998Z</time></trkpt><trkpt lat="45.27954772619901" lon="9.442128729048518"><ele>74.0</ele><time>2026-04-24T15:33:23.998Z</time></trkpt><trkpt lat="45.27970199450464" lon="9.441869411092982"><ele>73.5</ele><time>2026-04-24T15:33:24.998Z</time></trkpt><trkpt lat="45.279870507256526" lon="9.441611689516918"><ele>73.0</ele><time>2026-04-24T15:33:25.998Z</time></trkpt><trkpt lat="45.2800416243235" lon="9.441326003198077"><ele>73.0</ele><time>2026-04-24T15:33:26.998Z</time></trkpt><trkpt lat="45.28022205974752" lon="9.441077249571645"><ele>73.0</ele><time>2026-04-24T15:33:27.998Z</time></trkpt><trkpt lat="45.280381920687056" lon="9.440819810914077"><ele>73.0</ele><time>2026-04-24T15:33:28.998Z</time></trkpt><trkpt lat="45.280536227519384" lon="9.44056516173794"><ele>73.0</ele><time>2026-04-24T15:33:29.998Z</time></trkpt><trkpt lat="45.280696110812805" lon="9.44031048308814"><ele>73.0</ele><time>2026-04-24T15:33:30.998Z</time></trkpt><trkpt lat="45.280856371590026" lon="9.440021226489097"><ele>73.0</ele><time>2026-04-24T15:33:31.998Z</time></trkpt><trkpt lat="45.28100054800508" lon="9.439764426950871"><ele>74.0</ele><time>2026-04-24T15:33:32.998Z</time></trkpt><trkpt lat="45.28116406251742" lon="9.439507059166447"><ele>75.0</ele><time>2026-04-24T15:33:33.998Z</time></trkpt><trkpt lat="45.2813432196159" lon="9.439293829290783"><ele>74.0</ele><time>2026-04-24T15:33:34.998Z</time></trkpt><trkpt lat="45.281489867837955" lon="9.439039374849418"><ele>73.0</ele><time>2026-04-24T15:33:35.998Z</time></trkpt><trkpt lat="45.28161840361033" lon="9.438778020966764"><ele>73.0</ele><time>2026-04-24T15:33:36.998Z</time></trkpt><trkpt lat="45.28175694743198" lon="9.4385019107309"><ele>73.0</ele><time>2026-04-24T15:33:37.998Z</time></trkpt><trkpt lat="45.281890420465494" lon="9.438227087300241"><ele>73.0</ele><time>2026-04-24T15:33:38.998Z</time></trkpt><trkpt lat="45.282035312127995" lon="9.437970880976584"><ele>73.0</ele><time>2026-04-24T15:33:39.998Z</time></trkpt><trkpt lat="45.28218270995528" lon="9.43773236464298"><ele>73.5</ele><time>2026-04-24T15:33:40.998Z</time></trkpt><trkpt lat="45.28228787239002" lon="9.437447747712596"><ele>74.0</ele><time>2026-04-24T15:33:41.998Z</time></trkpt><trkpt lat="45.28244809692066" lon="9.437216321111306"><ele>74.0</ele><time>2026-04-24T15:33:42.998Z</time></trkpt><trkpt lat="45.282580194033336" lon="9.436964028275078"><ele>74.0</ele><time>2026-04-24T15:33:43.998Z</time></trkpt><trkpt lat="45.28272505826279" lon="9.43671463508271"><ele>74.0</ele><time>2026-04-24T15:33:44.998Z</time></trkpt><trkpt lat="45.28286868873863" lon="9.436455249833587"><ele>74.5</ele><time>2026-04-24T15:33:45.998Z</time></trkpt><trkpt lat="45.28301053736019" lon="9.436189715151366"><ele>75.0</ele><time>2026-04-24T15:33:46.998Z</time></trkpt><trkpt lat="45.2831414197185" lon="9.435921465541325"><ele>75.0</ele><time>2026-04-24T15:33:47.998Z</time></trkpt><trkpt lat="45.28330358397365" lon="9.435669596026399"><ele>75.0</ele><time>2026-04-24T15:33:48.998Z</time></trkpt><trkpt lat="45.28346558002867" lon="9.435443537839294"><ele>75.0</ele><time>2026-04-24T15:33:49.998Z</time></trkpt><trkpt lat="45.28360766803082" lon="9.435245954392824"><ele>75.0</ele><time>2026-04-24T15:33:50.998Z</time></trkpt><trkpt lat="45.28374005292807" lon="9.434997306684759"><ele>75.0</ele><time>2026-04-24T15:33:51.998Z</time></trkpt><trkpt lat="45.28387718220948" lon="9.43475082666895"><ele>74.0</ele><time>2026-04-24T15:33:52.998Z</time></trkpt><trkpt lat="45.28402373306221" lon="9.434523530958842"><ele>73.0</ele><time>2026-04-24T15:33:53.998Z</time></trkpt><trkpt lat="45.28419079300011" lon="9.434288555663784"><ele>73.0</ele><time>2026-04-24T15:33:54.997Z</time></trkpt><trkpt lat="45.28434178656742" lon="9.43403088063222"><ele>73.0</ele><time>2026-04-24T15:33:55.997Z</time></trkpt><trkpt lat="45.28449954105249" lon="9.433802487244758"><ele>73.5</ele><time>2026-04-24T15:33:56.997Z</time></trkpt><trkpt lat="45.28465293263689" lon="9.43355604110469"><ele>74.0</ele><time>2026-04-24T15:33:57.997Z</time></trkpt><trkpt lat="45.284805725104235" lon="9.433312838262859"><ele>74.5</ele><time>2026-04-24T15:33:58.997Z</time></trkpt><trkpt lat="45.284963035646996" lon="9.433076854857664"><ele>75.0</ele><time>2026-04-24T15:33:59.997Z</time></trkpt><trkpt lat="45.28511326786052" lon="9.432832337921035"><ele>75.0</ele><time>2026-04-24T15:34:00.997Z</time></trkpt><trkpt lat="45.28523461265594" lon="9.432552810734755"><ele>75.0</ele><time>2026-04-24T15:34:01.997Z</time></trkpt><trkpt lat="45.28540978857207" lon="9.432375063714106"><ele>75.0</ele><time>2026-04-24T15:34:02.997Z</time></trkpt><trkpt lat="45.28557201515558" lon="9.432168851183"><ele>75.0</ele><time>2026-04-24T15:34:03.997Z</time></trkpt><trkpt lat="45.28572148729479" lon="9.431929322511278"><ele>75.0</ele><time>2026-04-24T15:34:04.997Z</time></trkpt><trkpt lat="45.28587188744464" lon="9.431684575902766"><ele>75.0</ele><time>2026-04-24T15:34:05.997Z</time></trkpt><trkpt lat="45.28596942744386" lon="9.43135939424305"><ele>75.0</ele><time>2026-04-24T15:34:06.997Z</time></trkpt><trkpt lat="45.286105903287776" lon="9.431089851885147"><ele>76.5</ele><time>2026-04-24T15:34:07.997Z</time></trkpt><trkpt lat="45.28625777658764" lon="9.430850237639138"><ele>78.0</ele><time>2026-04-24T15:34:08.997Z</time></trkpt><trkpt lat="45.28641142621044" lon="9.430610509738417"><ele>77.5</ele><time>2026-04-24T15:34:09.997Z</time></trkpt><trkpt lat="45.28655692334106" lon="9.4303374713641"><ele>77.0</ele><time>2026-04-24T15:34:10.997Z</time></trkpt><trkpt lat="45.286702816221805" lon="9.430080531743881"><ele>77.0</ele><time>2026-04-24T15:34:11.997Z</time></trkpt><trkpt lat="45.286848833334105" lon="9.429813976808024"><ele>77.0</ele><time>2026-04-24T15:34:12.997Z</time></trkpt><trkpt lat="45.28699210098883" lon="9.429543409785673"><ele>77.0</ele><time>2026-04-24T15:34:13.997Z</time></trkpt><trkpt lat="45.287141367018414" lon="9.429312183237963"><ele>77.0</ele><time>2026-04-24T15:34:14.997Z</time></trkpt><trkpt lat="45.28728638886963" lon="9.429045162852619"><ele>77.33333333333334</ele><time>2026-04-24T15:34:15.997Z</time></trkpt><trkpt lat="45.28743114128667" lon="9.428802569294904"><ele>77.66666666666667</ele><time>2026-04-24T15:34:16.997Z</time></trkpt><trkpt lat="45.28757854343057" lon="9.42856004692478"><ele>78.0</ele><time>2026-04-24T15:34:17.997Z</time></trkpt><trkpt lat="45.28771198856875" lon="9.428292631909617"><ele>78.0</ele><time>2026-04-24T15:34:18.997Z</time></trkpt><trkpt lat="45.287834250186116" lon="9.428000117720504"><ele>78.0</ele><time>2026-04-24T15:34:19.997Z</time></trkpt><trkpt lat="45.288001588967745" lon="9.427779897530243"><ele>77.5</ele><time>2026-04-24T15:34:20.997Z</time></trkpt><trkpt lat="45.28813350175328" lon="9.427509013683657"><ele>77.0</ele><time>2026-04-24T15:34:21.997Z</time></trkpt><trkpt lat="45.28827435910381" lon="9.427265917388267"><ele>77.0</ele><time>2026-04-24T15:34:22.997Z</time></trkpt><trkpt lat="45.288427411648186" lon="9.427021586428781"><ele>77.0</ele><time>2026-04-24T15:34:23.997Z</time></trkpt><trkpt lat="45.28855789331544" lon="9.426784323918868"><ele>77.0</ele><time>2026-04-24T15:34:24.997Z</time></trkpt><trkpt lat="45.28871676398977" lon="9.426567059987711"><ele>77.0</ele><time>2026-04-24T15:34:25.997Z</time></trkpt><trkpt lat="45.288878002496986" lon="9.426322429340507"><ele>77.0</ele><time>2026-04-24T15:34:26.997Z</time></trkpt><trkpt lat="45.28902762925988" lon="9.426067680293132"><ele>77.0</ele><time>2026-04-24T15:34:27.997Z</time></trkpt><trkpt lat="45.28916802718765" lon="9.425777369501418"><ele>77.0</ele><time>2026-04-24T15:34:28.997Z</time></trkpt><trkpt lat="45.28931123696721" lon="9.42552949312895"><ele>76.5</ele><time>2026-04-24T15:34:29.997Z</time></trkpt><trkpt lat="45.28947461554674" lon="9.42528532626705"><ele>76.0</ele><time>2026-04-24T15:34:30.997Z</time></trkpt><trkpt lat="45.289601105310325" lon="9.425016464127125"><ele>76.0</ele><time>2026-04-24T15:34:31.997Z</time></trkpt><trkpt lat="45.289744519369755" lon="9.424767196891436"><ele>76.0</ele><time>2026-04-24T15:34:32.997Z</time></trkpt><trkpt lat="45.28990964895178" lon="9.424561447829502"><ele>76.0</ele><time>2026-04-24T15:34:33.997Z</time></trkpt><trkpt lat="45.29006243654555" lon="9.424285244193118"><ele>76.0</ele><time>2026-04-24T15:34:34.997Z</time></trkpt><trkpt lat="45.290221536219434" lon="9.424010463065237"><ele>76.0</ele><time>2026-04-24T15:34:35.997Z</time></trkpt><trkpt lat="45.290361073825174" lon="9.423750899008539"><ele>76.0</ele><time>2026-04-24T15:34:36.997Z</time></trkpt><trkpt lat="45.29050070151231" lon="9.42351732961698"><ele>76.0</ele><time>2026-04-24T15:34:37.997Z</time></trkpt><trkpt lat="45.29063303869097" lon="9.42325274667688"><ele>76.0</ele><time>2026-04-24T15:34:38.997Z</time></trkpt><trkpt lat="45.29077136767436" lon="9.422969809464268"><ele>76.0</ele><time>2026-04-24T15:34:39.997Z</time></trkpt><trkpt lat="45.29090679601789" lon="9.422696979856607"><ele>76.0</ele><time>2026-04-24T15:34:40.997Z</time></trkpt><trkpt lat="45.29105728359029" lon="9.422434802774786"><ele>76.5</ele><time>2026-04-24T15:34:41.997Z</time></trkpt><trkpt lat="45.291195003494906" lon="9.42214171832565"><ele>77.0</ele><time>2026-04-24T15:34:42.997Z</time></trkpt><trkpt lat="45.29135552593024" lon="9.421884316719627"><ele>76.5</ele><time>2026-04-24T15:34:43.997Z</time></trkpt><trkpt lat="45.291488047135445" lon="9.421604126834934"><ele>76.0</ele><time>2026-04-24T15:34:44.997Z</time></trkpt><trkpt lat="45.29163157214183" lon="9.42136864491501"><ele>76.0</ele><time>2026-04-24T15:34:45.997Z</time></trkpt><trkpt lat="45.29176898743906" lon="9.421117049311134"><ele>76.0</ele><time>2026-04-24T15:34:46.997Z</time></trkpt><trkpt lat="45.29189120907386" lon="9.420853650009807"><ele>76.0</ele><time>2026-04-24T15:34:47.997Z</time></trkpt><trkpt lat="45.29203922906061" lon="9.420594597040136"><ele>75.5</ele><time>2026-04-24T15:34:48.997Z</time></trkpt><trkpt lat="45.292178667865514" lon="9.420331766896862"><ele>75.0</ele><time>2026-04-24T15:34:49.997Z</time></trkpt><trkpt lat="45.292318175147564" lon="9.420063287884313"><ele>75.0</ele><time>2026-04-24T15:34:50.997Z</time></trkpt><trkpt lat="45.292472630149135" lon="9.419865550285312"><ele>75.0</ele><time>2026-04-24T15:34:51.997Z</time></trkpt><trkpt lat="45.292624179844964" lon="9.419632323527575"><ele>75.0</ele><time>2026-04-24T15:34:52.997Z</time></trkpt><trkpt lat="45.292775536167134" lon="9.419366817693543"><ele>75.0</ele><time>2026-04-24T15:34:53.997Z</time></trkpt><trkpt lat="45.29294541554202" lon="9.419095958401327"><ele>75.0</ele><time>2026-04-24T15:34:54.997Z</time></trkpt><trkpt lat="45.29309155416671" lon="9.41879211231534"><ele>75.0</ele><time>2026-04-24T15:34:55.997Z</time></trkpt><trkpt lat="45.293244498333166" lon="9.418524972580741"><ele>75.0</ele><time>2026-04-24T15:34:56.997Z</time></trkpt><trkpt lat="45.29339999171047" lon="9.418264079406038"><ele>75.0</ele><time>2026-04-24T15:34:57.997Z</time></trkpt><trkpt lat="45.29355392287156" lon="9.418008197459397"><ele>75.0</ele><time>2026-04-24T15:34:59.004Z</time></trkpt><trkpt lat="45.293719780841" lon="9.417733970064633"><ele>76.0</ele><time>2026-04-24T15:35:00.004Z</time></trkpt><trkpt lat="45.29387651600341" lon="9.417482958745587"><ele>77.0</ele><time>2026-04-24T15:35:01.004Z</time></trkpt><trkpt lat="45.29405041020626" lon="9.417238433725934"><ele>76.5</ele><time>2026-04-24T15:35:02.004Z</time></trkpt><trkpt lat="45.29422404062592" lon="9.416987729282479"><ele>76.0</ele><time>2026-04-24T15:35:03.004Z</time></trkpt><trkpt lat="45.29440780559986" lon="9.41674429571052"><ele>76.0</ele><time>2026-04-24T15:35:04.004Z</time></trkpt><trkpt lat="45.29457606343476" lon="9.41647457515493"><ele>76.0</ele><time>2026-04-24T15:35:05.004Z</time></trkpt><trkpt lat="45.29473342563873" lon="9.416214339069727"><ele>76.5</ele><time>2026-04-24T15:35:06.004Z</time></trkpt><trkpt lat="45.29488943388371" lon="9.415969719528075"><ele>77.0</ele><time>2026-04-24T15:35:07.004Z</time></trkpt><trkpt lat="45.2950568680005" lon="9.415692243124711"><ele>76.5</ele><time>2026-04-24T15:35:08.003Z</time></trkpt><trkpt lat="45.295228243403585" lon="9.415426765206718"><ele>76.0</ele><time>2026-04-24T15:35:09.003Z</time></trkpt><trkpt lat="45.29534938577247" lon="9.415163882602931"><ele>76.0</ele><time>2026-04-24T15:35:10.003Z</time></trkpt><trkpt lat="45.29545934596518" lon="9.414914881745494"><ele>76.0</ele><time>2026-04-24T15:35:11.003Z</time></trkpt><trkpt lat="45.29560717582223" lon="9.414683299890791"><ele>76.0</ele><time>2026-04-24T15:35:12.003Z</time></trkpt><trkpt lat="45.29576571785148" lon="9.414434241678846"><ele>76.0</ele><time>2026-04-24T15:35:13.003Z</time></trkpt><trkpt lat="45.29592615411715" lon="9.414177800463394"><ele>76.0</ele><time>2026-04-24T15:35:14.003Z</time></trkpt><trkpt lat="45.296079067657175" lon="9.413910313185289"><ele>76.5</ele><time>2026-04-24T15:35:15.002Z</time></trkpt><trkpt lat="45.29623104067925" lon="9.413656707651295"><ele>77.0</ele><time>2026-04-24T15:35:16.002Z</time></trkpt><trkpt lat="45.296411481872234" lon="9.413426847735305"><ele>77.5</ele><time>2026-04-24T15:35:17.002Z</time></trkpt><trkpt lat="45.29659266307828" lon="9.413180501872576"><ele>78.0</ele><time>2026-04-24T15:35:18.002Z</time></trkpt><trkpt lat="45.296766856203455" lon="9.41291568339828"><ele>78.5</ele><time>2026-04-24T15:35:19.002Z</time></trkpt><trkpt lat="45.29691986153771" lon="9.412642901276207"><ele>79.0</ele><time>2026-04-24T15:35:20.002Z</time></trkpt><trkpt lat="45.29708655951539" lon="9.41235655034043"><ele>78.0</ele><time>2026-04-24T15:35:21.002Z</time></trkpt><trkpt lat="45.29727158312674" lon="9.412096957499632"><ele>77.0</ele><time>2026-04-24T15:35:22.002Z</time></trkpt><trkpt lat="45.297421748445686" lon="9.411831779897243"><ele>77.0</ele><time>2026-04-24T15:35:23.001Z</time></trkpt><trkpt lat="45.297595491546865" lon="9.411560496441586"><ele>77.0</ele><time>2026-04-24T15:35:24.001Z</time></trkpt><trkpt lat="45.297776545976504" lon="9.411303096185234"><ele>77.0</ele><time>2026-04-24T15:35:25.001Z</time></trkpt><trkpt lat="45.29795225838416" lon="9.411044494217359"><ele>77.0</ele><time>2026-04-24T15:35:26.001Z</time></trkpt><trkpt lat="45.298136189837614" lon="9.410783313174775"><ele>77.0</ele><time>2026-04-24T15:35:27.001Z</time></trkpt><trkpt lat="45.298304530595885" lon="9.410525324606672"><ele>77.0</ele><time>2026-04-24T15:35:28.001Z</time></trkpt><trkpt lat="45.29846969863036" lon="9.410262236576923"><ele>77.0</ele><time>2026-04-24T15:35:29.001Z</time></trkpt><trkpt lat="45.29865059739338" lon="9.410007137619282"><ele>77.0</ele><time>2026-04-24T15:35:30.001Z</time></trkpt><trkpt lat="45.29883082401117" lon="9.409747524848937"><ele>77.5</ele><time>2026-04-24T15:35:31.001Z</time></trkpt><trkpt lat="45.29900068105856" lon="9.409473862267365"><ele>78.0</ele><time>2026-04-24T15:35:32.001Z</time></trkpt><trkpt lat="45.29916259071957" lon="9.409196295701204"><ele>78.0</ele><time>2026-04-24T15:35:33.001Z</time></trkpt><trkpt lat="45.29929308546182" lon="9.408928170052626"><ele>78.0</ele><time>2026-04-24T15:35:34.001Z</time></trkpt><trkpt lat="45.29946733755409" lon="9.408697999396603"><ele>79.0</ele><time>2026-04-24T15:35:35.001Z</time></trkpt><trkpt lat="45.29964335789708" lon="9.40844668350029"><ele>80.0</ele><time>2026-04-24T15:35:36.001Z</time></trkpt><trkpt lat="45.299836928728176" lon="9.408164915832895"><ele>80.0</ele><time>2026-04-24T15:35:37.001Z</time></trkpt><trkpt lat="45.30002778920167" lon="9.407913883520944"><ele>80.0</ele><time>2026-04-24T15:35:38.001Z</time></trkpt><trkpt lat="45.300215808834935" lon="9.407653714885448"><ele>80.0</ele><time>2026-04-24T15:35:39.001Z</time></trkpt><trkpt lat="45.30037918910598" lon="9.40736169285084"><ele>80.0</ele><time>2026-04-24T15:35:40Z</time></trkpt><trkpt lat="45.30058239307277" lon="9.4071247653192"><ele>80.0</ele><time>2026-04-24T15:35:41Z</time></trkpt><trkpt lat="45.30077941532864" lon="9.406882544436739"><ele>80.0</ele><time>2026-04-24T15:35:42Z</time></trkpt><trkpt lat="45.30097543677823" lon="9.406629839882205"><ele>80.0</ele><time>2026-04-24T15:35:43Z</time></trkpt><trkpt lat="45.30117106324332" lon="9.40636878805589"><ele>80.0</ele><time>2026-04-24T15:35:44Z</time></trkpt><trkpt lat="45.30137683134158" lon="9.406118921632952"><ele>79.5</ele><time>2026-04-24T15:35:45Z</time></trkpt><trkpt lat="45.30159192816048" lon="9.405848754980582"><ele>79.0</ele><time>2026-04-24T15:35:46Z</time></trkpt><trkpt lat="45.30180049370238" lon="9.405544498473345"><ele>77.5</ele><time>2026-04-24T15:35:47Z</time></trkpt><trkpt lat="45.30198167565991" lon="9.405254167003967"><ele>76.0</ele><time>2026-04-24T15:35:48Z</time></trkpt><trkpt lat="45.30216836676596" lon="9.404992879381828"><ele>77.5</ele><time>2026-04-24T15:35:49Z</time></trkpt><trkpt lat="45.30237313221962" lon="9.404748122169316"><ele>79.0</ele><time>2026-04-24T15:35:50Z</time></trkpt><trkpt lat="45.302565340261076" lon="9.404459215189421"><ele>79.0</ele><time>2026-04-24T15:35:51Z</time></trkpt><trkpt lat="45.30276607886527" lon="9.40420499316754"><ele>79.0</ele><time>2026-04-24T15:35:52Z</time></trkpt><trkpt lat="45.30295686081219" lon="9.403985068888366"><ele>79.0</ele><time>2026-04-24T15:35:53Z</time></trkpt><trkpt lat="45.30314616385197" lon="9.403700419834193"><ele>79.0</ele><time>2026-04-24T15:35:54Z</time></trkpt><trkpt lat="45.30335008466434" lon="9.403482898710141"><ele>79.0</ele><time>2026-04-24T15:35:55Z</time></trkpt><trkpt lat="45.3035321638321" lon="9.40323881400899"><ele>79.0</ele><time>2026-04-24T15:35:56Z</time></trkpt><trkpt lat="45.30372786860641" lon="9.403004275998006"><ele>79.0</ele><time>2026-04-24T15:35:57Z</time></trkpt><trkpt lat="45.30391526644745" lon="9.402758680472115"><ele>79.0</ele><time>2026-04-24T15:35:58Z</time></trkpt><trkpt lat="45.30410085336108" lon="9.402487037515751"><ele>79.0</ele><time>2026-04-24T15:35:59Z</time></trkpt><trkpt lat="45.30428888722449" lon="9.402206397835183"><ele>79.0</ele><time>2026-04-24T15:36:00Z</time></trkpt><trkpt lat="45.304496473387786" lon="9.401972469148168"><ele>79.0</ele><time>2026-04-24T15:36:01Z</time></trkpt><trkpt lat="45.304683069185394" lon="9.401688404689665"><ele>79.0</ele><time>2026-04-24T15:36:02Z</time></trkpt><trkpt lat="45.304847204436605" lon="9.40146582791897"><ele>80.0</ele><time>2026-04-24T15:36:03Z</time></trkpt><trkpt lat="45.30503739211253" lon="9.4011867298676"><ele>81.0</ele><time>2026-04-24T15:36:04Z</time></trkpt><trkpt lat="45.30523560302517" lon="9.400945672533123"><ele>81.0</ele><time>2026-04-24T15:36:05Z</time></trkpt><trkpt lat="45.30539635730399" lon="9.400661069113365"><ele>81.0</ele><time>2026-04-24T15:36:06Z</time></trkpt><trkpt lat="45.30554890628978" lon="9.400347791137733"><ele>81.0</ele><time>2026-04-24T15:36:07Z</time></trkpt><trkpt lat="45.305672888373934" lon="9.400059855251094"><ele>81.0</ele><time>2026-04-24T15:36:08Z</time></trkpt><trkpt lat="45.305835260857755" lon="9.399768295623952"><ele>81.0</ele><time>2026-04-24T15:36:09Z</time></trkpt><trkpt lat="45.306020028489385" lon="9.399511960807404"><ele>81.0</ele><time>2026-04-24T15:36:10Z</time></trkpt><trkpt lat="45.30620715013039" lon="9.39925959968709"><ele>81.0</ele><time>2026-04-24T15:36:11Z</time></trkpt><trkpt lat="45.30638294165427" lon="9.39895751968245"><ele>81.0</ele><time>2026-04-24T15:36:12Z</time></trkpt><trkpt lat="45.30655471468454" lon="9.398638934064369"><ele>81.5</ele><time>2026-04-24T15:36:13Z</time></trkpt><trkpt lat="45.30673357620508" lon="9.398337583175557"><ele>82.0</ele><time>2026-04-24T15:36:14Z</time></trkpt><trkpt lat="45.30690452703736" lon="9.398110040457272"><ele>81.0</ele><time>2026-04-24T15:36:15Z</time></trkpt><trkpt lat="45.307087462843405" lon="9.397837609267038"><ele>80.0</ele><time>2026-04-24T15:36:16Z</time></trkpt><trkpt lat="45.307271749978" lon="9.39756951564169"><ele>80.0</ele><time>2026-04-24T15:36:17Z</time></trkpt><trkpt lat="45.30744577794871" lon="9.397288426685392"><ele>80.0</ele><time>2026-04-24T15:36:18Z</time></trkpt><trkpt lat="45.307595303027696" lon="9.39695879169392"><ele>80.0</ele><time>2026-04-24T15:36:19Z</time></trkpt><trkpt lat="45.30778948921448" lon="9.39670779469391"><ele>80.0</ele><time>2026-04-24T15:36:19.999Z</time></trkpt><trkpt lat="45.307971066905935" lon="9.39645309451753"><ele>80.5</ele><time>2026-04-24T15:36:20.999Z</time></trkpt><trkpt lat="45.30815343104325" lon="9.396177010378192"><ele>81.0</ele><time>2026-04-24T15:36:21.999Z</time></trkpt><trkpt lat="45.308333998571335" lon="9.395899236876215"><ele>81.0</ele><time>2026-04-24T15:36:22.999Z</time></trkpt><trkpt lat="45.30848607955191" lon="9.39563002321862"><ele>81.0</ele><time>2026-04-24T15:36:23.999Z</time></trkpt><trkpt lat="45.30868123644466" lon="9.3953940534427"><ele>81.0</ele><time>2026-04-24T15:36:24.999Z</time></trkpt><trkpt lat="45.30886553925848" lon="9.395140466560584"><ele>81.0</ele><time>2026-04-24T15:36:25.999Z</time></trkpt><trkpt lat="45.309055433754054" lon="9.39489457607357"><ele>81.0</ele><time>2026-04-24T15:36:26.999Z</time></trkpt><trkpt lat="45.30922686985618" lon="9.394618978947088"><ele>81.0</ele><time>2026-04-24T15:36:27.999Z</time></trkpt><trkpt lat="45.30939480232321" lon="9.394339684981265"><ele>81.0</ele><time>2026-04-24T15:36:28.999Z</time></trkpt><trkpt lat="45.309575460799465" lon="9.394085117356646"><ele>81.0</ele><time>2026-04-24T15:36:29.999Z</time></trkpt><trkpt lat="45.309730262586896" lon="9.39382049915866"><ele>81.0</ele><time>2026-04-24T15:36:30.999Z</time></trkpt><trkpt lat="45.309950097591276" lon="9.393563568698596"><ele>81.0</ele><time>2026-04-24T15:36:31.999Z</time></trkpt><trkpt lat="45.31011008521975" lon="9.393298453104723"><ele>81.0</ele><time>2026-04-24T15:36:32.999Z</time></trkpt><trkpt lat="45.3102867653121" lon="9.39302913500161"><ele>81.0</ele><time>2026-04-24T15:36:33.999Z</time></trkpt><trkpt lat="45.31044296253637" lon="9.392759394123786"><ele>81.0</ele><time>2026-04-24T15:36:34.999Z</time></trkpt><trkpt lat="45.31060351195093" lon="9.392510680862534"><ele>81.0</ele><time>2026-04-24T15:36:35.999Z</time></trkpt><trkpt lat="45.31078117352435" lon="9.392226679084912"><ele>80.5</ele><time>2026-04-24T15:36:36.999Z</time></trkpt><trkpt lat="45.31095719070451" lon="9.391960448751606"><ele>80.0</ele><time>2026-04-24T15:36:37.999Z</time></trkpt><trkpt lat="45.31111106506646" lon="9.391691877663057"><ele>80.0</ele><time>2026-04-24T15:36:38.999Z</time></trkpt><trkpt lat="45.311293262468354" lon="9.391444443243502"><ele>80.0</ele><time>2026-04-24T15:36:39.999Z</time></trkpt><trkpt lat="45.311424522843545" lon="9.391142552967453"><ele>80.0</ele><time>2026-04-24T15:36:40.999Z</time></trkpt><trkpt lat="45.31160687548475" lon="9.390887343316352"><ele>80.0</ele><time>2026-04-24T15:36:41.999Z</time></trkpt><trkpt lat="45.31177472669603" lon="9.390633950202416"><ele>80.0</ele><time>2026-04-24T15:36:42.999Z</time></trkpt><trkpt lat="45.31197076275674" lon="9.39040949842242"><ele>80.0</ele><time>2026-04-24T15:36:43.999Z</time></trkpt><trkpt lat="45.312124477312736" lon="9.39011218210869"><ele>80.0</ele><time>2026-04-24T15:36:44.999Z</time></trkpt><trkpt lat="45.31229177033039" lon="9.389856357059786"><ele>80.0</ele><time>2026-04-24T15:36:45.999Z</time></trkpt><trkpt lat="45.31245918728983" lon="9.389596707115622"><ele>80.5</ele><time>2026-04-24T15:36:46.999Z</time></trkpt><trkpt lat="45.31262181078976" lon="9.389339056296675"><ele>81.0</ele><time>2026-04-24T15:36:47.999Z</time></trkpt><trkpt lat="45.31280122149197" lon="9.38908207470641"><ele>81.0</ele><time>2026-04-24T15:36:48.999Z</time></trkpt><trkpt lat="45.31297685303596" lon="9.388830314126876"><ele>81.0</ele><time>2026-04-24T15:36:49.999Z</time></trkpt><trkpt lat="45.31314761547125" lon="9.388548242705497"><ele>81.5</ele><time>2026-04-24T15:36:50.999Z</time></trkpt><trkpt lat="45.313316398070995" lon="9.38827664300295"><ele>82.0</ele><time>2026-04-24T15:36:51.999Z</time></trkpt><trkpt lat="45.313486209224415" lon="9.38801796181874"><ele>81.5</ele><time>2026-04-24T15:36:52.999Z</time></trkpt><trkpt lat="45.31365260312076" lon="9.387754489674657"><ele>81.0</ele><time>2026-04-24T15:36:53.999Z</time></trkpt><trkpt lat="45.31383059447812" lon="9.387494940200506"><ele>81.0</ele><time>2026-04-24T15:36:54.999Z</time></trkpt><trkpt lat="45.31395852578387" lon="9.38721851323942"><ele>81.0</ele><time>2026-04-24T15:36:55.999Z</time></trkpt><trkpt lat="45.31413092232018" lon="9.386987608067157"><ele>82.0</ele><time>2026-04-24T15:36:56.999Z</time></trkpt><trkpt lat="45.314298820619584" lon="9.38671163505678"><ele>83.0</ele><time>2026-04-24T15:36:57.999Z</time></trkpt><trkpt lat="45.314476289763206" lon="9.386469438822017"><ele>82.0</ele><time>2026-04-24T15:36:58.999Z</time></trkpt><trkpt lat="45.31465492966642" lon="9.386226013589424"><ele>81.0</ele><time>2026-04-24T15:36:59.999Z</time></trkpt><trkpt lat="45.314799169958285" lon="9.385991495696404"><ele>80.5</ele><time>2026-04-24T15:37:00.999Z</time></trkpt><trkpt lat="45.31497225888568" lon="9.385767346000522"><ele>80.0</ele><time>2026-04-24T15:37:01.999Z</time></trkpt><trkpt lat="45.31511794881562" lon="9.385523186760732"><ele>81.0</ele><time>2026-04-24T15:37:02.999Z</time></trkpt><trkpt lat="45.31526089011128" lon="9.38527434883327"><ele>82.0</ele><time>2026-04-24T15:37:03.999Z</time></trkpt><trkpt lat="45.31541043576401" lon="9.385024880773441"><ele>82.0</ele><time>2026-04-24T15:37:04.999Z</time></trkpt><trkpt lat="45.31556385293011" lon="9.384769241349883"><ele>82.0</ele><time>2026-04-24T15:37:05.999Z</time></trkpt><trkpt lat="45.315728230031034" lon="9.384516272502559"><ele>81.5</ele><time>2026-04-24T15:37:06.999Z</time></trkpt><trkpt lat="45.31588782133972" lon="9.384264136275753"><ele>81.0</ele><time>2026-04-24T15:37:07.999Z</time></trkpt><trkpt lat="45.31606313122595" lon="9.383988636263219"><ele>81.0</ele><time>2026-04-24T15:37:08.999Z</time></trkpt><trkpt lat="45.316224015063135" lon="9.383711338856363"><ele>81.0</ele><time>2026-04-24T15:37:09.999Z</time></trkpt><trkpt lat="45.31640495441345" lon="9.383485420610043"><ele>81.5</ele><time>2026-04-24T15:37:10.999Z</time></trkpt><trkpt lat="45.316575020604" lon="9.38326685900453"><ele>82.0</ele><time>2026-04-24T15:37:11.999Z</time></trkpt><trkpt lat="45.316710622158695" lon="9.382981135101582"><ele>82.0</ele><time>2026-04-24T15:37:12.999Z</time></trkpt><trkpt lat="45.316899076010394" lon="9.382720509631438"><ele>82.0</ele><time>2026-04-24T15:37:13.999Z</time></trkpt><trkpt lat="45.31705749890537" lon="9.382461547839211"><ele>82.0</ele><time>2026-04-24T15:37:14.999Z</time></trkpt><trkpt lat="45.31722911524327" lon="9.382217289192408"><ele>82.0</ele><time>2026-04-24T15:37:15.999Z</time></trkpt><trkpt lat="45.31738816050683" lon="9.381978353467707"><ele>82.0</ele><time>2026-04-24T15:37:16.999Z</time></trkpt><trkpt lat="45.317537815100366" lon="9.381731470393355"><ele>82.0</ele><time>2026-04-24T15:37:17.999Z</time></trkpt><trkpt lat="45.317696294194555" lon="9.381491932936944"><ele>82.0</ele><time>2026-04-24T15:37:18.999Z</time></trkpt><trkpt lat="45.317850793234825" lon="9.381267257373931"><ele>82.0</ele><time>2026-04-24T15:37:19.998Z</time></trkpt><trkpt lat="45.31801839967647" lon="9.381036888949017"><ele>82.5</ele><time>2026-04-24T15:37:20.998Z</time></trkpt><trkpt lat="45.31818164265884" lon="9.380794532805904"><ele>83.0</ele><time>2026-04-24T15:37:21.998Z</time></trkpt><trkpt lat="45.318346528055734" lon="9.380534395299131"><ele>82.5</ele><time>2026-04-24T15:37:22.998Z</time></trkpt><trkpt lat="45.3185003391189" lon="9.380281670802425"><ele>82.0</ele><time>2026-04-24T15:37:23.998Z</time></trkpt><trkpt lat="45.31864090300329" lon="9.379988245208027"><ele>82.0</ele><time>2026-04-24T15:37:24.998Z</time></trkpt><trkpt lat="45.31878682586094" lon="9.379713918833412"><ele>82.0</ele><time>2026-04-24T15:37:25.998Z</time></trkpt><trkpt lat="45.31896618321058" lon="9.379485711667286"><ele>83.0</ele><time>2026-04-24T15:37:26.998Z</time></trkpt><trkpt lat="45.319153120718305" lon="9.37925122042987"><ele>84.0</ele><time>2026-04-24T15:37:27.998Z</time></trkpt><trkpt lat="45.31933150388205" lon="9.379005635249596"><ele>84.5</ele><time>2026-04-24T15:37:28.998Z</time></trkpt><trkpt lat="45.31949298772938" lon="9.378760128622098"><ele>85.0</ele><time>2026-04-24T15:37:29.998Z</time></trkpt><trkpt lat="45.31968166162245" lon="9.37852052404771"><ele>84.5</ele><time>2026-04-24T15:37:30.998Z</time></trkpt><trkpt lat="45.31982952666939" lon="9.37827952176127"><ele>84.0</ele><time>2026-04-24T15:37:31.998Z</time></trkpt><trkpt lat="45.31996876029183" lon="9.378023627985238"><ele>85.0</ele><time>2026-04-24T15:37:32.998Z</time></trkpt><trkpt lat="45.32011072901737" lon="9.377775533638497"><ele>86.0</ele><time>2026-04-24T15:37:33.998Z</time></trkpt><trkpt lat="45.320271795953886" lon="9.377517788826495"><ele>86.0</ele><time>2026-04-24T15:37:34.998Z</time></trkpt><trkpt lat="45.32039327167057" lon="9.377262708286052"><ele>86.0</ele><time>2026-04-24T15:37:35.998Z</time></trkpt><trkpt lat="45.320564339715816" lon="9.377035505496044"><ele>85.5</ele><time>2026-04-24T15:37:36.998Z</time></trkpt><trkpt lat="45.320722581783436" lon="9.376816355479047"><ele>85.0</ele><time>2026-04-24T15:37:37.998Z</time></trkpt><trkpt lat="45.32088865064187" lon="9.376582815250577"><ele>85.0</ele><time>2026-04-24T15:37:38.998Z</time></trkpt><trkpt lat="45.32106999933141" lon="9.376341540661096"><ele>85.0</ele><time>2026-04-24T15:37:39.998Z</time></trkpt><trkpt lat="45.32123831104632" lon="9.376100039716714"><ele>84.5</ele><time>2026-04-24T15:37:40.998Z</time></trkpt><trkpt lat="45.321400191835856" lon="9.375880343596696"><ele>84.0</ele><time>2026-04-24T15:37:41.998Z</time></trkpt><trkpt lat="45.32156849879316" lon="9.37562353118584"><ele>84.0</ele><time>2026-04-24T15:37:42.998Z</time></trkpt><trkpt lat="45.32173456807912" lon="9.375358665073298"><ele>84.0</ele><time>2026-04-24T15:37:43.998Z</time></trkpt><trkpt lat="45.32189293203767" lon="9.375084212801244"><ele>84.0</ele><time>2026-04-24T15:37:44.998Z</time></trkpt><trkpt lat="45.32205292928101" lon="9.374813454230269"><ele>84.0</ele><time>2026-04-24T15:37:45.998Z</time></trkpt><trkpt lat="45.32221728932025" lon="9.374543040333274"><ele>84.0</ele><time>2026-04-24T15:37:46.998Z</time></trkpt><trkpt lat="45.322383668492016" lon="9.374293395157391"><ele>84.0</ele><time>2026-04-24T15:37:47.998Z</time></trkpt><trkpt lat="45.322549164306885" lon="9.37403573151715"><ele>83.0</ele><time>2026-04-24T15:37:48.998Z</time></trkpt><trkpt lat="45.32269976383157" lon="9.373792798037792"><ele>82.0</ele><time>2026-04-24T15:37:49.998Z</time></trkpt><trkpt lat="45.32285271372164" lon="9.373492138821053"><ele>82.0</ele><time>2026-04-24T15:37:50.998Z</time></trkpt><trkpt lat="45.32300434349504" lon="9.37324894334102"><ele>82.0</ele><time>2026-04-24T15:37:51.998Z</time></trkpt><trkpt lat="45.323159803861586" lon="9.373002821467846"><ele>82.0</ele><time>2026-04-24T15:37:52.998Z</time></trkpt><trkpt lat="45.323319352311195" lon="9.372755203230994"><ele>82.0</ele><time>2026-04-24T15:37:53.998Z</time></trkpt><trkpt lat="45.32349706307808" lon="9.372485043460305"><ele>82.0</ele><time>2026-04-24T15:37:54.998Z</time></trkpt><trkpt lat="45.323670630474794" lon="9.37222062800494"><ele>82.0</ele><time>2026-04-24T15:37:55.998Z</time></trkpt><trkpt lat="45.323832887177794" lon="9.371962055221637"><ele>83.5</ele><time>2026-04-24T15:37:56.998Z</time></trkpt><trkpt lat="45.324002959065716" lon="9.371697048093434"><ele>85.0</ele><time>2026-04-24T15:37:57.998Z</time></trkpt><trkpt lat="45.32417192283681" lon="9.371448994325048"><ele>84.5</ele><time>2026-04-24T15:37:58.998Z</time></trkpt><trkpt lat="45.32433146203993" lon="9.37121200566291"><ele>84.0</ele><time>2026-04-24T15:37:59.998Z</time></trkpt><trkpt lat="45.324494091026146" lon="9.370945714668384"><ele>84.0</ele><time>2026-04-24T15:38:00.998Z</time></trkpt><trkpt lat="45.32467269195012" lon="9.370692634785788"><ele>84.0</ele><time>2026-04-24T15:38:01.998Z</time></trkpt><trkpt lat="45.324841384291254" lon="9.370422153983954"><ele>83.0</ele><time>2026-04-24T15:38:02.998Z</time></trkpt><trkpt lat="45.324985310724955" lon="9.370180424835409"><ele>82.0</ele><time>2026-04-24T15:38:03.998Z</time></trkpt><trkpt lat="45.325145196655356" lon="9.369943763150061"><ele>82.0</ele><time>2026-04-24T15:38:04.998Z</time></trkpt><trkpt lat="45.32532158732468" lon="9.369663482789914"><ele>82.0</ele><time>2026-04-24T15:38:05.998Z</time></trkpt><trkpt lat="45.32550110766867" lon="9.369416531257217"><ele>82.5</ele><time>2026-04-24T15:38:06.998Z</time></trkpt><trkpt lat="45.325671249616725" lon="9.369153617265887"><ele>83.0</ele><time>2026-04-24T15:38:07.998Z</time></trkpt><trkpt lat="45.32582673385661" lon="9.368932081895426"><ele>83.0</ele><time>2026-04-24T15:38:08.998Z</time></trkpt><trkpt lat="45.3259862252423" lon="9.368682114603521"><ele>83.0</ele><time>2026-04-24T15:38:09.998Z</time></trkpt><trkpt lat="45.326156940804175" lon="9.368434534366052"><ele>83.0</ele><time>2026-04-24T15:38:10.998Z</time></trkpt><trkpt lat="45.326319210068995" lon="9.368189637461377"><ele>83.0</ele><time>2026-04-24T15:38:11.998Z</time></trkpt><trkpt lat="45.32651027893155" lon="9.36792210994441"><ele>83.0</ele><time>2026-04-24T15:38:12.998Z</time></trkpt><trkpt lat="45.32669535108338" lon="9.367664755362563"><ele>83.0</ele><time>2026-04-24T15:38:13.998Z</time></trkpt><trkpt lat="45.32680705084076" lon="9.36737657125277"><ele>83.5</ele><time>2026-04-24T15:38:14.998Z</time></trkpt><trkpt lat="45.326979024955456" lon="9.367102321241529"><ele>84.0</ele><time>2026-04-24T15:38:15.998Z</time></trkpt><trkpt lat="45.32716992487524" lon="9.366841755894617"><ele>83.5</ele><time>2026-04-24T15:38:16.998Z</time></trkpt><trkpt lat="45.32736521632554" lon="9.366576251911216"><ele>83.0</ele><time>2026-04-24T15:38:17.998Z</time></trkpt><trkpt lat="45.32756413730137" lon="9.366273181442802"><ele>83.0</ele><time>2026-04-24T15:38:18.998Z</time></trkpt><trkpt lat="45.32775862941221" lon="9.365997132935426"><ele>83.0</ele><time>2026-04-24T15:38:19.998Z</time></trkpt><trkpt lat="45.32792855346334" lon="9.365755385786757"><ele>83.0</ele><time>2026-04-24T15:38:20.998Z</time></trkpt><trkpt lat="45.3280998043015" lon="9.365490009744244"><ele>83.0</ele><time>2026-04-24T15:38:21.997Z</time></trkpt><trkpt lat="45.328276559079136" lon="9.365234134000962"><ele>83.0</ele><time>2026-04-24T15:38:22.997Z</time></trkpt><trkpt lat="45.32845128705166" lon="9.36498960971308"><ele>83.0</ele><time>2026-04-24T15:38:23.997Z</time></trkpt><trkpt lat="45.32863138635965" lon="9.364724585048664"><ele>83.5</ele><time>2026-04-24T15:38:24.997Z</time></trkpt><trkpt lat="45.3288263717595" lon="9.364455422387248"><ele>84.0</ele><time>2026-04-24T15:38:25.997Z</time></trkpt><trkpt lat="45.32900541037802" lon="9.364163482819016"><ele>84.5</ele><time>2026-04-24T15:38:26.997Z</time></trkpt><trkpt lat="45.329195143130434" lon="9.363881660102523"><ele>85.0</ele><time>2026-04-24T15:38:27.997Z</time></trkpt><trkpt lat="45.32934710037602" lon="9.363572921374534"><ele>85.0</ele><time>2026-04-24T15:38:28.997Z</time></trkpt><trkpt lat="45.32949848988533" lon="9.363324295953456"><ele>85.0</ele><time>2026-04-24T15:38:29.997Z</time></trkpt><trkpt lat="45.32970836325253" lon="9.363123142305104"><ele>85.5</ele><time>2026-04-24T15:38:30.997Z</time></trkpt><trkpt lat="45.32987491767183" lon="9.362879425307773"><ele>86.0</ele><time>2026-04-24T15:38:31.997Z</time></trkpt><trkpt lat="45.33004211442973" lon="9.362612175362479"><ele>86.0</ele><time>2026-04-24T15:38:32.997Z</time></trkpt><trkpt lat="45.33019421047757" lon="9.362360697387354"><ele>86.0</ele><time>2026-04-24T15:38:33.997Z</time></trkpt><trkpt lat="45.330333667495424" lon="9.362109175536139"><ele>86.0</ele><time>2026-04-24T15:38:34.997Z</time></trkpt><trkpt lat="45.330472547017024" lon="9.361834525063934"><ele>86.0</ele><time>2026-04-24T15:38:35.997Z</time></trkpt><trkpt lat="45.33062059998658" lon="9.361560284620044"><ele>86.0</ele><time>2026-04-24T15:38:36.997Z</time></trkpt><trkpt lat="45.330717113978096" lon="9.361269169811479"><ele>86.0</ele><time>2026-04-24T15:38:37.997Z</time></trkpt><trkpt lat="45.33087993685846" lon="9.36101659294149"><ele>86.0</ele><time>2026-04-24T15:38:38.997Z</time></trkpt><trkpt lat="45.33102926937249" lon="9.3607515289089"><ele>86.0</ele><time>2026-04-24T15:38:39.997Z</time></trkpt><trkpt lat="45.33122786301802" lon="9.360493412068738"><ele>84.5</ele><time>2026-04-24T15:38:40.997Z</time></trkpt><trkpt lat="45.331394943286405" lon="9.360195860929965"><ele>83.0</ele><time>2026-04-24T15:38:41.997Z</time></trkpt><trkpt lat="45.331546303071555" lon="9.359881858105965"><ele>83.5</ele><time>2026-04-24T15:38:42.997Z</time></trkpt><trkpt lat="45.3316922120055" lon="9.359611087652212"><ele>84.0</ele><time>2026-04-24T15:38:43.997Z</time></trkpt><trkpt lat="45.331831484723644" lon="9.359318084160403"><ele>84.0</ele><time>2026-04-24T15:38:44.997Z</time></trkpt><trkpt lat="45.33196086673224" lon="9.358981514790472"><ele>84.0</ele><time>2026-04-24T15:38:45.997Z</time></trkpt><trkpt lat="45.33208541870364" lon="9.358662482786357"><ele>84.5</ele><time>2026-04-24T15:38:46.997Z</time></trkpt><trkpt lat="45.33220347343602" lon="9.358329820407318"><ele>85.0</ele><time>2026-04-24T15:38:47.997Z</time></trkpt><trkpt lat="45.33236619360252" lon="9.358060745890176"><ele>83.5</ele><time>2026-04-24T15:38:48.997Z</time></trkpt><trkpt lat="45.3325054908487" lon="9.357770931000445"><ele>82.0</ele><time>2026-04-24T15:38:49.997Z</time></trkpt><trkpt lat="45.33264076966906" lon="9.3574624450207"><ele>81.5</ele><time>2026-04-24T15:38:50.997Z</time></trkpt><trkpt lat="45.33277339713526" lon="9.35715025662103"><ele>81.0</ele><time>2026-04-24T15:38:51.997Z</time></trkpt><trkpt lat="45.33289932320025" lon="9.356825324453704"><ele>81.0</ele><time>2026-04-24T15:38:52.997Z</time></trkpt><trkpt lat="45.3330180324023" lon="9.356493840688243"><ele>81.0</ele><time>2026-04-24T15:38:53.997Z</time></trkpt><trkpt lat="45.333141762494954" lon="9.356178897585496"><ele>80.0</ele><time>2026-04-24T15:38:54.997Z</time></trkpt><trkpt lat="45.3332579882542" lon="9.35585704659797"><ele>79.0</ele><time>2026-04-24T15:38:55.997Z</time></trkpt><trkpt lat="45.333387510092585" lon="9.355546134246515"><ele>79.5</ele><time>2026-04-24T15:38:56.997Z</time></trkpt><trkpt lat="45.33351268260269" lon="9.355232229721778"><ele>80.0</ele><time>2026-04-24T15:38:57.997Z</time></trkpt><trkpt lat="45.33361979378423" lon="9.354909005853424"><ele>80.5</ele><time>2026-04-24T15:38:58.997Z</time></trkpt><trkpt lat="45.33374658345191" lon="9.354564117990183"><ele>81.0</ele><time>2026-04-24T15:38:59.997Z</time></trkpt><trkpt lat="45.33385845229869" lon="9.354217346267967"><ele>81.0</ele><time>2026-04-24T15:39:00.997Z</time></trkpt><trkpt lat="45.333967593582884" lon="9.353882737912704"><ele>81.0</ele><time>2026-04-24T15:39:01.997Z</time></trkpt><trkpt lat="45.33412923261221" lon="9.353623217442797"><ele>80.5</ele><time>2026-04-24T15:39:02.997Z</time></trkpt><trkpt lat="45.3342665018945" lon="9.353356725854391"><ele>80.0</ele><time>2026-04-24T15:39:03.997Z</time></trkpt><trkpt lat="45.334376701705224" lon="9.353061280002006"><ele>79.5</ele><time>2026-04-24T15:39:04.997Z</time></trkpt><trkpt lat="45.33444588321426" lon="9.35274790341891"><ele>79.0</ele><time>2026-04-24T15:39:05.997Z</time></trkpt><trkpt lat="45.33453143426962" lon="9.35244601246874"><ele>79.0</ele><time>2026-04-24T15:39:06.997Z</time></trkpt><trkpt lat="45.33457613849516" lon="9.352106659720318"><ele>79.0</ele><time>2026-04-24T15:39:07.997Z</time></trkpt><trkpt lat="45.33461484559545" lon="9.351763336096273"><ele>79.0</ele><time>2026-04-24T15:39:08.997Z</time></trkpt><trkpt lat="45.33467816471224" lon="9.351430391092542"><ele>79.0</ele><time>2026-04-24T15:39:09.997Z</time></trkpt><trkpt lat="45.33474813682491" lon="9.35108382103034"><ele>79.5</ele><time>2026-04-24T15:39:10.997Z</time></trkpt><trkpt lat="45.33489543621779" lon="9.350792896268977"><ele>80.0</ele><time>2026-04-24T15:39:11.997Z</time></trkpt><trkpt lat="45.33500697224875" lon="9.35046646795339"><ele>80.0</ele><time>2026-04-24T15:39:12.997Z</time></trkpt><trkpt lat="45.33509136237371" lon="9.3501325300085"><ele>80.0</ele><time>2026-04-24T15:39:13.997Z</time></trkpt><trkpt lat="45.33516439517442" lon="9.349801988572212"><ele>79.66666666666667</ele><time>2026-04-24T15:39:14.997Z</time></trkpt><trkpt lat="45.335242150454846" lon="9.349484031430856"><ele>79.33333333333333</ele><time>2026-04-24T15:39:15.997Z</time></trkpt><trkpt lat="45.3352805524375" lon="9.34918662024565"><ele>79.0</ele><time>2026-04-24T15:39:16.997Z</time></trkpt><trkpt lat="45.33536730600156" lon="9.348898547052238"><ele>79.5</ele><time>2026-04-24T15:39:17.997Z</time></trkpt><trkpt lat="45.335443591913645" lon="9.348597241477409"><ele>80.0</ele><time>2026-04-24T15:39:18.997Z</time></trkpt><trkpt lat="45.3355179368584" lon="9.348283558782075"><ele>80.0</ele><time>2026-04-24T15:39:19.997Z</time></trkpt><trkpt lat="45.33556805290945" lon="9.347977460913121"><ele>80.0</ele><time>2026-04-24T15:39:20.997Z</time></trkpt><trkpt lat="45.33562167235793" lon="9.347683075940017"><ele>80.0</ele><time>2026-04-24T15:39:21.997Z</time></trkpt><trkpt lat="45.3356256036611" lon="9.347340600165351"><ele>79.5</ele><time>2026-04-24T15:39:22.996Z</time></trkpt><trkpt lat="45.335637392826996" lon="9.34701015603783"><ele>79.0</ele><time>2026-04-24T15:39:23.996Z</time></trkpt><trkpt lat="45.33569546321785" lon="9.346679018329734"><ele>79.0</ele><time>2026-04-24T15:39:24.996Z</time></trkpt><trkpt lat="45.33571085294882" lon="9.346312950707683"><ele>79.0</ele><time>2026-04-24T15:39:25.996Z</time></trkpt><trkpt lat="45.33574466440867" lon="9.345948942864656"><ele>79.0</ele><time>2026-04-24T15:39:26.996Z</time></trkpt><trkpt lat="45.33580694524557" lon="9.345625999188155"><ele>79.0</ele><time>2026-04-24T15:39:27.996Z</time></trkpt><trkpt lat="45.335878102660395" lon="9.345320269864246"><ele>79.0</ele><time>2026-04-24T15:39:28.996Z</time></trkpt><trkpt lat="45.335908365242254" lon="9.34500154285107"><ele>79.0</ele><time>2026-04-24T15:39:29.996Z</time></trkpt><trkpt lat="45.335951175124826" lon="9.34467243644102"><ele>78.66666666666666</ele><time>2026-04-24T15:39:30.996Z</time></trkpt><trkpt lat="45.33599788712641" lon="9.344361879804994"><ele>78.33333333333333</ele><time>2026-04-24T15:39:31.996Z</time></trkpt><trkpt lat="45.33605027518782" lon="9.344060110045609"><ele>78.0</ele><time>2026-04-24T15:39:32.996Z</time></trkpt><trkpt lat="45.33608206492328" lon="9.343752082068637"><ele>76.5</ele><time>2026-04-24T15:39:33.996Z</time></trkpt><trkpt lat="45.33615148277205" lon="9.34342662890969"><ele>75.0</ele><time>2026-04-24T15:39:34.996Z</time></trkpt><trkpt lat="45.336199119480355" lon="9.343098558886302"><ele>75.0</ele><time>2026-04-24T15:39:35.996Z</time></trkpt><trkpt lat="45.33623259702168" lon="9.342792203580352"><ele>75.0</ele><time>2026-04-24T15:39:36.996Z</time></trkpt><trkpt lat="45.336279252602836" lon="9.34249255630364"><ele>75.0</ele><time>2026-04-24T15:39:37.996Z</time></trkpt><trkpt lat="45.33632403576779" lon="9.34221681941005"><ele>75.0</ele><time>2026-04-24T15:39:38.996Z</time></trkpt><trkpt lat="45.33637491579668" lon="9.341906453840645"><ele>75.0</ele><time>2026-04-24T15:39:39.996Z</time></trkpt><trkpt lat="45.336432555462586" lon="9.341608432816177"><ele>75.0</ele><time>2026-04-24T15:39:40.996Z</time></trkpt><trkpt lat="45.336511771072956" lon="9.341327414766193"><ele>75.0</ele><time>2026-04-24T15:39:41.996Z</time></trkpt><trkpt lat="45.33657079599366" lon="9.341008978287528"><ele>75.0</ele><time>2026-04-24T15:39:42.996Z</time></trkpt><trkpt lat="45.336633359974826" lon="9.340724725387187"><ele>75.0</ele><time>2026-04-24T15:39:43.996Z</time></trkpt><trkpt lat="45.336661577898326" lon="9.340413064597493"><ele>75.0</ele><time>2026-04-24T15:39:44.996Z</time></trkpt><trkpt lat="45.33669386730193" lon="9.340130977378596"><ele>75.0</ele><time>2026-04-24T15:39:45.996Z</time></trkpt><trkpt lat="45.33672958137987" lon="9.339824854337328"><ele>75.0</ele><time>2026-04-24T15:39:46.996Z</time></trkpt><trkpt lat="45.33677058763245" lon="9.339510798732437"><ele>76.33333333333333</ele><time>2026-04-24T15:39:47.996Z</time></trkpt><trkpt lat="45.33681862245655" lon="9.339200387364732"><ele>77.66666666666666</ele><time>2026-04-24T15:39:48.996Z</time></trkpt><trkpt lat="45.336867705405595" lon="9.338889614082472"><ele>79.0</ele><time>2026-04-24T15:39:49.996Z</time></trkpt><trkpt lat="45.33691160152905" lon="9.338570423522494"><ele>80.5</ele><time>2026-04-24T15:39:50.996Z</time></trkpt><trkpt lat="45.33696168638994" lon="9.338223798040508"><ele>82.0</ele><time>2026-04-24T15:39:51.996Z</time></trkpt><trkpt lat="45.33704372188135" lon="9.337936542560994"><ele>82.66666666666666</ele><time>2026-04-24T15:39:52.996Z</time></trkpt><trkpt lat="45.33708039772752" lon="9.337635048745248"><ele>83.33333333333333</ele><time>2026-04-24T15:39:53.996Z</time></trkpt><trkpt lat="45.3371026408567" lon="9.337309970717873"><ele>84.0</ele><time>2026-04-24T15:39:54.996Z</time></trkpt><trkpt lat="45.337144433665095" lon="9.336987515714197"><ele>84.0</ele><time>2026-04-24T15:39:55.996Z</time></trkpt><trkpt lat="45.33719334862496" lon="9.33665258393668"><ele>84.0</ele><time>2026-04-24T15:39:56.996Z</time></trkpt><trkpt lat="45.337213736575244" lon="9.33630210381777"><ele>84.0</ele><time>2026-04-24T15:39:57.996Z</time></trkpt><trkpt lat="45.33726964119023" lon="9.335994550062994"><ele>84.0</ele><time>2026-04-24T15:39:58.996Z</time></trkpt><trkpt lat="45.33733507261859" lon="9.335694403012138"><ele>84.0</ele><time>2026-04-24T15:39:59.996Z</time></trkpt><trkpt lat="45.337409432872484" lon="9.335398590266673"><ele>83.5</ele><time>2026-04-24T15:40:00.996Z</time></trkpt><trkpt lat="45.33742721136416" lon="9.335056840348699"><ele>83.0</ele><time>2026-04-24T15:40:01.996Z</time></trkpt><trkpt lat="45.33750392576221" lon="9.334743745449028"><ele>83.5</ele><time>2026-04-24T15:40:02.996Z</time></trkpt><trkpt lat="45.337560595606924" lon="9.334419097694196"><ele>84.0</ele><time>2026-04-24T15:40:03.996Z</time></trkpt><trkpt lat="45.33760218811764" lon="9.334099814439071"><ele>84.0</ele><time>2026-04-24T15:40:04.996Z</time></trkpt><trkpt lat="45.33766300869736" lon="9.33377448403648"><ele>84.0</ele><time>2026-04-24T15:40:05.996Z</time></trkpt><trkpt lat="45.337735230973884" lon="9.333467684300278"><ele>84.0</ele><time>2026-04-24T15:40:06.996Z</time></trkpt><trkpt lat="45.337799857381754" lon="9.333167380606925"><ele>84.0</ele><time>2026-04-24T15:40:07.996Z</time></trkpt><trkpt lat="45.337848814323614" lon="9.332850452919603"><ele>84.0</ele><time>2026-04-24T15:40:08.996Z</time></trkpt><trkpt lat="45.33788034061816" lon="9.332535718249709"><ele>85.0</ele><time>2026-04-24T15:40:09.996Z</time></trkpt><trkpt lat="45.3379290406943" lon="9.33221380753653"><ele>86.0</ele><time>2026-04-24T15:40:10.996Z</time></trkpt><trkpt lat="45.3379868390889" lon="9.331891852098595"><ele>86.0</ele><time>2026-04-24T15:40:11.996Z</time></trkpt><trkpt lat="45.33798684108387" lon="9.331591704342593"><ele>86.0</ele><time>2026-04-24T15:40:12.996Z</time></trkpt><trkpt lat="45.33801751977628" lon="9.331311071153161"><ele>86.0</ele><time>2026-04-24T15:40:13.996Z</time></trkpt><trkpt lat="45.33804104343795" lon="9.331012200464802"><ele>86.5</ele><time>2026-04-24T15:40:14.996Z</time></trkpt><trkpt lat="45.33812480058451" lon="9.330713331273941"><ele>87.0</ele><time>2026-04-24T15:40:15.996Z</time></trkpt><trkpt lat="45.338161174213944" lon="9.330388084772725"><ele>87.0</ele><time>2026-04-24T15:40:16.996Z</time></trkpt><trkpt lat="45.338232031672774" lon="9.33008788217617"><ele>87.0</ele><time>2026-04-24T15:40:17.996Z</time></trkpt><trkpt lat="45.33830707648913" lon="9.329766470319955"><ele>87.33333333333333</ele><time>2026-04-24T15:40:18.996Z</time></trkpt><trkpt lat="45.33836584904464" lon="9.32949414400255"><ele>87.66666666666666</ele><time>2026-04-24T15:40:19.996Z</time></trkpt><trkpt lat="45.338440095562646" lon="9.329206743852787"><ele>88.0</ele><time>2026-04-24T15:40:20.996Z</time></trkpt><trkpt lat="45.338439392135854" lon="9.32886640455637"><ele>87.33333333333333</ele><time>2026-04-24T15:40:21.996Z</time></trkpt><trkpt lat="45.33850957605161" lon="9.328560979046514"><ele>86.66666666666667</ele><time>2026-04-24T15:40:22.996Z</time></trkpt><trkpt lat="45.33854828584513" lon="9.32826855395055"><ele>86.0</ele><time>2026-04-24T15:40:23.996Z</time></trkpt><trkpt lat="45.338634122675586" lon="9.327963538980542"><ele>86.0</ele><time>2026-04-24T15:40:24.995Z</time></trkpt><trkpt lat="45.338720459767664" lon="9.32767539647157"><ele>86.0</ele><time>2026-04-24T15:40:25.995Z</time></trkpt><trkpt lat="45.33881684791486" lon="9.327368634047764"><ele>86.0</ele><time>2026-04-24T15:40:26.995Z</time></trkpt><trkpt lat="45.33890421499984" lon="9.327023112798312"><ele>86.0</ele><time>2026-04-24T15:40:27.995Z</time></trkpt><trkpt lat="45.338996008730554" lon="9.32672585312914"><ele>86.0</ele><time>2026-04-24T15:40:28.995Z</time></trkpt><trkpt lat="45.3390960615207" lon="9.326463698986057"><ele>86.0</ele><time>2026-04-24T15:40:29.995Z</time></trkpt><trkpt lat="45.3392013893228" lon="9.326166934688835"><ele>86.0</ele><time>2026-04-24T15:40:30.995Z</time></trkpt><trkpt lat="45.3392963925866" lon="9.325851942973804"><ele>87.0</ele><time>2026-04-24T15:40:31.995Z</time></trkpt><trkpt lat="45.339391429338626" lon="9.325536934474743"><ele>88.0</ele><time>2026-04-24T15:40:32.995Z</time></trkpt><trkpt lat="45.339467091935035" lon="9.32521886023168"><ele>88.0</ele><time>2026-04-24T15:40:33.995Z</time></trkpt><trkpt lat="45.33954474023846" lon="9.324948208759631"><ele>88.0</ele><time>2026-04-24T15:40:34.995Z</time></trkpt><trkpt lat="45.33961941987588" lon="9.324664255021172"><ele>88.0</ele><time>2026-04-24T15:40:35.995Z</time></trkpt><trkpt lat="45.33970506346831" lon="9.324365512214488"><ele>88.0</ele><time>2026-04-24T15:40:36.995Z</time></trkpt><trkpt lat="45.33980194825306" lon="9.324055938576238"><ele>88.0</ele><time>2026-04-24T15:40:37.995Z</time></trkpt><trkpt lat="45.33993659045004" lon="9.323771316808653"><ele>88.0</ele><time>2026-04-24T15:40:38.995Z</time></trkpt><trkpt lat="45.34005108454507" lon="9.323482121718277"><ele>88.0</ele><time>2026-04-24T15:40:39.995Z</time></trkpt><trkpt lat="45.34015144690611" lon="9.32318630345883"><ele>88.0</ele><time>2026-04-24T15:40:40.995Z</time></trkpt><trkpt lat="45.34025776496608" lon="9.322895146962564"><ele>88.0</ele><time>2026-04-24T15:40:41.995Z</time></trkpt><trkpt lat="45.34037211885129" lon="9.32260164346473"><ele>88.0</ele><time>2026-04-24T15:40:42.995Z</time></trkpt><trkpt lat="45.340499894655316" lon="9.322304765953096"><ele>88.0</ele><time>2026-04-24T15:40:43.995Z</time></trkpt><trkpt lat="45.34063843089574" lon="9.32203157768415"><ele>89.0</ele><time>2026-04-24T15:40:44.995Z</time></trkpt><trkpt lat="45.3407654311534" lon="9.321751147174778"><ele>90.0</ele><time>2026-04-24T15:40:45.995Z</time></trkpt><trkpt lat="45.34089992452845" lon="9.32149530736892"><ele>90.5</ele><time>2026-04-24T15:40:46.995Z</time></trkpt><trkpt lat="45.34102844285225" lon="9.321220045715505"><ele>91.0</ele><time>2026-04-24T15:40:47.995Z</time></trkpt><trkpt lat="45.341174883198775" lon="9.320982141305175"><ele>91.0</ele><time>2026-04-24T15:40:48.995Z</time></trkpt><trkpt lat="45.341280344369494" lon="9.320706273665271"><ele>91.0</ele><time>2026-04-24T15:40:49.995Z</time></trkpt><trkpt lat="45.34141606892844" lon="9.320419912185782"><ele>90.0</ele><time>2026-04-24T15:40:50.995Z</time></trkpt><trkpt lat="45.341535405126024" lon="9.320132982791407"><ele>89.0</ele><time>2026-04-24T15:40:51.995Z</time></trkpt><trkpt lat="45.34165277382376" lon="9.319848657143753"><ele>89.0</ele><time>2026-04-24T15:40:52.995Z</time></trkpt><trkpt lat="45.3417884258451" lon="9.319581933105978"><ele>89.0</ele><time>2026-04-24T15:40:53.995Z</time></trkpt><trkpt lat="45.341932551853695" lon="9.319318696613497"><ele>89.0</ele><time>2026-04-24T15:40:54.995Z</time></trkpt><trkpt lat="45.34205319358277" lon="9.319030063039826"><ele>89.0</ele><time>2026-04-24T15:40:55.995Z</time></trkpt><trkpt lat="45.34220711625392" lon="9.318747237104006"><ele>89.66666666666667</ele><time>2026-04-24T15:40:56.995Z</time></trkpt><trkpt lat="45.342328675786305" lon="9.31849655324733"><ele>90.33333333333333</ele><time>2026-04-24T15:40:57.995Z</time></trkpt><trkpt lat="45.34247762341394" lon="9.31827423577871"><ele>91.0</ele><time>2026-04-24T15:40:58.995Z</time></trkpt><trkpt lat="45.342606036126774" lon="9.318012761806019"><ele>91.66666666666666</ele><time>2026-04-24T15:40:59.995Z</time></trkpt><trkpt lat="45.342757315768495" lon="9.31780058597348"><ele>92.33333333333333</ele><time>2026-04-24T15:41:00.995Z</time></trkpt><trkpt lat="45.34291175437873" lon="9.317582083472592"><ele>93.0</ele><time>2026-04-24T15:41:01.995Z</time></trkpt><trkpt lat="45.34307309763645" lon="9.317366455967898"><ele>91.0</ele><time>2026-04-24T15:41:02.995Z</time></trkpt><trkpt lat="45.34322208939107" lon="9.317103074250184"><ele>89.0</ele><time>2026-04-24T15:41:03.995Z</time></trkpt><trkpt lat="45.34339406147318" lon="9.31686437380198"><ele>89.0</ele><time>2026-04-24T15:41:04.995Z</time></trkpt><trkpt lat="45.34356567085837" lon="9.316634466813426"><ele>89.0</ele><time>2026-04-24T15:41:05.995Z</time></trkpt><trkpt lat="45.343766445091156" lon="9.316399927227089"><ele>89.0</ele><time>2026-04-24T15:41:06.995Z</time></trkpt><trkpt lat="45.34393510066014" lon="9.316160532878397"><ele>89.0</ele><time>2026-04-24T15:41:07.995Z</time></trkpt><trkpt lat="45.344096327022505" lon="9.31591811046209"><ele>89.0</ele><time>2026-04-24T15:41:08.995Z</time></trkpt><trkpt lat="45.34428009960655" lon="9.315692425300043"><ele>89.0</ele><time>2026-04-24T15:41:09.995Z</time></trkpt><trkpt lat="45.34441331175496" lon="9.315426113833224"><ele>89.0</ele><time>2026-04-24T15:41:10.995Z</time></trkpt><trkpt lat="45.34460255335739" lon="9.31520863788364"><ele>89.0</ele><time>2026-04-24T15:41:11.995Z</time></trkpt><trkpt lat="45.344808918032015" lon="9.315017899849789"><ele>89.0</ele><time>2026-04-24T15:41:12.995Z</time></trkpt><trkpt lat="45.34500580525089" lon="9.314792048033958"><ele>89.0</ele><time>2026-04-24T15:41:13.995Z</time></trkpt><trkpt lat="45.34518278312076" lon="9.314560143351736"><ele>89.0</ele><time>2026-04-24T15:41:14.995Z</time></trkpt><trkpt lat="45.34536150518521" lon="9.314346708089968"><ele>89.0</ele><time>2026-04-24T15:41:15.995Z</time></trkpt><trkpt lat="45.34554324841514" lon="9.314145017252587"><ele>89.0</ele><time>2026-04-24T15:41:16.995Z</time></trkpt><trkpt lat="45.34572195845076" lon="9.313932297039434"><ele>89.0</ele><time>2026-04-24T15:41:17.995Z</time></trkpt><trkpt lat="45.34591000421729" lon="9.313738606075843"><ele>89.0</ele><time>2026-04-24T15:41:18.995Z</time></trkpt><trkpt lat="45.34606117291434" lon="9.313495242498302"><ele>89.0</ele><time>2026-04-24T15:41:19.995Z</time></trkpt><trkpt lat="45.34624028087569" lon="9.313297847350738"><ele>89.0</ele><time>2026-04-24T15:41:20.995Z</time></trkpt><trkpt lat="45.34642142862933" lon="9.313111490657226"><ele>89.0</ele><time>2026-04-24T15:41:21.995Z</time></trkpt><trkpt lat="45.34657430616503" lon="9.312943369838738"><ele>89.0</ele><time>2026-04-24T15:41:22.995Z</time></trkpt><trkpt lat="45.3467165346789" lon="9.312742057548972"><ele>89.33333333333334</ele><time>2026-04-24T15:41:23.995Z</time></trkpt><trkpt lat="45.346871119008654" lon="9.31252268565593"><ele>89.66666666666667</ele><time>2026-04-24T15:41:24.995Z</time></trkpt><trkpt lat="45.34702290354971" lon="9.31234182493183"><ele>90.0</ele><time>2026-04-24T15:41:25.995Z</time></trkpt><trkpt lat="45.34718863801148" lon="9.312174574367246"><ele>89.66666666666667</ele><time>2026-04-24T15:41:26.994Z</time></trkpt><trkpt lat="45.347363671091514" lon="9.312010081078826"><ele>89.33333333333334</ele><time>2026-04-24T15:41:27.994Z</time></trkpt><trkpt lat="45.34750884319699" lon="9.311810441662125"><ele>89.0</ele><time>2026-04-24T15:41:28.994Z</time></trkpt><trkpt lat="45.34766192579425" lon="9.311645023834272"><ele>89.0</ele><time>2026-04-24T15:41:29.994Z</time></trkpt><trkpt lat="45.34775917674625" lon="9.311392924870123"><ele>89.0</ele><time>2026-04-24T15:41:30.994Z</time></trkpt><trkpt lat="45.347893973367604" lon="9.311220485167572"><ele>89.0</ele><time>2026-04-24T15:41:31.994Z</time></trkpt><trkpt lat="45.34805104808098" lon="9.311062918951363"><ele>89.0</ele><time>2026-04-24T15:41:32.994Z</time></trkpt><trkpt lat="45.348189281274166" lon="9.310873800742412"><ele>89.0</ele><time>2026-04-24T15:41:33.994Z</time></trkpt><trkpt lat="45.3483235573555" lon="9.31072186723061"><ele>89.0</ele><time>2026-04-24T15:41:34.994Z</time></trkpt><trkpt lat="45.34843409204501" lon="9.310591054347407"><ele>89.5</ele><time>2026-04-24T15:41:35.994Z</time></trkpt><trkpt lat="45.3485287486498" lon="9.310419960148273"><ele>90.0</ele><time>2026-04-24T15:41:36.994Z</time></trkpt><trkpt lat="45.348647738905996" lon="9.310305280141343"><ele>90.5</ele><time>2026-04-24T15:41:37.994Z</time></trkpt><trkpt lat="45.34875040081939" lon="9.31017305120535"><ele>91.0</ele><time>2026-04-24T15:41:38.994Z</time></trkpt><trkpt lat="45.34884790939727" lon="9.310070107421286"><ele>91.19999999999999</ele><time>2026-04-24T15:41:39.994Z</time></trkpt><trkpt lat="45.34893746361184" lon="9.309980563328523"><ele>91.39999999999999</ele><time>2026-04-24T15:41:40.994Z</time></trkpt><trkpt lat="45.349020827861764" lon="9.309887161031618"><ele>91.6</ele><time>2026-04-24T15:41:41.994Z</time></trkpt><trkpt lat="45.34906656136261" lon="9.309806080499365"><ele>91.8</ele><time>2026-04-24T15:41:42.994Z</time></trkpt><trkpt lat="45.34910072715118" lon="9.30970906556296"><ele>92.0</ele><time>2026-04-24T15:41:43.994Z</time></trkpt><trkpt lat="45.34915785521184" lon="9.309610545030358"><ele>92.0</ele><time>2026-04-24T15:41:45.994Z</time></trkpt><trkpt lat="45.34923705075861" lon="9.309596048577081"><ele>92.0</ele><time>2026-04-24T15:41:49.994Z</time></trkpt><trkpt lat="45.34930731413753" lon="9.309669879949222"><ele>92.0</ele><time>2026-04-24T15:41:52.994Z</time></trkpt><trkpt lat="45.34924153480175" lon="9.309661347225617"><ele>92.0</ele><time>2026-04-24T15:41:59.994Z</time></trkpt><trkpt lat="45.34933217963294" lon="9.309733065568476"><ele>92.0</ele><time>2026-04-24T15:42:19.001Z</time></trkpt><trkpt lat="45.349415276845846" lon="9.30964581527495"><ele>92.0</ele><time>2026-04-24T15:42:22.001Z</time></trkpt><trkpt lat="45.349478179779695" lon="9.309601562126508"><ele>92.0</ele><time>2026-04-24T15:42:23.001Z</time></trkpt><trkpt lat="45.349552803070466" lon="9.309492990517645"><ele>92.0</ele><time>2026-04-24T15:42:24Z</time></trkpt><trkpt lat="45.34965517828334" lon="9.309392235864548"><ele>92.0</ele><time>2026-04-24T15:42:25Z</time></trkpt><trkpt lat="45.34975510976953" lon="9.309298457774126"><ele>92.0</ele><time>2026-04-24T15:42:26Z</time></trkpt><trkpt lat="45.34987256821128" lon="9.309182409786876"><ele>91.33333333333334</ele><time>2026-04-24T15:42:27Z</time></trkpt><trkpt lat="45.3500153726291" lon="9.30905555433777"><ele>90.66666666666667</ele><time>2026-04-24T15:42:28Z</time></trkpt><trkpt lat="45.3501644719982" lon="9.308873780220713"><ele>90.0</ele><time>2026-04-24T15:42:29Z</time></trkpt><trkpt lat="45.350362061119085" lon="9.308713428217004"><ele>89.66666666666667</ele><time>2026-04-24T15:42:30Z</time></trkpt><trkpt lat="45.350528716158124" lon="9.308537893530737"><ele>89.33333333333334</ele><time>2026-04-24T15:42:31Z</time></trkpt><trkpt lat="45.350698090802084" lon="9.30837847545376"><ele>89.0</ele><time>2026-04-24T15:42:32Z</time></trkpt><trkpt lat="45.35085813770964" lon="9.308222098438645"><ele>89.33333333333334</ele><time>2026-04-24T15:42:33Z</time></trkpt><trkpt lat="45.350984559457345" lon="9.308023330093997"><ele>89.66666666666667</ele><time>2026-04-24T15:42:34Z</time></trkpt><trkpt lat="45.351137282992056" lon="9.307857310059275"><ele>90.0</ele><time>2026-04-24T15:42:35Z</time></trkpt><trkpt lat="45.35129072099489" lon="9.307683175270537"><ele>90.0</ele><time>2026-04-24T15:42:36Z</time></trkpt><trkpt lat="45.351436429364576" lon="9.307512281165275"><ele>90.0</ele><time>2026-04-24T15:42:37Z</time></trkpt><trkpt lat="45.351586953898995" lon="9.307320837590824"><ele>90.0</ele><time>2026-04-24T15:42:38Z</time></trkpt><trkpt lat="45.351769960470925" lon="9.307168685863504"><ele>90.0</ele><time>2026-04-24T15:42:39Z</time></trkpt><trkpt lat="45.35194631023766" lon="9.306950390750814"><ele>90.0</ele><time>2026-04-24T15:42:40Z</time></trkpt><trkpt lat="45.35212833683869" lon="9.306744604021551"><ele>90.0</ele><time>2026-04-24T15:42:41Z</time></trkpt><trkpt lat="45.352269770158465" lon="9.3065260219402"><ele>90.0</ele><time>2026-04-24T15:42:42Z</time></trkpt><trkpt lat="45.35243669182958" lon="9.30632213883722"><ele>90.0</ele><time>2026-04-24T15:42:43Z</time></trkpt><trkpt lat="45.35259211384022" lon="9.306123796956165"><ele>90.33333333333333</ele><time>2026-04-24T15:42:44Z</time></trkpt><trkpt lat="45.352750951671226" lon="9.305960818472427"><ele>90.66666666666666</ele><time>2026-04-24T15:42:45Z</time></trkpt><trkpt lat="45.35290502018236" lon="9.305769716275815"><ele>91.0</ele><time>2026-04-24T15:42:46Z</time></trkpt><trkpt lat="45.35306706027222" lon="9.305580270897732"><ele>91.0</ele><time>2026-04-24T15:42:47Z</time></trkpt><trkpt lat="45.35321930727266" lon="9.30536142816905"><ele>91.0</ele><time>2026-04-24T15:42:48Z</time></trkpt><trkpt lat="45.35339413661296" lon="9.305190015736668"><ele>91.0</ele><time>2026-04-24T15:42:49Z</time></trkpt><trkpt lat="45.35353379661247" lon="9.304977328555324"><ele>91.0</ele><time>2026-04-24T15:42:50Z</time></trkpt><trkpt lat="45.35368515465237" lon="9.304771053800618"><ele>91.0</ele><time>2026-04-24T15:42:51Z</time></trkpt><trkpt lat="45.35383227435459" lon="9.304562044698406"><ele>91.0</ele><time>2026-04-24T15:42:52Z</time></trkpt><trkpt lat="45.35400288312052" lon="9.304372790474853"><ele>90.33333333333333</ele><time>2026-04-24T15:42:53Z</time></trkpt><trkpt lat="45.354160100096394" lon="9.304165012464077"><ele>89.66666666666667</ele><time>2026-04-24T15:42:53.999Z</time></trkpt><trkpt lat="45.35432664193005" lon="9.303972637916896"><ele>89.0</ele><time>2026-04-24T15:42:54.999Z</time></trkpt><trkpt lat="45.35450590490327" lon="9.303784552730598"><ele>89.0</ele><time>2026-04-24T15:42:55.999Z</time></trkpt><trkpt lat="45.35469794202512" lon="9.303559693678363"><ele>89.0</ele><time>2026-04-24T15:42:56.999Z</time></trkpt><trkpt lat="45.35487547890693" lon="9.303353048466226"><ele>89.66666666666667</ele><time>2026-04-24T15:42:57.999Z</time></trkpt><trkpt lat="45.355071052797996" lon="9.303187445373343"><ele>90.33333333333333</ele><time>2026-04-24T15:42:58.999Z</time></trkpt><trkpt lat="45.35522925383379" lon="9.303018568752904"><ele>91.0</ele><time>2026-04-24T15:42:59.999Z</time></trkpt><trkpt lat="45.35538837633296" lon="9.302859191659905"><ele>91.0</ele><time>2026-04-24T15:43:00.999Z</time></trkpt><trkpt lat="45.35551125374364" lon="9.302618662009161"><ele>91.0</ele><time>2026-04-24T15:43:01.999Z</time></trkpt><trkpt lat="45.35567669819362" lon="9.302421265826846"><ele>91.0</ele><time>2026-04-24T15:43:02.999Z</time></trkpt><trkpt lat="45.35582187562747" lon="9.302211167876306"><ele>91.33333333333333</ele><time>2026-04-24T15:43:03.999Z</time></trkpt><trkpt lat="45.355979868911334" lon="9.302021449568976"><ele>91.66666666666667</ele><time>2026-04-24T15:43:04.999Z</time></trkpt><trkpt lat="45.356134118102496" lon="9.301832849207036"><ele>92.0</ele><time>2026-04-24T15:43:05.999Z</time></trkpt><trkpt lat="45.35629600713413" lon="9.30165838395765"><ele>91.5</ele><time>2026-04-24T15:43:06.999Z</time></trkpt><trkpt lat="45.35648396146522" lon="9.301436734013123"><ele>91.0</ele><time>2026-04-24T15:43:07.999Z</time></trkpt><trkpt lat="45.356658247727175" lon="9.30123227043529"><ele>91.0</ele><time>2026-04-24T15:43:08.999Z</time></trkpt><trkpt lat="45.356827068861946" lon="9.301035173159448"><ele>91.0</ele><time>2026-04-24T15:43:09.999Z</time></trkpt><trkpt lat="45.35699604814624" lon="9.300837891520125"><ele>91.0</ele><time>2026-04-24T15:43:10.999Z</time></trkpt><trkpt lat="45.35716593721833" lon="9.300639547468094"><ele>92.5</ele><time>2026-04-24T15:43:11.999Z</time></trkpt><trkpt lat="45.3573471795113" lon="9.300427142425768"><ele>94.0</ele><time>2026-04-24T15:43:12.999Z</time></trkpt><trkpt lat="45.357513352331026" lon="9.300232559611697"><ele>94.0</ele><time>2026-04-24T15:43:13.999Z</time></trkpt><trkpt lat="45.35767889952635" lon="9.300038171909344"><ele>94.0</ele><time>2026-04-24T15:43:14.999Z</time></trkpt><trkpt lat="45.35784258198948" lon="9.299846218220267"><ele>94.0</ele><time>2026-04-24T15:43:15.999Z</time></trkpt><trkpt lat="45.358012807346235" lon="9.299647395310965"><ele>94.0</ele><time>2026-04-24T15:43:16.999Z</time></trkpt><trkpt lat="45.358175427268876" lon="9.299457455524927"><ele>94.0</ele><time>2026-04-24T15:43:17.999Z</time></trkpt><trkpt lat="45.35833986143199" lon="9.299265396776208"><ele>94.0</ele><time>2026-04-24T15:43:18.999Z</time></trkpt><trkpt lat="45.358524879848716" lon="9.299049295562657"><ele>93.0</ele><time>2026-04-24T15:43:19.999Z</time></trkpt><trkpt lat="45.35871408208609" lon="9.298828307707609"><ele>92.0</ele><time>2026-04-24T15:43:20.999Z</time></trkpt><trkpt lat="45.3588978455705" lon="9.298613672386868"><ele>91.66666666666667</ele><time>2026-04-24T15:43:21.999Z</time></trkpt><trkpt lat="45.35906865512965" lon="9.298414167093636"><ele>91.33333333333333</ele><time>2026-04-24T15:43:22.999Z</time></trkpt><trkpt lat="45.35922459761809" lon="9.298207307500276"><ele>91.0</ele><time>2026-04-24T15:43:23.999Z</time></trkpt><trkpt lat="45.35937621705843" lon="9.297989092691914"><ele>91.0</ele><time>2026-04-24T15:43:24.999Z</time></trkpt><trkpt lat="45.35954731697203" lon="9.297815020892502"><ele>91.0</ele><time>2026-04-24T15:43:25.999Z</time></trkpt><trkpt lat="45.35971404799852" lon="9.297619302464438"><ele>91.0</ele><time>2026-04-24T15:43:26.999Z</time></trkpt><trkpt lat="45.35986739706813" lon="9.29740177468652"><ele>91.0</ele><time>2026-04-24T15:43:27.999Z</time></trkpt><trkpt lat="45.360054578223576" lon="9.29725950139771"><ele>91.0</ele><time>2026-04-24T15:43:28.999Z</time></trkpt><trkpt lat="45.36021398374963" lon="9.297072293454034"><ele>91.0</ele><time>2026-04-24T15:43:29.999Z</time></trkpt><trkpt lat="45.360378364803566" lon="9.296879248819602"><ele>91.0</ele><time>2026-04-24T15:43:30.999Z</time></trkpt><trkpt lat="45.360536292452736" lon="9.296693782756613"><ele>91.0</ele><time>2026-04-24T15:43:31.999Z</time></trkpt><trkpt lat="45.36070834223509" lon="9.296491732058165"><ele>91.0</ele><time>2026-04-24T15:43:32.999Z</time></trkpt><trkpt lat="45.3608875853289" lon="9.29628368726993"><ele>91.0</ele><time>2026-04-24T15:43:33.999Z</time></trkpt><trkpt lat="45.361058084663135" lon="9.296081149175464"><ele>91.0</ele><time>2026-04-24T15:43:34.999Z</time></trkpt><trkpt lat="45.36122483798253" lon="9.29588581546771"><ele>91.0</ele><time>2026-04-24T15:43:35.999Z</time></trkpt><trkpt lat="45.36140015369147" lon="9.295680451962744"><ele>91.0</ele><time>2026-04-24T15:43:36.999Z</time></trkpt><trkpt lat="45.361574422323194" lon="9.295476314905253"><ele>91.0</ele><time>2026-04-24T15:43:37.999Z</time></trkpt><trkpt lat="45.36174971388762" lon="9.29527097960229"><ele>91.0</ele><time>2026-04-24T15:43:38.999Z</time></trkpt><trkpt lat="45.36193392711954" lon="9.29505519350236"><ele>91.0</ele><time>2026-04-24T15:43:39.999Z</time></trkpt><trkpt lat="45.362109696632544" lon="9.294849298421054"><ele>91.0</ele><time>2026-04-24T15:43:40.999Z</time></trkpt><trkpt lat="45.36229351233318" lon="9.29463397803985"><ele>91.0</ele><time>2026-04-24T15:43:41.998Z</time></trkpt><trkpt lat="45.362460243524936" lon="9.29443867034662"><ele>91.0</ele><time>2026-04-24T15:43:42.998Z</time></trkpt><trkpt lat="45.362640984715554" lon="9.294209512717408"><ele>91.0</ele><time>2026-04-24T15:43:43.998Z</time></trkpt><trkpt lat="45.362822663447865" lon="9.294008228281706"><ele>91.0</ele><time>2026-04-24T15:43:44.998Z</time></trkpt><trkpt lat="45.363010771367634" lon="9.293788282521163"><ele>91.0</ele><time>2026-04-24T15:43:45.998Z</time></trkpt><trkpt lat="45.36319650812642" lon="9.293584825362794"><ele>91.33333333333333</ele><time>2026-04-24T15:43:46.998Z</time></trkpt><trkpt lat="45.36335492340819" lon="9.293390248471766"><ele>91.66666666666667</ele><time>2026-04-24T15:43:47.998Z</time></trkpt><trkpt lat="45.3634935797167" lon="9.293226979060462"><ele>92.0</ele><time>2026-04-24T15:43:48.998Z</time></trkpt><trkpt lat="45.36365379641796" lon="9.293038323753077"><ele>92.0</ele><time>2026-04-24T15:43:49.998Z</time></trkpt><trkpt lat="45.36380976377674" lon="9.292854670818292"><ele>92.0</ele><time>2026-04-24T15:43:50.998Z</time></trkpt><trkpt lat="45.36396494549824" lon="9.292671943599494"><ele>92.0</ele><time>2026-04-24T15:43:51.998Z</time></trkpt><trkpt lat="45.36412663430168" lon="9.2924823671624"><ele>91.66666666666667</ele><time>2026-04-24T15:43:52.998Z</time></trkpt><trkpt lat="45.36429223938945" lon="9.292289052794608"><ele>91.33333333333333</ele><time>2026-04-24T15:43:53.998Z</time></trkpt><trkpt lat="45.3644700618224" lon="9.292081477045004"><ele>91.0</ele><time>2026-04-24T15:43:54.998Z</time></trkpt><trkpt lat="45.36464762349272" lon="9.291874205094274"><ele>91.0</ele><time>2026-04-24T15:43:55.998Z</time></trkpt><trkpt lat="45.364825270739345" lon="9.29166698399921"><ele>91.0</ele><time>2026-04-24T15:43:56.998Z</time></trkpt><trkpt lat="45.36500530953276" lon="9.291456985935493"><ele>92.0</ele><time>2026-04-24T15:43:57.998Z</time></trkpt><trkpt lat="45.3651964741502" lon="9.29123311176655"><ele>93.0</ele><time>2026-04-24T15:43:58.998Z</time></trkpt><trkpt lat="45.365382203012764" lon="9.291014570521714"><ele>93.0</ele><time>2026-04-24T15:43:59.998Z</time></trkpt><trkpt lat="45.36556296398712" lon="9.290801874980124"><ele>93.0</ele><time>2026-04-24T15:44:00.998Z</time></trkpt><trkpt lat="45.365744212292554" lon="9.290588606065993"><ele>93.0</ele><time>2026-04-24T15:44:01.998Z</time></trkpt><trkpt lat="45.36590997791317" lon="9.290393555332424"><ele>93.0</ele><time>2026-04-24T15:44:02.998Z</time></trkpt><trkpt lat="45.36607501391045" lon="9.290199362745184"><ele>93.0</ele><time>2026-04-24T15:44:03.998Z</time></trkpt><trkpt lat="45.36623669383546" lon="9.289993813921319"><ele>92.66666666666667</ele><time>2026-04-24T15:44:04.998Z</time></trkpt><trkpt lat="45.36638603405416" lon="9.289808294399537"><ele>92.33333333333334</ele><time>2026-04-24T15:44:05.998Z</time></trkpt><trkpt lat="45.366556078207736" lon="9.289628691269211"><ele>92.0</ele><time>2026-04-24T15:44:06.998Z</time></trkpt><trkpt lat="45.366749295314634" lon="9.28940854344049"><ele>92.0</ele><time>2026-04-24T15:44:07.998Z</time></trkpt><trkpt lat="45.366931251840796" lon="9.28919473535764"><ele>92.0</ele><time>2026-04-24T15:44:08.998Z</time></trkpt><trkpt lat="45.36711255308688" lon="9.288981639705943"><ele>92.0</ele><time>2026-04-24T15:44:09.998Z</time></trkpt><trkpt lat="45.36727542441722" lon="9.288772034918876"><ele>92.0</ele><time>2026-04-24T15:44:10.998Z</time></trkpt><trkpt lat="45.36745703243404" lon="9.28857675004066"><ele>92.0</ele><time>2026-04-24T15:44:11.998Z</time></trkpt><trkpt lat="45.367625762889325" lon="9.288378815001709"><ele>92.0</ele><time>2026-04-24T15:44:12.998Z</time></trkpt><trkpt lat="45.36777822384483" lon="9.288200854345595"><ele>92.0</ele><time>2026-04-24T15:44:13.998Z</time></trkpt><trkpt lat="45.36795283736247" lon="9.287996457672948"><ele>92.0</ele><time>2026-04-24T15:44:14.998Z</time></trkpt><trkpt lat="45.36810640704532" lon="9.28781623107924"><ele>92.5</ele><time>2026-04-24T15:44:15.998Z</time></trkpt><trkpt lat="45.36828794997919" lon="9.28760317568449"><ele>93.0</ele><time>2026-04-24T15:44:16.998Z</time></trkpt><trkpt lat="45.36845688115079" lon="9.28740492113802"><ele>92.5</ele><time>2026-04-24T15:44:17.998Z</time></trkpt><trkpt lat="45.368640154902145" lon="9.287174511367617"><ele>92.0</ele><time>2026-04-24T15:44:18.998Z</time></trkpt><trkpt lat="45.36881090002973" lon="9.286989451171385"><ele>92.33333333333334</ele><time>2026-04-24T15:44:19.998Z</time></trkpt><trkpt lat="45.36896792375847" lon="9.286805170978214"><ele>92.66666666666667</ele><time>2026-04-24T15:44:20.998Z</time></trkpt><trkpt lat="45.369128677536786" lon="9.286616505755838"><ele>93.0</ele><time>2026-04-24T15:44:21.998Z</time></trkpt><trkpt lat="45.369278674288395" lon="9.286413399047944"><ele>93.0</ele><time>2026-04-24T15:44:22.998Z</time></trkpt><trkpt lat="45.369439969834836" lon="9.286238795227188"><ele>93.0</ele><time>2026-04-24T15:44:23.998Z</time></trkpt><trkpt lat="45.369617532195" lon="9.28604273161619"><ele>93.0</ele><time>2026-04-24T15:44:24.998Z</time></trkpt><trkpt lat="45.36978921665925" lon="9.285841218582734"><ele>93.0</ele><time>2026-04-24T15:44:25.998Z</time></trkpt><trkpt lat="45.36996532046029" lon="9.285634523935544"><ele>93.0</ele><time>2026-04-24T15:44:26.998Z</time></trkpt><trkpt lat="45.37014196337926" lon="9.28542719654994"><ele>93.0</ele><time>2026-04-24T15:44:27.998Z</time></trkpt><trkpt lat="45.37032165663528" lon="9.28521628887485"><ele>93.0</ele><time>2026-04-24T15:44:28.998Z</time></trkpt><trkpt lat="45.37049257533082" lon="9.28501568007647"><ele>93.0</ele><time>2026-04-24T15:44:29.998Z</time></trkpt><trkpt lat="45.37066258188906" lon="9.284816141705443"><ele>93.0</ele><time>2026-04-24T15:44:30.998Z</time></trkpt><trkpt lat="45.37083251042972" lon="9.284619873106195"><ele>93.0</ele><time>2026-04-24T15:44:31.998Z</time></trkpt><trkpt lat="45.37101060972881" lon="9.28442321255011"><ele>93.0</ele><time>2026-04-24T15:44:32.997Z</time></trkpt><trkpt lat="45.37120515555469" lon="9.284207571564826"><ele>93.0</ele><time>2026-04-24T15:44:33.997Z</time></trkpt><trkpt lat="45.371321506306074" lon="9.283878402732846"><ele>93.5</ele><time>2026-04-24T15:44:34.997Z</time></trkpt><trkpt lat="45.371509343249414" lon="9.283687741616848"><ele>94.0</ele><time>2026-04-24T15:44:35.997Z</time></trkpt><trkpt lat="45.37170541971342" lon="9.283507296096744"><ele>94.0</ele><time>2026-04-24T15:44:36.997Z</time></trkpt><trkpt lat="45.37188663329122" lon="9.283340315404104"><ele>94.0</ele><time>2026-04-24T15:44:37.997Z</time></trkpt><trkpt lat="45.372079221943395" lon="9.283184159002989"><ele>94.0</ele><time>2026-04-24T15:44:38.997Z</time></trkpt><trkpt lat="45.372238422407996" lon="9.28298615878185"><ele>93.66666666666666</ele><time>2026-04-24T15:44:39.997Z</time></trkpt><trkpt lat="45.37239520556685" lon="9.28281359763687"><ele>93.33333333333333</ele><time>2026-04-24T15:44:40.997Z</time></trkpt><trkpt lat="45.37256558691913" lon="9.282613787341862"><ele>93.0</ele><time>2026-04-24T15:44:41.997Z</time></trkpt><trkpt lat="45.37273953962534" lon="9.282409789077455"><ele>93.0</ele><time>2026-04-24T15:44:42.997Z</time></trkpt><trkpt lat="45.37289242903252" lon="9.28223049202599"><ele>93.0</ele><time>2026-04-24T15:44:43.997Z</time></trkpt><trkpt lat="45.37305473626189" lon="9.2820401505558"><ele>93.0</ele><time>2026-04-24T15:44:44.997Z</time></trkpt><trkpt lat="45.37322113385543" lon="9.28184506017484"><ele>93.0</ele><time>2026-04-24T15:44:45.997Z</time></trkpt><trkpt lat="45.37339844143614" lon="9.281637689221883"><ele>93.0</ele><time>2026-04-24T15:44:46.997Z</time></trkpt><trkpt lat="45.373567296428476" lon="9.28144020400888"><ele>93.0</ele><time>2026-04-24T15:44:47.997Z</time></trkpt><trkpt lat="45.37375086436601" lon="9.281225511245612"><ele>93.0</ele><time>2026-04-24T15:44:48.997Z</time></trkpt><trkpt lat="45.373915904982056" lon="9.28103248698437"><ele>93.0</ele><time>2026-04-24T15:44:49.997Z</time></trkpt><trkpt lat="45.37408157860916" lon="9.280838722578698"><ele>93.0</ele><time>2026-04-24T15:44:50.997Z</time></trkpt><trkpt lat="45.37424809697038" lon="9.280643970175426"><ele>93.33333333333333</ele><time>2026-04-24T15:44:51.997Z</time></trkpt><trkpt lat="45.374414416774556" lon="9.280447403767097"><ele>93.66666666666666</ele><time>2026-04-24T15:44:52.997Z</time></trkpt><trkpt lat="45.37458407652916" lon="9.280246704810825"><ele>94.0</ele><time>2026-04-24T15:44:53.997Z</time></trkpt><trkpt lat="45.374748958033244" lon="9.280052581016799"><ele>94.0</ele><time>2026-04-24T15:44:54.997Z</time></trkpt><trkpt lat="45.374910068304295" lon="9.279864257369749"><ele>94.0</ele><time>2026-04-24T15:44:55.997Z</time></trkpt><trkpt lat="45.375072379697954" lon="9.279675414192567"><ele>94.0</ele><time>2026-04-24T15:44:56.997Z</time></trkpt><trkpt lat="45.37522604973603" lon="9.279497231318109"><ele>94.5</ele><time>2026-04-24T15:44:57.997Z</time></trkpt><trkpt lat="45.375414921830114" lon="9.279290689340604"><ele>95.0</ele><time>2026-04-24T15:44:58.997Z</time></trkpt><trkpt lat="45.37561010104782" lon="9.279154111243031"><ele>95.0</ele><time>2026-04-24T15:44:59.997Z</time></trkpt><trkpt lat="45.37575667437063" lon="9.278943053392611"><ele>95.0</ele><time>2026-04-24T15:45:00.997Z</time></trkpt><trkpt lat="45.37591392658121" lon="9.278734581786205"><ele>95.0</ele><time>2026-04-24T15:45:01.997Z</time></trkpt><trkpt lat="45.376058222588" lon="9.27853503800131"><ele>94.66666666666667</ele><time>2026-04-24T15:45:02.997Z</time></trkpt><trkpt lat="45.37619831505456" lon="9.278342490937725"><ele>94.33333333333333</ele><time>2026-04-24T15:45:03.997Z</time></trkpt><trkpt lat="45.376341066988005" lon="9.27817011389995"><ele>94.0</ele><time>2026-04-24T15:45:04.997Z</time></trkpt><trkpt lat="45.37649590760357" lon="9.278008285862319"><ele>94.66666666666666</ele><time>2026-04-24T15:45:05.997Z</time></trkpt><trkpt lat="45.37665014450352" lon="9.277840061291494"><ele>95.33333333333333</ele><time>2026-04-24T15:45:06.997Z</time></trkpt><trkpt lat="45.37681967912178" lon="9.277658368945392"><ele>96.0</ele><time>2026-04-24T15:45:07.997Z</time></trkpt><trkpt lat="45.37698064811455" lon="9.277448555961064"><ele>96.0</ele><time>2026-04-24T15:45:08.997Z</time></trkpt><trkpt lat="45.377144335673435" lon="9.277239685835454"><ele>96.0</ele><time>2026-04-24T15:45:09.997Z</time></trkpt><trkpt lat="45.37733183991084" lon="9.277085169079731"><ele>96.0</ele><time>2026-04-24T15:45:10.997Z</time></trkpt><trkpt lat="45.37751197561685" lon="9.27691404713455"><ele>96.0</ele><time>2026-04-24T15:45:11.997Z</time></trkpt><trkpt lat="45.37768888440658" lon="9.27673580153991"><ele>96.0</ele><time>2026-04-24T15:45:12.997Z</time></trkpt><trkpt lat="45.37786020791374" lon="9.276532643873146"><ele>96.0</ele><time>2026-04-24T15:45:13.997Z</time></trkpt><trkpt lat="45.37803596316213" lon="9.276316921577122"><ele>96.0</ele><time>2026-04-24T15:45:14.997Z</time></trkpt><trkpt lat="45.37820662554566" lon="9.27609911831455"><ele>96.0</ele><time>2026-04-24T15:45:15.997Z</time></trkpt><trkpt lat="45.37837890080541" lon="9.27589053358402"><ele>96.0</ele><time>2026-04-24T15:45:16.997Z</time></trkpt><trkpt lat="45.37854843126403" lon="9.275681042068538"><ele>96.0</ele><time>2026-04-24T15:45:17.997Z</time></trkpt><trkpt lat="45.3787078531" lon="9.275416869044921"><ele>95.66666666666667</ele><time>2026-04-24T15:45:18.997Z</time></trkpt><trkpt lat="45.37887587734371" lon="9.275203304883526"><ele>95.33333333333334</ele><time>2026-04-24T15:45:19.997Z</time></trkpt><trkpt lat="45.37903981656139" lon="9.274996736479753"><ele>95.0</ele><time>2026-04-24T15:45:20.997Z</time></trkpt><trkpt lat="45.3792106631788" lon="9.274787253399161"><ele>94.66666666666667</ele><time>2026-04-24T15:45:21.997Z</time></trkpt><trkpt lat="45.37937357078103" lon="9.27459420677726"><ele>94.33333333333333</ele><time>2026-04-24T15:45:22.997Z</time></trkpt><trkpt lat="45.37954045327051" lon="9.27439874545606"><ele>94.0</ele><time>2026-04-24T15:45:23.997Z</time></trkpt><trkpt lat="45.37972331558323" lon="9.27418534032023"><ele>94.0</ele><time>2026-04-24T15:45:24.996Z</time></trkpt><trkpt lat="45.379898642273574" lon="9.273980729735802"><ele>94.0</ele><time>2026-04-24T15:45:25.996Z</time></trkpt><trkpt lat="45.38008013594202" lon="9.273768922261135"><ele>94.0</ele><time>2026-04-24T15:45:26.996Z</time></trkpt><trkpt lat="45.38025273437478" lon="9.273570785067738"><ele>94.0</ele><time>2026-04-24T15:45:27.996Z</time></trkpt><trkpt lat="45.38041973747241" lon="9.27337195774696"><ele>94.0</ele><time>2026-04-24T15:45:28.996Z</time></trkpt><trkpt lat="45.380576596856706" lon="9.273187248302289"><ele>94.66666666666666</ele><time>2026-04-24T15:45:29.996Z</time></trkpt><trkpt lat="45.380736917943764" lon="9.272998462768543"><ele>95.33333333333333</ele><time>2026-04-24T15:45:30.996Z</time></trkpt><trkpt lat="45.38090217100826" lon="9.272804335433452"><ele>96.0</ele><time>2026-04-24T15:45:31.996Z</time></trkpt><trkpt lat="45.38107740892531" lon="9.272598566972112"><ele>96.0</ele><time>2026-04-24T15:45:32.996Z</time></trkpt><trkpt lat="45.38123986260917" lon="9.272407809664887"><ele>96.0</ele><time>2026-04-24T15:45:33.996Z</time></trkpt><trkpt lat="45.38140415744919" lon="9.272214630261114"><ele>96.0</ele><time>2026-04-24T15:45:34.996Z</time></trkpt><trkpt lat="45.38157544026679" lon="9.272013203820638"><ele>96.0</ele><time>2026-04-24T15:45:35.996Z</time></trkpt><trkpt lat="45.381753142396015" lon="9.271804228380436"><ele>96.0</ele><time>2026-04-24T15:45:36.996Z</time></trkpt><trkpt lat="45.38191055559562" lon="9.271619112179042"><ele>96.0</ele><time>2026-04-24T15:45:37.996Z</time></trkpt><trkpt lat="45.38207394380935" lon="9.271426969670268"><ele>95.0</ele><time>2026-04-24T15:45:38.996Z</time></trkpt><trkpt lat="45.382261553214676" lon="9.271206343023733"><ele>94.0</ele><time>2026-04-24T15:45:39.996Z</time></trkpt><trkpt lat="45.38244244376467" lon="9.270997892151929"><ele>94.0</ele><time>2026-04-24T15:45:40.996Z</time></trkpt><trkpt lat="45.38262063450345" lon="9.270713673254315"><ele>94.0</ele><time>2026-04-24T15:45:41.996Z</time></trkpt><trkpt lat="45.382798786381926" lon="9.270480866228432"><ele>94.0</ele><time>2026-04-24T15:45:42.996Z</time></trkpt><trkpt lat="45.38297950200955" lon="9.270274006373112"><ele>94.0</ele><time>2026-04-24T15:45:43.996Z</time></trkpt><trkpt lat="45.383149097096755" lon="9.270031908990703"><ele>95.5</ele><time>2026-04-24T15:45:44.996Z</time></trkpt><trkpt lat="45.38338094738094" lon="9.26989739166768"><ele>97.0</ele><time>2026-04-24T15:45:45.996Z</time></trkpt><trkpt lat="45.383561284530785" lon="9.26968413947"><ele>97.0</ele><time>2026-04-24T15:45:46.996Z</time></trkpt><trkpt lat="45.38374107004904" lon="9.269473145471578"><ele>97.0</ele><time>2026-04-24T15:45:47.996Z</time></trkpt><trkpt lat="45.383900294873776" lon="9.269286801468242"><ele>97.0</ele><time>2026-04-24T15:45:48.996Z</time></trkpt><trkpt lat="45.384076358642325" lon="9.269080750362003"><ele>97.5</ele><time>2026-04-24T15:45:49.996Z</time></trkpt><trkpt lat="45.38426291285526" lon="9.268862416508776"><ele>98.0</ele><time>2026-04-24T15:45:50.996Z</time></trkpt><trkpt lat="45.384443295399365" lon="9.268651298686562"><ele>98.0</ele><time>2026-04-24T15:45:51.996Z</time></trkpt><trkpt lat="45.384633801346226" lon="9.268428321363565"><ele>98.0</ele><time>2026-04-24T15:45:52.996Z</time></trkpt><trkpt lat="45.38482068380883" lon="9.268209584947504"><ele>97.5</ele><time>2026-04-24T15:45:53.996Z</time></trkpt><trkpt lat="45.384995147980725" lon="9.26800538364184"><ele>97.0</ele><time>2026-04-24T15:45:54.996Z</time></trkpt><trkpt lat="45.385180478569396" lon="9.267787341205548"><ele>97.0</ele><time>2026-04-24T15:45:55.996Z</time></trkpt><trkpt lat="45.385363289725575" lon="9.2675709310572"><ele>97.0</ele><time>2026-04-24T15:45:56.996Z</time></trkpt><trkpt lat="45.38554971565628" lon="9.267350241831371"><ele>97.0</ele><time>2026-04-24T15:45:57.996Z</time></trkpt><trkpt lat="45.38572496309714" lon="9.267145556865392"><ele>97.0</ele><time>2026-04-24T15:45:58.996Z</time></trkpt><trkpt lat="45.38591629073348" lon="9.266922941447383"><ele>97.0</ele><time>2026-04-24T15:45:59.996Z</time></trkpt><trkpt lat="45.386106162397034" lon="9.266700589336066"><ele>97.0</ele><time>2026-04-24T15:46:00.996Z</time></trkpt><trkpt lat="45.386295612813704" lon="9.26648505744893"><ele>97.0</ele><time>2026-04-24T15:46:01.996Z</time></trkpt><trkpt lat="45.38644921300677" lon="9.2662684518706"><ele>97.0</ele><time>2026-04-24T15:46:02.996Z</time></trkpt><trkpt lat="45.38664013718447" lon="9.266070829975693"><ele>97.0</ele><time>2026-04-24T15:46:03.996Z</time></trkpt><trkpt lat="45.38682035564044" lon="9.2658582840383"><ele>97.0</ele><time>2026-04-24T15:46:04.996Z</time></trkpt><trkpt lat="45.386985047037456" lon="9.26566845863404"><ele>97.0</ele><time>2026-04-24T15:46:05.996Z</time></trkpt><trkpt lat="45.38716111372958" lon="9.2654730698786"><ele>97.33333333333334</ele><time>2026-04-24T15:46:06.996Z</time></trkpt><trkpt lat="45.387323716552345" lon="9.265292622533039"><ele>97.66666666666666</ele><time>2026-04-24T15:46:07.996Z</time></trkpt><trkpt lat="45.38750139679725" lon="9.265091592848542"><ele>98.0</ele><time>2026-04-24T15:46:08.996Z</time></trkpt><trkpt lat="45.38768198704005" lon="9.264879336849386"><ele>98.33333333333333</ele><time>2026-04-24T15:46:09.996Z</time></trkpt><trkpt lat="45.387853088381384" lon="9.264677879225928"><ele>98.66666666666666</ele><time>2026-04-24T15:46:10.996Z</time></trkpt><trkpt lat="45.38802360884953" lon="9.264477062040754"><ele>99.0</ele><time>2026-04-24T15:46:11.996Z</time></trkpt><trkpt lat="45.38817600864542" lon="9.264297659580656"><ele>98.66666666666666</ele><time>2026-04-24T15:46:12.996Z</time></trkpt><trkpt lat="45.3883310463136" lon="9.264115584439429"><ele>98.33333333333333</ele><time>2026-04-24T15:46:13.996Z</time></trkpt><trkpt lat="45.38848412636607" lon="9.263935640276307"><ele>98.0</ele><time>2026-04-24T15:46:14.996Z</time></trkpt><trkpt lat="45.388633027381864" lon="9.263759468012818"><ele>98.0</ele><time>2026-04-24T15:46:15.996Z</time></trkpt><trkpt lat="45.388768711369046" lon="9.263604930360296"><ele>98.0</ele><time>2026-04-24T15:46:16.995Z</time></trkpt><trkpt lat="45.38891356160191" lon="9.26344032135812"><ele>98.0</ele><time>2026-04-24T15:46:17.995Z</time></trkpt><trkpt lat="45.38907224430682" lon="9.263257831379214"><ele>97.66666666666666</ele><time>2026-04-24T15:46:18.995Z</time></trkpt><trkpt lat="45.389218132960096" lon="9.263104536667543"><ele>97.33333333333334</ele><time>2026-04-24T15:46:19.995Z</time></trkpt><trkpt lat="45.38935549744631" lon="9.262958600720074"><ele>97.0</ele><time>2026-04-24T15:46:20.995Z</time></trkpt><trkpt lat="45.38949456660143" lon="9.262846187200328"><ele>97.0</ele><time>2026-04-24T15:46:21.995Z</time></trkpt><trkpt lat="45.3896493210845" lon="9.262723713683089"><ele>97.0</ele><time>2026-04-24T15:46:22.995Z</time></trkpt><trkpt lat="45.38981266311417" lon="9.262578032170012"><ele>97.0</ele><time>2026-04-24T15:46:23.995Z</time></trkpt><trkpt lat="45.389988471444504" lon="9.262428809162445"><ele>96.66666666666667</ele><time>2026-04-24T15:46:24.995Z</time></trkpt><trkpt lat="45.39016992414444" lon="9.26228160934711"><ele>96.33333333333334</ele><time>2026-04-24T15:46:25.995Z</time></trkpt><trkpt lat="45.390319380954395" lon="9.262166415129931"><ele>96.0</ele><time>2026-04-24T15:46:26.995Z</time></trkpt><trkpt lat="45.39045791272884" lon="9.262062950670536"><ele>97.0</ele><time>2026-04-24T15:46:27.995Z</time></trkpt><trkpt lat="45.39060223275501" lon="9.261957950373619"><ele>98.0</ele><time>2026-04-24T15:46:28.995Z</time></trkpt><trkpt lat="45.390742516491805" lon="9.261859927157168"><ele>99.0</ele><time>2026-04-24T15:46:29.995Z</time></trkpt><trkpt lat="45.39089935575462" lon="9.261754044293157"><ele>99.0</ele><time>2026-04-24T15:46:30.995Z</time></trkpt><trkpt lat="45.391056029255296" lon="9.261652320579188"><ele>99.0</ele><time>2026-04-24T15:46:31.995Z</time></trkpt><trkpt lat="45.391232821973404" lon="9.261548267594168"><ele>99.0</ele><time>2026-04-24T15:46:32.995Z</time></trkpt><trkpt lat="45.39142662919874" lon="9.261450907791302"><ele>98.66666666666666</ele><time>2026-04-24T15:46:33.995Z</time></trkpt><trkpt lat="45.39158837890232" lon="9.261341158260512"><ele>98.33333333333333</ele><time>2026-04-24T15:46:34.995Z</time></trkpt><trkpt lat="45.39174660062329" lon="9.261263020893235"><ele>98.0</ele><time>2026-04-24T15:46:35.995Z</time></trkpt><trkpt lat="45.39191285736174" lon="9.26116285572371"><ele>98.0</ele><time>2026-04-24T15:46:36.995Z</time></trkpt><trkpt lat="45.392070830125604" lon="9.261083611062611"><ele>98.0</ele><time>2026-04-24T15:46:37.995Z</time></trkpt><trkpt lat="45.392222531024004" lon="9.261035392655337"><ele>98.0</ele><time>2026-04-24T15:46:38.995Z</time></trkpt><trkpt lat="45.392341229688576" lon="9.260936126551549"><ele>99.0</ele><time>2026-04-24T15:46:39.995Z</time></trkpt><trkpt lat="45.39248873073393" lon="9.26089752909197"><ele>100.0</ele><time>2026-04-24T15:46:40.995Z</time></trkpt><trkpt lat="45.392653384307465" lon="9.260832907564607"><ele>101.0</ele><time>2026-04-24T15:46:41.995Z</time></trkpt><trkpt lat="45.39281639567137" lon="9.260772914592684"><ele>101.0</ele><time>2026-04-24T15:46:42.995Z</time></trkpt><trkpt lat="45.3929841050879" lon="9.260716066933282"><ele>101.0</ele><time>2026-04-24T15:46:43.995Z</time></trkpt><trkpt lat="45.393162425799126" lon="9.260667220955883"><ele>101.0</ele><time>2026-04-24T15:46:44.995Z</time></trkpt><trkpt lat="45.39333778804694" lon="9.2606042655024"><ele>101.0</ele><time>2026-04-24T15:46:45.995Z</time></trkpt><trkpt lat="45.39351963330373" lon="9.26057871606344"><ele>101.0</ele><time>2026-04-24T15:46:46.995Z</time></trkpt><trkpt lat="45.39373072049427" lon="9.260539428299865"><ele>101.0</ele><time>2026-04-24T15:46:47.995Z</time></trkpt><trkpt lat="45.39391522912075" lon="9.260491273122645"><ele>101.25</ele><time>2026-04-24T15:46:48.995Z</time></trkpt><trkpt lat="45.39406368048398" lon="9.26046244133332"><ele>101.5</ele><time>2026-04-24T15:46:49.995Z</time></trkpt><trkpt lat="45.39420940360028" lon="9.260437499641023"><ele>101.75</ele><time>2026-04-24T15:46:50.995Z</time></trkpt><trkpt lat="45.39434634095143" lon="9.260418496641057"><ele>102.0</ele><time>2026-04-24T15:46:51.995Z</time></trkpt><trkpt lat="45.39448818284795" lon="9.260400647258"><ele>102.0</ele><time>2026-04-24T15:46:52.995Z</time></trkpt><trkpt lat="45.39464361264513" lon="9.260385556111096"><ele>102.0</ele><time>2026-04-24T15:46:53.995Z</time></trkpt><trkpt lat="45.39479697803408" lon="9.260372452040095"><ele>102.0</ele><time>2026-04-24T15:46:54.995Z</time></trkpt><trkpt lat="45.39495370706" lon="9.260358369866136"><ele>101.33333333333334</ele><time>2026-04-24T15:46:55.995Z</time></trkpt><trkpt lat="45.39511009576641" lon="9.260340189623248"><ele>100.66666666666667</ele><time>2026-04-24T15:46:56.995Z</time></trkpt><trkpt lat="45.39526591799052" lon="9.260326974567658"><ele>100.0</ele><time>2026-04-24T15:46:57.995Z</time></trkpt><trkpt lat="45.395425672781386" lon="9.260320646418469"><ele>100.0</ele><time>2026-04-24T15:46:58.995Z</time></trkpt><trkpt lat="45.395596431358314" lon="9.260323736119897"><ele>100.0</ele><time>2026-04-24T15:46:59.995Z</time></trkpt><trkpt lat="45.39577701225352" lon="9.26033329582364"><ele>100.0</ele><time>2026-04-24T15:47:00.995Z</time></trkpt><trkpt lat="45.3959694801161" lon="9.260345299275068"><ele>100.0</ele><time>2026-04-24T15:47:01.995Z</time></trkpt><trkpt lat="45.39618310902862" lon="9.260359127952833"><ele>100.0</ele><time>2026-04-24T15:47:02.995Z</time></trkpt><trkpt lat="45.396374013803744" lon="9.260377837278321"><ele>100.0</ele><time>2026-04-24T15:47:03.995Z</time></trkpt><trkpt lat="45.396582666484576" lon="9.260401498025962"><ele>100.0</ele><time>2026-04-24T15:47:04.995Z</time></trkpt><trkpt lat="45.396789845277006" lon="9.260425080555796"><ele>100.0</ele><time>2026-04-24T15:47:05.995Z</time></trkpt><trkpt lat="45.39700384742603" lon="9.260448899795556"><ele>100.0</ele><time>2026-04-24T15:47:06.995Z</time></trkpt><trkpt lat="45.397216725905885" lon="9.2604718984705"><ele>100.33333333333334</ele><time>2026-04-24T15:47:07.994Z</time></trkpt><trkpt lat="45.397429226906695" lon="9.260494856370775"><ele>100.66666666666666</ele><time>2026-04-24T15:47:08.994Z</time></trkpt><trkpt lat="45.39764348723054" lon="9.26051905033659"><ele>101.0</ele><time>2026-04-24T15:47:09.994Z</time></trkpt><trkpt lat="45.397858097625424" lon="9.260543438880088"><ele>101.0</ele><time>2026-04-24T15:47:10.994Z</time></trkpt><trkpt lat="45.39805696986322" lon="9.260565896071004"><ele>101.0</ele><time>2026-04-24T15:47:11.994Z</time></trkpt><trkpt lat="45.39826417405531" lon="9.260588790863101"><ele>101.0</ele><time>2026-04-24T15:47:12.994Z</time></trkpt><trkpt lat="45.398476188199425" lon="9.260611715239207"><ele>101.0</ele><time>2026-04-24T15:47:13.994Z</time></trkpt><trkpt lat="45.3986908686726" lon="9.2606377760103"><ele>101.0</ele><time>2026-04-24T15:47:14.994Z</time></trkpt><trkpt lat="45.398899028531524" lon="9.260663036848484"><ele>101.0</ele><time>2026-04-24T15:47:15.994Z</time></trkpt><trkpt lat="45.39911508380959" lon="9.260684854619921"><ele>101.0</ele><time>2026-04-24T15:47:16.994Z</time></trkpt><trkpt lat="45.39932872655793" lon="9.26070818626738"><ele>101.0</ele><time>2026-04-24T15:47:17.994Z</time></trkpt><trkpt lat="45.39954771640713" lon="9.260732101879048"><ele>101.0</ele><time>2026-04-24T15:47:18.994Z</time></trkpt><trkpt lat="45.39977166513247" lon="9.260756769355796"><ele>100.0</ele><time>2026-04-24T15:47:19.994Z</time></trkpt><trkpt lat="45.399999238670226" lon="9.260782418296422"><ele>99.0</ele><time>2026-04-24T15:47:20.994Z</time></trkpt><trkpt lat="45.40021439313045" lon="9.260806667529428"><ele>98.0</ele><time>2026-04-24T15:47:21.994Z</time></trkpt><trkpt lat="45.400434542802856" lon="9.260823401362892"><ele>98.0</ele><time>2026-04-24T15:47:22.994Z</time></trkpt><trkpt lat="45.400666985593794" lon="9.260873244266548"><ele>98.0</ele><time>2026-04-24T15:47:23.994Z</time></trkpt><trkpt lat="45.40089473358597" lon="9.260917035046123"><ele>98.0</ele><time>2026-04-24T15:47:24.994Z</time></trkpt><trkpt lat="45.40112301239541" lon="9.26095290858111"><ele>98.0</ele><time>2026-04-24T15:47:25.994Z</time></trkpt><trkpt lat="45.401346366603576" lon="9.260988666225185"><ele>98.33333333333333</ele><time>2026-04-24T15:47:26.994Z</time></trkpt><trkpt lat="45.40156999571346" lon="9.261026159658776"><ele>98.66666666666666</ele><time>2026-04-24T15:47:27.994Z</time></trkpt><trkpt lat="45.40178901817771" lon="9.261068776332813"><ele>99.0</ele><time>2026-04-24T15:47:28.994Z</time></trkpt><trkpt lat="45.402018109482526" lon="9.26107587970511"><ele>99.0</ele><time>2026-04-24T15:47:29.994Z</time></trkpt><trkpt lat="45.40223929312082" lon="9.261108981731143"><ele>99.0</ele><time>2026-04-24T15:47:30.994Z</time></trkpt><trkpt lat="45.40246530686079" lon="9.261130936253299"><ele>99.0</ele><time>2026-04-24T15:47:31.994Z</time></trkpt><trkpt lat="45.40270755815638" lon="9.261158361482918"><ele>99.0</ele><time>2026-04-24T15:47:32.994Z</time></trkpt><trkpt lat="45.40292676351954" lon="9.261182290170542"><ele>99.0</ele><time>2026-04-24T15:47:33.994Z</time></trkpt><trkpt lat="45.403160032239" lon="9.261212178552675"><ele>99.5</ele><time>2026-04-24T15:47:34.994Z</time></trkpt><trkpt lat="45.40340494548314" lon="9.26123017654616"><ele>100.0</ele><time>2026-04-24T15:47:35.994Z</time></trkpt><trkpt lat="45.40364608949582" lon="9.261267354097212"><ele>99.5</ele><time>2026-04-24T15:47:36.994Z</time></trkpt><trkpt lat="45.4038849532051" lon="9.26129522809169"><ele>99.0</ele><time>2026-04-24T15:47:37.994Z</time></trkpt><trkpt lat="45.40413018845722" lon="9.261350386331067"><ele>99.0</ele><time>2026-04-24T15:47:38.994Z</time></trkpt><trkpt lat="45.40435215829642" lon="9.261399481907652"><ele>99.0</ele><time>2026-04-24T15:47:39.994Z</time></trkpt><trkpt lat="45.40459006396542" lon="9.26142883776141"><ele>99.0</ele><time>2026-04-24T15:47:40.994Z</time></trkpt><trkpt lat="45.40482581933029" lon="9.261463616238537"><ele>99.0</ele><time>2026-04-24T15:47:41.994Z</time></trkpt><trkpt lat="45.405061074392975" lon="9.261499079102983"><ele>99.0</ele><time>2026-04-24T15:47:42.994Z</time></trkpt><trkpt lat="45.4052906722081" lon="9.261530330690602"><ele>99.0</ele><time>2026-04-24T15:47:43.994Z</time></trkpt><trkpt lat="45.40551191847029" lon="9.261571881319577"><ele>99.0</ele><time>2026-04-24T15:47:44.994Z</time></trkpt><trkpt lat="45.405739042217704" lon="9.26158358473518"><ele>99.0</ele><time>2026-04-24T15:47:45.994Z</time></trkpt><trkpt lat="45.405970950704884" lon="9.2615756651947"><ele>99.0</ele><time>2026-04-24T15:47:46.994Z</time></trkpt><trkpt lat="45.40620557578644" lon="9.261567779903505"><ele>99.0</ele><time>2026-04-24T15:47:47.994Z</time></trkpt><trkpt lat="45.406433676978224" lon="9.261533434620787"><ele>99.0</ele><time>2026-04-24T15:47:48.994Z</time></trkpt><trkpt lat="45.40665852540589" lon="9.261485217480695"><ele>99.0</ele><time>2026-04-24T15:47:49.994Z</time></trkpt><trkpt lat="45.40688226187514" lon="9.2614339498204"><ele>99.0</ele><time>2026-04-24T15:47:50.994Z</time></trkpt><trkpt lat="45.407099051615454" lon="9.261383224747117"><ele>99.0</ele><time>2026-04-24T15:47:51.994Z</time></trkpt><trkpt lat="45.40728717476339" lon="9.261255178482957"><ele>99.0</ele><time>2026-04-24T15:47:52.994Z</time></trkpt><trkpt lat="45.40751442658593" lon="9.261138677387708"><ele>98.5</ele><time>2026-04-24T15:47:53.994Z</time></trkpt><trkpt lat="45.40774108150944" lon="9.26100754513311"><ele>98.0</ele><time>2026-04-24T15:47:54.994Z</time></trkpt><trkpt lat="45.407958239057685" lon="9.260857391460029"><ele>98.0</ele><time>2026-04-24T15:47:55.994Z</time></trkpt><trkpt lat="45.408166476622895" lon="9.26069484164691"><ele>98.0</ele><time>2026-04-24T15:47:56.994Z</time></trkpt><trkpt lat="45.40836755518846" lon="9.260516558942477"><ele>98.0</ele><time>2026-04-24T15:47:57.994Z</time></trkpt><trkpt lat="45.40855501006242" lon="9.260334624264065"><ele>98.0</ele><time>2026-04-24T15:47:58.994Z</time></trkpt><trkpt lat="45.40873614896288" lon="9.260141225298744"><ele>98.0</ele><time>2026-04-24T15:47:59.993Z</time></trkpt><trkpt lat="45.40891559259089" lon="9.25993498757947"><ele>98.0</ele><time>2026-04-24T15:48:00.993Z</time></trkpt><trkpt lat="45.409085065747476" lon="9.25972616288847"><ele>98.0</ele><time>2026-04-24T15:48:01.993Z</time></trkpt><trkpt lat="45.409254227920336" lon="9.259514209133108"><ele>98.0</ele><time>2026-04-24T15:48:02.993Z</time></trkpt><trkpt lat="45.40940990124883" lon="9.259264807089906"><ele>98.0</ele><time>2026-04-24T15:48:03.993Z</time></trkpt><trkpt lat="45.40956874432472" lon="9.25902449067022"><ele>98.0</ele><time>2026-04-24T15:48:04.993Z</time></trkpt><trkpt lat="45.4097291989326" lon="9.25879494254774"><ele>100.0</ele><time>2026-04-24T15:48:05.993Z</time></trkpt><trkpt lat="45.40989431051959" lon="9.258568055072281"><ele>102.0</ele><time>2026-04-24T15:48:06.993Z</time></trkpt><trkpt lat="45.410063215200466" lon="9.258364204855482"><ele>102.0</ele><time>2026-04-24T15:48:07.993Z</time></trkpt><trkpt lat="45.41023629232567" lon="9.2581520559508"><ele>102.0</ele><time>2026-04-24T15:48:08.993Z</time></trkpt><trkpt lat="45.41038984420628" lon="9.257906009718463"><ele>102.0</ele><time>2026-04-24T15:48:09.993Z</time></trkpt><trkpt lat="45.41057370156347" lon="9.257690575322767"><ele>102.0</ele><time>2026-04-24T15:48:10.993Z</time></trkpt><trkpt lat="45.410741845092225" lon="9.257461313578844"><ele>101.0</ele><time>2026-04-24T15:48:11.993Z</time></trkpt><trkpt lat="45.410911564169226" lon="9.25724775610011"><ele>100.0</ele><time>2026-04-24T15:48:12.993Z</time></trkpt><trkpt lat="45.41108087758739" lon="9.257046332279035"><ele>99.0</ele><time>2026-04-24T15:48:13.993Z</time></trkpt><trkpt lat="45.411260250829336" lon="9.256833578085232"><ele>99.5</ele><time>2026-04-24T15:48:14.993Z</time></trkpt><trkpt lat="45.411435023426655" lon="9.256617000584688"><ele>100.0</ele><time>2026-04-24T15:48:15.993Z</time></trkpt><trkpt lat="45.411607855309875" lon="9.256405058182198"><ele>100.0</ele><time>2026-04-24T15:48:16.993Z</time></trkpt><trkpt lat="45.41177941629166" lon="9.25617012696597"><ele>100.0</ele><time>2026-04-24T15:48:17.993Z</time></trkpt><trkpt lat="45.41195268811722" lon="9.25595236659931"><ele>100.0</ele><time>2026-04-24T15:48:18.993Z</time></trkpt><trkpt lat="45.412122402859204" lon="9.255724480219346"><ele>100.0</ele><time>2026-04-24T15:48:19.993Z</time></trkpt><trkpt lat="45.41229349818155" lon="9.255489399084073"><ele>100.0</ele><time>2026-04-24T15:48:20.993Z</time></trkpt><trkpt lat="45.41247473772657" lon="9.255274076217836"><ele>100.0</ele><time>2026-04-24T15:48:21.993Z</time></trkpt><trkpt lat="45.41264683053666" lon="9.255046526576715"><ele>100.0</ele><time>2026-04-24T15:48:22.993Z</time></trkpt><trkpt lat="45.41282189574311" lon="9.254825754462454"><ele>100.0</ele><time>2026-04-24T15:48:23.993Z</time></trkpt><trkpt lat="45.41300803736694" lon="9.25462089757864"><ele>100.5</ele><time>2026-04-24T15:48:24.993Z</time></trkpt><trkpt lat="45.4131807213557" lon="9.254397657910893"><ele>101.0</ele><time>2026-04-24T15:48:25.993Z</time></trkpt><trkpt lat="45.413351207873546" lon="9.254178341554809"><ele>102.0</ele><time>2026-04-24T15:48:26.993Z</time></trkpt><trkpt lat="45.41350596575423" lon="9.253932280166818"><ele>103.0</ele><time>2026-04-24T15:48:27.993Z</time></trkpt><trkpt lat="45.41369953640676" lon="9.253741214227274"><ele>103.0</ele><time>2026-04-24T15:48:28.993Z</time></trkpt><trkpt lat="45.41384755032771" lon="9.253503053763952"><ele>103.0</ele><time>2026-04-24T15:48:29.993Z</time></trkpt><trkpt lat="45.41399423329127" lon="9.253255938044367"><ele>104.5</ele><time>2026-04-24T15:48:30.993Z</time></trkpt><trkpt lat="45.41416443594148" lon="9.253028994334505"><ele>106.0</ele><time>2026-04-24T15:48:31.993Z</time></trkpt><trkpt lat="45.4143297179329" lon="9.252794839852603"><ele>106.0</ele><time>2026-04-24T15:48:32.993Z</time></trkpt><trkpt lat="45.41448702931439" lon="9.252557182077728"><ele>106.0</ele><time>2026-04-24T15:48:33.993Z</time></trkpt><trkpt lat="45.414642633089045" lon="9.252330794365568"><ele>103.66666666666667</ele><time>2026-04-24T15:48:34.993Z</time></trkpt><trkpt lat="45.41480300574479" lon="9.252107668172275"><ele>101.33333333333334</ele><time>2026-04-24T15:48:35.993Z</time></trkpt><trkpt lat="45.41496429416666" lon="9.251891706964958"><ele>99.0</ele><time>2026-04-24T15:48:36.993Z</time></trkpt><trkpt lat="45.415135396010555" lon="9.251673808031981"><ele>99.0</ele><time>2026-04-24T15:48:37.993Z</time></trkpt><trkpt lat="45.41530732526198" lon="9.251469856343288"><ele>99.0</ele><time>2026-04-24T15:48:38.993Z</time></trkpt><trkpt lat="45.41544878064183" lon="9.251233077623983"><ele>99.0</ele><time>2026-04-24T15:48:39.993Z</time></trkpt><trkpt lat="45.41559449391262" lon="9.250978603136204"><ele>99.5</ele><time>2026-04-24T15:48:40.993Z</time></trkpt><trkpt lat="45.41573194138513" lon="9.250718115702968"><ele>100.0</ele><time>2026-04-24T15:48:41.993Z</time></trkpt><trkpt lat="45.41586321499856" lon="9.2504594485629"><ele>100.66666666666667</ele><time>2026-04-24T15:48:42.993Z</time></trkpt><trkpt lat="45.416023656692865" lon="9.250233229710709"><ele>101.33333333333334</ele><time>2026-04-24T15:48:43.993Z</time></trkpt><trkpt lat="45.416181095533986" lon="9.25001148880702"><ele>102.0</ele><time>2026-04-24T15:48:44.993Z</time></trkpt><trkpt lat="45.41632890548028" lon="9.249783773471874"><ele>102.0</ele><time>2026-04-24T15:48:45.993Z</time></trkpt><trkpt lat="45.41646958949411" lon="9.249555633826416"><ele>102.0</ele><time>2026-04-24T15:48:46.993Z</time></trkpt><trkpt lat="45.41659555353342" lon="9.249310500104642"><ele>102.0</ele><time>2026-04-24T15:48:47.993Z</time></trkpt><trkpt lat="45.416737059819425" lon="9.249077312872997"><ele>102.0</ele><time>2026-04-24T15:48:48.993Z</time></trkpt><trkpt lat="45.41690526576843" lon="9.24885119835532"><ele>102.0</ele><time>2026-04-24T15:48:49.993Z</time></trkpt><trkpt lat="45.41706405720265" lon="9.24861362074205"><ele>100.0</ele><time>2026-04-24T15:48:50.993Z</time></trkpt><trkpt lat="45.4172276930754" lon="9.248374382381893"><ele>98.0</ele><time>2026-04-24T15:48:51.992Z</time></trkpt><trkpt lat="45.41738886048639" lon="9.248153741281863"><ele>99.0</ele><time>2026-04-24T15:48:52.992Z</time></trkpt><trkpt lat="45.417555299667825" lon="9.24793812286049"><ele>100.0</ele><time>2026-04-24T15:48:53.992Z</time></trkpt><trkpt lat="45.41772535946651" lon="9.24772781105155"><ele>100.0</ele><time>2026-04-24T15:48:54.992Z</time></trkpt><trkpt lat="45.417894725842004" lon="9.247537780329766"><ele>100.0</ele><time>2026-04-24T15:48:55.992Z</time></trkpt><trkpt lat="45.4180684870952" lon="9.247357996668002"><ele>100.0</ele><time>2026-04-24T15:48:56.992Z</time></trkpt><trkpt lat="45.41824394702698" lon="9.247190832953546"><ele>100.33333333333334</ele><time>2026-04-24T15:48:57.992Z</time></trkpt><trkpt lat="45.41842867205333" lon="9.247029863536504"><ele>100.66666666666666</ele><time>2026-04-24T15:48:58.992Z</time></trkpt><trkpt lat="45.41862407065284" lon="9.24686950056666"><ele>101.0</ele><time>2026-04-24T15:48:59.992Z</time></trkpt><trkpt lat="45.41884126804702" lon="9.246713936777711"><ele>102.0</ele><time>2026-04-24T15:49:00.992Z</time></trkpt><trkpt lat="45.4190587856201" lon="9.246576134736772"><ele>103.0</ele><time>2026-04-24T15:49:01.992Z</time></trkpt><trkpt lat="45.419273746403306" lon="9.246455179669757"><ele>103.0</ele><time>2026-04-24T15:49:02.992Z</time></trkpt><trkpt lat="45.41948692712264" lon="9.246347216328429"><ele>103.0</ele><time>2026-04-24T15:49:03.992Z</time></trkpt><trkpt lat="45.41969652857663" lon="9.246255195337756"><ele>103.0</ele><time>2026-04-24T15:49:04.992Z</time></trkpt><trkpt lat="45.41991435398855" lon="9.246179856125252"><ele>104.0</ele><time>2026-04-24T15:49:05.992Z</time></trkpt><trkpt lat="45.42013834217548" lon="9.246111291321203"><ele>105.0</ele><time>2026-04-24T15:49:06.992Z</time></trkpt><trkpt lat="45.420372227911116" lon="9.246046713175144"><ele>106.0</ele><time>2026-04-24T15:49:07.992Z</time></trkpt><trkpt lat="45.42059954488299" lon="9.245979797073762"><ele>107.0</ele><time>2026-04-24T15:49:08.992Z</time></trkpt><trkpt lat="45.42083300969306" lon="9.245962617143652"><ele>107.0</ele><time>2026-04-24T15:49:10Z</time></trkpt><trkpt lat="45.42105640442877" lon="9.245932372091792"><ele>107.0</ele><time>2026-04-24T15:49:11Z</time></trkpt><trkpt lat="45.4212868102775" lon="9.245904075067585"><ele>107.0</ele><time>2026-04-24T15:49:12Z</time></trkpt><trkpt lat="45.421507958839165" lon="9.245877275307812"><ele>107.0</ele><time>2026-04-24T15:49:13Z</time></trkpt><trkpt lat="45.421727440631116" lon="9.245852563027638"><ele>107.0</ele><time>2026-04-24T15:49:14Z</time></trkpt><trkpt lat="45.42195769065378" lon="9.245827031182518"><ele>106.33333333333333</ele><time>2026-04-24T15:49:15Z</time></trkpt><trkpt lat="45.42217427060954" lon="9.245800098710095"><ele>105.66666666666666</ele><time>2026-04-24T15:49:16Z</time></trkpt><trkpt lat="45.42238469537158" lon="9.245773605350001"><ele>105.0</ele><time>2026-04-24T15:49:17Z</time></trkpt><trkpt lat="45.422582805355184" lon="9.245748280986705"><ele>105.0</ele><time>2026-04-24T15:49:18Z</time></trkpt><trkpt lat="45.42276164210579" lon="9.245725775571026"><ele>105.0</ele><time>2026-04-24T15:49:19Z</time></trkpt><trkpt lat="45.422935231370616" lon="9.245661623959135"><ele>105.0</ele><time>2026-04-24T15:49:20Z</time></trkpt><trkpt lat="45.4231531276881" lon="9.245671868902445"><ele>105.0</ele><time>2026-04-24T15:49:21Z</time></trkpt><trkpt lat="45.42334507599785" lon="9.245640234048016"><ele>105.0</ele><time>2026-04-24T15:49:22Z</time></trkpt><trkpt lat="45.42353784603917" lon="9.245543176478902"><ele>105.0</ele><time>2026-04-24T15:49:23Z</time></trkpt><trkpt lat="45.423738560812716" lon="9.245613719192516"><ele>104.66666666666666</ele><time>2026-04-24T15:49:24Z</time></trkpt><trkpt lat="45.42393469057169" lon="9.245591050216179"><ele>104.33333333333333</ele><time>2026-04-24T15:49:25Z</time></trkpt><trkpt lat="45.42413873275003" lon="9.245567124088288"><ele>104.0</ele><time>2026-04-24T15:49:26Z</time></trkpt><trkpt lat="45.42433947079967" lon="9.245542735552958"><ele>104.0</ele><time>2026-04-24T15:49:27Z</time></trkpt><trkpt lat="45.424531200766026" lon="9.245520988666332"><ele>104.0</ele><time>2026-04-24T15:49:28Z</time></trkpt><trkpt lat="45.424731947105144" lon="9.245503618076727"><ele>104.0</ele><time>2026-04-24T15:49:29Z</time></trkpt><trkpt lat="45.424932174082684" lon="9.24549288767371"><ele>104.0</ele><time>2026-04-24T15:49:30Z</time></trkpt><trkpt lat="45.425116602866964" lon="9.245490053913349"><ele>104.0</ele><time>2026-04-24T15:49:31Z</time></trkpt><trkpt lat="45.42531514454275" lon="9.245490053886185"><ele>104.0</ele><time>2026-04-24T15:49:32Z</time></trkpt><trkpt lat="45.42550949450317" lon="9.245502999011295"><ele>104.0</ele><time>2026-04-24T15:49:33Z</time></trkpt><trkpt lat="45.425725074902125" lon="9.245533240937382"><ele>104.0</ele><time>2026-04-24T15:49:33.999Z</time></trkpt><trkpt lat="45.425948665233015" lon="9.245578850154947"><ele>104.0</ele><time>2026-04-24T15:49:34.999Z</time></trkpt><trkpt lat="45.42616357311892" lon="9.245633247912378"><ele>103.0</ele><time>2026-04-24T15:49:35.999Z</time></trkpt><trkpt lat="45.42637647271201" lon="9.245709203394977"><ele>102.0</ele><time>2026-04-24T15:49:36.999Z</time></trkpt><trkpt lat="45.42657707113237" lon="9.24579177859949"><ele>101.0</ele><time>2026-04-24T15:49:37.999Z</time></trkpt><trkpt lat="45.42676967493401" lon="9.24588217393727"><ele>101.0</ele><time>2026-04-24T15:49:38.999Z</time></trkpt><trkpt lat="45.426969524286854" lon="9.24599863398635"><ele>101.0</ele><time>2026-04-24T15:49:39.999Z</time></trkpt><trkpt lat="45.427158781240585" lon="9.246114351110364"><ele>101.0</ele><time>2026-04-24T15:49:40.999Z</time></trkpt><trkpt lat="45.42737007145327" lon="9.24626226803118"><ele>102.0</ele><time>2026-04-24T15:49:41.999Z</time></trkpt><trkpt lat="45.42754221180284" lon="9.246407057394105"><ele>103.0</ele><time>2026-04-24T15:49:42.999Z</time></trkpt><trkpt lat="45.427733342898186" lon="9.246546144014056"><ele>104.0</ele><time>2026-04-24T15:49:43.999Z</time></trkpt><trkpt lat="45.42792030328029" lon="9.246786879219897"><ele>108.0</ele><time>2026-04-24T15:49:44.999Z</time></trkpt><trkpt lat="45.42813348252734" lon="9.246971449638757"><ele>112.0</ele><time>2026-04-24T15:49:45.999Z</time></trkpt><trkpt lat="45.428317983330885" lon="9.247196062003718"><ele>111.5</ele><time>2026-04-24T15:49:46.999Z</time></trkpt><trkpt lat="45.42849234146259" lon="9.247433422090468"><ele>111.0</ele><time>2026-04-24T15:49:47.999Z</time></trkpt><trkpt lat="45.42867245957162" lon="9.247688119358163"><ele>109.5</ele><time>2026-04-24T15:49:48.999Z</time></trkpt><trkpt lat="45.42883018745364" lon="9.247923872293429"><ele>108.0</ele><time>2026-04-24T15:49:49.999Z</time></trkpt><trkpt lat="45.429027815740156" lon="9.24810196066094"><ele>108.66666666666666</ele><time>2026-04-24T15:49:50.999Z</time></trkpt><trkpt lat="45.42916182619647" lon="9.248332409983224"><ele>109.33333333333333</ele><time>2026-04-24T15:49:51.999Z</time></trkpt><trkpt lat="45.429287392127264" lon="9.248567939978042"><ele>110.0</ele><time>2026-04-24T15:49:52.999Z</time></trkpt><trkpt lat="45.429425944621826" lon="9.248800468944939"><ele>109.33333333333333</ele><time>2026-04-24T15:49:53.999Z</time></trkpt><trkpt lat="45.42952537141901" lon="9.249059969008279"><ele>108.66666666666666</ele><time>2026-04-24T15:49:54.999Z</time></trkpt><trkpt lat="45.42966462242252" lon="9.24928493604814"><ele>108.0</ele><time>2026-04-24T15:49:55.999Z</time></trkpt><trkpt lat="45.42980732481103" lon="9.249518768245443"><ele>107.66666666666666</ele><time>2026-04-24T15:49:56.999Z</time></trkpt><trkpt lat="45.42995509249414" lon="9.249750835697457"><ele>107.33333333333333</ele><time>2026-04-24T15:49:57.999Z</time></trkpt><trkpt lat="45.430106175550996" lon="9.249993111509685"><ele>107.0</ele><time>2026-04-24T15:49:58.999Z</time></trkpt><trkpt lat="45.43024116419238" lon="9.25023004934898"><ele>107.0</ele><time>2026-04-24T15:49:59.999Z</time></trkpt><trkpt lat="45.43038866180578" lon="9.250471076017254"><ele>107.0</ele><time>2026-04-24T15:50:00.999Z</time></trkpt><trkpt lat="45.43053284168273" lon="9.250703559550484"><ele>107.0</ele><time>2026-04-24T15:50:01.999Z</time></trkpt><trkpt lat="45.430672432080854" lon="9.250926650762931"><ele>106.66666666666666</ele><time>2026-04-24T15:50:02.999Z</time></trkpt><trkpt lat="45.430815235687064" lon="9.251153113634349"><ele>106.33333333333334</ele><time>2026-04-24T15:50:03.999Z</time></trkpt><trkpt lat="45.4309625270773" lon="9.251384711474799"><ele>106.0</ele><time>2026-04-24T15:50:04.999Z</time></trkpt><trkpt lat="45.43111552289509" lon="9.251614002830983"><ele>106.0</ele><time>2026-04-24T15:50:05.999Z</time></trkpt><trkpt lat="45.43127127265166" lon="9.251834035413982"><ele>106.0</ele><time>2026-04-24T15:50:06.999Z</time></trkpt><trkpt lat="45.43143014602906" lon="9.252053624095108"><ele>106.0</ele><time>2026-04-24T15:50:07.999Z</time></trkpt><trkpt lat="45.43158961867162" lon="9.252262994576041"><ele>105.33333333333334</ele><time>2026-04-24T15:50:08.999Z</time></trkpt><trkpt lat="45.43174801499773" lon="9.25246273718911"><ele>104.66666666666666</ele><time>2026-04-24T15:50:09.999Z</time></trkpt><trkpt lat="45.43191164255665" lon="9.252662077950024"><ele>104.0</ele><time>2026-04-24T15:50:10.999Z</time></trkpt><trkpt lat="45.432061445633764" lon="9.25286202413755"><ele>103.33333333333333</ele><time>2026-04-24T15:50:11.999Z</time></trkpt><trkpt lat="45.43224256541124" lon="9.253017825543758"><ele>102.66666666666666</ele><time>2026-04-24T15:50:12.999Z</time></trkpt><trkpt lat="45.43240967986046" lon="9.253221279949518"><ele>102.0</ele><time>2026-04-24T15:50:13.999Z</time></trkpt><trkpt lat="45.43258556017606" lon="9.25337142963345"><ele>102.0</ele><time>2026-04-24T15:50:14.999Z</time></trkpt><trkpt lat="45.43277342911778" lon="9.253520689763537"><ele>102.0</ele><time>2026-04-24T15:50:15.999Z</time></trkpt><trkpt lat="45.43293711195054" lon="9.253707884265598"><ele>102.0</ele><time>2026-04-24T15:50:16.999Z</time></trkpt><trkpt lat="45.433105289005745" lon="9.253883893572956"><ele>103.66666666666666</ele><time>2026-04-24T15:50:17.999Z</time></trkpt><trkpt lat="45.43327817875723" lon="9.254057917337706"><ele>105.33333333333333</ele><time>2026-04-24T15:50:18.999Z</time></trkpt><trkpt lat="45.43342520818055" lon="9.254251263780116"><ele>107.0</ele><time>2026-04-24T15:50:19.999Z</time></trkpt><trkpt lat="45.43359590060796" lon="9.254411128841458"><ele>107.0</ele><time>2026-04-24T15:50:20.999Z</time></trkpt><trkpt lat="45.43377472020487" lon="9.254569547190508"><ele>107.0</ele><time>2026-04-24T15:50:21.999Z</time></trkpt><trkpt lat="45.43396721909575" lon="9.254712010783575"><ele>107.0</ele><time>2026-04-24T15:50:22.998Z</time></trkpt><trkpt lat="45.434179779414706" lon="9.25484479684819"><ele>107.0</ele><time>2026-04-24T15:50:23.998Z</time></trkpt><trkpt lat="45.43438409727733" lon="9.25497927462796"><ele>107.0</ele><time>2026-04-24T15:50:24.998Z</time></trkpt><trkpt lat="45.434606231039055" lon="9.255103268546344"><ele>106.5</ele><time>2026-04-24T15:50:25.998Z</time></trkpt><trkpt lat="45.43482029220295" lon="9.25525971430355"><ele>106.0</ele><time>2026-04-24T15:50:26.998Z</time></trkpt><trkpt lat="45.435024869756155" lon="9.255392131196091"><ele>106.0</ele><time>2026-04-24T15:50:27.998Z</time></trkpt><trkpt lat="45.43522587116202" lon="9.255514819127416"><ele>106.0</ele><time>2026-04-24T15:50:28.998Z</time></trkpt><trkpt lat="45.435433226586014" lon="9.255651063024839"><ele>106.0</ele><time>2026-04-24T15:50:29.998Z</time></trkpt><trkpt lat="45.43563820466826" lon="9.255766030740439"><ele>106.66666666666667</ele><time>2026-04-24T15:50:30.998Z</time></trkpt><trkpt lat="45.435849893807756" lon="9.255868976369209"><ele>107.33333333333334</ele><time>2026-04-24T15:50:31.998Z</time></trkpt><trkpt lat="45.43604438936841" lon="9.255980414128341"><ele>108.0</ele><time>2026-04-24T15:50:32.998Z</time></trkpt><trkpt lat="45.436261946114875" lon="9.256046475717039"><ele>107.0</ele><time>2026-04-24T15:50:33.998Z</time></trkpt><trkpt lat="45.43650306629025" lon="9.256115388544758"><ele>106.0</ele><time>2026-04-24T15:50:34.998Z</time></trkpt><trkpt lat="45.436743155380924" lon="9.25620187975277"><ele>106.0</ele><time>2026-04-24T15:50:35.998Z</time></trkpt><trkpt lat="45.43695486205897" lon="9.256277181212367"><ele>106.0</ele><time>2026-04-24T15:50:36.998Z</time></trkpt><trkpt lat="45.43718046385032" lon="9.256347483342104"><ele>106.0</ele><time>2026-04-24T15:50:37.998Z</time></trkpt><trkpt lat="45.437391293566854" lon="9.256425168482986"><ele>105.33333333333334</ele><time>2026-04-24T15:50:38.998Z</time></trkpt><trkpt lat="45.43761093651493" lon="9.256486427033744"><ele>104.66666666666666</ele><time>2026-04-24T15:50:39.998Z</time></trkpt><trkpt lat="45.43781032996675" lon="9.256539091677386"><ele>104.0</ele><time>2026-04-24T15:50:40.998Z</time></trkpt><trkpt lat="45.43804380836258" lon="9.256595915920384"><ele>104.0</ele><time>2026-04-24T15:50:41.998Z</time></trkpt><trkpt lat="45.438268570001675" lon="9.25665407261143"><ele>104.0</ele><time>2026-04-24T15:50:42.998Z</time></trkpt><trkpt lat="45.438478624203924" lon="9.256671208564804"><ele>104.0</ele><time>2026-04-24T15:50:43.998Z</time></trkpt><trkpt lat="45.43870088186434" lon="9.2567192656315"><ele>104.0</ele><time>2026-04-24T15:50:44.998Z</time></trkpt><trkpt lat="45.43892921331981" lon="9.256795167776101"><ele>104.0</ele><time>2026-04-24T15:50:45.998Z</time></trkpt><trkpt lat="45.43914717034153" lon="9.256857839170197"><ele>104.0</ele><time>2026-04-24T15:50:46.998Z</time></trkpt><trkpt lat="45.43936698974758" lon="9.256917908076046"><ele>104.0</ele><time>2026-04-24T15:50:47.998Z</time></trkpt><trkpt lat="45.439579079749585" lon="9.25697984133271"><ele>104.0</ele><time>2026-04-24T15:50:48.998Z</time></trkpt><trkpt lat="45.439793946648656" lon="9.257043534436443"><ele>104.33333333333333</ele><time>2026-04-24T15:50:49.998Z</time></trkpt><trkpt lat="45.44002098477747" lon="9.257104865286543"><ele>104.66666666666666</ele><time>2026-04-24T15:50:50.998Z</time></trkpt><trkpt lat="45.44022943805376" lon="9.257164564047867"><ele>105.0</ele><time>2026-04-24T15:50:51.998Z</time></trkpt><trkpt lat="45.440438998483124" lon="9.25722523104507"><ele>104.66666666666666</ele><time>2026-04-24T15:50:52.998Z</time></trkpt><trkpt lat="45.44064470310702" lon="9.257284781813535"><ele>104.33333333333333</ele><time>2026-04-24T15:50:53.998Z</time></trkpt><trkpt lat="45.44086734843408" lon="9.257348764997008"><ele>104.0</ele><time>2026-04-24T15:50:54.998Z</time></trkpt><trkpt lat="45.441083365545225" lon="9.257409962483923"><ele>102.0</ele><time>2026-04-24T15:50:55.998Z</time></trkpt><trkpt lat="45.441302591376555" lon="9.257469935038381"><ele>100.0</ele><time>2026-04-24T15:50:56.998Z</time></trkpt><trkpt lat="45.441518050755576" lon="9.257531222152002"><ele>98.0</ele><time>2026-04-24T15:50:57.998Z</time></trkpt><trkpt lat="45.441729419830466" lon="9.25759401573552"><ele>98.0</ele><time>2026-04-24T15:50:58.998Z</time></trkpt><trkpt lat="45.44194522008838" lon="9.257654424521888"><ele>98.0</ele><time>2026-04-24T15:50:59.998Z</time></trkpt><trkpt lat="45.44215832590752" lon="9.257713098663176"><ele>98.0</ele><time>2026-04-24T15:51:00.998Z</time></trkpt><trkpt lat="45.442360102249374" lon="9.257731614839052"><ele>100.0</ele><time>2026-04-24T15:51:01.998Z</time></trkpt><trkpt lat="45.442532326357295" lon="9.257773596058184"><ele>102.0</ele><time>2026-04-24T15:51:02.998Z</time></trkpt><trkpt lat="45.44270860480785" lon="9.257822209249966"><ele>104.0</ele><time>2026-04-24T15:51:03.998Z</time></trkpt><trkpt lat="45.44289513636182" lon="9.257876526719352"><ele>101.66666666666666</ele><time>2026-04-24T15:51:04.998Z</time></trkpt><trkpt lat="45.44308632255096" lon="9.257932207843394"><ele>99.33333333333334</ele><time>2026-04-24T15:51:05.998Z</time></trkpt><trkpt lat="45.44326876346817" lon="9.257984858788681"><ele>97.0</ele><time>2026-04-24T15:51:06.998Z</time></trkpt><trkpt lat="45.44343845764103" lon="9.258032438320821"><ele>97.0</ele><time>2026-04-24T15:51:07.998Z</time></trkpt><trkpt lat="45.44361564147495" lon="9.258082836349994"><ele>97.0</ele><time>2026-04-24T15:51:08.998Z</time></trkpt><trkpt lat="45.44379026563145" lon="9.258132999309005"><ele>97.0</ele><time>2026-04-24T15:51:09.998Z</time></trkpt><trkpt lat="45.443952231414876" lon="9.258179525983888"><ele>95.75</ele><time>2026-04-24T15:51:10.998Z</time></trkpt><trkpt lat="45.444104152814084" lon="9.258195949447579"><ele>94.5</ele><time>2026-04-24T15:51:11.998Z</time></trkpt><trkpt lat="45.44423403134669" lon="9.258291894631917"><ele>93.25</ele><time>2026-04-24T15:51:12.998Z</time></trkpt><trkpt lat="45.444358987860426" lon="9.25833185935454"><ele>92.0</ele><time>2026-04-24T15:51:13.997Z</time></trkpt><trkpt lat="45.44448803123496" lon="9.258369709163548"><ele>92.0</ele><time>2026-04-24T15:51:14.997Z</time></trkpt><trkpt lat="45.444607858821854" lon="9.258412113301494"><ele>92.0</ele><time>2026-04-24T15:51:15.997Z</time></trkpt><trkpt lat="45.444731187755124" lon="9.258465536455995"><ele>92.0</ele><time>2026-04-24T15:51:16.997Z</time></trkpt><trkpt lat="45.444851921551994" lon="9.258466844685506"><ele>92.0</ele><time>2026-04-24T15:51:17.997Z</time></trkpt><trkpt lat="45.44498525136969" lon="9.258522596543978"><ele>91.75</ele><time>2026-04-24T15:51:18.997Z</time></trkpt><trkpt lat="45.44512294330899" lon="9.258545883122322"><ele>91.5</ele><time>2026-04-24T15:51:19.997Z</time></trkpt><trkpt lat="45.44527367033436" lon="9.2585862790101"><ele>91.25</ele><time>2026-04-24T15:51:20.997Z</time></trkpt><trkpt lat="45.44540747407705" lon="9.258636996888841"><ele>91.0</ele><time>2026-04-24T15:51:21.997Z</time></trkpt><trkpt lat="45.445543539736605" lon="9.258722916684421"><ele>93.5</ele><time>2026-04-24T15:51:22.997Z</time></trkpt><trkpt lat="45.44567513390635" lon="9.258779007970118"><ele>96.0</ele><time>2026-04-24T15:51:23.997Z</time></trkpt><trkpt lat="45.445812553807514" lon="9.258818325055225"><ele>98.5</ele><time>2026-04-24T15:51:24.997Z</time></trkpt><trkpt lat="45.44597708932055" lon="9.25884500680131"><ele>101.0</ele><time>2026-04-24T15:51:25.997Z</time></trkpt><trkpt lat="45.4461232974468" lon="9.258892573084664"><ele>101.0</ele><time>2026-04-24T15:51:26.997Z</time></trkpt><trkpt lat="45.44626286964505" lon="9.258925814813049"><ele>101.0</ele><time>2026-04-24T15:51:27.997Z</time></trkpt><trkpt lat="45.44638670459905" lon="9.258950496153014"><ele>101.0</ele><time>2026-04-24T15:51:28.997Z</time></trkpt><trkpt lat="45.44649853011171" lon="9.258982297713075"><ele>101.0</ele><time>2026-04-24T15:51:29.997Z</time></trkpt><trkpt lat="45.44660566235421" lon="9.25900932439078"><ele>102.0</ele><time>2026-04-24T15:51:30.997Z</time></trkpt><trkpt lat="45.44669490192687" lon="9.25902761229239"><ele>103.0</ele><time>2026-04-24T15:51:31.997Z</time></trkpt><trkpt lat="45.4467707192717" lon="9.2590362345212"><ele>104.0</ele><time>2026-04-24T15:51:32.997Z</time></trkpt><trkpt lat="45.446865074262895" lon="9.258999400201493"><ele>105.0</ele><time>2026-04-24T15:51:33.997Z</time></trkpt><trkpt lat="45.44697254664774" lon="9.258980662224674"><ele>106.0</ele><time>2026-04-24T15:51:34.997Z</time></trkpt><trkpt lat="45.447080817005585" lon="9.258985349494505"><ele>106.5</ele><time>2026-04-24T15:51:35.997Z</time></trkpt><trkpt lat="45.44719465947818" lon="9.258990697288606"><ele>107.0</ele><time>2026-04-24T15:51:36.997Z</time></trkpt><trkpt lat="45.44732369190941" lon="9.259040096976479"><ele>107.5</ele><time>2026-04-24T15:51:37.997Z</time></trkpt><trkpt lat="45.44746414590928" lon="9.25905339964827"><ele>108.0</ele><time>2026-04-24T15:51:38.997Z</time></trkpt><trkpt lat="45.44759997665186" lon="9.259062639549278"><ele>108.0</ele><time>2026-04-24T15:51:39.997Z</time></trkpt><trkpt lat="45.44772847615456" lon="9.259066261463031"><ele>108.0</ele><time>2026-04-24T15:51:40.998Z</time></trkpt><trkpt lat="45.44786504324617" lon="9.259070396807525"><ele>108.0</ele><time>2026-04-24T15:51:41.998Z</time></trkpt><trkpt lat="45.44800401037168" lon="9.259058051254923"><ele>108.0</ele><time>2026-04-24T15:51:42.998Z</time></trkpt><trkpt lat="45.448145782200235" lon="9.259051170714134"><ele>107.75</ele><time>2026-04-24T15:51:43.998Z</time></trkpt><trkpt lat="45.44827093304657" lon="9.259027130108647"><ele>107.5</ele><time>2026-04-24T15:51:44.998Z</time></trkpt><trkpt lat="45.4484059557812" lon="9.259011100349639"><ele>107.25</ele><time>2026-04-24T15:51:45.998Z</time></trkpt><trkpt lat="45.448540582368544" lon="9.258992653787262"><ele>107.0</ele><time>2026-04-24T15:51:46.998Z</time></trkpt><trkpt lat="45.44866825553964" lon="9.258945174613814"><ele>107.0</ele><time>2026-04-24T15:51:47.998Z</time></trkpt><trkpt lat="45.44878567682113" lon="9.258880002718323"><ele>107.0</ele><time>2026-04-24T15:51:48.998Z</time></trkpt><trkpt lat="45.44891395790124" lon="9.258873844146567"><ele>107.0</ele><time>2026-04-24T15:51:49.998Z</time></trkpt><trkpt lat="45.44904078461303" lon="9.258818199948589"><ele>107.0</ele><time>2026-04-24T15:51:50.998Z</time></trkpt><trkpt lat="45.44916368329674" lon="9.258787985455232"><ele>107.5</ele><time>2026-04-24T15:51:51.998Z</time></trkpt><trkpt lat="45.44929918417326" lon="9.258738489268024"><ele>108.0</ele><time>2026-04-24T15:51:52.998Z</time></trkpt><trkpt lat="45.44942723455767" lon="9.25868150753268"><ele>108.5</ele><time>2026-04-24T15:51:53.998Z</time></trkpt><trkpt lat="45.44956052522348" lon="9.258617193112439"><ele>109.0</ele><time>2026-04-24T15:51:54.998Z</time></trkpt><trkpt lat="45.449691604394225" lon="9.25856469128616"><ele>109.75</ele><time>2026-04-24T15:51:55.998Z</time></trkpt><trkpt lat="45.44981857516623" lon="9.258489636847617"><ele>110.5</ele><time>2026-04-24T15:51:56.998Z</time></trkpt><trkpt lat="45.449943255131735" lon="9.258411464606205"><ele>111.25</ele><time>2026-04-24T15:51:57.998Z</time></trkpt><trkpt lat="45.45007122350762" lon="9.258352288246973"><ele>112.0</ele><time>2026-04-24T15:51:58.998Z</time></trkpt><trkpt lat="45.450195650622824" lon="9.258283850574514"><ele>112.0</ele><time>2026-04-24T15:51:59.998Z</time></trkpt><trkpt lat="45.45035692263667" lon="9.258230882376038"><ele>112.0</ele><time>2026-04-24T15:52:00.998Z</time></trkpt><trkpt lat="45.450500479908754" lon="9.258180530409138"><ele>112.0</ele><time>2026-04-24T15:52:01.998Z</time></trkpt><trkpt lat="45.45063551749474" lon="9.258110240714371"><ele>112.0</ele><time>2026-04-24T15:52:02.998Z</time></trkpt><trkpt lat="45.45075758767071" lon="9.25802047497826"><ele>112.0</ele><time>2026-04-24T15:52:03.997Z</time></trkpt><trkpt lat="45.450864914839606" lon="9.257913260729847"><ele>112.0</ele><time>2026-04-24T15:52:04.997Z</time></trkpt><trkpt lat="45.450988961252875" lon="9.257813859246356"><ele>112.0</ele><time>2026-04-24T15:52:05.997Z</time></trkpt><trkpt lat="45.45110604870276" lon="9.257716136673144"><ele>112.0</ele><time>2026-04-24T15:52:06.997Z</time></trkpt><trkpt lat="45.45123652778884" lon="9.25760629144205"><ele>112.0</ele><time>2026-04-24T15:52:07.997Z</time></trkpt><trkpt lat="45.45136602490077" lon="9.25749714967562"><ele>112.0</ele><time>2026-04-24T15:52:08.997Z</time></trkpt><trkpt lat="45.451487084509935" lon="9.257395072765144"><ele>112.0</ele><time>2026-04-24T15:52:09.997Z</time></trkpt><trkpt lat="45.45161094448759" lon="9.257290634825546"><ele>111.75</ele><time>2026-04-24T15:52:10.997Z</time></trkpt><trkpt lat="45.45173090720245" lon="9.257188492917491"><ele>111.5</ele><time>2026-04-24T15:52:11.997Z</time></trkpt><trkpt lat="45.451856837529284" lon="9.257081329579286"><ele>111.25</ele><time>2026-04-24T15:52:12.997Z</time></trkpt><trkpt lat="45.45197873341761" lon="9.256980795689683"><ele>111.0</ele><time>2026-04-24T15:52:13.997Z</time></trkpt><trkpt lat="45.452100568410266" lon="9.25688146134827"><ele>111.75</ele><time>2026-04-24T15:52:14.997Z</time></trkpt><trkpt lat="45.45222118286523" lon="9.25678313648442"><ele>112.5</ele><time>2026-04-24T15:52:15.997Z</time></trkpt><trkpt lat="45.452329400427566" lon="9.256689177606397"><ele>113.25</ele><time>2026-04-24T15:52:16.997Z</time></trkpt><trkpt lat="45.452398679435944" lon="9.25660930433785"><ele>114.0</ele><time>2026-04-24T15:52:17.997Z</time></trkpt><trkpt lat="45.45247932425609" lon="9.256514421224214"><ele>113.2</ele><time>2026-04-24T15:52:18.997Z</time></trkpt><trkpt lat="45.45255641637253" lon="9.256420100248596"><ele>112.4</ele><time>2026-04-24T15:52:19.997Z</time></trkpt><trkpt lat="45.45262854656779" lon="9.25635217658074"><ele>111.6</ele><time>2026-04-24T15:52:20.997Z</time></trkpt><trkpt lat="45.45270396858303" lon="9.256265942706271"><ele>110.8</ele><time>2026-04-24T15:52:21.997Z</time></trkpt><trkpt lat="45.45278415346221" lon="9.256200405832864"><ele>110.0</ele><time>2026-04-24T15:52:22.997Z</time></trkpt><trkpt lat="45.452859410057435" lon="9.256125305250409"><ele>110.0</ele><time>2026-04-24T15:52:23.997Z</time></trkpt><trkpt lat="45.45294791230615" lon="9.256048451652086"><ele>110.0</ele><time>2026-04-24T15:52:24.997Z</time></trkpt><trkpt lat="45.453074386617395" lon="9.255955442360488"><ele>110.0</ele><time>2026-04-24T15:52:25.997Z</time></trkpt><trkpt lat="45.4531761961166" lon="9.255877038603822"><ele>110.0</ele><time>2026-04-24T15:52:26.997Z</time></trkpt><trkpt lat="45.45328328347868" lon="9.255788886016852"><ele>110.0</ele><time>2026-04-24T15:52:27.997Z</time></trkpt><trkpt lat="45.453379010374796" lon="9.255709856535047"><ele>110.0</ele><time>2026-04-24T15:52:28.997Z</time></trkpt><trkpt lat="45.45347235794435" lon="9.255635235142597"><ele>110.0</ele><time>2026-04-24T15:52:29.997Z</time></trkpt><trkpt lat="45.45354263467139" lon="9.255490441336304"><ele>110.0</ele><time>2026-04-24T15:52:30.997Z</time></trkpt><trkpt lat="45.453635350388915" lon="9.255399169562413"><ele>110.0</ele><time>2026-04-24T15:52:31.997Z</time></trkpt><trkpt lat="45.45375952222005" lon="9.255283195788605"><ele>110.0</ele><time>2026-04-24T15:52:32.997Z</time></trkpt><trkpt lat="45.45389017221056" lon="9.25522966929268"><ele>110.0</ele><time>2026-04-24T15:52:33.997Z</time></trkpt><trkpt lat="45.45401371960909" lon="9.255115513420588"><ele>110.0</ele><time>2026-04-24T15:52:34.997Z</time></trkpt><trkpt lat="45.45414548435511" lon="9.25507978598044"><ele>110.25</ele><time>2026-04-24T15:52:35.997Z</time></trkpt><trkpt lat="45.45426051034559" lon="9.255012060739391"><ele>110.5</ele><time>2026-04-24T15:52:36.997Z</time></trkpt><trkpt lat="45.45436997271716" lon="9.254970818303415"><ele>110.75</ele><time>2026-04-24T15:52:37.997Z</time></trkpt><trkpt lat="45.45449650539206" lon="9.254862336248811"><ele>111.0</ele><time>2026-04-24T15:52:38.997Z</time></trkpt><trkpt lat="45.454618685347896" lon="9.254761361512765"><ele>112.0</ele><time>2026-04-24T15:52:39.997Z</time></trkpt><trkpt lat="45.45474979487583" lon="9.254681298880548"><ele>113.0</ele><time>2026-04-24T15:52:40.997Z</time></trkpt><trkpt lat="45.45487346645214" lon="9.254573245216319"><ele>114.0</ele><time>2026-04-24T15:52:41.997Z</time></trkpt><trkpt lat="45.454993832446696" lon="9.254457710985054"><ele>115.0</ele><time>2026-04-24T15:52:42.997Z</time></trkpt><trkpt lat="45.45510869063342" lon="9.254366969295749"><ele>115.0</ele><time>2026-04-24T15:52:43.997Z</time></trkpt><trkpt lat="45.455234653468" lon="9.254261511700205"><ele>115.0</ele><time>2026-04-24T15:52:44.997Z</time></trkpt><trkpt lat="45.45537030826514" lon="9.254136159825885"><ele>115.0</ele><time>2026-04-24T15:52:45.997Z</time></trkpt><trkpt lat="45.455511760422354" lon="9.254028167199424"><ele>113.66666666666667</ele><time>2026-04-24T15:52:46.997Z</time></trkpt><trkpt lat="45.455648586379965" lon="9.253913542935598"><ele>112.33333333333334</ele><time>2026-04-24T15:52:47.997Z</time></trkpt><trkpt lat="45.455788685397685" lon="9.25379664688169"><ele>111.0</ele><time>2026-04-24T15:52:48.997Z</time></trkpt><trkpt lat="45.45593058059229" lon="9.253680776084417"><ele>111.0</ele><time>2026-04-24T15:52:49.997Z</time></trkpt><trkpt lat="45.45608496631081" lon="9.253556927362943"><ele>111.0</ele><time>2026-04-24T15:52:50.997Z</time></trkpt><trkpt lat="45.45621069564609" lon="9.253439419970556"><ele>111.0</ele><time>2026-04-24T15:52:51.997Z</time></trkpt><trkpt lat="45.45634428124496" lon="9.253281027773117"><ele>111.33333333333334</ele><time>2026-04-24T15:52:52.997Z</time></trkpt><trkpt lat="45.45649901093079" lon="9.253131613606053"><ele>111.66666666666667</ele><time>2026-04-24T15:52:53.997Z</time></trkpt><trkpt lat="45.45666832183717" lon="9.252985706608419"><ele>112.0</ele><time>2026-04-24T15:52:54.996Z</time></trkpt><trkpt lat="45.45683618453717" lon="9.252863129113743"><ele>112.0</ele><time>2026-04-24T15:52:55.996Z</time></trkpt><trkpt lat="45.457001767746554" lon="9.252724256002168"><ele>112.0</ele><time>2026-04-24T15:52:56.996Z</time></trkpt><trkpt lat="45.45718207706717" lon="9.252650065254986"><ele>112.0</ele><time>2026-04-24T15:52:57.996Z</time></trkpt><trkpt lat="45.45734455719666" lon="9.252520285372828"><ele>112.33333333333334</ele><time>2026-04-24T15:52:58.996Z</time></trkpt><trkpt lat="45.45751061457598" lon="9.252396264581547"><ele>112.66666666666666</ele><time>2026-04-24T15:52:59.996Z</time></trkpt><trkpt lat="45.457666667370084" lon="9.25225471387788"><ele>113.0</ele><time>2026-04-24T15:53:00.996Z</time></trkpt><trkpt lat="45.45784866059356" lon="9.25215367542041"><ele>113.33333333333333</ele><time>2026-04-24T15:53:01.996Z</time></trkpt><trkpt lat="45.45802597124267" lon="9.252040248199895"><ele>113.66666666666666</ele><time>2026-04-24T15:53:02.996Z</time></trkpt><trkpt lat="45.45818464954521" lon="9.25189909381762"><ele>114.0</ele><time>2026-04-24T15:53:03.996Z</time></trkpt><trkpt lat="45.458345850789726" lon="9.251851097758264"><ele>114.0</ele><time>2026-04-24T15:53:04.996Z</time></trkpt><trkpt lat="45.4585044695682" lon="9.251782540240347"><ele>114.0</ele><time>2026-04-24T15:53:05.996Z</time></trkpt><trkpt lat="45.458679129158504" lon="9.251712334732137"><ele>114.0</ele><time>2026-04-24T15:53:06.996Z</time></trkpt><trkpt lat="45.45885306784478" lon="9.251647133758627"><ele>113.66666666666666</ele><time>2026-04-24T15:53:07.996Z</time></trkpt><trkpt lat="45.45901832550539" lon="9.251591612991287"><ele>113.33333333333333</ele><time>2026-04-24T15:53:08.996Z</time></trkpt><trkpt lat="45.459147662715175" lon="9.25155220730441"><ele>113.0</ele><time>2026-04-24T15:53:09.996Z</time></trkpt><trkpt lat="45.459303324271545" lon="9.251507987148475"><ele>113.0</ele><time>2026-04-24T15:53:10.996Z</time></trkpt><trkpt lat="45.45944914262467" lon="9.251468621954222"><ele>113.0</ele><time>2026-04-24T15:53:11.996Z</time></trkpt><trkpt lat="45.45958797372953" lon="9.251432858046947"><ele>113.0</ele><time>2026-04-24T15:53:12.996Z</time></trkpt><trkpt lat="45.45971484019565" lon="9.251404299137914"><ele>113.0</ele><time>2026-04-24T15:53:13.996Z</time></trkpt><trkpt lat="45.459902573591734" lon="9.251459970110714"><ele>113.0</ele><time>2026-04-24T15:53:14.996Z</time></trkpt><trkpt lat="45.46003224591487" lon="9.251454236856635"><ele>113.0</ele><time>2026-04-24T15:53:15.996Z</time></trkpt><trkpt lat="45.46014740696121" lon="9.251431281002764"><ele>113.0</ele><time>2026-04-24T15:53:16.996Z</time></trkpt><trkpt lat="45.460265015831126" lon="9.25140945319548"><ele>113.0</ele><time>2026-04-24T15:53:17.996Z</time></trkpt><trkpt lat="45.460407856451106" lon="9.251396011632142"><ele>113.80000000000001</ele><time>2026-04-24T15:53:18.996Z</time></trkpt><trkpt lat="45.4605154480376" lon="9.251392028622506"><ele>114.60000000000001</ele><time>2026-04-24T15:53:19.996Z</time></trkpt><trkpt lat="45.46060592613172" lon="9.251388171255973"><ele>115.39999999999999</ele><time>2026-04-24T15:53:20.996Z</time></trkpt><trkpt lat="45.460726759958064" lon="9.251389587896345"><ele>116.19999999999999</ele><time>2026-04-24T15:53:21.996Z</time></trkpt><trkpt lat="45.46081363255154" lon="9.251365573658461"><ele>117.0</ele><time>2026-04-24T15:53:22.996Z</time></trkpt><trkpt lat="45.460902888245776" lon="9.251367130956407"><ele>117.0</ele><time>2026-04-24T15:53:23.996Z</time></trkpt><trkpt lat="45.46099372856084" lon="9.251370328276765"><ele>117.0</ele><time>2026-04-24T15:53:24.996Z</time></trkpt><trkpt lat="45.46109020442986" lon="9.251369031536802"><ele>117.0</ele><time>2026-04-24T15:53:25.996Z</time></trkpt><trkpt lat="45.4611698788418" lon="9.251363778628157"><ele>117.0</ele><time>2026-04-24T15:53:26.996Z</time></trkpt><trkpt lat="45.461252345068594" lon="9.251378145707717"><ele>117.0</ele><time>2026-04-24T15:53:27.996Z</time></trkpt><trkpt lat="45.461320138355696" lon="9.251373051828645"><ele>117.0</ele><time>2026-04-24T15:53:28.996Z</time></trkpt><trkpt lat="45.4614132652166" lon="9.251357482238307"><ele>116.8</ele><time>2026-04-24T15:53:30.996Z</time></trkpt><trkpt lat="45.46149423449195" lon="9.251372723807005"><ele>116.6</ele><time>2026-04-24T15:53:31.996Z</time></trkpt><trkpt lat="45.46156490621815" lon="9.251381419315967"><ele>116.39999999999999</ele><time>2026-04-24T15:53:32.996Z</time></trkpt><trkpt lat="45.46165613902835" lon="9.251397242653152"><ele>116.19999999999999</ele><time>2026-04-24T15:53:34.996Z</time></trkpt><trkpt lat="45.46177085415169" lon="9.251416158928878"><ele>116.0</ele><time>2026-04-24T15:53:36.996Z</time></trkpt><trkpt lat="45.4619175998512" lon="9.251430311986892"><ele>116.0</ele><time>2026-04-24T15:53:38.996Z</time></trkpt><trkpt lat="45.461998743204795" lon="9.251436450460877"><ele>116.0</ele><time>2026-04-24T15:53:39.996Z</time></trkpt><trkpt lat="45.4620943019952" lon="9.251452451550303"><ele>116.0</ele><time>2026-04-24T15:53:40.996Z</time></trkpt><trkpt lat="45.46219787018922" lon="9.251464254519336"><ele>116.0</ele><time>2026-04-24T15:53:41.996Z</time></trkpt><trkpt lat="45.46234860521208" lon="9.251488439098319"><ele>116.0</ele><time>2026-04-24T15:53:42.996Z</time></trkpt><trkpt lat="45.46249706611221" lon="9.25148489575473"><ele>115.0</ele><time>2026-04-24T15:53:43.996Z</time></trkpt><trkpt lat="45.46262390172578" lon="9.251492041914858"><ele>114.0</ele><time>2026-04-24T15:53:44.996Z</time></trkpt><trkpt lat="45.46275064492128" lon="9.251520932830688"><ele>113.0</ele><time>2026-04-24T15:53:45.995Z</time></trkpt><trkpt lat="45.46281836041717" lon="9.2515686357377"><ele>112.0</ele><time>2026-04-24T15:53:46.995Z</time></trkpt><trkpt lat="45.46289726488388" lon="9.251615374813802"><ele>111.0</ele><time>2026-04-24T15:53:47.995Z</time></trkpt><trkpt lat="45.46300556010754" lon="9.251620837181509"><ele>110.25</ele><time>2026-04-24T15:53:48.995Z</time></trkpt><trkpt lat="45.46311527549478" lon="9.251658389658301"><ele>109.5</ele><time>2026-04-24T15:53:49.995Z</time></trkpt><trkpt lat="45.46323735885125" lon="9.251657539522274"><ele>108.75</ele><time>2026-04-24T15:53:50.995Z</time></trkpt><trkpt lat="45.46334660151576" lon="9.251693514150038"><ele>108.0</ele><time>2026-04-24T15:53:51.995Z</time></trkpt><trkpt lat="45.46346653762943" lon="9.251726500668793"><ele>108.0</ele><time>2026-04-24T15:53:52.995Z</time></trkpt><trkpt lat="45.46357593810555" lon="9.25182185947039"><ele>108.0</ele><time>2026-04-24T15:53:53.995Z</time></trkpt><trkpt lat="45.46369632156554" lon="9.251850722501167"><ele>108.0</ele><time>2026-04-24T15:53:54.995Z</time></trkpt><trkpt lat="45.46382862663542" lon="9.25189143784124"><ele>108.0</ele><time>2026-04-24T15:53:55.995Z</time></trkpt><trkpt lat="45.46396517275006" lon="9.251926457085549"><ele>108.25</ele><time>2026-04-24T15:53:56.995Z</time></trkpt><trkpt lat="45.464083616700705" lon="9.251968472050084"><ele>108.5</ele><time>2026-04-24T15:53:57.995Z</time></trkpt><trkpt lat="45.46419512031235" lon="9.252000526525817"><ele>108.75</ele><time>2026-04-24T15:53:58.995Z</time></trkpt><trkpt lat="45.464312059824486" lon="9.25203775827797"><ele>109.0</ele><time>2026-04-24T15:53:59.995Z</time></trkpt><trkpt lat="45.46442715266582" lon="9.252074566908327"><ele>109.0</ele><time>2026-04-24T15:54:00.995Z</time></trkpt><trkpt lat="45.464545721736954" lon="9.252107616370202"><ele>109.0</ele><time>2026-04-24T15:54:01.995Z</time></trkpt><trkpt lat="45.46464382491161" lon="9.252129993310435"><ele>109.0</ele><time>2026-04-24T15:54:02.995Z</time></trkpt><trkpt lat="45.46474774487678" lon="9.252144467200297"><ele>109.0</ele><time>2026-04-24T15:54:03.995Z</time></trkpt><trkpt lat="45.46486510776553" lon="9.252176409835018"><ele>109.0</ele><time>2026-04-24T15:54:04.995Z</time></trkpt><trkpt lat="45.46496608604324" lon="9.252181243072165"><ele>110.0</ele><time>2026-04-24T15:54:05.995Z</time></trkpt><trkpt lat="45.465086828482676" lon="9.252203964473518"><ele>111.0</ele><time>2026-04-24T15:54:06.995Z</time></trkpt><trkpt lat="45.4652063436505" lon="9.252224863409676"><ele>112.0</ele><time>2026-04-24T15:54:07.995Z</time></trkpt><trkpt lat="45.46531916308182" lon="9.252246637976619"><ele>113.0</ele><time>2026-04-24T15:54:08.995Z</time></trkpt><trkpt lat="45.4654319590818" lon="9.25225095187923"><ele>113.16666666666666</ele><time>2026-04-24T15:54:09.995Z</time></trkpt><trkpt lat="45.465536193012525" lon="9.252269556943437"><ele>113.33333333333333</ele><time>2026-04-24T15:54:10.995Z</time></trkpt><trkpt lat="45.46565402997133" lon="9.252271157191187"><ele>113.5</ele><time>2026-04-24T15:54:11.995Z</time></trkpt><trkpt lat="45.46573261828202" lon="9.252302354464964"><ele>113.66666666666666</ele><time>2026-04-24T15:54:12.995Z</time></trkpt><trkpt lat="45.465797503631414" lon="9.252294802490608"><ele>113.83333333333333</ele><time>2026-04-24T15:54:13.995Z</time></trkpt><trkpt lat="45.46586345707327" lon="9.25229207045242"><ele>114.0</ele><time>2026-04-24T15:54:14.995Z</time></trkpt><trkpt lat="45.46592750497952" lon="9.252284576823566"><ele>114.0</ele><time>2026-04-24T15:54:15.995Z</time></trkpt><trkpt lat="45.46609378668406" lon="9.252368760432626"><ele>114.0</ele><time>2026-04-24T15:54:20.995Z</time></trkpt><trkpt lat="45.46616948011343" lon="9.252385671649876"><ele>114.0</ele><time>2026-04-24T15:54:21.995Z</time></trkpt><trkpt lat="45.466246540788106" lon="9.252381690849571"><ele>114.0</ele><time>2026-04-24T15:54:22.995Z</time></trkpt><trkpt lat="45.46633706153918" lon="9.2523515429671"><ele>114.0</ele><time>2026-04-24T15:54:23.995Z</time></trkpt><trkpt lat="45.46643807387263" lon="9.252299357709946"><ele>113.6</ele><time>2026-04-24T15:54:24.995Z</time></trkpt><trkpt lat="45.46655029490286" lon="9.252307000893955"><ele>113.2</ele><time>2026-04-24T15:54:25.995Z</time></trkpt><trkpt lat="45.46664953943959" lon="9.252294729663582"><ele>112.79999999999998</ele><time>2026-04-24T15:54:26.995Z</time></trkpt><trkpt lat="45.46675357844598" lon="9.252301119411568"><ele>112.39999999999999</ele><time>2026-04-24T15:54:27.995Z</time></trkpt><trkpt lat="45.46686288599327" lon="9.252346798692242"><ele>112.0</ele><time>2026-04-24T15:54:28.995Z</time></trkpt><trkpt lat="45.46697264853244" lon="9.25235659350625"><ele>112.0</ele><time>2026-04-24T15:54:29.995Z</time></trkpt><trkpt lat="45.46707068528019" lon="9.252354504639273"><ele>111.99999999999999</ele><time>2026-04-24T15:54:30.995Z</time></trkpt><trkpt lat="45.46718143543792" lon="9.2523524448999"><ele>111.99999999999999</ele><time>2026-04-24T15:54:31.995Z</time></trkpt><trkpt lat="45.46729467643236" lon="9.252352377277791"><ele>112.0</ele><time>2026-04-24T15:54:32.995Z</time></trkpt><trkpt lat="45.46740630783626" lon="9.252352790728654"><ele>112.0</ele><time>2026-04-24T15:54:33.995Z</time></trkpt><trkpt lat="45.46753021488359" lon="9.25235324964342"><ele>112.0</ele><time>2026-04-24T15:54:34.995Z</time></trkpt><trkpt lat="45.467654566205525" lon="9.252354273119282"><ele>111.99999999999999</ele><time>2026-04-24T15:54:35.995Z</time></trkpt><trkpt lat="45.46775473894957" lon="9.25235527198566"><ele>111.99999999999999</ele><time>2026-04-24T15:54:36.994Z</time></trkpt><trkpt lat="45.467865241517046" lon="9.252356060999517"><ele>112.0</ele><time>2026-04-24T15:54:37.994Z</time></trkpt><trkpt lat="45.46791571070186" lon="9.252275632179835"><ele>112.0</ele><time>2026-04-24T15:54:38.994Z</time></trkpt><trkpt lat="45.468011640324654" lon="9.252260292135976"><ele>112.50000000000001</ele><time>2026-04-24T15:54:39.994Z</time></trkpt><trkpt lat="45.46807459232723" lon="9.252247851946931"><ele>113.0</ele><time>2026-04-24T15:54:40.994Z</time></trkpt><trkpt lat="45.4681648299622" lon="9.252240217858914"><ele>113.5</ele><time>2026-04-24T15:54:41.994Z</time></trkpt><trkpt lat="45.468232620687665" lon="9.25222958085738"><ele>114.0</ele><time>2026-04-24T15:54:42.994Z</time></trkpt><trkpt lat="45.46833190020077" lon="9.252234133762942"><ele>114.50000000000001</ele><time>2026-04-24T15:54:43.994Z</time></trkpt><trkpt lat="45.46841116146091" lon="9.252230065830318"><ele>115.0</ele><time>2026-04-24T15:54:44.994Z</time></trkpt><trkpt lat="45.46853272400918" lon="9.252214041951282"><ele>115.0</ele><time>2026-04-24T15:54:46.994Z</time></trkpt><trkpt lat="45.46865693298564" lon="9.252220163035515"><ele>115.0</ele><time>2026-04-24T15:54:48.994Z</time></trkpt><trkpt lat="45.468748614759434" lon="9.252216974594123"><ele>115.0</ele><time>2026-04-24T15:54:49.994Z</time></trkpt><trkpt lat="45.46888366957094" lon="9.252216995316004"><ele>115.0</ele><time>2026-04-24T15:54:50.994Z</time></trkpt><trkpt lat="45.46901487258227" lon="9.252179613532153"><ele>114.25</ele><time>2026-04-24T15:54:51.994Z</time></trkpt><trkpt lat="45.46913400567414" lon="9.252191631027106"><ele>113.5</ele><time>2026-04-24T15:54:52.994Z</time></trkpt><trkpt lat="45.46925520845486" lon="9.252208904164748"><ele>112.75</ele><time>2026-04-24T15:54:53.994Z</time></trkpt><trkpt lat="45.46937296942131" lon="9.252212826061475"><ele>112.0</ele><time>2026-04-24T15:54:54.994Z</time></trkpt><trkpt lat="45.46948762328325" lon="9.252199763597337"><ele>112.0</ele><time>2026-04-24T15:54:55.994Z</time></trkpt><trkpt lat="45.4696078339604" lon="9.252203686617689"><ele>112.0</ele><time>2026-04-24T15:54:56.994Z</time></trkpt><trkpt lat="45.4697310421846" lon="9.252211246155628"><ele>112.0</ele><time>2026-04-24T15:54:57.994Z</time></trkpt><trkpt lat="45.46986631718474" lon="9.252215163041027"><ele>112.0</ele><time>2026-04-24T15:54:58.994Z</time></trkpt><trkpt lat="45.47000860356784" lon="9.252243768063702"><ele>112.66666666666667</ele><time>2026-04-24T15:54:59.994Z</time></trkpt><trkpt lat="45.47016550948755" lon="9.252284287015192"><ele>113.33333333333334</ele><time>2026-04-24T15:55:00.994Z</time></trkpt><trkpt lat="45.47033096441604" lon="9.252304516885772"><ele>114.0</ele><time>2026-04-24T15:55:01.994Z</time></trkpt><trkpt lat="45.470504833795545" lon="9.252342697572814"><ele>114.66666666666666</ele><time>2026-04-24T15:55:02.994Z</time></trkpt><trkpt lat="45.470700226854746" lon="9.252338503834293"><ele>115.33333333333333</ele><time>2026-04-24T15:55:03.994Z</time></trkpt><trkpt lat="45.47088653843831" lon="9.252359915454855"><ele>116.0</ele><time>2026-04-24T15:55:04.994Z</time></trkpt><trkpt lat="45.47108108825655" lon="9.252370043562264"><ele>116.0</ele><time>2026-04-24T15:55:05.994Z</time></trkpt><trkpt lat="45.47124671500042" lon="9.252397968033623"><ele>116.0</ele><time>2026-04-24T15:55:06.994Z</time></trkpt><trkpt lat="45.47143034274627" lon="9.252407664721865"><ele>116.0</ele><time>2026-04-24T15:55:07.994Z</time></trkpt><trkpt lat="45.47159438042425" lon="9.2524635787584"><ele>116.33333333333333</ele><time>2026-04-24T15:55:08.994Z</time></trkpt><trkpt lat="45.47178963261852" lon="9.252491395718284"><ele>116.66666666666666</ele><time>2026-04-24T15:55:09.994Z</time></trkpt><trkpt lat="45.47197657580683" lon="9.252517396392616"><ele>117.0</ele><time>2026-04-24T15:55:10.994Z</time></trkpt><trkpt lat="45.472140003663334" lon="9.252566493814788"><ele>118.33333333333334</ele><time>2026-04-24T15:55:11.994Z</time></trkpt><trkpt lat="45.47232099894932" lon="9.252615040043393"><ele>119.66666666666667</ele><time>2026-04-24T15:55:12.994Z</time></trkpt><trkpt lat="45.47250912691343" lon="9.252695613303127"><ele>121.0</ele><time>2026-04-24T15:55:13.994Z</time></trkpt><trkpt lat="45.472685345381805" lon="9.252687657358138"><ele>121.0</ele><time>2026-04-24T15:55:14.994Z</time></trkpt><trkpt lat="45.47284654484902" lon="9.252731111524456"><ele>121.0</ele><time>2026-04-24T15:55:15.994Z</time></trkpt><trkpt lat="45.47300759008711" lon="9.25278172895995"><ele>121.0</ele><time>2026-04-24T15:55:16.994Z</time></trkpt><trkpt lat="45.47317592399029" lon="9.25283350597087"><ele>120.33333333333334</ele><time>2026-04-24T15:55:17.994Z</time></trkpt><trkpt lat="45.47336584839784" lon="9.252937445714801"><ele>119.66666666666666</ele><time>2026-04-24T15:55:18.994Z</time></trkpt><trkpt lat="45.47353439499371" lon="9.25301740295854"><ele>119.0</ele><time>2026-04-24T15:55:19.994Z</time></trkpt><trkpt lat="45.4737079220054" lon="9.253085471901176"><ele>119.33333333333333</ele><time>2026-04-24T15:55:20.994Z</time></trkpt><trkpt lat="45.473882514691596" lon="9.253141490354944"><ele>119.66666666666666</ele><time>2026-04-24T15:55:21.994Z</time></trkpt><trkpt lat="45.474060379374016" lon="9.253188713822773"><ele>120.0</ele><time>2026-04-24T15:55:22.994Z</time></trkpt><trkpt lat="45.47423603694106" lon="9.253247669923121"><ele>120.0</ele><time>2026-04-24T15:55:23.994Z</time></trkpt><trkpt lat="45.474393133216935" lon="9.25329991125863"><ele>120.0</ele><time>2026-04-24T15:55:24.994Z</time></trkpt><trkpt lat="45.47454005375245" lon="9.253344351796587"><ele>120.0</ele><time>2026-04-24T15:55:25.994Z</time></trkpt><trkpt lat="45.47468683902835" lon="9.253386696143329"><ele>120.0</ele><time>2026-04-24T15:55:26.993Z</time></trkpt><trkpt lat="45.4748243149132" lon="9.253444065695914"><ele>120.0</ele><time>2026-04-24T15:55:27.993Z</time></trkpt><trkpt lat="45.47497264677778" lon="9.253480932798668"><ele>120.0</ele><time>2026-04-24T15:55:28.993Z</time></trkpt><trkpt lat="45.47512174768531" lon="9.253542840390022"><ele>120.0</ele><time>2026-04-24T15:55:29.993Z</time></trkpt><trkpt lat="45.475273844284594" lon="9.253615728855802"><ele>120.0</ele><time>2026-04-24T15:55:30.993Z</time></trkpt><trkpt lat="45.47541956523639" lon="9.253683225035058"><ele>120.0</ele><time>2026-04-24T15:55:31.993Z</time></trkpt><trkpt lat="45.47558204784848" lon="9.253715512334244"><ele>120.0</ele><time>2026-04-24T15:55:32.993Z</time></trkpt><trkpt lat="45.47573506902284" lon="9.253739136890854"><ele>119.0</ele><time>2026-04-24T15:55:33.993Z</time></trkpt><trkpt lat="45.47589172386109" lon="9.253756705584951"><ele>118.0</ele><time>2026-04-24T15:55:34.993Z</time></trkpt><trkpt lat="45.47605109031887" lon="9.253787353218037"><ele>117.0</ele><time>2026-04-24T15:55:35.993Z</time></trkpt><trkpt lat="45.4762245872132" lon="9.253807484837818"><ele>117.0</ele><time>2026-04-24T15:55:36.993Z</time></trkpt><trkpt lat="45.476374476801624" lon="9.253831749776442"><ele>117.0</ele><time>2026-04-24T15:55:37.993Z</time></trkpt><trkpt lat="45.47653860023375" lon="9.253815880067085"><ele>117.0</ele><time>2026-04-24T15:55:38.993Z</time></trkpt><trkpt lat="45.47670516079506" lon="9.253825422903178"><ele>117.0</ele><time>2026-04-24T15:55:39.993Z</time></trkpt><trkpt lat="45.476886297596685" lon="9.253780042974652"><ele>117.0</ele><time>2026-04-24T15:55:40.993Z</time></trkpt><trkpt lat="45.477070834099145" lon="9.25376953216744"><ele>117.0</ele><time>2026-04-24T15:55:41.993Z</time></trkpt><trkpt lat="45.477240634101264" lon="9.253705812947823"><ele>116.0</ele><time>2026-04-24T15:55:42.993Z</time></trkpt><trkpt lat="45.47742963701864" lon="9.253685419916572"><ele>115.0</ele><time>2026-04-24T15:55:43.993Z</time></trkpt><trkpt lat="45.477609698262576" lon="9.253661624722417"><ele>114.0</ele><time>2026-04-24T15:55:44.993Z</time></trkpt><trkpt lat="45.47776895130412" lon="9.253606761452122"><ele>114.0</ele><time>2026-04-24T15:55:45.993Z</time></trkpt><trkpt lat="45.47790740632354" lon="9.25355048623351"><ele>114.0</ele><time>2026-04-24T15:55:46.993Z</time></trkpt><trkpt lat="45.478057013089554" lon="9.25348978048025"><ele>114.0</ele><time>2026-04-24T15:55:47.993Z</time></trkpt><trkpt lat="45.47817509877701" lon="9.25344128183826"><ele>114.0</ele><time>2026-04-24T15:55:48.993Z</time></trkpt><trkpt lat="45.47828031935189" lon="9.25339531675382"><ele>114.25</ele><time>2026-04-24T15:55:49.993Z</time></trkpt><trkpt lat="45.4784031044122" lon="9.25334047632223"><ele>114.5</ele><time>2026-04-24T15:55:50.993Z</time></trkpt><trkpt lat="45.47853565094082" lon="9.253280729561839"><ele>114.75</ele><time>2026-04-24T15:55:51.993Z</time></trkpt><trkpt lat="45.47865813844518" lon="9.253225517003816"><ele>115.0</ele><time>2026-04-24T15:55:52.993Z</time></trkpt><trkpt lat="45.47878726358455" lon="9.253167339416342"><ele>115.8</ele><time>2026-04-24T15:55:53.993Z</time></trkpt><trkpt lat="45.478906308503795" lon="9.25311375110002"><ele>116.6</ele><time>2026-04-24T15:55:54.993Z</time></trkpt><trkpt lat="45.478995706135855" lon="9.253042674407611"><ele>117.4</ele><time>2026-04-24T15:55:55.993Z</time></trkpt><trkpt lat="45.47909219680185" lon="9.252968520926581"><ele>118.2</ele><time>2026-04-24T15:55:56.993Z</time></trkpt><trkpt lat="45.47918511856708" lon="9.252909335305171"><ele>119.0</ele><time>2026-04-24T15:55:57.993Z</time></trkpt><trkpt lat="45.479284079249794" lon="9.252858225894329"><ele>119.0</ele><time>2026-04-24T15:55:58.993Z</time></trkpt><trkpt lat="45.479373684584296" lon="9.252807625687652"><ele>119.0</ele><time>2026-04-24T15:55:59.993Z</time></trkpt><trkpt lat="45.47946129582207" lon="9.252779616584235"><ele>119.0</ele><time>2026-04-24T15:56:00.993Z</time></trkpt><trkpt lat="45.47955408937095" lon="9.25274736065985"><ele>119.0</ele><time>2026-04-24T15:56:01.993Z</time></trkpt><trkpt lat="45.47964489785458" lon="9.252708961739396"><ele>119.0</ele><time>2026-04-24T15:56:02.993Z</time></trkpt><trkpt lat="45.479747105590704" lon="9.252688417186095"><ele>118.6</ele><time>2026-04-24T15:56:04.993Z</time></trkpt><trkpt lat="45.47983547853954" lon="9.252633260743552"><ele>118.2</ele><time>2026-04-24T15:56:06.993Z</time></trkpt><trkpt lat="45.47991911331874" lon="9.252591232446813"><ele>117.79999999999998</ele><time>2026-04-24T15:56:08.993Z</time></trkpt><trkpt lat="45.4800044752236" lon="9.252572015562091"><ele>117.39999999999999</ele><time>2026-04-24T15:56:10.993Z</time></trkpt><trkpt lat="45.480102683183546" lon="9.252511231850443"><ele>117.0</ele><time>2026-04-24T15:56:12.993Z</time></trkpt><trkpt lat="45.480166903750266" lon="9.252462305149598"><ele>117.0</ele><time>2026-04-24T15:56:13.993Z</time></trkpt><trkpt lat="45.480266464836944" lon="9.252440005520729"><ele>116.99999999999999</ele><time>2026-04-24T15:56:16.001Z</time></trkpt><trkpt lat="45.48035403153806" lon="9.252373796977475"><ele>116.99999999999999</ele><time>2026-04-24T15:56:17.001Z</time></trkpt><trkpt lat="45.48044601318827" lon="9.252324096128879"><ele>117.0</ele><time>2026-04-24T15:56:18.001Z</time></trkpt><trkpt lat="45.48055270600006" lon="9.252288292592947"><ele>117.0</ele><time>2026-04-24T15:56:19.001Z</time></trkpt><trkpt lat="45.480656730972726" lon="9.252267405812482"><ele>117.8</ele><time>2026-04-24T15:56:20.001Z</time></trkpt><trkpt lat="45.480744606791156" lon="9.252212704623908"><ele>118.6</ele><time>2026-04-24T15:56:21.001Z</time></trkpt><trkpt lat="45.480841316275175" lon="9.252157798099352"><ele>119.39999999999999</ele><time>2026-04-24T15:56:22.001Z</time></trkpt><trkpt lat="45.480939030258504" lon="9.252097929811903"><ele>120.19999999999999</ele><time>2026-04-24T15:56:23.001Z</time></trkpt><trkpt lat="45.48103738068314" lon="9.252056982070547"><ele>121.0</ele><time>2026-04-24T15:56:24.001Z</time></trkpt><trkpt lat="45.48112697177392" lon="9.252013351444111"><ele>121.0</ele><time>2026-04-24T15:56:25.001Z</time></trkpt><trkpt lat="45.48121962173558" lon="9.251980691165759"><ele>121.0</ele><time>2026-04-24T15:56:26.001Z</time></trkpt><trkpt lat="45.48131074358198" lon="9.25194518890738"><ele>121.0</ele><time>2026-04-24T15:56:27.001Z</time></trkpt><trkpt lat="45.48141635067905" lon="9.251893986227806"><ele>121.0</ele><time>2026-04-24T15:56:28.001Z</time></trkpt><trkpt lat="45.4815244177822" lon="9.251839216638897"><ele>121.0</ele><time>2026-04-24T15:56:29.001Z</time></trkpt><trkpt lat="45.481630057418656" lon="9.251766172547597"><ele>121.0</ele><time>2026-04-24T15:56:30.001Z</time></trkpt><trkpt lat="45.481734452124414" lon="9.251715223025943"><ele>121.0</ele><time>2026-04-24T15:56:31.001Z</time></trkpt><trkpt lat="45.48185706773354" lon="9.251655218233344"><ele>121.0</ele><time>2026-04-24T15:56:32.001Z</time></trkpt><trkpt lat="45.48198088649453" lon="9.251626912507811"><ele>121.0</ele><time>2026-04-24T15:56:33.001Z</time></trkpt><trkpt lat="45.48209910442205" lon="9.251577361562589"><ele>120.75</ele><time>2026-04-24T15:56:34.001Z</time></trkpt><trkpt lat="45.48224109659688" lon="9.251528186145283"><ele>120.5</ele><time>2026-04-24T15:56:35.001Z</time></trkpt><trkpt lat="45.48234412072614" lon="9.251489167591656"><ele>120.25</ele><time>2026-04-24T15:56:36.001Z</time></trkpt><trkpt lat="45.48249441589371" lon="9.251427111600403"><ele>120.0</ele><time>2026-04-24T15:56:37.001Z</time></trkpt><trkpt lat="45.482629849994034" lon="9.251359529601546"><ele>120.0</ele><time>2026-04-24T15:56:38Z</time></trkpt><trkpt lat="45.48275076773536" lon="9.251333665721157"><ele>120.0</ele><time>2026-04-24T15:56:39Z</time></trkpt><trkpt lat="45.4828753767712" lon="9.251284006852684"><ele>120.0</ele><time>2026-04-24T15:56:40Z</time></trkpt><trkpt lat="45.483006504314595" lon="9.251256515677778"><ele>120.0</ele><time>2026-04-24T15:56:41Z</time></trkpt><trkpt lat="45.48313011468913" lon="9.251220355052519"><ele>119.33333333333334</ele><time>2026-04-24T15:56:42Z</time></trkpt><trkpt lat="45.4833039613908" lon="9.25125184959186"><ele>118.66666666666667</ele><time>2026-04-24T15:56:43Z</time></trkpt><trkpt lat="45.48347672907302" lon="9.251216358508831"><ele>118.0</ele><time>2026-04-24T15:56:44Z</time></trkpt><trkpt lat="45.48362209482572" lon="9.251159747705287"><ele>118.66666666666667</ele><time>2026-04-24T15:56:45Z</time></trkpt><trkpt lat="45.48377332960777" lon="9.251115827783014"><ele>119.33333333333334</ele><time>2026-04-24T15:56:46Z</time></trkpt><trkpt lat="45.48393333906373" lon="9.251077511616352"><ele>120.0</ele><time>2026-04-24T15:56:47Z</time></trkpt><trkpt lat="45.48408164348537" lon="9.251059738657036"><ele>120.0</ele><time>2026-04-24T15:56:48Z</time></trkpt><trkpt lat="45.48423947828147" lon="9.251075860661627"><ele>120.0</ele><time>2026-04-24T15:56:49Z</time></trkpt><trkpt lat="45.484423675004166" lon="9.251085752167743"><ele>120.0</ele><time>2026-04-24T15:56:50Z</time></trkpt><trkpt lat="45.484582690173404" lon="9.25109759148661"><ele>119.33333333333334</ele><time>2026-04-24T15:56:51Z</time></trkpt><trkpt lat="45.484746803792746" lon="9.251111219706234"><ele>118.66666666666667</ele><time>2026-04-24T15:56:52Z</time></trkpt><trkpt lat="45.484915204096446" lon="9.25112844734398"><ele>118.0</ele><time>2026-04-24T15:56:53Z</time></trkpt><trkpt lat="45.485076740780244" lon="9.251149235839465"><ele>118.0</ele><time>2026-04-24T15:56:54Z</time></trkpt><trkpt lat="45.48523969095258" lon="9.251171750285735"><ele>118.0</ele><time>2026-04-24T15:56:55Z</time></trkpt><trkpt lat="45.485424358142296" lon="9.251199281303407"><ele>118.0</ele><time>2026-04-24T15:56:56Z</time></trkpt><trkpt lat="45.48560205014119" lon="9.251226906271912"><ele>118.0</ele><time>2026-04-24T15:56:57Z</time></trkpt><trkpt lat="45.485767948021994" lon="9.251252689540847"><ele>118.0</ele><time>2026-04-24T15:56:58Z</time></trkpt><trkpt lat="45.48596043082825" lon="9.251281788576385"><ele>118.0</ele><time>2026-04-24T15:56:59Z</time></trkpt><trkpt lat="45.486133181962174" lon="9.251291294380847"><ele>117.33333333333334</ele><time>2026-04-24T15:57:00Z</time></trkpt><trkpt lat="45.486319993949486" lon="9.251316145626893"><ele>116.66666666666666</ele><time>2026-04-24T15:57:01Z</time></trkpt><trkpt lat="45.48650943771279" lon="9.251339962045169"><ele>116.0</ele><time>2026-04-24T15:57:02Z</time></trkpt><trkpt lat="45.48670503943705" lon="9.251396442089755"><ele>116.0</ele><time>2026-04-24T15:57:03Z</time></trkpt><trkpt lat="45.4868929207154" lon="9.251425102498274"><ele>116.0</ele><time>2026-04-24T15:57:04Z</time></trkpt><trkpt lat="45.48707560547176" lon="9.251453858682579"><ele>116.0</ele><time>2026-04-24T15:57:05Z</time></trkpt><trkpt lat="45.487250839683696" lon="9.25148096133352"><ele>116.66666666666666</ele><time>2026-04-24T15:57:06Z</time></trkpt><trkpt lat="45.48739724797098" lon="9.251479336577125"><ele>117.33333333333334</ele><time>2026-04-24T15:57:07Z</time></trkpt><trkpt lat="45.487549807218706" lon="9.251534779389083"><ele>118.0</ele><time>2026-04-24T15:57:08Z</time></trkpt><trkpt lat="45.487701287025516" lon="9.251590290613029"><ele>118.0</ele><time>2026-04-24T15:57:09Z</time></trkpt><trkpt lat="45.487862037572825" lon="9.251629677200537"><ele>118.0</ele><time>2026-04-24T15:57:10Z</time></trkpt><trkpt lat="45.488050860557884" lon="9.251635158263216"><ele>118.0</ele><time>2026-04-24T15:57:11Z</time></trkpt><trkpt lat="45.488211358270554" lon="9.251685328210643"><ele>118.33333333333334</ele><time>2026-04-24T15:57:12Z</time></trkpt><trkpt lat="45.48837099651672" lon="9.251726996840613"><ele>118.66666666666666</ele><time>2026-04-24T15:57:13Z</time></trkpt><trkpt lat="45.48854992936412" lon="9.251756702430425"><ele>119.0</ele><time>2026-04-24T15:57:14Z</time></trkpt><trkpt lat="45.488703419157616" lon="9.251758405341414"><ele>119.66666666666666</ele><time>2026-04-24T15:57:14.999Z</time></trkpt><trkpt lat="45.4888671675814" lon="9.251732756319228"><ele>120.33333333333334</ele><time>2026-04-24T15:57:15.999Z</time></trkpt><trkpt lat="45.48902271927524" lon="9.251744984857535"><ele>121.0</ele><time>2026-04-24T15:57:16.999Z</time></trkpt><trkpt lat="45.48915573377026" lon="9.251765384575476"><ele>121.0</ele><time>2026-04-24T15:57:17.999Z</time></trkpt><trkpt lat="45.489259990106405" lon="9.25178300942758"><ele>121.0</ele><time>2026-04-24T15:57:18.999Z</time></trkpt><trkpt lat="45.48935465446685" lon="9.251799926435691"><ele>121.0</ele><time>2026-04-24T15:57:19.999Z</time></trkpt><trkpt lat="45.489428683170665" lon="9.251813155746628"><ele>121.0</ele><time>2026-04-24T15:57:20.999Z</time></trkpt><trkpt lat="45.48952132355793" lon="9.251829711038372"><ele>121.0</ele><time>2026-04-24T15:57:22.999Z</time></trkpt><trkpt lat="45.48960660501252" lon="9.251844980326364"><ele>121.0</ele><time>2026-04-24T15:57:24.999Z</time></trkpt><trkpt lat="45.489702824852984" lon="9.251862954002197"><ele>121.0</ele><time>2026-04-24T15:57:26.999Z</time></trkpt><trkpt lat="45.48977509250594" lon="9.251876453463321"><ele>121.0</ele><time>2026-04-24T15:57:29.999Z</time></trkpt><trkpt lat="45.48986807660948" lon="9.25189382270748"><ele>121.0</ele><time>2026-04-24T15:57:31.999Z</time></trkpt><trkpt lat="45.48998919186984" lon="9.251916446823238"><ele>121.0</ele><time>2026-04-24T15:57:33.999Z</time></trkpt><trkpt lat="45.490094560066666" lon="9.25199892962371"><ele>121.0</ele><time>2026-04-24T15:57:34.999Z</time></trkpt><trkpt lat="45.49021824639213" lon="9.25205259474836"><ele>121.0</ele><time>2026-04-24T15:57:36.999Z</time></trkpt><trkpt lat="45.49031018567525" lon="9.252074319471884"><ele>121.0</ele><time>2026-04-24T15:57:37.999Z</time></trkpt><trkpt lat="45.49038898398297" lon="9.252097082894938"><ele>121.0</ele><time>2026-04-24T15:57:38.999Z</time></trkpt><trkpt lat="45.490499777184084" lon="9.252109772555238"><ele>121.0</ele><time>2026-04-24T15:57:39.999Z</time></trkpt><trkpt lat="45.490581007850025" lon="9.252137858058465"><ele>121.0</ele><time>2026-04-24T15:57:40.999Z</time></trkpt><trkpt lat="45.4907214778767" lon="9.252183404644073"><ele>121.0</ele><time>2026-04-24T15:57:42.999Z</time></trkpt><trkpt lat="45.490842946363145" lon="9.25222079550147"><ele>121.0</ele><time>2026-04-24T15:57:44.999Z</time></trkpt><trkpt lat="45.49091174440792" lon="9.252234521904562"><ele>121.0</ele><time>2026-04-24T15:57:46.999Z</time></trkpt><trkpt lat="45.4910096526419" lon="9.252242716704224"><ele>121.0</ele><time>2026-04-24T15:57:48.999Z</time></trkpt><trkpt lat="45.491135326983326" lon="9.252290162839055"><ele>121.00000000000001</ele><time>2026-04-24T15:57:50.999Z</time></trkpt><trkpt lat="45.49120031459304" lon="9.252315383500948"><ele>121.0</ele><time>2026-04-24T15:57:51.999Z</time></trkpt><trkpt lat="45.491277378777696" lon="9.252339044322648"><ele>121.0</ele><time>2026-04-24T15:57:52.999Z</time></trkpt><trkpt lat="45.4913619088199" lon="9.252315804956645"><ele>121.0</ele><time>2026-04-24T15:57:53.999Z</time></trkpt><trkpt lat="45.49145417584528" lon="9.252301942726302"><ele>121.00000000000001</ele><time>2026-04-24T15:57:54.999Z</time></trkpt><trkpt lat="45.491534958471554" lon="9.252343810563154"><ele>121.0</ele><time>2026-04-24T15:57:55.999Z</time></trkpt><trkpt lat="45.49161102955686" lon="9.252371677994859"><ele>121.00000000000001</ele><time>2026-04-24T15:57:56.999Z</time></trkpt><trkpt lat="45.49169053150561" lon="9.252382399961881"><ele>121.0</ele><time>2026-04-24T15:57:57.999Z</time></trkpt><trkpt lat="45.49175555346593" lon="9.2524459040236"><ele>121.0</ele><time>2026-04-24T15:57:58.999Z</time></trkpt><trkpt lat="45.49183224840334" lon="9.252501031482872"><ele>121.0</ele><time>2026-04-24T15:57:59.999Z</time></trkpt><trkpt lat="45.49191648801838" lon="9.252552131913971"><ele>121.00000000000001</ele><time>2026-04-24T15:58:00.998Z</time></trkpt><trkpt lat="45.49201491864545" lon="9.25262304999573"><ele>121.0</ele><time>2026-04-24T15:58:01.998Z</time></trkpt><trkpt lat="45.49209377137535" lon="9.252651577110859"><ele>121.0</ele><time>2026-04-24T15:58:02.998Z</time></trkpt><trkpt lat="45.492171149035265" lon="9.252689950552089"><ele>121.0</ele><time>2026-04-24T15:58:03.998Z</time></trkpt><trkpt lat="45.492259835239516" lon="9.252725331776592"><ele>121.0</ele><time>2026-04-24T15:58:04.998Z</time></trkpt><trkpt lat="45.49235346338625" lon="9.252802141862078"><ele>121.0</ele><time>2026-04-24T15:58:05.998Z</time></trkpt><trkpt lat="45.492472623505975" lon="9.252851894011442"><ele>121.0</ele><time>2026-04-24T15:58:06.998Z</time></trkpt><trkpt lat="45.49258267874433" lon="9.252885590088749"><ele>121.0</ele><time>2026-04-24T15:58:07.998Z</time></trkpt><trkpt lat="45.492683232816496" lon="9.25293753545553"><ele>121.0</ele><time>2026-04-24T15:58:08.998Z</time></trkpt><trkpt lat="45.492770358154885" lon="9.253008465376"><ele>121.0</ele><time>2026-04-24T15:58:09.998Z</time></trkpt><trkpt lat="45.49284870124891" lon="9.25310364464109"><ele>121.0</ele><time>2026-04-24T15:58:10.998Z</time></trkpt><trkpt lat="45.49295272122615" lon="9.253196217651471"><ele>121.0</ele><time>2026-04-24T15:58:11.998Z</time></trkpt><trkpt lat="45.49305529630604" lon="9.253273808130803"><ele>121.0</ele><time>2026-04-24T15:58:12.998Z</time></trkpt><trkpt lat="45.49316079928497" lon="9.253350504958243"><ele>121.0</ele><time>2026-04-24T15:58:13.998Z</time></trkpt><trkpt lat="45.49329406396352" lon="9.253416800259561"><ele>121.0</ele><time>2026-04-24T15:58:14.998Z</time></trkpt><trkpt lat="45.49340672818563" lon="9.25352901872967"><ele>121.0</ele><time>2026-04-24T15:58:15.998Z</time></trkpt><trkpt lat="45.4935396388315" lon="9.253606666461316"><ele>121.0</ele><time>2026-04-24T15:58:16.998Z</time></trkpt><trkpt lat="45.493657399250296" lon="9.25369658642817"><ele>121.0</ele><time>2026-04-24T15:58:17.998Z</time></trkpt><trkpt lat="45.493822535304" lon="9.25371981649095"><ele>121.0</ele><time>2026-04-24T15:58:18.998Z</time></trkpt><trkpt lat="45.493975257698686" lon="9.253804100641418"><ele>120.66666666666667</ele><time>2026-04-24T15:58:19.998Z</time></trkpt><trkpt lat="45.494121193938916" lon="9.253902982990331"><ele>120.33333333333334</ele><time>2026-04-24T15:58:20.998Z</time></trkpt><trkpt lat="45.49428056825165" lon="9.25401097071179"><ele>120.0</ele><time>2026-04-24T15:58:21.998Z</time></trkpt><trkpt lat="45.494448002337755" lon="9.254124419716586"><ele>120.0</ele><time>2026-04-24T15:58:22.998Z</time></trkpt><trkpt lat="45.49461418183339" lon="9.254236889634509"><ele>120.0</ele><time>2026-04-24T15:58:23.998Z</time></trkpt><trkpt lat="45.49478244230562" lon="9.254350753529055"><ele>120.0</ele><time>2026-04-24T15:58:24.998Z</time></trkpt><trkpt lat="45.49494497534912" lon="9.254459914965796"><ele>120.0</ele><time>2026-04-24T15:58:25.998Z</time></trkpt><trkpt lat="45.49510777290004" lon="9.254566789019224"><ele>120.0</ele><time>2026-04-24T15:58:26.998Z</time></trkpt><trkpt lat="45.4952758328128" lon="9.254675258831611"><ele>120.0</ele><time>2026-04-24T15:58:27.998Z</time></trkpt><trkpt lat="45.49543296720702" lon="9.254780502199937"><ele>121.0</ele><time>2026-04-24T15:58:28.998Z</time></trkpt><trkpt lat="45.4955810440398" lon="9.254903696673086"><ele>122.0</ele><time>2026-04-24T15:58:29.998Z</time></trkpt><trkpt lat="45.495749239851364" lon="9.255004360468616"><ele>123.0</ele><time>2026-04-24T15:58:30.998Z</time></trkpt><trkpt lat="45.49591025109637" lon="9.255100503739103"><ele>123.0</ele><time>2026-04-24T15:58:31.998Z</time></trkpt><trkpt lat="45.49608112474084" lon="9.255170785908334"><ele>123.0</ele><time>2026-04-24T15:58:32.998Z</time></trkpt><trkpt lat="45.49625170426474" lon="9.255223265459115"><ele>123.0</ele><time>2026-04-24T15:58:33.998Z</time></trkpt><trkpt lat="45.49641809495149" lon="9.255283706817867"><ele>121.66666666666666</ele><time>2026-04-24T15:58:34.998Z</time></trkpt><trkpt lat="45.49657535182504" lon="9.255347392446685"><ele>120.33333333333333</ele><time>2026-04-24T15:58:35.998Z</time></trkpt><trkpt lat="45.49672650344453" lon="9.255435835976145"><ele>119.0</ele><time>2026-04-24T15:58:36.998Z</time></trkpt><trkpt lat="45.49688366508198" lon="9.255485694447461"><ele>119.0</ele><time>2026-04-24T15:58:37.998Z</time></trkpt><trkpt lat="45.497046714485705" lon="9.255513485525787"><ele>119.0</ele><time>2026-04-24T15:58:38.998Z</time></trkpt><trkpt lat="45.49721495227268" lon="9.255552739529112"><ele>119.0</ele><time>2026-04-24T15:58:39.998Z</time></trkpt><trkpt lat="45.497382757345754" lon="9.255597632131835"><ele>119.66666666666666</ele><time>2026-04-24T15:58:40.998Z</time></trkpt><trkpt lat="45.49756394653667" lon="9.255608905523598"><ele>120.33333333333334</ele><time>2026-04-24T15:58:41.998Z</time></trkpt><trkpt lat="45.49771879861923" lon="9.255641893831239"><ele>121.0</ele><time>2026-04-24T15:58:42.998Z</time></trkpt><trkpt lat="45.497895991395396" lon="9.255680900782867"><ele>121.33333333333334</ele><time>2026-04-24T15:58:43.998Z</time></trkpt><trkpt lat="45.49809997751461" lon="9.255674775732388"><ele>121.66666666666666</ele><time>2026-04-24T15:58:44.998Z</time></trkpt><trkpt lat="45.49827837119983" lon="9.255723440644445"><ele>122.0</ele><time>2026-04-24T15:58:45.998Z</time></trkpt><trkpt lat="45.49844840041507" lon="9.255718013615898"><ele>122.0</ele><time>2026-04-24T15:58:46.998Z</time></trkpt><trkpt lat="45.49859562305022" lon="9.25573274495198"><ele>122.0</ele><time>2026-04-24T15:58:47.998Z</time></trkpt><trkpt lat="45.49874721414504" lon="9.255749276397871"><ele>122.0</ele><time>2026-04-24T15:58:48.997Z</time></trkpt><trkpt lat="45.49887586515199" lon="9.255764042618427"><ele>122.0</ele><time>2026-04-24T15:58:49.997Z</time></trkpt><trkpt lat="45.499009327012004" lon="9.255779361030196"><ele>122.5</ele><time>2026-04-24T15:58:50.997Z</time></trkpt><trkpt lat="45.49915156877437" lon="9.255795687162669"><ele>123.0</ele><time>2026-04-24T15:58:51.997Z</time></trkpt><trkpt lat="45.499299955008695" lon="9.255812718557792"><ele>123.5</ele><time>2026-04-24T15:58:52.997Z</time></trkpt><trkpt lat="45.49944759778538" lon="9.255829664621842"><ele>124.0</ele><time>2026-04-24T15:58:53.997Z</time></trkpt><trkpt lat="45.49959293697034" lon="9.255854531438015"><ele>124.0</ele><time>2026-04-24T15:58:54.997Z</time></trkpt><trkpt lat="45.49973355146815" lon="9.255862550545604"><ele>124.0</ele><time>2026-04-24T15:58:55.997Z</time></trkpt><trkpt lat="45.4998950544075" lon="9.255880603490386"><ele>124.0</ele><time>2026-04-24T15:58:56.997Z</time></trkpt><trkpt lat="45.50004607254548" lon="9.255891771458208"><ele>124.0</ele><time>2026-04-24T15:58:57.997Z</time></trkpt><trkpt lat="45.50017231171008" lon="9.255910834960853"><ele>124.0</ele><time>2026-04-24T15:58:58.997Z</time></trkpt><trkpt lat="45.50031148028153" lon="9.255916107441218"><ele>124.0</ele><time>2026-04-24T15:58:59.997Z</time></trkpt><trkpt lat="45.50045074724697" lon="9.255923084504733"><ele>124.0</ele><time>2026-04-24T15:59:00.997Z</time></trkpt><trkpt lat="45.500578705406184" lon="9.255962351991183"><ele>123.25</ele><time>2026-04-24T15:59:01.997Z</time></trkpt><trkpt lat="45.50070056497752" lon="9.256002917859664"><ele>122.5</ele><time>2026-04-24T15:59:02.997Z</time></trkpt><trkpt lat="45.50081303974367" lon="9.256016266385007"><ele>121.75</ele><time>2026-04-24T15:59:03.997Z</time></trkpt><trkpt lat="45.50094062494902" lon="9.256049626456667"><ele>121.0</ele><time>2026-04-24T15:59:04.997Z</time></trkpt><trkpt lat="45.50105748065659" lon="9.256121808366569"><ele>121.0</ele><time>2026-04-24T15:59:05.997Z</time></trkpt><trkpt lat="45.50117664793653" lon="9.256180694715727"><ele>121.0</ele><time>2026-04-24T15:59:06.997Z</time></trkpt><trkpt lat="45.501310596364945" lon="9.25623977745283"><ele>121.0</ele><time>2026-04-24T15:59:07.997Z</time></trkpt><trkpt lat="45.50143471508609" lon="9.256301277204226"><ele>121.0</ele><time>2026-04-24T15:59:08.997Z</time></trkpt><trkpt lat="45.501548719178594" lon="9.256378403898745"><ele>120.5</ele><time>2026-04-24T15:59:09.997Z</time></trkpt><trkpt lat="45.501667964884525" lon="9.256464382642308"><ele>120.0</ele><time>2026-04-24T15:59:10.997Z</time></trkpt><trkpt lat="45.50178273019417" lon="9.256539749854898"><ele>119.5</ele><time>2026-04-24T15:59:11.997Z</time></trkpt><trkpt lat="45.501899983786885" lon="9.256616511888918"><ele>119.0</ele><time>2026-04-24T15:59:12.997Z</time></trkpt><trkpt lat="45.502001859187914" lon="9.256690654149976"><ele>119.25</ele><time>2026-04-24T15:59:13.997Z</time></trkpt><trkpt lat="45.50213772939243" lon="9.256808142211938"><ele>119.5</ele><time>2026-04-24T15:59:14.997Z</time></trkpt><trkpt lat="45.50225972895287" lon="9.256907635829958"><ele>119.75</ele><time>2026-04-24T15:59:15.997Z</time></trkpt><trkpt lat="45.502388170622005" lon="9.257011751171516"><ele>120.0</ele><time>2026-04-24T15:59:16.997Z</time></trkpt><trkpt lat="45.50251189745334" lon="9.25710078219153"><ele>120.0</ele><time>2026-04-24T15:59:17.997Z</time></trkpt><trkpt lat="45.5026406095628" lon="9.25717979189644"><ele>120.0</ele><time>2026-04-24T15:59:18.997Z</time></trkpt><trkpt lat="45.5027477738949" lon="9.257266161431463"><ele>120.0</ele><time>2026-04-24T15:59:19.997Z</time></trkpt><trkpt lat="45.50285845124393" lon="9.257369336913277"><ele>120.0</ele><time>2026-04-24T15:59:20.997Z</time></trkpt><trkpt lat="45.502982761610475" lon="9.257439945848716"><ele>120.0</ele><time>2026-04-24T15:59:21.997Z</time></trkpt><trkpt lat="45.50310668819481" lon="9.257525281733818"><ele>120.0</ele><time>2026-04-24T15:59:22.997Z</time></trkpt><trkpt lat="45.503225669141905" lon="9.257634906081728"><ele>120.0</ele><time>2026-04-24T15:59:23.997Z</time></trkpt><trkpt lat="45.50332868638143" lon="9.257722356769822"><ele>120.0</ele><time>2026-04-24T15:59:24.997Z</time></trkpt><trkpt lat="45.503439971984484" lon="9.257807921165385"><ele>120.0</ele><time>2026-04-24T15:59:25.997Z</time></trkpt><trkpt lat="45.50353985809314" lon="9.25788550193084"><ele>120.0</ele><time>2026-04-24T15:59:26.997Z</time></trkpt><trkpt lat="45.50363775509167" lon="9.257974253521922"><ele>120.0</ele><time>2026-04-24T15:59:27.997Z</time></trkpt><trkpt lat="45.50374120624501" lon="9.258044509850157"><ele>120.0</ele><time>2026-04-24T15:59:28.997Z</time></trkpt><trkpt lat="45.503848063943735" lon="9.25813471074207"><ele>120.75</ele><time>2026-04-24T15:59:29.997Z</time></trkpt><trkpt lat="45.50394753602406" lon="9.258205887926238"><ele>121.5</ele><time>2026-04-24T15:59:30.997Z</time></trkpt><trkpt lat="45.50403828366647" lon="9.258272224403273"><ele>122.25</ele><time>2026-04-24T15:59:31.997Z</time></trkpt><trkpt lat="45.5041395005081" lon="9.25836493944872"><ele>123.0</ele><time>2026-04-24T15:59:32.997Z</time></trkpt><trkpt lat="45.50424726936889" lon="9.258431146825272"><ele>123.0</ele><time>2026-04-24T15:59:33.997Z</time></trkpt><trkpt lat="45.50433624224991" lon="9.258499322336043"><ele>123.0</ele><time>2026-04-24T15:59:34.997Z</time></trkpt><trkpt lat="45.50443684983176" lon="9.25857374594901"><ele>123.0</ele><time>2026-04-24T15:59:35.996Z</time></trkpt><trkpt lat="45.50453655861228" lon="9.258643440840425"><ele>123.0</ele><time>2026-04-24T15:59:36.996Z</time></trkpt><trkpt lat="45.5046469059709" lon="9.258735807332151"><ele>123.0</ele><time>2026-04-24T15:59:37.996Z</time></trkpt><trkpt lat="45.50481180885065" lon="9.25882185919351"><ele>123.0</ele><time>2026-04-24T15:59:38.996Z</time></trkpt><trkpt lat="45.504910339111944" lon="9.25895139245334"><ele>123.0</ele><time>2026-04-24T15:59:39.996Z</time></trkpt><trkpt lat="45.50504360910956" lon="9.259044879767957"><ele>122.5</ele><time>2026-04-24T15:59:40.996Z</time></trkpt><trkpt lat="45.505157480749716" lon="9.259155703575304"><ele>122.0</ele><time>2026-04-24T15:59:41.996Z</time></trkpt><trkpt lat="45.50529331373769" lon="9.259246034998956"><ele>121.5</ele><time>2026-04-24T15:59:42.996Z</time></trkpt><trkpt lat="45.505416409018764" lon="9.259371854316164"><ele>121.0</ele><time>2026-04-24T15:59:43.996Z</time></trkpt><trkpt lat="45.50555290398046" lon="9.259440342781417"><ele>121.0</ele><time>2026-04-24T15:59:44.996Z</time></trkpt><trkpt lat="45.50565442422301" lon="9.259490882841899"><ele>121.0</ele><time>2026-04-24T15:59:45.996Z</time></trkpt><trkpt lat="45.505746045400905" lon="9.259572099407924"><ele>121.0</ele><time>2026-04-24T15:59:46.996Z</time></trkpt><trkpt lat="45.505838192894934" lon="9.259660333149768"><ele>121.0</ele><time>2026-04-24T15:59:47.996Z</time></trkpt><trkpt lat="45.505922652872925" lon="9.259747128111487"><ele>121.0</ele><time>2026-04-24T15:59:48.996Z</time></trkpt><trkpt lat="45.50601901327575" lon="9.25979600059586"><ele>121.4</ele><time>2026-04-24T15:59:49.996Z</time></trkpt><trkpt lat="45.50610152406043" lon="9.259866306300578"><ele>121.8</ele><time>2026-04-24T15:59:50.996Z</time></trkpt><trkpt lat="45.50621100482267" lon="9.259905236647532"><ele>122.20000000000002</ele><time>2026-04-24T15:59:51.996Z</time></trkpt><trkpt lat="45.506302254174834" lon="9.259960399232826"><ele>122.60000000000001</ele><time>2026-04-24T15:59:52.996Z</time></trkpt><trkpt lat="45.50638963255918" lon="9.260006742925475"><ele>123.0</ele><time>2026-04-24T15:59:53.996Z</time></trkpt><trkpt lat="45.506483732559225" lon="9.260064754249052"><ele>123.0</ele><time>2026-04-24T15:59:54.996Z</time></trkpt><trkpt lat="45.50657508198725" lon="9.260141369810247"><ele>123.0</ele><time>2026-04-24T15:59:55.996Z</time></trkpt><trkpt lat="45.506676280491575" lon="9.260234819833016"><ele>123.0</ele><time>2026-04-24T15:59:56.996Z</time></trkpt><trkpt lat="45.506792671300765" lon="9.260325142932839"><ele>123.0</ele><time>2026-04-24T15:59:57.996Z</time></trkpt><trkpt lat="45.5069042611335" lon="9.260411740310996"><ele>123.0</ele><time>2026-04-24T15:59:58.996Z</time></trkpt><trkpt lat="45.5070310907416" lon="9.260483702921723"><ele>123.0</ele><time>2026-04-24T15:59:59.996Z</time></trkpt><trkpt lat="45.50714441349124" lon="9.260598106380423"><ele>123.0</ele><time>2026-04-24T16:00:00.996Z</time></trkpt><trkpt lat="45.50727630763593" lon="9.260692449722065"><ele>123.0</ele><time>2026-04-24T16:00:01.996Z</time></trkpt><trkpt lat="45.507406636071856" lon="9.260804322463528"><ele>123.25</ele><time>2026-04-24T16:00:02.996Z</time></trkpt><trkpt lat="45.50753329898177" lon="9.260883391885791"><ele>123.5</ele><time>2026-04-24T16:00:03.996Z</time></trkpt><trkpt lat="45.50765331553264" lon="9.260995922330338"><ele>123.75</ele><time>2026-04-24T16:00:04.996Z</time></trkpt><trkpt lat="45.50776963711986" lon="9.261095769652576"><ele>124.0</ele><time>2026-04-24T16:00:05.996Z</time></trkpt><trkpt lat="45.507894500410146" lon="9.261177642052113"><ele>123.75</ele><time>2026-04-24T16:00:06.996Z</time></trkpt><trkpt lat="45.50801917243883" lon="9.261268746387566"><ele>123.5</ele><time>2026-04-24T16:00:07.996Z</time></trkpt><trkpt lat="45.50812570141204" lon="9.261348710943249"><ele>123.25</ele><time>2026-04-24T16:00:08.996Z</time></trkpt><trkpt lat="45.50823939442249" lon="9.261422486174204"><ele>123.0</ele><time>2026-04-24T16:00:09.996Z</time></trkpt><trkpt lat="45.50834702867845" lon="9.261491495157255"><ele>123.25</ele><time>2026-04-24T16:00:10.996Z</time></trkpt><trkpt lat="45.50845244788448" lon="9.26157716202598"><ele>123.5</ele><time>2026-04-24T16:00:11.996Z</time></trkpt><trkpt lat="45.50856353210812" lon="9.261655728325792"><ele>123.75</ele><time>2026-04-24T16:00:12.996Z</time></trkpt><trkpt lat="45.50866508874238" lon="9.261727795632883"><ele>124.0</ele><time>2026-04-24T16:00:13.996Z</time></trkpt><trkpt lat="45.50875781769518" lon="9.26178012720856"><ele>124.00000000000001</ele><time>2026-04-24T16:00:14.996Z</time></trkpt><trkpt lat="45.50886954004019" lon="9.261833342730315"><ele>124.0</ele><time>2026-04-24T16:00:15.996Z</time></trkpt><trkpt lat="45.50896898648518" lon="9.261869366945204"><ele>124.0</ele><time>2026-04-24T16:00:16.996Z</time></trkpt><trkpt lat="45.509058725922856" lon="9.261906944439568"><ele>124.0</ele><time>2026-04-24T16:00:17.996Z</time></trkpt><trkpt lat="45.50912722514962" lon="9.261928776974116"><ele>124.00000000000001</ele><time>2026-04-24T16:00:18.996Z</time></trkpt><trkpt lat="45.50919126003396" lon="9.261939314087668"><ele>124.0</ele><time>2026-04-24T16:00:19.996Z</time></trkpt><trkpt lat="45.509272258557374" lon="9.261948151950694"><ele>124.0</ele><time>2026-04-24T16:00:20.996Z</time></trkpt><trkpt lat="45.509341677036716" lon="9.26196224387915"><ele>124.0</ele><time>2026-04-24T16:00:21.996Z</time></trkpt><trkpt lat="45.50944427304158" lon="9.261979802600509"><ele>124.0</ele><time>2026-04-24T16:00:23.995Z</time></trkpt><trkpt lat="45.509555280501154" lon="9.261983970172743"><ele>124.0</ele><time>2026-04-24T16:00:25.995Z</time></trkpt><trkpt lat="45.50969432137559" lon="9.261981531872262"><ele>124.0</ele><time>2026-04-24T16:00:27.995Z</time></trkpt><trkpt lat="45.50976929913871" lon="9.261988160987915"><ele>124.2</ele><time>2026-04-24T16:00:28.995Z</time></trkpt><trkpt lat="45.50985250641609" lon="9.26198955146909"><ele>124.4</ele><time>2026-04-24T16:00:29.995Z</time></trkpt><trkpt lat="45.50996033851363" lon="9.262003513058971"><ele>124.6</ele><time>2026-04-24T16:00:30.995Z</time></trkpt><trkpt lat="45.510052101571375" lon="9.262021399090859"><ele>124.8</ele><time>2026-04-24T16:00:31.995Z</time></trkpt><trkpt lat="45.510145764925475" lon="9.262033260869378"><ele>125.0</ele><time>2026-04-24T16:00:32.995Z</time></trkpt><trkpt lat="45.51025370763579" lon="9.262037900629032"><ele>125.0</ele><time>2026-04-24T16:00:33.995Z</time></trkpt><trkpt lat="45.51036426856945" lon="9.262051184397354"><ele>125.0</ele><time>2026-04-24T16:00:34.995Z</time></trkpt><trkpt lat="45.51051597239418" lon="9.262043187999872"><ele>125.0</ele><time>2026-04-24T16:00:35.995Z</time></trkpt><trkpt lat="45.51064472071264" lon="9.262023626309011"><ele>125.0</ele><time>2026-04-24T16:00:36.995Z</time></trkpt><trkpt lat="45.5107784964167" lon="9.262004713234466"><ele>125.0</ele><time>2026-04-24T16:00:37.995Z</time></trkpt><trkpt lat="45.510892829683854" lon="9.261994964483396"><ele>125.0</ele><time>2026-04-24T16:00:38.995Z</time></trkpt><trkpt lat="45.511016871206586" lon="9.261975118329234"><ele>125.0</ele><time>2026-04-24T16:00:39.995Z</time></trkpt><trkpt lat="45.51115221978779" lon="9.261943250345217"><ele>125.0</ele><time>2026-04-24T16:00:40.995Z</time></trkpt><trkpt lat="45.51129254752798" lon="9.261940814852675"><ele>125.75</ele><time>2026-04-24T16:00:41.995Z</time></trkpt><trkpt lat="45.51138743446989" lon="9.261931122890472"><ele>126.5</ele><time>2026-04-24T16:00:42.995Z</time></trkpt><trkpt lat="45.51147154394308" lon="9.261945865330821"><ele>127.25</ele><time>2026-04-24T16:00:43.995Z</time></trkpt><trkpt lat="45.511647334940236" lon="9.261787530063959"><ele>128.0</ele><time>2026-04-24T16:00:46.995Z</time></trkpt><trkpt lat="45.51173436400282" lon="9.261805320126976"><ele>128.0</ele><time>2026-04-24T16:00:47.995Z</time></trkpt><trkpt lat="45.51181608573893" lon="9.261813342672305"><ele>128.0</ele><time>2026-04-24T16:00:48.995Z</time></trkpt><trkpt lat="45.51191410170405" lon="9.261819957038817"><ele>128.0</ele><time>2026-04-24T16:00:49.995Z</time></trkpt><trkpt lat="45.512010640869946" lon="9.26184470073076"><ele>128.0</ele><time>2026-04-24T16:00:50.995Z</time></trkpt><trkpt lat="45.5121133403618" lon="9.261844800561375"><ele>128.0</ele><time>2026-04-24T16:00:51.995Z</time></trkpt><trkpt lat="45.512212623101966" lon="9.261854864717732"><ele>127.80000000000001</ele><time>2026-04-24T16:00:52.995Z</time></trkpt><trkpt lat="45.512323198127234" lon="9.261888234484516"><ele>127.60000000000001</ele><time>2026-04-24T16:00:54.995Z</time></trkpt><trkpt lat="45.51241351053188" lon="9.26198039086681"><ele>127.39999999999999</ele><time>2026-04-24T16:00:56.995Z</time></trkpt><trkpt lat="45.51245375642721" lon="9.262058374819558"><ele>127.19999999999999</ele><time>2026-04-24T16:00:57.995Z</time></trkpt><trkpt lat="45.512530376615274" lon="9.262114716455487"><ele>127.0</ele><time>2026-04-24T16:00:59.995Z</time></trkpt><trkpt lat="45.51262995759237" lon="9.262107006521603"><ele>127.0</ele><time>2026-04-24T16:01:01.995Z</time></trkpt><trkpt lat="45.51271168790445" lon="9.26207065764975"><ele>127.0</ele><time>2026-04-24T16:01:03.995Z</time></trkpt><trkpt lat="45.5127128506823" lon="9.26188053233653"><ele>127.0</ele><time>2026-04-24T16:01:06.995Z</time></trkpt><trkpt lat="45.51272761913452" lon="9.261683193470718"><ele>127.0</ele><time>2026-04-24T16:01:07.995Z</time></trkpt><trkpt lat="45.51269846810067" lon="9.261533819308553"><ele>127.39999999999999</ele><time>2026-04-24T16:01:08.995Z</time></trkpt><trkpt lat="45.512672963248676" lon="9.261402963346166"><ele>127.79999999999998</ele><time>2026-04-24T16:01:09.995Z</time></trkpt><trkpt lat="45.512646123740765" lon="9.261276623506559"><ele>128.2</ele><time>2026-04-24T16:01:10.994Z</time></trkpt><trkpt lat="45.51261674900509" lon="9.261146558503377"><ele>128.6</ele><time>2026-04-24T16:01:11.994Z</time></trkpt><trkpt lat="45.51258622655895" lon="9.261011157864642"><ele>129.0</ele><time>2026-04-24T16:01:12.994Z</time></trkpt><trkpt lat="45.51254967789859" lon="9.260865164947909"><ele>129.0</ele><time>2026-04-24T16:01:13.994Z</time></trkpt><trkpt lat="45.512511766639065" lon="9.260718436569498"><ele>129.0</ele><time>2026-04-24T16:01:14.994Z</time></trkpt><trkpt lat="45.512474239607016" lon="9.260570687628794"><ele>129.0</ele><time>2026-04-24T16:01:15.994Z</time></trkpt><trkpt lat="45.512437750433364" lon="9.260418585840844"><ele>129.0</ele><time>2026-04-24T16:01:16.994Z</time></trkpt><trkpt lat="45.5124031429964" lon="9.260254381817289"><ele>128.75</ele><time>2026-04-24T16:01:17.994Z</time></trkpt><trkpt lat="45.51237160534274" lon="9.260073154277542"><ele>128.5</ele><time>2026-04-24T16:01:18.994Z</time></trkpt><trkpt lat="45.512342170791314" lon="9.259889077857686"><ele>128.25</ele><time>2026-04-24T16:01:19.994Z</time></trkpt><trkpt lat="45.512317560488114" lon="9.259711710272088"><ele>128.0</ele><time>2026-04-24T16:01:20.994Z</time></trkpt><trkpt lat="45.512295839094335" lon="9.259549803882702"><ele>127.60000000000001</ele><time>2026-04-24T16:01:21.994Z</time></trkpt><trkpt lat="45.51227740883899" lon="9.25940335480541"><ele>127.20000000000002</ele><time>2026-04-24T16:01:22.994Z</time></trkpt><trkpt lat="45.51226001523698" lon="9.259266237626722"><ele>126.8</ele><time>2026-04-24T16:01:23.994Z</time></trkpt><trkpt lat="45.51220912333519" lon="9.259116868834154"><ele>126.4</ele><time>2026-04-24T16:01:24.994Z</time></trkpt><trkpt lat="45.51220546369247" lon="9.258994824760409"><ele>126.0</ele><time>2026-04-24T16:01:25.994Z</time></trkpt><trkpt lat="45.51217470695942" lon="9.258901078499326"><ele>126.0</ele><time>2026-04-24T16:01:26.994Z</time></trkpt><trkpt lat="45.51216298245329" lon="9.258742627864859"><ele>126.0</ele><time>2026-04-24T16:01:28.994Z</time></trkpt><trkpt lat="45.512137430981284" lon="9.258605776819085"><ele>126.0</ele><time>2026-04-24T16:01:30.994Z</time></trkpt><trkpt lat="45.51211098588631" lon="9.258471159837422"><ele>126.0</ele><time>2026-04-24T16:01:32.994Z</time></trkpt><trkpt lat="45.512098155473915" lon="9.25836007333293"><ele>126.0</ele><time>2026-04-24T16:01:34.994Z</time></trkpt><trkpt lat="45.51216515273293" lon="9.258270501892016"><ele>126.0</ele><time>2026-04-24T16:01:37.994Z</time></trkpt><trkpt lat="45.51225546509567" lon="9.258187232810663"><ele>126.0</ele><time>2026-04-24T16:01:39.994Z</time></trkpt><trkpt lat="45.51236328806412" lon="9.25815633327274"><ele>126.0</ele><time>2026-04-24T16:01:41.994Z</time></trkpt><trkpt lat="45.51242396666802" lon="9.258129593509116"><ele>126.0</ele><time>2026-04-24T16:01:42.994Z</time></trkpt><trkpt lat="45.51249343508595" lon="9.258104512321449"><ele>126.0</ele><time>2026-04-24T16:01:43.994Z</time></trkpt><trkpt lat="45.51265761094349" lon="9.258026632969909"><ele>126.8</ele><time>2026-04-24T16:01:44.994Z</time></trkpt><trkpt lat="45.51273177479681" lon="9.257891832025793"><ele>127.6</ele><time>2026-04-24T16:01:45.994Z</time></trkpt><trkpt lat="45.51277495312996" lon="9.257788276772155"><ele>128.4</ele><time>2026-04-24T16:01:46.994Z</time></trkpt><trkpt lat="45.51281113996984" lon="9.257700014114517"><ele>129.2</ele><time>2026-04-24T16:01:47.994Z</time></trkpt><trkpt lat="45.5128628824432" lon="9.257570605291814"><ele>130.0</ele><time>2026-04-24T16:01:49.994Z</time></trkpt><trkpt lat="45.51291453964328" lon="9.257449642316995"><ele>130.16666666666669</ele><time>2026-04-24T16:01:51.994Z</time></trkpt><trkpt lat="45.512979872140036" lon="9.257333811730124"><ele>130.33333333333334</ele><time>2026-04-24T16:01:53.994Z</time></trkpt><trkpt lat="45.51305704847114" lon="9.25729972853807"><ele>130.5</ele><time>2026-04-24T16:01:55.994Z</time></trkpt><trkpt lat="45.51310281850473" lon="9.257192111681604"><ele>130.66666666666666</ele><time>2026-04-24T16:02:01.993Z</time></trkpt><trkpt lat="45.51310475941871" lon="9.257077336225432"><ele>130.83333333333331</ele><time>2026-04-24T16:02:03.993Z</time></trkpt><trkpt lat="45.51308451995361" lon="9.256957104266995"><ele>131.0</ele><time>2026-04-24T16:02:05.993Z</time></trkpt><trkpt lat="45.51301896519126" lon="9.256928077240403"><ele>130.4</ele><time>2026-04-24T16:02:07.993Z</time></trkpt><trkpt lat="45.51293048099006" lon="9.25690437173625"><ele>129.8</ele><time>2026-04-24T16:02:10.993Z</time></trkpt><trkpt lat="45.51286556546444" lon="9.256930588669036"><ele>129.20000000000002</ele><time>2026-04-24T16:02:12.993Z</time></trkpt><trkpt lat="45.512779256602144" lon="9.25678241984819"><ele>128.6</ele><time>2026-04-24T16:02:13.993Z</time></trkpt><trkpt lat="45.512662009113996" lon="9.256786941220193"><ele>128.0</ele><time>2026-04-24T16:02:15.993Z</time></trkpt><trkpt lat="45.5125474361271" lon="9.256664564659562"><ele>127.99999999999999</ele><time>2026-04-24T16:02:17.993Z</time></trkpt><trkpt lat="45.51244045575025" lon="9.256577474741974"><ele>128.0</ele><time>2026-04-24T16:02:19.993Z</time></trkpt><trkpt lat="45.51237865341564" lon="9.256538032712106"><ele>128.0</ele><time>2026-04-24T16:02:20.993Z</time></trkpt><trkpt lat="45.51230995355069" lon="9.256493773420075"><ele>128.0</ele><time>2026-04-24T16:02:21.993Z</time></trkpt><trkpt lat="45.51223391900433" lon="9.256444788872242"><ele>127.99999999999999</ele><time>2026-04-24T16:02:22.993Z</time></trkpt><trkpt lat="45.51215700046954" lon="9.256390704396502"><ele>128.0</ele><time>2026-04-24T16:02:23.993Z</time></trkpt><trkpt lat="45.51207404352337" lon="9.256320482262522"><ele>127.99999999999999</ele><time>2026-04-24T16:02:24.993Z</time></trkpt><trkpt lat="45.51198593870761" lon="9.256263111093409"><ele>128.0</ele><time>2026-04-24T16:02:25.993Z</time></trkpt><trkpt lat="45.511914389287455" lon="9.256181377530298"><ele>128.0</ele><time>2026-04-24T16:02:26.993Z</time></trkpt><trkpt lat="45.511852241780026" lon="9.256083115784499"><ele>128.0</ele><time>2026-04-24T16:02:27.993Z</time></trkpt><trkpt lat="45.51179332795227" lon="9.255989804509815"><ele>127.99999999999999</ele><time>2026-04-24T16:02:28.993Z</time></trkpt><trkpt lat="45.51174062061625" lon="9.255914503684632"><ele>128.0</ele><time>2026-04-24T16:02:29.993Z</time></trkpt><trkpt lat="45.511688371420554" lon="9.255846197417762"><ele>127.99999999999999</ele><time>2026-04-24T16:02:30.993Z</time></trkpt><trkpt lat="45.511643595418256" lon="9.255765774141226"><ele>128.0</ele><time>2026-04-24T16:02:31.993Z</time></trkpt><trkpt lat="45.511605181413444" lon="9.25569141700251"><ele>128.0</ele><time>2026-04-24T16:02:32.993Z</time></trkpt><trkpt lat="45.51152728135427" lon="9.255565264132228"><ele>128.0</ele><time>2026-04-24T16:02:34.993Z</time></trkpt><trkpt lat="45.51145717940291" lon="9.255458853725868"><ele>127.99999999999999</ele><time>2026-04-24T16:02:36.993Z</time></trkpt><trkpt lat="45.5114568919614" lon="9.25536282759213"><ele>128.0</ele><time>2026-04-24T16:02:37.993Z</time></trkpt><trkpt lat="45.51143413155863" lon="9.255180883528007"><ele>128.33333333333331</ele><time>2026-04-24T16:02:39.993Z</time></trkpt><trkpt lat="45.511417402116805" lon="9.255071291966644"><ele>128.66666666666666</ele><time>2026-04-24T16:02:40.993Z</time></trkpt><trkpt lat="45.51139415051126" lon="9.25495127829432"><ele>129.0</ele><time>2026-04-24T16:02:41.993Z</time></trkpt><trkpt lat="45.51137140263192" lon="9.25482463678456"><ele>129.33333333333334</ele><time>2026-04-24T16:02:42.993Z</time></trkpt><trkpt lat="45.51135443321982" lon="9.254696503667617"><ele>129.66666666666669</ele><time>2026-04-24T16:02:43.993Z</time></trkpt><trkpt lat="45.511337961633274" lon="9.254572040442163"><ele>130.0</ele><time>2026-04-24T16:02:44.993Z</time></trkpt><trkpt lat="45.511307523844174" lon="9.254445395183609"><ele>130.0</ele><time>2026-04-24T16:02:45.992Z</time></trkpt><trkpt lat="45.51127368356079" lon="9.25431176485552"><ele>130.0</ele><time>2026-04-24T16:02:46.992Z</time></trkpt><trkpt lat="45.51123727232225" lon="9.254175490224254"><ele>130.0</ele><time>2026-04-24T16:02:47.992Z</time></trkpt><trkpt lat="45.51120542686359" lon="9.254034750894224"><ele>130.0</ele><time>2026-04-24T16:02:48.992Z</time></trkpt><trkpt lat="45.51117408853228" lon="9.253890773750285"><ele>130.0</ele><time>2026-04-24T16:02:49.992Z</time></trkpt><trkpt lat="45.51114127223216" lon="9.253753780936043"><ele>130.0</ele><time>2026-04-24T16:02:50.992Z</time></trkpt><trkpt lat="45.511110696307014" lon="9.253622329731764"><ele>130.0</ele><time>2026-04-24T16:02:51.992Z</time></trkpt><trkpt lat="45.51108055763323" lon="9.253492437998876"><ele>130.0</ele><time>2026-04-24T16:02:52.992Z</time></trkpt><trkpt lat="45.51105110379338" lon="9.253366640804503"><ele>130.0</ele><time>2026-04-24T16:02:53.992Z</time></trkpt><trkpt lat="45.511029232691705" lon="9.253239631518825"><ele>130.0</ele><time>2026-04-24T16:02:54.992Z</time></trkpt><trkpt lat="45.51100869720359" lon="9.253113786393046"><ele>130.2</ele><time>2026-04-24T16:02:55.992Z</time></trkpt><trkpt lat="45.51098851611962" lon="9.252987653792468"><ele>130.4</ele><time>2026-04-24T16:02:56.992Z</time></trkpt><trkpt lat="45.510928338438895" lon="9.252868202456078"><ele>130.6</ele><time>2026-04-24T16:02:57.992Z</time></trkpt><trkpt lat="45.510901056925164" lon="9.252746342720725"><ele>130.8</ele><time>2026-04-24T16:02:58.992Z</time></trkpt><trkpt lat="45.510875695395015" lon="9.252625718118688"><ele>131.0</ele><time>2026-04-24T16:02:59.992Z</time></trkpt><trkpt lat="45.51086770962415" lon="9.252497093700612"><ele>131.0</ele><time>2026-04-24T16:03:00.992Z</time></trkpt><trkpt lat="45.51084445937563" lon="9.252375866548775"><ele>131.0</ele><time>2026-04-24T16:03:01.992Z</time></trkpt><trkpt lat="45.510820524854516" lon="9.252251071076422"><ele>131.0</ele><time>2026-04-24T16:03:02.992Z</time></trkpt><trkpt lat="45.51079700499185" lon="9.252128438024421"><ele>131.0</ele><time>2026-04-24T16:03:03.992Z</time></trkpt><trkpt lat="45.510757663056495" lon="9.252013331824312"><ele>131.0</ele><time>2026-04-24T16:03:04.992Z</time></trkpt><trkpt lat="45.510734302778374" lon="9.251893953893598"><ele>131.0</ele><time>2026-04-24T16:03:05.992Z</time></trkpt><trkpt lat="45.51071142403542" lon="9.251775633577399"><ele>131.0</ele><time>2026-04-24T16:03:06.992Z</time></trkpt><trkpt lat="45.51070557720663" lon="9.25165718443072"><ele>131.0</ele><time>2026-04-24T16:03:07.992Z</time></trkpt><trkpt lat="45.51068394732243" lon="9.251545947946116"><ele>131.0</ele><time>2026-04-24T16:03:08.992Z</time></trkpt><trkpt lat="45.51064767772162" lon="9.25144336815228"><ele>131.0</ele><time>2026-04-24T16:03:09.992Z</time></trkpt><trkpt lat="45.510643344633856" lon="9.251337165724518"><ele>131.0</ele><time>2026-04-24T16:03:10.992Z</time></trkpt><trkpt lat="45.51062396661586" lon="9.251237522534995"><ele>131.0</ele><time>2026-04-24T16:03:11.992Z</time></trkpt><trkpt lat="45.510604600159716" lon="9.25113793873646"><ele>131.0</ele><time>2026-04-24T16:03:12.992Z</time></trkpt><trkpt lat="45.51057092795876" lon="9.251048876257048"><ele>131.0</ele><time>2026-04-24T16:03:13.992Z</time></trkpt><trkpt lat="45.51055342393595" lon="9.250955070515255"><ele>131.0</ele><time>2026-04-24T16:03:14.992Z</time></trkpt><trkpt lat="45.510535954986835" lon="9.250858449681546"><ele>131.0</ele><time>2026-04-24T16:03:15.992Z</time></trkpt><trkpt lat="45.51051862068001" lon="9.250764803987144"><ele>131.0</ele><time>2026-04-24T16:03:16.992Z</time></trkpt><trkpt lat="45.51051392732223" lon="9.250664408414293"><ele>131.0</ele><time>2026-04-24T16:03:17.992Z</time></trkpt><trkpt lat="45.51049670168877" lon="9.250574279164661"><ele>131.0</ele><time>2026-04-24T16:03:18.992Z</time></trkpt><trkpt lat="45.51046476710654" lon="9.25049512026952"><ele>131.0</ele><time>2026-04-24T16:03:19.992Z</time></trkpt><trkpt lat="45.51043843786883" lon="9.250350512089563"><ele>131.0</ele><time>2026-04-24T16:03:21.999Z</time></trkpt><trkpt lat="45.51042420024397" lon="9.250194510110726"><ele>131.0</ele><time>2026-04-24T16:03:23.999Z</time></trkpt><trkpt lat="45.51041143834266" lon="9.25009994496099"><ele>131.0</ele><time>2026-04-24T16:03:24.999Z</time></trkpt><trkpt lat="45.51037332082919" lon="9.250006862557832"><ele>131.0</ele><time>2026-04-24T16:03:25.999Z</time></trkpt><trkpt lat="45.510365377665835" lon="9.249893263686356"><ele>131.0</ele><time>2026-04-24T16:03:26.999Z</time></trkpt><trkpt lat="45.51033027539906" lon="9.249785067287787"><ele>131.16666666666666</ele><time>2026-04-24T16:03:27.999Z</time></trkpt><trkpt lat="45.510316166097255" lon="9.249667297769717"><ele>131.33333333333331</ele><time>2026-04-24T16:03:28.999Z</time></trkpt><trkpt lat="45.51029774013938" lon="9.249546504238792"><ele>131.5</ele><time>2026-04-24T16:03:29.999Z</time></trkpt><trkpt lat="45.510274405041265" lon="9.24942615405449"><ele>131.66666666666666</ele><time>2026-04-24T16:03:30.999Z</time></trkpt><trkpt lat="45.51024123306281" lon="9.249313343033723"><ele>131.83333333333334</ele><time>2026-04-24T16:03:31.999Z</time></trkpt><trkpt lat="45.51023199647775" lon="9.249193038774164"><ele>132.0</ele><time>2026-04-24T16:03:32.999Z</time></trkpt><trkpt lat="45.5101943995942" lon="9.249092809576492"><ele>132.0</ele><time>2026-04-24T16:03:33.999Z</time></trkpt><trkpt lat="45.51018063248868" lon="9.248988414840843"><ele>132.0</ele><time>2026-04-24T16:03:34.999Z</time></trkpt><trkpt lat="45.51016603544212" lon="9.248889991911955"><ele>132.0</ele><time>2026-04-24T16:03:35.999Z</time></trkpt><trkpt lat="45.51013917513347" lon="9.248800453420094"><ele>132.0</ele><time>2026-04-24T16:03:36.999Z</time></trkpt><trkpt lat="45.51011377131071" lon="9.24871377514844"><ele>132.0</ele><time>2026-04-24T16:03:37.999Z</time></trkpt><trkpt lat="45.51008006158631" lon="9.248633131560457"><ele>132.0</ele><time>2026-04-24T16:03:38.999Z</time></trkpt><trkpt lat="45.51005662862051" lon="9.248545400441673"><ele>132.0</ele><time>2026-04-24T16:03:39.999Z</time></trkpt><trkpt lat="45.51002156822019" lon="9.24846284035523"><ele>132.14285714285714</ele><time>2026-04-24T16:03:41Z</time></trkpt><trkpt lat="45.50998406061092" lon="9.248379210270397"><ele>132.28571428571428</ele><time>2026-04-24T16:03:42Z</time></trkpt><trkpt lat="45.50994445419169" lon="9.248296834226306"><ele>132.42857142857144</ele><time>2026-04-24T16:03:43Z</time></trkpt><trkpt lat="45.50990642294711" lon="9.24821919118098"><ele>132.57142857142856</ele><time>2026-04-24T16:03:44Z</time></trkpt><trkpt lat="45.50983923664069" lon="9.248120633950577"><ele>132.71428571428572</ele><time>2026-04-24T16:03:45.999Z</time></trkpt><trkpt lat="45.509794261620655" lon="9.24804622501572"><ele>132.85714285714286</ele><time>2026-04-24T16:03:47.999Z</time></trkpt><trkpt lat="45.50974942711091" lon="9.247972306148935"><ele>133.0</ele><time>2026-04-24T16:03:50.999Z</time></trkpt><trkpt lat="45.509680768453904" lon="9.247953461937684"><ele>132.4</ele><time>2026-04-24T16:04:11.999Z</time></trkpt><trkpt lat="45.50964885382914" lon="9.247801167384717"><ele>131.8</ele><time>2026-04-24T16:04:14.999Z</time></trkpt><trkpt lat="45.50956060591759" lon="9.24766870611292"><ele>131.2</ele><time>2026-04-24T16:04:16.999Z</time></trkpt><trkpt lat="45.50951072521009" lon="9.247596109579279"><ele>130.6</ele><time>2026-04-24T16:04:17.999Z</time></trkpt><trkpt lat="45.50946821773054" lon="9.247524722999461"><ele>130.0</ele><time>2026-04-24T16:04:18.999Z</time></trkpt><trkpt lat="45.50939513090357" lon="9.247399605113337"><ele>130.0</ele><time>2026-04-24T16:04:20.999Z</time></trkpt><trkpt lat="45.50930072779023" lon="9.247298146063219"><ele>130.0</ele><time>2026-04-24T16:04:22.999Z</time></trkpt><trkpt lat="45.50919654618422" lon="9.247206192998373"><ele>130.0</ele><time>2026-04-24T16:04:24.999Z</time></trkpt><trkpt lat="45.50913467391842" lon="9.247166296961627"><ele>130.0</ele><time>2026-04-24T16:04:25.999Z</time></trkpt><trkpt lat="45.5090814029885" lon="9.247106119914193"><ele>130.0</ele><time>2026-04-24T16:04:26.999Z</time></trkpt><trkpt lat="45.50903210644204" lon="9.247033282190465"><ele>130.0</ele><time>2026-04-24T16:04:27.999Z</time></trkpt><trkpt lat="45.50897411190203" lon="9.246966995585685"><ele>129.8</ele><time>2026-04-24T16:04:28.999Z</time></trkpt><trkpt lat="45.5089282710189" lon="9.246877389721297"><ele>129.6</ele><time>2026-04-24T16:04:29.999Z</time></trkpt><trkpt lat="45.50887080824966" lon="9.246796098808751"><ele>129.4</ele><time>2026-04-24T16:04:30.999Z</time></trkpt><trkpt lat="45.50880404979249" lon="9.24670439554297"><ele>129.2</ele><time>2026-04-24T16:04:31.999Z</time></trkpt><trkpt lat="45.50872977576835" lon="9.246605072070768"><ele>129.0</ele><time>2026-04-24T16:04:32.999Z</time></trkpt><trkpt lat="45.508644566801266" lon="9.246491125663752"><ele>129.25</ele><time>2026-04-24T16:04:33.999Z</time></trkpt><trkpt lat="45.508541646880566" lon="9.246353495526604"><ele>129.5</ele><time>2026-04-24T16:04:34.999Z</time></trkpt><trkpt lat="45.5084363785467" lon="9.246212724782445"><ele>129.75</ele><time>2026-04-24T16:04:35.999Z</time></trkpt><trkpt lat="45.50834267223618" lon="9.246087415446903"><ele>130.0</ele><time>2026-04-24T16:04:36.999Z</time></trkpt><trkpt lat="45.50825298795704" lon="9.245965599716786"><ele>130.0</ele><time>2026-04-24T16:04:37.999Z</time></trkpt><trkpt lat="45.50816286289264" lon="9.245829660680974"><ele>130.0</ele><time>2026-04-24T16:04:38.999Z</time></trkpt><trkpt lat="45.50806795208698" lon="9.245711393888412"><ele>130.0</ele><time>2026-04-24T16:04:39.999Z</time></trkpt><trkpt lat="45.50797871764908" lon="9.245592297123466"><ele>130.0</ele><time>2026-04-24T16:04:40.999Z</time></trkpt><trkpt lat="45.50789019632247" lon="9.245483833036376"><ele>131.0</ele><time>2026-04-24T16:04:41.999Z</time></trkpt><trkpt lat="45.50780119946604" lon="9.245372270855196"><ele>132.0</ele><time>2026-04-24T16:04:42.999Z</time></trkpt><trkpt lat="45.507724938304406" lon="9.24527397725535"><ele>133.0</ele><time>2026-04-24T16:04:43.999Z</time></trkpt><trkpt lat="45.50765645905599" lon="9.24518739973483"><ele>134.0</ele><time>2026-04-24T16:04:44.999Z</time></trkpt><trkpt lat="45.5075933682739" lon="9.245103477092785"><ele>135.0</ele><time>2026-04-24T16:04:45.999Z</time></trkpt><trkpt lat="45.50752842948884" lon="9.245020498551613"><ele>135.0</ele><time>2026-04-24T16:04:46.999Z</time></trkpt><trkpt lat="45.507474046221354" lon="9.244922443701476"><ele>135.0</ele><time>2026-04-24T16:04:47.999Z</time></trkpt><trkpt lat="45.50742687224798" lon="9.24485923349832"><ele>135.0</ele><time>2026-04-24T16:04:48.999Z</time></trkpt><trkpt lat="45.50734319101852" lon="9.244747105561073"><ele>135.0</ele><time>2026-04-24T16:04:50.998Z</time></trkpt><trkpt lat="45.50729527117427" lon="9.244682895985024"><ele>135.0</ele><time>2026-04-24T16:04:51.998Z</time></trkpt><trkpt lat="45.507244572432995" lon="9.24461496265609"><ele>135.0</ele><time>2026-04-24T16:04:52.998Z</time></trkpt><trkpt lat="45.507191753502866" lon="9.244544356967438"><ele>134.66666666666666</ele><time>2026-04-24T16:04:53.998Z</time></trkpt><trkpt lat="45.507133556083474" lon="9.244467632551586"><ele>134.33333333333334</ele><time>2026-04-24T16:04:54.998Z</time></trkpt><trkpt lat="45.50707091259799" lon="9.244385046590319"><ele>134.0</ele><time>2026-04-24T16:04:55.998Z</time></trkpt><trkpt lat="45.5070105221002" lon="9.244305430821106"><ele>133.66666666666669</ele><time>2026-04-24T16:04:56.998Z</time></trkpt><trkpt lat="45.50695452790708" lon="9.2442316109196"><ele>133.33333333333334</ele><time>2026-04-24T16:04:57.998Z</time></trkpt><trkpt lat="45.506884295828414" lon="9.244165283118358"><ele>133.0</ele><time>2026-04-24T16:04:58.998Z</time></trkpt><trkpt lat="45.506816015917" lon="9.244078208707213"><ele>132.20000000000002</ele><time>2026-04-24T16:04:59.998Z</time></trkpt><trkpt lat="45.50675292419304" lon="9.243988547739747"><ele>131.4</ele><time>2026-04-24T16:05:00.998Z</time></trkpt><trkpt lat="45.50668232014994" lon="9.243895173805392"><ele>130.60000000000002</ele><time>2026-04-24T16:05:01.998Z</time></trkpt><trkpt lat="45.50660939544317" lon="9.243798558058323"><ele>129.8</ele><time>2026-04-24T16:05:02.998Z</time></trkpt><trkpt lat="45.5065445498756" lon="9.243706632735943"><ele>129.0</ele><time>2026-04-24T16:05:03.998Z</time></trkpt><trkpt lat="45.506478292855455" lon="9.243617217377304"><ele>129.0</ele><time>2026-04-24T16:05:04.998Z</time></trkpt><trkpt lat="45.50641187722609" lon="9.243533052660883"><ele>129.0</ele><time>2026-04-24T16:05:05.998Z</time></trkpt><trkpt lat="45.50634862888053" lon="9.243441445389587"><ele>129.0</ele><time>2026-04-24T16:05:06.998Z</time></trkpt><trkpt lat="45.50628190287324" lon="9.243357928837897"><ele>129.0</ele><time>2026-04-24T16:05:07.998Z</time></trkpt><trkpt lat="45.50621535190594" lon="9.243258094145443"><ele>129.0</ele><time>2026-04-24T16:05:08.998Z</time></trkpt><trkpt lat="45.506153058491115" lon="9.243175353235694"><ele>129.0</ele><time>2026-04-24T16:05:09.998Z</time></trkpt><trkpt lat="45.50608987642846" lon="9.243092179207842"><ele>128.83333333333334</ele><time>2026-04-24T16:05:10.998Z</time></trkpt><trkpt lat="45.50603203182375" lon="9.24301603925753"><ele>128.66666666666666</ele><time>2026-04-24T16:05:11.998Z</time></trkpt><trkpt lat="45.50597240525214" lon="9.242937553506367"><ele>128.5</ele><time>2026-04-24T16:05:12.998Z</time></trkpt><trkpt lat="45.50591248756878" lon="9.242858684633148"><ele>128.33333333333331</ele><time>2026-04-24T16:05:13.998Z</time></trkpt><trkpt lat="45.50585427331163" lon="9.242782057943982"><ele>128.16666666666666</ele><time>2026-04-24T16:05:14.998Z</time></trkpt><trkpt lat="45.505790752390794" lon="9.24269844622248"><ele>128.0</ele><time>2026-04-24T16:05:15.998Z</time></trkpt><trkpt lat="45.50572705262522" lon="9.24261460336797"><ele>128.0</ele><time>2026-04-24T16:05:16.998Z</time></trkpt><trkpt lat="45.50566512697824" lon="9.242532363257453"><ele>128.0</ele><time>2026-04-24T16:05:17.998Z</time></trkpt><trkpt lat="45.505593119027985" lon="9.242455183063889"><ele>128.0</ele><time>2026-04-24T16:05:18.998Z</time></trkpt><trkpt lat="45.50552832430447" lon="9.242357550000479"><ele>128.0</ele><time>2026-04-24T16:05:19.998Z</time></trkpt><trkpt lat="45.50546162538238" lon="9.242269243839752"><ele>128.0</ele><time>2026-04-24T16:05:20.998Z</time></trkpt><trkpt lat="45.505382805757854" lon="9.242180276088414"><ele>128.4</ele><time>2026-04-24T16:05:21.998Z</time></trkpt><trkpt lat="45.50531175459292" lon="9.242064553729415"><ele>128.8</ele><time>2026-04-24T16:05:22.998Z</time></trkpt><trkpt lat="45.505246505986165" lon="9.241977678403478"><ele>129.2</ele><time>2026-04-24T16:05:23.998Z</time></trkpt><trkpt lat="45.505185677035584" lon="9.241896687764356"><ele>129.6</ele><time>2026-04-24T16:05:24.998Z</time></trkpt><trkpt lat="45.50511022507542" lon="9.241824092657469"><ele>130.0</ele><time>2026-04-24T16:05:25.998Z</time></trkpt><trkpt lat="45.505050485844095" lon="9.241746988456642"><ele>130.00000000000003</ele><time>2026-04-24T16:05:26.998Z</time></trkpt><trkpt lat="45.504997132685645" lon="9.241678282809167"><ele>130.0</ele><time>2026-04-24T16:05:27.998Z</time></trkpt><trkpt lat="45.50495574895452" lon="9.241591917470787"><ele>130.0</ele><time>2026-04-24T16:05:28.998Z</time></trkpt><trkpt lat="45.504899700854644" lon="9.241517891816581"><ele>130.0</ele><time>2026-04-24T16:05:29.998Z</time></trkpt><trkpt lat="45.50483903401755" lon="9.241463593741553"><ele>130.0</ele><time>2026-04-24T16:05:30.998Z</time></trkpt><trkpt lat="45.50479313550203" lon="9.241398363784688"><ele>130.00000000000003</ele><time>2026-04-24T16:05:31.998Z</time></trkpt><trkpt lat="45.50473057671132" lon="9.241318681641769"><ele>130.0</ele><time>2026-04-24T16:05:32.998Z</time></trkpt><trkpt lat="45.5046807925347" lon="9.24122876814797"><ele>130.00000000000003</ele><time>2026-04-24T16:05:33.998Z</time></trkpt><trkpt lat="45.50463143932766" lon="9.241163584759306"><ele>130.0</ele><time>2026-04-24T16:05:34.998Z</time></trkpt><trkpt lat="45.50458517699375" lon="9.241102483715114"><ele>130.0</ele><time>2026-04-24T16:05:35.998Z</time></trkpt><trkpt lat="45.50453147794389" lon="9.241052843240027"><ele>130.0</ele><time>2026-04-24T16:05:36.998Z</time></trkpt><trkpt lat="45.50445961096072" lon="9.240944242227677"><ele>130.0</ele><time>2026-04-24T16:05:38.998Z</time></trkpt><trkpt lat="45.504401170716974" lon="9.240871360080536"><ele>130.00000000000003</ele><time>2026-04-24T16:05:40.997Z</time></trkpt><trkpt lat="45.50434650097809" lon="9.240808523613351"><ele>130.0</ele><time>2026-04-24T16:05:42.997Z</time></trkpt><trkpt lat="45.5042600839187" lon="9.24070299175399"><ele>130.0</ele><time>2026-04-24T16:05:44.997Z</time></trkpt><trkpt lat="45.50419291671957" lon="9.240584025645331"><ele>130.0</ele><time>2026-04-24T16:05:45.997Z</time></trkpt><trkpt lat="45.50414129381021" lon="9.240515696208558"><ele>130.0</ele><time>2026-04-24T16:05:46.997Z</time></trkpt><trkpt lat="45.50408658981521" lon="9.240443288317428"><ele>130.0</ele><time>2026-04-24T16:05:49.997Z</time></trkpt><trkpt lat="45.504026556267085" lon="9.240360685905628"><ele>130.0</ele><time>2026-04-24T16:05:53.997Z</time></trkpt><trkpt lat="45.503971584406855" lon="9.240302622026979"><ele>130.0</ele><time>2026-04-24T16:05:58.997Z</time></trkpt><trkpt lat="45.503907760672014" lon="9.240209022240558"><ele>130.0</ele><time>2026-04-24T16:06:05.997Z</time></trkpt><trkpt lat="45.50383334789279" lon="9.240085575795984"><ele>130.0</ele><time>2026-04-24T16:06:07.997Z</time></trkpt><trkpt lat="45.50379368268128" lon="9.2399880683229"><ele>130.0</ele><time>2026-04-24T16:06:09.997Z</time></trkpt><trkpt lat="45.5037480741986" lon="9.239919735396924"><ele>130.0</ele><time>2026-04-24T16:06:19.997Z</time></trkpt><trkpt lat="45.503813618019365" lon="9.239821435014033"><ele>130.0</ele><time>2026-04-24T16:06:20.997Z</time></trkpt><trkpt lat="45.503874186318264" lon="9.239729051124382"><ele>130.0</ele><time>2026-04-24T16:06:22.997Z</time></trkpt><trkpt lat="45.5039451142323" lon="9.239612227670396"><ele>130.0</ele><time>2026-04-24T16:06:24.997Z</time></trkpt><trkpt lat="45.504027867236054" lon="9.239469421657303"><ele>130.0</ele><time>2026-04-24T16:06:26.997Z</time></trkpt><trkpt lat="45.504117274382224" lon="9.239338075694016"><ele>130.0</ele><time>2026-04-24T16:06:28.997Z</time></trkpt><trkpt lat="45.50416545242266" lon="9.23926544041726"><ele>130.0</ele><time>2026-04-24T16:06:29.997Z</time></trkpt><trkpt lat="45.50422163789297" lon="9.239197460350164"><ele>130.0</ele><time>2026-04-24T16:06:30.997Z</time></trkpt><trkpt lat="45.50427735778577" lon="9.239109947697823"><ele>130.0</ele><time>2026-04-24T16:06:31.996Z</time></trkpt><trkpt lat="45.504341750879654" lon="9.23900819197933"><ele>130.0</ele><time>2026-04-24T16:06:32.996Z</time></trkpt><trkpt lat="45.5044046687343" lon="9.238911046470234"><ele>130.0</ele><time>2026-04-24T16:06:33.996Z</time></trkpt><trkpt lat="45.50446498683479" lon="9.238819276720033"><ele>130.0</ele><time>2026-04-24T16:06:34.996Z</time></trkpt><trkpt lat="45.50451948928042" lon="9.238736355020391"><ele>130.0</ele><time>2026-04-24T16:06:35.996Z</time></trkpt><trkpt lat="45.50457026983775" lon="9.238656509244079"><ele>130.0</ele><time>2026-04-24T16:06:36.996Z</time></trkpt><trkpt lat="45.504623445833005" lon="9.238571528023353"><ele>130.0</ele><time>2026-04-24T16:06:37.996Z</time></trkpt><trkpt lat="45.504680454003186" lon="9.238480188333279"><ele>130.0</ele><time>2026-04-24T16:06:38.996Z</time></trkpt><trkpt lat="45.504736196519715" lon="9.238390966453963"><ele>130.0</ele><time>2026-04-24T16:06:39.996Z</time></trkpt><trkpt lat="45.50476267685751" lon="9.238274117544245"><ele>130.0</ele><time>2026-04-24T16:06:40.996Z</time></trkpt><trkpt lat="45.50480905399194" lon="9.238176675435293"><ele>130.0</ele><time>2026-04-24T16:06:41.996Z</time></trkpt><trkpt lat="45.50484949866034" lon="9.238079954461432"><ele>130.0</ele><time>2026-04-24T16:06:42.996Z</time></trkpt><trkpt lat="45.504891295230095" lon="9.23799239619872"><ele>130.0</ele><time>2026-04-24T16:06:43.996Z</time></trkpt><trkpt lat="45.50494560209281" lon="9.23792110769255"><ele>130.0</ele><time>2026-04-24T16:06:44.996Z</time></trkpt><trkpt lat="45.505016037096375" lon="9.237864327709344"><ele>130.0</ele><time>2026-04-24T16:06:45.996Z</time></trkpt><trkpt lat="45.505082402808796" lon="9.23781202906819"><ele>130.0</ele><time>2026-04-24T16:06:46.996Z</time></trkpt><trkpt lat="45.50516459827313" lon="9.237820477315973"><ele>130.0</ele><time>2026-04-24T16:06:47.996Z</time></trkpt><trkpt lat="45.5052784764147" lon="9.23775133155823"><ele>130.0</ele><time>2026-04-24T16:06:49.996Z</time></trkpt><trkpt lat="45.50538519804524" lon="9.237680658430492"><ele>130.33333333333334</ele><time>2026-04-24T16:06:51.996Z</time></trkpt><trkpt lat="45.505491138748674" lon="9.237624821916476"><ele>130.66666666666669</ele><time>2026-04-24T16:06:53.996Z</time></trkpt><trkpt lat="45.505550958619665" lon="9.237595500735276"><ele>131.0</ele><time>2026-04-24T16:06:54.996Z</time></trkpt><trkpt lat="45.505617988049714" lon="9.237566740393001"><ele>131.33333333333334</ele><time>2026-04-24T16:06:55.996Z</time></trkpt><trkpt lat="45.50569688562644" lon="9.237555854956428"><ele>131.66666666666666</ele><time>2026-04-24T16:06:56.996Z</time></trkpt><trkpt lat="45.50576892952946" lon="9.237524568569885"><ele>132.0</ele><time>2026-04-24T16:06:57.996Z</time></trkpt><trkpt lat="45.50583983871806" lon="9.237492649486338"><ele>132.0</ele><time>2026-04-24T16:06:58.996Z</time></trkpt><trkpt lat="45.50591366504537" lon="9.23745941719415"><ele>132.0</ele><time>2026-04-24T16:06:59.996Z</time></trkpt><trkpt lat="45.50598442328768" lon="9.23742760455904"><ele>132.0</ele><time>2026-04-24T16:07:00.996Z</time></trkpt><trkpt lat="45.50605058784742" lon="9.237397733642062"><ele>132.0</ele><time>2026-04-24T16:07:01.996Z</time></trkpt><trkpt lat="45.50611866207988" lon="9.237369202627676"><ele>132.0</ele><time>2026-04-24T16:07:02.996Z</time></trkpt><trkpt lat="45.50618971481118" lon="9.237339423434614"><ele>132.0</ele><time>2026-04-24T16:07:03.996Z</time></trkpt><trkpt lat="45.506268637400346" lon="9.237306345847106"><ele>132.0</ele><time>2026-04-24T16:07:04.996Z</time></trkpt><trkpt lat="45.5063562217625" lon="9.237269637514"><ele>131.79999999999998</ele><time>2026-04-24T16:07:05.996Z</time></trkpt><trkpt lat="45.506448537858866" lon="9.237227728611312"><ele>131.6</ele><time>2026-04-24T16:07:06.996Z</time></trkpt><trkpt lat="45.50654635043548" lon="9.23718372711028"><ele>131.39999999999998</ele><time>2026-04-24T16:07:07.996Z</time></trkpt><trkpt lat="45.50664991916183" lon="9.237139698428512"><ele>131.2</ele><time>2026-04-24T16:07:08.996Z</time></trkpt><trkpt lat="45.50676704780285" lon="9.23708980434017"><ele>131.0</ele><time>2026-04-24T16:07:09.996Z</time></trkpt><trkpt lat="45.50688711229251" lon="9.237038659664197"><ele>131.0</ele><time>2026-04-24T16:07:10.996Z</time></trkpt><trkpt lat="45.506997923922725" lon="9.23699145644375"><ele>131.0</ele><time>2026-04-24T16:07:11.996Z</time></trkpt><trkpt lat="45.50708595091267" lon="9.23695292447928"><ele>131.0</ele><time>2026-04-24T16:07:12.996Z</time></trkpt><trkpt lat="45.507149161705854" lon="9.236923821414498"><ele>131.0</ele><time>2026-04-24T16:07:13.996Z</time></trkpt><trkpt lat="45.50723387350661" lon="9.23688481896806"><ele>131.0</ele><time>2026-04-24T16:07:15.996Z</time></trkpt><trkpt lat="45.507419396141145" lon="9.236881583677865"><ele>131.2</ele><time>2026-04-24T16:07:18.996Z</time></trkpt><trkpt lat="45.50744820277649" lon="9.237004836764964"><ele>131.39999999999998</ele><time>2026-04-24T16:07:19.996Z</time></trkpt><trkpt lat="45.50748400427342" lon="9.237158715735884"><ele>131.6</ele><time>2026-04-24T16:07:20.996Z</time></trkpt><trkpt lat="45.507524104789795" lon="9.237324819339896"><ele>131.79999999999998</ele><time>2026-04-24T16:07:21.996Z</time></trkpt><trkpt lat="45.507547634322094" lon="9.237490305893003"><ele>132.0</ele><time>2026-04-24T16:07:22.995Z</time></trkpt><trkpt lat="45.50759392938351" lon="9.237618912920704"><ele>131.83333333333334</ele><time>2026-04-24T16:07:23.995Z</time></trkpt><trkpt lat="45.507601813893515" lon="9.237728161977923"><ele>131.66666666666666</ele><time>2026-04-24T16:07:24.995Z</time></trkpt><trkpt lat="45.50762782034436" lon="9.237814568955601"><ele>131.5</ele><time>2026-04-24T16:07:25.995Z</time></trkpt><trkpt lat="45.507652827776255" lon="9.237925287911182"><ele>131.33333333333331</ele><time>2026-04-24T16:07:27.995Z</time></trkpt><trkpt lat="45.50768123866341" lon="9.238010608377179"><ele>131.16666666666666</ele><time>2026-04-24T16:07:30.995Z</time></trkpt><trkpt lat="45.50754384594872" lon="9.238120400480557"><ele>131.0</ele><time>2026-04-24T16:07:32.995Z</time></trkpt><trkpt lat="45.50747006805001" lon="9.238156779460711"><ele>131.0</ele><time>2026-04-24T16:07:33.995Z</time></trkpt><trkpt lat="45.507395301013155" lon="9.23819364631932"><ele>131.0</ele><time>2026-04-24T16:07:34.995Z</time></trkpt><trkpt lat="45.50731262548098" lon="9.238234412702115"><ele>131.0</ele><time>2026-04-24T16:07:35.995Z</time></trkpt><trkpt lat="45.507232771542334" lon="9.238282638779463"><ele>131.0</ele><time>2026-04-24T16:07:36.995Z</time></trkpt><trkpt lat="45.50715785229021" lon="9.238303552046576"><ele>131.0</ele><time>2026-04-24T16:07:37.995Z</time></trkpt><trkpt lat="45.50708246409821" lon="9.238334305491959"><ele>131.0</ele><time>2026-04-24T16:07:38.995Z</time></trkpt><trkpt lat="45.50701781055783" lon="9.23836102835256"><ele>131.25</ele><time>2026-04-24T16:07:39.995Z</time></trkpt><trkpt lat="45.50692994082675" lon="9.238394098047419"><ele>131.5</ele><time>2026-04-24T16:07:41.995Z</time></trkpt><trkpt lat="45.506872103268826" lon="9.23845110279717"><ele>131.75</ele><time>2026-04-24T16:07:44.995Z</time></trkpt><trkpt lat="45.50661890940901" lon="9.23860538954066"><ele>132.0</ele><time>2026-04-24T16:07:45.995Z</time></trkpt><trkpt lat="45.506651250859655" lon="9.238753962976384"><ele>132.0</ele><time>2026-04-24T16:07:47.995Z</time></trkpt><trkpt lat="45.5066745286795" lon="9.238860898899658"><ele>132.0</ele><time>2026-04-24T16:07:49.995Z</time></trkpt><trkpt lat="45.506702558222344" lon="9.238983000444298"><ele>132.0</ele><time>2026-04-24T16:07:51.995Z</time></trkpt><trkpt lat="45.50673873372522" lon="9.239135102711298"><ele>132.0</ele><time>2026-04-24T16:07:54.995Z</time></trkpt><trkpt lat="45.50677016287898" lon="9.239226421762956"><ele>132.0</ele><time>2026-04-24T16:08:16.994Z</time></trkpt><trkpt lat="45.50679521480448" lon="9.239312926859"><ele>132.0</ele><time>2026-04-24T16:08:21.994Z</time></trkpt><trkpt lat="45.50681433435696" lon="9.239445807968831"><ele>129.0</ele><time>2026-04-24T16:08:23.994Z</time></trkpt><trkpt lat="45.506814185731486" lon="9.239598379508944"><ele>129.0</ele><time>2026-04-24T16:08:25.994Z</time></trkpt><trkpt lat="45.5068501481646" lon="9.239705285571574"><ele>129.0</ele><time>2026-04-24T16:08:27.994Z</time></trkpt></trkseg></trk></gpx>